<?xml version="1.0" encoding="UTF-8" standalone="no" ?>
<gpx xmlns="http://www.topografix.com/GPX/1/1" xmlns:xsi="http://www.w3.org/2001/XMLSchema-instance" xsi:schemaLocation="http://www.topografix.com/GPX/1/1 http://www.topografix.com/GPX/1/1/gpx.xsd" version="1.1" creator="VisuGPX - https://www.visugpx.com">
  <metadata>
    <name>sigean le rieu et les sentiers de roquefort</name>
    <desc><![CDATA[il me manque la fin  car mon gps c'est arrêté............]]></desc>
  </metadata>
  <trk>
    <name><![CDATA[Sigean le rieu et Roquefort ]]></name>
    <extensions>
      <line xmlns="http://www.topografix.com/GPX/gpx_style/0/2">
        <color>E-Bike Ride </color>
        <width> Strava</width>
      </line>
    </extensions>
    <trkseg>
      <trkpt lat="43.05895" lon="2.92061">
        <ele>53.6</ele>
        <time>2020-06-03T10:22:00.000Z</time>
      </trkpt>
      <trkpt lat="43.05895" lon="2.92061">
        <ele>53.6</ele>
        <time>2020-06-03T10:22:00.000Z</time>
      </trkpt>
      <trkpt lat="43.05332" lon="2.92247">
        <ele>56.2</ele>
        <time>2020-06-03T10:24:32.000Z</time>
      </trkpt>
      <trkpt lat="43.05316" lon="2.92266">
        <ele>56.6</ele>
        <time>2020-06-03T10:24:37.000Z</time>
      </trkpt>
      <trkpt lat="43.05313" lon="2.9227">
        <ele>57</ele>
        <time>2020-06-03T10:24:38.000Z</time>
      </trkpt>
      <trkpt lat="43.0531" lon="2.92274">
        <ele>57.4</ele>
        <time>2020-06-03T10:24:39.000Z</time>
      </trkpt>
      <trkpt lat="43.05306" lon="2.92278">
        <ele>57.8</ele>
        <time>2020-06-03T10:24:40.000Z</time>
      </trkpt>
      <trkpt lat="43.05303" lon="2.92282">
        <ele>58.2</ele>
        <time>2020-06-03T10:24:41.000Z</time>
      </trkpt>
      <trkpt lat="43.05281" lon="2.92309">
        <ele>58.2</ele>
        <time>2020-06-03T10:24:48.000Z</time>
      </trkpt>
      <trkpt lat="43.05253" lon="2.92334">
        <ele>58.2</ele>
        <time>2020-06-03T10:24:56.000Z</time>
      </trkpt>
      <trkpt lat="43.05245" lon="2.92338">
        <ele>58.2</ele>
        <time>2020-06-03T10:24:58.000Z</time>
      </trkpt>
      <trkpt lat="43.05232" lon="2.92336">
        <ele>58.2</ele>
        <time>2020-06-03T10:25:01.000Z</time>
      </trkpt>
      <trkpt lat="43.05223" lon="2.92336">
        <ele>58.2</ele>
        <time>2020-06-03T10:25:03.000Z</time>
      </trkpt>
      <trkpt lat="43.05203" lon="2.92333">
        <ele>58.2</ele>
        <time>2020-06-03T10:25:08.000Z</time>
      </trkpt>
      <trkpt lat="43.05169" lon="2.92329">
        <ele>58.2</ele>
        <time>2020-06-03T10:25:15.000Z</time>
      </trkpt>
      <trkpt lat="43.05156" lon="2.92332">
        <ele>58.2</ele>
        <time>2020-06-03T10:25:18.000Z</time>
      </trkpt>
      <trkpt lat="43.05144" lon="2.92339">
        <ele>58.2</ele>
        <time>2020-06-03T10:25:21.000Z</time>
      </trkpt>
      <trkpt lat="43.05136" lon="2.92345">
        <ele>58.2</ele>
        <time>2020-06-03T10:25:23.000Z</time>
      </trkpt>
      <trkpt lat="43.05125" lon="2.92357">
        <ele>58.2</ele>
        <time>2020-06-03T10:25:26.000Z</time>
      </trkpt>
      <trkpt lat="43.05122" lon="2.92361">
        <ele>58.2</ele>
        <time>2020-06-03T10:25:27.000Z</time>
      </trkpt>
      <trkpt lat="43.05118" lon="2.92365">
        <ele>58.2</ele>
        <time>2020-06-03T10:25:28.000Z</time>
      </trkpt>
      <trkpt lat="43.05103" lon="2.9237">
        <ele>58.2</ele>
        <time>2020-06-03T10:25:31.000Z</time>
      </trkpt>
      <trkpt lat="43.05088" lon="2.92367">
        <ele>58.2</ele>
        <time>2020-06-03T10:25:34.000Z</time>
      </trkpt>
      <trkpt lat="43.05079" lon="2.92365">
        <ele>58.2</ele>
        <time>2020-06-03T10:25:36.000Z</time>
      </trkpt>
      <trkpt lat="43.05049" lon="2.92361">
        <ele>58.2</ele>
        <time>2020-06-03T10:25:43.000Z</time>
      </trkpt>
      <trkpt lat="43.05034" lon="2.92362">
        <ele>58.2</ele>
        <time>2020-06-03T10:25:46.000Z</time>
      </trkpt>
      <trkpt lat="43.05018" lon="2.92367">
        <ele>58.2</ele>
        <time>2020-06-03T10:25:49.000Z</time>
      </trkpt>
      <trkpt lat="43.04982" lon="2.92374">
        <ele>58.2</ele>
        <time>2020-06-03T10:25:56.000Z</time>
      </trkpt>
      <trkpt lat="43.04977" lon="2.92373">
        <ele>58.2</ele>
        <time>2020-06-03T10:25:57.000Z</time>
      </trkpt>
      <trkpt lat="43.04967" lon="2.92373">
        <ele>57.8</ele>
        <time>2020-06-03T10:25:59.000Z</time>
      </trkpt>
      <trkpt lat="43.04962" lon="2.92373">
        <ele>57.4</ele>
        <time>2020-06-03T10:26:00.000Z</time>
      </trkpt>
      <trkpt lat="43.04957" lon="2.92372">
        <ele>57</ele>
        <time>2020-06-03T10:26:01.000Z</time>
      </trkpt>
      <trkpt lat="43.04951" lon="2.9237">
        <ele>56.6</ele>
        <time>2020-06-03T10:26:02.000Z</time>
      </trkpt>
      <trkpt lat="43.04946" lon="2.92369">
        <ele>56.2</ele>
        <time>2020-06-03T10:26:03.000Z</time>
      </trkpt>
      <trkpt lat="43.04927" lon="2.92358">
        <ele>56.2</ele>
        <time>2020-06-03T10:26:07.000Z</time>
      </trkpt>
      <trkpt lat="43.04923" lon="2.92355">
        <ele>56.2</ele>
        <time>2020-06-03T10:26:08.000Z</time>
      </trkpt>
      <trkpt lat="43.04879" lon="2.92326">
        <ele>56.2</ele>
        <time>2020-06-03T10:26:17.000Z</time>
      </trkpt>
      <trkpt lat="43.04868" lon="2.92321">
        <ele>56.2</ele>
        <time>2020-06-03T10:26:19.000Z</time>
      </trkpt>
      <trkpt lat="43.04857" lon="2.92319">
        <ele>56.2</ele>
        <time>2020-06-03T10:26:21.000Z</time>
      </trkpt>
      <trkpt lat="43.04851" lon="2.9232">
        <ele>56.2</ele>
        <time>2020-06-03T10:26:22.000Z</time>
      </trkpt>
      <trkpt lat="43.04845" lon="2.92321">
        <ele>56.2</ele>
        <time>2020-06-03T10:26:23.000Z</time>
      </trkpt>
      <trkpt lat="43.04829" lon="2.92329">
        <ele>56.2</ele>
        <time>2020-06-03T10:26:26.000Z</time>
      </trkpt>
      <trkpt lat="43.04813" lon="2.92349">
        <ele>56.2</ele>
        <time>2020-06-03T10:26:30.000Z</time>
      </trkpt>
      <trkpt lat="43.04809" lon="2.92354">
        <ele>56.2</ele>
        <time>2020-06-03T10:26:31.000Z</time>
      </trkpt>
      <trkpt lat="43.04785" lon="2.92396">
        <ele>56.2</ele>
        <time>2020-06-03T10:26:38.000Z</time>
      </trkpt>
      <trkpt lat="43.04768" lon="2.92426">
        <ele>56.2</ele>
        <time>2020-06-03T10:26:43.000Z</time>
      </trkpt>
      <trkpt lat="43.04758" lon="2.92443">
        <ele>56.2</ele>
        <time>2020-06-03T10:26:46.000Z</time>
      </trkpt>
      <trkpt lat="43.04737" lon="2.92485">
        <ele>56.2</ele>
        <time>2020-06-03T10:26:53.000Z</time>
      </trkpt>
      <trkpt lat="43.04733" lon="2.92499">
        <ele>56.2</ele>
        <time>2020-06-03T10:26:55.000Z</time>
      </trkpt>
      <trkpt lat="43.0473" lon="2.9252">
        <ele>56.2</ele>
        <time>2020-06-03T10:26:58.000Z</time>
      </trkpt>
      <trkpt lat="43.04728" lon="2.92542">
        <ele>56.2</ele>
        <time>2020-06-03T10:27:01.000Z</time>
      </trkpt>
      <trkpt lat="43.04729" lon="2.92565">
        <ele>56.2</ele>
        <time>2020-06-03T10:27:04.000Z</time>
      </trkpt>
      <trkpt lat="43.04725" lon="2.92618">
        <ele>56.2</ele>
        <time>2020-06-03T10:27:11.000Z</time>
      </trkpt>
      <trkpt lat="43.04718" lon="2.92638">
        <ele>56.2</ele>
        <time>2020-06-03T10:27:14.000Z</time>
      </trkpt>
      <trkpt lat="43.04709" lon="2.92656">
        <ele>56.2</ele>
        <time>2020-06-03T10:27:17.000Z</time>
      </trkpt>
      <trkpt lat="43.04705" lon="2.92661">
        <ele>56.2</ele>
        <time>2020-06-03T10:27:18.000Z</time>
      </trkpt>
      <trkpt lat="43.04688" lon="2.9268">
        <ele>56.2</ele>
        <time>2020-06-03T10:27:22.000Z</time>
      </trkpt>
      <trkpt lat="43.04653" lon="2.92701">
        <ele>56.2</ele>
        <time>2020-06-03T10:27:29.000Z</time>
      </trkpt>
      <trkpt lat="43.04615" lon="2.92721">
        <ele>56.2</ele>
        <time>2020-06-03T10:27:37.000Z</time>
      </trkpt>
      <trkpt lat="43.04581" lon="2.9275">
        <ele>56.2</ele>
        <time>2020-06-03T10:27:45.000Z</time>
      </trkpt>
      <trkpt lat="43.04552" lon="2.92781">
        <ele>56.2</ele>
        <time>2020-06-03T10:27:52.000Z</time>
      </trkpt>
      <trkpt lat="43.04544" lon="2.9279">
        <ele>56.2</ele>
        <time>2020-06-03T10:27:54.000Z</time>
      </trkpt>
      <trkpt lat="43.04516" lon="2.9282">
        <ele>56.2</ele>
        <time>2020-06-03T10:28:01.000Z</time>
      </trkpt>
      <trkpt lat="43.04483" lon="2.92853">
        <ele>56.2</ele>
        <time>2020-06-03T10:28:09.000Z</time>
      </trkpt>
      <trkpt lat="43.04446" lon="2.92893">
        <ele>56.2</ele>
        <time>2020-06-03T10:28:18.000Z</time>
      </trkpt>
      <trkpt lat="43.04415" lon="2.92931">
        <ele>56.2</ele>
        <time>2020-06-03T10:28:26.000Z</time>
      </trkpt>
      <trkpt lat="43.04381" lon="2.92978">
        <ele>56.2</ele>
        <time>2020-06-03T10:28:35.000Z</time>
      </trkpt>
      <trkpt lat="43.04359" lon="2.93013">
        <ele>56.2</ele>
        <time>2020-06-03T10:28:42.000Z</time>
      </trkpt>
      <trkpt lat="43.04335" lon="2.93055">
        <ele>56.2</ele>
        <time>2020-06-03T10:28:50.000Z</time>
      </trkpt>
      <trkpt lat="43.04317" lon="2.93095">
        <ele>56.2</ele>
        <time>2020-06-03T10:28:57.000Z</time>
      </trkpt>
      <trkpt lat="43.04295" lon="2.93155">
        <ele>56.2</ele>
        <time>2020-06-03T10:29:07.000Z</time>
      </trkpt>
      <trkpt lat="43.0429" lon="2.93165">
        <ele>56.2</ele>
        <time>2020-06-03T10:29:09.000Z</time>
      </trkpt>
      <trkpt lat="43.04282" lon="2.93184">
        <ele>56.2</ele>
        <time>2020-06-03T10:29:12.000Z</time>
      </trkpt>
      <trkpt lat="43.04281" lon="2.9319">
        <ele>56.2</ele>
        <time>2020-06-03T10:29:13.000Z</time>
      </trkpt>
      <trkpt lat="43.04272" lon="2.93222">
        <ele>56.2</ele>
        <time>2020-06-03T10:29:18.000Z</time>
      </trkpt>
      <trkpt lat="43.0426" lon="2.93284">
        <ele>56.2</ele>
        <time>2020-06-03T10:29:27.000Z</time>
      </trkpt>
      <trkpt lat="43.04253" lon="2.93324">
        <ele>56.6</ele>
        <time>2020-06-03T10:29:33.000Z</time>
      </trkpt>
      <trkpt lat="43.04252" lon="2.9333">
        <ele>57</ele>
        <time>2020-06-03T10:29:34.000Z</time>
      </trkpt>
      <trkpt lat="43.04251" lon="2.93337">
        <ele>57.4</ele>
        <time>2020-06-03T10:29:35.000Z</time>
      </trkpt>
      <trkpt lat="43.0425" lon="2.93344">
        <ele>57.8</ele>
        <time>2020-06-03T10:29:36.000Z</time>
      </trkpt>
      <trkpt lat="43.04249" lon="2.9335">
        <ele>58.2</ele>
        <time>2020-06-03T10:29:37.000Z</time>
      </trkpt>
      <trkpt lat="43.04242" lon="2.93388">
        <ele>58.2</ele>
        <time>2020-06-03T10:29:43.000Z</time>
      </trkpt>
      <trkpt lat="43.04234" lon="2.93438">
        <ele>58.2</ele>
        <time>2020-06-03T10:29:51.000Z</time>
      </trkpt>
      <trkpt lat="43.04224" lon="2.93492">
        <ele>58.2</ele>
        <time>2020-06-03T10:29:59.000Z</time>
      </trkpt>
      <trkpt lat="43.04084" lon="2.93887">
        <ele>57.8</ele>
        <time>2020-06-03T10:31:00.000Z</time>
      </trkpt>
      <trkpt lat="43.04082" lon="2.93893">
        <ele>57.4</ele>
        <time>2020-06-03T10:31:01.000Z</time>
      </trkpt>
      <trkpt lat="43.04079" lon="2.939">
        <ele>56.6</ele>
        <time>2020-06-03T10:31:02.000Z</time>
      </trkpt>
      <trkpt lat="43.04077" lon="2.93907">
        <ele>56.2</ele>
        <time>2020-06-03T10:31:03.000Z</time>
      </trkpt>
      <trkpt lat="43.04063" lon="2.93943">
        <ele>56.2</ele>
        <time>2020-06-03T10:31:08.000Z</time>
      </trkpt>
      <trkpt lat="43.04046" lon="2.93988">
        <ele>56.2</ele>
        <time>2020-06-03T10:31:15.000Z</time>
      </trkpt>
      <trkpt lat="43.04029" lon="2.94033">
        <ele>56.2</ele>
        <time>2020-06-03T10:31:22.000Z</time>
      </trkpt>
      <trkpt lat="43.04012" lon="2.94078">
        <ele>56.2</ele>
        <time>2020-06-03T10:31:29.000Z</time>
      </trkpt>
      <trkpt lat="43.03994" lon="2.94127">
        <ele>56.2</ele>
        <time>2020-06-03T10:31:37.000Z</time>
      </trkpt>
      <trkpt lat="43.03979" lon="2.94179">
        <ele>56.2</ele>
        <time>2020-06-03T10:31:44.000Z</time>
      </trkpt>
      <trkpt lat="43.03968" lon="2.94237">
        <ele>56.2</ele>
        <time>2020-06-03T10:31:52.000Z</time>
      </trkpt>
      <trkpt lat="43.03965" lon="2.94254">
        <ele>55.8</ele>
        <time>2020-06-03T10:31:54.000Z</time>
      </trkpt>
      <trkpt lat="43.03964" lon="2.94262">
        <ele>55.2</ele>
        <time>2020-06-03T10:31:55.000Z</time>
      </trkpt>
      <trkpt lat="43.03963" lon="2.94271">
        <ele>54.8</ele>
        <time>2020-06-03T10:31:56.000Z</time>
      </trkpt>
      <trkpt lat="43.03961" lon="2.9428">
        <ele>54.4</ele>
        <time>2020-06-03T10:31:57.000Z</time>
      </trkpt>
      <trkpt lat="43.0396" lon="2.94288">
        <ele>54</ele>
        <time>2020-06-03T10:31:58.000Z</time>
      </trkpt>
      <trkpt lat="43.03959" lon="2.94297">
        <ele>54</ele>
        <time>2020-06-03T10:31:59.000Z</time>
      </trkpt>
      <trkpt lat="43.03949" lon="2.94358">
        <ele>54</ele>
        <time>2020-06-03T10:32:07.000Z</time>
      </trkpt>
      <trkpt lat="43.03942" lon="2.94409">
        <ele>54</ele>
        <time>2020-06-03T10:32:13.000Z</time>
      </trkpt>
      <trkpt lat="43.0394" lon="2.94418">
        <ele>53.6</ele>
        <time>2020-06-03T10:32:14.000Z</time>
      </trkpt>
      <trkpt lat="43.03939" lon="2.94427">
        <ele>53.2</ele>
        <time>2020-06-03T10:32:15.000Z</time>
      </trkpt>
      <trkpt lat="43.03938" lon="2.94437">
        <ele>52.2</ele>
        <time>2020-06-03T10:32:16.000Z</time>
      </trkpt>
      <trkpt lat="43.03936" lon="2.94446">
        <ele>51.8</ele>
        <time>2020-06-03T10:32:17.000Z</time>
      </trkpt>
    </trkseg>
  </trk>
  <trk>
    <name><![CDATA[sigean le rieu et les sentiers de roquefort_2]]></name>
    <trkseg>
      <trkpt lat="43.03729" lon="2.95265">
        <ele>44</ele>
        <time>2020-06-03T14:16:35.000Z</time>
      </trkpt>
      <trkpt lat="43.03731" lon="2.95247">
        <ele>44.4</ele>
        <time>2020-06-03T14:16:37.000Z</time>
      </trkpt>
      <trkpt lat="43.03732" lon="2.95238">
        <ele>45</ele>
        <time>2020-06-03T14:16:38.000Z</time>
      </trkpt>
      <trkpt lat="43.03734" lon="2.95229">
        <ele>45.4</ele>
        <time>2020-06-03T14:16:39.000Z</time>
      </trkpt>
      <trkpt lat="43.03735" lon="2.95219">
        <ele>45.8</ele>
        <time>2020-06-03T14:16:40.000Z</time>
      </trkpt>
      <trkpt lat="43.03736" lon="2.9521">
        <ele>46.2</ele>
        <time>2020-06-03T14:16:41.000Z</time>
      </trkpt>
      <trkpt lat="43.03884" lon="2.94762">
        <ele>46.2</ele>
        <time>2020-06-03T14:17:33.000Z</time>
      </trkpt>
      <trkpt lat="43.03885" lon="2.94753">
        <ele>46.2</ele>
        <time>2020-06-03T14:17:34.000Z</time>
      </trkpt>
      <trkpt lat="43.03894" lon="2.94683">
        <ele>46.6</ele>
        <time>2020-06-03T14:17:42.000Z</time>
      </trkpt>
      <trkpt lat="43.03895" lon="2.94676">
        <ele>47</ele>
        <time>2020-06-03T14:17:43.000Z</time>
      </trkpt>
      <trkpt lat="43.03897" lon="2.9467">
        <ele>47.4</ele>
        <time>2020-06-03T14:17:44.000Z</time>
      </trkpt>
      <trkpt lat="43.03899" lon="2.94663">
        <ele>47.8</ele>
        <time>2020-06-03T14:17:45.000Z</time>
      </trkpt>
      <trkpt lat="43.039" lon="2.94655">
        <ele>48.2</ele>
        <time>2020-06-03T14:17:46.000Z</time>
      </trkpt>
    </trkseg>
  </trk>
  <trk>
    <name><![CDATA[sigean le rieu et les sentiers de roquefort_3]]></name>
    <trkseg>
      <trkpt lat="43.03139" lon="2.9653">
        <ele>45.2</ele>
        <time>2020-06-03T10:37:44.000Z</time>
      </trkpt>
      <trkpt lat="43.03135" lon="2.96532">
        <ele>45.2</ele>
        <time>2020-06-03T10:37:45.000Z</time>
      </trkpt>
      <trkpt lat="43.03126" lon="2.96538">
        <ele>45.2</ele>
        <time>2020-06-03T10:37:47.000Z</time>
      </trkpt>
      <trkpt lat="43.03115" lon="2.96553">
        <ele>45.2</ele>
        <time>2020-06-03T10:37:50.000Z</time>
      </trkpt>
      <trkpt lat="43.03113" lon="2.96576">
        <ele>45.2</ele>
        <time>2020-06-03T10:37:53.000Z</time>
      </trkpt>
      <trkpt lat="43.03114" lon="2.96584">
        <ele>45.2</ele>
        <time>2020-06-03T10:37:54.000Z</time>
      </trkpt>
      <trkpt lat="43.03115" lon="2.96591">
        <ele>45.2</ele>
        <time>2020-06-03T10:37:55.000Z</time>
      </trkpt>
      <trkpt lat="43.03122" lon="2.96604">
        <ele>45.2</ele>
        <time>2020-06-03T10:37:57.000Z</time>
      </trkpt>
      <trkpt lat="43.03133" lon="2.9663">
        <ele>45.2</ele>
        <time>2020-06-03T10:38:01.000Z</time>
      </trkpt>
      <trkpt lat="43.03134" lon="2.96644">
        <ele>45.2</ele>
        <time>2020-06-03T10:38:03.000Z</time>
      </trkpt>
      <trkpt lat="43.03136" lon="2.96674">
        <ele>45.2</ele>
        <time>2020-06-03T10:38:07.000Z</time>
      </trkpt>
      <trkpt lat="43.03137" lon="2.96682">
        <ele>44.8</ele>
        <time>2020-06-03T10:38:08.000Z</time>
      </trkpt>
      <trkpt lat="43.03137" lon="2.9669">
        <ele>44.2</ele>
        <time>2020-06-03T10:38:09.000Z</time>
      </trkpt>
      <trkpt lat="43.03138" lon="2.96698">
        <ele>43.8</ele>
        <time>2020-06-03T10:38:10.000Z</time>
      </trkpt>
      <trkpt lat="43.03098" lon="2.97115">
        <ele>43</ele>
        <time>2020-06-03T10:39:09.000Z</time>
      </trkpt>
      <trkpt lat="43.03087" lon="2.97166">
        <ele>43</ele>
        <time>2020-06-03T10:39:17.000Z</time>
      </trkpt>
      <trkpt lat="43.03081" lon="2.97202">
        <ele>42.6</ele>
        <time>2020-06-03T10:39:22.000Z</time>
      </trkpt>
      <trkpt lat="43.03079" lon="2.97209">
        <ele>42.2</ele>
        <time>2020-06-03T10:39:23.000Z</time>
      </trkpt>
      <trkpt lat="43.03078" lon="2.97216">
        <ele>41.8</ele>
        <time>2020-06-03T10:39:24.000Z</time>
      </trkpt>
      <trkpt lat="43.03076" lon="2.97222">
        <ele>41.4</ele>
        <time>2020-06-03T10:39:25.000Z</time>
      </trkpt>
      <trkpt lat="43.03075" lon="2.97228">
        <ele>41</ele>
        <time>2020-06-03T10:39:26.000Z</time>
      </trkpt>
      <trkpt lat="43.03069" lon="2.9725">
        <ele>41</ele>
        <time>2020-06-03T10:39:30.000Z</time>
      </trkpt>
      <trkpt lat="43.0306" lon="2.97284">
        <ele>41</ele>
        <time>2020-06-03T10:39:36.000Z</time>
      </trkpt>
      <trkpt lat="43.03049" lon="2.97322">
        <ele>41</ele>
        <time>2020-06-03T10:39:42.000Z</time>
      </trkpt>
      <trkpt lat="43.03033" lon="2.97379">
        <ele>41</ele>
        <time>2020-06-03T10:39:50.000Z</time>
      </trkpt>
      <trkpt lat="43.0302" lon="2.97426">
        <ele>41</ele>
        <time>2020-06-03T10:39:57.000Z</time>
      </trkpt>
      <trkpt lat="43.03012" lon="2.97472">
        <ele>41</ele>
        <time>2020-06-03T10:40:03.000Z</time>
      </trkpt>
      <trkpt lat="43.03006" lon="2.9752">
        <ele>40.6</ele>
        <time>2020-06-03T10:40:09.000Z</time>
      </trkpt>
      <trkpt lat="43.03005" lon="2.97527">
        <ele>40</ele>
        <time>2020-06-03T10:40:10.000Z</time>
      </trkpt>
      <trkpt lat="43.03004" lon="2.97535">
        <ele>39.6</ele>
        <time>2020-06-03T10:40:11.000Z</time>
      </trkpt>
      <trkpt lat="43.03002" lon="2.97542">
        <ele>39.2</ele>
        <time>2020-06-03T10:40:12.000Z</time>
      </trkpt>
      <trkpt lat="43.03001" lon="2.97549">
        <ele>38.6</ele>
        <time>2020-06-03T10:40:13.000Z</time>
      </trkpt>
      <trkpt lat="43.02996" lon="2.9757">
        <ele>38.6</ele>
        <time>2020-06-03T10:40:16.000Z</time>
      </trkpt>
      <trkpt lat="43.02991" lon="2.97581">
        <ele>38.6</ele>
        <time>2020-06-03T10:40:18.000Z</time>
      </trkpt>
      <trkpt lat="43.02983" lon="2.97595">
        <ele>38.6</ele>
        <time>2020-06-03T10:40:21.000Z</time>
      </trkpt>
      <trkpt lat="43.02975" lon="2.97608">
        <ele>38.6</ele>
        <time>2020-06-03T10:40:24.000Z</time>
      </trkpt>
      <trkpt lat="43.0297" lon="2.97616">
        <ele>38.6</ele>
        <time>2020-06-03T10:40:26.000Z</time>
      </trkpt>
      <trkpt lat="43.02965" lon="2.97625">
        <ele>39</ele>
        <time>2020-06-03T10:40:28.000Z</time>
      </trkpt>
      <trkpt lat="43.02962" lon="2.97629">
        <ele>39.8</ele>
        <time>2020-06-03T10:40:29.000Z</time>
      </trkpt>
      <trkpt lat="43.02959" lon="2.97634">
        <ele>40.2</ele>
        <time>2020-06-03T10:40:30.000Z</time>
      </trkpt>
      <trkpt lat="43.02957" lon="2.97639">
        <ele>40.6</ele>
        <time>2020-06-03T10:40:31.000Z</time>
      </trkpt>
      <trkpt lat="43.02937" lon="2.97672">
        <ele>40.6</ele>
        <time>2020-06-03T10:40:38.000Z</time>
      </trkpt>
      <trkpt lat="43.02926" lon="2.97692">
        <ele>40.6</ele>
        <time>2020-06-03T10:40:42.000Z</time>
      </trkpt>
      <trkpt lat="43.02917" lon="2.97707">
        <ele>40.6</ele>
        <time>2020-06-03T10:40:45.000Z</time>
      </trkpt>
      <trkpt lat="43.0291" lon="2.97722">
        <ele>40.6</ele>
        <time>2020-06-03T10:40:48.000Z</time>
      </trkpt>
      <trkpt lat="43.02906" lon="2.97737">
        <ele>40.6</ele>
        <time>2020-06-03T10:40:51.000Z</time>
      </trkpt>
      <trkpt lat="43.029" lon="2.97769">
        <ele>40.6</ele>
        <time>2020-06-03T10:40:57.000Z</time>
      </trkpt>
      <trkpt lat="43.02893" lon="2.97817">
        <ele>40.6</ele>
        <time>2020-06-03T10:41:05.000Z</time>
      </trkpt>
      <trkpt lat="43.02882" lon="2.97853">
        <ele>40.6</ele>
        <time>2020-06-03T10:41:12.000Z</time>
      </trkpt>
      <trkpt lat="43.02869" lon="2.97855">
        <ele>40.6</ele>
        <time>2020-06-03T10:41:15.000Z</time>
      </trkpt>
      <trkpt lat="43.02855" lon="2.97867">
        <ele>40.6</ele>
        <time>2020-06-03T10:41:19.000Z</time>
      </trkpt>
      <trkpt lat="43.02853" lon="2.97873">
        <ele>40.6</ele>
        <time>2020-06-03T10:41:20.000Z</time>
      </trkpt>
      <trkpt lat="43.02843" lon="2.97921">
        <ele>40.6</ele>
        <time>2020-06-03T10:41:28.000Z</time>
      </trkpt>
      <trkpt lat="43.02833" lon="2.97957">
        <ele>40.6</ele>
        <time>2020-06-03T10:41:34.000Z</time>
      </trkpt>
      <trkpt lat="43.02821" lon="2.98005">
        <ele>40.6</ele>
        <time>2020-06-03T10:41:41.000Z</time>
      </trkpt>
      <trkpt lat="43.02806" lon="2.98063">
        <ele>40.6</ele>
        <time>2020-06-03T10:41:50.000Z</time>
      </trkpt>
      <trkpt lat="43.02801" lon="2.98081">
        <ele>40.2</ele>
        <time>2020-06-03T10:41:53.000Z</time>
      </trkpt>
      <trkpt lat="43.02799" lon="2.98087">
        <ele>39.8</ele>
        <time>2020-06-03T10:41:54.000Z</time>
      </trkpt>
      <trkpt lat="43.02798" lon="2.98094">
        <ele>39.4</ele>
        <time>2020-06-03T10:41:55.000Z</time>
      </trkpt>
      <trkpt lat="43.02796" lon="2.981">
        <ele>39</ele>
        <time>2020-06-03T10:41:56.000Z</time>
      </trkpt>
      <trkpt lat="43.02794" lon="2.98108">
        <ele>38.6</ele>
        <time>2020-06-03T10:41:57.000Z</time>
      </trkpt>
      <trkpt lat="43.02792" lon="2.98115">
        <ele>38.6</ele>
        <time>2020-06-03T10:41:58.000Z</time>
      </trkpt>
      <trkpt lat="43.02775" lon="2.98177">
        <ele>38.6</ele>
        <time>2020-06-03T10:42:07.000Z</time>
      </trkpt>
    </trkseg>
  </trk>
  <trk>
    <name><![CDATA[sigean le rieu et les sentiers de roquefort_4]]></name>
    <trkseg>
      <trkpt lat="43.03936" lon="2.94446">
        <ele>51.8</ele>
        <time>2020-06-03T10:32:17.000Z</time>
      </trkpt>
      <trkpt lat="43.03931" lon="2.94481">
        <ele>51.8</ele>
        <time>2020-06-03T10:32:21.000Z</time>
      </trkpt>
      <trkpt lat="43.03921" lon="2.94546">
        <ele>51.8</ele>
        <time>2020-06-03T10:32:29.000Z</time>
      </trkpt>
      <trkpt lat="43.03914" lon="2.94581">
        <ele>51.4</ele>
        <time>2020-06-03T10:32:33.000Z</time>
      </trkpt>
      <trkpt lat="43.03912" lon="2.9459">
        <ele>51</ele>
        <time>2020-06-03T10:32:34.000Z</time>
      </trkpt>
      <trkpt lat="43.0391" lon="2.946">
        <ele>50.6</ele>
        <time>2020-06-03T10:32:35.000Z</time>
      </trkpt>
      <trkpt lat="43.03908" lon="2.94609">
        <ele>50.2</ele>
        <time>2020-06-03T10:32:36.000Z</time>
      </trkpt>
      <trkpt lat="43.03905" lon="2.94619">
        <ele>49.8</ele>
        <time>2020-06-03T10:32:37.000Z</time>
      </trkpt>
    </trkseg>
  </trk>
  <trk>
    <name><![CDATA[sigean le rieu et les sentiers de roquefort_5]]></name>
    <trkseg>
      <trkpt lat="43.03867" lon="2.94875">
        <ele>46.2</ele>
        <time>2020-06-03T10:33:09.000Z</time>
      </trkpt>
      <trkpt lat="43.0376" lon="2.95058">
        <ele>45.4</ele>
        <time>2020-06-03T10:33:42.000Z</time>
      </trkpt>
      <trkpt lat="43.03758" lon="2.95064">
        <ele>45.8</ele>
        <time>2020-06-03T10:33:43.000Z</time>
      </trkpt>
      <trkpt lat="43.03755" lon="2.9507">
        <ele>46.2</ele>
        <time>2020-06-03T10:33:44.000Z</time>
      </trkpt>
      <trkpt lat="43.03752" lon="2.95076">
        <ele>46.6</ele>
        <time>2020-06-03T10:33:45.000Z</time>
      </trkpt>
      <trkpt lat="43.0375" lon="2.95083">
        <ele>47</ele>
        <time>2020-06-03T10:33:46.000Z</time>
      </trkpt>
      <trkpt lat="43.03748" lon="2.95089">
        <ele>47.4</ele>
        <time>2020-06-03T10:33:47.000Z</time>
      </trkpt>
    </trkseg>
  </trk>
  <trk>
    <name><![CDATA[sigean le rieu et les sentiers de roquefort_6]]></name>
    <trkseg>
      <trkpt lat="43.03748" lon="2.95089">
        <ele>47.4</ele>
        <time>2020-06-03T10:33:47.000Z</time>
      </trkpt>
      <trkpt lat="43.03745" lon="2.95103">
        <ele>47.4</ele>
        <time>2020-06-03T10:33:49.000Z</time>
      </trkpt>
      <trkpt lat="43.03721" lon="2.95283">
        <ele>47.4</ele>
        <time>2020-06-03T10:34:13.000Z</time>
      </trkpt>
    </trkseg>
  </trk>
  <trk>
    <name><![CDATA[sigean le rieu et les sentiers de roquefort_7]]></name>
    <trkseg>
      <trkpt lat="43.03721" lon="2.95283">
        <ele>47.4</ele>
        <time>2020-06-03T10:34:13.000Z</time>
      </trkpt>
      <trkpt lat="43.03719" lon="2.95299">
        <ele>47</ele>
        <time>2020-06-03T10:34:15.000Z</time>
      </trkpt>
      <trkpt lat="43.03718" lon="2.95308">
        <ele>46.6</ele>
        <time>2020-06-03T10:34:16.000Z</time>
      </trkpt>
    </trkseg>
  </trk>
  <trk>
    <name><![CDATA[sigean le rieu et les sentiers de roquefort_8]]></name>
    <trkseg>
      <trkpt lat="43.02684" lon="2.98183">
        <ele>13.7</ele>
      </trkpt>
      <trkpt lat="43.02704" lon="2.98333">
        <ele>36.4</ele>
        <time>2020-06-03T10:42:38.000Z</time>
      </trkpt>
      <trkpt lat="43.02698" lon="2.98359">
        <ele>36.4</ele>
        <time>2020-06-03T10:42:42.000Z</time>
      </trkpt>
      <trkpt lat="43.0269" lon="2.98368">
        <ele>36.4</ele>
        <time>2020-06-03T10:42:44.000Z</time>
      </trkpt>
      <trkpt lat="43.02672" lon="2.98372">
        <ele>36.4</ele>
        <time>2020-06-03T10:42:48.000Z</time>
      </trkpt>
      <trkpt lat="43.02659" lon="2.98369">
        <ele>36.4</ele>
        <time>2020-06-03T10:42:51.000Z</time>
      </trkpt>
      <trkpt lat="43.02645" lon="2.98366">
        <ele>36.4</ele>
        <time>2020-06-03T10:42:54.000Z</time>
      </trkpt>
      <trkpt lat="43.02606" lon="2.98356">
        <ele>36.4</ele>
        <time>2020-06-03T10:43:02.000Z</time>
      </trkpt>
      <trkpt lat="43.02579" lon="2.98352">
        <ele>36.4</ele>
        <time>2020-06-03T10:43:08.000Z</time>
      </trkpt>
      <trkpt lat="43.02575" lon="2.9835">
        <ele>36.4</ele>
        <time>2020-06-03T10:43:09.000Z</time>
      </trkpt>
      <trkpt lat="43.02561" lon="2.9835">
        <ele>36.4</ele>
        <time>2020-06-03T10:43:12.000Z</time>
      </trkpt>
      <trkpt lat="43.02559" lon="2.98354">
        <ele>36.4</ele>
        <time>2020-06-03T10:43:13.000Z</time>
      </trkpt>
      <trkpt lat="43.02558" lon="2.98371">
        <ele>36.4</ele>
        <time>2020-06-03T10:43:16.000Z</time>
      </trkpt>
      <trkpt lat="43.02558" lon="2.98377">
        <ele>36.4</ele>
        <time>2020-06-03T10:43:17.000Z</time>
      </trkpt>
      <trkpt lat="43.02558" lon="2.9839">
        <ele>36.4</ele>
        <time>2020-06-03T10:43:19.000Z</time>
      </trkpt>
      <trkpt lat="43.02556" lon="2.9841">
        <ele>36.4</ele>
        <time>2020-06-03T10:43:22.000Z</time>
      </trkpt>
      <trkpt lat="43.02556" lon="2.98422">
        <ele>36.4</ele>
        <time>2020-06-03T10:43:24.000Z</time>
      </trkpt>
      <trkpt lat="43.02555" lon="2.98438">
        <ele>36.4</ele>
        <time>2020-06-03T10:43:27.000Z</time>
      </trkpt>
      <trkpt lat="43.02553" lon="2.98471">
        <ele>36.4</ele>
        <time>2020-06-03T10:43:33.000Z</time>
      </trkpt>
      <trkpt lat="43.02553" lon="2.98476">
        <ele>36.4</ele>
        <time>2020-06-03T10:43:34.000Z</time>
      </trkpt>
      <trkpt lat="43.02552" lon="2.98507">
        <ele>36.4</ele>
        <time>2020-06-03T10:43:39.000Z</time>
      </trkpt>
      <trkpt lat="43.02551" lon="2.98513">
        <ele>36.4</ele>
        <time>2020-06-03T10:43:40.000Z</time>
      </trkpt>
      <trkpt lat="43.02549" lon="2.9856">
        <ele>36.4</ele>
        <time>2020-06-03T10:43:48.000Z</time>
      </trkpt>
      <trkpt lat="43.02542" lon="2.986">
        <ele>36.4</ele>
        <time>2020-06-03T10:43:55.000Z</time>
      </trkpt>
      <trkpt lat="43.02535" lon="2.98639">
        <ele>36.4</ele>
        <time>2020-06-03T10:44:02.000Z</time>
      </trkpt>
      <trkpt lat="43.02532" lon="2.98658">
        <ele>36.4</ele>
        <time>2020-06-03T10:44:05.000Z</time>
      </trkpt>
      <trkpt lat="43.02528" lon="2.98681">
        <ele>36.4</ele>
        <time>2020-06-03T10:44:09.000Z</time>
      </trkpt>
      <trkpt lat="43.02523" lon="2.98711">
        <ele>36.4</ele>
        <time>2020-06-03T10:44:15.000Z</time>
      </trkpt>
      <trkpt lat="43.02516" lon="2.98754">
        <ele>36.4</ele>
        <time>2020-06-03T10:44:22.000Z</time>
      </trkpt>
      <trkpt lat="43.02514" lon="2.98767">
        <ele>36.4</ele>
        <time>2020-06-03T10:44:24.000Z</time>
      </trkpt>
      <trkpt lat="43.02509" lon="2.98792">
        <ele>36.4</ele>
        <time>2020-06-03T10:44:28.000Z</time>
      </trkpt>
      <trkpt lat="43.02501" lon="2.98833">
        <ele>36.4</ele>
        <time>2020-06-03T10:44:35.000Z</time>
      </trkpt>
      <trkpt lat="43.02488" lon="2.98882">
        <ele>36.4</ele>
        <time>2020-06-03T10:44:43.000Z</time>
      </trkpt>
      <trkpt lat="43.02474" lon="2.98934">
        <ele>36</ele>
        <time>2020-06-03T10:44:51.000Z</time>
      </trkpt>
      <trkpt lat="43.02472" lon="2.9894">
        <ele>35.6</ele>
        <time>2020-06-03T10:44:52.000Z</time>
      </trkpt>
      <trkpt lat="43.0247" lon="2.98946">
        <ele>35.2</ele>
        <time>2020-06-03T10:44:53.000Z</time>
      </trkpt>
      <trkpt lat="43.02468" lon="2.98952">
        <ele>34.8</ele>
        <time>2020-06-03T10:44:54.000Z</time>
      </trkpt>
      <trkpt lat="43.02466" lon="2.98958">
        <ele>34.4</ele>
        <time>2020-06-03T10:44:55.000Z</time>
      </trkpt>
      <trkpt lat="43.02458" lon="2.98972">
        <ele>34.4</ele>
        <time>2020-06-03T10:44:58.000Z</time>
      </trkpt>
      <trkpt lat="43.02453" lon="2.98983">
        <ele>34.4</ele>
        <time>2020-06-03T10:45:00.000Z</time>
      </trkpt>
      <trkpt lat="43.02452" lon="2.9899">
        <ele>34.4</ele>
        <time>2020-06-03T10:45:01.000Z</time>
      </trkpt>
      <trkpt lat="43.02452" lon="2.98996">
        <ele>34.4</ele>
        <time>2020-06-03T10:45:02.000Z</time>
      </trkpt>
      <trkpt lat="43.02461" lon="2.99006">
        <ele>34.4</ele>
        <time>2020-06-03T10:45:05.000Z</time>
      </trkpt>
      <trkpt lat="43.0247" lon="2.99008">
        <ele>34.4</ele>
        <time>2020-06-03T10:45:07.000Z</time>
      </trkpt>
      <trkpt lat="43.02487" lon="2.99014">
        <ele>34.4</ele>
        <time>2020-06-03T10:45:11.000Z</time>
      </trkpt>
      <trkpt lat="43.02515" lon="2.99026">
        <ele>34.4</ele>
        <time>2020-06-03T10:45:17.000Z</time>
      </trkpt>
      <trkpt lat="43.02523" lon="2.99029">
        <ele>34.4</ele>
        <time>2020-06-03T10:45:19.000Z</time>
      </trkpt>
      <trkpt lat="43.02533" lon="2.99039">
        <ele>34.4</ele>
        <time>2020-06-03T10:45:22.000Z</time>
      </trkpt>
      <trkpt lat="43.02531" lon="2.99052">
        <ele>34.4</ele>
        <time>2020-06-03T10:45:25.000Z</time>
      </trkpt>
      <trkpt lat="43.0253" lon="2.99056">
        <ele>34.4</ele>
        <time>2020-06-03T10:45:26.000Z</time>
      </trkpt>
      <trkpt lat="43.02521" lon="2.99093">
        <ele>34.4</ele>
        <time>2020-06-03T10:45:35.000Z</time>
      </trkpt>
      <trkpt lat="43.02519" lon="2.991">
        <ele>34.8</ele>
        <time>2020-06-03T10:45:37.000Z</time>
      </trkpt>
      <trkpt lat="43.02517" lon="2.99103">
        <ele>35.2</ele>
        <time>2020-06-03T10:45:38.000Z</time>
      </trkpt>
      <trkpt lat="43.02515" lon="2.99106">
        <ele>35.6</ele>
        <time>2020-06-03T10:45:39.000Z</time>
      </trkpt>
      <trkpt lat="43.02513" lon="2.99108">
        <ele>36</ele>
        <time>2020-06-03T10:45:40.000Z</time>
      </trkpt>
      <trkpt lat="43.02512" lon="2.99111">
        <ele>36.4</ele>
        <time>2020-06-03T10:45:41.000Z</time>
      </trkpt>
      <trkpt lat="43.02505" lon="2.99122">
        <ele>36.4</ele>
        <time>2020-06-03T10:45:45.000Z</time>
      </trkpt>
      <trkpt lat="43.02492" lon="2.99141">
        <ele>36.4</ele>
        <time>2020-06-03T10:45:51.000Z</time>
      </trkpt>
      <trkpt lat="43.0249" lon="2.99145">
        <ele>36.8</ele>
        <time>2020-06-03T10:45:52.000Z</time>
      </trkpt>
      <trkpt lat="43.02488" lon="2.99148">
        <ele>37.4</ele>
        <time>2020-06-03T10:45:53.000Z</time>
      </trkpt>
      <trkpt lat="43.02485" lon="2.99151">
        <ele>37.8</ele>
        <time>2020-06-03T10:45:54.000Z</time>
      </trkpt>
      <trkpt lat="43.02483" lon="2.99154">
        <ele>38.2</ele>
        <time>2020-06-03T10:45:55.000Z</time>
      </trkpt>
      <trkpt lat="43.0248" lon="2.99158">
        <ele>38.6</ele>
        <time>2020-06-03T10:45:56.000Z</time>
      </trkpt>
      <trkpt lat="43.02476" lon="2.99164">
        <ele>38.6</ele>
        <time>2020-06-03T10:45:58.000Z</time>
      </trkpt>
      <trkpt lat="43.02453" lon="2.99197">
        <ele>38.6</ele>
        <time>2020-06-03T10:46:07.000Z</time>
      </trkpt>
      <trkpt lat="43.0243" lon="2.99221">
        <ele>38.6</ele>
        <time>2020-06-03T10:46:14.000Z</time>
      </trkpt>
      <trkpt lat="43.02418" lon="2.9923">
        <ele>38.6</ele>
        <time>2020-06-03T10:46:17.000Z</time>
      </trkpt>
      <trkpt lat="43.02409" lon="2.99238">
        <ele>38.6</ele>
        <time>2020-06-03T10:46:19.000Z</time>
      </trkpt>
      <trkpt lat="43.02399" lon="2.99246">
        <ele>38.2</ele>
        <time>2020-06-03T10:46:21.000Z</time>
      </trkpt>
      <trkpt lat="43.02394" lon="2.9925">
        <ele>37.8</ele>
        <time>2020-06-03T10:46:22.000Z</time>
      </trkpt>
      <trkpt lat="43.02389" lon="2.99254">
        <ele>37.4</ele>
        <time>2020-06-03T10:46:23.000Z</time>
      </trkpt>
      <trkpt lat="43.02383" lon="2.99259">
        <ele>37</ele>
        <time>2020-06-03T10:46:24.000Z</time>
      </trkpt>
      <trkpt lat="43.02378" lon="2.99263">
        <ele>36.6</ele>
        <time>2020-06-03T10:46:25.000Z</time>
      </trkpt>
      <trkpt lat="43.02373" lon="2.99267">
        <ele>36.6</ele>
        <time>2020-06-03T10:46:26.000Z</time>
      </trkpt>
      <trkpt lat="43.02364" lon="2.99274">
        <ele>36.6</ele>
        <time>2020-06-03T10:46:28.000Z</time>
      </trkpt>
      <trkpt lat="43.02358" lon="2.99271">
        <ele>36.6</ele>
        <time>2020-06-03T10:46:30.000Z</time>
      </trkpt>
      <trkpt lat="43.02359" lon="2.99262">
        <ele>36.6</ele>
        <time>2020-06-03T10:46:32.000Z</time>
      </trkpt>
      <trkpt lat="43.02368" lon="2.99255">
        <ele>36.6</ele>
        <time>2020-06-03T10:46:35.000Z</time>
      </trkpt>
      <trkpt lat="43.02384" lon="2.99244">
        <ele>36.6</ele>
        <time>2020-06-03T10:46:39.000Z</time>
      </trkpt>
      <trkpt lat="43.02388" lon="2.9924">
        <ele>36.6</ele>
        <time>2020-06-03T10:46:40.000Z</time>
      </trkpt>
      <trkpt lat="43.02399" lon="2.99227">
        <ele>36</ele>
        <time>2020-06-03T10:46:43.000Z</time>
      </trkpt>
      <trkpt lat="43.02402" lon="2.99221">
        <ele>35.6</ele>
        <time>2020-06-03T10:46:44.000Z</time>
      </trkpt>
      <trkpt lat="43.02404" lon="2.99215">
        <ele>35.2</ele>
        <time>2020-06-03T10:46:45.000Z</time>
      </trkpt>
      <trkpt lat="43.02407" lon="2.99209">
        <ele>34.8</ele>
        <time>2020-06-03T10:46:46.000Z</time>
      </trkpt>
      <trkpt lat="43.02409" lon="2.99204">
        <ele>34.4</ele>
        <time>2020-06-03T10:46:47.000Z</time>
      </trkpt>
      <trkpt lat="43.02418" lon="2.99176">
        <ele>34.4</ele>
        <time>2020-06-03T10:46:52.000Z</time>
      </trkpt>
      <trkpt lat="43.02419" lon="2.9917">
        <ele>34.4</ele>
        <time>2020-06-03T10:46:53.000Z</time>
      </trkpt>
      <trkpt lat="43.02421" lon="2.99152">
        <ele>34.4</ele>
        <time>2020-06-03T10:46:56.000Z</time>
      </trkpt>
      <trkpt lat="43.02413" lon="2.99131">
        <ele>34.4</ele>
        <time>2020-06-03T10:47:00.000Z</time>
      </trkpt>
      <trkpt lat="43.02395" lon="2.99103">
        <ele>34.4</ele>
        <time>2020-06-03T10:47:06.000Z</time>
      </trkpt>
      <trkpt lat="43.02381" lon="2.99083">
        <ele>34.4</ele>
        <time>2020-06-03T10:47:11.000Z</time>
      </trkpt>
      <trkpt lat="43.0237" lon="2.99067">
        <ele>34.4</ele>
        <time>2020-06-03T10:47:15.000Z</time>
      </trkpt>
      <trkpt lat="43.02364" lon="2.99059">
        <ele>34.4</ele>
        <time>2020-06-03T10:47:17.000Z</time>
      </trkpt>
      <trkpt lat="43.02346" lon="2.99045">
        <ele>34.4</ele>
        <time>2020-06-03T10:47:22.000Z</time>
      </trkpt>
      <trkpt lat="43.02337" lon="2.99043">
        <ele>34.4</ele>
        <time>2020-06-03T10:47:24.000Z</time>
      </trkpt>
      <trkpt lat="43.02324" lon="2.99042">
        <ele>34.4</ele>
        <time>2020-06-03T10:47:27.000Z</time>
      </trkpt>
      <trkpt lat="43.02292" lon="2.99043">
        <ele>34.8</ele>
        <time>2020-06-03T10:47:35.000Z</time>
      </trkpt>
      <trkpt lat="43.02289" lon="2.99043">
        <ele>35.2</ele>
        <time>2020-06-03T10:47:36.000Z</time>
      </trkpt>
      <trkpt lat="43.02285" lon="2.99044">
        <ele>35.6</ele>
        <time>2020-06-03T10:47:37.000Z</time>
      </trkpt>
      <trkpt lat="43.02281" lon="2.99045">
        <ele>36</ele>
        <time>2020-06-03T10:47:38.000Z</time>
      </trkpt>
      <trkpt lat="43.02277" lon="2.99046">
        <ele>36.6</ele>
        <time>2020-06-03T10:47:39.000Z</time>
      </trkpt>
      <trkpt lat="43.02264" lon="2.99049">
        <ele>36.6</ele>
        <time>2020-06-03T10:47:43.000Z</time>
      </trkpt>
      <trkpt lat="43.02238" lon="2.99062">
        <ele>36.6</ele>
        <time>2020-06-03T10:47:50.000Z</time>
      </trkpt>
      <trkpt lat="43.02208" lon="2.99078">
        <ele>37</ele>
        <time>2020-06-03T10:47:58.000Z</time>
      </trkpt>
      <trkpt lat="43.02205" lon="2.9908">
        <ele>37.4</ele>
        <time>2020-06-03T10:47:59.000Z</time>
      </trkpt>
      <trkpt lat="43.02201" lon="2.99082">
        <ele>37.8</ele>
        <time>2020-06-03T10:48:00.000Z</time>
      </trkpt>
      <trkpt lat="43.02198" lon="2.99084">
        <ele>38.4</ele>
        <time>2020-06-03T10:48:01.000Z</time>
      </trkpt>
      <trkpt lat="43.02194" lon="2.99086">
        <ele>38.8</ele>
        <time>2020-06-03T10:48:02.000Z</time>
      </trkpt>
      <trkpt lat="43.02191" lon="2.99087">
        <ele>38.8</ele>
        <time>2020-06-03T10:48:03.000Z</time>
      </trkpt>
      <trkpt lat="43.02175" lon="2.99095">
        <ele>39.2</ele>
        <time>2020-06-03T10:48:08.000Z</time>
      </trkpt>
      <trkpt lat="43.02172" lon="2.99096">
        <ele>39.6</ele>
        <time>2020-06-03T10:48:09.000Z</time>
      </trkpt>
      <trkpt lat="43.02169" lon="2.99098">
        <ele>40</ele>
        <time>2020-06-03T10:48:10.000Z</time>
      </trkpt>
      <trkpt lat="43.02166" lon="2.991">
        <ele>40.4</ele>
        <time>2020-06-03T10:48:11.000Z</time>
      </trkpt>
      <trkpt lat="43.02163" lon="2.99102">
        <ele>40.8</ele>
        <time>2020-06-03T10:48:12.000Z</time>
      </trkpt>
      <trkpt lat="43.02153" lon="2.99107">
        <ele>41.2</ele>
        <time>2020-06-03T10:48:15.000Z</time>
      </trkpt>
      <trkpt lat="43.0215" lon="2.99109">
        <ele>41.6</ele>
        <time>2020-06-03T10:48:16.000Z</time>
      </trkpt>
      <trkpt lat="43.02147" lon="2.99111">
        <ele>42.2</ele>
        <time>2020-06-03T10:48:17.000Z</time>
      </trkpt>
      <trkpt lat="43.02145" lon="2.99113">
        <ele>42.6</ele>
        <time>2020-06-03T10:48:18.000Z</time>
      </trkpt>
      <trkpt lat="43.02142" lon="2.99115">
        <ele>43</ele>
        <time>2020-06-03T10:48:19.000Z</time>
      </trkpt>
      <trkpt lat="43.02135" lon="2.99122">
        <ele>43.4</ele>
        <time>2020-06-03T10:48:22.000Z</time>
      </trkpt>
      <trkpt lat="43.02133" lon="2.99124">
        <ele>43.8</ele>
        <time>2020-06-03T10:48:23.000Z</time>
      </trkpt>
      <trkpt lat="43.0213" lon="2.99127">
        <ele>44.2</ele>
        <time>2020-06-03T10:48:24.000Z</time>
      </trkpt>
      <trkpt lat="43.02128" lon="2.99129">
        <ele>44.8</ele>
        <time>2020-06-03T10:48:25.000Z</time>
      </trkpt>
      <trkpt lat="43.02125" lon="2.99131">
        <ele>45.2</ele>
        <time>2020-06-03T10:48:26.000Z</time>
      </trkpt>
      <trkpt lat="43.02114" lon="2.99138">
        <ele>45.6</ele>
        <time>2020-06-03T10:48:30.000Z</time>
      </trkpt>
      <trkpt lat="43.02111" lon="2.9914">
        <ele>46</ele>
        <time>2020-06-03T10:48:31.000Z</time>
      </trkpt>
      <trkpt lat="43.02109" lon="2.99142">
        <ele>46.4</ele>
        <time>2020-06-03T10:48:32.000Z</time>
      </trkpt>
      <trkpt lat="43.02107" lon="2.99144">
        <ele>46.8</ele>
        <time>2020-06-03T10:48:33.000Z</time>
      </trkpt>
      <trkpt lat="43.02104" lon="2.99147">
        <ele>47.2</ele>
        <time>2020-06-03T10:48:34.000Z</time>
      </trkpt>
      <trkpt lat="43.02098" lon="2.99151">
        <ele>47.2</ele>
        <time>2020-06-03T10:48:36.000Z</time>
      </trkpt>
      <trkpt lat="43.02085" lon="2.99154">
        <ele>47.2</ele>
        <time>2020-06-03T10:48:40.000Z</time>
      </trkpt>
      <trkpt lat="43.02076" lon="2.99155">
        <ele>47.6</ele>
        <time>2020-06-03T10:48:43.000Z</time>
      </trkpt>
      <trkpt lat="43.02073" lon="2.99155">
        <ele>48.4</ele>
        <time>2020-06-03T10:48:44.000Z</time>
      </trkpt>
      <trkpt lat="43.02069" lon="2.99156">
        <ele>48.8</ele>
        <time>2020-06-03T10:48:45.000Z</time>
      </trkpt>
      <trkpt lat="43.02066" lon="2.99155">
        <ele>49.2</ele>
        <time>2020-06-03T10:48:46.000Z</time>
      </trkpt>
      <trkpt lat="43.02063" lon="2.99153">
        <ele>49.2</ele>
        <time>2020-06-03T10:48:47.000Z</time>
      </trkpt>
      <trkpt lat="43.02056" lon="2.99138">
        <ele>49.2</ele>
        <time>2020-06-03T10:48:51.000Z</time>
      </trkpt>
      <trkpt lat="43.02054" lon="2.99134">
        <ele>49.2</ele>
        <time>2020-06-03T10:48:52.000Z</time>
      </trkpt>
      <trkpt lat="43.02053" lon="2.9913">
        <ele>49.6</ele>
        <time>2020-06-03T10:48:53.000Z</time>
      </trkpt>
      <trkpt lat="43.02052" lon="2.99126">
        <ele>50.2</ele>
        <time>2020-06-03T10:48:54.000Z</time>
      </trkpt>
      <trkpt lat="43.0205" lon="2.99121">
        <ele>50.6</ele>
        <time>2020-06-03T10:48:55.000Z</time>
      </trkpt>
      <trkpt lat="43.02049" lon="2.99117">
        <ele>51</ele>
        <time>2020-06-03T10:48:56.000Z</time>
      </trkpt>
      <trkpt lat="43.02047" lon="2.99112">
        <ele>51.4</ele>
        <time>2020-06-03T10:48:57.000Z</time>
      </trkpt>
      <trkpt lat="43.02046" lon="2.99108">
        <ele>51.4</ele>
        <time>2020-06-03T10:48:58.000Z</time>
      </trkpt>
      <trkpt lat="43.02043" lon="2.99089">
        <ele>51.4</ele>
        <time>2020-06-03T10:49:02.000Z</time>
      </trkpt>
      <trkpt lat="43.02044" lon="2.99065">
        <ele>51.4</ele>
        <time>2020-06-03T10:49:07.000Z</time>
      </trkpt>
      <trkpt lat="43.02039" lon="2.99043">
        <ele>51.4</ele>
        <time>2020-06-03T10:49:11.000Z</time>
      </trkpt>
      <trkpt lat="43.02035" lon="2.99023">
        <ele>51.4</ele>
        <time>2020-06-03T10:49:15.000Z</time>
      </trkpt>
      <trkpt lat="43.02033" lon="2.99021">
        <ele>51.4</ele>
        <time>2020-06-03T10:49:16.000Z</time>
      </trkpt>
      <trkpt lat="43.02024" lon="2.99024">
        <ele>51.4</ele>
        <time>2020-06-03T10:49:19.000Z</time>
      </trkpt>
      <trkpt lat="43.02021" lon="2.99025">
        <ele>51.4</ele>
        <time>2020-06-03T10:49:20.000Z</time>
      </trkpt>
      <trkpt lat="43.02015" lon="2.99024">
        <ele>51.8</ele>
        <time>2020-06-03T10:49:22.000Z</time>
      </trkpt>
      <trkpt lat="43.02012" lon="2.99025">
        <ele>52.2</ele>
        <time>2020-06-03T10:49:23.000Z</time>
      </trkpt>
      <trkpt lat="43.02008" lon="2.99025">
        <ele>52.6</ele>
        <time>2020-06-03T10:49:24.000Z</time>
      </trkpt>
      <trkpt lat="43.02006" lon="2.99026">
        <ele>53</ele>
        <time>2020-06-03T10:49:25.000Z</time>
      </trkpt>
      <trkpt lat="43.02004" lon="2.99024">
        <ele>53.6</ele>
        <time>2020-06-03T10:49:26.000Z</time>
      </trkpt>
      <trkpt lat="43.02003" lon="2.99021">
        <ele>53.6</ele>
        <time>2020-06-03T10:49:27.000Z</time>
      </trkpt>
      <trkpt lat="43.02001" lon="2.99018">
        <ele>54</ele>
        <time>2020-06-03T10:49:28.000Z</time>
      </trkpt>
      <trkpt lat="43.01998" lon="2.99015">
        <ele>54.4</ele>
        <time>2020-06-03T10:49:29.000Z</time>
      </trkpt>
      <trkpt lat="43.01995" lon="2.99013">
        <ele>54.8</ele>
        <time>2020-06-03T10:49:30.000Z</time>
      </trkpt>
      <trkpt lat="43.01992" lon="2.9901">
        <ele>55.2</ele>
        <time>2020-06-03T10:49:31.000Z</time>
      </trkpt>
      <trkpt lat="43.01989" lon="2.99008">
        <ele>55.6</ele>
        <time>2020-06-03T10:49:32.000Z</time>
      </trkpt>
      <trkpt lat="43.01982" lon="2.99001">
        <ele>56</ele>
        <time>2020-06-03T10:49:35.000Z</time>
      </trkpt>
      <trkpt lat="43.01981" lon="2.98997">
        <ele>56.4</ele>
        <time>2020-06-03T10:49:36.000Z</time>
      </trkpt>
      <trkpt lat="43.0198" lon="2.98993">
        <ele>56.8</ele>
        <time>2020-06-03T10:49:37.000Z</time>
      </trkpt>
      <trkpt lat="43.01978" lon="2.98989">
        <ele>57.2</ele>
        <time>2020-06-03T10:49:38.000Z</time>
      </trkpt>
      <trkpt lat="43.01976" lon="2.98984">
        <ele>57.6</ele>
        <time>2020-06-03T10:49:39.000Z</time>
      </trkpt>
      <trkpt lat="43.01973" lon="2.98973">
        <ele>57.6</ele>
        <time>2020-06-03T10:49:41.000Z</time>
      </trkpt>
      <trkpt lat="43.0197" lon="2.98963">
        <ele>57.6</ele>
        <time>2020-06-03T10:49:43.000Z</time>
      </trkpt>
      <trkpt lat="43.01966" lon="2.98946">
        <ele>57.6</ele>
        <time>2020-06-03T10:49:46.000Z</time>
      </trkpt>
      <trkpt lat="43.01963" lon="2.98936">
        <ele>57.6</ele>
        <time>2020-06-03T10:49:48.000Z</time>
      </trkpt>
      <trkpt lat="43.0196" lon="2.98926">
        <ele>57.6</ele>
        <time>2020-06-03T10:49:50.000Z</time>
      </trkpt>
      <trkpt lat="43.01954" lon="2.98918">
        <ele>57.6</ele>
        <time>2020-06-03T10:49:52.000Z</time>
      </trkpt>
      <trkpt lat="43.0195" lon="2.98911">
        <ele>57.6</ele>
        <time>2020-06-03T10:49:54.000Z</time>
      </trkpt>
      <trkpt lat="43.01945" lon="2.98895">
        <ele>57.6</ele>
        <time>2020-06-03T10:49:57.000Z</time>
      </trkpt>
      <trkpt lat="43.01944" lon="2.98889">
        <ele>57.6</ele>
        <time>2020-06-03T10:49:58.000Z</time>
      </trkpt>
      <trkpt lat="43.01943" lon="2.98884">
        <ele>58</ele>
        <time>2020-06-03T10:49:59.000Z</time>
      </trkpt>
      <trkpt lat="43.01943" lon="2.98879">
        <ele>58.4</ele>
        <time>2020-06-03T10:50:00.000Z</time>
      </trkpt>
      <trkpt lat="43.01942" lon="2.98873">
        <ele>58.8</ele>
        <time>2020-06-03T10:50:01.000Z</time>
      </trkpt>
      <trkpt lat="43.01942" lon="2.98867">
        <ele>59.2</ele>
        <time>2020-06-03T10:50:02.000Z</time>
      </trkpt>
      <trkpt lat="43.01944" lon="2.98862">
        <ele>59.6</ele>
        <time>2020-06-03T10:50:03.000Z</time>
      </trkpt>
      <trkpt lat="43.01947" lon="2.98851">
        <ele>59.6</ele>
        <time>2020-06-03T10:50:05.000Z</time>
      </trkpt>
      <trkpt lat="43.01948" lon="2.98845">
        <ele>59.6</ele>
        <time>2020-06-03T10:50:06.000Z</time>
      </trkpt>
      <trkpt lat="43.01949" lon="2.9883">
        <ele>59.6</ele>
        <time>2020-06-03T10:50:08.000Z</time>
      </trkpt>
      <trkpt lat="43.01948" lon="2.98807">
        <ele>59.6</ele>
        <time>2020-06-03T10:50:11.000Z</time>
      </trkpt>
      <trkpt lat="43.01945" lon="2.98794">
        <ele>59.6</ele>
        <time>2020-06-03T10:50:13.000Z</time>
      </trkpt>
      <trkpt lat="43.01943" lon="2.98788">
        <ele>59.6</ele>
        <time>2020-06-03T10:50:14.000Z</time>
      </trkpt>
      <trkpt lat="43.01935" lon="2.98769">
        <ele>59.6</ele>
        <time>2020-06-03T10:50:18.000Z</time>
      </trkpt>
      <trkpt lat="43.01921" lon="2.98748">
        <ele>59.6</ele>
        <time>2020-06-03T10:50:24.000Z</time>
      </trkpt>
      <trkpt lat="43.01908" lon="2.9873">
        <ele>59.6</ele>
        <time>2020-06-03T10:50:30.000Z</time>
      </trkpt>
      <trkpt lat="43.01894" lon="2.98721">
        <ele>59.6</ele>
        <time>2020-06-03T10:50:36.000Z</time>
      </trkpt>
      <trkpt lat="43.01893" lon="2.98722">
        <ele>60</ele>
        <time>2020-06-03T10:50:37.000Z</time>
      </trkpt>
      <trkpt lat="43.01892" lon="2.98723">
        <ele>60.6</ele>
        <time>2020-06-03T10:50:38.000Z</time>
      </trkpt>
      <trkpt lat="43.01892" lon="2.98725">
        <ele>61</ele>
        <time>2020-06-03T10:50:39.000Z</time>
      </trkpt>
      <trkpt lat="43.01891" lon="2.98728">
        <ele>61.4</ele>
        <time>2020-06-03T10:50:40.000Z</time>
      </trkpt>
      <trkpt lat="43.0189" lon="2.98731">
        <ele>61.8</ele>
        <time>2020-06-03T10:50:41.000Z</time>
      </trkpt>
      <trkpt lat="43.0188" lon="2.98747">
        <ele>61.8</ele>
        <time>2020-06-03T10:50:47.000Z</time>
      </trkpt>
      <trkpt lat="43.01878" lon="2.9875">
        <ele>62.2</ele>
        <time>2020-06-03T10:50:48.000Z</time>
      </trkpt>
      <trkpt lat="43.01876" lon="2.98753">
        <ele>62.6</ele>
        <time>2020-06-03T10:50:49.000Z</time>
      </trkpt>
      <trkpt lat="43.01874" lon="2.98755">
        <ele>63</ele>
        <time>2020-06-03T10:50:50.000Z</time>
      </trkpt>
      <trkpt lat="43.01872" lon="2.98757">
        <ele>63.4</ele>
        <time>2020-06-03T10:50:51.000Z</time>
      </trkpt>
      <trkpt lat="43.01871" lon="2.9876">
        <ele>63.8</ele>
        <time>2020-06-03T10:50:52.000Z</time>
      </trkpt>
      <trkpt lat="43.01868" lon="2.98765">
        <ele>63.8</ele>
        <time>2020-06-03T10:50:54.000Z</time>
      </trkpt>
      <trkpt lat="43.01865" lon="2.9877">
        <ele>64.2</ele>
        <time>2020-06-03T10:50:56.000Z</time>
      </trkpt>
      <trkpt lat="43.01863" lon="2.98772">
        <ele>64.8</ele>
        <time>2020-06-03T10:50:57.000Z</time>
      </trkpt>
      <trkpt lat="43.01861" lon="2.98775">
        <ele>65.2</ele>
        <time>2020-06-03T10:50:58.000Z</time>
      </trkpt>
      <trkpt lat="43.01859" lon="2.98777">
        <ele>65.6</ele>
        <time>2020-06-03T10:50:59.000Z</time>
      </trkpt>
      <trkpt lat="43.01857" lon="2.9878">
        <ele>66</ele>
        <time>2020-06-03T10:51:00.000Z</time>
      </trkpt>
      <trkpt lat="43.01855" lon="2.98783">
        <ele>66</ele>
        <time>2020-06-03T10:51:01.000Z</time>
      </trkpt>
      <trkpt lat="43.01847" lon="2.98798">
        <ele>66.4</ele>
        <time>2020-06-03T10:51:06.000Z</time>
      </trkpt>
      <trkpt lat="43.01846" lon="2.98802">
        <ele>66.8</ele>
        <time>2020-06-03T10:51:07.000Z</time>
      </trkpt>
      <trkpt lat="43.01846" lon="2.98806">
        <ele>67.2</ele>
        <time>2020-06-03T10:51:08.000Z</time>
      </trkpt>
      <trkpt lat="43.01846" lon="2.9881">
        <ele>67.6</ele>
        <time>2020-06-03T10:51:09.000Z</time>
      </trkpt>
      <trkpt lat="43.01846" lon="2.98814">
        <ele>68</ele>
        <time>2020-06-03T10:51:10.000Z</time>
      </trkpt>
      <trkpt lat="43.01848" lon="2.98832">
        <ele>68</ele>
        <time>2020-06-03T10:51:14.000Z</time>
      </trkpt>
      <trkpt lat="43.01848" lon="2.98854">
        <ele>68</ele>
        <time>2020-06-03T10:51:19.000Z</time>
      </trkpt>
      <trkpt lat="43.01844" lon="2.98872">
        <ele>68.6</ele>
        <time>2020-06-03T10:51:23.000Z</time>
      </trkpt>
      <trkpt lat="43.01843" lon="2.98876">
        <ele>69</ele>
        <time>2020-06-03T10:51:24.000Z</time>
      </trkpt>
      <trkpt lat="43.01842" lon="2.9888">
        <ele>69.4</ele>
        <time>2020-06-03T10:51:25.000Z</time>
      </trkpt>
      <trkpt lat="43.0184" lon="2.98885">
        <ele>69.8</ele>
        <time>2020-06-03T10:51:26.000Z</time>
      </trkpt>
      <trkpt lat="43.01839" lon="2.98889">
        <ele>70.2</ele>
        <time>2020-06-03T10:51:27.000Z</time>
      </trkpt>
      <trkpt lat="43.01828" lon="2.98911">
        <ele>70.2</ele>
        <time>2020-06-03T10:51:32.000Z</time>
      </trkpt>
      <trkpt lat="43.01815" lon="2.9893">
        <ele>71</ele>
        <time>2020-06-03T10:51:37.000Z</time>
      </trkpt>
      <trkpt lat="43.01813" lon="2.98934">
        <ele>71.4</ele>
        <time>2020-06-03T10:51:38.000Z</time>
      </trkpt>
      <trkpt lat="43.0181" lon="2.98938">
        <ele>71.8</ele>
        <time>2020-06-03T10:51:39.000Z</time>
      </trkpt>
      <trkpt lat="43.01808" lon="2.98942">
        <ele>72.2</ele>
        <time>2020-06-03T10:51:40.000Z</time>
      </trkpt>
      <trkpt lat="43.01806" lon="2.98946">
        <ele>72.2</ele>
        <time>2020-06-03T10:51:41.000Z</time>
      </trkpt>
      <trkpt lat="43.01786" lon="2.98965">
        <ele>72.2</ele>
        <time>2020-06-03T10:51:47.000Z</time>
      </trkpt>
      <trkpt lat="43.01782" lon="2.98967">
        <ele>72.2</ele>
        <time>2020-06-03T10:51:48.000Z</time>
      </trkpt>
      <trkpt lat="43.0177" lon="2.98974">
        <ele>72.2</ele>
        <time>2020-06-03T10:51:51.000Z</time>
      </trkpt>
      <trkpt lat="43.01766" lon="2.98976">
        <ele>72.2</ele>
        <time>2020-06-03T10:51:52.000Z</time>
      </trkpt>
      <trkpt lat="43.01747" lon="2.9899">
        <ele>72.2</ele>
        <time>2020-06-03T10:51:57.000Z</time>
      </trkpt>
      <trkpt lat="43.01744" lon="2.98994">
        <ele>72.2</ele>
        <time>2020-06-03T10:51:58.000Z</time>
      </trkpt>
      <trkpt lat="43.01727" lon="2.99009">
        <ele>72.2</ele>
        <time>2020-06-03T10:52:03.000Z</time>
      </trkpt>
      <trkpt lat="43.01705" lon="2.99031">
        <ele>72.2</ele>
        <time>2020-06-03T10:52:10.000Z</time>
      </trkpt>
      <trkpt lat="43.01689" lon="2.99054">
        <ele>72.2</ele>
        <time>2020-06-03T10:52:16.000Z</time>
      </trkpt>
      <trkpt lat="43.0167" lon="2.99079">
        <ele>72.2</ele>
        <time>2020-06-03T10:52:23.000Z</time>
      </trkpt>
      <trkpt lat="43.0166" lon="2.9909">
        <ele>72.2</ele>
        <time>2020-06-03T10:52:26.000Z</time>
      </trkpt>
      <trkpt lat="43.0165" lon="2.99102">
        <ele>72.2</ele>
        <time>2020-06-03T10:52:29.000Z</time>
      </trkpt>
      <trkpt lat="43.01643" lon="2.99112">
        <ele>72.2</ele>
        <time>2020-06-03T10:52:31.000Z</time>
      </trkpt>
      <trkpt lat="43.01631" lon="2.99131">
        <ele>72.2</ele>
        <time>2020-06-03T10:52:34.000Z</time>
      </trkpt>
      <trkpt lat="43.01628" lon="2.99138">
        <ele>71.8</ele>
        <time>2020-06-03T10:52:35.000Z</time>
      </trkpt>
      <trkpt lat="43.01624" lon="2.99146">
        <ele>71.2</ele>
        <time>2020-06-03T10:52:36.000Z</time>
      </trkpt>
      <trkpt lat="43.01619" lon="2.99154">
        <ele>70.8</ele>
        <time>2020-06-03T10:52:37.000Z</time>
      </trkpt>
      <trkpt lat="43.01615" lon="2.99162">
        <ele>70.2</ele>
        <time>2020-06-03T10:52:38.000Z</time>
      </trkpt>
      <trkpt lat="43.01611" lon="2.9917">
        <ele>69.8</ele>
        <time>2020-06-03T10:52:39.000Z</time>
      </trkpt>
      <trkpt lat="43.01606" lon="2.99179">
        <ele>69.2</ele>
        <time>2020-06-03T10:52:40.000Z</time>
      </trkpt>
      <trkpt lat="43.01602" lon="2.99189">
        <ele>68.8</ele>
        <time>2020-06-03T10:52:41.000Z</time>
      </trkpt>
      <trkpt lat="43.01597" lon="2.99199">
        <ele>68.2</ele>
        <time>2020-06-03T10:52:42.000Z</time>
      </trkpt>
      <trkpt lat="43.01594" lon="2.99208">
        <ele>67.8</ele>
        <time>2020-06-03T10:52:43.000Z</time>
      </trkpt>
      <trkpt lat="43.01589" lon="2.99213">
        <ele>67.2</ele>
        <time>2020-06-03T10:52:44.000Z</time>
      </trkpt>
      <trkpt lat="43.01583" lon="2.99215">
        <ele>66.6</ele>
        <time>2020-06-03T10:52:45.000Z</time>
      </trkpt>
      <trkpt lat="43.01577" lon="2.99215">
        <ele>66</ele>
        <time>2020-06-03T10:52:46.000Z</time>
      </trkpt>
      <trkpt lat="43.01572" lon="2.99215">
        <ele>65.6</ele>
        <time>2020-06-03T10:52:47.000Z</time>
      </trkpt>
      <trkpt lat="43.01567" lon="2.99216">
        <ele>65.6</ele>
        <time>2020-06-03T10:52:48.000Z</time>
      </trkpt>
      <trkpt lat="43.01557" lon="2.9922">
        <ele>65.6</ele>
        <time>2020-06-03T10:52:50.000Z</time>
      </trkpt>
      <trkpt lat="43.01553" lon="2.99223">
        <ele>65.6</ele>
        <time>2020-06-03T10:52:51.000Z</time>
      </trkpt>
      <trkpt lat="43.01539" lon="2.99235">
        <ele>65</ele>
        <time>2020-06-03T10:52:54.000Z</time>
      </trkpt>
      <trkpt lat="43.01535" lon="2.9924">
        <ele>64.6</ele>
        <time>2020-06-03T10:52:55.000Z</time>
      </trkpt>
      <trkpt lat="43.01533" lon="2.99246">
        <ele>64.2</ele>
        <time>2020-06-03T10:52:56.000Z</time>
      </trkpt>
      <trkpt lat="43.01532" lon="2.99252">
        <ele>63.6</ele>
        <time>2020-06-03T10:52:57.000Z</time>
      </trkpt>
      <trkpt lat="43.01531" lon="2.99258">
        <ele>63.2</ele>
        <time>2020-06-03T10:52:58.000Z</time>
      </trkpt>
      <trkpt lat="43.01532" lon="2.99264">
        <ele>63.2</ele>
        <time>2020-06-03T10:52:59.000Z</time>
      </trkpt>
      <trkpt lat="43.01532" lon="2.9927">
        <ele>63.2</ele>
        <time>2020-06-03T10:53:00.000Z</time>
      </trkpt>
      <trkpt lat="43.01532" lon="2.99282">
        <ele>63.2</ele>
        <time>2020-06-03T10:53:03.000Z</time>
      </trkpt>
      <trkpt lat="43.01532" lon="2.99286">
        <ele>63.2</ele>
        <time>2020-06-03T10:53:04.000Z</time>
      </trkpt>
      <trkpt lat="43.01531" lon="2.99307">
        <ele>63.2</ele>
        <time>2020-06-03T10:53:09.000Z</time>
      </trkpt>
      <trkpt lat="43.01529" lon="2.99312">
        <ele>63.2</ele>
        <time>2020-06-03T10:53:10.000Z</time>
      </trkpt>
      <trkpt lat="43.01522" lon="2.99319">
        <ele>63.2</ele>
        <time>2020-06-03T10:53:12.000Z</time>
      </trkpt>
      <trkpt lat="43.01511" lon="2.99318">
        <ele>63.2</ele>
        <time>2020-06-03T10:53:15.000Z</time>
      </trkpt>
      <trkpt lat="43.01508" lon="2.9932">
        <ele>63.2</ele>
        <time>2020-06-03T10:53:16.000Z</time>
      </trkpt>
      <trkpt lat="43.01502" lon="2.99332">
        <ele>63.2</ele>
        <time>2020-06-03T10:53:19.000Z</time>
      </trkpt>
      <trkpt lat="43.01503" lon="2.9934">
        <ele>63.6</ele>
        <time>2020-06-03T10:53:21.000Z</time>
      </trkpt>
      <trkpt lat="43.01503" lon="2.99344">
        <ele>64</ele>
        <time>2020-06-03T10:53:22.000Z</time>
      </trkpt>
      <trkpt lat="43.01504" lon="2.99349">
        <ele>64.4</ele>
        <time>2020-06-03T10:53:23.000Z</time>
      </trkpt>
      <trkpt lat="43.01506" lon="2.99352">
        <ele>64.8</ele>
        <time>2020-06-03T10:53:24.000Z</time>
      </trkpt>
      <trkpt lat="43.01507" lon="2.99357">
        <ele>65.2</ele>
        <time>2020-06-03T10:53:25.000Z</time>
      </trkpt>
      <trkpt lat="43.01512" lon="2.99366">
        <ele>65.2</ele>
        <time>2020-06-03T10:53:27.000Z</time>
      </trkpt>
      <trkpt lat="43.01517" lon="2.99376">
        <ele>65.2</ele>
        <time>2020-06-03T10:53:29.000Z</time>
      </trkpt>
      <trkpt lat="43.01522" lon="2.994">
        <ele>65.2</ele>
        <time>2020-06-03T10:53:33.000Z</time>
      </trkpt>
      <trkpt lat="43.01517" lon="2.99423">
        <ele>65.2</ele>
        <time>2020-06-03T10:53:37.000Z</time>
      </trkpt>
      <trkpt lat="43.01514" lon="2.99429">
        <ele>65.2</ele>
        <time>2020-06-03T10:53:38.000Z</time>
      </trkpt>
      <trkpt lat="43.01512" lon="2.99436">
        <ele>64.8</ele>
        <time>2020-06-03T10:53:39.000Z</time>
      </trkpt>
      <trkpt lat="43.01511" lon="2.99442">
        <ele>64.4</ele>
        <time>2020-06-03T10:53:40.000Z</time>
      </trkpt>
      <trkpt lat="43.01511" lon="2.99449">
        <ele>64</ele>
        <time>2020-06-03T10:53:41.000Z</time>
      </trkpt>
      <trkpt lat="43.0151" lon="2.99456">
        <ele>62.8</ele>
        <time>2020-06-03T10:53:42.000Z</time>
      </trkpt>
      <trkpt lat="43.01512" lon="2.9946">
        <ele>62.2</ele>
        <time>2020-06-03T10:53:43.000Z</time>
      </trkpt>
      <trkpt lat="43.01514" lon="2.99463">
        <ele>61.6</ele>
        <time>2020-06-03T10:53:44.000Z</time>
      </trkpt>
      <trkpt lat="43.01517" lon="2.99465">
        <ele>61</ele>
        <time>2020-06-03T10:53:45.000Z</time>
      </trkpt>
      <trkpt lat="43.01525" lon="2.99466">
        <ele>61</ele>
        <time>2020-06-03T10:53:47.000Z</time>
      </trkpt>
      <trkpt lat="43.01529" lon="2.99467">
        <ele>61</ele>
        <time>2020-06-03T10:53:48.000Z</time>
      </trkpt>
      <trkpt lat="43.01533" lon="2.99468">
        <ele>61</ele>
        <time>2020-06-03T10:53:49.000Z</time>
      </trkpt>
      <trkpt lat="43.01546" lon="2.99464">
        <ele>61</ele>
        <time>2020-06-03T10:53:52.000Z</time>
      </trkpt>
      <trkpt lat="43.01553" lon="2.99458">
        <ele>61</ele>
        <time>2020-06-03T10:53:56.000Z</time>
      </trkpt>
      <trkpt lat="43.01558" lon="2.99458">
        <ele>61</ele>
        <time>2020-06-03T10:53:57.000Z</time>
      </trkpt>
      <trkpt lat="43.01562" lon="2.99459">
        <ele>61</ele>
        <time>2020-06-03T10:53:58.000Z</time>
      </trkpt>
      <trkpt lat="43.01565" lon="2.99462">
        <ele>60.6</ele>
        <time>2020-06-03T10:53:59.000Z</time>
      </trkpt>
      <trkpt lat="43.01567" lon="2.99467">
        <ele>60</ele>
        <time>2020-06-03T10:54:00.000Z</time>
      </trkpt>
      <trkpt lat="43.01569" lon="2.99471">
        <ele>59.6</ele>
        <time>2020-06-03T10:54:01.000Z</time>
      </trkpt>
      <trkpt lat="43.0157" lon="2.99476">
        <ele>59</ele>
        <time>2020-06-03T10:54:02.000Z</time>
      </trkpt>
      <trkpt lat="43.01571" lon="2.9948">
        <ele>58.6</ele>
        <time>2020-06-03T10:54:03.000Z</time>
      </trkpt>
      <trkpt lat="43.01575" lon="2.99485">
        <ele>59</ele>
        <time>2020-06-03T10:54:05.000Z</time>
      </trkpt>
      <trkpt lat="43.01578" lon="2.99487">
        <ele>59.4</ele>
        <time>2020-06-03T10:54:06.000Z</time>
      </trkpt>
      <trkpt lat="43.0158" lon="2.99491">
        <ele>60.4</ele>
        <time>2020-06-03T10:54:07.000Z</time>
      </trkpt>
      <trkpt lat="43.01583" lon="2.99495">
        <ele>60.8</ele>
        <time>2020-06-03T10:54:08.000Z</time>
      </trkpt>
      <trkpt lat="43.01591" lon="2.99505">
        <ele>60.8</ele>
        <time>2020-06-03T10:54:10.000Z</time>
      </trkpt>
      <trkpt lat="43.01594" lon="2.9951">
        <ele>60.8</ele>
        <time>2020-06-03T10:54:11.000Z</time>
      </trkpt>
      <trkpt lat="43.01603" lon="2.99526">
        <ele>60.8</ele>
        <time>2020-06-03T10:54:14.000Z</time>
      </trkpt>
      <trkpt lat="43.01612" lon="2.99544">
        <ele>60.8</ele>
        <time>2020-06-03T10:54:18.000Z</time>
      </trkpt>
      <trkpt lat="43.01615" lon="2.99549">
        <ele>60.8</ele>
        <time>2020-06-03T10:54:19.000Z</time>
      </trkpt>
      <trkpt lat="43.01625" lon="2.99555">
        <ele>60.8</ele>
        <time>2020-06-03T10:54:21.000Z</time>
      </trkpt>
      <trkpt lat="43.01635" lon="2.99549">
        <ele>60.8</ele>
        <time>2020-06-03T10:54:24.000Z</time>
      </trkpt>
      <trkpt lat="43.01638" lon="2.99546">
        <ele>60.8</ele>
        <time>2020-06-03T10:54:25.000Z</time>
      </trkpt>
      <trkpt lat="43.01656" lon="2.99527">
        <ele>61.2</ele>
        <time>2020-06-03T10:54:31.000Z</time>
      </trkpt>
      <trkpt lat="43.01659" lon="2.99525">
        <ele>62</ele>
        <time>2020-06-03T10:54:32.000Z</time>
      </trkpt>
      <trkpt lat="43.01662" lon="2.99522">
        <ele>62.4</ele>
        <time>2020-06-03T10:54:33.000Z</time>
      </trkpt>
      <trkpt lat="43.01665" lon="2.99519">
        <ele>63</ele>
        <time>2020-06-03T10:54:34.000Z</time>
      </trkpt>
      <trkpt lat="43.01673" lon="2.99511">
        <ele>63.4</ele>
        <time>2020-06-03T10:54:37.000Z</time>
      </trkpt>
      <trkpt lat="43.01676" lon="2.99508">
        <ele>63.8</ele>
        <time>2020-06-03T10:54:38.000Z</time>
      </trkpt>
      <trkpt lat="43.01679" lon="2.99505">
        <ele>64.2</ele>
        <time>2020-06-03T10:54:39.000Z</time>
      </trkpt>
      <trkpt lat="43.01682" lon="2.99503">
        <ele>64.6</ele>
        <time>2020-06-03T10:54:40.000Z</time>
      </trkpt>
      <trkpt lat="43.01685" lon="2.99501">
        <ele>65.2</ele>
        <time>2020-06-03T10:54:41.000Z</time>
      </trkpt>
      <trkpt lat="43.01695" lon="2.99497">
        <ele>65.2</ele>
        <time>2020-06-03T10:54:44.000Z</time>
      </trkpt>
      <trkpt lat="43.01713" lon="2.99489">
        <ele>65.2</ele>
        <time>2020-06-03T10:54:49.000Z</time>
      </trkpt>
      <trkpt lat="43.01725" lon="2.99481">
        <ele>65.2</ele>
        <time>2020-06-03T10:54:52.000Z</time>
      </trkpt>
      <trkpt lat="43.01737" lon="2.99477">
        <ele>65.2</ele>
        <time>2020-06-03T10:54:55.000Z</time>
      </trkpt>
      <trkpt lat="43.01753" lon="2.99479">
        <ele>65.2</ele>
        <time>2020-06-03T10:54:59.000Z</time>
      </trkpt>
      <trkpt lat="43.01755" lon="2.99481">
        <ele>65.2</ele>
        <time>2020-06-03T10:55:00.000Z</time>
      </trkpt>
      <trkpt lat="43.01757" lon="2.99484">
        <ele>65.2</ele>
        <time>2020-06-03T10:55:01.000Z</time>
      </trkpt>
      <trkpt lat="43.01767" lon="2.99487">
        <ele>65.2</ele>
        <time>2020-06-03T10:55:05.000Z</time>
      </trkpt>
      <trkpt lat="43.01769" lon="2.99495">
        <ele>64.6</ele>
        <time>2020-06-03T10:55:07.000Z</time>
      </trkpt>
      <trkpt lat="43.01767" lon="2.995">
        <ele>64.2</ele>
        <time>2020-06-03T10:55:08.000Z</time>
      </trkpt>
      <trkpt lat="43.01766" lon="2.99505">
        <ele>63.8</ele>
        <time>2020-06-03T10:55:09.000Z</time>
      </trkpt>
      <trkpt lat="43.01766" lon="2.9951">
        <ele>63.4</ele>
        <time>2020-06-03T10:55:10.000Z</time>
      </trkpt>
      <trkpt lat="43.01767" lon="2.99514">
        <ele>62.8</ele>
        <time>2020-06-03T10:55:11.000Z</time>
      </trkpt>
      <trkpt lat="43.01769" lon="2.99517">
        <ele>62.8</ele>
        <time>2020-06-03T10:55:12.000Z</time>
      </trkpt>
      <trkpt lat="43.0177" lon="2.99529">
        <ele>62.8</ele>
        <time>2020-06-03T10:55:15.000Z</time>
      </trkpt>
      <trkpt lat="43.0177" lon="2.99533">
        <ele>62.8</ele>
        <time>2020-06-03T10:55:16.000Z</time>
      </trkpt>
      <trkpt lat="43.01771" lon="2.99542">
        <ele>62.8</ele>
        <time>2020-06-03T10:55:18.000Z</time>
      </trkpt>
      <trkpt lat="43.01773" lon="2.99549">
        <ele>62.8</ele>
        <time>2020-06-03T10:55:20.000Z</time>
      </trkpt>
      <trkpt lat="43.01777" lon="2.99569">
        <ele>62.8</ele>
        <time>2020-06-03T10:55:25.000Z</time>
      </trkpt>
      <trkpt lat="43.0178" lon="2.99579">
        <ele>62.8</ele>
        <time>2020-06-03T10:55:28.000Z</time>
      </trkpt>
      <trkpt lat="43.01781" lon="2.99583">
        <ele>62.8</ele>
        <time>2020-06-03T10:55:29.000Z</time>
      </trkpt>
      <trkpt lat="43.01785" lon="2.99598">
        <ele>63.2</ele>
        <time>2020-06-03T10:55:33.000Z</time>
      </trkpt>
      <trkpt lat="43.01786" lon="2.99601">
        <ele>63.6</ele>
        <time>2020-06-03T10:55:34.000Z</time>
      </trkpt>
      <trkpt lat="43.01788" lon="2.99604">
        <ele>64</ele>
        <time>2020-06-03T10:55:35.000Z</time>
      </trkpt>
      <trkpt lat="43.0179" lon="2.99606">
        <ele>64.4</ele>
        <time>2020-06-03T10:55:36.000Z</time>
      </trkpt>
      <trkpt lat="43.01792" lon="2.99608">
        <ele>64.8</ele>
        <time>2020-06-03T10:55:37.000Z</time>
      </trkpt>
      <trkpt lat="43.01795" lon="2.9961">
        <ele>64.8</ele>
        <time>2020-06-03T10:55:38.000Z</time>
      </trkpt>
      <trkpt lat="43.01797" lon="2.99612">
        <ele>65.4</ele>
        <time>2020-06-03T10:55:39.000Z</time>
      </trkpt>
      <trkpt lat="43.01799" lon="2.99616">
        <ele>65.8</ele>
        <time>2020-06-03T10:55:40.000Z</time>
      </trkpt>
      <trkpt lat="43.01802" lon="2.99619">
        <ele>66.2</ele>
        <time>2020-06-03T10:55:41.000Z</time>
      </trkpt>
      <trkpt lat="43.01804" lon="2.99623">
        <ele>66.8</ele>
        <time>2020-06-03T10:55:42.000Z</time>
      </trkpt>
      <trkpt lat="43.01804" lon="2.99627">
        <ele>67.2</ele>
        <time>2020-06-03T10:55:43.000Z</time>
      </trkpt>
      <trkpt lat="43.0181" lon="2.99637">
        <ele>67.6</ele>
        <time>2020-06-03T10:55:46.000Z</time>
      </trkpt>
      <trkpt lat="43.01813" lon="2.9964">
        <ele>68</ele>
        <time>2020-06-03T10:55:47.000Z</time>
      </trkpt>
      <trkpt lat="43.01815" lon="2.99642">
        <ele>68.6</ele>
        <time>2020-06-03T10:55:48.000Z</time>
      </trkpt>
      <trkpt lat="43.01817" lon="2.99645">
        <ele>69</ele>
        <time>2020-06-03T10:55:49.000Z</time>
      </trkpt>
      <trkpt lat="43.01818" lon="2.99649">
        <ele>69.4</ele>
        <time>2020-06-03T10:55:50.000Z</time>
      </trkpt>
      <trkpt lat="43.01818" lon="2.99653">
        <ele>69.4</ele>
        <time>2020-06-03T10:55:51.000Z</time>
      </trkpt>
      <trkpt lat="43.0182" lon="2.99658">
        <ele>69.4</ele>
        <time>2020-06-03T10:55:53.000Z</time>
      </trkpt>
      <trkpt lat="43.01825" lon="2.99664">
        <ele>69.4</ele>
        <time>2020-06-03T10:55:55.000Z</time>
      </trkpt>
      <trkpt lat="43.0183" lon="2.99668">
        <ele>69.4</ele>
        <time>2020-06-03T10:55:57.000Z</time>
      </trkpt>
      <trkpt lat="43.01833" lon="2.99671">
        <ele>69.8</ele>
        <time>2020-06-03T10:55:58.000Z</time>
      </trkpt>
      <trkpt lat="43.01835" lon="2.99672">
        <ele>70.2</ele>
        <time>2020-06-03T10:55:59.000Z</time>
      </trkpt>
      <trkpt lat="43.01838" lon="2.99674">
        <ele>70.8</ele>
        <time>2020-06-03T10:56:00.000Z</time>
      </trkpt>
      <trkpt lat="43.0184" lon="2.99677">
        <ele>71.2</ele>
        <time>2020-06-03T10:56:01.000Z</time>
      </trkpt>
      <trkpt lat="43.01843" lon="2.9968">
        <ele>71.6</ele>
        <time>2020-06-03T10:56:02.000Z</time>
      </trkpt>
      <trkpt lat="43.01848" lon="2.9969">
        <ele>71.2</ele>
        <time>2020-06-03T10:56:06.000Z</time>
      </trkpt>
      <trkpt lat="43.0185" lon="2.99692">
        <ele>70.8</ele>
        <time>2020-06-03T10:56:07.000Z</time>
      </trkpt>
      <trkpt lat="43.01852" lon="2.99692">
        <ele>70.2</ele>
        <time>2020-06-03T10:56:08.000Z</time>
      </trkpt>
      <trkpt lat="43.01854" lon="2.99692">
        <ele>69.4</ele>
        <time>2020-06-03T10:56:09.000Z</time>
      </trkpt>
      <trkpt lat="43.01855" lon="2.99693">
        <ele>69</ele>
        <time>2020-06-03T10:56:10.000Z</time>
      </trkpt>
      <trkpt lat="43.01858" lon="2.99697">
        <ele>68.6</ele>
        <time>2020-06-03T10:56:11.000Z</time>
      </trkpt>
      <trkpt lat="43.01861" lon="2.997">
        <ele>68.2</ele>
        <time>2020-06-03T10:56:12.000Z</time>
      </trkpt>
      <trkpt lat="43.01863" lon="2.99704">
        <ele>67.6</ele>
        <time>2020-06-03T10:56:13.000Z</time>
      </trkpt>
      <trkpt lat="43.01866" lon="2.99709">
        <ele>67</ele>
        <time>2020-06-03T10:56:14.000Z</time>
      </trkpt>
      <trkpt lat="43.01868" lon="2.99713">
        <ele>66.2</ele>
        <time>2020-06-03T10:56:15.000Z</time>
      </trkpt>
      <trkpt lat="43.01871" lon="2.99713">
        <ele>65.4</ele>
        <time>2020-06-03T10:56:16.000Z</time>
      </trkpt>
      <trkpt lat="43.01873" lon="2.99715">
        <ele>64.8</ele>
        <time>2020-06-03T10:56:17.000Z</time>
      </trkpt>
      <trkpt lat="43.01875" lon="2.99718">
        <ele>63.8</ele>
        <time>2020-06-03T10:56:18.000Z</time>
      </trkpt>
      <trkpt lat="43.01877" lon="2.99721">
        <ele>63</ele>
        <time>2020-06-03T10:56:19.000Z</time>
      </trkpt>
      <trkpt lat="43.01878" lon="2.99723">
        <ele>62.2</ele>
        <time>2020-06-03T10:56:20.000Z</time>
      </trkpt>
      <trkpt lat="43.01881" lon="2.99726">
        <ele>61.4</ele>
        <time>2020-06-03T10:56:21.000Z</time>
      </trkpt>
      <trkpt lat="43.01882" lon="2.99729">
        <ele>60.8</ele>
        <time>2020-06-03T10:56:22.000Z</time>
      </trkpt>
      <trkpt lat="43.01883" lon="2.99733">
        <ele>60.2</ele>
        <time>2020-06-03T10:56:23.000Z</time>
      </trkpt>
      <trkpt lat="43.01882" lon="2.99738">
        <ele>59.6</ele>
        <time>2020-06-03T10:56:24.000Z</time>
      </trkpt>
      <trkpt lat="43.01881" lon="2.99743">
        <ele>58.8</ele>
        <time>2020-06-03T10:56:25.000Z</time>
      </trkpt>
      <trkpt lat="43.01881" lon="2.99747">
        <ele>58.2</ele>
        <time>2020-06-03T10:56:26.000Z</time>
      </trkpt>
      <trkpt lat="43.01883" lon="2.9975">
        <ele>57.6</ele>
        <time>2020-06-03T10:56:27.000Z</time>
      </trkpt>
      <trkpt lat="43.01886" lon="2.99755">
        <ele>56.8</ele>
        <time>2020-06-03T10:56:28.000Z</time>
      </trkpt>
      <trkpt lat="43.0189" lon="2.9976">
        <ele>56.2</ele>
        <time>2020-06-03T10:56:29.000Z</time>
      </trkpt>
      <trkpt lat="43.01893" lon="2.99765">
        <ele>55.6</ele>
        <time>2020-06-03T10:56:30.000Z</time>
      </trkpt>
      <trkpt lat="43.01896" lon="2.99771">
        <ele>55</ele>
        <time>2020-06-03T10:56:31.000Z</time>
      </trkpt>
      <trkpt lat="43.01899" lon="2.99776">
        <ele>54.4</ele>
        <time>2020-06-03T10:56:32.000Z</time>
      </trkpt>
      <trkpt lat="43.01903" lon="2.99781">
        <ele>53.8</ele>
        <time>2020-06-03T10:56:33.000Z</time>
      </trkpt>
      <trkpt lat="43.01906" lon="2.99786">
        <ele>52.6</ele>
        <time>2020-06-03T10:56:34.000Z</time>
      </trkpt>
      <trkpt lat="43.01909" lon="2.99791">
        <ele>52</ele>
        <time>2020-06-03T10:56:35.000Z</time>
      </trkpt>
      <trkpt lat="43.0191" lon="2.99795">
        <ele>51.4</ele>
        <time>2020-06-03T10:56:36.000Z</time>
      </trkpt>
      <trkpt lat="43.0191" lon="2.99798">
        <ele>51</ele>
        <time>2020-06-03T10:56:37.000Z</time>
      </trkpt>
      <trkpt lat="43.01911" lon="2.99802">
        <ele>50.6</ele>
        <time>2020-06-03T10:56:38.000Z</time>
      </trkpt>
      <trkpt lat="43.01911" lon="2.99806">
        <ele>50</ele>
        <time>2020-06-03T10:56:39.000Z</time>
      </trkpt>
      <trkpt lat="43.01911" lon="2.9981">
        <ele>49.6</ele>
        <time>2020-06-03T10:56:40.000Z</time>
      </trkpt>
      <trkpt lat="43.0191" lon="2.99813">
        <ele>49.2</ele>
        <time>2020-06-03T10:56:41.000Z</time>
      </trkpt>
      <trkpt lat="43.01908" lon="2.99813">
        <ele>49.2</ele>
        <time>2020-06-03T10:56:42.000Z</time>
      </trkpt>
      <trkpt lat="43.019" lon="2.99814">
        <ele>49.2</ele>
        <time>2020-06-03T10:56:46.000Z</time>
      </trkpt>
      <trkpt lat="43.01896" lon="2.99816">
        <ele>49.2</ele>
        <time>2020-06-03T10:56:48.000Z</time>
      </trkpt>
      <trkpt lat="43.01885" lon="2.9982">
        <ele>49.2</ele>
        <time>2020-06-03T10:56:52.000Z</time>
      </trkpt>
      <trkpt lat="43.01872" lon="2.99828">
        <ele>49.2</ele>
        <time>2020-06-03T10:56:57.000Z</time>
      </trkpt>
      <trkpt lat="43.01864" lon="2.99833">
        <ele>49.6</ele>
        <time>2020-06-03T10:57:00.000Z</time>
      </trkpt>
      <trkpt lat="43.01862" lon="2.99834">
        <ele>50</ele>
        <time>2020-06-03T10:57:01.000Z</time>
      </trkpt>
      <trkpt lat="43.01859" lon="2.99836">
        <ele>50.4</ele>
        <time>2020-06-03T10:57:02.000Z</time>
      </trkpt>
      <trkpt lat="43.01857" lon="2.99838">
        <ele>50.8</ele>
        <time>2020-06-03T10:57:03.000Z</time>
      </trkpt>
      <trkpt lat="43.01855" lon="2.99839">
        <ele>51.2</ele>
        <time>2020-06-03T10:57:04.000Z</time>
      </trkpt>
      <trkpt lat="43.0185" lon="2.99841">
        <ele>51.6</ele>
        <time>2020-06-03T10:57:06.000Z</time>
      </trkpt>
      <trkpt lat="43.01847" lon="2.9984">
        <ele>52</ele>
        <time>2020-06-03T10:57:07.000Z</time>
      </trkpt>
      <trkpt lat="43.01845" lon="2.99841">
        <ele>52.4</ele>
        <time>2020-06-03T10:57:08.000Z</time>
      </trkpt>
      <trkpt lat="43.01843" lon="2.9984">
        <ele>52.8</ele>
        <time>2020-06-03T10:57:09.000Z</time>
      </trkpt>
      <trkpt lat="43.01841" lon="2.9984">
        <ele>53.2</ele>
        <time>2020-06-03T10:57:10.000Z</time>
      </trkpt>
      <trkpt lat="43.01834" lon="2.99839">
        <ele>53.6</ele>
        <time>2020-06-03T10:57:13.000Z</time>
      </trkpt>
      <trkpt lat="43.01831" lon="2.99838">
        <ele>54.2</ele>
        <time>2020-06-03T10:57:14.000Z</time>
      </trkpt>
      <trkpt lat="43.01828" lon="2.99838">
        <ele>54.6</ele>
        <time>2020-06-03T10:57:15.000Z</time>
      </trkpt>
      <trkpt lat="43.01826" lon="2.99838">
        <ele>55</ele>
        <time>2020-06-03T10:57:16.000Z</time>
      </trkpt>
      <trkpt lat="43.01823" lon="2.99838">
        <ele>55.4</ele>
        <time>2020-06-03T10:57:17.000Z</time>
      </trkpt>
      <trkpt lat="43.01815" lon="2.9984">
        <ele>55.4</ele>
        <time>2020-06-03T10:57:20.000Z</time>
      </trkpt>
      <trkpt lat="43.01802" lon="2.99843">
        <ele>55.8</ele>
        <time>2020-06-03T10:57:24.000Z</time>
      </trkpt>
      <trkpt lat="43.018" lon="2.99844">
        <ele>56.2</ele>
        <time>2020-06-03T10:57:25.000Z</time>
      </trkpt>
      <trkpt lat="43.01799" lon="2.99847">
        <ele>56.6</ele>
        <time>2020-06-03T10:57:26.000Z</time>
      </trkpt>
      <trkpt lat="43.01797" lon="2.99851">
        <ele>57</ele>
        <time>2020-06-03T10:57:27.000Z</time>
      </trkpt>
      <trkpt lat="43.01796" lon="2.99855">
        <ele>57.6</ele>
        <time>2020-06-03T10:57:28.000Z</time>
      </trkpt>
      <trkpt lat="43.01793" lon="2.99865">
        <ele>57.6</ele>
        <time>2020-06-03T10:57:30.000Z</time>
      </trkpt>
      <trkpt lat="43.0179" lon="2.99868">
        <ele>57.6</ele>
        <time>2020-06-03T10:57:31.000Z</time>
      </trkpt>
      <trkpt lat="43.01787" lon="2.99868">
        <ele>57.6</ele>
        <time>2020-06-03T10:57:32.000Z</time>
      </trkpt>
      <trkpt lat="43.01779" lon="2.99869">
        <ele>58</ele>
        <time>2020-06-03T10:57:35.000Z</time>
      </trkpt>
      <trkpt lat="43.01776" lon="2.99868">
        <ele>58.4</ele>
        <time>2020-06-03T10:57:36.000Z</time>
      </trkpt>
      <trkpt lat="43.01775" lon="2.99865">
        <ele>58.8</ele>
        <time>2020-06-03T10:57:37.000Z</time>
      </trkpt>
      <trkpt lat="43.01773" lon="2.99862">
        <ele>59.2</ele>
        <time>2020-06-03T10:57:38.000Z</time>
      </trkpt>
      <trkpt lat="43.01771" lon="2.99859">
        <ele>59.6</ele>
        <time>2020-06-03T10:57:39.000Z</time>
      </trkpt>
      <trkpt lat="43.01769" lon="2.99859">
        <ele>60.2</ele>
        <time>2020-06-03T10:57:40.000Z</time>
      </trkpt>
      <trkpt lat="43.01767" lon="2.99859">
        <ele>60.6</ele>
        <time>2020-06-03T10:57:41.000Z</time>
      </trkpt>
      <trkpt lat="43.01766" lon="2.99861">
        <ele>61.2</ele>
        <time>2020-06-03T10:57:42.000Z</time>
      </trkpt>
      <trkpt lat="43.01764" lon="2.99863">
        <ele>61.6</ele>
        <time>2020-06-03T10:57:43.000Z</time>
      </trkpt>
      <trkpt lat="43.01759" lon="2.99873">
        <ele>61.6</ele>
        <time>2020-06-03T10:57:46.000Z</time>
      </trkpt>
      <trkpt lat="43.01756" lon="2.99892">
        <ele>61.6</ele>
        <time>2020-06-03T10:57:50.000Z</time>
      </trkpt>
      <trkpt lat="43.01754" lon="2.99898">
        <ele>61</ele>
        <time>2020-06-03T10:57:51.000Z</time>
      </trkpt>
      <trkpt lat="43.0175" lon="2.99904">
        <ele>60.6</ele>
        <time>2020-06-03T10:57:52.000Z</time>
      </trkpt>
      <trkpt lat="43.01744" lon="2.99907">
        <ele>60</ele>
        <time>2020-06-03T10:57:53.000Z</time>
      </trkpt>
      <trkpt lat="43.01739" lon="2.99911">
        <ele>59.4</ele>
        <time>2020-06-03T10:57:54.000Z</time>
      </trkpt>
      <trkpt lat="43.01733" lon="2.99913">
        <ele>58.8</ele>
        <time>2020-06-03T10:57:55.000Z</time>
      </trkpt>
      <trkpt lat="43.01729" lon="2.99917">
        <ele>58</ele>
        <time>2020-06-03T10:57:56.000Z</time>
      </trkpt>
      <trkpt lat="43.01725" lon="2.99921">
        <ele>57.4</ele>
        <time>2020-06-03T10:57:57.000Z</time>
      </trkpt>
      <trkpt lat="43.0172" lon="2.99926">
        <ele>56.8</ele>
        <time>2020-06-03T10:57:58.000Z</time>
      </trkpt>
      <trkpt lat="43.01716" lon="2.99936">
        <ele>56.8</ele>
        <time>2020-06-03T10:58:00.000Z</time>
      </trkpt>
      <trkpt lat="43.01714" lon="2.99941">
        <ele>56.8</ele>
        <time>2020-06-03T10:58:01.000Z</time>
      </trkpt>
      <trkpt lat="43.01715" lon="2.99958">
        <ele>56.8</ele>
        <time>2020-06-03T10:58:04.000Z</time>
      </trkpt>
      <trkpt lat="43.01715" lon="2.99964">
        <ele>56.8</ele>
        <time>2020-06-03T10:58:05.000Z</time>
      </trkpt>
      <trkpt lat="43.01715" lon="2.99983">
        <ele>56.8</ele>
        <time>2020-06-03T10:58:08.000Z</time>
      </trkpt>
      <trkpt lat="43.01717" lon="2.99997">
        <ele>56.2</ele>
        <time>2020-06-03T10:58:10.000Z</time>
      </trkpt>
      <trkpt lat="43.01716" lon="3.00003">
        <ele>55.8</ele>
        <time>2020-06-03T10:58:11.000Z</time>
      </trkpt>
      <trkpt lat="43.01713" lon="3.0001">
        <ele>55.4</ele>
        <time>2020-06-03T10:58:12.000Z</time>
      </trkpt>
      <trkpt lat="43.0171" lon="3.00015">
        <ele>54.6</ele>
        <time>2020-06-03T10:58:13.000Z</time>
      </trkpt>
      <trkpt lat="43.017" lon="3.00024">
        <ele>54.6</ele>
        <time>2020-06-03T10:58:15.000Z</time>
      </trkpt>
      <trkpt lat="43.01696" lon="3.00028">
        <ele>54</ele>
        <time>2020-06-03T10:58:16.000Z</time>
      </trkpt>
      <trkpt lat="43.01692" lon="3.00033">
        <ele>53.6</ele>
        <time>2020-06-03T10:58:17.000Z</time>
      </trkpt>
      <trkpt lat="43.01689" lon="3.00039">
        <ele>53</ele>
        <time>2020-06-03T10:58:18.000Z</time>
      </trkpt>
      <trkpt lat="43.01684" lon="3.00044">
        <ele>52.6</ele>
        <time>2020-06-03T10:58:19.000Z</time>
      </trkpt>
      <trkpt lat="43.01681" lon="3.00049">
        <ele>52.2</ele>
        <time>2020-06-03T10:58:20.000Z</time>
      </trkpt>
      <trkpt lat="43.01676" lon="3.00052">
        <ele>52.2</ele>
        <time>2020-06-03T10:58:22.000Z</time>
      </trkpt>
      <trkpt lat="43.01675" lon="3.00055">
        <ele>51.8</ele>
        <time>2020-06-03T10:58:23.000Z</time>
      </trkpt>
      <trkpt lat="43.01675" lon="3.00058">
        <ele>51.2</ele>
        <time>2020-06-03T10:58:24.000Z</time>
      </trkpt>
      <trkpt lat="43.01675" lon="3.00065">
        <ele>50.8</ele>
        <time>2020-06-03T10:58:25.000Z</time>
      </trkpt>
      <trkpt lat="43.01676" lon="3.0007">
        <ele>50.4</ele>
        <time>2020-06-03T10:58:26.000Z</time>
      </trkpt>
      <trkpt lat="43.01677" lon="3.00077">
        <ele>50</ele>
        <time>2020-06-03T10:58:27.000Z</time>
      </trkpt>
      <trkpt lat="43.01678" lon="3.00083">
        <ele>49.6</ele>
        <time>2020-06-03T10:58:28.000Z</time>
      </trkpt>
      <trkpt lat="43.01677" lon="3.00089">
        <ele>49.2</ele>
        <time>2020-06-03T10:58:29.000Z</time>
      </trkpt>
      <trkpt lat="43.01674" lon="3.00096">
        <ele>48.8</ele>
        <time>2020-06-03T10:58:30.000Z</time>
      </trkpt>
      <trkpt lat="43.01671" lon="3.00103">
        <ele>48.4</ele>
        <time>2020-06-03T10:58:31.000Z</time>
      </trkpt>
      <trkpt lat="43.01671" lon="3.00108">
        <ele>48</ele>
        <time>2020-06-03T10:58:32.000Z</time>
      </trkpt>
      <trkpt lat="43.01668" lon="3.00126">
        <ele>48</ele>
        <time>2020-06-03T10:58:35.000Z</time>
      </trkpt>
      <trkpt lat="43.01661" lon="3.00137">
        <ele>48</ele>
        <time>2020-06-03T10:58:38.000Z</time>
      </trkpt>
      <trkpt lat="43.01661" lon="3.0014">
        <ele>48</ele>
        <time>2020-06-03T10:58:39.000Z</time>
      </trkpt>
      <trkpt lat="43.0166" lon="3.00143">
        <ele>47.4</ele>
        <time>2020-06-03T10:58:40.000Z</time>
      </trkpt>
      <trkpt lat="43.01658" lon="3.00146">
        <ele>47</ele>
        <time>2020-06-03T10:58:41.000Z</time>
      </trkpt>
      <trkpt lat="43.01656" lon="3.00148">
        <ele>46.4</ele>
        <time>2020-06-03T10:58:42.000Z</time>
      </trkpt>
      <trkpt lat="43.01653" lon="3.00152">
        <ele>45.8</ele>
        <time>2020-06-03T10:58:43.000Z</time>
      </trkpt>
      <trkpt lat="43.01653" lon="3.00157">
        <ele>45</ele>
        <time>2020-06-03T10:58:44.000Z</time>
      </trkpt>
      <trkpt lat="43.01652" lon="3.00162">
        <ele>44.2</ele>
        <time>2020-06-03T10:58:45.000Z</time>
      </trkpt>
      <trkpt lat="43.01651" lon="3.00166">
        <ele>43.4</ele>
        <time>2020-06-03T10:58:46.000Z</time>
      </trkpt>
      <trkpt lat="43.01651" lon="3.00171">
        <ele>42.6</ele>
        <time>2020-06-03T10:58:47.000Z</time>
      </trkpt>
      <trkpt lat="43.0165" lon="3.00177">
        <ele>42</ele>
        <time>2020-06-03T10:58:48.000Z</time>
      </trkpt>
      <trkpt lat="43.01647" lon="3.00183">
        <ele>41.4</ele>
        <time>2020-06-03T10:58:49.000Z</time>
      </trkpt>
      <trkpt lat="43.01646" lon="3.00189">
        <ele>40.6</ele>
        <time>2020-06-03T10:58:50.000Z</time>
      </trkpt>
      <trkpt lat="43.01645" lon="3.00195">
        <ele>40</ele>
        <time>2020-06-03T10:58:51.000Z</time>
      </trkpt>
      <trkpt lat="43.01644" lon="3.00201">
        <ele>39.4</ele>
        <time>2020-06-03T10:58:52.000Z</time>
      </trkpt>
      <trkpt lat="43.01643" lon="3.00213">
        <ele>39.4</ele>
        <time>2020-06-03T10:58:54.000Z</time>
      </trkpt>
      <trkpt lat="43.01652" lon="3.00232">
        <ele>39.4</ele>
        <time>2020-06-03T10:58:58.000Z</time>
      </trkpt>
      <trkpt lat="43.01668" lon="3.00237">
        <ele>39.4</ele>
        <time>2020-06-03T10:59:02.000Z</time>
      </trkpt>
      <trkpt lat="43.01682" lon="3.00235">
        <ele>39.4</ele>
        <time>2020-06-03T10:59:06.000Z</time>
      </trkpt>
      <trkpt lat="43.01683" lon="3.00238">
        <ele>39.4</ele>
        <time>2020-06-03T10:59:07.000Z</time>
      </trkpt>
      <trkpt lat="43.01679" lon="3.00242">
        <ele>39.4</ele>
        <time>2020-06-03T10:59:10.000Z</time>
      </trkpt>
      <trkpt lat="43.01666" lon="3.00246">
        <ele>39.4</ele>
        <time>2020-06-03T10:59:15.000Z</time>
      </trkpt>
      <trkpt lat="43.01663" lon="3.00247">
        <ele>39.4</ele>
        <time>2020-06-03T10:59:16.000Z</time>
      </trkpt>
      <trkpt lat="43.01657" lon="3.00247">
        <ele>39</ele>
        <time>2020-06-03T10:59:18.000Z</time>
      </trkpt>
      <trkpt lat="43.01655" lon="3.00248">
        <ele>38.6</ele>
        <time>2020-06-03T10:59:19.000Z</time>
      </trkpt>
      <trkpt lat="43.01654" lon="3.00248">
        <ele>38.2</ele>
        <time>2020-06-03T10:59:20.000Z</time>
      </trkpt>
      <trkpt lat="43.01653" lon="3.00249">
        <ele>37.8</ele>
        <time>2020-06-03T10:59:21.000Z</time>
      </trkpt>
      <trkpt lat="43.01652" lon="3.00249">
        <ele>37.4</ele>
        <time>2020-06-03T10:59:22.000Z</time>
      </trkpt>
      <trkpt lat="43.01649" lon="3.0025">
        <ele>37.4</ele>
        <time>2020-06-03T10:59:25.000Z</time>
      </trkpt>
      <trkpt lat="43.01645" lon="3.00255">
        <ele>37.4</ele>
        <time>2020-06-03T10:59:32.000Z</time>
      </trkpt>
      <trkpt lat="43.01636" lon="3.00259">
        <ele>37.4</ele>
        <time>2020-06-03T10:59:37.000Z</time>
      </trkpt>
      <trkpt lat="43.01619" lon="3.00267">
        <ele>37.4</ele>
        <time>2020-06-03T10:59:44.000Z</time>
      </trkpt>
      <trkpt lat="43.01617" lon="3.00268">
        <ele>37.4</ele>
        <time>2020-06-03T10:59:45.000Z</time>
      </trkpt>
      <trkpt lat="43.01598" lon="3.00279">
        <ele>37.4</ele>
        <time>2020-06-03T10:59:51.000Z</time>
      </trkpt>
      <trkpt lat="43.01573" lon="3.00295">
        <ele>37.4</ele>
        <time>2020-06-03T10:59:59.000Z</time>
      </trkpt>
      <trkpt lat="43.01572" lon="3.00299">
        <ele>37.4</ele>
        <time>2020-06-03T11:00:00.000Z</time>
      </trkpt>
      <trkpt lat="43.01574" lon="3.00305">
        <ele>37.8</ele>
        <time>2020-06-03T11:00:02.000Z</time>
      </trkpt>
      <trkpt lat="43.01576" lon="3.00307">
        <ele>38.2</ele>
        <time>2020-06-03T11:00:03.000Z</time>
      </trkpt>
      <trkpt lat="43.01578" lon="3.00308">
        <ele>38.8</ele>
        <time>2020-06-03T11:00:04.000Z</time>
      </trkpt>
      <trkpt lat="43.01582" lon="3.0031">
        <ele>39.2</ele>
        <time>2020-06-03T11:00:05.000Z</time>
      </trkpt>
      <trkpt lat="43.01586" lon="3.00311">
        <ele>39.6</ele>
        <time>2020-06-03T11:00:06.000Z</time>
      </trkpt>
      <trkpt lat="43.01606" lon="3.00324">
        <ele>39.6</ele>
        <time>2020-06-03T11:00:12.000Z</time>
      </trkpt>
      <trkpt lat="43.01619" lon="3.00332">
        <ele>39.6</ele>
        <time>2020-06-03T11:00:17.000Z</time>
      </trkpt>
      <trkpt lat="43.01634" lon="3.00342">
        <ele>39.6</ele>
        <time>2020-06-03T11:00:22.000Z</time>
      </trkpt>
      <trkpt lat="43.01637" lon="3.00353">
        <ele>39.6</ele>
        <time>2020-06-03T11:00:26.000Z</time>
      </trkpt>
      <trkpt lat="43.01638" lon="3.0036">
        <ele>39.6</ele>
        <time>2020-06-03T11:00:28.000Z</time>
      </trkpt>
      <trkpt lat="43.01639" lon="3.00366">
        <ele>40</ele>
        <time>2020-06-03T11:00:30.000Z</time>
      </trkpt>
      <trkpt lat="43.0164" lon="3.00368">
        <ele>40.4</ele>
        <time>2020-06-03T11:00:31.000Z</time>
      </trkpt>
      <trkpt lat="43.01641" lon="3.00371">
        <ele>40.8</ele>
        <time>2020-06-03T11:00:32.000Z</time>
      </trkpt>
      <trkpt lat="43.01641" lon="3.00374">
        <ele>41.4</ele>
        <time>2020-06-03T11:00:33.000Z</time>
      </trkpt>
      <trkpt lat="43.01642" lon="3.00377">
        <ele>41.8</ele>
        <time>2020-06-03T11:00:34.000Z</time>
      </trkpt>
      <trkpt lat="43.01643" lon="3.00382">
        <ele>41.8</ele>
        <time>2020-06-03T11:00:36.000Z</time>
      </trkpt>
      <trkpt lat="43.01644" lon="3.00384">
        <ele>42.2</ele>
        <time>2020-06-03T11:00:37.000Z</time>
      </trkpt>
      <trkpt lat="43.01645" lon="3.00386">
        <ele>42.6</ele>
        <time>2020-06-03T11:00:38.000Z</time>
      </trkpt>
      <trkpt lat="43.01647" lon="3.00387">
        <ele>43</ele>
        <time>2020-06-03T11:00:39.000Z</time>
      </trkpt>
      <trkpt lat="43.01648" lon="3.00386">
        <ele>43.4</ele>
        <time>2020-06-03T11:00:40.000Z</time>
      </trkpt>
      <trkpt lat="43.01649" lon="3.00384">
        <ele>44.4</ele>
        <time>2020-06-03T11:00:41.000Z</time>
      </trkpt>
      <trkpt lat="43.01652" lon="3.00384">
        <ele>45</ele>
        <time>2020-06-03T11:00:42.000Z</time>
      </trkpt>
      <trkpt lat="43.01653" lon="3.00385">
        <ele>45.4</ele>
        <time>2020-06-03T11:00:43.000Z</time>
      </trkpt>
      <trkpt lat="43.01654" lon="3.00387">
        <ele>46</ele>
        <time>2020-06-03T11:00:44.000Z</time>
      </trkpt>
      <trkpt lat="43.01656" lon="3.00388">
        <ele>46</ele>
        <time>2020-06-03T11:00:45.000Z</time>
      </trkpt>
      <trkpt lat="43.01657" lon="3.00389">
        <ele>46.4</ele>
        <time>2020-06-03T11:00:46.000Z</time>
      </trkpt>
      <trkpt lat="43.01658" lon="3.00389">
        <ele>46.8</ele>
        <time>2020-06-03T11:00:47.000Z</time>
      </trkpt>
      <trkpt lat="43.0166" lon="3.00391">
        <ele>47.2</ele>
        <time>2020-06-03T11:00:48.000Z</time>
      </trkpt>
      <trkpt lat="43.01661" lon="3.00392">
        <ele>47.8</ele>
        <time>2020-06-03T11:00:49.000Z</time>
      </trkpt>
      <trkpt lat="43.01663" lon="3.00391">
        <ele>48.2</ele>
        <time>2020-06-03T11:00:50.000Z</time>
      </trkpt>
      <trkpt lat="43.0167" lon="3.0039">
        <ele>48.2</ele>
        <time>2020-06-03T11:00:54.000Z</time>
      </trkpt>
      <trkpt lat="43.01676" lon="3.00389">
        <ele>48.2</ele>
        <time>2020-06-03T11:00:59.000Z</time>
      </trkpt>
      <trkpt lat="43.01679" lon="3.0039">
        <ele>48.2</ele>
        <time>2020-06-03T11:01:01.000Z</time>
      </trkpt>
      <trkpt lat="43.01682" lon="3.0039">
        <ele>47.4</ele>
        <time>2020-06-03T11:01:02.000Z</time>
      </trkpt>
      <trkpt lat="43.01686" lon="3.00392">
        <ele>46.8</ele>
        <time>2020-06-03T11:01:03.000Z</time>
      </trkpt>
      <trkpt lat="43.0169" lon="3.00392">
        <ele>45.8</ele>
        <time>2020-06-03T11:01:04.000Z</time>
      </trkpt>
      <trkpt lat="43.01691" lon="3.00392">
        <ele>44.8</ele>
        <time>2020-06-03T11:01:05.000Z</time>
      </trkpt>
      <trkpt lat="43.01691" lon="3.00391">
        <ele>42.8</ele>
        <time>2020-06-03T11:01:06.000Z</time>
      </trkpt>
      <trkpt lat="43.01692" lon="3.00388">
        <ele>42</ele>
        <time>2020-06-03T11:01:07.000Z</time>
      </trkpt>
      <trkpt lat="43.01701" lon="3.00385">
        <ele>42</ele>
        <time>2020-06-03T11:01:12.000Z</time>
      </trkpt>
      <trkpt lat="43.01704" lon="3.00391">
        <ele>42</ele>
        <time>2020-06-03T11:01:16.000Z</time>
      </trkpt>
      <trkpt lat="43.01704" lon="3.00391">
        <ele>42</ele>
        <time>2020-06-03T11:01:18.000Z</time>
      </trkpt>
      <trkpt lat="43.01712" lon="3.00397">
        <ele>42</ele>
        <time>2020-06-03T11:01:32.000Z</time>
      </trkpt>
      <trkpt lat="43.01714" lon="3.00401">
        <ele>42</ele>
        <time>2020-06-03T11:01:33.000Z</time>
      </trkpt>
      <trkpt lat="43.01715" lon="3.00406">
        <ele>42</ele>
        <time>2020-06-03T11:01:37.000Z</time>
      </trkpt>
      <trkpt lat="43.01721" lon="3.00417">
        <ele>42</ele>
        <time>2020-06-03T11:01:42.000Z</time>
      </trkpt>
      <trkpt lat="43.01723" lon="3.00421">
        <ele>42</ele>
        <time>2020-06-03T11:01:43.000Z</time>
      </trkpt>
      <trkpt lat="43.01726" lon="3.00432">
        <ele>42</ele>
        <time>2020-06-03T11:01:46.000Z</time>
      </trkpt>
      <trkpt lat="43.01731" lon="3.00448">
        <ele>42</ele>
        <time>2020-06-03T11:01:51.000Z</time>
      </trkpt>
      <trkpt lat="43.01734" lon="3.00462">
        <ele>42</ele>
        <time>2020-06-03T11:01:56.000Z</time>
      </trkpt>
      <trkpt lat="43.01734" lon="3.00464">
        <ele>42.4</ele>
        <time>2020-06-03T11:01:57.000Z</time>
      </trkpt>
      <trkpt lat="43.01735" lon="3.00467">
        <ele>42.8</ele>
        <time>2020-06-03T11:01:58.000Z</time>
      </trkpt>
      <trkpt lat="43.01736" lon="3.00469">
        <ele>43.2</ele>
        <time>2020-06-03T11:01:59.000Z</time>
      </trkpt>
      <trkpt lat="43.01736" lon="3.00471">
        <ele>43.6</ele>
        <time>2020-06-03T11:02:00.000Z</time>
      </trkpt>
      <trkpt lat="43.01737" lon="3.00473">
        <ele>44</ele>
        <time>2020-06-03T11:02:01.000Z</time>
      </trkpt>
      <trkpt lat="43.01739" lon="3.00476">
        <ele>44</ele>
        <time>2020-06-03T11:02:02.000Z</time>
      </trkpt>
      <trkpt lat="43.01746" lon="3.00494">
        <ele>44</ele>
        <time>2020-06-03T11:02:06.000Z</time>
      </trkpt>
      <trkpt lat="43.01751" lon="3.00498">
        <ele>44</ele>
        <time>2020-06-03T11:02:08.000Z</time>
      </trkpt>
      <trkpt lat="43.01753" lon="3.00498">
        <ele>44</ele>
        <time>2020-06-03T11:02:09.000Z</time>
      </trkpt>
      <trkpt lat="43.01755" lon="3.00507">
        <ele>44</ele>
        <time>2020-06-03T11:02:13.000Z</time>
      </trkpt>
      <trkpt lat="43.01756" lon="3.00509">
        <ele>44</ele>
        <time>2020-06-03T11:02:14.000Z</time>
      </trkpt>
      <trkpt lat="43.01764" lon="3.00519">
        <ele>44</ele>
        <time>2020-06-03T11:02:17.000Z</time>
      </trkpt>
      <trkpt lat="43.01766" lon="3.00526">
        <ele>44</ele>
        <time>2020-06-03T11:02:20.000Z</time>
      </trkpt>
      <trkpt lat="43.01774" lon="3.00534">
        <ele>44</ele>
        <time>2020-06-03T11:02:24.000Z</time>
      </trkpt>
      <trkpt lat="43.01777" lon="3.00539">
        <ele>44</ele>
        <time>2020-06-03T11:02:26.000Z</time>
      </trkpt>
      <trkpt lat="43.01778" lon="3.00543">
        <ele>44</ele>
        <time>2020-06-03T11:02:27.000Z</time>
      </trkpt>
      <trkpt lat="43.01781" lon="3.00548">
        <ele>44</ele>
        <time>2020-06-03T11:02:29.000Z</time>
      </trkpt>
      <trkpt lat="43.01783" lon="3.00552">
        <ele>44.4</ele>
        <time>2020-06-03T11:02:31.000Z</time>
      </trkpt>
      <trkpt lat="43.01784" lon="3.00555">
        <ele>44.8</ele>
        <time>2020-06-03T11:02:32.000Z</time>
      </trkpt>
      <trkpt lat="43.01785" lon="3.0056">
        <ele>45.2</ele>
        <time>2020-06-03T11:02:33.000Z</time>
      </trkpt>
      <trkpt lat="43.01787" lon="3.00564">
        <ele>45.6</ele>
        <time>2020-06-03T11:02:34.000Z</time>
      </trkpt>
      <trkpt lat="43.01789" lon="3.00569">
        <ele>46</ele>
        <time>2020-06-03T11:02:35.000Z</time>
      </trkpt>
      <trkpt lat="43.01786" lon="3.00578">
        <ele>46</ele>
        <time>2020-06-03T11:02:37.000Z</time>
      </trkpt>
      <trkpt lat="43.01785" lon="3.00581">
        <ele>46</ele>
        <time>2020-06-03T11:02:38.000Z</time>
      </trkpt>
      <trkpt lat="43.01783" lon="3.00587">
        <ele>46</ele>
        <time>2020-06-03T11:02:41.000Z</time>
      </trkpt>
      <trkpt lat="43.01777" lon="3.00595">
        <ele>46</ele>
        <time>2020-06-03T11:02:45.000Z</time>
      </trkpt>
      <trkpt lat="43.01773" lon="3.00611">
        <ele>45.6</ele>
        <time>2020-06-03T11:02:49.000Z</time>
      </trkpt>
      <trkpt lat="43.01774" lon="3.00614">
        <ele>45.2</ele>
        <time>2020-06-03T11:02:50.000Z</time>
      </trkpt>
      <trkpt lat="43.01774" lon="3.00617">
        <ele>44.6</ele>
        <time>2020-06-03T11:02:51.000Z</time>
      </trkpt>
      <trkpt lat="43.01775" lon="3.0062">
        <ele>44.2</ele>
        <time>2020-06-03T11:02:52.000Z</time>
      </trkpt>
      <trkpt lat="43.01774" lon="3.00627">
        <ele>43.6</ele>
        <time>2020-06-03T11:02:53.000Z</time>
      </trkpt>
      <trkpt lat="43.0177" lon="3.0063">
        <ele>43</ele>
        <time>2020-06-03T11:02:54.000Z</time>
      </trkpt>
      <trkpt lat="43.01768" lon="3.00631">
        <ele>42.4</ele>
        <time>2020-06-03T11:02:55.000Z</time>
      </trkpt>
      <trkpt lat="43.01766" lon="3.00632">
        <ele>41.8</ele>
        <time>2020-06-03T11:02:56.000Z</time>
      </trkpt>
      <trkpt lat="43.01763" lon="3.00634">
        <ele>41.2</ele>
        <time>2020-06-03T11:02:57.000Z</time>
      </trkpt>
      <trkpt lat="43.01761" lon="3.00636">
        <ele>41.2</ele>
        <time>2020-06-03T11:02:58.000Z</time>
      </trkpt>
      <trkpt lat="43.01756" lon="3.00645">
        <ele>41.2</ele>
        <time>2020-06-03T11:03:01.000Z</time>
      </trkpt>
      <trkpt lat="43.01751" lon="3.00652">
        <ele>41.2</ele>
        <time>2020-06-03T11:03:04.000Z</time>
      </trkpt>
      <trkpt lat="43.0175" lon="3.00656">
        <ele>41.2</ele>
        <time>2020-06-03T11:03:06.000Z</time>
      </trkpt>
      <trkpt lat="43.01752" lon="3.00663">
        <ele>41.2</ele>
        <time>2020-06-03T11:03:08.000Z</time>
      </trkpt>
      <trkpt lat="43.01754" lon="3.00667">
        <ele>41.2</ele>
        <time>2020-06-03T11:03:09.000Z</time>
      </trkpt>
      <trkpt lat="43.01765" lon="3.0068">
        <ele>41.2</ele>
        <time>2020-06-03T11:03:14.000Z</time>
      </trkpt>
      <trkpt lat="43.01769" lon="3.0068">
        <ele>41.2</ele>
        <time>2020-06-03T11:03:16.000Z</time>
      </trkpt>
      <trkpt lat="43.0177" lon="3.00683">
        <ele>41.2</ele>
        <time>2020-06-03T11:03:18.000Z</time>
      </trkpt>
      <trkpt lat="43.01771" lon="3.00695">
        <ele>41.2</ele>
        <time>2020-06-03T11:03:23.000Z</time>
      </trkpt>
      <trkpt lat="43.01772" lon="3.00698">
        <ele>41.2</ele>
        <time>2020-06-03T11:03:25.000Z</time>
      </trkpt>
      <trkpt lat="43.01773" lon="3.00698">
        <ele>41.2</ele>
        <time>2020-06-03T11:03:27.000Z</time>
      </trkpt>
      <trkpt lat="43.01775" lon="3.00697">
        <ele>41.6</ele>
        <time>2020-06-03T11:03:28.000Z</time>
      </trkpt>
      <trkpt lat="43.01777" lon="3.00696">
        <ele>42</ele>
        <time>2020-06-03T11:03:29.000Z</time>
      </trkpt>
      <trkpt lat="43.01778" lon="3.00693">
        <ele>42.6</ele>
        <time>2020-06-03T11:03:30.000Z</time>
      </trkpt>
      <trkpt lat="43.01781" lon="3.00693">
        <ele>43</ele>
        <time>2020-06-03T11:03:31.000Z</time>
      </trkpt>
      <trkpt lat="43.01784" lon="3.00692">
        <ele>43.4</ele>
        <time>2020-06-03T11:03:32.000Z</time>
      </trkpt>
      <trkpt lat="43.01788" lon="3.00693">
        <ele>43.8</ele>
        <time>2020-06-03T11:03:35.000Z</time>
      </trkpt>
      <trkpt lat="43.01789" lon="3.00694">
        <ele>44.8</ele>
        <time>2020-06-03T11:03:36.000Z</time>
      </trkpt>
      <trkpt lat="43.01791" lon="3.00693">
        <ele>45.2</ele>
        <time>2020-06-03T11:03:37.000Z</time>
      </trkpt>
      <trkpt lat="43.01793" lon="3.00692">
        <ele>45.6</ele>
        <time>2020-06-03T11:03:38.000Z</time>
      </trkpt>
      <trkpt lat="43.01799" lon="3.00693">
        <ele>45.6</ele>
        <time>2020-06-03T11:03:40.000Z</time>
      </trkpt>
      <trkpt lat="43.01801" lon="3.00694">
        <ele>45.6</ele>
        <time>2020-06-03T11:03:41.000Z</time>
      </trkpt>
      <trkpt lat="43.01801" lon="3.00694">
        <ele>46</ele>
        <time>2020-06-03T11:03:42.000Z</time>
      </trkpt>
      <trkpt lat="43.01802" lon="3.00695">
        <ele>46.4</ele>
        <time>2020-06-03T11:03:43.000Z</time>
      </trkpt>
      <trkpt lat="43.01805" lon="3.00696">
        <ele>47.6</ele>
        <time>2020-06-03T11:03:52.000Z</time>
      </trkpt>
      <trkpt lat="43.01807" lon="3.00698">
        <ele>47.6</ele>
        <time>2020-06-03T11:03:53.000Z</time>
      </trkpt>
      <trkpt lat="43.01813" lon="3.00706">
        <ele>47.6</ele>
        <time>2020-06-03T11:03:56.000Z</time>
      </trkpt>
      <trkpt lat="43.01812" lon="3.00714">
        <ele>47.6</ele>
        <time>2020-06-03T11:03:59.000Z</time>
      </trkpt>
      <trkpt lat="43.01813" lon="3.00718">
        <ele>47.6</ele>
        <time>2020-06-03T11:04:00.000Z</time>
      </trkpt>
      <trkpt lat="43.01822" lon="3.0074">
        <ele>47.6</ele>
        <time>2020-06-03T11:04:05.000Z</time>
      </trkpt>
      <trkpt lat="43.01834" lon="3.00762">
        <ele>47.6</ele>
        <time>2020-06-03T11:04:10.000Z</time>
      </trkpt>
      <trkpt lat="43.01834" lon="3.00769">
        <ele>47.6</ele>
        <time>2020-06-03T11:04:12.000Z</time>
      </trkpt>
      <trkpt lat="43.01832" lon="3.00772">
        <ele>47.6</ele>
        <time>2020-06-03T11:04:13.000Z</time>
      </trkpt>
      <trkpt lat="43.01825" lon="3.00787">
        <ele>47.6</ele>
        <time>2020-06-03T11:04:18.000Z</time>
      </trkpt>
      <trkpt lat="43.01824" lon="3.008">
        <ele>48</ele>
        <time>2020-06-03T11:04:22.000Z</time>
      </trkpt>
      <trkpt lat="43.01826" lon="3.00803">
        <ele>48.4</ele>
        <time>2020-06-03T11:04:23.000Z</time>
      </trkpt>
      <trkpt lat="43.01829" lon="3.00807">
        <ele>48.8</ele>
        <time>2020-06-03T11:04:24.000Z</time>
      </trkpt>
      <trkpt lat="43.01832" lon="3.00809">
        <ele>49.8</ele>
        <time>2020-06-03T11:04:25.000Z</time>
      </trkpt>
      <trkpt lat="43.01835" lon="3.00813">
        <ele>49.8</ele>
        <time>2020-06-03T11:04:26.000Z</time>
      </trkpt>
      <trkpt lat="43.01841" lon="3.0082">
        <ele>49.8</ele>
        <time>2020-06-03T11:04:28.000Z</time>
      </trkpt>
      <trkpt lat="43.01851" lon="3.00827">
        <ele>49.8</ele>
        <time>2020-06-03T11:04:31.000Z</time>
      </trkpt>
      <trkpt lat="43.01859" lon="3.00828">
        <ele>49.8</ele>
        <time>2020-06-03T11:04:33.000Z</time>
      </trkpt>
      <trkpt lat="43.01866" lon="3.00817">
        <ele>49.8</ele>
        <time>2020-06-03T11:04:36.000Z</time>
      </trkpt>
      <trkpt lat="43.01869" lon="3.00808">
        <ele>49.8</ele>
        <time>2020-06-03T11:04:38.000Z</time>
      </trkpt>
      <trkpt lat="43.0188" lon="3.00796">
        <ele>49.8</ele>
        <time>2020-06-03T11:04:42.000Z</time>
      </trkpt>
      <trkpt lat="43.01889" lon="3.00798">
        <ele>49.8</ele>
        <time>2020-06-03T11:04:46.000Z</time>
      </trkpt>
      <trkpt lat="43.01903" lon="3.00802">
        <ele>49.2</ele>
        <time>2020-06-03T11:04:51.000Z</time>
      </trkpt>
      <trkpt lat="43.01906" lon="3.00801">
        <ele>48.8</ele>
        <time>2020-06-03T11:04:52.000Z</time>
      </trkpt>
      <trkpt lat="43.01911" lon="3.00795">
        <ele>48.2</ele>
        <time>2020-06-03T11:04:53.000Z</time>
      </trkpt>
      <trkpt lat="43.01918" lon="3.00792">
        <ele>47.6</ele>
        <time>2020-06-03T11:04:54.000Z</time>
      </trkpt>
      <trkpt lat="43.01926" lon="3.00789">
        <ele>46.8</ele>
        <time>2020-06-03T11:04:55.000Z</time>
      </trkpt>
      <trkpt lat="43.01933" lon="3.00787">
        <ele>46</ele>
        <time>2020-06-03T11:04:56.000Z</time>
      </trkpt>
      <trkpt lat="43.01939" lon="3.00789">
        <ele>45</ele>
        <time>2020-06-03T11:04:57.000Z</time>
      </trkpt>
      <trkpt lat="43.01943" lon="3.00794">
        <ele>44.2</ele>
        <time>2020-06-03T11:04:58.000Z</time>
      </trkpt>
      <trkpt lat="43.01948" lon="3.00796">
        <ele>43.2</ele>
        <time>2020-06-03T11:04:59.000Z</time>
      </trkpt>
      <trkpt lat="43.01951" lon="3.00796">
        <ele>42.4</ele>
        <time>2020-06-03T11:05:00.000Z</time>
      </trkpt>
      <trkpt lat="43.01957" lon="3.00789">
        <ele>42.4</ele>
        <time>2020-06-03T11:05:03.000Z</time>
      </trkpt>
      <trkpt lat="43.01967" lon="3.00775">
        <ele>42.4</ele>
        <time>2020-06-03T11:05:06.000Z</time>
      </trkpt>
      <trkpt lat="43.01971" lon="3.00769">
        <ele>42.4</ele>
        <time>2020-06-03T11:05:07.000Z</time>
      </trkpt>
      <trkpt lat="43.01985" lon="3.00757">
        <ele>42.4</ele>
        <time>2020-06-03T11:05:11.000Z</time>
      </trkpt>
      <trkpt lat="43.01987" lon="3.00748">
        <ele>42.4</ele>
        <time>2020-06-03T11:05:14.000Z</time>
      </trkpt>
      <trkpt lat="43.01994" lon="3.00735">
        <ele>42.4</ele>
        <time>2020-06-03T11:05:18.000Z</time>
      </trkpt>
      <trkpt lat="43.02007" lon="3.00733">
        <ele>42.4</ele>
        <time>2020-06-03T11:05:22.000Z</time>
      </trkpt>
      <trkpt lat="43.02009" lon="3.00735">
        <ele>42.4</ele>
        <time>2020-06-03T11:05:24.000Z</time>
      </trkpt>
      <trkpt lat="43.02012" lon="3.00736">
        <ele>42.4</ele>
        <time>2020-06-03T11:05:26.000Z</time>
      </trkpt>
      <trkpt lat="43.02015" lon="3.00736">
        <ele>42</ele>
        <time>2020-06-03T11:05:27.000Z</time>
      </trkpt>
      <trkpt lat="43.0202" lon="3.00734">
        <ele>41.4</ele>
        <time>2020-06-03T11:05:28.000Z</time>
      </trkpt>
      <trkpt lat="43.02026" lon="3.00733">
        <ele>40.6</ele>
        <time>2020-06-03T11:05:29.000Z</time>
      </trkpt>
      <trkpt lat="43.02033" lon="3.00733">
        <ele>39.6</ele>
        <time>2020-06-03T11:05:30.000Z</time>
      </trkpt>
      <trkpt lat="43.02039" lon="3.00736">
        <ele>38.6</ele>
        <time>2020-06-03T11:05:31.000Z</time>
      </trkpt>
      <trkpt lat="43.02044" lon="3.00739">
        <ele>37.8</ele>
        <time>2020-06-03T11:05:32.000Z</time>
      </trkpt>
      <trkpt lat="43.0205" lon="3.00742">
        <ele>37</ele>
        <time>2020-06-03T11:05:33.000Z</time>
      </trkpt>
      <trkpt lat="43.02055" lon="3.00744">
        <ele>36.2</ele>
        <time>2020-06-03T11:05:34.000Z</time>
      </trkpt>
      <trkpt lat="43.02061" lon="3.00745">
        <ele>35.6</ele>
        <time>2020-06-03T11:05:35.000Z</time>
      </trkpt>
      <trkpt lat="43.02066" lon="3.00747">
        <ele>34.8</ele>
        <time>2020-06-03T11:05:36.000Z</time>
      </trkpt>
      <trkpt lat="43.02077" lon="3.00748">
        <ele>34.8</ele>
        <time>2020-06-03T11:05:38.000Z</time>
      </trkpt>
      <trkpt lat="43.02103" lon="3.00753">
        <ele>34.8</ele>
        <time>2020-06-03T11:05:43.000Z</time>
      </trkpt>
      <trkpt lat="43.02128" lon="3.00759">
        <ele>34.8</ele>
        <time>2020-06-03T11:05:49.000Z</time>
      </trkpt>
      <trkpt lat="43.02132" lon="3.00761">
        <ele>34.8</ele>
        <time>2020-06-03T11:05:50.000Z</time>
      </trkpt>
      <trkpt lat="43.02138" lon="3.00766">
        <ele>34.8</ele>
        <time>2020-06-03T11:05:52.000Z</time>
      </trkpt>
      <trkpt lat="43.0214" lon="3.0077">
        <ele>34.8</ele>
        <time>2020-06-03T11:05:53.000Z</time>
      </trkpt>
      <trkpt lat="43.02146" lon="3.00792">
        <ele>34.8</ele>
        <time>2020-06-03T11:05:58.000Z</time>
      </trkpt>
      <trkpt lat="43.02148" lon="3.00804">
        <ele>34.8</ele>
        <time>2020-06-03T11:06:00.000Z</time>
      </trkpt>
      <trkpt lat="43.02147" lon="3.00816">
        <ele>34.8</ele>
        <time>2020-06-03T11:06:02.000Z</time>
      </trkpt>
      <trkpt lat="43.02141" lon="3.00834">
        <ele>34.8</ele>
        <time>2020-06-03T11:06:06.000Z</time>
      </trkpt>
      <trkpt lat="43.02127" lon="3.00862">
        <ele>34.8</ele>
        <time>2020-06-03T11:06:13.000Z</time>
      </trkpt>
      <trkpt lat="43.02123" lon="3.00876">
        <ele>35.2</ele>
        <time>2020-06-03T11:06:16.000Z</time>
      </trkpt>
      <trkpt lat="43.02121" lon="3.0088">
        <ele>35.6</ele>
        <time>2020-06-03T11:06:17.000Z</time>
      </trkpt>
      <trkpt lat="43.0212" lon="3.00884">
        <ele>36</ele>
        <time>2020-06-03T11:06:18.000Z</time>
      </trkpt>
      <trkpt lat="43.02119" lon="3.00887">
        <ele>36.4</ele>
        <time>2020-06-03T11:06:19.000Z</time>
      </trkpt>
      <trkpt lat="43.02118" lon="3.0089">
        <ele>36.8</ele>
        <time>2020-06-03T11:06:20.000Z</time>
      </trkpt>
      <trkpt lat="43.02118" lon="3.00908">
        <ele>36.8</ele>
        <time>2020-06-03T11:06:24.000Z</time>
      </trkpt>
      <trkpt lat="43.02116" lon="3.00919">
        <ele>37.2</ele>
        <time>2020-06-03T11:06:27.000Z</time>
      </trkpt>
      <trkpt lat="43.02116" lon="3.00923">
        <ele>38.2</ele>
        <time>2020-06-03T11:06:28.000Z</time>
      </trkpt>
      <trkpt lat="43.02116" lon="3.00926">
        <ele>38.6</ele>
        <time>2020-06-03T11:06:29.000Z</time>
      </trkpt>
      <trkpt lat="43.02117" lon="3.00929">
        <ele>39</ele>
        <time>2020-06-03T11:06:30.000Z</time>
      </trkpt>
      <trkpt lat="43.02118" lon="3.00938">
        <ele>39</ele>
        <time>2020-06-03T11:06:32.000Z</time>
      </trkpt>
      <trkpt lat="43.02117" lon="3.00942">
        <ele>39</ele>
        <time>2020-06-03T11:06:33.000Z</time>
      </trkpt>
      <trkpt lat="43.02116" lon="3.00947">
        <ele>39</ele>
        <time>2020-06-03T11:06:35.000Z</time>
      </trkpt>
      <trkpt lat="43.02115" lon="3.0095">
        <ele>39.6</ele>
        <time>2020-06-03T11:06:36.000Z</time>
      </trkpt>
      <trkpt lat="43.02115" lon="3.00954">
        <ele>40</ele>
        <time>2020-06-03T11:06:37.000Z</time>
      </trkpt>
      <trkpt lat="43.02115" lon="3.00957">
        <ele>40.4</ele>
        <time>2020-06-03T11:06:38.000Z</time>
      </trkpt>
      <trkpt lat="43.02116" lon="3.00961">
        <ele>40.8</ele>
        <time>2020-06-03T11:06:39.000Z</time>
      </trkpt>
      <trkpt lat="43.02117" lon="3.00965">
        <ele>41.4</ele>
        <time>2020-06-03T11:06:40.000Z</time>
      </trkpt>
      <trkpt lat="43.02114" lon="3.00984">
        <ele>41.4</ele>
        <time>2020-06-03T11:06:44.000Z</time>
      </trkpt>
      <trkpt lat="43.02115" lon="3.00987">
        <ele>41.4</ele>
        <time>2020-06-03T11:06:45.000Z</time>
      </trkpt>
      <trkpt lat="43.02113" lon="3.00998">
        <ele>41.8</ele>
        <time>2020-06-03T11:06:48.000Z</time>
      </trkpt>
      <trkpt lat="43.02114" lon="3.01001">
        <ele>42.2</ele>
        <time>2020-06-03T11:06:49.000Z</time>
      </trkpt>
      <trkpt lat="43.02115" lon="3.01004">
        <ele>42.6</ele>
        <time>2020-06-03T11:06:50.000Z</time>
      </trkpt>
      <trkpt lat="43.02116" lon="3.0101">
        <ele>43.2</ele>
        <time>2020-06-03T11:06:51.000Z</time>
      </trkpt>
      <trkpt lat="43.02118" lon="3.01014">
        <ele>43.6</ele>
        <time>2020-06-03T11:06:52.000Z</time>
      </trkpt>
      <trkpt lat="43.02123" lon="3.01025">
        <ele>44</ele>
        <time>2020-06-03T11:06:55.000Z</time>
      </trkpt>
      <trkpt lat="43.02125" lon="3.01028">
        <ele>44.6</ele>
        <time>2020-06-03T11:06:56.000Z</time>
      </trkpt>
      <trkpt lat="43.02126" lon="3.01032">
        <ele>45</ele>
        <time>2020-06-03T11:06:57.000Z</time>
      </trkpt>
      <trkpt lat="43.02127" lon="3.01035">
        <ele>45.4</ele>
        <time>2020-06-03T11:06:58.000Z</time>
      </trkpt>
      <trkpt lat="43.02129" lon="3.01039">
        <ele>46</ele>
        <time>2020-06-03T11:06:59.000Z</time>
      </trkpt>
      <trkpt lat="43.02134" lon="3.01044">
        <ele>46.4</ele>
        <time>2020-06-03T11:07:01.000Z</time>
      </trkpt>
      <trkpt lat="43.02137" lon="3.01047">
        <ele>46.8</ele>
        <time>2020-06-03T11:07:02.000Z</time>
      </trkpt>
      <trkpt lat="43.02139" lon="3.0105">
        <ele>47.2</ele>
        <time>2020-06-03T11:07:03.000Z</time>
      </trkpt>
      <trkpt lat="43.02139" lon="3.01056">
        <ele>47.6</ele>
        <time>2020-06-03T11:07:04.000Z</time>
      </trkpt>
      <trkpt lat="43.0214" lon="3.01061">
        <ele>48</ele>
        <time>2020-06-03T11:07:05.000Z</time>
      </trkpt>
      <trkpt lat="43.0214" lon="3.01068">
        <ele>48</ele>
        <time>2020-06-03T11:07:06.000Z</time>
      </trkpt>
      <trkpt lat="43.02143" lon="3.01089">
        <ele>48</ele>
        <time>2020-06-03T11:07:10.000Z</time>
      </trkpt>
      <trkpt lat="43.02145" lon="3.01113">
        <ele>48</ele>
        <time>2020-06-03T11:07:15.000Z</time>
      </trkpt>
      <trkpt lat="43.02148" lon="3.0112">
        <ele>48</ele>
        <time>2020-06-03T11:07:17.000Z</time>
      </trkpt>
      <trkpt lat="43.02154" lon="3.01133">
        <ele>48</ele>
        <time>2020-06-03T11:07:20.000Z</time>
      </trkpt>
      <trkpt lat="43.02166" lon="3.01154">
        <ele>48.4</ele>
        <time>2020-06-03T11:07:25.000Z</time>
      </trkpt>
      <trkpt lat="43.0217" lon="3.01157">
        <ele>48.8</ele>
        <time>2020-06-03T11:07:26.000Z</time>
      </trkpt>
      <trkpt lat="43.02172" lon="3.01163">
        <ele>49.2</ele>
        <time>2020-06-03T11:07:27.000Z</time>
      </trkpt>
      <trkpt lat="43.02174" lon="3.01167">
        <ele>49.8</ele>
        <time>2020-06-03T11:07:28.000Z</time>
      </trkpt>
      <trkpt lat="43.02177" lon="3.01169">
        <ele>50.2</ele>
        <time>2020-06-03T11:07:29.000Z</time>
      </trkpt>
      <trkpt lat="43.02183" lon="3.01172">
        <ele>50.2</ele>
        <time>2020-06-03T11:07:31.000Z</time>
      </trkpt>
      <trkpt lat="43.02185" lon="3.01177">
        <ele>50.2</ele>
        <time>2020-06-03T11:07:32.000Z</time>
      </trkpt>
      <trkpt lat="43.02186" lon="3.01181">
        <ele>50.2</ele>
        <time>2020-06-03T11:07:33.000Z</time>
      </trkpt>
      <trkpt lat="43.02196" lon="3.01196">
        <ele>50.2</ele>
        <time>2020-06-03T11:07:37.000Z</time>
      </trkpt>
      <trkpt lat="43.02201" lon="3.01203">
        <ele>49.8</ele>
        <time>2020-06-03T11:07:39.000Z</time>
      </trkpt>
      <trkpt lat="43.02203" lon="3.01207">
        <ele>49.4</ele>
        <time>2020-06-03T11:07:40.000Z</time>
      </trkpt>
      <trkpt lat="43.02205" lon="3.01214">
        <ele>48.6</ele>
        <time>2020-06-03T11:07:41.000Z</time>
      </trkpt>
      <trkpt lat="43.02208" lon="3.01221">
        <ele>48.2</ele>
        <time>2020-06-03T11:07:42.000Z</time>
      </trkpt>
      <trkpt lat="43.02219" lon="3.01246">
        <ele>47.6</ele>
        <time>2020-06-03T11:07:45.000Z</time>
      </trkpt>
      <trkpt lat="43.02222" lon="3.01254">
        <ele>47.2</ele>
        <time>2020-06-03T11:07:46.000Z</time>
      </trkpt>
      <trkpt lat="43.02224" lon="3.01261">
        <ele>46.6</ele>
        <time>2020-06-03T11:07:47.000Z</time>
      </trkpt>
      <trkpt lat="43.02226" lon="3.01268">
        <ele>46</ele>
        <time>2020-06-03T11:07:48.000Z</time>
      </trkpt>
      <trkpt lat="43.02228" lon="3.01275">
        <ele>45.6</ele>
        <time>2020-06-03T11:07:49.000Z</time>
      </trkpt>
      <trkpt lat="43.02227" lon="3.01281">
        <ele>45.6</ele>
        <time>2020-06-03T11:07:50.000Z</time>
      </trkpt>
      <trkpt lat="43.02228" lon="3.01287">
        <ele>45.6</ele>
        <time>2020-06-03T11:07:51.000Z</time>
      </trkpt>
      <trkpt lat="43.02229" lon="3.01293">
        <ele>45.6</ele>
        <time>2020-06-03T11:07:52.000Z</time>
      </trkpt>
      <trkpt lat="43.0223" lon="3.01308">
        <ele>45.6</ele>
        <time>2020-06-03T11:07:55.000Z</time>
      </trkpt>
      <trkpt lat="43.02228" lon="3.0132">
        <ele>45.6</ele>
        <time>2020-06-03T11:07:58.000Z</time>
      </trkpt>
      <trkpt lat="43.02227" lon="3.01322">
        <ele>45.6</ele>
        <time>2020-06-03T11:07:59.000Z</time>
      </trkpt>
      <trkpt lat="43.02226" lon="3.01326">
        <ele>45.6</ele>
        <time>2020-06-03T11:08:00.000Z</time>
      </trkpt>
      <trkpt lat="43.02223" lon="3.01337">
        <ele>45.6</ele>
        <time>2020-06-03T11:08:03.000Z</time>
      </trkpt>
      <trkpt lat="43.02223" lon="3.01339">
        <ele>46</ele>
        <time>2020-06-03T11:08:04.000Z</time>
      </trkpt>
      <trkpt lat="43.02222" lon="3.01343">
        <ele>46.4</ele>
        <time>2020-06-03T11:08:05.000Z</time>
      </trkpt>
      <trkpt lat="43.02221" lon="3.01346">
        <ele>47.4</ele>
        <time>2020-06-03T11:08:06.000Z</time>
      </trkpt>
      <trkpt lat="43.0222" lon="3.0135">
        <ele>47.8</ele>
        <time>2020-06-03T11:08:07.000Z</time>
      </trkpt>
      <trkpt lat="43.02216" lon="3.01371">
        <ele>47.8</ele>
        <time>2020-06-03T11:08:11.000Z</time>
      </trkpt>
      <trkpt lat="43.02207" lon="3.01381">
        <ele>47.8</ele>
        <time>2020-06-03T11:08:16.000Z</time>
      </trkpt>
      <trkpt lat="43.02205" lon="3.01383">
        <ele>47.8</ele>
        <time>2020-06-03T11:08:17.000Z</time>
      </trkpt>
      <trkpt lat="43.02199" lon="3.01396">
        <ele>48.2</ele>
        <time>2020-06-03T11:08:21.000Z</time>
      </trkpt>
      <trkpt lat="43.02199" lon="3.01398">
        <ele>48.6</ele>
        <time>2020-06-03T11:08:22.000Z</time>
      </trkpt>
      <trkpt lat="43.02199" lon="3.01403">
        <ele>49</ele>
        <time>2020-06-03T11:08:23.000Z</time>
      </trkpt>
      <trkpt lat="43.02202" lon="3.01407">
        <ele>49.6</ele>
        <time>2020-06-03T11:08:24.000Z</time>
      </trkpt>
      <trkpt lat="43.02204" lon="3.0141">
        <ele>50</ele>
        <time>2020-06-03T11:08:25.000Z</time>
      </trkpt>
      <trkpt lat="43.02221" lon="3.01426">
        <ele>50</ele>
        <time>2020-06-03T11:08:30.000Z</time>
      </trkpt>
      <trkpt lat="43.02237" lon="3.01442">
        <ele>49.4</ele>
        <time>2020-06-03T11:08:34.000Z</time>
      </trkpt>
      <trkpt lat="43.02241" lon="3.01444">
        <ele>49</ele>
        <time>2020-06-03T11:08:35.000Z</time>
      </trkpt>
      <trkpt lat="43.02246" lon="3.01446">
        <ele>48.4</ele>
        <time>2020-06-03T11:08:36.000Z</time>
      </trkpt>
      <trkpt lat="43.02251" lon="3.01449">
        <ele>48</ele>
        <time>2020-06-03T11:08:37.000Z</time>
      </trkpt>
      <trkpt lat="43.02256" lon="3.01452">
        <ele>47.4</ele>
        <time>2020-06-03T11:08:38.000Z</time>
      </trkpt>
      <trkpt lat="43.02261" lon="3.01455">
        <ele>46.6</ele>
        <time>2020-06-03T11:08:39.000Z</time>
      </trkpt>
      <trkpt lat="43.02265" lon="3.01458">
        <ele>46</ele>
        <time>2020-06-03T11:08:40.000Z</time>
      </trkpt>
      <trkpt lat="43.02269" lon="3.0146">
        <ele>45.4</ele>
        <time>2020-06-03T11:08:41.000Z</time>
      </trkpt>
      <trkpt lat="43.02271" lon="3.01461">
        <ele>44.8</ele>
        <time>2020-06-03T11:08:42.000Z</time>
      </trkpt>
      <trkpt lat="43.02272" lon="3.01462">
        <ele>44.2</ele>
        <time>2020-06-03T11:08:43.000Z</time>
      </trkpt>
      <trkpt lat="43.02273" lon="3.01464">
        <ele>43.8</ele>
        <time>2020-06-03T11:08:44.000Z</time>
      </trkpt>
      <trkpt lat="43.02273" lon="3.01466">
        <ele>43.2</ele>
        <time>2020-06-03T11:08:45.000Z</time>
      </trkpt>
      <trkpt lat="43.02273" lon="3.01469">
        <ele>42.6</ele>
        <time>2020-06-03T11:08:46.000Z</time>
      </trkpt>
      <trkpt lat="43.02273" lon="3.01476">
        <ele>42.6</ele>
        <time>2020-06-03T11:08:49.000Z</time>
      </trkpt>
      <trkpt lat="43.02272" lon="3.01478">
        <ele>42.6</ele>
        <time>2020-06-03T11:08:50.000Z</time>
      </trkpt>
      <trkpt lat="43.02268" lon="3.01491">
        <ele>42.6</ele>
        <time>2020-06-03T11:08:55.000Z</time>
      </trkpt>
      <trkpt lat="43.02263" lon="3.0152">
        <ele>42.6</ele>
        <time>2020-06-03T11:09:02.000Z</time>
      </trkpt>
      <trkpt lat="43.02257" lon="3.01549">
        <ele>42.6</ele>
        <time>2020-06-03T11:09:08.000Z</time>
      </trkpt>
      <trkpt lat="43.02256" lon="3.01554">
        <ele>43</ele>
        <time>2020-06-03T11:09:09.000Z</time>
      </trkpt>
      <trkpt lat="43.02255" lon="3.0156">
        <ele>43.4</ele>
        <time>2020-06-03T11:09:10.000Z</time>
      </trkpt>
      <trkpt lat="43.02253" lon="3.01565">
        <ele>44</ele>
        <time>2020-06-03T11:09:11.000Z</time>
      </trkpt>
      <trkpt lat="43.02252" lon="3.01571">
        <ele>44.4</ele>
        <time>2020-06-03T11:09:12.000Z</time>
      </trkpt>
      <trkpt lat="43.02251" lon="3.01576">
        <ele>44.8</ele>
        <time>2020-06-03T11:09:13.000Z</time>
      </trkpt>
      <trkpt lat="43.02246" lon="3.01593">
        <ele>44.8</ele>
        <time>2020-06-03T11:09:17.000Z</time>
      </trkpt>
      <trkpt lat="43.02238" lon="3.01613">
        <ele>44.8</ele>
        <time>2020-06-03T11:09:21.000Z</time>
      </trkpt>
      <trkpt lat="43.0223" lon="3.01628">
        <ele>44.8</ele>
        <time>2020-06-03T11:09:24.000Z</time>
      </trkpt>
      <trkpt lat="43.02228" lon="3.01633">
        <ele>44.8</ele>
        <time>2020-06-03T11:09:25.000Z</time>
      </trkpt>
      <trkpt lat="43.02223" lon="3.01644">
        <ele>45.2</ele>
        <time>2020-06-03T11:09:27.000Z</time>
      </trkpt>
      <trkpt lat="43.0222" lon="3.01649">
        <ele>45.6</ele>
        <time>2020-06-03T11:09:28.000Z</time>
      </trkpt>
      <trkpt lat="43.02217" lon="3.01655">
        <ele>46</ele>
        <time>2020-06-03T11:09:29.000Z</time>
      </trkpt>
      <trkpt lat="43.02214" lon="3.0166">
        <ele>46.4</ele>
        <time>2020-06-03T11:09:30.000Z</time>
      </trkpt>
      <trkpt lat="43.02211" lon="3.01665">
        <ele>46.8</ele>
        <time>2020-06-03T11:09:31.000Z</time>
      </trkpt>
      <trkpt lat="43.02195" lon="3.01684">
        <ele>46.8</ele>
        <time>2020-06-03T11:09:36.000Z</time>
      </trkpt>
      <trkpt lat="43.02191" lon="3.01688">
        <ele>46.8</ele>
        <time>2020-06-03T11:09:37.000Z</time>
      </trkpt>
      <trkpt lat="43.02176" lon="3.01703">
        <ele>46.8</ele>
        <time>2020-06-03T11:09:41.000Z</time>
      </trkpt>
      <trkpt lat="43.02169" lon="3.01714">
        <ele>46.8</ele>
        <time>2020-06-03T11:09:43.000Z</time>
      </trkpt>
      <trkpt lat="43.02159" lon="3.01737">
        <ele>46.8</ele>
        <time>2020-06-03T11:09:47.000Z</time>
      </trkpt>
      <trkpt lat="43.02157" lon="3.01742">
        <ele>46.8</ele>
        <time>2020-06-03T11:09:48.000Z</time>
      </trkpt>
      <trkpt lat="43.02155" lon="3.01746">
        <ele>47.4</ele>
        <time>2020-06-03T11:09:49.000Z</time>
      </trkpt>
      <trkpt lat="43.02153" lon="3.0175">
        <ele>48</ele>
        <time>2020-06-03T11:09:50.000Z</time>
      </trkpt>
      <trkpt lat="43.02152" lon="3.01754">
        <ele>48.4</ele>
        <time>2020-06-03T11:09:51.000Z</time>
      </trkpt>
      <trkpt lat="43.02151" lon="3.01758">
        <ele>49</ele>
        <time>2020-06-03T11:09:52.000Z</time>
      </trkpt>
      <trkpt lat="43.0215" lon="3.01763">
        <ele>49.6</ele>
        <time>2020-06-03T11:09:53.000Z</time>
      </trkpt>
      <trkpt lat="43.02147" lon="3.01771">
        <ele>50</ele>
        <time>2020-06-03T11:09:55.000Z</time>
      </trkpt>
      <trkpt lat="43.02145" lon="3.01775">
        <ele>50.4</ele>
        <time>2020-06-03T11:09:56.000Z</time>
      </trkpt>
      <trkpt lat="43.02143" lon="3.0178">
        <ele>50.8</ele>
        <time>2020-06-03T11:09:57.000Z</time>
      </trkpt>
      <trkpt lat="43.02142" lon="3.01784">
        <ele>51.4</ele>
        <time>2020-06-03T11:09:58.000Z</time>
      </trkpt>
      <trkpt lat="43.0214" lon="3.01788">
        <ele>51.8</ele>
        <time>2020-06-03T11:09:59.000Z</time>
      </trkpt>
      <trkpt lat="43.0213" lon="3.01813">
        <ele>51.8</ele>
        <time>2020-06-03T11:10:05.000Z</time>
      </trkpt>
      <trkpt lat="43.02129" lon="3.01816">
        <ele>52.2</ele>
        <time>2020-06-03T11:10:06.000Z</time>
      </trkpt>
      <trkpt lat="43.02128" lon="3.01819">
        <ele>52.6</ele>
        <time>2020-06-03T11:10:07.000Z</time>
      </trkpt>
      <trkpt lat="43.02127" lon="3.01822">
        <ele>53</ele>
        <time>2020-06-03T11:10:08.000Z</time>
      </trkpt>
      <trkpt lat="43.02125" lon="3.01825">
        <ele>53.6</ele>
        <time>2020-06-03T11:10:09.000Z</time>
      </trkpt>
      <trkpt lat="43.02124" lon="3.01828">
        <ele>54.4</ele>
        <time>2020-06-03T11:10:10.000Z</time>
      </trkpt>
      <trkpt lat="43.02122" lon="3.01831">
        <ele>54.8</ele>
        <time>2020-06-03T11:10:11.000Z</time>
      </trkpt>
      <trkpt lat="43.02121" lon="3.01835">
        <ele>55.4</ele>
        <time>2020-06-03T11:10:12.000Z</time>
      </trkpt>
      <trkpt lat="43.0212" lon="3.01839">
        <ele>55.8</ele>
        <time>2020-06-03T11:10:13.000Z</time>
      </trkpt>
      <trkpt lat="43.0212" lon="3.01843">
        <ele>56.4</ele>
        <time>2020-06-03T11:10:14.000Z</time>
      </trkpt>
      <trkpt lat="43.0212" lon="3.01848">
        <ele>56.4</ele>
        <time>2020-06-03T11:10:15.000Z</time>
      </trkpt>
      <trkpt lat="43.02127" lon="3.01872">
        <ele>56.4</ele>
        <time>2020-06-03T11:10:19.000Z</time>
      </trkpt>
      <trkpt lat="43.02129" lon="3.01878">
        <ele>56.4</ele>
        <time>2020-06-03T11:10:20.000Z</time>
      </trkpt>
      <trkpt lat="43.02141" lon="3.01899">
        <ele>56.4</ele>
        <time>2020-06-03T11:10:24.000Z</time>
      </trkpt>
      <trkpt lat="43.02148" lon="3.01908">
        <ele>56.4</ele>
        <time>2020-06-03T11:10:26.000Z</time>
      </trkpt>
      <trkpt lat="43.0216" lon="3.01923">
        <ele>56.4</ele>
        <time>2020-06-03T11:10:29.000Z</time>
      </trkpt>
      <trkpt lat="43.02164" lon="3.01928">
        <ele>56.4</ele>
        <time>2020-06-03T11:10:30.000Z</time>
      </trkpt>
      <trkpt lat="43.02169" lon="3.01934">
        <ele>55.8</ele>
        <time>2020-06-03T11:10:31.000Z</time>
      </trkpt>
      <trkpt lat="43.02174" lon="3.0194">
        <ele>55.4</ele>
        <time>2020-06-03T11:10:32.000Z</time>
      </trkpt>
      <trkpt lat="43.02179" lon="3.01946">
        <ele>55</ele>
        <time>2020-06-03T11:10:33.000Z</time>
      </trkpt>
      <trkpt lat="43.02185" lon="3.01952">
        <ele>54</ele>
        <time>2020-06-03T11:10:34.000Z</time>
      </trkpt>
      <trkpt lat="43.02191" lon="3.01957">
        <ele>53.6</ele>
        <time>2020-06-03T11:10:35.000Z</time>
      </trkpt>
      <trkpt lat="43.02197" lon="3.01962">
        <ele>53</ele>
        <time>2020-06-03T11:10:36.000Z</time>
      </trkpt>
      <trkpt lat="43.02202" lon="3.01967">
        <ele>52.6</ele>
        <time>2020-06-03T11:10:37.000Z</time>
      </trkpt>
      <trkpt lat="43.02207" lon="3.0197">
        <ele>52</ele>
        <time>2020-06-03T11:10:38.000Z</time>
      </trkpt>
      <trkpt lat="43.02214" lon="3.01978">
        <ele>52</ele>
        <time>2020-06-03T11:10:40.000Z</time>
      </trkpt>
      <trkpt lat="43.02217" lon="3.0198">
        <ele>52</ele>
        <time>2020-06-03T11:10:41.000Z</time>
      </trkpt>
      <trkpt lat="43.0222" lon="3.0198">
        <ele>52.6</ele>
        <time>2020-06-03T11:10:42.000Z</time>
      </trkpt>
      <trkpt lat="43.02222" lon="3.01981">
        <ele>53</ele>
        <time>2020-06-03T11:10:43.000Z</time>
      </trkpt>
      <trkpt lat="43.02226" lon="3.01982">
        <ele>53.6</ele>
        <time>2020-06-03T11:10:44.000Z</time>
      </trkpt>
      <trkpt lat="43.0223" lon="3.01983">
        <ele>54</ele>
        <time>2020-06-03T11:10:45.000Z</time>
      </trkpt>
      <trkpt lat="43.02234" lon="3.01985">
        <ele>54.6</ele>
        <time>2020-06-03T11:10:46.000Z</time>
      </trkpt>
      <trkpt lat="43.02245" lon="3.01994">
        <ele>54.6</ele>
        <time>2020-06-03T11:10:49.000Z</time>
      </trkpt>
      <trkpt lat="43.02249" lon="3.01996">
        <ele>54.6</ele>
        <time>2020-06-03T11:10:50.000Z</time>
      </trkpt>
      <trkpt lat="43.02264" lon="3.02">
        <ele>54.6</ele>
        <time>2020-06-03T11:10:53.000Z</time>
      </trkpt>
      <trkpt lat="43.0227" lon="3.02">
        <ele>54.6</ele>
        <time>2020-06-03T11:10:54.000Z</time>
      </trkpt>
      <trkpt lat="43.02294" lon="3.01998">
        <ele>54.6</ele>
        <time>2020-06-03T11:10:58.000Z</time>
      </trkpt>
      <trkpt lat="43.02301" lon="3.01997">
        <ele>54</ele>
        <time>2020-06-03T11:10:59.000Z</time>
      </trkpt>
      <trkpt lat="43.02309" lon="3.01996">
        <ele>53.6</ele>
        <time>2020-06-03T11:11:00.000Z</time>
      </trkpt>
      <trkpt lat="43.02316" lon="3.01994">
        <ele>53.2</ele>
        <time>2020-06-03T11:11:01.000Z</time>
      </trkpt>
      <trkpt lat="43.02323" lon="3.01992">
        <ele>52.8</ele>
        <time>2020-06-03T11:11:02.000Z</time>
      </trkpt>
      <trkpt lat="43.0233" lon="3.01992">
        <ele>52.4</ele>
        <time>2020-06-03T11:11:03.000Z</time>
      </trkpt>
      <trkpt lat="43.02354" lon="3.01987">
        <ele>52.4</ele>
        <time>2020-06-03T11:11:07.000Z</time>
      </trkpt>
      <trkpt lat="43.02368" lon="3.01969">
        <ele>51.8</ele>
        <time>2020-06-03T11:11:10.000Z</time>
      </trkpt>
      <trkpt lat="43.02372" lon="3.01961">
        <ele>51.4</ele>
        <time>2020-06-03T11:11:11.000Z</time>
      </trkpt>
      <trkpt lat="43.02376" lon="3.01952">
        <ele>50.8</ele>
        <time>2020-06-03T11:11:12.000Z</time>
      </trkpt>
      <trkpt lat="43.0238" lon="3.01943">
        <ele>50.2</ele>
        <time>2020-06-03T11:11:13.000Z</time>
      </trkpt>
      <trkpt lat="43.02384" lon="3.01934">
        <ele>49.6</ele>
        <time>2020-06-03T11:11:14.000Z</time>
      </trkpt>
      <trkpt lat="43.02388" lon="3.01926">
        <ele>49</ele>
        <time>2020-06-03T11:11:15.000Z</time>
      </trkpt>
      <trkpt lat="43.02392" lon="3.01918">
        <ele>48.4</ele>
        <time>2020-06-03T11:11:16.000Z</time>
      </trkpt>
      <trkpt lat="43.02395" lon="3.0191">
        <ele>47.8</ele>
        <time>2020-06-03T11:11:17.000Z</time>
      </trkpt>
      <trkpt lat="43.02394" lon="3.01893">
        <ele>47.8</ele>
        <time>2020-06-03T11:11:19.000Z</time>
      </trkpt>
      <trkpt lat="43.02385" lon="3.01876">
        <ele>47.4</ele>
        <time>2020-06-03T11:11:21.000Z</time>
      </trkpt>
      <trkpt lat="43.0238" lon="3.01867">
        <ele>47</ele>
        <time>2020-06-03T11:11:22.000Z</time>
      </trkpt>
      <trkpt lat="43.02376" lon="3.01858">
        <ele>46.6</ele>
        <time>2020-06-03T11:11:23.000Z</time>
      </trkpt>
      <trkpt lat="43.02372" lon="3.0185">
        <ele>45.2</ele>
        <time>2020-06-03T11:11:24.000Z</time>
      </trkpt>
      <trkpt lat="43.02369" lon="3.01843">
        <ele>44.6</ele>
        <time>2020-06-03T11:11:25.000Z</time>
      </trkpt>
      <trkpt lat="43.02367" lon="3.01835">
        <ele>43.8</ele>
        <time>2020-06-03T11:11:26.000Z</time>
      </trkpt>
      <trkpt lat="43.02366" lon="3.01827">
        <ele>43.2</ele>
        <time>2020-06-03T11:11:27.000Z</time>
      </trkpt>
      <trkpt lat="43.02364" lon="3.01818">
        <ele>42.8</ele>
        <time>2020-06-03T11:11:28.000Z</time>
      </trkpt>
      <trkpt lat="43.02362" lon="3.01809">
        <ele>42.2</ele>
        <time>2020-06-03T11:11:29.000Z</time>
      </trkpt>
      <trkpt lat="43.02361" lon="3.01799">
        <ele>41.8</ele>
        <time>2020-06-03T11:11:30.000Z</time>
      </trkpt>
      <trkpt lat="43.02361" lon="3.01789">
        <ele>41.4</ele>
        <time>2020-06-03T11:11:31.000Z</time>
      </trkpt>
      <trkpt lat="43.02361" lon="3.01778">
        <ele>41</ele>
        <time>2020-06-03T11:11:32.000Z</time>
      </trkpt>
      <trkpt lat="43.02361" lon="3.01768">
        <ele>40.4</ele>
        <time>2020-06-03T11:11:33.000Z</time>
      </trkpt>
      <trkpt lat="43.02361" lon="3.01757">
        <ele>40</ele>
        <time>2020-06-03T11:11:34.000Z</time>
      </trkpt>
      <trkpt lat="43.02361" lon="3.01746">
        <ele>39.4</ele>
        <time>2020-06-03T11:11:35.000Z</time>
      </trkpt>
      <trkpt lat="43.0236" lon="3.01735">
        <ele>38.8</ele>
        <time>2020-06-03T11:11:36.000Z</time>
      </trkpt>
      <trkpt lat="43.0236" lon="3.01726">
        <ele>38.4</ele>
        <time>2020-06-03T11:11:37.000Z</time>
      </trkpt>
      <trkpt lat="43.0236" lon="3.01716">
        <ele>38.4</ele>
        <time>2020-06-03T11:11:38.000Z</time>
      </trkpt>
      <trkpt lat="43.02364" lon="3.01691">
        <ele>38.4</ele>
        <time>2020-06-03T11:11:41.000Z</time>
      </trkpt>
      <trkpt lat="43.02364" lon="3.01685">
        <ele>38.4</ele>
        <time>2020-06-03T11:11:42.000Z</time>
      </trkpt>
      <trkpt lat="43.02364" lon="3.01682">
        <ele>38.4</ele>
        <time>2020-06-03T11:11:44.000Z</time>
      </trkpt>
      <trkpt lat="43.02364" lon="3.01681">
        <ele>38.4</ele>
        <time>2020-06-03T11:11:45.000Z</time>
      </trkpt>
      <trkpt lat="43.02365" lon="3.01675">
        <ele>38.4</ele>
        <time>2020-06-03T11:11:48.000Z</time>
      </trkpt>
      <trkpt lat="43.02367" lon="3.01668">
        <ele>38.4</ele>
        <time>2020-06-03T11:11:50.000Z</time>
      </trkpt>
      <trkpt lat="43.02369" lon="3.01662">
        <ele>38.4</ele>
        <time>2020-06-03T11:11:52.000Z</time>
      </trkpt>
      <trkpt lat="43.02376" lon="3.01645">
        <ele>38.4</ele>
        <time>2020-06-03T11:11:56.000Z</time>
      </trkpt>
      <trkpt lat="43.02379" lon="3.01634">
        <ele>38</ele>
        <time>2020-06-03T11:11:58.000Z</time>
      </trkpt>
      <trkpt lat="43.0238" lon="3.0163">
        <ele>37.6</ele>
        <time>2020-06-03T11:11:59.000Z</time>
      </trkpt>
      <trkpt lat="43.02381" lon="3.01626">
        <ele>37</ele>
        <time>2020-06-03T11:12:00.000Z</time>
      </trkpt>
      <trkpt lat="43.02383" lon="3.01624">
        <ele>36.6</ele>
        <time>2020-06-03T11:12:01.000Z</time>
      </trkpt>
      <trkpt lat="43.02386" lon="3.01624">
        <ele>36.2</ele>
        <time>2020-06-03T11:12:02.000Z</time>
      </trkpt>
      <trkpt lat="43.02391" lon="3.01629">
        <ele>36.2</ele>
        <time>2020-06-03T11:12:04.000Z</time>
      </trkpt>
      <trkpt lat="43.02406" lon="3.01648">
        <ele>36.2</ele>
        <time>2020-06-03T11:12:10.000Z</time>
      </trkpt>
      <trkpt lat="43.02418" lon="3.01665">
        <ele>36.2</ele>
        <time>2020-06-03T11:12:15.000Z</time>
      </trkpt>
      <trkpt lat="43.02425" lon="3.01684">
        <ele>36.6</ele>
        <time>2020-06-03T11:12:20.000Z</time>
      </trkpt>
      <trkpt lat="43.02426" lon="3.01688">
        <ele>37</ele>
        <time>2020-06-03T11:12:21.000Z</time>
      </trkpt>
      <trkpt lat="43.02427" lon="3.01691">
        <ele>37.4</ele>
        <time>2020-06-03T11:12:22.000Z</time>
      </trkpt>
      <trkpt lat="43.02429" lon="3.01695">
        <ele>37.8</ele>
        <time>2020-06-03T11:12:23.000Z</time>
      </trkpt>
      <trkpt lat="43.0243" lon="3.01699">
        <ele>38.2</ele>
        <time>2020-06-03T11:12:24.000Z</time>
      </trkpt>
      <trkpt lat="43.02436" lon="3.01712">
        <ele>38.2</ele>
        <time>2020-06-03T11:12:27.000Z</time>
      </trkpt>
      <trkpt lat="43.0245" lon="3.01744">
        <ele>38.2</ele>
        <time>2020-06-03T11:12:34.000Z</time>
      </trkpt>
      <trkpt lat="43.02454" lon="3.01754">
        <ele>38.2</ele>
        <time>2020-06-03T11:12:36.000Z</time>
      </trkpt>
      <trkpt lat="43.02457" lon="3.01763">
        <ele>38.6</ele>
        <time>2020-06-03T11:12:38.000Z</time>
      </trkpt>
      <trkpt lat="43.02459" lon="3.01768">
        <ele>39</ele>
        <time>2020-06-03T11:12:39.000Z</time>
      </trkpt>
      <trkpt lat="43.0246" lon="3.01772">
        <ele>39.4</ele>
        <time>2020-06-03T11:12:40.000Z</time>
      </trkpt>
      <trkpt lat="43.02461" lon="3.01776">
        <ele>40</ele>
        <time>2020-06-03T11:12:41.000Z</time>
      </trkpt>
      <trkpt lat="43.02462" lon="3.01781">
        <ele>40.4</ele>
        <time>2020-06-03T11:12:42.000Z</time>
      </trkpt>
      <trkpt lat="43.02465" lon="3.01799">
        <ele>40.4</ele>
        <time>2020-06-03T11:12:45.000Z</time>
      </trkpt>
      <trkpt lat="43.02474" lon="3.01834">
        <ele>40.4</ele>
        <time>2020-06-03T11:12:50.000Z</time>
      </trkpt>
      <trkpt lat="43.02483" lon="3.01857">
        <ele>40</ele>
        <time>2020-06-03T11:12:53.000Z</time>
      </trkpt>
      <trkpt lat="43.02486" lon="3.01864">
        <ele>39.4</ele>
        <time>2020-06-03T11:12:54.000Z</time>
      </trkpt>
      <trkpt lat="43.02489" lon="3.0187">
        <ele>39</ele>
        <time>2020-06-03T11:12:55.000Z</time>
      </trkpt>
      <trkpt lat="43.02491" lon="3.01877">
        <ele>38.6</ele>
        <time>2020-06-03T11:12:56.000Z</time>
      </trkpt>
      <trkpt lat="43.02493" lon="3.01884">
        <ele>38.2</ele>
        <time>2020-06-03T11:12:57.000Z</time>
      </trkpt>
      <trkpt lat="43.02492" lon="3.01889">
        <ele>38.2</ele>
        <time>2020-06-03T11:12:58.000Z</time>
      </trkpt>
      <trkpt lat="43.02494" lon="3.01908">
        <ele>37.8</ele>
        <time>2020-06-03T11:13:02.000Z</time>
      </trkpt>
      <trkpt lat="43.02494" lon="3.01913">
        <ele>36.8</ele>
        <time>2020-06-03T11:13:03.000Z</time>
      </trkpt>
      <trkpt lat="43.02494" lon="3.01919">
        <ele>36.4</ele>
        <time>2020-06-03T11:13:04.000Z</time>
      </trkpt>
      <trkpt lat="43.02495" lon="3.01925">
        <ele>36</ele>
        <time>2020-06-03T11:13:05.000Z</time>
      </trkpt>
      <trkpt lat="43.02498" lon="3.01929">
        <ele>36</ele>
        <time>2020-06-03T11:13:06.000Z</time>
      </trkpt>
      <trkpt lat="43.02507" lon="3.01931">
        <ele>36</ele>
        <time>2020-06-03T11:13:08.000Z</time>
      </trkpt>
      <trkpt lat="43.02513" lon="3.01933">
        <ele>35.6</ele>
        <time>2020-06-03T11:13:09.000Z</time>
      </trkpt>
      <trkpt lat="43.02518" lon="3.01936">
        <ele>35</ele>
        <time>2020-06-03T11:13:10.000Z</time>
      </trkpt>
      <trkpt lat="43.02522" lon="3.01939">
        <ele>34.6</ele>
        <time>2020-06-03T11:13:11.000Z</time>
      </trkpt>
      <trkpt lat="43.02525" lon="3.01941">
        <ele>34.2</ele>
        <time>2020-06-03T11:13:12.000Z</time>
      </trkpt>
      <trkpt lat="43.02528" lon="3.01943">
        <ele>33.6</ele>
        <time>2020-06-03T11:13:13.000Z</time>
      </trkpt>
      <trkpt lat="43.02534" lon="3.01942">
        <ele>33.6</ele>
        <time>2020-06-03T11:13:15.000Z</time>
      </trkpt>
      <trkpt lat="43.02537" lon="3.01941">
        <ele>33.6</ele>
        <time>2020-06-03T11:13:16.000Z</time>
      </trkpt>
      <trkpt lat="43.02549" lon="3.01943">
        <ele>33.6</ele>
        <time>2020-06-03T11:13:20.000Z</time>
      </trkpt>
      <trkpt lat="43.0255" lon="3.01944">
        <ele>33.6</ele>
        <time>2020-06-03T11:13:21.000Z</time>
      </trkpt>
      <trkpt lat="43.02549" lon="3.01947">
        <ele>33.6</ele>
        <time>2020-06-03T11:13:23.000Z</time>
      </trkpt>
      <trkpt lat="43.02547" lon="3.01949">
        <ele>34.2</ele>
        <time>2020-06-03T11:13:25.000Z</time>
      </trkpt>
      <trkpt lat="43.02545" lon="3.01949">
        <ele>34.6</ele>
        <time>2020-06-03T11:13:26.000Z</time>
      </trkpt>
      <trkpt lat="43.02543" lon="3.0195">
        <ele>35.4</ele>
        <time>2020-06-03T11:13:27.000Z</time>
      </trkpt>
      <trkpt lat="43.02541" lon="3.01951">
        <ele>35.8</ele>
        <time>2020-06-03T11:13:28.000Z</time>
      </trkpt>
      <trkpt lat="43.02539" lon="3.01953">
        <ele>35.8</ele>
        <time>2020-06-03T11:13:29.000Z</time>
      </trkpt>
      <trkpt lat="43.02534" lon="3.01969">
        <ele>35.8</ele>
        <time>2020-06-03T11:13:34.000Z</time>
      </trkpt>
      <trkpt lat="43.02533" lon="3.01976">
        <ele>36.2</ele>
        <time>2020-06-03T11:13:36.000Z</time>
      </trkpt>
      <trkpt lat="43.02532" lon="3.01979">
        <ele>36.6</ele>
        <time>2020-06-03T11:13:37.000Z</time>
      </trkpt>
      <trkpt lat="43.0253" lon="3.01982">
        <ele>37</ele>
        <time>2020-06-03T11:13:38.000Z</time>
      </trkpt>
      <trkpt lat="43.02529" lon="3.01986">
        <ele>37.6</ele>
        <time>2020-06-03T11:13:39.000Z</time>
      </trkpt>
      <trkpt lat="43.02528" lon="3.01989">
        <ele>38</ele>
        <time>2020-06-03T11:13:40.000Z</time>
      </trkpt>
      <trkpt lat="43.02521" lon="3.02005">
        <ele>38</ele>
        <time>2020-06-03T11:13:45.000Z</time>
      </trkpt>
      <trkpt lat="43.02518" lon="3.02011">
        <ele>38.4</ele>
        <time>2020-06-03T11:13:47.000Z</time>
      </trkpt>
      <trkpt lat="43.02517" lon="3.02014">
        <ele>38.8</ele>
        <time>2020-06-03T11:13:48.000Z</time>
      </trkpt>
      <trkpt lat="43.02516" lon="3.02017">
        <ele>39.2</ele>
        <time>2020-06-03T11:13:49.000Z</time>
      </trkpt>
      <trkpt lat="43.02515" lon="3.02021">
        <ele>39.6</ele>
        <time>2020-06-03T11:13:50.000Z</time>
      </trkpt>
      <trkpt lat="43.02514" lon="3.02024">
        <ele>40</ele>
        <time>2020-06-03T11:13:51.000Z</time>
      </trkpt>
      <trkpt lat="43.02508" lon="3.02032">
        <ele>40.4</ele>
        <time>2020-06-03T11:13:54.000Z</time>
      </trkpt>
      <trkpt lat="43.02507" lon="3.02035">
        <ele>40.8</ele>
        <time>2020-06-03T11:13:55.000Z</time>
      </trkpt>
      <trkpt lat="43.02504" lon="3.02037">
        <ele>41.2</ele>
        <time>2020-06-03T11:13:56.000Z</time>
      </trkpt>
      <trkpt lat="43.02503" lon="3.02039">
        <ele>41.6</ele>
        <time>2020-06-03T11:13:57.000Z</time>
      </trkpt>
      <trkpt lat="43.02501" lon="3.02041">
        <ele>42</ele>
        <time>2020-06-03T11:13:58.000Z</time>
      </trkpt>
      <trkpt lat="43.02495" lon="3.02051">
        <ele>42.6</ele>
        <time>2020-06-03T11:14:02.000Z</time>
      </trkpt>
      <trkpt lat="43.02494" lon="3.02053">
        <ele>43</ele>
        <time>2020-06-03T11:14:03.000Z</time>
      </trkpt>
      <trkpt lat="43.02493" lon="3.02056">
        <ele>43.4</ele>
        <time>2020-06-03T11:14:04.000Z</time>
      </trkpt>
      <trkpt lat="43.02492" lon="3.02057">
        <ele>43.8</ele>
        <time>2020-06-03T11:14:05.000Z</time>
      </trkpt>
      <trkpt lat="43.02491" lon="3.0206">
        <ele>44.4</ele>
        <time>2020-06-03T11:14:06.000Z</time>
      </trkpt>
      <trkpt lat="43.02494" lon="3.02065">
        <ele>44.4</ele>
        <time>2020-06-03T11:14:08.000Z</time>
      </trkpt>
      <trkpt lat="43.02505" lon="3.02083">
        <ele>44.4</ele>
        <time>2020-06-03T11:14:13.000Z</time>
      </trkpt>
      <trkpt lat="43.02509" lon="3.02094">
        <ele>44.4</ele>
        <time>2020-06-03T11:14:16.000Z</time>
      </trkpt>
      <trkpt lat="43.02508" lon="3.02097">
        <ele>44.4</ele>
        <time>2020-06-03T11:14:17.000Z</time>
      </trkpt>
      <trkpt lat="43.02506" lon="3.02105">
        <ele>44.8</ele>
        <time>2020-06-03T11:14:20.000Z</time>
      </trkpt>
      <trkpt lat="43.02506" lon="3.02108">
        <ele>45.2</ele>
        <time>2020-06-03T11:14:21.000Z</time>
      </trkpt>
      <trkpt lat="43.02507" lon="3.02112">
        <ele>45.6</ele>
        <time>2020-06-03T11:14:22.000Z</time>
      </trkpt>
      <trkpt lat="43.02508" lon="3.02114">
        <ele>46</ele>
        <time>2020-06-03T11:14:23.000Z</time>
      </trkpt>
      <trkpt lat="43.02508" lon="3.02117">
        <ele>46.4</ele>
        <time>2020-06-03T11:14:24.000Z</time>
      </trkpt>
      <trkpt lat="43.02508" lon="3.02119">
        <ele>46.4</ele>
        <time>2020-06-03T11:14:25.000Z</time>
      </trkpt>
      <trkpt lat="43.02502" lon="3.02128">
        <ele>46.4</ele>
        <time>2020-06-03T11:14:29.000Z</time>
      </trkpt>
      <trkpt lat="43.02501" lon="3.02133">
        <ele>46.4</ele>
        <time>2020-06-03T11:14:31.000Z</time>
      </trkpt>
      <trkpt lat="43.02501" lon="3.02141">
        <ele>46.4</ele>
        <time>2020-06-03T11:14:33.000Z</time>
      </trkpt>
      <trkpt lat="43.02502" lon="3.02144">
        <ele>46.8</ele>
        <time>2020-06-03T11:14:34.000Z</time>
      </trkpt>
      <trkpt lat="43.02503" lon="3.02148">
        <ele>47.2</ele>
        <time>2020-06-03T11:14:35.000Z</time>
      </trkpt>
      <trkpt lat="43.02503" lon="3.02152">
        <ele>47.8</ele>
        <time>2020-06-03T11:14:36.000Z</time>
      </trkpt>
      <trkpt lat="43.02503" lon="3.02155">
        <ele>48.2</ele>
        <time>2020-06-03T11:14:37.000Z</time>
      </trkpt>
      <trkpt lat="43.02504" lon="3.02158">
        <ele>48.6</ele>
        <time>2020-06-03T11:14:38.000Z</time>
      </trkpt>
      <trkpt lat="43.02504" lon="3.02161">
        <ele>48.6</ele>
        <time>2020-06-03T11:14:39.000Z</time>
      </trkpt>
      <trkpt lat="43.02505" lon="3.02166">
        <ele>49</ele>
        <time>2020-06-03T11:14:41.000Z</time>
      </trkpt>
      <trkpt lat="43.02506" lon="3.02169">
        <ele>49.8</ele>
        <time>2020-06-03T11:14:42.000Z</time>
      </trkpt>
      <trkpt lat="43.02507" lon="3.02171">
        <ele>50.2</ele>
        <time>2020-06-03T11:14:43.000Z</time>
      </trkpt>
      <trkpt lat="43.02508" lon="3.02174">
        <ele>50.8</ele>
        <time>2020-06-03T11:14:44.000Z</time>
      </trkpt>
      <trkpt lat="43.02507" lon="3.02186">
        <ele>51.2</ele>
        <time>2020-06-03T11:14:48.000Z</time>
      </trkpt>
      <trkpt lat="43.02506" lon="3.0219">
        <ele>51.6</ele>
        <time>2020-06-03T11:14:49.000Z</time>
      </trkpt>
      <trkpt lat="43.02505" lon="3.02192">
        <ele>52</ele>
        <time>2020-06-03T11:14:50.000Z</time>
      </trkpt>
      <trkpt lat="43.02504" lon="3.02194">
        <ele>52.4</ele>
        <time>2020-06-03T11:14:51.000Z</time>
      </trkpt>
      <trkpt lat="43.02502" lon="3.02196">
        <ele>52.8</ele>
        <time>2020-06-03T11:14:52.000Z</time>
      </trkpt>
      <trkpt lat="43.025" lon="3.02197">
        <ele>52.8</ele>
        <time>2020-06-03T11:14:53.000Z</time>
      </trkpt>
      <trkpt lat="43.02495" lon="3.02202">
        <ele>53.2</ele>
        <time>2020-06-03T11:14:56.000Z</time>
      </trkpt>
      <trkpt lat="43.02494" lon="3.02204">
        <ele>53.6</ele>
        <time>2020-06-03T11:14:57.000Z</time>
      </trkpt>
      <trkpt lat="43.02492" lon="3.02206">
        <ele>54</ele>
        <time>2020-06-03T11:14:58.000Z</time>
      </trkpt>
      <trkpt lat="43.02491" lon="3.02208">
        <ele>54.4</ele>
        <time>2020-06-03T11:14:59.000Z</time>
      </trkpt>
      <trkpt lat="43.0249" lon="3.0221">
        <ele>55</ele>
        <time>2020-06-03T11:15:00.000Z</time>
      </trkpt>
      <trkpt lat="43.02484" lon="3.02217">
        <ele>55</ele>
        <time>2020-06-03T11:15:04.000Z</time>
      </trkpt>
      <trkpt lat="43.02482" lon="3.02217">
        <ele>55</ele>
        <time>2020-06-03T11:15:05.000Z</time>
      </trkpt>
      <trkpt lat="43.0248" lon="3.02218">
        <ele>55.8</ele>
        <time>2020-06-03T11:15:06.000Z</time>
      </trkpt>
      <trkpt lat="43.02478" lon="3.02219">
        <ele>56.2</ele>
        <time>2020-06-03T11:15:07.000Z</time>
      </trkpt>
      <trkpt lat="43.02476" lon="3.0222">
        <ele>56.6</ele>
        <time>2020-06-03T11:15:08.000Z</time>
      </trkpt>
      <trkpt lat="43.02474" lon="3.02221">
        <ele>57</ele>
        <time>2020-06-03T11:15:09.000Z</time>
      </trkpt>
      <trkpt lat="43.02466" lon="3.02226">
        <ele>57</ele>
        <time>2020-06-03T11:15:13.000Z</time>
      </trkpt>
      <trkpt lat="43.02464" lon="3.02228">
        <ele>57</ele>
        <time>2020-06-03T11:15:14.000Z</time>
      </trkpt>
      <trkpt lat="43.02461" lon="3.02231">
        <ele>57.4</ele>
        <time>2020-06-03T11:15:16.000Z</time>
      </trkpt>
      <trkpt lat="43.02459" lon="3.02234">
        <ele>57.8</ele>
        <time>2020-06-03T11:15:17.000Z</time>
      </trkpt>
      <trkpt lat="43.02458" lon="3.02236">
        <ele>58.2</ele>
        <time>2020-06-03T11:15:18.000Z</time>
      </trkpt>
      <trkpt lat="43.02457" lon="3.02239">
        <ele>58.6</ele>
        <time>2020-06-03T11:15:19.000Z</time>
      </trkpt>
      <trkpt lat="43.02456" lon="3.02242">
        <ele>59</ele>
        <time>2020-06-03T11:15:20.000Z</time>
      </trkpt>
      <trkpt lat="43.0245" lon="3.02258">
        <ele>59.4</ele>
        <time>2020-06-03T11:15:26.000Z</time>
      </trkpt>
      <trkpt lat="43.02449" lon="3.02261">
        <ele>60</ele>
        <time>2020-06-03T11:15:27.000Z</time>
      </trkpt>
      <trkpt lat="43.02448" lon="3.02264">
        <ele>60.4</ele>
        <time>2020-06-03T11:15:28.000Z</time>
      </trkpt>
      <trkpt lat="43.02447" lon="3.02267">
        <ele>60.8</ele>
        <time>2020-06-03T11:15:29.000Z</time>
      </trkpt>
      <trkpt lat="43.02446" lon="3.02271">
        <ele>61.2</ele>
        <time>2020-06-03T11:15:30.000Z</time>
      </trkpt>
      <trkpt lat="43.02442" lon="3.02278">
        <ele>61.2</ele>
        <time>2020-06-03T11:15:33.000Z</time>
      </trkpt>
      <trkpt lat="43.02432" lon="3.02292">
        <ele>61.2</ele>
        <time>2020-06-03T11:15:39.000Z</time>
      </trkpt>
      <trkpt lat="43.02426" lon="3.02298">
        <ele>61.6</ele>
        <time>2020-06-03T11:15:42.000Z</time>
      </trkpt>
      <trkpt lat="43.02425" lon="3.023">
        <ele>62</ele>
        <time>2020-06-03T11:15:43.000Z</time>
      </trkpt>
      <trkpt lat="43.02424" lon="3.02302">
        <ele>62.6</ele>
        <time>2020-06-03T11:15:44.000Z</time>
      </trkpt>
      <trkpt lat="43.02422" lon="3.02304">
        <ele>63</ele>
        <time>2020-06-03T11:15:45.000Z</time>
      </trkpt>
      <trkpt lat="43.0242" lon="3.02306">
        <ele>63.4</ele>
        <time>2020-06-03T11:15:46.000Z</time>
      </trkpt>
      <trkpt lat="43.0241" lon="3.02321">
        <ele>63.4</ele>
        <time>2020-06-03T11:15:52.000Z</time>
      </trkpt>
      <trkpt lat="43.02396" lon="3.02336">
        <ele>63.4</ele>
        <time>2020-06-03T11:15:58.000Z</time>
      </trkpt>
      <trkpt lat="43.02393" lon="3.02338">
        <ele>63.8</ele>
        <time>2020-06-03T11:15:59.000Z</time>
      </trkpt>
      <trkpt lat="43.02391" lon="3.0234">
        <ele>64.2</ele>
        <time>2020-06-03T11:16:00.000Z</time>
      </trkpt>
      <trkpt lat="43.02388" lon="3.02342">
        <ele>64.6</ele>
        <time>2020-06-03T11:16:01.000Z</time>
      </trkpt>
      <trkpt lat="43.02385" lon="3.02343">
        <ele>65</ele>
        <time>2020-06-03T11:16:02.000Z</time>
      </trkpt>
      <trkpt lat="43.02382" lon="3.02344">
        <ele>65.4</ele>
        <time>2020-06-03T11:16:03.000Z</time>
      </trkpt>
      <trkpt lat="43.02366" lon="3.0235">
        <ele>65.8</ele>
        <time>2020-06-03T11:16:09.000Z</time>
      </trkpt>
      <trkpt lat="43.02363" lon="3.02352">
        <ele>66.2</ele>
        <time>2020-06-03T11:16:10.000Z</time>
      </trkpt>
      <trkpt lat="43.02361" lon="3.02354">
        <ele>66.6</ele>
        <time>2020-06-03T11:16:11.000Z</time>
      </trkpt>
      <trkpt lat="43.02358" lon="3.02356">
        <ele>67.2</ele>
        <time>2020-06-03T11:16:12.000Z</time>
      </trkpt>
      <trkpt lat="43.02355" lon="3.02357">
        <ele>67.6</ele>
        <time>2020-06-03T11:16:13.000Z</time>
      </trkpt>
      <trkpt lat="43.02348" lon="3.02361">
        <ele>67.6</ele>
        <time>2020-06-03T11:16:15.000Z</time>
      </trkpt>
      <trkpt lat="43.02327" lon="3.02366">
        <ele>67.6</ele>
        <time>2020-06-03T11:16:22.000Z</time>
      </trkpt>
      <trkpt lat="43.02315" lon="3.0236">
        <ele>67.6</ele>
        <time>2020-06-03T11:16:26.000Z</time>
      </trkpt>
      <trkpt lat="43.02313" lon="3.02356">
        <ele>67.6</ele>
        <time>2020-06-03T11:16:27.000Z</time>
      </trkpt>
      <trkpt lat="43.02314" lon="3.02341">
        <ele>67.6</ele>
        <time>2020-06-03T11:16:30.000Z</time>
      </trkpt>
      <trkpt lat="43.02315" lon="3.02336">
        <ele>67.6</ele>
        <time>2020-06-03T11:16:31.000Z</time>
      </trkpt>
      <trkpt lat="43.0232" lon="3.02311">
        <ele>67.6</ele>
        <time>2020-06-03T11:16:36.000Z</time>
      </trkpt>
      <trkpt lat="43.02318" lon="3.02301">
        <ele>67.6</ele>
        <time>2020-06-03T11:16:38.000Z</time>
      </trkpt>
      <trkpt lat="43.02312" lon="3.02283">
        <ele>67.6</ele>
        <time>2020-06-03T11:16:41.000Z</time>
      </trkpt>
      <trkpt lat="43.02305" lon="3.02259">
        <ele>67.6</ele>
        <time>2020-06-03T11:16:45.000Z</time>
      </trkpt>
      <trkpt lat="43.02303" lon="3.02248">
        <ele>67.6</ele>
        <time>2020-06-03T11:16:47.000Z</time>
      </trkpt>
      <trkpt lat="43.02299" lon="3.02233">
        <ele>67.6</ele>
        <time>2020-06-03T11:16:50.000Z</time>
      </trkpt>
      <trkpt lat="43.02292" lon="3.02218">
        <ele>67.6</ele>
        <time>2020-06-03T11:16:53.000Z</time>
      </trkpt>
      <trkpt lat="43.02279" lon="3.022">
        <ele>68</ele>
        <time>2020-06-03T11:16:58.000Z</time>
      </trkpt>
      <trkpt lat="43.02275" lon="3.02198">
        <ele>68.4</ele>
        <time>2020-06-03T11:16:59.000Z</time>
      </trkpt>
      <trkpt lat="43.02272" lon="3.02196">
        <ele>68.8</ele>
        <time>2020-06-03T11:17:00.000Z</time>
      </trkpt>
      <trkpt lat="43.02268" lon="3.02196">
        <ele>69.2</ele>
        <time>2020-06-03T11:17:01.000Z</time>
      </trkpt>
      <trkpt lat="43.02265" lon="3.02195">
        <ele>69.6</ele>
        <time>2020-06-03T11:17:02.000Z</time>
      </trkpt>
      <trkpt lat="43.02261" lon="3.02195">
        <ele>69.6</ele>
        <time>2020-06-03T11:17:03.000Z</time>
      </trkpt>
      <trkpt lat="43.02247" lon="3.0219">
        <ele>69.6</ele>
        <time>2020-06-03T11:17:08.000Z</time>
      </trkpt>
      <trkpt lat="43.02245" lon="3.02189">
        <ele>70</ele>
        <time>2020-06-03T11:17:09.000Z</time>
      </trkpt>
      <trkpt lat="43.02242" lon="3.02188">
        <ele>71</ele>
        <time>2020-06-03T11:17:10.000Z</time>
      </trkpt>
      <trkpt lat="43.02239" lon="3.02186">
        <ele>71.6</ele>
        <time>2020-06-03T11:17:11.000Z</time>
      </trkpt>
      <trkpt lat="43.02236" lon="3.02184">
        <ele>72</ele>
        <time>2020-06-03T11:17:12.000Z</time>
      </trkpt>
      <trkpt lat="43.02233" lon="3.02183">
        <ele>72</ele>
        <time>2020-06-03T11:17:13.000Z</time>
      </trkpt>
      <trkpt lat="43.02228" lon="3.02181">
        <ele>72</ele>
        <time>2020-06-03T11:17:15.000Z</time>
      </trkpt>
      <trkpt lat="43.02222" lon="3.02178">
        <ele>72</ele>
        <time>2020-06-03T11:17:17.000Z</time>
      </trkpt>
      <trkpt lat="43.02213" lon="3.02176">
        <ele>72</ele>
        <time>2020-06-03T11:17:20.000Z</time>
      </trkpt>
      <trkpt lat="43.02211" lon="3.02174">
        <ele>72.4</ele>
        <time>2020-06-03T11:17:21.000Z</time>
      </trkpt>
      <trkpt lat="43.02209" lon="3.02171">
        <ele>73</ele>
        <time>2020-06-03T11:17:22.000Z</time>
      </trkpt>
      <trkpt lat="43.02208" lon="3.02167">
        <ele>73.4</ele>
        <time>2020-06-03T11:17:23.000Z</time>
      </trkpt>
      <trkpt lat="43.02207" lon="3.02162">
        <ele>73.8</ele>
        <time>2020-06-03T11:17:24.000Z</time>
      </trkpt>
      <trkpt lat="43.02206" lon="3.02158">
        <ele>74.2</ele>
        <time>2020-06-03T11:17:25.000Z</time>
      </trkpt>
      <trkpt lat="43.02199" lon="3.02143">
        <ele>74.2</ele>
        <time>2020-06-03T11:17:29.000Z</time>
      </trkpt>
      <trkpt lat="43.02196" lon="3.0214">
        <ele>74.2</ele>
        <time>2020-06-03T11:17:30.000Z</time>
      </trkpt>
      <trkpt lat="43.02188" lon="3.02131">
        <ele>74.2</ele>
        <time>2020-06-03T11:17:33.000Z</time>
      </trkpt>
      <trkpt lat="43.02176" lon="3.02116">
        <ele>74.2</ele>
        <time>2020-06-03T11:17:38.000Z</time>
      </trkpt>
      <trkpt lat="43.02169" lon="3.02109">
        <ele>74.2</ele>
        <time>2020-06-03T11:17:41.000Z</time>
      </trkpt>
      <trkpt lat="43.02157" lon="3.021">
        <ele>74.6</ele>
        <time>2020-06-03T11:17:45.000Z</time>
      </trkpt>
      <trkpt lat="43.02155" lon="3.02097">
        <ele>75.2</ele>
        <time>2020-06-03T11:17:46.000Z</time>
      </trkpt>
      <trkpt lat="43.02151" lon="3.02094">
        <ele>75.6</ele>
        <time>2020-06-03T11:17:47.000Z</time>
      </trkpt>
      <trkpt lat="43.02148" lon="3.02092">
        <ele>76</ele>
        <time>2020-06-03T11:17:48.000Z</time>
      </trkpt>
      <trkpt lat="43.02146" lon="3.0209">
        <ele>76.4</ele>
        <time>2020-06-03T11:17:49.000Z</time>
      </trkpt>
      <trkpt lat="43.02139" lon="3.02082">
        <ele>76.4</ele>
        <time>2020-06-03T11:17:52.000Z</time>
      </trkpt>
      <trkpt lat="43.02133" lon="3.0208">
        <ele>76.8</ele>
        <time>2020-06-03T11:17:54.000Z</time>
      </trkpt>
      <trkpt lat="43.0213" lon="3.02078">
        <ele>77.4</ele>
        <time>2020-06-03T11:17:55.000Z</time>
      </trkpt>
      <trkpt lat="43.02128" lon="3.02075">
        <ele>77.8</ele>
        <time>2020-06-03T11:17:56.000Z</time>
      </trkpt>
      <trkpt lat="43.02126" lon="3.02072">
        <ele>78.2</ele>
        <time>2020-06-03T11:17:57.000Z</time>
      </trkpt>
      <trkpt lat="43.02125" lon="3.02068">
        <ele>78.6</ele>
        <time>2020-06-03T11:17:58.000Z</time>
      </trkpt>
      <trkpt lat="43.02123" lon="3.0206">
        <ele>78.6</ele>
        <time>2020-06-03T11:18:00.000Z</time>
      </trkpt>
      <trkpt lat="43.02121" lon="3.02058">
        <ele>78.6</ele>
        <time>2020-06-03T11:18:01.000Z</time>
      </trkpt>
      <trkpt lat="43.02115" lon="3.02049">
        <ele>78.6</ele>
        <time>2020-06-03T11:18:04.000Z</time>
      </trkpt>
      <trkpt lat="43.02114" lon="3.02046">
        <ele>79</ele>
        <time>2020-06-03T11:18:05.000Z</time>
      </trkpt>
      <trkpt lat="43.02112" lon="3.02043">
        <ele>79.4</ele>
        <time>2020-06-03T11:18:06.000Z</time>
      </trkpt>
      <trkpt lat="43.0211" lon="3.02039">
        <ele>79.8</ele>
        <time>2020-06-03T11:18:07.000Z</time>
      </trkpt>
      <trkpt lat="43.02109" lon="3.02036">
        <ele>80.4</ele>
        <time>2020-06-03T11:18:08.000Z</time>
      </trkpt>
      <trkpt lat="43.02108" lon="3.02032">
        <ele>80.8</ele>
        <time>2020-06-03T11:18:09.000Z</time>
      </trkpt>
      <trkpt lat="43.021" lon="3.02014">
        <ele>80.8</ele>
        <time>2020-06-03T11:18:14.000Z</time>
      </trkpt>
      <trkpt lat="43.02092" lon="3.01991">
        <ele>80.8</ele>
        <time>2020-06-03T11:18:20.000Z</time>
      </trkpt>
      <trkpt lat="43.0209" lon="3.01989">
        <ele>81.2</ele>
        <time>2020-06-03T11:18:21.000Z</time>
      </trkpt>
      <trkpt lat="43.02088" lon="3.01987">
        <ele>81.6</ele>
        <time>2020-06-03T11:18:22.000Z</time>
      </trkpt>
      <trkpt lat="43.02085" lon="3.01984">
        <ele>82.6</ele>
        <time>2020-06-03T11:18:23.000Z</time>
      </trkpt>
      <trkpt lat="43.02083" lon="3.01981">
        <ele>83</ele>
        <time>2020-06-03T11:18:24.000Z</time>
      </trkpt>
      <trkpt lat="43.02082" lon="3.01979">
        <ele>83</ele>
        <time>2020-06-03T11:18:25.000Z</time>
      </trkpt>
      <trkpt lat="43.02076" lon="3.01973">
        <ele>83.4</ele>
        <time>2020-06-03T11:18:28.000Z</time>
      </trkpt>
      <trkpt lat="43.02074" lon="3.01971">
        <ele>83.8</ele>
        <time>2020-06-03T11:18:29.000Z</time>
      </trkpt>
      <trkpt lat="43.02073" lon="3.01968">
        <ele>84.2</ele>
        <time>2020-06-03T11:18:30.000Z</time>
      </trkpt>
      <trkpt lat="43.02071" lon="3.01966">
        <ele>84.8</ele>
        <time>2020-06-03T11:18:31.000Z</time>
      </trkpt>
      <trkpt lat="43.0207" lon="3.01963">
        <ele>85.2</ele>
        <time>2020-06-03T11:18:32.000Z</time>
      </trkpt>
      <trkpt lat="43.02067" lon="3.01951">
        <ele>85.2</ele>
        <time>2020-06-03T11:18:35.000Z</time>
      </trkpt>
      <trkpt lat="43.02064" lon="3.01925">
        <ele>85.2</ele>
        <time>2020-06-03T11:18:41.000Z</time>
      </trkpt>
      <trkpt lat="43.02061" lon="3.01909">
        <ele>85.2</ele>
        <time>2020-06-03T11:18:44.000Z</time>
      </trkpt>
      <trkpt lat="43.02057" lon="3.019">
        <ele>85.2</ele>
        <time>2020-06-03T11:18:46.000Z</time>
      </trkpt>
      <trkpt lat="43.02054" lon="3.01882">
        <ele>85.2</ele>
        <time>2020-06-03T11:18:50.000Z</time>
      </trkpt>
      <trkpt lat="43.02054" lon="3.01861">
        <ele>85.2</ele>
        <time>2020-06-03T11:18:55.000Z</time>
      </trkpt>
      <trkpt lat="43.02051" lon="3.01841">
        <ele>85.2</ele>
        <time>2020-06-03T11:19:00.000Z</time>
      </trkpt>
      <trkpt lat="43.0205" lon="3.01832">
        <ele>85.2</ele>
        <time>2020-06-03T11:19:02.000Z</time>
      </trkpt>
      <trkpt lat="43.02049" lon="3.01822">
        <ele>85.2</ele>
        <time>2020-06-03T11:19:04.000Z</time>
      </trkpt>
      <trkpt lat="43.02046" lon="3.01804">
        <ele>85.2</ele>
        <time>2020-06-03T11:19:08.000Z</time>
      </trkpt>
      <trkpt lat="43.02046" lon="3.01792">
        <ele>85.2</ele>
        <time>2020-06-03T11:19:11.000Z</time>
      </trkpt>
      <trkpt lat="43.02048" lon="3.01787">
        <ele>85.2</ele>
        <time>2020-06-03T11:19:12.000Z</time>
      </trkpt>
      <trkpt lat="43.02053" lon="3.0177">
        <ele>85.2</ele>
        <time>2020-06-03T11:19:16.000Z</time>
      </trkpt>
      <trkpt lat="43.02056" lon="3.01747">
        <ele>85.2</ele>
        <time>2020-06-03T11:19:21.000Z</time>
      </trkpt>
      <trkpt lat="43.02055" lon="3.01739">
        <ele>85.2</ele>
        <time>2020-06-03T11:19:23.000Z</time>
      </trkpt>
      <trkpt lat="43.02057" lon="3.0173">
        <ele>85.2</ele>
        <time>2020-06-03T11:19:25.000Z</time>
      </trkpt>
      <trkpt lat="43.02056" lon="3.01708">
        <ele>85.2</ele>
        <time>2020-06-03T11:19:29.000Z</time>
      </trkpt>
      <trkpt lat="43.02055" lon="3.01697">
        <ele>85.2</ele>
        <time>2020-06-03T11:19:31.000Z</time>
      </trkpt>
      <trkpt lat="43.02052" lon="3.01689">
        <ele>85.2</ele>
        <time>2020-06-03T11:19:33.000Z</time>
      </trkpt>
      <trkpt lat="43.02044" lon="3.0168">
        <ele>85.2</ele>
        <time>2020-06-03T11:19:37.000Z</time>
      </trkpt>
      <trkpt lat="43.02046" lon="3.01662">
        <ele>85.2</ele>
        <time>2020-06-03T11:19:41.000Z</time>
      </trkpt>
      <trkpt lat="43.02043" lon="3.01651">
        <ele>85.2</ele>
        <time>2020-06-03T11:19:44.000Z</time>
      </trkpt>
      <trkpt lat="43.02043" lon="3.01643">
        <ele>85.2</ele>
        <time>2020-06-03T11:19:46.000Z</time>
      </trkpt>
      <trkpt lat="43.02043" lon="3.01637">
        <ele>85.2</ele>
        <time>2020-06-03T11:19:48.000Z</time>
      </trkpt>
      <trkpt lat="43.02044" lon="3.01635">
        <ele>85.2</ele>
        <time>2020-06-03T11:19:50.000Z</time>
      </trkpt>
      <trkpt lat="43.02047" lon="3.01635">
        <ele>85.2</ele>
        <time>2020-06-03T11:19:56.000Z</time>
      </trkpt>
      <trkpt lat="43.02048" lon="3.01635">
        <ele>85.2</ele>
        <time>2020-06-03T11:19:57.000Z</time>
      </trkpt>
      <trkpt lat="43.02056" lon="3.0163">
        <ele>85.2</ele>
        <time>2020-06-03T11:20:01.000Z</time>
      </trkpt>
      <trkpt lat="43.02068" lon="3.01626">
        <ele>85.2</ele>
        <time>2020-06-03T11:20:05.000Z</time>
      </trkpt>
      <trkpt lat="43.02082" lon="3.01625">
        <ele>85.2</ele>
        <time>2020-06-03T11:20:10.000Z</time>
      </trkpt>
      <trkpt lat="43.02087" lon="3.01627">
        <ele>84.8</ele>
        <time>2020-06-03T11:20:13.000Z</time>
      </trkpt>
      <trkpt lat="43.02089" lon="3.01625">
        <ele>84.2</ele>
        <time>2020-06-03T11:20:14.000Z</time>
      </trkpt>
      <trkpt lat="43.02092" lon="3.01624">
        <ele>83.8</ele>
        <time>2020-06-03T11:20:15.000Z</time>
      </trkpt>
      <trkpt lat="43.02095" lon="3.01624">
        <ele>83.4</ele>
        <time>2020-06-03T11:20:16.000Z</time>
      </trkpt>
      <trkpt lat="43.02099" lon="3.01623">
        <ele>83</ele>
        <time>2020-06-03T11:20:17.000Z</time>
      </trkpt>
      <trkpt lat="43.02102" lon="3.01624">
        <ele>83</ele>
        <time>2020-06-03T11:20:18.000Z</time>
      </trkpt>
      <trkpt lat="43.02109" lon="3.01617">
        <ele>83</ele>
        <time>2020-06-03T11:20:22.000Z</time>
      </trkpt>
      <trkpt lat="43.02122" lon="3.01608">
        <ele>83</ele>
        <time>2020-06-03T11:20:27.000Z</time>
      </trkpt>
      <trkpt lat="43.0213" lon="3.01603">
        <ele>83</ele>
        <time>2020-06-03T11:20:30.000Z</time>
      </trkpt>
      <trkpt lat="43.02132" lon="3.01601">
        <ele>83</ele>
        <time>2020-06-03T11:20:31.000Z</time>
      </trkpt>
      <trkpt lat="43.02136" lon="3.01598">
        <ele>82.6</ele>
        <time>2020-06-03T11:20:33.000Z</time>
      </trkpt>
      <trkpt lat="43.02139" lon="3.01597">
        <ele>82.2</ele>
        <time>2020-06-03T11:20:34.000Z</time>
      </trkpt>
      <trkpt lat="43.02142" lon="3.01595">
        <ele>81.8</ele>
        <time>2020-06-03T11:20:35.000Z</time>
      </trkpt>
      <trkpt lat="43.02146" lon="3.01595">
        <ele>81.2</ele>
        <time>2020-06-03T11:20:36.000Z</time>
      </trkpt>
      <trkpt lat="43.0215" lon="3.01593">
        <ele>80.8</ele>
        <time>2020-06-03T11:20:37.000Z</time>
      </trkpt>
      <trkpt lat="43.02155" lon="3.01587">
        <ele>80.8</ele>
        <time>2020-06-03T11:20:39.000Z</time>
      </trkpt>
      <trkpt lat="43.02162" lon="3.01574">
        <ele>80.8</ele>
        <time>2020-06-03T11:20:43.000Z</time>
      </trkpt>
      <trkpt lat="43.02169" lon="3.01559">
        <ele>80.8</ele>
        <time>2020-06-03T11:20:48.000Z</time>
      </trkpt>
      <trkpt lat="43.02172" lon="3.01553">
        <ele>80.8</ele>
        <time>2020-06-03T11:20:50.000Z</time>
      </trkpt>
      <trkpt lat="43.02174" lon="3.01546">
        <ele>80.8</ele>
        <time>2020-06-03T11:20:52.000Z</time>
      </trkpt>
      <trkpt lat="43.02175" lon="3.01538">
        <ele>80.8</ele>
        <time>2020-06-03T11:20:56.000Z</time>
      </trkpt>
      <trkpt lat="43.02176" lon="3.01535">
        <ele>80.8</ele>
        <time>2020-06-03T11:20:57.000Z</time>
      </trkpt>
      <trkpt lat="43.02178" lon="3.0153">
        <ele>80.8</ele>
        <time>2020-06-03T11:20:59.000Z</time>
      </trkpt>
      <trkpt lat="43.02181" lon="3.01527">
        <ele>80.8</ele>
        <time>2020-06-03T11:21:01.000Z</time>
      </trkpt>
      <trkpt lat="43.02184" lon="3.01522">
        <ele>80.8</ele>
        <time>2020-06-03T11:21:05.000Z</time>
      </trkpt>
      <trkpt lat="43.02185" lon="3.01519">
        <ele>80.8</ele>
        <time>2020-06-03T11:21:07.000Z</time>
      </trkpt>
      <trkpt lat="43.02185" lon="3.01516">
        <ele>80.4</ele>
        <time>2020-06-03T11:21:09.000Z</time>
      </trkpt>
      <trkpt lat="43.02184" lon="3.01514">
        <ele>80</ele>
        <time>2020-06-03T11:21:10.000Z</time>
      </trkpt>
      <trkpt lat="43.02184" lon="3.01512">
        <ele>79.6</ele>
        <time>2020-06-03T11:21:11.000Z</time>
      </trkpt>
      <trkpt lat="43.02184" lon="3.0151">
        <ele>79.2</ele>
        <time>2020-06-03T11:21:12.000Z</time>
      </trkpt>
      <trkpt lat="43.02184" lon="3.0151">
        <ele>78.8</ele>
        <time>2020-06-03T11:21:13.000Z</time>
      </trkpt>
      <trkpt lat="43.02183" lon="3.01507">
        <ele>78</ele>
        <time>2020-06-03T11:21:15.000Z</time>
      </trkpt>
      <trkpt lat="43.02182" lon="3.01504">
        <ele>77.2</ele>
        <time>2020-06-03T11:21:16.000Z</time>
      </trkpt>
      <trkpt lat="43.02181" lon="3.01502">
        <ele>76.8</ele>
        <time>2020-06-03T11:21:17.000Z</time>
      </trkpt>
      <trkpt lat="43.02179" lon="3.01501">
        <ele>76.8</ele>
        <time>2020-06-03T11:21:18.000Z</time>
      </trkpt>
      <trkpt lat="43.02178" lon="3.01499">
        <ele>76.4</ele>
        <time>2020-06-03T11:21:19.000Z</time>
      </trkpt>
      <trkpt lat="43.02176" lon="3.01498">
        <ele>76</ele>
        <time>2020-06-03T11:21:20.000Z</time>
      </trkpt>
      <trkpt lat="43.02174" lon="3.01498">
        <ele>75.6</ele>
        <time>2020-06-03T11:21:21.000Z</time>
      </trkpt>
      <trkpt lat="43.02171" lon="3.01497">
        <ele>75.2</ele>
        <time>2020-06-03T11:21:22.000Z</time>
      </trkpt>
      <trkpt lat="43.0217" lon="3.01495">
        <ele>74.8</ele>
        <time>2020-06-03T11:21:23.000Z</time>
      </trkpt>
      <trkpt lat="43.02169" lon="3.01494">
        <ele>74.4</ele>
        <time>2020-06-03T11:21:24.000Z</time>
      </trkpt>
      <trkpt lat="43.02169" lon="3.01494">
        <ele>74</ele>
        <time>2020-06-03T11:21:25.000Z</time>
      </trkpt>
      <trkpt lat="43.02173" lon="3.0149">
        <ele>72</ele>
        <time>2020-06-03T11:21:30.000Z</time>
      </trkpt>
      <trkpt lat="43.02173" lon="3.01489">
        <ele>71.6</ele>
        <time>2020-06-03T11:21:31.000Z</time>
      </trkpt>
      <trkpt lat="43.02174" lon="3.01488">
        <ele>71.2</ele>
        <time>2020-06-03T11:21:32.000Z</time>
      </trkpt>
      <trkpt lat="43.02175" lon="3.01488">
        <ele>70.6</ele>
        <time>2020-06-03T11:21:33.000Z</time>
      </trkpt>
      <trkpt lat="43.02176" lon="3.01487">
        <ele>70.2</ele>
        <time>2020-06-03T11:21:34.000Z</time>
      </trkpt>
      <trkpt lat="43.02177" lon="3.01486">
        <ele>69.8</ele>
        <time>2020-06-03T11:21:35.000Z</time>
      </trkpt>
      <trkpt lat="43.02178" lon="3.01484">
        <ele>69.4</ele>
        <time>2020-06-03T11:21:36.000Z</time>
      </trkpt>
      <trkpt lat="43.0218" lon="3.01483">
        <ele>69</ele>
        <time>2020-06-03T11:21:37.000Z</time>
      </trkpt>
      <trkpt lat="43.02181" lon="3.01482">
        <ele>68.6</ele>
        <time>2020-06-03T11:21:38.000Z</time>
      </trkpt>
      <trkpt lat="43.02181" lon="3.01481">
        <ele>68</ele>
        <time>2020-06-03T11:21:39.000Z</time>
      </trkpt>
      <trkpt lat="43.02182" lon="3.01479">
        <ele>67.4</ele>
        <time>2020-06-03T11:21:40.000Z</time>
      </trkpt>
      <trkpt lat="43.02183" lon="3.01478">
        <ele>66.4</ele>
        <time>2020-06-03T11:21:41.000Z</time>
      </trkpt>
      <trkpt lat="43.02184" lon="3.01477">
        <ele>66</ele>
        <time>2020-06-03T11:21:42.000Z</time>
      </trkpt>
      <trkpt lat="43.02186" lon="3.01474">
        <ele>65.4</ele>
        <time>2020-06-03T11:21:44.000Z</time>
      </trkpt>
      <trkpt lat="43.02187" lon="3.01473">
        <ele>65</ele>
        <time>2020-06-03T11:21:45.000Z</time>
      </trkpt>
      <trkpt lat="43.02188" lon="3.01472">
        <ele>64.6</ele>
        <time>2020-06-03T11:21:46.000Z</time>
      </trkpt>
      <trkpt lat="43.02189" lon="3.01471">
        <ele>64</ele>
        <time>2020-06-03T11:21:47.000Z</time>
      </trkpt>
      <trkpt lat="43.0219" lon="3.0147">
        <ele>63.6</ele>
        <time>2020-06-03T11:21:48.000Z</time>
      </trkpt>
      <trkpt lat="43.02192" lon="3.01469">
        <ele>63</ele>
        <time>2020-06-03T11:21:49.000Z</time>
      </trkpt>
      <trkpt lat="43.02194" lon="3.01468">
        <ele>62.6</ele>
        <time>2020-06-03T11:21:50.000Z</time>
      </trkpt>
      <trkpt lat="43.02197" lon="3.01466">
        <ele>61.8</ele>
        <time>2020-06-03T11:21:51.000Z</time>
      </trkpt>
      <trkpt lat="43.02199" lon="3.01465">
        <ele>61.2</ele>
        <time>2020-06-03T11:21:52.000Z</time>
      </trkpt>
      <trkpt lat="43.02201" lon="3.01463">
        <ele>60.6</ele>
        <time>2020-06-03T11:21:53.000Z</time>
      </trkpt>
      <trkpt lat="43.02203" lon="3.01461">
        <ele>59.8</ele>
        <time>2020-06-03T11:21:54.000Z</time>
      </trkpt>
      <trkpt lat="43.02204" lon="3.0146">
        <ele>59</ele>
        <time>2020-06-03T11:21:55.000Z</time>
      </trkpt>
      <trkpt lat="43.02206" lon="3.0146">
        <ele>58.2</ele>
        <time>2020-06-03T11:21:56.000Z</time>
      </trkpt>
      <trkpt lat="43.02207" lon="3.0146">
        <ele>57.6</ele>
        <time>2020-06-03T11:21:57.000Z</time>
      </trkpt>
      <trkpt lat="43.02208" lon="3.01462">
        <ele>56.8</ele>
        <time>2020-06-03T11:21:58.000Z</time>
      </trkpt>
      <trkpt lat="43.02211" lon="3.01461">
        <ele>56.2</ele>
        <time>2020-06-03T11:21:59.000Z</time>
      </trkpt>
      <trkpt lat="43.02215" lon="3.0146">
        <ele>55.4</ele>
        <time>2020-06-03T11:22:00.000Z</time>
      </trkpt>
      <trkpt lat="43.02219" lon="3.01458">
        <ele>54.6</ele>
        <time>2020-06-03T11:22:01.000Z</time>
      </trkpt>
      <trkpt lat="43.02224" lon="3.01456">
        <ele>53.8</ele>
        <time>2020-06-03T11:22:02.000Z</time>
      </trkpt>
      <trkpt lat="43.02227" lon="3.01454">
        <ele>52.8</ele>
        <time>2020-06-03T11:22:03.000Z</time>
      </trkpt>
      <trkpt lat="43.0223" lon="3.01452">
        <ele>52</ele>
        <time>2020-06-03T11:22:04.000Z</time>
      </trkpt>
      <trkpt lat="43.02233" lon="3.0145">
        <ele>51</ele>
        <time>2020-06-03T11:22:05.000Z</time>
      </trkpt>
      <trkpt lat="43.02234" lon="3.01447">
        <ele>49.4</ele>
        <time>2020-06-03T11:22:06.000Z</time>
      </trkpt>
      <trkpt lat="43.02234" lon="3.01445">
        <ele>48.8</ele>
        <time>2020-06-03T11:22:07.000Z</time>
      </trkpt>
      <trkpt lat="43.02233" lon="3.01444">
        <ele>48.2</ele>
        <time>2020-06-03T11:22:08.000Z</time>
      </trkpt>
      <trkpt lat="43.02232" lon="3.01442">
        <ele>47.6</ele>
        <time>2020-06-03T11:22:09.000Z</time>
      </trkpt>
      <trkpt lat="43.02229" lon="3.01441">
        <ele>46.8</ele>
        <time>2020-06-03T11:22:10.000Z</time>
      </trkpt>
      <trkpt lat="43.02226" lon="3.01438">
        <ele>46.8</ele>
        <time>2020-06-03T11:22:12.000Z</time>
      </trkpt>
      <trkpt lat="43.02222" lon="3.01434">
        <ele>46.8</ele>
        <time>2020-06-03T11:22:14.000Z</time>
      </trkpt>
      <trkpt lat="43.02218" lon="3.01432">
        <ele>47.4</ele>
        <time>2020-06-03T11:22:16.000Z</time>
      </trkpt>
      <trkpt lat="43.02216" lon="3.01431">
        <ele>47.8</ele>
        <time>2020-06-03T11:22:17.000Z</time>
      </trkpt>
      <trkpt lat="43.02213" lon="3.0143">
        <ele>48.2</ele>
        <time>2020-06-03T11:22:18.000Z</time>
      </trkpt>
      <trkpt lat="43.0221" lon="3.01429">
        <ele>48.6</ele>
        <time>2020-06-03T11:22:19.000Z</time>
      </trkpt>
      <trkpt lat="43.02208" lon="3.01426">
        <ele>49.2</ele>
        <time>2020-06-03T11:22:20.000Z</time>
      </trkpt>
      <trkpt lat="43.02202" lon="3.01419">
        <ele>49.2</ele>
        <time>2020-06-03T11:22:22.000Z</time>
      </trkpt>
      <trkpt lat="43.02191" lon="3.0141">
        <ele>49.2</ele>
        <time>2020-06-03T11:22:25.000Z</time>
      </trkpt>
      <trkpt lat="43.02192" lon="3.01404">
        <ele>49.2</ele>
        <time>2020-06-03T11:22:27.000Z</time>
      </trkpt>
      <trkpt lat="43.02201" lon="3.01398">
        <ele>49.2</ele>
        <time>2020-06-03T11:22:30.000Z</time>
      </trkpt>
      <trkpt lat="43.02204" lon="3.01393">
        <ele>49.2</ele>
        <time>2020-06-03T11:22:33.000Z</time>
      </trkpt>
      <trkpt lat="43.02209" lon="3.01387">
        <ele>49.2</ele>
        <time>2020-06-03T11:22:37.000Z</time>
      </trkpt>
      <trkpt lat="43.02211" lon="3.01384">
        <ele>49.2</ele>
        <time>2020-06-03T11:22:38.000Z</time>
      </trkpt>
      <trkpt lat="43.02212" lon="3.01377">
        <ele>49.2</ele>
        <time>2020-06-03T11:22:40.000Z</time>
      </trkpt>
      <trkpt lat="43.02215" lon="3.01368">
        <ele>48.8</ele>
        <time>2020-06-03T11:22:42.000Z</time>
      </trkpt>
      <trkpt lat="43.02217" lon="3.01364">
        <ele>48.4</ele>
        <time>2020-06-03T11:22:43.000Z</time>
      </trkpt>
      <trkpt lat="43.02218" lon="3.0136">
        <ele>48</ele>
        <time>2020-06-03T11:22:44.000Z</time>
      </trkpt>
      <trkpt lat="43.0222" lon="3.01355">
        <ele>47.4</ele>
        <time>2020-06-03T11:22:45.000Z</time>
      </trkpt>
      <trkpt lat="43.02221" lon="3.01351">
        <ele>47</ele>
        <time>2020-06-03T11:22:46.000Z</time>
      </trkpt>
      <trkpt lat="43.02227" lon="3.01339">
        <ele>47</ele>
        <time>2020-06-03T11:22:49.000Z</time>
      </trkpt>
      <trkpt lat="43.02233" lon="3.01314">
        <ele>46.6</ele>
        <time>2020-06-03T11:22:54.000Z</time>
      </trkpt>
      <trkpt lat="43.02233" lon="3.0131">
        <ele>46.2</ele>
        <time>2020-06-03T11:22:55.000Z</time>
      </trkpt>
      <trkpt lat="43.02232" lon="3.01305">
        <ele>45.4</ele>
        <time>2020-06-03T11:22:56.000Z</time>
      </trkpt>
      <trkpt lat="43.02231" lon="3.01301">
        <ele>44.8</ele>
        <time>2020-06-03T11:22:57.000Z</time>
      </trkpt>
      <trkpt lat="43.02226" lon="3.01281">
        <ele>44.8</ele>
        <time>2020-06-03T11:23:01.000Z</time>
      </trkpt>
      <trkpt lat="43.02221" lon="3.01261">
        <ele>44.8</ele>
        <time>2020-06-03T11:23:05.000Z</time>
      </trkpt>
      <trkpt lat="43.0222" lon="3.0125">
        <ele>44.8</ele>
        <time>2020-06-03T11:23:08.000Z</time>
      </trkpt>
      <trkpt lat="43.02223" lon="3.01248">
        <ele>44.8</ele>
        <time>2020-06-03T11:23:09.000Z</time>
      </trkpt>
      <trkpt lat="43.02226" lon="3.01237">
        <ele>44.8</ele>
        <time>2020-06-03T11:23:13.000Z</time>
      </trkpt>
      <trkpt lat="43.02224" lon="3.01227">
        <ele>44.8</ele>
        <time>2020-06-03T11:23:17.000Z</time>
      </trkpt>
      <trkpt lat="43.02222" lon="3.01209">
        <ele>44.8</ele>
        <time>2020-06-03T11:23:22.000Z</time>
      </trkpt>
      <trkpt lat="43.02219" lon="3.01193">
        <ele>44.8</ele>
        <time>2020-06-03T11:23:26.000Z</time>
      </trkpt>
      <trkpt lat="43.02212" lon="3.01169">
        <ele>44.8</ele>
        <time>2020-06-03T11:23:31.000Z</time>
      </trkpt>
      <trkpt lat="43.0221" lon="3.01165">
        <ele>44.8</ele>
        <time>2020-06-03T11:23:32.000Z</time>
      </trkpt>
      <trkpt lat="43.02206" lon="3.01149">
        <ele>44.8</ele>
        <time>2020-06-03T11:23:36.000Z</time>
      </trkpt>
      <trkpt lat="43.02203" lon="3.01129">
        <ele>44.8</ele>
        <time>2020-06-03T11:23:40.000Z</time>
      </trkpt>
      <trkpt lat="43.02198" lon="3.01106">
        <ele>44.8</ele>
        <time>2020-06-03T11:23:45.000Z</time>
      </trkpt>
      <trkpt lat="43.02198" lon="3.01099">
        <ele>44.8</ele>
        <time>2020-06-03T11:23:47.000Z</time>
      </trkpt>
      <trkpt lat="43.02199" lon="3.01093">
        <ele>44.8</ele>
        <time>2020-06-03T11:23:49.000Z</time>
      </trkpt>
      <trkpt lat="43.02198" lon="3.01082">
        <ele>44.8</ele>
        <time>2020-06-03T11:23:53.000Z</time>
      </trkpt>
      <trkpt lat="43.0219" lon="3.01078">
        <ele>44.8</ele>
        <time>2020-06-03T11:23:58.000Z</time>
      </trkpt>
      <trkpt lat="43.02183" lon="3.01083">
        <ele>44.8</ele>
        <time>2020-06-03T11:24:01.000Z</time>
      </trkpt>
      <trkpt lat="43.02177" lon="3.01091">
        <ele>44.8</ele>
        <time>2020-06-03T11:24:04.000Z</time>
      </trkpt>
      <trkpt lat="43.0217" lon="3.01102">
        <ele>44.8</ele>
        <time>2020-06-03T11:24:08.000Z</time>
      </trkpt>
      <trkpt lat="43.0217" lon="3.01104">
        <ele>44.8</ele>
        <time>2020-06-03T11:24:09.000Z</time>
      </trkpt>
      <trkpt lat="43.02168" lon="3.01106">
        <ele>44.8</ele>
        <time>2020-06-03T11:24:11.000Z</time>
      </trkpt>
      <trkpt lat="43.02166" lon="3.01108">
        <ele>44.8</ele>
        <time>2020-06-03T11:24:12.000Z</time>
      </trkpt>
      <trkpt lat="43.02161" lon="3.01114">
        <ele>44.8</ele>
        <time>2020-06-03T11:24:16.000Z</time>
      </trkpt>
      <trkpt lat="43.02161" lon="3.01117">
        <ele>44.8</ele>
        <time>2020-06-03T11:24:17.000Z</time>
      </trkpt>
      <trkpt lat="43.02158" lon="3.01126">
        <ele>45.2</ele>
        <time>2020-06-03T11:24:20.000Z</time>
      </trkpt>
      <trkpt lat="43.02156" lon="3.01126">
        <ele>45.6</ele>
        <time>2020-06-03T11:24:21.000Z</time>
      </trkpt>
      <trkpt lat="43.02154" lon="3.01124">
        <ele>46.2</ele>
        <time>2020-06-03T11:24:22.000Z</time>
      </trkpt>
      <trkpt lat="43.02152" lon="3.01121">
        <ele>46.6</ele>
        <time>2020-06-03T11:24:23.000Z</time>
      </trkpt>
      <trkpt lat="43.02151" lon="3.01118">
        <ele>47</ele>
        <time>2020-06-03T11:24:24.000Z</time>
      </trkpt>
      <trkpt lat="43.0215" lon="3.01115">
        <ele>47</ele>
        <time>2020-06-03T11:24:25.000Z</time>
      </trkpt>
      <trkpt lat="43.0215" lon="3.01112">
        <ele>47</ele>
        <time>2020-06-03T11:24:26.000Z</time>
      </trkpt>
      <trkpt lat="43.02147" lon="3.01103">
        <ele>47</ele>
        <time>2020-06-03T11:24:29.000Z</time>
      </trkpt>
      <trkpt lat="43.02144" lon="3.01089">
        <ele>47</ele>
        <time>2020-06-03T11:24:33.000Z</time>
      </trkpt>
      <trkpt lat="43.02144" lon="3.01084">
        <ele>47</ele>
        <time>2020-06-03T11:24:34.000Z</time>
      </trkpt>
      <trkpt lat="43.02143" lon="3.01078">
        <ele>47</ele>
        <time>2020-06-03T11:24:35.000Z</time>
      </trkpt>
      <trkpt lat="43.02141" lon="3.01063">
        <ele>47</ele>
        <time>2020-06-03T11:24:38.000Z</time>
      </trkpt>
      <trkpt lat="43.0214" lon="3.01057">
        <ele>47</ele>
        <time>2020-06-03T11:24:39.000Z</time>
      </trkpt>
      <trkpt lat="43.02137" lon="3.01053">
        <ele>47</ele>
        <time>2020-06-03T11:24:40.000Z</time>
      </trkpt>
      <trkpt lat="43.02133" lon="3.01047">
        <ele>47</ele>
        <time>2020-06-03T11:24:42.000Z</time>
      </trkpt>
      <trkpt lat="43.02128" lon="3.01039">
        <ele>47</ele>
        <time>2020-06-03T11:24:44.000Z</time>
      </trkpt>
      <trkpt lat="43.0212" lon="3.01027">
        <ele>47</ele>
        <time>2020-06-03T11:24:46.000Z</time>
      </trkpt>
      <trkpt lat="43.02115" lon="3.0102">
        <ele>46.2</ele>
        <time>2020-06-03T11:24:47.000Z</time>
      </trkpt>
      <trkpt lat="43.02111" lon="3.01014">
        <ele>45.6</ele>
        <time>2020-06-03T11:24:48.000Z</time>
      </trkpt>
      <trkpt lat="43.02108" lon="3.01007">
        <ele>45</ele>
        <time>2020-06-03T11:24:49.000Z</time>
      </trkpt>
      <trkpt lat="43.02105" lon="3.01002">
        <ele>44.4</ele>
        <time>2020-06-03T11:24:50.000Z</time>
      </trkpt>
      <trkpt lat="43.02104" lon="3.00997">
        <ele>43.8</ele>
        <time>2020-06-03T11:24:51.000Z</time>
      </trkpt>
      <trkpt lat="43.02104" lon="3.00993">
        <ele>43.8</ele>
        <time>2020-06-03T11:24:52.000Z</time>
      </trkpt>
      <trkpt lat="43.02102" lon="3.00972">
        <ele>43.8</ele>
        <time>2020-06-03T11:24:55.000Z</time>
      </trkpt>
      <trkpt lat="43.02097" lon="3.00943">
        <ele>43.8</ele>
        <time>2020-06-03T11:24:59.000Z</time>
      </trkpt>
      <trkpt lat="43.02098" lon="3.00935">
        <ele>43.8</ele>
        <time>2020-06-03T11:25:00.000Z</time>
      </trkpt>
      <trkpt lat="43.021" lon="3.00927">
        <ele>43.2</ele>
        <time>2020-06-03T11:25:01.000Z</time>
      </trkpt>
      <trkpt lat="43.02102" lon="3.00918">
        <ele>42.8</ele>
        <time>2020-06-03T11:25:02.000Z</time>
      </trkpt>
      <trkpt lat="43.02105" lon="3.00909">
        <ele>42.2</ele>
        <time>2020-06-03T11:25:03.000Z</time>
      </trkpt>
      <trkpt lat="43.02108" lon="3.009">
        <ele>41.6</ele>
        <time>2020-06-03T11:25:04.000Z</time>
      </trkpt>
      <trkpt lat="43.02112" lon="3.00891">
        <ele>40.8</ele>
        <time>2020-06-03T11:25:05.000Z</time>
      </trkpt>
      <trkpt lat="43.02115" lon="3.00884">
        <ele>40</ele>
        <time>2020-06-03T11:25:06.000Z</time>
      </trkpt>
      <trkpt lat="43.02118" lon="3.00876">
        <ele>39.4</ele>
        <time>2020-06-03T11:25:07.000Z</time>
      </trkpt>
      <trkpt lat="43.0212" lon="3.00869">
        <ele>38.8</ele>
        <time>2020-06-03T11:25:08.000Z</time>
      </trkpt>
      <trkpt lat="43.02121" lon="3.00861">
        <ele>38.2</ele>
        <time>2020-06-03T11:25:09.000Z</time>
      </trkpt>
      <trkpt lat="43.02122" lon="3.00851">
        <ele>37.6</ele>
        <time>2020-06-03T11:25:10.000Z</time>
      </trkpt>
      <trkpt lat="43.02123" lon="3.00842">
        <ele>36.8</ele>
        <time>2020-06-03T11:25:11.000Z</time>
      </trkpt>
      <trkpt lat="43.02124" lon="3.00833">
        <ele>36</ele>
        <time>2020-06-03T11:25:12.000Z</time>
      </trkpt>
      <trkpt lat="43.02126" lon="3.00824">
        <ele>35.2</ele>
        <time>2020-06-03T11:25:13.000Z</time>
      </trkpt>
      <trkpt lat="43.02127" lon="3.00815">
        <ele>34.6</ele>
        <time>2020-06-03T11:25:14.000Z</time>
      </trkpt>
      <trkpt lat="43.02129" lon="3.00806">
        <ele>33.8</ele>
        <time>2020-06-03T11:25:15.000Z</time>
      </trkpt>
      <trkpt lat="43.0213" lon="3.00799">
        <ele>33.8</ele>
        <time>2020-06-03T11:25:16.000Z</time>
      </trkpt>
      <trkpt lat="43.02132" lon="3.00787">
        <ele>33.8</ele>
        <time>2020-06-03T11:25:19.000Z</time>
      </trkpt>
      <trkpt lat="43.0214" lon="3.00783">
        <ele>33.8</ele>
        <time>2020-06-03T11:25:24.000Z</time>
      </trkpt>
      <trkpt lat="43.0214" lon="3.00783">
        <ele>33.8</ele>
        <time>2020-06-03T11:25:25.000Z</time>
      </trkpt>
      <trkpt lat="43.02143" lon="3.00775">
        <ele>33.8</ele>
        <time>2020-06-03T11:25:38.000Z</time>
      </trkpt>
      <trkpt lat="43.02142" lon="3.00771">
        <ele>33.8</ele>
        <time>2020-06-03T11:25:39.000Z</time>
      </trkpt>
      <trkpt lat="43.02133" lon="3.00759">
        <ele>33.8</ele>
        <time>2020-06-03T11:25:43.000Z</time>
      </trkpt>
      <trkpt lat="43.02118" lon="3.00756">
        <ele>33.8</ele>
        <time>2020-06-03T11:25:47.000Z</time>
      </trkpt>
      <trkpt lat="43.0211" lon="3.00752">
        <ele>33.8</ele>
        <time>2020-06-03T11:25:49.000Z</time>
      </trkpt>
      <trkpt lat="43.02101" lon="3.00749">
        <ele>33.8</ele>
        <time>2020-06-03T11:25:51.000Z</time>
      </trkpt>
      <trkpt lat="43.02083" lon="3.00744">
        <ele>33.8</ele>
        <time>2020-06-03T11:25:55.000Z</time>
      </trkpt>
      <trkpt lat="43.02076" lon="3.00744">
        <ele>33.8</ele>
        <time>2020-06-03T11:25:57.000Z</time>
      </trkpt>
      <trkpt lat="43.02068" lon="3.00743">
        <ele>33.8</ele>
        <time>2020-06-03T11:25:59.000Z</time>
      </trkpt>
      <trkpt lat="43.02055" lon="3.00738">
        <ele>33.8</ele>
        <time>2020-06-03T11:26:02.000Z</time>
      </trkpt>
      <trkpt lat="43.02034" lon="3.00729">
        <ele>33.8</ele>
        <time>2020-06-03T11:26:07.000Z</time>
      </trkpt>
      <trkpt lat="43.0203" lon="3.00727">
        <ele>33.8</ele>
        <time>2020-06-03T11:26:08.000Z</time>
      </trkpt>
      <trkpt lat="43.02019" lon="3.00717">
        <ele>33.8</ele>
        <time>2020-06-03T11:26:11.000Z</time>
      </trkpt>
      <trkpt lat="43.02011" lon="3.0071">
        <ele>33.8</ele>
        <time>2020-06-03T11:26:13.000Z</time>
      </trkpt>
      <trkpt lat="43.01998" lon="3.00701">
        <ele>33.8</ele>
        <time>2020-06-03T11:26:16.000Z</time>
      </trkpt>
      <trkpt lat="43.01984" lon="3.00697">
        <ele>33.8</ele>
        <time>2020-06-03T11:26:19.000Z</time>
      </trkpt>
      <trkpt lat="43.01982" lon="3.00681">
        <ele>33.8</ele>
        <time>2020-06-03T11:26:22.000Z</time>
      </trkpt>
      <trkpt lat="43.01986" lon="3.00669">
        <ele>33.8</ele>
        <time>2020-06-03T11:26:24.000Z</time>
      </trkpt>
      <trkpt lat="43.01992" lon="3.0065">
        <ele>33.8</ele>
        <time>2020-06-03T11:26:27.000Z</time>
      </trkpt>
      <trkpt lat="43.02005" lon="3.00602">
        <ele>33.8</ele>
        <time>2020-06-03T11:26:34.000Z</time>
      </trkpt>
      <trkpt lat="43.01998" lon="3.00594">
        <ele>33.8</ele>
        <time>2020-06-03T11:26:36.000Z</time>
      </trkpt>
      <trkpt lat="43.01977" lon="3.00583">
        <ele>33.8</ele>
        <time>2020-06-03T11:26:40.000Z</time>
      </trkpt>
      <trkpt lat="43.01952" lon="3.00567">
        <ele>33.8</ele>
        <time>2020-06-03T11:26:45.000Z</time>
      </trkpt>
      <trkpt lat="43.01947" lon="3.00564">
        <ele>33.8</ele>
        <time>2020-06-03T11:26:46.000Z</time>
      </trkpt>
      <trkpt lat="43.01934" lon="3.00556">
        <ele>33.8</ele>
        <time>2020-06-03T11:26:49.000Z</time>
      </trkpt>
      <trkpt lat="43.01927" lon="3.00551">
        <ele>33.8</ele>
        <time>2020-06-03T11:26:51.000Z</time>
      </trkpt>
      <trkpt lat="43.0192" lon="3.00545">
        <ele>33.8</ele>
        <time>2020-06-03T11:26:53.000Z</time>
      </trkpt>
      <trkpt lat="43.01908" lon="3.00535">
        <ele>33.8</ele>
        <time>2020-06-03T11:26:56.000Z</time>
      </trkpt>
      <trkpt lat="43.01904" lon="3.00532">
        <ele>33.8</ele>
        <time>2020-06-03T11:26:57.000Z</time>
      </trkpt>
      <trkpt lat="43.01888" lon="3.00522">
        <ele>33.8</ele>
        <time>2020-06-03T11:27:01.000Z</time>
      </trkpt>
      <trkpt lat="43.01862" lon="3.00505">
        <ele>33.8</ele>
        <time>2020-06-03T11:27:07.000Z</time>
      </trkpt>
      <trkpt lat="43.01848" lon="3.00507">
        <ele>33.8</ele>
        <time>2020-06-03T11:27:11.000Z</time>
      </trkpt>
      <trkpt lat="43.0184" lon="3.00511">
        <ele>34.2</ele>
        <time>2020-06-03T11:27:14.000Z</time>
      </trkpt>
      <trkpt lat="43.01837" lon="3.00511">
        <ele>34.6</ele>
        <time>2020-06-03T11:27:15.000Z</time>
      </trkpt>
      <trkpt lat="43.01835" lon="3.00512">
        <ele>35.2</ele>
        <time>2020-06-03T11:27:16.000Z</time>
      </trkpt>
      <trkpt lat="43.01832" lon="3.00512">
        <ele>35.6</ele>
        <time>2020-06-03T11:27:17.000Z</time>
      </trkpt>
      <trkpt lat="43.01829" lon="3.00511">
        <ele>36</ele>
        <time>2020-06-03T11:27:18.000Z</time>
      </trkpt>
      <trkpt lat="43.01827" lon="3.00508">
        <ele>36</ele>
        <time>2020-06-03T11:27:19.000Z</time>
      </trkpt>
      <trkpt lat="43.01824" lon="3.00507">
        <ele>36.4</ele>
        <time>2020-06-03T11:27:20.000Z</time>
      </trkpt>
      <trkpt lat="43.01821" lon="3.00509">
        <ele>36.8</ele>
        <time>2020-06-03T11:27:21.000Z</time>
      </trkpt>
      <trkpt lat="43.01818" lon="3.00511">
        <ele>37.4</ele>
        <time>2020-06-03T11:27:22.000Z</time>
      </trkpt>
      <trkpt lat="43.01815" lon="3.00511">
        <ele>37.8</ele>
        <time>2020-06-03T11:27:23.000Z</time>
      </trkpt>
      <trkpt lat="43.01813" lon="3.00509">
        <ele>38.2</ele>
        <time>2020-06-03T11:27:24.000Z</time>
      </trkpt>
      <trkpt lat="43.01811" lon="3.00507">
        <ele>38.2</ele>
        <time>2020-06-03T11:27:25.000Z</time>
      </trkpt>
      <trkpt lat="43.01808" lon="3.00504">
        <ele>38.6</ele>
        <time>2020-06-03T11:27:26.000Z</time>
      </trkpt>
      <trkpt lat="43.01805" lon="3.00501">
        <ele>39</ele>
        <time>2020-06-03T11:27:27.000Z</time>
      </trkpt>
      <trkpt lat="43.01801" lon="3.00498">
        <ele>39.4</ele>
        <time>2020-06-03T11:27:28.000Z</time>
      </trkpt>
      <trkpt lat="43.01796" lon="3.00497">
        <ele>40.2</ele>
        <time>2020-06-03T11:27:29.000Z</time>
      </trkpt>
      <trkpt lat="43.01782" lon="3.005">
        <ele>40.2</ele>
        <time>2020-06-03T11:27:32.000Z</time>
      </trkpt>
      <trkpt lat="43.01772" lon="3.00488">
        <ele>40.2</ele>
        <time>2020-06-03T11:27:35.000Z</time>
      </trkpt>
      <trkpt lat="43.0177" lon="3.00483">
        <ele>40.2</ele>
        <time>2020-06-03T11:27:36.000Z</time>
      </trkpt>
      <trkpt lat="43.01763" lon="3.00473">
        <ele>39.8</ele>
        <time>2020-06-03T11:27:38.000Z</time>
      </trkpt>
      <trkpt lat="43.01759" lon="3.00468">
        <ele>39.4</ele>
        <time>2020-06-03T11:27:39.000Z</time>
      </trkpt>
      <trkpt lat="43.01755" lon="3.00463">
        <ele>39</ele>
        <time>2020-06-03T11:27:40.000Z</time>
      </trkpt>
      <trkpt lat="43.01752" lon="3.00458">
        <ele>38.4</ele>
        <time>2020-06-03T11:27:41.000Z</time>
      </trkpt>
      <trkpt lat="43.01748" lon="3.00454">
        <ele>38</ele>
        <time>2020-06-03T11:27:42.000Z</time>
      </trkpt>
      <trkpt lat="43.01742" lon="3.00443">
        <ele>38</ele>
        <time>2020-06-03T11:27:44.000Z</time>
      </trkpt>
      <trkpt lat="43.01737" lon="3.0043">
        <ele>38</ele>
        <time>2020-06-03T11:27:46.000Z</time>
      </trkpt>
      <trkpt lat="43.01727" lon="3.004">
        <ele>38</ele>
        <time>2020-06-03T11:27:51.000Z</time>
      </trkpt>
      <trkpt lat="43.01724" lon="3.00396">
        <ele>38</ele>
        <time>2020-06-03T11:27:52.000Z</time>
      </trkpt>
      <trkpt lat="43.01716" lon="3.00383">
        <ele>38</ele>
        <time>2020-06-03T11:27:55.000Z</time>
      </trkpt>
      <trkpt lat="43.01714" lon="3.00377">
        <ele>38</ele>
        <time>2020-06-03T11:27:56.000Z</time>
      </trkpt>
      <trkpt lat="43.01706" lon="3.00344">
        <ele>38</ele>
        <time>2020-06-03T11:28:01.000Z</time>
      </trkpt>
      <trkpt lat="43.01704" lon="3.00337">
        <ele>38</ele>
        <time>2020-06-03T11:28:02.000Z</time>
      </trkpt>
      <trkpt lat="43.01694" lon="3.00321">
        <ele>37.6</ele>
        <time>2020-06-03T11:28:05.000Z</time>
      </trkpt>
      <trkpt lat="43.01689" lon="3.00318">
        <ele>37.2</ele>
        <time>2020-06-03T11:28:06.000Z</time>
      </trkpt>
      <trkpt lat="43.01684" lon="3.00317">
        <ele>36.8</ele>
        <time>2020-06-03T11:28:07.000Z</time>
      </trkpt>
      <trkpt lat="43.0168" lon="3.00319">
        <ele>36.4</ele>
        <time>2020-06-03T11:28:08.000Z</time>
      </trkpt>
      <trkpt lat="43.01676" lon="3.00321">
        <ele>35.8</ele>
        <time>2020-06-03T11:28:09.000Z</time>
      </trkpt>
      <trkpt lat="43.01664" lon="3.00331">
        <ele>35.8</ele>
        <time>2020-06-03T11:28:12.000Z</time>
      </trkpt>
      <trkpt lat="43.01659" lon="3.00333">
        <ele>35.8</ele>
        <time>2020-06-03T11:28:13.000Z</time>
      </trkpt>
      <trkpt lat="43.01655" lon="3.00335">
        <ele>35.8</ele>
        <time>2020-06-03T11:28:14.000Z</time>
      </trkpt>
      <trkpt lat="43.0164" lon="3.00336">
        <ele>35.8</ele>
        <time>2020-06-03T11:28:17.000Z</time>
      </trkpt>
      <trkpt lat="43.01622" lon="3.00335">
        <ele>35.8</ele>
        <time>2020-06-03T11:28:21.000Z</time>
      </trkpt>
      <trkpt lat="43.01618" lon="3.00332">
        <ele>35.8</ele>
        <time>2020-06-03T11:28:22.000Z</time>
      </trkpt>
      <trkpt lat="43.01592" lon="3.00317">
        <ele>35.8</ele>
        <time>2020-06-03T11:28:27.000Z</time>
      </trkpt>
      <trkpt lat="43.01576" lon="3.00307">
        <ele>35.8</ele>
        <time>2020-06-03T11:28:31.000Z</time>
      </trkpt>
      <trkpt lat="43.01572" lon="3.003">
        <ele>35.8</ele>
        <time>2020-06-03T11:28:34.000Z</time>
      </trkpt>
      <trkpt lat="43.01571" lon="3.00296">
        <ele>36.2</ele>
        <time>2020-06-03T11:28:35.000Z</time>
      </trkpt>
      <trkpt lat="43.0157" lon="3.00293">
        <ele>36.6</ele>
        <time>2020-06-03T11:28:36.000Z</time>
      </trkpt>
      <trkpt lat="43.01567" lon="3.00293">
        <ele>37</ele>
        <time>2020-06-03T11:28:37.000Z</time>
      </trkpt>
      <trkpt lat="43.01565" lon="3.00295">
        <ele>37.6</ele>
        <time>2020-06-03T11:28:38.000Z</time>
      </trkpt>
      <trkpt lat="43.01562" lon="3.00297">
        <ele>38</ele>
        <time>2020-06-03T11:28:39.000Z</time>
      </trkpt>
      <trkpt lat="43.01547" lon="3.00306">
        <ele>38</ele>
        <time>2020-06-03T11:28:43.000Z</time>
      </trkpt>
      <trkpt lat="43.01532" lon="3.00309">
        <ele>38</ele>
        <time>2020-06-03T11:28:47.000Z</time>
      </trkpt>
      <trkpt lat="43.01529" lon="3.00307">
        <ele>38</ele>
        <time>2020-06-03T11:28:48.000Z</time>
      </trkpt>
      <trkpt lat="43.01529" lon="3.00292">
        <ele>38</ele>
        <time>2020-06-03T11:28:51.000Z</time>
      </trkpt>
      <trkpt lat="43.0153" lon="3.00279">
        <ele>38</ele>
        <time>2020-06-03T11:28:53.000Z</time>
      </trkpt>
      <trkpt lat="43.01532" lon="3.00273">
        <ele>38</ele>
        <time>2020-06-03T11:28:54.000Z</time>
      </trkpt>
      <trkpt lat="43.01537" lon="3.00261">
        <ele>38</ele>
        <time>2020-06-03T11:28:56.000Z</time>
      </trkpt>
      <trkpt lat="43.01551" lon="3.00241">
        <ele>38</ele>
        <time>2020-06-03T11:29:00.000Z</time>
      </trkpt>
      <trkpt lat="43.01553" lon="3.00222">
        <ele>38</ele>
        <time>2020-06-03T11:29:03.000Z</time>
      </trkpt>
      <trkpt lat="43.01551" lon="3.00182">
        <ele>38</ele>
        <time>2020-06-03T11:29:09.000Z</time>
      </trkpt>
      <trkpt lat="43.0155" lon="3.00162">
        <ele>38</ele>
        <time>2020-06-03T11:29:12.000Z</time>
      </trkpt>
      <trkpt lat="43.0155" lon="3.00135">
        <ele>38</ele>
        <time>2020-06-03T11:29:16.000Z</time>
      </trkpt>
      <trkpt lat="43.01547" lon="3.00109">
        <ele>38</ele>
        <time>2020-06-03T11:29:20.000Z</time>
      </trkpt>
      <trkpt lat="43.01546" lon="3.00103">
        <ele>38</ele>
        <time>2020-06-03T11:29:21.000Z</time>
      </trkpt>
      <trkpt lat="43.01543" lon="3.00069">
        <ele>38</ele>
        <time>2020-06-03T11:29:27.000Z</time>
      </trkpt>
      <trkpt lat="43.01543" lon="3.00063">
        <ele>38</ele>
        <time>2020-06-03T11:29:28.000Z</time>
      </trkpt>
      <trkpt lat="43.01545" lon="3.00027">
        <ele>38</ele>
        <time>2020-06-03T11:29:34.000Z</time>
      </trkpt>
      <trkpt lat="43.0154" lon="3.0001">
        <ele>38</ele>
        <time>2020-06-03T11:29:38.000Z</time>
      </trkpt>
      <trkpt lat="43.01537" lon="3.00008">
        <ele>38</ele>
        <time>2020-06-03T11:29:39.000Z</time>
      </trkpt>
      <trkpt lat="43.0153" lon="3.00006">
        <ele>38</ele>
        <time>2020-06-03T11:29:41.000Z</time>
      </trkpt>
      <trkpt lat="43.01524" lon="3.00004">
        <ele>38</ele>
        <time>2020-06-03T11:29:43.000Z</time>
      </trkpt>
      <trkpt lat="43.01513" lon="3.00001">
        <ele>38</ele>
        <time>2020-06-03T11:29:47.000Z</time>
      </trkpt>
      <trkpt lat="43.01498" lon="2.99996">
        <ele>38.4</ele>
        <time>2020-06-03T11:29:52.000Z</time>
      </trkpt>
      <trkpt lat="43.01496" lon="2.99994">
        <ele>38.8</ele>
        <time>2020-06-03T11:29:53.000Z</time>
      </trkpt>
      <trkpt lat="43.01494" lon="2.99992">
        <ele>39.2</ele>
        <time>2020-06-03T11:29:54.000Z</time>
      </trkpt>
      <trkpt lat="43.01492" lon="2.99988">
        <ele>39.6</ele>
        <time>2020-06-03T11:29:55.000Z</time>
      </trkpt>
      <trkpt lat="43.01491" lon="2.99985">
        <ele>40</ele>
        <time>2020-06-03T11:29:56.000Z</time>
      </trkpt>
      <trkpt lat="43.01487" lon="2.99972">
        <ele>40</ele>
        <time>2020-06-03T11:29:59.000Z</time>
      </trkpt>
      <trkpt lat="43.01485" lon="2.99945">
        <ele>40</ele>
        <time>2020-06-03T11:30:05.000Z</time>
      </trkpt>
      <trkpt lat="43.01474" lon="2.99923">
        <ele>40</ele>
        <time>2020-06-03T11:30:10.000Z</time>
      </trkpt>
      <trkpt lat="43.01459" lon="2.99918">
        <ele>40</ele>
        <time>2020-06-03T11:30:14.000Z</time>
      </trkpt>
      <trkpt lat="43.01443" lon="2.9992">
        <ele>40</ele>
        <time>2020-06-03T11:30:19.000Z</time>
      </trkpt>
      <trkpt lat="43.01437" lon="2.99915">
        <ele>40</ele>
        <time>2020-06-03T11:30:22.000Z</time>
      </trkpt>
      <trkpt lat="43.01437" lon="2.99913">
        <ele>40</ele>
        <time>2020-06-03T11:30:23.000Z</time>
      </trkpt>
      <trkpt lat="43.01434" lon="2.99894">
        <ele>40</ele>
        <time>2020-06-03T11:30:29.000Z</time>
      </trkpt>
      <trkpt lat="43.01428" lon="2.99872">
        <ele>40</ele>
        <time>2020-06-03T11:30:34.000Z</time>
      </trkpt>
      <trkpt lat="43.0142" lon="2.99858">
        <ele>40</ele>
        <time>2020-06-03T11:30:37.000Z</time>
      </trkpt>
      <trkpt lat="43.01415" lon="2.99849">
        <ele>40</ele>
        <time>2020-06-03T11:30:39.000Z</time>
      </trkpt>
      <trkpt lat="43.01413" lon="2.99844">
        <ele>40</ele>
        <time>2020-06-03T11:30:40.000Z</time>
      </trkpt>
      <trkpt lat="43.01399" lon="2.99812">
        <ele>40</ele>
        <time>2020-06-03T11:30:47.000Z</time>
      </trkpt>
      <trkpt lat="43.01396" lon="2.99796">
        <ele>40</ele>
        <time>2020-06-03T11:30:50.000Z</time>
      </trkpt>
      <trkpt lat="43.01393" lon="2.99778">
        <ele>40</ele>
        <time>2020-06-03T11:30:53.000Z</time>
      </trkpt>
      <trkpt lat="43.0139" lon="2.99747">
        <ele>40</ele>
        <time>2020-06-03T11:30:59.000Z</time>
      </trkpt>
      <trkpt lat="43.01384" lon="2.99724">
        <ele>40</ele>
        <time>2020-06-03T11:31:04.000Z</time>
      </trkpt>
      <trkpt lat="43.01372" lon="2.9972">
        <ele>40</ele>
        <time>2020-06-03T11:31:07.000Z</time>
      </trkpt>
      <trkpt lat="43.01356" lon="2.99712">
        <ele>40</ele>
        <time>2020-06-03T11:31:12.000Z</time>
      </trkpt>
      <trkpt lat="43.01345" lon="2.99697">
        <ele>40</ele>
        <time>2020-06-03T11:31:17.000Z</time>
      </trkpt>
      <trkpt lat="43.01337" lon="2.99676">
        <ele>40</ele>
        <time>2020-06-03T11:31:22.000Z</time>
      </trkpt>
      <trkpt lat="43.01328" lon="2.99647">
        <ele>40</ele>
        <time>2020-06-03T11:31:28.000Z</time>
      </trkpt>
      <trkpt lat="43.01327" lon="2.99636">
        <ele>40</ele>
        <time>2020-06-03T11:31:30.000Z</time>
      </trkpt>
      <trkpt lat="43.01328" lon="2.99619">
        <ele>40</ele>
        <time>2020-06-03T11:31:33.000Z</time>
      </trkpt>
      <trkpt lat="43.01331" lon="2.99591">
        <ele>40</ele>
        <time>2020-06-03T11:31:39.000Z</time>
      </trkpt>
      <trkpt lat="43.01331" lon="2.99583">
        <ele>40</ele>
        <time>2020-06-03T11:31:42.000Z</time>
      </trkpt>
      <trkpt lat="43.01329" lon="2.99581">
        <ele>40</ele>
        <time>2020-06-03T11:31:44.000Z</time>
      </trkpt>
      <trkpt lat="43.01328" lon="2.99589">
        <ele>40</ele>
        <time>2020-06-03T11:31:47.000Z</time>
      </trkpt>
      <trkpt lat="43.01324" lon="2.99597">
        <ele>40</ele>
        <time>2020-06-03T11:31:50.000Z</time>
      </trkpt>
      <trkpt lat="43.01323" lon="2.99599">
        <ele>40.4</ele>
        <time>2020-06-03T11:31:51.000Z</time>
      </trkpt>
      <trkpt lat="43.01322" lon="2.99601">
        <ele>40.8</ele>
        <time>2020-06-03T11:31:52.000Z</time>
      </trkpt>
      <trkpt lat="43.0132" lon="2.99605">
        <ele>41.2</ele>
        <time>2020-06-03T11:31:53.000Z</time>
      </trkpt>
      <trkpt lat="43.01319" lon="2.99608">
        <ele>41.8</ele>
        <time>2020-06-03T11:31:54.000Z</time>
      </trkpt>
      <trkpt lat="43.01317" lon="2.99612">
        <ele>42.2</ele>
        <time>2020-06-03T11:31:55.000Z</time>
      </trkpt>
      <trkpt lat="43.01316" lon="2.99615">
        <ele>42.6</ele>
        <time>2020-06-03T11:31:56.000Z</time>
      </trkpt>
      <trkpt lat="43.01318" lon="2.99619">
        <ele>43.2</ele>
        <time>2020-06-03T11:31:57.000Z</time>
      </trkpt>
      <trkpt lat="43.01317" lon="2.99624">
        <ele>43.6</ele>
        <time>2020-06-03T11:31:58.000Z</time>
      </trkpt>
      <trkpt lat="43.01316" lon="2.9963">
        <ele>44.2</ele>
        <time>2020-06-03T11:31:59.000Z</time>
      </trkpt>
      <trkpt lat="43.01317" lon="2.99644">
        <ele>44.2</ele>
        <time>2020-06-03T11:32:02.000Z</time>
      </trkpt>
      <trkpt lat="43.01318" lon="2.99654">
        <ele>44.6</ele>
        <time>2020-06-03T11:32:05.000Z</time>
      </trkpt>
      <trkpt lat="43.01318" lon="2.99657">
        <ele>45</ele>
        <time>2020-06-03T11:32:06.000Z</time>
      </trkpt>
      <trkpt lat="43.01319" lon="2.99659">
        <ele>45.4</ele>
        <time>2020-06-03T11:32:07.000Z</time>
      </trkpt>
      <trkpt lat="43.0132" lon="2.99663">
        <ele>45.8</ele>
        <time>2020-06-03T11:32:08.000Z</time>
      </trkpt>
      <trkpt lat="43.01321" lon="2.99667">
        <ele>46.2</ele>
        <time>2020-06-03T11:32:09.000Z</time>
      </trkpt>
      <trkpt lat="43.01323" lon="2.99672">
        <ele>46.2</ele>
        <time>2020-06-03T11:32:10.000Z</time>
      </trkpt>
      <trkpt lat="43.01327" lon="2.99685">
        <ele>46.2</ele>
        <time>2020-06-03T11:32:13.000Z</time>
      </trkpt>
      <trkpt lat="43.01326" lon="2.99688">
        <ele>46.2</ele>
        <time>2020-06-03T11:32:14.000Z</time>
      </trkpt>
      <trkpt lat="43.01323" lon="2.9969">
        <ele>46.6</ele>
        <time>2020-06-03T11:32:17.000Z</time>
      </trkpt>
      <trkpt lat="43.01322" lon="2.9969">
        <ele>47.2</ele>
        <time>2020-06-03T11:32:18.000Z</time>
      </trkpt>
      <trkpt lat="43.0132" lon="2.99688">
        <ele>47.6</ele>
        <time>2020-06-03T11:32:19.000Z</time>
      </trkpt>
      <trkpt lat="43.01319" lon="2.99686">
        <ele>48</ele>
        <time>2020-06-03T11:32:20.000Z</time>
      </trkpt>
      <trkpt lat="43.01318" lon="2.99685">
        <ele>48.6</ele>
        <time>2020-06-03T11:32:21.000Z</time>
      </trkpt>
      <trkpt lat="43.01317" lon="2.99683">
        <ele>48.6</ele>
        <time>2020-06-03T11:32:22.000Z</time>
      </trkpt>
      <trkpt lat="43.01315" lon="2.99681">
        <ele>49</ele>
        <time>2020-06-03T11:32:23.000Z</time>
      </trkpt>
      <trkpt lat="43.01313" lon="2.99678">
        <ele>49.8</ele>
        <time>2020-06-03T11:32:24.000Z</time>
      </trkpt>
      <trkpt lat="43.01312" lon="2.99677">
        <ele>50.2</ele>
        <time>2020-06-03T11:32:25.000Z</time>
      </trkpt>
      <trkpt lat="43.0131" lon="2.99674">
        <ele>50.8</ele>
        <time>2020-06-03T11:32:26.000Z</time>
      </trkpt>
      <trkpt lat="43.01309" lon="2.99673">
        <ele>51.2</ele>
        <time>2020-06-03T11:32:27.000Z</time>
      </trkpt>
      <trkpt lat="43.01307" lon="2.99672">
        <ele>51.8</ele>
        <time>2020-06-03T11:32:28.000Z</time>
      </trkpt>
      <trkpt lat="43.01306" lon="2.99671">
        <ele>52.2</ele>
        <time>2020-06-03T11:32:29.000Z</time>
      </trkpt>
      <trkpt lat="43.01304" lon="2.99669">
        <ele>52.8</ele>
        <time>2020-06-03T11:32:30.000Z</time>
      </trkpt>
      <trkpt lat="43.01303" lon="2.99668">
        <ele>53.4</ele>
        <time>2020-06-03T11:32:31.000Z</time>
      </trkpt>
      <trkpt lat="43.01302" lon="2.99666">
        <ele>54</ele>
        <time>2020-06-03T11:32:32.000Z</time>
      </trkpt>
      <trkpt lat="43.01301" lon="2.99663">
        <ele>54.4</ele>
        <time>2020-06-03T11:32:33.000Z</time>
      </trkpt>
      <trkpt lat="43.01299" lon="2.9966">
        <ele>55</ele>
        <time>2020-06-03T11:32:34.000Z</time>
      </trkpt>
      <trkpt lat="43.01298" lon="2.99657">
        <ele>55.6</ele>
        <time>2020-06-03T11:32:35.000Z</time>
      </trkpt>
      <trkpt lat="43.01295" lon="2.99651">
        <ele>55.6</ele>
        <time>2020-06-03T11:32:37.000Z</time>
      </trkpt>
      <trkpt lat="43.01293" lon="2.99649">
        <ele>55.6</ele>
        <time>2020-06-03T11:32:38.000Z</time>
      </trkpt>
      <trkpt lat="43.0129" lon="2.99649">
        <ele>56</ele>
        <time>2020-06-03T11:32:39.000Z</time>
      </trkpt>
      <trkpt lat="43.01287" lon="2.99649">
        <ele>56.4</ele>
        <time>2020-06-03T11:32:40.000Z</time>
      </trkpt>
      <trkpt lat="43.01284" lon="2.99649">
        <ele>57</ele>
        <time>2020-06-03T11:32:41.000Z</time>
      </trkpt>
      <trkpt lat="43.01282" lon="2.99649">
        <ele>57.4</ele>
        <time>2020-06-03T11:32:42.000Z</time>
      </trkpt>
      <trkpt lat="43.01279" lon="2.99647">
        <ele>57.8</ele>
        <time>2020-06-03T11:32:43.000Z</time>
      </trkpt>
      <trkpt lat="43.01276" lon="2.99641">
        <ele>57.8</ele>
        <time>2020-06-03T11:32:45.000Z</time>
      </trkpt>
      <trkpt lat="43.01267" lon="2.99633">
        <ele>57.8</ele>
        <time>2020-06-03T11:32:49.000Z</time>
      </trkpt>
      <trkpt lat="43.01265" lon="2.99632">
        <ele>58.2</ele>
        <time>2020-06-03T11:32:50.000Z</time>
      </trkpt>
      <trkpt lat="43.01263" lon="2.99632">
        <ele>58.6</ele>
        <time>2020-06-03T11:32:51.000Z</time>
      </trkpt>
      <trkpt lat="43.01261" lon="2.9963">
        <ele>59</ele>
        <time>2020-06-03T11:32:52.000Z</time>
      </trkpt>
      <trkpt lat="43.01259" lon="2.9963">
        <ele>59.4</ele>
        <time>2020-06-03T11:32:53.000Z</time>
      </trkpt>
      <trkpt lat="43.01256" lon="2.9963">
        <ele>59.8</ele>
        <time>2020-06-03T11:32:54.000Z</time>
      </trkpt>
      <trkpt lat="43.01254" lon="2.9963">
        <ele>59.8</ele>
        <time>2020-06-03T11:32:55.000Z</time>
      </trkpt>
      <trkpt lat="43.01248" lon="2.99631">
        <ele>60.4</ele>
        <time>2020-06-03T11:32:58.000Z</time>
      </trkpt>
      <trkpt lat="43.01246" lon="2.99631">
        <ele>60.8</ele>
        <time>2020-06-03T11:32:59.000Z</time>
      </trkpt>
      <trkpt lat="43.01244" lon="2.99632">
        <ele>61.2</ele>
        <time>2020-06-03T11:33:00.000Z</time>
      </trkpt>
      <trkpt lat="43.01243" lon="2.99632">
        <ele>61.6</ele>
        <time>2020-06-03T11:33:01.000Z</time>
      </trkpt>
      <trkpt lat="43.01241" lon="2.99632">
        <ele>62</ele>
        <time>2020-06-03T11:33:02.000Z</time>
      </trkpt>
      <trkpt lat="43.01238" lon="2.99626">
        <ele>62</ele>
        <time>2020-06-03T11:33:05.000Z</time>
      </trkpt>
      <trkpt lat="43.01236" lon="2.99624">
        <ele>62</ele>
        <time>2020-06-03T11:33:06.000Z</time>
      </trkpt>
      <trkpt lat="43.01226" lon="2.99615">
        <ele>62</ele>
        <time>2020-06-03T11:33:12.000Z</time>
      </trkpt>
      <trkpt lat="43.01223" lon="2.99614">
        <ele>62.4</ele>
        <time>2020-06-03T11:33:13.000Z</time>
      </trkpt>
      <trkpt lat="43.01221" lon="2.99613">
        <ele>63.4</ele>
        <time>2020-06-03T11:33:14.000Z</time>
      </trkpt>
      <trkpt lat="43.01219" lon="2.99613">
        <ele>63.8</ele>
        <time>2020-06-03T11:33:15.000Z</time>
      </trkpt>
      <trkpt lat="43.01216" lon="2.99613">
        <ele>64.2</ele>
        <time>2020-06-03T11:33:16.000Z</time>
      </trkpt>
      <trkpt lat="43.01213" lon="2.99613">
        <ele>64.2</ele>
        <time>2020-06-03T11:33:17.000Z</time>
      </trkpt>
      <trkpt lat="43.012" lon="2.99613">
        <ele>64.2</ele>
        <time>2020-06-03T11:33:22.000Z</time>
      </trkpt>
      <trkpt lat="43.01195" lon="2.99613">
        <ele>64.2</ele>
        <time>2020-06-03T11:33:24.000Z</time>
      </trkpt>
      <trkpt lat="43.0119" lon="2.99614">
        <ele>64.2</ele>
        <time>2020-06-03T11:33:26.000Z</time>
      </trkpt>
      <trkpt lat="43.01186" lon="2.99622">
        <ele>64.2</ele>
        <time>2020-06-03T11:33:29.000Z</time>
      </trkpt>
      <trkpt lat="43.01185" lon="2.99623">
        <ele>64.2</ele>
        <time>2020-06-03T11:33:30.000Z</time>
      </trkpt>
      <trkpt lat="43.01179" lon="2.99628">
        <ele>64.6</ele>
        <time>2020-06-03T11:33:33.000Z</time>
      </trkpt>
      <trkpt lat="43.01177" lon="2.9963">
        <ele>65</ele>
        <time>2020-06-03T11:33:34.000Z</time>
      </trkpt>
      <trkpt lat="43.01175" lon="2.99632">
        <ele>65.4</ele>
        <time>2020-06-03T11:33:35.000Z</time>
      </trkpt>
      <trkpt lat="43.01173" lon="2.99633">
        <ele>65.8</ele>
        <time>2020-06-03T11:33:36.000Z</time>
      </trkpt>
      <trkpt lat="43.0117" lon="2.99634">
        <ele>66.2</ele>
        <time>2020-06-03T11:33:37.000Z</time>
      </trkpt>
      <trkpt lat="43.01162" lon="2.99637">
        <ele>66.2</ele>
        <time>2020-06-03T11:33:41.000Z</time>
      </trkpt>
      <trkpt lat="43.01153" lon="2.99643">
        <ele>66.6</ele>
        <time>2020-06-03T11:33:45.000Z</time>
      </trkpt>
      <trkpt lat="43.01151" lon="2.99646">
        <ele>67</ele>
        <time>2020-06-03T11:33:46.000Z</time>
      </trkpt>
      <trkpt lat="43.0115" lon="2.99648">
        <ele>67.6</ele>
        <time>2020-06-03T11:33:47.000Z</time>
      </trkpt>
      <trkpt lat="43.01148" lon="2.9965">
        <ele>68</ele>
        <time>2020-06-03T11:33:48.000Z</time>
      </trkpt>
      <trkpt lat="43.01146" lon="2.99652">
        <ele>68.4</ele>
        <time>2020-06-03T11:33:49.000Z</time>
      </trkpt>
      <trkpt lat="43.0114" lon="2.99658">
        <ele>68.8</ele>
        <time>2020-06-03T11:33:53.000Z</time>
      </trkpt>
      <trkpt lat="43.01138" lon="2.99659">
        <ele>69.4</ele>
        <time>2020-06-03T11:33:54.000Z</time>
      </trkpt>
      <trkpt lat="43.01136" lon="2.99659">
        <ele>69.8</ele>
        <time>2020-06-03T11:33:55.000Z</time>
      </trkpt>
      <trkpt lat="43.01135" lon="2.9966">
        <ele>70.4</ele>
        <time>2020-06-03T11:33:56.000Z</time>
      </trkpt>
      <trkpt lat="43.01133" lon="2.9966">
        <ele>70.8</ele>
        <time>2020-06-03T11:33:57.000Z</time>
      </trkpt>
      <trkpt lat="43.0113" lon="2.99661">
        <ele>71.2</ele>
        <time>2020-06-03T11:33:59.000Z</time>
      </trkpt>
      <trkpt lat="43.01128" lon="2.99662">
        <ele>71.6</ele>
        <time>2020-06-03T11:34:00.000Z</time>
      </trkpt>
      <trkpt lat="43.01127" lon="2.99662">
        <ele>72</ele>
        <time>2020-06-03T11:34:01.000Z</time>
      </trkpt>
      <trkpt lat="43.01125" lon="2.99664">
        <ele>72.4</ele>
        <time>2020-06-03T11:34:02.000Z</time>
      </trkpt>
      <trkpt lat="43.01124" lon="2.99664">
        <ele>72.8</ele>
        <time>2020-06-03T11:34:03.000Z</time>
      </trkpt>
      <trkpt lat="43.01121" lon="2.99663">
        <ele>72.8</ele>
        <time>2020-06-03T11:34:05.000Z</time>
      </trkpt>
      <trkpt lat="43.0112" lon="2.99664">
        <ele>73.4</ele>
        <time>2020-06-03T11:34:06.000Z</time>
      </trkpt>
      <trkpt lat="43.01119" lon="2.99663">
        <ele>73.8</ele>
        <time>2020-06-03T11:34:07.000Z</time>
      </trkpt>
      <trkpt lat="43.01118" lon="2.99662">
        <ele>74.2</ele>
        <time>2020-06-03T11:34:08.000Z</time>
      </trkpt>
      <trkpt lat="43.01116" lon="2.9966">
        <ele>74.8</ele>
        <time>2020-06-03T11:34:09.000Z</time>
      </trkpt>
      <trkpt lat="43.01115" lon="2.99658">
        <ele>75.2</ele>
        <time>2020-06-03T11:34:10.000Z</time>
      </trkpt>
      <trkpt lat="43.01112" lon="2.99649">
        <ele>75.2</ele>
        <time>2020-06-03T11:34:12.000Z</time>
      </trkpt>
      <trkpt lat="43.01109" lon="2.99642">
        <ele>74.8</ele>
        <time>2020-06-03T11:34:15.000Z</time>
      </trkpt>
      <trkpt lat="43.01108" lon="2.99638">
        <ele>74.4</ele>
        <time>2020-06-03T11:34:16.000Z</time>
      </trkpt>
      <trkpt lat="43.01108" lon="2.99634">
        <ele>74</ele>
        <time>2020-06-03T11:34:17.000Z</time>
      </trkpt>
      <trkpt lat="43.0111" lon="2.99629">
        <ele>73.4</ele>
        <time>2020-06-03T11:34:18.000Z</time>
      </trkpt>
      <trkpt lat="43.0111" lon="2.99627">
        <ele>73</ele>
        <time>2020-06-03T11:34:19.000Z</time>
      </trkpt>
      <trkpt lat="43.01109" lon="2.9962">
        <ele>72.6</ele>
        <time>2020-06-03T11:34:21.000Z</time>
      </trkpt>
      <trkpt lat="43.01108" lon="2.99617">
        <ele>72.2</ele>
        <time>2020-06-03T11:34:22.000Z</time>
      </trkpt>
      <trkpt lat="43.01106" lon="2.99616">
        <ele>71.8</ele>
        <time>2020-06-03T11:34:23.000Z</time>
      </trkpt>
      <trkpt lat="43.01105" lon="2.99615">
        <ele>71.2</ele>
        <time>2020-06-03T11:34:24.000Z</time>
      </trkpt>
      <trkpt lat="43.01104" lon="2.99614">
        <ele>70.6</ele>
        <time>2020-06-03T11:34:25.000Z</time>
      </trkpt>
      <trkpt lat="43.01103" lon="2.99613">
        <ele>70</ele>
        <time>2020-06-03T11:34:26.000Z</time>
      </trkpt>
      <trkpt lat="43.01102" lon="2.99611">
        <ele>69.6</ele>
        <time>2020-06-03T11:34:27.000Z</time>
      </trkpt>
      <trkpt lat="43.01101" lon="2.99609">
        <ele>68.4</ele>
        <time>2020-06-03T11:34:28.000Z</time>
      </trkpt>
      <trkpt lat="43.01098" lon="2.99607">
        <ele>67.8</ele>
        <time>2020-06-03T11:34:29.000Z</time>
      </trkpt>
      <trkpt lat="43.01096" lon="2.99603">
        <ele>67</ele>
        <time>2020-06-03T11:34:30.000Z</time>
      </trkpt>
      <trkpt lat="43.01096" lon="2.996">
        <ele>66.2</ele>
        <time>2020-06-03T11:34:31.000Z</time>
      </trkpt>
      <trkpt lat="43.01097" lon="2.99597">
        <ele>65.6</ele>
        <time>2020-06-03T11:34:32.000Z</time>
      </trkpt>
      <trkpt lat="43.01098" lon="2.99592">
        <ele>64.8</ele>
        <time>2020-06-03T11:34:33.000Z</time>
      </trkpt>
      <trkpt lat="43.011" lon="2.99589">
        <ele>64</ele>
        <time>2020-06-03T11:34:34.000Z</time>
      </trkpt>
      <trkpt lat="43.01102" lon="2.99587">
        <ele>63.4</ele>
        <time>2020-06-03T11:34:35.000Z</time>
      </trkpt>
      <trkpt lat="43.01103" lon="2.99585">
        <ele>62.8</ele>
        <time>2020-06-03T11:34:36.000Z</time>
      </trkpt>
      <trkpt lat="43.01106" lon="2.99583">
        <ele>62</ele>
        <time>2020-06-03T11:34:37.000Z</time>
      </trkpt>
      <trkpt lat="43.01107" lon="2.99578">
        <ele>61.4</ele>
        <time>2020-06-03T11:34:38.000Z</time>
      </trkpt>
      <trkpt lat="43.01108" lon="2.99575">
        <ele>60.6</ele>
        <time>2020-06-03T11:34:39.000Z</time>
      </trkpt>
      <trkpt lat="43.01109" lon="2.99573">
        <ele>59.8</ele>
        <time>2020-06-03T11:34:40.000Z</time>
      </trkpt>
      <trkpt lat="43.0111" lon="2.99571">
        <ele>59</ele>
        <time>2020-06-03T11:34:41.000Z</time>
      </trkpt>
      <trkpt lat="43.01111" lon="2.99567">
        <ele>58.2</ele>
        <time>2020-06-03T11:34:42.000Z</time>
      </trkpt>
      <trkpt lat="43.01112" lon="2.99565">
        <ele>57.2</ele>
        <time>2020-06-03T11:34:43.000Z</time>
      </trkpt>
      <trkpt lat="43.01114" lon="2.99563">
        <ele>56.4</ele>
        <time>2020-06-03T11:34:44.000Z</time>
      </trkpt>
      <trkpt lat="43.01115" lon="2.99562">
        <ele>55.6</ele>
        <time>2020-06-03T11:34:45.000Z</time>
      </trkpt>
      <trkpt lat="43.01116" lon="2.99564">
        <ele>54.8</ele>
        <time>2020-06-03T11:34:46.000Z</time>
      </trkpt>
      <trkpt lat="43.01117" lon="2.99564">
        <ele>53.8</ele>
        <time>2020-06-03T11:34:47.000Z</time>
      </trkpt>
      <trkpt lat="43.01126" lon="2.99567">
        <ele>53.8</ele>
        <time>2020-06-03T11:34:50.000Z</time>
      </trkpt>
      <trkpt lat="43.01128" lon="2.99566">
        <ele>53.8</ele>
        <time>2020-06-03T11:34:51.000Z</time>
      </trkpt>
      <trkpt lat="43.01132" lon="2.99561">
        <ele>53.8</ele>
        <time>2020-06-03T11:34:54.000Z</time>
      </trkpt>
      <trkpt lat="43.01134" lon="2.9956">
        <ele>53.8</ele>
        <time>2020-06-03T11:34:55.000Z</time>
      </trkpt>
      <trkpt lat="43.01137" lon="2.99558">
        <ele>53.4</ele>
        <time>2020-06-03T11:34:56.000Z</time>
      </trkpt>
      <trkpt lat="43.01139" lon="2.99556">
        <ele>53</ele>
        <time>2020-06-03T11:34:57.000Z</time>
      </trkpt>
      <trkpt lat="43.01141" lon="2.99552">
        <ele>52.4</ele>
        <time>2020-06-03T11:34:58.000Z</time>
      </trkpt>
      <trkpt lat="43.01143" lon="2.99548">
        <ele>52</ele>
        <time>2020-06-03T11:34:59.000Z</time>
      </trkpt>
      <trkpt lat="43.01146" lon="2.99544">
        <ele>51.6</ele>
        <time>2020-06-03T11:35:00.000Z</time>
      </trkpt>
      <trkpt lat="43.01152" lon="2.99538">
        <ele>51.6</ele>
        <time>2020-06-03T11:35:02.000Z</time>
      </trkpt>
      <trkpt lat="43.01158" lon="2.99536">
        <ele>51.6</ele>
        <time>2020-06-03T11:35:04.000Z</time>
      </trkpt>
      <trkpt lat="43.0117" lon="2.99527">
        <ele>51.6</ele>
        <time>2020-06-03T11:35:08.000Z</time>
      </trkpt>
      <trkpt lat="43.01179" lon="2.99524">
        <ele>51.2</ele>
        <time>2020-06-03T11:35:10.000Z</time>
      </trkpt>
      <trkpt lat="43.01182" lon="2.99524">
        <ele>50.8</ele>
        <time>2020-06-03T11:35:11.000Z</time>
      </trkpt>
      <trkpt lat="43.01183" lon="2.99525">
        <ele>50.2</ele>
        <time>2020-06-03T11:35:12.000Z</time>
      </trkpt>
      <trkpt lat="43.01184" lon="2.99525">
        <ele>49.8</ele>
        <time>2020-06-03T11:35:13.000Z</time>
      </trkpt>
      <trkpt lat="43.01186" lon="2.99524">
        <ele>49.4</ele>
        <time>2020-06-03T11:35:14.000Z</time>
      </trkpt>
      <trkpt lat="43.01186" lon="2.99522">
        <ele>49.4</ele>
        <time>2020-06-03T11:35:15.000Z</time>
      </trkpt>
      <trkpt lat="43.01187" lon="2.9952">
        <ele>49.4</ele>
        <time>2020-06-03T11:35:16.000Z</time>
      </trkpt>
      <trkpt lat="43.01199" lon="2.99513">
        <ele>49.4</ele>
        <time>2020-06-03T11:35:20.000Z</time>
      </trkpt>
      <trkpt lat="43.01204" lon="2.9951">
        <ele>49</ele>
        <time>2020-06-03T11:35:21.000Z</time>
      </trkpt>
      <trkpt lat="43.01209" lon="2.99506">
        <ele>48.6</ele>
        <time>2020-06-03T11:35:22.000Z</time>
      </trkpt>
      <trkpt lat="43.01214" lon="2.99502">
        <ele>48.2</ele>
        <time>2020-06-03T11:35:23.000Z</time>
      </trkpt>
      <trkpt lat="43.01218" lon="2.99496">
        <ele>47.8</ele>
        <time>2020-06-03T11:35:24.000Z</time>
      </trkpt>
      <trkpt lat="43.01223" lon="2.99492">
        <ele>47.4</ele>
        <time>2020-06-03T11:35:25.000Z</time>
      </trkpt>
      <trkpt lat="43.01227" lon="2.99488">
        <ele>47.4</ele>
        <time>2020-06-03T11:35:26.000Z</time>
      </trkpt>
      <trkpt lat="43.01237" lon="2.99476">
        <ele>47.4</ele>
        <time>2020-06-03T11:35:29.000Z</time>
      </trkpt>
      <trkpt lat="43.01249" lon="2.99464">
        <ele>47.4</ele>
        <time>2020-06-03T11:35:34.000Z</time>
      </trkpt>
      <trkpt lat="43.01257" lon="2.99462">
        <ele>47</ele>
        <time>2020-06-03T11:35:38.000Z</time>
      </trkpt>
      <trkpt lat="43.01258" lon="2.9946">
        <ele>46.6</ele>
        <time>2020-06-03T11:35:39.000Z</time>
      </trkpt>
      <trkpt lat="43.01257" lon="2.99457">
        <ele>46.2</ele>
        <time>2020-06-03T11:35:40.000Z</time>
      </trkpt>
      <trkpt lat="43.01257" lon="2.99454">
        <ele>45.6</ele>
        <time>2020-06-03T11:35:41.000Z</time>
      </trkpt>
      <trkpt lat="43.01256" lon="2.99451">
        <ele>45.2</ele>
        <time>2020-06-03T11:35:42.000Z</time>
      </trkpt>
      <trkpt lat="43.01255" lon="2.99448">
        <ele>45.2</ele>
        <time>2020-06-03T11:35:43.000Z</time>
      </trkpt>
      <trkpt lat="43.01252" lon="2.99434">
        <ele>45.2</ele>
        <time>2020-06-03T11:35:47.000Z</time>
      </trkpt>
      <trkpt lat="43.01249" lon="2.99423">
        <ele>45.6</ele>
        <time>2020-06-03T11:35:50.000Z</time>
      </trkpt>
      <trkpt lat="43.01248" lon="2.99419">
        <ele>46</ele>
        <time>2020-06-03T11:35:51.000Z</time>
      </trkpt>
      <trkpt lat="43.01246" lon="2.99416">
        <ele>46.4</ele>
        <time>2020-06-03T11:35:52.000Z</time>
      </trkpt>
      <trkpt lat="43.01245" lon="2.99413">
        <ele>47</ele>
        <time>2020-06-03T11:35:53.000Z</time>
      </trkpt>
      <trkpt lat="43.01243" lon="2.99409">
        <ele>47.4</ele>
        <time>2020-06-03T11:35:54.000Z</time>
      </trkpt>
      <trkpt lat="43.01234" lon="2.99394">
        <ele>47.4</ele>
        <time>2020-06-03T11:35:59.000Z</time>
      </trkpt>
      <trkpt lat="43.01233" lon="2.99391">
        <ele>47.8</ele>
        <time>2020-06-03T11:36:00.000Z</time>
      </trkpt>
      <trkpt lat="43.01232" lon="2.99389">
        <ele>48.2</ele>
        <time>2020-06-03T11:36:01.000Z</time>
      </trkpt>
      <trkpt lat="43.01231" lon="2.99386">
        <ele>48.6</ele>
        <time>2020-06-03T11:36:02.000Z</time>
      </trkpt>
      <trkpt lat="43.01229" lon="2.99383">
        <ele>49</ele>
        <time>2020-06-03T11:36:03.000Z</time>
      </trkpt>
      <trkpt lat="43.01228" lon="2.99381">
        <ele>49.4</ele>
        <time>2020-06-03T11:36:04.000Z</time>
      </trkpt>
      <trkpt lat="43.01224" lon="2.99372">
        <ele>49.8</ele>
        <time>2020-06-03T11:36:07.000Z</time>
      </trkpt>
      <trkpt lat="43.01223" lon="2.9937">
        <ele>50.2</ele>
        <time>2020-06-03T11:36:08.000Z</time>
      </trkpt>
      <trkpt lat="43.01222" lon="2.99368">
        <ele>50.6</ele>
        <time>2020-06-03T11:36:09.000Z</time>
      </trkpt>
      <trkpt lat="43.0122" lon="2.99366">
        <ele>51.2</ele>
        <time>2020-06-03T11:36:10.000Z</time>
      </trkpt>
      <trkpt lat="43.01218" lon="2.99364">
        <ele>51.6</ele>
        <time>2020-06-03T11:36:11.000Z</time>
      </trkpt>
      <trkpt lat="43.01216" lon="2.99357">
        <ele>51.6</ele>
        <time>2020-06-03T11:36:14.000Z</time>
      </trkpt>
      <trkpt lat="43.01218" lon="2.99354">
        <ele>52</ele>
        <time>2020-06-03T11:36:16.000Z</time>
      </trkpt>
      <trkpt lat="43.0122" lon="2.99353">
        <ele>52.4</ele>
        <time>2020-06-03T11:36:17.000Z</time>
      </trkpt>
      <trkpt lat="43.01221" lon="2.99352">
        <ele>52.8</ele>
        <time>2020-06-03T11:36:18.000Z</time>
      </trkpt>
      <trkpt lat="43.01224" lon="2.99352">
        <ele>53.2</ele>
        <time>2020-06-03T11:36:19.000Z</time>
      </trkpt>
      <trkpt lat="43.01225" lon="2.99352">
        <ele>53.6</ele>
        <time>2020-06-03T11:36:20.000Z</time>
      </trkpt>
      <trkpt lat="43.01231" lon="2.99347">
        <ele>54</ele>
        <time>2020-06-03T11:36:23.000Z</time>
      </trkpt>
      <trkpt lat="43.01232" lon="2.99345">
        <ele>54.4</ele>
        <time>2020-06-03T11:36:24.000Z</time>
      </trkpt>
      <trkpt lat="43.01233" lon="2.99344">
        <ele>54.8</ele>
        <time>2020-06-03T11:36:25.000Z</time>
      </trkpt>
      <trkpt lat="43.01235" lon="2.99342">
        <ele>55.2</ele>
        <time>2020-06-03T11:36:26.000Z</time>
      </trkpt>
      <trkpt lat="43.01236" lon="2.99341">
        <ele>55.6</ele>
        <time>2020-06-03T11:36:27.000Z</time>
      </trkpt>
      <trkpt lat="43.01238" lon="2.99337">
        <ele>55.6</ele>
        <time>2020-06-03T11:36:29.000Z</time>
      </trkpt>
      <trkpt lat="43.0124" lon="2.9933">
        <ele>55.6</ele>
        <time>2020-06-03T11:36:32.000Z</time>
      </trkpt>
      <trkpt lat="43.01238" lon="2.99326">
        <ele>55.6</ele>
        <time>2020-06-03T11:36:34.000Z</time>
      </trkpt>
      <trkpt lat="43.0124" lon="2.99312">
        <ele>55.6</ele>
        <time>2020-06-03T11:36:39.000Z</time>
      </trkpt>
      <trkpt lat="43.01248" lon="2.99298">
        <ele>55.6</ele>
        <time>2020-06-03T11:36:43.000Z</time>
      </trkpt>
      <trkpt lat="43.01253" lon="2.99291">
        <ele>56</ele>
        <time>2020-06-03T11:36:47.000Z</time>
      </trkpt>
      <trkpt lat="43.01254" lon="2.99289">
        <ele>56.4</ele>
        <time>2020-06-03T11:36:48.000Z</time>
      </trkpt>
      <trkpt lat="43.01255" lon="2.99287">
        <ele>56.8</ele>
        <time>2020-06-03T11:36:49.000Z</time>
      </trkpt>
      <trkpt lat="43.01256" lon="2.99285">
        <ele>57.4</ele>
        <time>2020-06-03T11:36:50.000Z</time>
      </trkpt>
      <trkpt lat="43.01258" lon="2.99282">
        <ele>57.8</ele>
        <time>2020-06-03T11:36:51.000Z</time>
      </trkpt>
      <trkpt lat="43.01261" lon="2.99278">
        <ele>57.2</ele>
        <time>2020-06-03T11:36:52.000Z</time>
      </trkpt>
      <trkpt lat="43.01263" lon="2.99275">
        <ele>56.8</ele>
        <time>2020-06-03T11:36:53.000Z</time>
      </trkpt>
      <trkpt lat="43.01264" lon="2.99274">
        <ele>56.4</ele>
        <time>2020-06-03T11:36:54.000Z</time>
      </trkpt>
      <trkpt lat="43.01265" lon="2.99273">
        <ele>55.8</ele>
        <time>2020-06-03T11:36:55.000Z</time>
      </trkpt>
      <trkpt lat="43.01266" lon="2.99273">
        <ele>55.4</ele>
        <time>2020-06-03T11:36:56.000Z</time>
      </trkpt>
      <trkpt lat="43.01275" lon="2.99266">
        <ele>55.4</ele>
        <time>2020-06-03T11:37:01.000Z</time>
      </trkpt>
      <trkpt lat="43.01276" lon="2.99264">
        <ele>55.4</ele>
        <time>2020-06-03T11:37:02.000Z</time>
      </trkpt>
      <trkpt lat="43.01282" lon="2.99249">
        <ele>55.4</ele>
        <time>2020-06-03T11:37:06.000Z</time>
      </trkpt>
      <trkpt lat="43.01285" lon="2.99243">
        <ele>55.4</ele>
        <time>2020-06-03T11:37:07.000Z</time>
      </trkpt>
      <trkpt lat="43.01288" lon="2.99235">
        <ele>55.4</ele>
        <time>2020-06-03T11:37:09.000Z</time>
      </trkpt>
      <trkpt lat="43.01292" lon="2.99228">
        <ele>55.4</ele>
        <time>2020-06-03T11:37:13.000Z</time>
      </trkpt>
      <trkpt lat="43.01295" lon="2.99226">
        <ele>55.4</ele>
        <time>2020-06-03T11:37:14.000Z</time>
      </trkpt>
      <trkpt lat="43.01297" lon="2.99219">
        <ele>55</ele>
        <time>2020-06-03T11:37:16.000Z</time>
      </trkpt>
      <trkpt lat="43.01297" lon="2.99214">
        <ele>54.6</ele>
        <time>2020-06-03T11:37:17.000Z</time>
      </trkpt>
      <trkpt lat="43.01299" lon="2.9921">
        <ele>54</ele>
        <time>2020-06-03T11:37:18.000Z</time>
      </trkpt>
      <trkpt lat="43.01303" lon="2.99207">
        <ele>53.6</ele>
        <time>2020-06-03T11:37:19.000Z</time>
      </trkpt>
      <trkpt lat="43.01305" lon="2.99202">
        <ele>53.2</ele>
        <time>2020-06-03T11:37:20.000Z</time>
      </trkpt>
      <trkpt lat="43.01306" lon="2.99191">
        <ele>52.8</ele>
        <time>2020-06-03T11:37:22.000Z</time>
      </trkpt>
      <trkpt lat="43.01307" lon="2.99184">
        <ele>52.4</ele>
        <time>2020-06-03T11:37:23.000Z</time>
      </trkpt>
      <trkpt lat="43.01307" lon="2.99177">
        <ele>52</ele>
        <time>2020-06-03T11:37:24.000Z</time>
      </trkpt>
      <trkpt lat="43.01308" lon="2.99171">
        <ele>51.4</ele>
        <time>2020-06-03T11:37:25.000Z</time>
      </trkpt>
      <trkpt lat="43.0131" lon="2.99165">
        <ele>50.8</ele>
        <time>2020-06-03T11:37:26.000Z</time>
      </trkpt>
      <trkpt lat="43.01311" lon="2.99157">
        <ele>50.2</ele>
        <time>2020-06-03T11:37:27.000Z</time>
      </trkpt>
      <trkpt lat="43.01313" lon="2.99152">
        <ele>49.6</ele>
        <time>2020-06-03T11:37:28.000Z</time>
      </trkpt>
      <trkpt lat="43.01316" lon="2.99151">
        <ele>49</ele>
        <time>2020-06-03T11:37:29.000Z</time>
      </trkpt>
      <trkpt lat="43.01318" lon="2.9915">
        <ele>48.6</ele>
        <time>2020-06-03T11:37:30.000Z</time>
      </trkpt>
      <trkpt lat="43.01321" lon="2.99147">
        <ele>48.2</ele>
        <time>2020-06-03T11:37:31.000Z</time>
      </trkpt>
      <trkpt lat="43.01322" lon="2.99145">
        <ele>47.6</ele>
        <time>2020-06-03T11:37:32.000Z</time>
      </trkpt>
      <trkpt lat="43.01322" lon="2.99142">
        <ele>47.2</ele>
        <time>2020-06-03T11:37:33.000Z</time>
      </trkpt>
      <trkpt lat="43.01323" lon="2.99139">
        <ele>46.8</ele>
        <time>2020-06-03T11:37:34.000Z</time>
      </trkpt>
      <trkpt lat="43.01324" lon="2.99135">
        <ele>46.8</ele>
        <time>2020-06-03T11:37:35.000Z</time>
      </trkpt>
      <trkpt lat="43.01325" lon="2.99129">
        <ele>46.8</ele>
        <time>2020-06-03T11:37:37.000Z</time>
      </trkpt>
      <trkpt lat="43.01325" lon="2.99119">
        <ele>47.2</ele>
        <time>2020-06-03T11:37:40.000Z</time>
      </trkpt>
      <trkpt lat="43.01324" lon="2.99115">
        <ele>47.6</ele>
        <time>2020-06-03T11:37:41.000Z</time>
      </trkpt>
      <trkpt lat="43.01324" lon="2.99113">
        <ele>48</ele>
        <time>2020-06-03T11:37:42.000Z</time>
      </trkpt>
      <trkpt lat="43.01325" lon="2.9911">
        <ele>48.4</ele>
        <time>2020-06-03T11:37:43.000Z</time>
      </trkpt>
      <trkpt lat="43.01326" lon="2.99107">
        <ele>49</ele>
        <time>2020-06-03T11:37:44.000Z</time>
      </trkpt>
      <trkpt lat="43.01328" lon="2.99097">
        <ele>49</ele>
        <time>2020-06-03T11:37:47.000Z</time>
      </trkpt>
      <trkpt lat="43.01325" lon="2.99084">
        <ele>49</ele>
        <time>2020-06-03T11:37:50.000Z</time>
      </trkpt>
      <trkpt lat="43.01324" lon="2.9908">
        <ele>49</ele>
        <time>2020-06-03T11:37:51.000Z</time>
      </trkpt>
      <trkpt lat="43.0132" lon="2.99072">
        <ele>49.4</ele>
        <time>2020-06-03T11:37:54.000Z</time>
      </trkpt>
      <trkpt lat="43.01318" lon="2.9907">
        <ele>49.8</ele>
        <time>2020-06-03T11:37:55.000Z</time>
      </trkpt>
      <trkpt lat="43.01317" lon="2.99069">
        <ele>50.2</ele>
        <time>2020-06-03T11:37:56.000Z</time>
      </trkpt>
      <trkpt lat="43.01316" lon="2.99067">
        <ele>50.6</ele>
        <time>2020-06-03T11:37:57.000Z</time>
      </trkpt>
      <trkpt lat="43.01315" lon="2.99065">
        <ele>51</ele>
        <time>2020-06-03T11:37:58.000Z</time>
      </trkpt>
      <trkpt lat="43.01316" lon="2.99063">
        <ele>51.4</ele>
        <time>2020-06-03T11:37:59.000Z</time>
      </trkpt>
      <trkpt lat="43.01317" lon="2.9906">
        <ele>51.8</ele>
        <time>2020-06-03T11:38:00.000Z</time>
      </trkpt>
      <trkpt lat="43.01318" lon="2.99059">
        <ele>52.2</ele>
        <time>2020-06-03T11:38:01.000Z</time>
      </trkpt>
      <trkpt lat="43.0132" lon="2.99056">
        <ele>52.6</ele>
        <time>2020-06-03T11:38:02.000Z</time>
      </trkpt>
      <trkpt lat="43.01321" lon="2.99054">
        <ele>53.2</ele>
        <time>2020-06-03T11:38:03.000Z</time>
      </trkpt>
      <trkpt lat="43.01322" lon="2.99052">
        <ele>53.6</ele>
        <time>2020-06-03T11:38:04.000Z</time>
      </trkpt>
      <trkpt lat="43.01322" lon="2.9905">
        <ele>54</ele>
        <time>2020-06-03T11:38:05.000Z</time>
      </trkpt>
      <trkpt lat="43.01323" lon="2.99049">
        <ele>54.6</ele>
        <time>2020-06-03T11:38:06.000Z</time>
      </trkpt>
      <trkpt lat="43.01323" lon="2.99049">
        <ele>55</ele>
        <time>2020-06-03T11:38:07.000Z</time>
      </trkpt>
      <trkpt lat="43.01324" lon="2.99048">
        <ele>55.6</ele>
        <time>2020-06-03T11:38:08.000Z</time>
      </trkpt>
      <trkpt lat="43.01326" lon="2.99047">
        <ele>56</ele>
        <time>2020-06-03T11:38:09.000Z</time>
      </trkpt>
      <trkpt lat="43.01328" lon="2.99045">
        <ele>56.4</ele>
        <time>2020-06-03T11:38:10.000Z</time>
      </trkpt>
      <trkpt lat="43.01331" lon="2.99042">
        <ele>57.4</ele>
        <time>2020-06-03T11:38:11.000Z</time>
      </trkpt>
      <trkpt lat="43.01333" lon="2.9904">
        <ele>57.8</ele>
        <time>2020-06-03T11:38:12.000Z</time>
      </trkpt>
      <trkpt lat="43.01334" lon="2.99032">
        <ele>57.2</ele>
        <time>2020-06-03T11:38:14.000Z</time>
      </trkpt>
      <trkpt lat="43.01335" lon="2.9903">
        <ele>56.8</ele>
        <time>2020-06-03T11:38:15.000Z</time>
      </trkpt>
      <trkpt lat="43.01336" lon="2.99028">
        <ele>56.2</ele>
        <time>2020-06-03T11:38:16.000Z</time>
      </trkpt>
      <trkpt lat="43.01337" lon="2.99028">
        <ele>55.6</ele>
        <time>2020-06-03T11:38:17.000Z</time>
      </trkpt>
      <trkpt lat="43.01338" lon="2.99026">
        <ele>55.2</ele>
        <time>2020-06-03T11:38:18.000Z</time>
      </trkpt>
      <trkpt lat="43.01339" lon="2.99025">
        <ele>54.8</ele>
        <time>2020-06-03T11:38:19.000Z</time>
      </trkpt>
      <trkpt lat="43.01339" lon="2.99023">
        <ele>54.2</ele>
        <time>2020-06-03T11:38:20.000Z</time>
      </trkpt>
      <trkpt lat="43.0134" lon="2.99022">
        <ele>53.8</ele>
        <time>2020-06-03T11:38:21.000Z</time>
      </trkpt>
      <trkpt lat="43.0134" lon="2.9902">
        <ele>53.4</ele>
        <time>2020-06-03T11:38:22.000Z</time>
      </trkpt>
      <trkpt lat="43.0134" lon="2.99018">
        <ele>52.8</ele>
        <time>2020-06-03T11:38:23.000Z</time>
      </trkpt>
      <trkpt lat="43.0134" lon="2.99017">
        <ele>52.4</ele>
        <time>2020-06-03T11:38:24.000Z</time>
      </trkpt>
      <trkpt lat="43.01338" lon="2.99016">
        <ele>51.8</ele>
        <time>2020-06-03T11:38:25.000Z</time>
      </trkpt>
      <trkpt lat="43.01338" lon="2.99015">
        <ele>51.4</ele>
        <time>2020-06-03T11:38:26.000Z</time>
      </trkpt>
      <trkpt lat="43.01337" lon="2.99014">
        <ele>50.8</ele>
        <time>2020-06-03T11:38:27.000Z</time>
      </trkpt>
      <trkpt lat="43.01332" lon="2.99016">
        <ele>50.8</ele>
        <time>2020-06-03T11:38:29.000Z</time>
      </trkpt>
      <trkpt lat="43.01329" lon="2.9902">
        <ele>50.8</ele>
        <time>2020-06-03T11:38:32.000Z</time>
      </trkpt>
      <trkpt lat="43.01328" lon="2.99021">
        <ele>50.8</ele>
        <time>2020-06-03T11:38:33.000Z</time>
      </trkpt>
      <trkpt lat="43.0132" lon="2.99015">
        <ele>50.8</ele>
        <time>2020-06-03T11:38:36.000Z</time>
      </trkpt>
      <trkpt lat="43.01319" lon="2.99016">
        <ele>50.8</ele>
        <time>2020-06-03T11:38:37.000Z</time>
      </trkpt>
      <trkpt lat="43.01316" lon="2.99017">
        <ele>50.8</ele>
        <time>2020-06-03T11:38:39.000Z</time>
      </trkpt>
      <trkpt lat="43.01312" lon="2.99018">
        <ele>50.4</ele>
        <time>2020-06-03T11:38:42.000Z</time>
      </trkpt>
      <trkpt lat="43.0131" lon="2.99018">
        <ele>50</ele>
        <time>2020-06-03T11:38:43.000Z</time>
      </trkpt>
      <trkpt lat="43.01308" lon="2.99019">
        <ele>49.6</ele>
        <time>2020-06-03T11:38:44.000Z</time>
      </trkpt>
      <trkpt lat="43.01305" lon="2.9902">
        <ele>49.2</ele>
        <time>2020-06-03T11:38:45.000Z</time>
      </trkpt>
      <trkpt lat="43.01303" lon="2.99019">
        <ele>48.6</ele>
        <time>2020-06-03T11:38:46.000Z</time>
      </trkpt>
      <trkpt lat="43.01301" lon="2.99017">
        <ele>48</ele>
        <time>2020-06-03T11:38:47.000Z</time>
      </trkpt>
      <trkpt lat="43.013" lon="2.99017">
        <ele>47.2</ele>
        <time>2020-06-03T11:38:48.000Z</time>
      </trkpt>
      <trkpt lat="43.013" lon="2.99014">
        <ele>46.6</ele>
        <time>2020-06-03T11:38:49.000Z</time>
      </trkpt>
      <trkpt lat="43.01301" lon="2.99011">
        <ele>45.8</ele>
        <time>2020-06-03T11:38:50.000Z</time>
      </trkpt>
      <trkpt lat="43.01302" lon="2.99008">
        <ele>45.2</ele>
        <time>2020-06-03T11:38:51.000Z</time>
      </trkpt>
      <trkpt lat="43.01302" lon="2.99003">
        <ele>44.4</ele>
        <time>2020-06-03T11:38:52.000Z</time>
      </trkpt>
      <trkpt lat="43.01303" lon="2.99">
        <ele>43.8</ele>
        <time>2020-06-03T11:38:53.000Z</time>
      </trkpt>
      <trkpt lat="43.01305" lon="2.98998">
        <ele>43.8</ele>
        <time>2020-06-03T11:38:54.000Z</time>
      </trkpt>
      <trkpt lat="43.01313" lon="2.98994">
        <ele>43.8</ele>
        <time>2020-06-03T11:38:59.000Z</time>
      </trkpt>
      <trkpt lat="43.01326" lon="2.98984">
        <ele>43.8</ele>
        <time>2020-06-03T11:39:05.000Z</time>
      </trkpt>
      <trkpt lat="43.01332" lon="2.98988">
        <ele>43.8</ele>
        <time>2020-06-03T11:39:08.000Z</time>
      </trkpt>
      <trkpt lat="43.01344" lon="2.98992">
        <ele>43.8</ele>
        <time>2020-06-03T11:39:13.000Z</time>
      </trkpt>
      <trkpt lat="43.01355" lon="2.99004">
        <ele>43.8</ele>
        <time>2020-06-03T11:39:18.000Z</time>
      </trkpt>
      <trkpt lat="43.01362" lon="2.99018">
        <ele>43.8</ele>
        <time>2020-06-03T11:39:22.000Z</time>
      </trkpt>
      <trkpt lat="43.01366" lon="2.9903">
        <ele>43.8</ele>
        <time>2020-06-03T11:39:25.000Z</time>
      </trkpt>
      <trkpt lat="43.01368" lon="2.99034">
        <ele>43.8</ele>
        <time>2020-06-03T11:39:26.000Z</time>
      </trkpt>
      <trkpt lat="43.01371" lon="2.99037">
        <ele>43.8</ele>
        <time>2020-06-03T11:39:27.000Z</time>
      </trkpt>
      <trkpt lat="43.01371" lon="2.99042">
        <ele>43.8</ele>
        <time>2020-06-03T11:39:29.000Z</time>
      </trkpt>
      <trkpt lat="43.01371" lon="2.99054">
        <ele>43.4</ele>
        <time>2020-06-03T11:39:33.000Z</time>
      </trkpt>
      <trkpt lat="43.01373" lon="2.99056">
        <ele>43</ele>
        <time>2020-06-03T11:39:34.000Z</time>
      </trkpt>
      <trkpt lat="43.01374" lon="2.99059">
        <ele>42.6</ele>
        <time>2020-06-03T11:39:35.000Z</time>
      </trkpt>
      <trkpt lat="43.01374" lon="2.99061">
        <ele>42.2</ele>
        <time>2020-06-03T11:39:36.000Z</time>
      </trkpt>
      <trkpt lat="43.01374" lon="2.99064">
        <ele>41.8</ele>
        <time>2020-06-03T11:39:37.000Z</time>
      </trkpt>
      <trkpt lat="43.01374" lon="2.99068">
        <ele>41.8</ele>
        <time>2020-06-03T11:39:38.000Z</time>
      </trkpt>
      <trkpt lat="43.01372" lon="2.99084">
        <ele>41.8</ele>
        <time>2020-06-03T11:39:42.000Z</time>
      </trkpt>
      <trkpt lat="43.01369" lon="2.99107">
        <ele>41.8</ele>
        <time>2020-06-03T11:39:46.000Z</time>
      </trkpt>
      <trkpt lat="43.01369" lon="2.99126">
        <ele>41.8</ele>
        <time>2020-06-03T11:39:51.000Z</time>
      </trkpt>
      <trkpt lat="43.01367" lon="2.9914">
        <ele>41.8</ele>
        <time>2020-06-03T11:39:55.000Z</time>
      </trkpt>
      <trkpt lat="43.01364" lon="2.99155">
        <ele>41.8</ele>
        <time>2020-06-03T11:39:59.000Z</time>
      </trkpt>
      <trkpt lat="43.0136" lon="2.9917">
        <ele>41.8</ele>
        <time>2020-06-03T11:40:02.000Z</time>
      </trkpt>
      <trkpt lat="43.01358" lon="2.9917">
        <ele>41.8</ele>
        <time>2020-06-03T11:40:03.000Z</time>
      </trkpt>
      <trkpt lat="43.01345" lon="2.99171">
        <ele>41.8</ele>
        <time>2020-06-03T11:40:07.000Z</time>
      </trkpt>
      <trkpt lat="43.01335" lon="2.99165">
        <ele>41.8</ele>
        <time>2020-06-03T11:40:11.000Z</time>
      </trkpt>
      <trkpt lat="43.01331" lon="2.99164">
        <ele>41.8</ele>
        <time>2020-06-03T11:40:13.000Z</time>
      </trkpt>
      <trkpt lat="43.01328" lon="2.99167">
        <ele>42.2</ele>
        <time>2020-06-03T11:40:15.000Z</time>
      </trkpt>
      <trkpt lat="43.01326" lon="2.99169">
        <ele>42.6</ele>
        <time>2020-06-03T11:40:16.000Z</time>
      </trkpt>
      <trkpt lat="43.01324" lon="2.99169">
        <ele>43</ele>
        <time>2020-06-03T11:40:17.000Z</time>
      </trkpt>
      <trkpt lat="43.01322" lon="2.9917">
        <ele>43.6</ele>
        <time>2020-06-03T11:40:18.000Z</time>
      </trkpt>
      <trkpt lat="43.0132" lon="2.99172">
        <ele>44</ele>
        <time>2020-06-03T11:40:19.000Z</time>
      </trkpt>
      <trkpt lat="43.01318" lon="2.99173">
        <ele>44.6</ele>
        <time>2020-06-03T11:40:20.000Z</time>
      </trkpt>
      <trkpt lat="43.01317" lon="2.99173">
        <ele>45</ele>
        <time>2020-06-03T11:40:21.000Z</time>
      </trkpt>
      <trkpt lat="43.01315" lon="2.99173">
        <ele>45.8</ele>
        <time>2020-06-03T11:40:22.000Z</time>
      </trkpt>
      <trkpt lat="43.01314" lon="2.99174">
        <ele>46.4</ele>
        <time>2020-06-03T11:40:23.000Z</time>
      </trkpt>
      <trkpt lat="43.01313" lon="2.99176">
        <ele>47</ele>
        <time>2020-06-03T11:40:24.000Z</time>
      </trkpt>
      <trkpt lat="43.01314" lon="2.9918">
        <ele>47.6</ele>
        <time>2020-06-03T11:40:25.000Z</time>
      </trkpt>
      <trkpt lat="43.01313" lon="2.99183">
        <ele>48.2</ele>
        <time>2020-06-03T11:40:26.000Z</time>
      </trkpt>
      <trkpt lat="43.01312" lon="2.99191">
        <ele>48.8</ele>
        <time>2020-06-03T11:40:29.000Z</time>
      </trkpt>
      <trkpt lat="43.01312" lon="2.99193">
        <ele>49.2</ele>
        <time>2020-06-03T11:40:30.000Z</time>
      </trkpt>
      <trkpt lat="43.01311" lon="2.99197">
        <ele>49.6</ele>
        <time>2020-06-03T11:40:31.000Z</time>
      </trkpt>
      <trkpt lat="43.01311" lon="2.992">
        <ele>50</ele>
        <time>2020-06-03T11:40:32.000Z</time>
      </trkpt>
      <trkpt lat="43.0131" lon="2.99202">
        <ele>50.4</ele>
        <time>2020-06-03T11:40:33.000Z</time>
      </trkpt>
      <trkpt lat="43.01308" lon="2.99206">
        <ele>50.4</ele>
        <time>2020-06-03T11:40:35.000Z</time>
      </trkpt>
      <trkpt lat="43.01306" lon="2.99207">
        <ele>50.8</ele>
        <time>2020-06-03T11:40:36.000Z</time>
      </trkpt>
      <trkpt lat="43.01305" lon="2.9921">
        <ele>51.2</ele>
        <time>2020-06-03T11:40:37.000Z</time>
      </trkpt>
      <trkpt lat="43.01304" lon="2.99214">
        <ele>51.8</ele>
        <time>2020-06-03T11:40:38.000Z</time>
      </trkpt>
      <trkpt lat="43.01302" lon="2.99217">
        <ele>52.6</ele>
        <time>2020-06-03T11:40:39.000Z</time>
      </trkpt>
      <trkpt lat="43.01301" lon="2.9922">
        <ele>52.6</ele>
        <time>2020-06-03T11:40:40.000Z</time>
      </trkpt>
      <trkpt lat="43.01297" lon="2.99235">
        <ele>53</ele>
        <time>2020-06-03T11:40:45.000Z</time>
      </trkpt>
      <trkpt lat="43.01296" lon="2.99237">
        <ele>53.4</ele>
        <time>2020-06-03T11:40:46.000Z</time>
      </trkpt>
      <trkpt lat="43.01295" lon="2.9924">
        <ele>53.8</ele>
        <time>2020-06-03T11:40:47.000Z</time>
      </trkpt>
      <trkpt lat="43.01295" lon="2.99243">
        <ele>54.2</ele>
        <time>2020-06-03T11:40:48.000Z</time>
      </trkpt>
      <trkpt lat="43.01296" lon="2.99246">
        <ele>54.6</ele>
        <time>2020-06-03T11:40:49.000Z</time>
      </trkpt>
      <trkpt lat="43.01288" lon="2.9926">
        <ele>54.6</ele>
        <time>2020-06-03T11:40:54.000Z</time>
      </trkpt>
      <trkpt lat="43.01282" lon="2.99275">
        <ele>54.6</ele>
        <time>2020-06-03T11:40:58.000Z</time>
      </trkpt>
      <trkpt lat="43.01267" lon="2.99292">
        <ele>54.6</ele>
        <time>2020-06-03T11:41:04.000Z</time>
      </trkpt>
      <trkpt lat="43.0126" lon="2.99302">
        <ele>54.6</ele>
        <time>2020-06-03T11:41:08.000Z</time>
      </trkpt>
      <trkpt lat="43.01248" lon="2.99317">
        <ele>54.6</ele>
        <time>2020-06-03T11:41:13.000Z</time>
      </trkpt>
      <trkpt lat="43.01238" lon="2.99332">
        <ele>54.6</ele>
        <time>2020-06-03T11:41:17.000Z</time>
      </trkpt>
      <trkpt lat="43.01231" lon="2.99338">
        <ele>54.6</ele>
        <time>2020-06-03T11:41:21.000Z</time>
      </trkpt>
      <trkpt lat="43.0122" lon="2.99343">
        <ele>54.6</ele>
        <time>2020-06-03T11:41:25.000Z</time>
      </trkpt>
      <trkpt lat="43.01217" lon="2.99348">
        <ele>54.6</ele>
        <time>2020-06-03T11:41:26.000Z</time>
      </trkpt>
      <trkpt lat="43.01214" lon="2.99353">
        <ele>54.6</ele>
        <time>2020-06-03T11:41:28.000Z</time>
      </trkpt>
      <trkpt lat="43.01211" lon="2.99362">
        <ele>54.2</ele>
        <time>2020-06-03T11:41:31.000Z</time>
      </trkpt>
      <trkpt lat="43.01209" lon="2.99367">
        <ele>53.8</ele>
        <time>2020-06-03T11:41:32.000Z</time>
      </trkpt>
      <trkpt lat="43.01208" lon="2.9937">
        <ele>53.4</ele>
        <time>2020-06-03T11:41:33.000Z</time>
      </trkpt>
      <trkpt lat="43.01207" lon="2.99373">
        <ele>53</ele>
        <time>2020-06-03T11:41:34.000Z</time>
      </trkpt>
      <trkpt lat="43.01207" lon="2.99375">
        <ele>53.4</ele>
        <time>2020-06-03T11:41:35.000Z</time>
      </trkpt>
      <trkpt lat="43.01206" lon="2.99377">
        <ele>53.8</ele>
        <time>2020-06-03T11:41:36.000Z</time>
      </trkpt>
      <trkpt lat="43.01206" lon="2.9938">
        <ele>54.2</ele>
        <time>2020-06-03T11:41:37.000Z</time>
      </trkpt>
      <trkpt lat="43.01205" lon="2.99383">
        <ele>54.6</ele>
        <time>2020-06-03T11:41:38.000Z</time>
      </trkpt>
      <trkpt lat="43.01203" lon="2.99386">
        <ele>55.2</ele>
        <time>2020-06-03T11:41:39.000Z</time>
      </trkpt>
      <trkpt lat="43.01202" lon="2.99388">
        <ele>55.6</ele>
        <time>2020-06-03T11:41:40.000Z</time>
      </trkpt>
      <trkpt lat="43.01201" lon="2.99389">
        <ele>56</ele>
        <time>2020-06-03T11:41:41.000Z</time>
      </trkpt>
      <trkpt lat="43.012" lon="2.99388">
        <ele>56.4</ele>
        <time>2020-06-03T11:41:42.000Z</time>
      </trkpt>
      <trkpt lat="43.01198" lon="2.99387">
        <ele>56.8</ele>
        <time>2020-06-03T11:41:43.000Z</time>
      </trkpt>
      <trkpt lat="43.01196" lon="2.99386">
        <ele>57.2</ele>
        <time>2020-06-03T11:41:44.000Z</time>
      </trkpt>
      <trkpt lat="43.01194" lon="2.99386">
        <ele>57.2</ele>
        <time>2020-06-03T11:41:45.000Z</time>
      </trkpt>
      <trkpt lat="43.01188" lon="2.99384">
        <ele>57.2</ele>
        <time>2020-06-03T11:41:48.000Z</time>
      </trkpt>
      <trkpt lat="43.01183" lon="2.99385">
        <ele>57.2</ele>
        <time>2020-06-03T11:41:51.000Z</time>
      </trkpt>
      <trkpt lat="43.01181" lon="2.99389">
        <ele>57.2</ele>
        <time>2020-06-03T11:41:53.000Z</time>
      </trkpt>
      <trkpt lat="43.01174" lon="2.99394">
        <ele>57.6</ele>
        <time>2020-06-03T11:41:56.000Z</time>
      </trkpt>
      <trkpt lat="43.01174" lon="2.99396">
        <ele>58.2</ele>
        <time>2020-06-03T11:41:57.000Z</time>
      </trkpt>
      <trkpt lat="43.01173" lon="2.99396">
        <ele>58.6</ele>
        <time>2020-06-03T11:41:58.000Z</time>
      </trkpt>
      <trkpt lat="43.01172" lon="2.99399">
        <ele>59</ele>
        <time>2020-06-03T11:41:59.000Z</time>
      </trkpt>
      <trkpt lat="43.0117" lon="2.99402">
        <ele>59.6</ele>
        <time>2020-06-03T11:42:00.000Z</time>
      </trkpt>
      <trkpt lat="43.01169" lon="2.99406">
        <ele>59.6</ele>
        <time>2020-06-03T11:42:01.000Z</time>
      </trkpt>
      <trkpt lat="43.01163" lon="2.99419">
        <ele>60</ele>
        <time>2020-06-03T11:42:05.000Z</time>
      </trkpt>
      <trkpt lat="43.01162" lon="2.9942">
        <ele>60.4</ele>
        <time>2020-06-03T11:42:06.000Z</time>
      </trkpt>
      <trkpt lat="43.0116" lon="2.99422">
        <ele>60.8</ele>
        <time>2020-06-03T11:42:07.000Z</time>
      </trkpt>
      <trkpt lat="43.01158" lon="2.99426">
        <ele>61.2</ele>
        <time>2020-06-03T11:42:08.000Z</time>
      </trkpt>
      <trkpt lat="43.01157" lon="2.99428">
        <ele>61.6</ele>
        <time>2020-06-03T11:42:09.000Z</time>
      </trkpt>
      <trkpt lat="43.01156" lon="2.99432">
        <ele>61.6</ele>
        <time>2020-06-03T11:42:10.000Z</time>
      </trkpt>
      <trkpt lat="43.01151" lon="2.99437">
        <ele>62</ele>
        <time>2020-06-03T11:42:12.000Z</time>
      </trkpt>
      <trkpt lat="43.01148" lon="2.99439">
        <ele>62.4</ele>
        <time>2020-06-03T11:42:13.000Z</time>
      </trkpt>
      <trkpt lat="43.01146" lon="2.99441">
        <ele>62.8</ele>
        <time>2020-06-03T11:42:14.000Z</time>
      </trkpt>
      <trkpt lat="43.01143" lon="2.99443">
        <ele>63.4</ele>
        <time>2020-06-03T11:42:15.000Z</time>
      </trkpt>
      <trkpt lat="43.0114" lon="2.99446">
        <ele>63.8</ele>
        <time>2020-06-03T11:42:16.000Z</time>
      </trkpt>
      <trkpt lat="43.01136" lon="2.99453">
        <ele>63.8</ele>
        <time>2020-06-03T11:42:18.000Z</time>
      </trkpt>
      <trkpt lat="43.01125" lon="2.99458">
        <ele>63.8</ele>
        <time>2020-06-03T11:42:22.000Z</time>
      </trkpt>
      <trkpt lat="43.01118" lon="2.99458">
        <ele>64.2</ele>
        <time>2020-06-03T11:42:25.000Z</time>
      </trkpt>
      <trkpt lat="43.01115" lon="2.99457">
        <ele>64.6</ele>
        <time>2020-06-03T11:42:26.000Z</time>
      </trkpt>
      <trkpt lat="43.01112" lon="2.99458">
        <ele>65</ele>
        <time>2020-06-03T11:42:27.000Z</time>
      </trkpt>
      <trkpt lat="43.01109" lon="2.99458">
        <ele>65.4</ele>
        <time>2020-06-03T11:42:28.000Z</time>
      </trkpt>
      <trkpt lat="43.01106" lon="2.9946">
        <ele>65.8</ele>
        <time>2020-06-03T11:42:29.000Z</time>
      </trkpt>
      <trkpt lat="43.01098" lon="2.99459">
        <ele>65.8</ele>
        <time>2020-06-03T11:42:31.000Z</time>
      </trkpt>
      <trkpt lat="43.01086" lon="2.99468">
        <ele>65.8</ele>
        <time>2020-06-03T11:42:35.000Z</time>
      </trkpt>
      <trkpt lat="43.01076" lon="2.99471">
        <ele>65.8</ele>
        <time>2020-06-03T11:42:38.000Z</time>
      </trkpt>
      <trkpt lat="43.01073" lon="2.99468">
        <ele>65.8</ele>
        <time>2020-06-03T11:42:39.000Z</time>
      </trkpt>
      <trkpt lat="43.01068" lon="2.99456">
        <ele>66.2</ele>
        <time>2020-06-03T11:42:42.000Z</time>
      </trkpt>
      <trkpt lat="43.01068" lon="2.99451">
        <ele>67</ele>
        <time>2020-06-03T11:42:43.000Z</time>
      </trkpt>
      <trkpt lat="43.01068" lon="2.99445">
        <ele>67.4</ele>
        <time>2020-06-03T11:42:44.000Z</time>
      </trkpt>
      <trkpt lat="43.01068" lon="2.99441">
        <ele>67.8</ele>
        <time>2020-06-03T11:42:45.000Z</time>
      </trkpt>
      <trkpt lat="43.01063" lon="2.99432">
        <ele>67.8</ele>
        <time>2020-06-03T11:42:47.000Z</time>
      </trkpt>
      <trkpt lat="43.01061" lon="2.99429">
        <ele>67.8</ele>
        <time>2020-06-03T11:42:48.000Z</time>
      </trkpt>
      <trkpt lat="43.01061" lon="2.99426">
        <ele>67.8</ele>
        <time>2020-06-03T11:42:49.000Z</time>
      </trkpt>
      <trkpt lat="43.01057" lon="2.9942">
        <ele>67.8</ele>
        <time>2020-06-03T11:42:51.000Z</time>
      </trkpt>
      <trkpt lat="43.01047" lon="2.99414">
        <ele>67.8</ele>
        <time>2020-06-03T11:42:54.000Z</time>
      </trkpt>
      <trkpt lat="43.01034" lon="2.99408">
        <ele>67.8</ele>
        <time>2020-06-03T11:42:57.000Z</time>
      </trkpt>
      <trkpt lat="43.01027" lon="2.99407">
        <ele>67.8</ele>
        <time>2020-06-03T11:42:59.000Z</time>
      </trkpt>
      <trkpt lat="43.01008" lon="2.99412">
        <ele>67.8</ele>
        <time>2020-06-03T11:43:05.000Z</time>
      </trkpt>
      <trkpt lat="43.01001" lon="2.99416">
        <ele>68.6</ele>
        <time>2020-06-03T11:43:08.000Z</time>
      </trkpt>
      <trkpt lat="43.00999" lon="2.99418">
        <ele>69.2</ele>
        <time>2020-06-03T11:43:09.000Z</time>
      </trkpt>
      <trkpt lat="43.00995" lon="2.99418">
        <ele>69.6</ele>
        <time>2020-06-03T11:43:10.000Z</time>
      </trkpt>
      <trkpt lat="43.00994" lon="2.99419">
        <ele>70</ele>
        <time>2020-06-03T11:43:11.000Z</time>
      </trkpt>
      <trkpt lat="43.0099" lon="2.99423">
        <ele>70.4</ele>
        <time>2020-06-03T11:43:13.000Z</time>
      </trkpt>
      <trkpt lat="43.00987" lon="2.99427">
        <ele>71</ele>
        <time>2020-06-03T11:43:14.000Z</time>
      </trkpt>
      <trkpt lat="43.00984" lon="2.99429">
        <ele>71.4</ele>
        <time>2020-06-03T11:43:15.000Z</time>
      </trkpt>
      <trkpt lat="43.00981" lon="2.99431">
        <ele>72</ele>
        <time>2020-06-03T11:43:16.000Z</time>
      </trkpt>
      <trkpt lat="43.00979" lon="2.99433">
        <ele>72.4</ele>
        <time>2020-06-03T11:43:17.000Z</time>
      </trkpt>
      <trkpt lat="43.00972" lon="2.99435">
        <ele>72.4</ele>
        <time>2020-06-03T11:43:20.000Z</time>
      </trkpt>
      <trkpt lat="43.0097" lon="2.99437">
        <ele>72.8</ele>
        <time>2020-06-03T11:43:21.000Z</time>
      </trkpt>
      <trkpt lat="43.00967" lon="2.99438">
        <ele>73.2</ele>
        <time>2020-06-03T11:43:22.000Z</time>
      </trkpt>
      <trkpt lat="43.00965" lon="2.99438">
        <ele>73.6</ele>
        <time>2020-06-03T11:43:23.000Z</time>
      </trkpt>
      <trkpt lat="43.00962" lon="2.99437">
        <ele>74.2</ele>
        <time>2020-06-03T11:43:24.000Z</time>
      </trkpt>
      <trkpt lat="43.0096" lon="2.99437">
        <ele>74.6</ele>
        <time>2020-06-03T11:43:25.000Z</time>
      </trkpt>
      <trkpt lat="43.00949" lon="2.99433">
        <ele>75</ele>
        <time>2020-06-03T11:43:29.000Z</time>
      </trkpt>
      <trkpt lat="43.00947" lon="2.99431">
        <ele>75.4</ele>
        <time>2020-06-03T11:43:30.000Z</time>
      </trkpt>
      <trkpt lat="43.00945" lon="2.99428">
        <ele>75.8</ele>
        <time>2020-06-03T11:43:31.000Z</time>
      </trkpt>
      <trkpt lat="43.00942" lon="2.99425">
        <ele>76.2</ele>
        <time>2020-06-03T11:43:32.000Z</time>
      </trkpt>
      <trkpt lat="43.0094" lon="2.9942">
        <ele>76.6</ele>
        <time>2020-06-03T11:43:33.000Z</time>
      </trkpt>
      <trkpt lat="43.00937" lon="2.99412">
        <ele>76.6</ele>
        <time>2020-06-03T11:43:35.000Z</time>
      </trkpt>
      <trkpt lat="43.00929" lon="2.99395">
        <ele>76.6</ele>
        <time>2020-06-03T11:43:39.000Z</time>
      </trkpt>
      <trkpt lat="43.00926" lon="2.99385">
        <ele>76.6</ele>
        <time>2020-06-03T11:43:41.000Z</time>
      </trkpt>
      <trkpt lat="43.00923" lon="2.99369">
        <ele>76.6</ele>
        <time>2020-06-03T11:43:44.000Z</time>
      </trkpt>
      <trkpt lat="43.00915" lon="2.99345">
        <ele>76.6</ele>
        <time>2020-06-03T11:43:49.000Z</time>
      </trkpt>
      <trkpt lat="43.0092" lon="2.99331">
        <ele>76.6</ele>
        <time>2020-06-03T11:43:52.000Z</time>
      </trkpt>
      <trkpt lat="43.0092" lon="2.99325">
        <ele>76.6</ele>
        <time>2020-06-03T11:43:53.000Z</time>
      </trkpt>
      <trkpt lat="43.00919" lon="2.99321">
        <ele>76.2</ele>
        <time>2020-06-03T11:43:54.000Z</time>
      </trkpt>
      <trkpt lat="43.00917" lon="2.99317">
        <ele>75.8</ele>
        <time>2020-06-03T11:43:55.000Z</time>
      </trkpt>
      <trkpt lat="43.00915" lon="2.99316">
        <ele>75.4</ele>
        <time>2020-06-03T11:43:56.000Z</time>
      </trkpt>
      <trkpt lat="43.00914" lon="2.99314">
        <ele>74.4</ele>
        <time>2020-06-03T11:43:57.000Z</time>
      </trkpt>
      <trkpt lat="43.00914" lon="2.99311">
        <ele>74.4</ele>
        <time>2020-06-03T11:43:58.000Z</time>
      </trkpt>
      <trkpt lat="43.00914" lon="2.99307">
        <ele>74.4</ele>
        <time>2020-06-03T11:43:59.000Z</time>
      </trkpt>
      <trkpt lat="43.00918" lon="2.993">
        <ele>74.4</ele>
        <time>2020-06-03T11:44:02.000Z</time>
      </trkpt>
      <trkpt lat="43.00919" lon="2.99299">
        <ele>74.4</ele>
        <time>2020-06-03T11:44:03.000Z</time>
      </trkpt>
      <trkpt lat="43.00927" lon="2.99288">
        <ele>74.4</ele>
        <time>2020-06-03T11:44:07.000Z</time>
      </trkpt>
      <trkpt lat="43.00939" lon="2.99271">
        <ele>74.4</ele>
        <time>2020-06-03T11:44:12.000Z</time>
      </trkpt>
      <trkpt lat="43.00942" lon="2.99259">
        <ele>74.4</ele>
        <time>2020-06-03T11:44:15.000Z</time>
      </trkpt>
      <trkpt lat="43.00942" lon="2.99255">
        <ele>74.4</ele>
        <time>2020-06-03T11:44:16.000Z</time>
      </trkpt>
      <trkpt lat="43.00935" lon="2.99239">
        <ele>74.4</ele>
        <time>2020-06-03T11:44:20.000Z</time>
      </trkpt>
      <trkpt lat="43.00933" lon="2.99237">
        <ele>74.4</ele>
        <time>2020-06-03T11:44:21.000Z</time>
      </trkpt>
      <trkpt lat="43.00924" lon="2.99237">
        <ele>74.4</ele>
        <time>2020-06-03T11:44:25.000Z</time>
      </trkpt>
      <trkpt lat="43.00923" lon="2.9924">
        <ele>74.4</ele>
        <time>2020-06-03T11:44:26.000Z</time>
      </trkpt>
      <trkpt lat="43.0092" lon="2.99252">
        <ele>74.4</ele>
        <time>2020-06-03T11:44:30.000Z</time>
      </trkpt>
      <trkpt lat="43.00916" lon="2.99259">
        <ele>74.4</ele>
        <time>2020-06-03T11:44:34.000Z</time>
      </trkpt>
      <trkpt lat="43.0091" lon="2.99258">
        <ele>72.6</ele>
        <time>2020-06-03T11:44:42.000Z</time>
      </trkpt>
      <trkpt lat="43.0091" lon="2.99257">
        <ele>72</ele>
        <time>2020-06-03T11:44:43.000Z</time>
      </trkpt>
      <trkpt lat="43.00908" lon="2.99257">
        <ele>71.4</ele>
        <time>2020-06-03T11:44:44.000Z</time>
      </trkpt>
      <trkpt lat="43.00905" lon="2.99258">
        <ele>70.8</ele>
        <time>2020-06-03T11:44:45.000Z</time>
      </trkpt>
      <trkpt lat="43.00902" lon="2.99257">
        <ele>69.6</ele>
        <time>2020-06-03T11:44:46.000Z</time>
      </trkpt>
      <trkpt lat="43.009" lon="2.99255">
        <ele>69</ele>
        <time>2020-06-03T11:44:47.000Z</time>
      </trkpt>
      <trkpt lat="43.00897" lon="2.99255">
        <ele>68.2</ele>
        <time>2020-06-03T11:44:48.000Z</time>
      </trkpt>
      <trkpt lat="43.00895" lon="2.99256">
        <ele>67.6</ele>
        <time>2020-06-03T11:44:49.000Z</time>
      </trkpt>
      <trkpt lat="43.00894" lon="2.99255">
        <ele>66.8</ele>
        <time>2020-06-03T11:44:50.000Z</time>
      </trkpt>
      <trkpt lat="43.00893" lon="2.99254">
        <ele>66.2</ele>
        <time>2020-06-03T11:44:51.000Z</time>
      </trkpt>
      <trkpt lat="43.00892" lon="2.99255">
        <ele>65.4</ele>
        <time>2020-06-03T11:44:52.000Z</time>
      </trkpt>
      <trkpt lat="43.00891" lon="2.99255">
        <ele>64.8</ele>
        <time>2020-06-03T11:44:53.000Z</time>
      </trkpt>
      <trkpt lat="43.00891" lon="2.99253">
        <ele>64.2</ele>
        <time>2020-06-03T11:44:54.000Z</time>
      </trkpt>
      <trkpt lat="43.0089" lon="2.99251">
        <ele>63.6</ele>
        <time>2020-06-03T11:44:55.000Z</time>
      </trkpt>
      <trkpt lat="43.00888" lon="2.99251">
        <ele>62.8</ele>
        <time>2020-06-03T11:44:56.000Z</time>
      </trkpt>
      <trkpt lat="43.00879" lon="2.99255">
        <ele>59.4</ele>
        <time>2020-06-03T11:45:00.000Z</time>
      </trkpt>
      <trkpt lat="43.00876" lon="2.99255">
        <ele>58.6</ele>
        <time>2020-06-03T11:45:01.000Z</time>
      </trkpt>
      <trkpt lat="43.00872" lon="2.99252">
        <ele>57.8</ele>
        <time>2020-06-03T11:45:02.000Z</time>
      </trkpt>
      <trkpt lat="43.00869" lon="2.99248">
        <ele>57</ele>
        <time>2020-06-03T11:45:03.000Z</time>
      </trkpt>
      <trkpt lat="43.00867" lon="2.99246">
        <ele>56</ele>
        <time>2020-06-03T11:45:04.000Z</time>
      </trkpt>
      <trkpt lat="43.00864" lon="2.99243">
        <ele>55.2</ele>
        <time>2020-06-03T11:45:05.000Z</time>
      </trkpt>
      <trkpt lat="43.00861" lon="2.99239">
        <ele>54.4</ele>
        <time>2020-06-03T11:45:06.000Z</time>
      </trkpt>
      <trkpt lat="43.00856" lon="2.99232">
        <ele>53.8</ele>
        <time>2020-06-03T11:45:08.000Z</time>
      </trkpt>
      <trkpt lat="43.00851" lon="2.99233">
        <ele>53.4</ele>
        <time>2020-06-03T11:45:09.000Z</time>
      </trkpt>
      <trkpt lat="43.0085" lon="2.9923">
        <ele>52.8</ele>
        <time>2020-06-03T11:45:10.000Z</time>
      </trkpt>
      <trkpt lat="43.00849" lon="2.99225">
        <ele>51.6</ele>
        <time>2020-06-03T11:45:11.000Z</time>
      </trkpt>
      <trkpt lat="43.00851" lon="2.99216">
        <ele>51.6</ele>
        <time>2020-06-03T11:45:13.000Z</time>
      </trkpt>
      <trkpt lat="43.00852" lon="2.99212">
        <ele>51.6</ele>
        <time>2020-06-03T11:45:14.000Z</time>
      </trkpt>
      <trkpt lat="43.00852" lon="2.99208">
        <ele>51.6</ele>
        <time>2020-06-03T11:45:15.000Z</time>
      </trkpt>
      <trkpt lat="43.00851" lon="2.99198">
        <ele>51.6</ele>
        <time>2020-06-03T11:45:17.000Z</time>
      </trkpt>
      <trkpt lat="43.00852" lon="2.99193">
        <ele>51.2</ele>
        <time>2020-06-03T11:45:18.000Z</time>
      </trkpt>
      <trkpt lat="43.00853" lon="2.99188">
        <ele>50.8</ele>
        <time>2020-06-03T11:45:19.000Z</time>
      </trkpt>
      <trkpt lat="43.00855" lon="2.99182">
        <ele>50.2</ele>
        <time>2020-06-03T11:45:20.000Z</time>
      </trkpt>
      <trkpt lat="43.00856" lon="2.99176">
        <ele>49.8</ele>
        <time>2020-06-03T11:45:21.000Z</time>
      </trkpt>
      <trkpt lat="43.00858" lon="2.99171">
        <ele>49.2</ele>
        <time>2020-06-03T11:45:22.000Z</time>
      </trkpt>
      <trkpt lat="43.0086" lon="2.99167">
        <ele>49.2</ele>
        <time>2020-06-03T11:45:23.000Z</time>
      </trkpt>
      <trkpt lat="43.00862" lon="2.99164">
        <ele>49.2</ele>
        <time>2020-06-03T11:45:24.000Z</time>
      </trkpt>
      <trkpt lat="43.0087" lon="2.99145">
        <ele>49.2</ele>
        <time>2020-06-03T11:45:28.000Z</time>
      </trkpt>
      <trkpt lat="43.00884" lon="2.99133">
        <ele>49.2</ele>
        <time>2020-06-03T11:45:32.000Z</time>
      </trkpt>
      <trkpt lat="43.00891" lon="2.99124">
        <ele>49.2</ele>
        <time>2020-06-03T11:45:35.000Z</time>
      </trkpt>
      <trkpt lat="43.00893" lon="2.99121">
        <ele>48.8</ele>
        <time>2020-06-03T11:45:36.000Z</time>
      </trkpt>
      <trkpt lat="43.00896" lon="2.99119">
        <ele>48.4</ele>
        <time>2020-06-03T11:45:37.000Z</time>
      </trkpt>
      <trkpt lat="43.00899" lon="2.99117">
        <ele>48</ele>
        <time>2020-06-03T11:45:38.000Z</time>
      </trkpt>
      <trkpt lat="43.00902" lon="2.99116">
        <ele>47.6</ele>
        <time>2020-06-03T11:45:39.000Z</time>
      </trkpt>
      <trkpt lat="43.00906" lon="2.99114">
        <ele>47</ele>
        <time>2020-06-03T11:45:40.000Z</time>
      </trkpt>
      <trkpt lat="43.00915" lon="2.99105">
        <ele>47</ele>
        <time>2020-06-03T11:45:43.000Z</time>
      </trkpt>
      <trkpt lat="43.00927" lon="2.9909">
        <ele>47</ele>
        <time>2020-06-03T11:45:47.000Z</time>
      </trkpt>
      <trkpt lat="43.00939" lon="2.99082">
        <ele>46.6</ele>
        <time>2020-06-03T11:45:51.000Z</time>
      </trkpt>
      <trkpt lat="43.00942" lon="2.99079">
        <ele>46.2</ele>
        <time>2020-06-03T11:45:52.000Z</time>
      </trkpt>
      <trkpt lat="43.00945" lon="2.99076">
        <ele>45.8</ele>
        <time>2020-06-03T11:45:53.000Z</time>
      </trkpt>
      <trkpt lat="43.00947" lon="2.99073">
        <ele>45.4</ele>
        <time>2020-06-03T11:45:54.000Z</time>
      </trkpt>
      <trkpt lat="43.00949" lon="2.99071">
        <ele>45</ele>
        <time>2020-06-03T11:45:55.000Z</time>
      </trkpt>
      <trkpt lat="43.00951" lon="2.9907">
        <ele>45</ele>
        <time>2020-06-03T11:45:56.000Z</time>
      </trkpt>
      <trkpt lat="43.00958" lon="2.99064">
        <ele>45</ele>
        <time>2020-06-03T11:46:01.000Z</time>
      </trkpt>
      <trkpt lat="43.00959" lon="2.99063">
        <ele>45</ele>
        <time>2020-06-03T11:46:02.000Z</time>
      </trkpt>
      <trkpt lat="43.00964" lon="2.99057">
        <ele>45</ele>
        <time>2020-06-03T11:46:06.000Z</time>
      </trkpt>
      <trkpt lat="43.00976" lon="2.99054">
        <ele>45</ele>
        <time>2020-06-03T11:46:11.000Z</time>
      </trkpt>
      <trkpt lat="43.00982" lon="2.99054">
        <ele>45</ele>
        <time>2020-06-03T11:46:13.000Z</time>
      </trkpt>
      <trkpt lat="43.00986" lon="2.99058">
        <ele>45</ele>
        <time>2020-06-03T11:46:15.000Z</time>
      </trkpt>
      <trkpt lat="43.00995" lon="2.99056">
        <ele>45</ele>
        <time>2020-06-03T11:46:19.000Z</time>
      </trkpt>
      <trkpt lat="43.01008" lon="2.99063">
        <ele>45</ele>
        <time>2020-06-03T11:46:23.000Z</time>
      </trkpt>
      <trkpt lat="43.01013" lon="2.99069">
        <ele>45</ele>
        <time>2020-06-03T11:46:25.000Z</time>
      </trkpt>
      <trkpt lat="43.01021" lon="2.99082">
        <ele>45</ele>
        <time>2020-06-03T11:46:29.000Z</time>
      </trkpt>
      <trkpt lat="43.01036" lon="2.99103">
        <ele>45</ele>
        <time>2020-06-03T11:46:35.000Z</time>
      </trkpt>
      <trkpt lat="43.01055" lon="2.99128">
        <ele>45</ele>
        <time>2020-06-03T11:46:42.000Z</time>
      </trkpt>
      <trkpt lat="43.01068" lon="2.99148">
        <ele>45</ele>
        <time>2020-06-03T11:46:48.000Z</time>
      </trkpt>
      <trkpt lat="43.01087" lon="2.99174">
        <ele>45</ele>
        <time>2020-06-03T11:46:56.000Z</time>
      </trkpt>
      <trkpt lat="43.01087" lon="2.99176">
        <ele>45</ele>
        <time>2020-06-03T11:46:57.000Z</time>
      </trkpt>
      <trkpt lat="43.01085" lon="2.99183">
        <ele>45</ele>
        <time>2020-06-03T11:47:00.000Z</time>
      </trkpt>
      <trkpt lat="43.01082" lon="2.99185">
        <ele>45</ele>
        <time>2020-06-03T11:47:02.000Z</time>
      </trkpt>
      <trkpt lat="43.01073" lon="2.99195">
        <ele>45</ele>
        <time>2020-06-03T11:47:07.000Z</time>
      </trkpt>
      <trkpt lat="43.01071" lon="2.99199">
        <ele>45.4</ele>
        <time>2020-06-03T11:47:09.000Z</time>
      </trkpt>
      <trkpt lat="43.0107" lon="2.99201">
        <ele>46</ele>
        <time>2020-06-03T11:47:10.000Z</time>
      </trkpt>
      <trkpt lat="43.01069" lon="2.99203">
        <ele>46.4</ele>
        <time>2020-06-03T11:47:11.000Z</time>
      </trkpt>
      <trkpt lat="43.01068" lon="2.99205">
        <ele>46.8</ele>
        <time>2020-06-03T11:47:12.000Z</time>
      </trkpt>
      <trkpt lat="43.01067" lon="2.99207">
        <ele>47.2</ele>
        <time>2020-06-03T11:47:13.000Z</time>
      </trkpt>
      <trkpt lat="43.01064" lon="2.9921">
        <ele>48</ele>
        <time>2020-06-03T11:47:15.000Z</time>
      </trkpt>
      <trkpt lat="43.01061" lon="2.99212">
        <ele>48.4</ele>
        <time>2020-06-03T11:47:16.000Z</time>
      </trkpt>
      <trkpt lat="43.01059" lon="2.99213">
        <ele>49</ele>
        <time>2020-06-03T11:47:17.000Z</time>
      </trkpt>
      <trkpt lat="43.01057" lon="2.99215">
        <ele>49.4</ele>
        <time>2020-06-03T11:47:18.000Z</time>
      </trkpt>
      <trkpt lat="43.01048" lon="2.9922">
        <ele>49.4</ele>
        <time>2020-06-03T11:47:23.000Z</time>
      </trkpt>
      <trkpt lat="43.01046" lon="2.99221">
        <ele>49.8</ele>
        <time>2020-06-03T11:47:24.000Z</time>
      </trkpt>
      <trkpt lat="43.01044" lon="2.99222">
        <ele>50.2</ele>
        <time>2020-06-03T11:47:25.000Z</time>
      </trkpt>
      <trkpt lat="43.01042" lon="2.99224">
        <ele>50.6</ele>
        <time>2020-06-03T11:47:26.000Z</time>
      </trkpt>
      <trkpt lat="43.01041" lon="2.99225">
        <ele>51</ele>
        <time>2020-06-03T11:47:27.000Z</time>
      </trkpt>
      <trkpt lat="43.01038" lon="2.99227">
        <ele>51.4</ele>
        <time>2020-06-03T11:47:28.000Z</time>
      </trkpt>
      <trkpt lat="43.0103" lon="2.99232">
        <ele>52</ele>
        <time>2020-06-03T11:47:32.000Z</time>
      </trkpt>
      <trkpt lat="43.01028" lon="2.99233">
        <ele>52.4</ele>
        <time>2020-06-03T11:47:33.000Z</time>
      </trkpt>
      <trkpt lat="43.01026" lon="2.99234">
        <ele>52.8</ele>
        <time>2020-06-03T11:47:34.000Z</time>
      </trkpt>
      <trkpt lat="43.01024" lon="2.99235">
        <ele>53.4</ele>
        <time>2020-06-03T11:47:35.000Z</time>
      </trkpt>
      <trkpt lat="43.01022" lon="2.99237">
        <ele>53.8</ele>
        <time>2020-06-03T11:47:36.000Z</time>
      </trkpt>
      <trkpt lat="43.01018" lon="2.9924">
        <ele>54.2</ele>
        <time>2020-06-03T11:47:38.000Z</time>
      </trkpt>
      <trkpt lat="43.01016" lon="2.99242">
        <ele>54.6</ele>
        <time>2020-06-03T11:47:39.000Z</time>
      </trkpt>
      <trkpt lat="43.01014" lon="2.99244">
        <ele>55.6</ele>
        <time>2020-06-03T11:47:40.000Z</time>
      </trkpt>
      <trkpt lat="43.01013" lon="2.99246">
        <ele>56</ele>
        <time>2020-06-03T11:47:41.000Z</time>
      </trkpt>
      <trkpt lat="43.01011" lon="2.99251">
        <ele>56.4</ele>
        <time>2020-06-03T11:47:43.000Z</time>
      </trkpt>
      <trkpt lat="43.01011" lon="2.99254">
        <ele>56.8</ele>
        <time>2020-06-03T11:47:44.000Z</time>
      </trkpt>
      <trkpt lat="43.01011" lon="2.99257">
        <ele>57.2</ele>
        <time>2020-06-03T11:47:45.000Z</time>
      </trkpt>
      <trkpt lat="43.01011" lon="2.9926">
        <ele>57.6</ele>
        <time>2020-06-03T11:47:46.000Z</time>
      </trkpt>
      <trkpt lat="43.01012" lon="2.99263">
        <ele>58</ele>
        <time>2020-06-03T11:47:47.000Z</time>
      </trkpt>
      <trkpt lat="43.01012" lon="2.99269">
        <ele>58</ele>
        <time>2020-06-03T11:47:49.000Z</time>
      </trkpt>
      <trkpt lat="43.01011" lon="2.99279">
        <ele>58.4</ele>
        <time>2020-06-03T11:47:52.000Z</time>
      </trkpt>
      <trkpt lat="43.01011" lon="2.99282">
        <ele>58.8</ele>
        <time>2020-06-03T11:47:53.000Z</time>
      </trkpt>
      <trkpt lat="43.0101" lon="2.99285">
        <ele>59.2</ele>
        <time>2020-06-03T11:47:54.000Z</time>
      </trkpt>
      <trkpt lat="43.01009" lon="2.99287">
        <ele>59.6</ele>
        <time>2020-06-03T11:47:55.000Z</time>
      </trkpt>
      <trkpt lat="43.01007" lon="2.9929">
        <ele>60.2</ele>
        <time>2020-06-03T11:47:56.000Z</time>
      </trkpt>
      <trkpt lat="43.01001" lon="2.99297">
        <ele>60.6</ele>
        <time>2020-06-03T11:48:00.000Z</time>
      </trkpt>
      <trkpt lat="43.00999" lon="2.99299">
        <ele>61</ele>
        <time>2020-06-03T11:48:01.000Z</time>
      </trkpt>
      <trkpt lat="43.00997" lon="2.993">
        <ele>61.4</ele>
        <time>2020-06-03T11:48:02.000Z</time>
      </trkpt>
      <trkpt lat="43.00995" lon="2.99301">
        <ele>61.8</ele>
        <time>2020-06-03T11:48:03.000Z</time>
      </trkpt>
      <trkpt lat="43.00993" lon="2.99302">
        <ele>62.4</ele>
        <time>2020-06-03T11:48:04.000Z</time>
      </trkpt>
      <trkpt lat="43.00991" lon="2.99304">
        <ele>62.4</ele>
        <time>2020-06-03T11:48:05.000Z</time>
      </trkpt>
      <trkpt lat="43.00987" lon="2.99308">
        <ele>62.8</ele>
        <time>2020-06-03T11:48:07.000Z</time>
      </trkpt>
      <trkpt lat="43.00985" lon="2.99309">
        <ele>63.2</ele>
        <time>2020-06-03T11:48:08.000Z</time>
      </trkpt>
      <trkpt lat="43.00983" lon="2.9931">
        <ele>63.6</ele>
        <time>2020-06-03T11:48:09.000Z</time>
      </trkpt>
      <trkpt lat="43.00981" lon="2.99311">
        <ele>64</ele>
        <time>2020-06-03T11:48:10.000Z</time>
      </trkpt>
      <trkpt lat="43.00979" lon="2.99312">
        <ele>64.4</ele>
        <time>2020-06-03T11:48:11.000Z</time>
      </trkpt>
      <trkpt lat="43.00978" lon="2.99313">
        <ele>64.4</ele>
        <time>2020-06-03T11:48:12.000Z</time>
      </trkpt>
      <trkpt lat="43.00974" lon="2.99314">
        <ele>64.8</ele>
        <time>2020-06-03T11:48:14.000Z</time>
      </trkpt>
      <trkpt lat="43.00972" lon="2.99315">
        <ele>65.4</ele>
        <time>2020-06-03T11:48:15.000Z</time>
      </trkpt>
      <trkpt lat="43.0097" lon="2.99316">
        <ele>65.8</ele>
        <time>2020-06-03T11:48:16.000Z</time>
      </trkpt>
      <trkpt lat="43.00968" lon="2.99317">
        <ele>66.2</ele>
        <time>2020-06-03T11:48:17.000Z</time>
      </trkpt>
      <trkpt lat="43.00966" lon="2.99318">
        <ele>66.6</ele>
        <time>2020-06-03T11:48:18.000Z</time>
      </trkpt>
      <trkpt lat="43.00959" lon="2.9932">
        <ele>67.2</ele>
        <time>2020-06-03T11:48:21.000Z</time>
      </trkpt>
      <trkpt lat="43.00957" lon="2.99321">
        <ele>67.6</ele>
        <time>2020-06-03T11:48:22.000Z</time>
      </trkpt>
      <trkpt lat="43.00955" lon="2.99322">
        <ele>68</ele>
        <time>2020-06-03T11:48:23.000Z</time>
      </trkpt>
      <trkpt lat="43.00953" lon="2.99322">
        <ele>68.6</ele>
        <time>2020-06-03T11:48:24.000Z</time>
      </trkpt>
      <trkpt lat="43.00951" lon="2.99323">
        <ele>69</ele>
        <time>2020-06-03T11:48:25.000Z</time>
      </trkpt>
      <trkpt lat="43.00944" lon="2.99324">
        <ele>69.4</ele>
        <time>2020-06-03T11:48:28.000Z</time>
      </trkpt>
      <trkpt lat="43.00942" lon="2.99325">
        <ele>70.2</ele>
        <time>2020-06-03T11:48:29.000Z</time>
      </trkpt>
      <trkpt lat="43.0094" lon="2.99326">
        <ele>70.8</ele>
        <time>2020-06-03T11:48:30.000Z</time>
      </trkpt>
      <trkpt lat="43.00938" lon="2.99327">
        <ele>71.2</ele>
        <time>2020-06-03T11:48:31.000Z</time>
      </trkpt>
      <trkpt lat="43.00927" lon="2.99333">
        <ele>71.6</ele>
        <time>2020-06-03T11:48:36.000Z</time>
      </trkpt>
      <trkpt lat="43.00925" lon="2.99334">
        <ele>72</ele>
        <time>2020-06-03T11:48:37.000Z</time>
      </trkpt>
      <trkpt lat="43.00923" lon="2.99335">
        <ele>72.4</ele>
        <time>2020-06-03T11:48:38.000Z</time>
      </trkpt>
      <trkpt lat="43.00921" lon="2.99337">
        <ele>73</ele>
        <time>2020-06-03T11:48:39.000Z</time>
      </trkpt>
      <trkpt lat="43.00919" lon="2.99338">
        <ele>73.4</ele>
        <time>2020-06-03T11:48:40.000Z</time>
      </trkpt>
      <trkpt lat="43.0091" lon="2.99341">
        <ele>73.4</ele>
        <time>2020-06-03T11:48:44.000Z</time>
      </trkpt>
      <trkpt lat="43.00908" lon="2.99342">
        <ele>73.8</ele>
        <time>2020-06-03T11:48:45.000Z</time>
      </trkpt>
      <trkpt lat="43.00906" lon="2.99344">
        <ele>74.2</ele>
        <time>2020-06-03T11:48:46.000Z</time>
      </trkpt>
      <trkpt lat="43.00904" lon="2.99345">
        <ele>74.8</ele>
        <time>2020-06-03T11:48:47.000Z</time>
      </trkpt>
      <trkpt lat="43.00902" lon="2.99346">
        <ele>75.2</ele>
        <time>2020-06-03T11:48:48.000Z</time>
      </trkpt>
      <trkpt lat="43.009" lon="2.99347">
        <ele>75.6</ele>
        <time>2020-06-03T11:48:49.000Z</time>
      </trkpt>
      <trkpt lat="43.00898" lon="2.99349">
        <ele>75.6</ele>
        <time>2020-06-03T11:48:50.000Z</time>
      </trkpt>
      <trkpt lat="43.00897" lon="2.99352">
        <ele>75.6</ele>
        <time>2020-06-03T11:48:51.000Z</time>
      </trkpt>
      <trkpt lat="43.00892" lon="2.99358">
        <ele>76</ele>
        <time>2020-06-03T11:48:54.000Z</time>
      </trkpt>
      <trkpt lat="43.00891" lon="2.9936">
        <ele>76.4</ele>
        <time>2020-06-03T11:48:55.000Z</time>
      </trkpt>
      <trkpt lat="43.0089" lon="2.99363">
        <ele>76.8</ele>
        <time>2020-06-03T11:48:56.000Z</time>
      </trkpt>
      <trkpt lat="43.0089" lon="2.99365">
        <ele>77.4</ele>
        <time>2020-06-03T11:48:57.000Z</time>
      </trkpt>
      <trkpt lat="43.00889" lon="2.99367">
        <ele>77.8</ele>
        <time>2020-06-03T11:48:58.000Z</time>
      </trkpt>
      <trkpt lat="43.0089" lon="2.99373">
        <ele>77.8</ele>
        <time>2020-06-03T11:49:00.000Z</time>
      </trkpt>
      <trkpt lat="43.00892" lon="2.99381">
        <ele>78.2</ele>
        <time>2020-06-03T11:49:03.000Z</time>
      </trkpt>
      <trkpt lat="43.00893" lon="2.99384">
        <ele>78.6</ele>
        <time>2020-06-03T11:49:04.000Z</time>
      </trkpt>
      <trkpt lat="43.00893" lon="2.99387">
        <ele>79</ele>
        <time>2020-06-03T11:49:05.000Z</time>
      </trkpt>
      <trkpt lat="43.00894" lon="2.99391">
        <ele>79.4</ele>
        <time>2020-06-03T11:49:06.000Z</time>
      </trkpt>
      <trkpt lat="43.00894" lon="2.99394">
        <ele>79.8</ele>
        <time>2020-06-03T11:49:07.000Z</time>
      </trkpt>
      <trkpt lat="43.00896" lon="2.99408">
        <ele>79.8</ele>
        <time>2020-06-03T11:49:11.000Z</time>
      </trkpt>
      <trkpt lat="43.009" lon="2.99427">
        <ele>80.2</ele>
        <time>2020-06-03T11:49:17.000Z</time>
      </trkpt>
      <trkpt lat="43.00901" lon="2.9943">
        <ele>80.6</ele>
        <time>2020-06-03T11:49:18.000Z</time>
      </trkpt>
      <trkpt lat="43.00903" lon="2.99433">
        <ele>81.6</ele>
        <time>2020-06-03T11:49:19.000Z</time>
      </trkpt>
      <trkpt lat="43.00904" lon="2.99436">
        <ele>82</ele>
        <time>2020-06-03T11:49:20.000Z</time>
      </trkpt>
      <trkpt lat="43.00908" lon="2.99446">
        <ele>82.4</ele>
        <time>2020-06-03T11:49:24.000Z</time>
      </trkpt>
      <trkpt lat="43.00909" lon="2.99448">
        <ele>82.8</ele>
        <time>2020-06-03T11:49:25.000Z</time>
      </trkpt>
      <trkpt lat="43.0091" lon="2.9945">
        <ele>83.2</ele>
        <time>2020-06-03T11:49:26.000Z</time>
      </trkpt>
      <trkpt lat="43.00912" lon="2.99452">
        <ele>83.6</ele>
        <time>2020-06-03T11:49:27.000Z</time>
      </trkpt>
      <trkpt lat="43.00913" lon="2.99454">
        <ele>84</ele>
        <time>2020-06-03T11:49:28.000Z</time>
      </trkpt>
      <trkpt lat="43.00921" lon="2.99462">
        <ele>84</ele>
        <time>2020-06-03T11:49:32.000Z</time>
      </trkpt>
      <trkpt lat="43.00926" lon="2.99467">
        <ele>84.4</ele>
        <time>2020-06-03T11:49:35.000Z</time>
      </trkpt>
      <trkpt lat="43.00928" lon="2.99469">
        <ele>84.8</ele>
        <time>2020-06-03T11:49:36.000Z</time>
      </trkpt>
      <trkpt lat="43.0093" lon="2.99471">
        <ele>85.2</ele>
        <time>2020-06-03T11:49:37.000Z</time>
      </trkpt>
      <trkpt lat="43.00932" lon="2.99473">
        <ele>85.6</ele>
        <time>2020-06-03T11:49:38.000Z</time>
      </trkpt>
      <trkpt lat="43.00933" lon="2.99475">
        <ele>86</ele>
        <time>2020-06-03T11:49:39.000Z</time>
      </trkpt>
      <trkpt lat="43.00944" lon="2.99489">
        <ele>86</ele>
        <time>2020-06-03T11:49:46.000Z</time>
      </trkpt>
      <trkpt lat="43.00945" lon="2.99491">
        <ele>86.4</ele>
        <time>2020-06-03T11:49:47.000Z</time>
      </trkpt>
      <trkpt lat="43.00947" lon="2.99494">
        <ele>86.8</ele>
        <time>2020-06-03T11:49:48.000Z</time>
      </trkpt>
      <trkpt lat="43.00949" lon="2.99497">
        <ele>87.2</ele>
        <time>2020-06-03T11:49:49.000Z</time>
      </trkpt>
      <trkpt lat="43.00951" lon="2.99499">
        <ele>87.6</ele>
        <time>2020-06-03T11:49:50.000Z</time>
      </trkpt>
      <trkpt lat="43.00952" lon="2.99502">
        <ele>88</ele>
        <time>2020-06-03T11:49:51.000Z</time>
      </trkpt>
      <trkpt lat="43.00956" lon="2.99507">
        <ele>88</ele>
        <time>2020-06-03T11:49:53.000Z</time>
      </trkpt>
      <trkpt lat="43.00961" lon="2.99514">
        <ele>88</ele>
        <time>2020-06-03T11:49:56.000Z</time>
      </trkpt>
      <trkpt lat="43.00961" lon="2.9952">
        <ele>88</ele>
        <time>2020-06-03T11:49:58.000Z</time>
      </trkpt>
      <trkpt lat="43.00957" lon="2.99525">
        <ele>88.6</ele>
        <time>2020-06-03T11:50:01.000Z</time>
      </trkpt>
      <trkpt lat="43.00955" lon="2.99524">
        <ele>89</ele>
        <time>2020-06-03T11:50:02.000Z</time>
      </trkpt>
      <trkpt lat="43.00953" lon="2.99522">
        <ele>89.4</ele>
        <time>2020-06-03T11:50:03.000Z</time>
      </trkpt>
      <trkpt lat="43.00951" lon="2.9952">
        <ele>89.8</ele>
        <time>2020-06-03T11:50:04.000Z</time>
      </trkpt>
      <trkpt lat="43.00949" lon="2.99518">
        <ele>90.2</ele>
        <time>2020-06-03T11:50:05.000Z</time>
      </trkpt>
      <trkpt lat="43.00943" lon="2.99509">
        <ele>90.2</ele>
        <time>2020-06-03T11:50:09.000Z</time>
      </trkpt>
      <trkpt lat="43.00942" lon="2.99508">
        <ele>90.6</ele>
        <time>2020-06-03T11:50:10.000Z</time>
      </trkpt>
      <trkpt lat="43.0094" lon="2.99507">
        <ele>91</ele>
        <time>2020-06-03T11:50:11.000Z</time>
      </trkpt>
      <trkpt lat="43.00938" lon="2.99506">
        <ele>91.4</ele>
        <time>2020-06-03T11:50:12.000Z</time>
      </trkpt>
      <trkpt lat="43.00936" lon="2.99505">
        <ele>91.8</ele>
        <time>2020-06-03T11:50:13.000Z</time>
      </trkpt>
      <trkpt lat="43.00934" lon="2.99505">
        <ele>92.2</ele>
        <time>2020-06-03T11:50:14.000Z</time>
      </trkpt>
      <trkpt lat="43.00925" lon="2.99502">
        <ele>92.6</ele>
        <time>2020-06-03T11:50:18.000Z</time>
      </trkpt>
      <trkpt lat="43.00923" lon="2.99501">
        <ele>93</ele>
        <time>2020-06-03T11:50:19.000Z</time>
      </trkpt>
      <trkpt lat="43.00921" lon="2.99501">
        <ele>93.4</ele>
        <time>2020-06-03T11:50:20.000Z</time>
      </trkpt>
      <trkpt lat="43.00919" lon="2.995">
        <ele>93.8</ele>
        <time>2020-06-03T11:50:21.000Z</time>
      </trkpt>
      <trkpt lat="43.00916" lon="2.995">
        <ele>94.2</ele>
        <time>2020-06-03T11:50:22.000Z</time>
      </trkpt>
      <trkpt lat="43.00906" lon="2.99498">
        <ele>94.2</ele>
        <time>2020-06-03T11:50:26.000Z</time>
      </trkpt>
      <trkpt lat="43.00889" lon="2.99493">
        <ele>94.6</ele>
        <time>2020-06-03T11:50:32.000Z</time>
      </trkpt>
      <trkpt lat="43.00886" lon="2.99492">
        <ele>95.2</ele>
        <time>2020-06-03T11:50:33.000Z</time>
      </trkpt>
      <trkpt lat="43.00883" lon="2.99492">
        <ele>96</ele>
        <time>2020-06-03T11:50:34.000Z</time>
      </trkpt>
      <trkpt lat="43.0088" lon="2.99491">
        <ele>96.4</ele>
        <time>2020-06-03T11:50:35.000Z</time>
      </trkpt>
      <trkpt lat="43.00873" lon="2.99489">
        <ele>96.4</ele>
        <time>2020-06-03T11:50:38.000Z</time>
      </trkpt>
      <trkpt lat="43.00865" lon="2.99485">
        <ele>96.8</ele>
        <time>2020-06-03T11:50:41.000Z</time>
      </trkpt>
      <trkpt lat="43.00862" lon="2.99483">
        <ele>97.2</ele>
        <time>2020-06-03T11:50:42.000Z</time>
      </trkpt>
      <trkpt lat="43.00859" lon="2.99481">
        <ele>97.8</ele>
        <time>2020-06-03T11:50:43.000Z</time>
      </trkpt>
      <trkpt lat="43.00857" lon="2.99479">
        <ele>98.2</ele>
        <time>2020-06-03T11:50:44.000Z</time>
      </trkpt>
      <trkpt lat="43.00854" lon="2.99477">
        <ele>98.6</ele>
        <time>2020-06-03T11:50:45.000Z</time>
      </trkpt>
      <trkpt lat="43.00839" lon="2.99463">
        <ele>99</ele>
        <time>2020-06-03T11:50:51.000Z</time>
      </trkpt>
      <trkpt lat="43.00837" lon="2.9946">
        <ele>99.4</ele>
        <time>2020-06-03T11:50:52.000Z</time>
      </trkpt>
      <trkpt lat="43.00835" lon="2.99457">
        <ele>99.8</ele>
        <time>2020-06-03T11:50:53.000Z</time>
      </trkpt>
      <trkpt lat="43.00832" lon="2.99455">
        <ele>100.2</ele>
        <time>2020-06-03T11:50:54.000Z</time>
      </trkpt>
      <trkpt lat="43.0083" lon="2.99452">
        <ele>100.6</ele>
        <time>2020-06-03T11:50:55.000Z</time>
      </trkpt>
      <trkpt lat="43.0082" lon="2.9944">
        <ele>100.6</ele>
        <time>2020-06-03T11:50:59.000Z</time>
      </trkpt>
      <trkpt lat="43.00818" lon="2.99437">
        <ele>101</ele>
        <time>2020-06-03T11:51:00.000Z</time>
      </trkpt>
      <trkpt lat="43.00816" lon="2.99434">
        <ele>101.6</ele>
        <time>2020-06-03T11:51:01.000Z</time>
      </trkpt>
      <trkpt lat="43.00814" lon="2.99431">
        <ele>102</ele>
        <time>2020-06-03T11:51:02.000Z</time>
      </trkpt>
      <trkpt lat="43.00812" lon="2.99428">
        <ele>102.4</ele>
        <time>2020-06-03T11:51:03.000Z</time>
      </trkpt>
      <trkpt lat="43.0081" lon="2.99424">
        <ele>102.8</ele>
        <time>2020-06-03T11:51:04.000Z</time>
      </trkpt>
      <trkpt lat="43.00804" lon="2.99419">
        <ele>102.8</ele>
        <time>2020-06-03T11:51:06.000Z</time>
      </trkpt>
      <trkpt lat="43.0079" lon="2.99414">
        <ele>102.8</ele>
        <time>2020-06-03T11:51:10.000Z</time>
      </trkpt>
      <trkpt lat="43.00771" lon="2.99422">
        <ele>102.8</ele>
        <time>2020-06-03T11:51:15.000Z</time>
      </trkpt>
      <trkpt lat="43.00751" lon="2.99435">
        <ele>102.8</ele>
        <time>2020-06-03T11:51:20.000Z</time>
      </trkpt>
      <trkpt lat="43.00743" lon="2.9944">
        <ele>102.8</ele>
        <time>2020-06-03T11:51:22.000Z</time>
      </trkpt>
      <trkpt lat="43.0074" lon="2.99442">
        <ele>103.6</ele>
        <time>2020-06-03T11:51:23.000Z</time>
      </trkpt>
      <trkpt lat="43.00736" lon="2.99445">
        <ele>104</ele>
        <time>2020-06-03T11:51:24.000Z</time>
      </trkpt>
      <trkpt lat="43.00732" lon="2.99447">
        <ele>104.4</ele>
        <time>2020-06-03T11:51:25.000Z</time>
      </trkpt>
      <trkpt lat="43.00728" lon="2.9945">
        <ele>104.8</ele>
        <time>2020-06-03T11:51:26.000Z</time>
      </trkpt>
      <trkpt lat="43.00704" lon="2.99469">
        <ele>104.8</ele>
        <time>2020-06-03T11:51:33.000Z</time>
      </trkpt>
      <trkpt lat="43.00681" lon="2.9949">
        <ele>104.8</ele>
        <time>2020-06-03T11:51:40.000Z</time>
      </trkpt>
      <trkpt lat="43.00668" lon="2.99513">
        <ele>104.8</ele>
        <time>2020-06-03T11:51:45.000Z</time>
      </trkpt>
      <trkpt lat="43.00665" lon="2.99517">
        <ele>104.8</ele>
        <time>2020-06-03T11:51:46.000Z</time>
      </trkpt>
      <trkpt lat="43.00653" lon="2.99519">
        <ele>104.8</ele>
        <time>2020-06-03T11:51:49.000Z</time>
      </trkpt>
      <trkpt lat="43.00641" lon="2.99517">
        <ele>104.8</ele>
        <time>2020-06-03T11:51:52.000Z</time>
      </trkpt>
      <trkpt lat="43.00636" lon="2.99517">
        <ele>104.8</ele>
        <time>2020-06-03T11:51:53.000Z</time>
      </trkpt>
      <trkpt lat="43.00631" lon="2.99518">
        <ele>104.8</ele>
        <time>2020-06-03T11:51:54.000Z</time>
      </trkpt>
      <trkpt lat="43.00611" lon="2.99517">
        <ele>104.8</ele>
        <time>2020-06-03T11:51:59.000Z</time>
      </trkpt>
      <trkpt lat="43.00595" lon="2.9952">
        <ele>104.8</ele>
        <time>2020-06-03T11:52:04.000Z</time>
      </trkpt>
      <trkpt lat="43.0058" lon="2.99522">
        <ele>104.8</ele>
        <time>2020-06-03T11:52:08.000Z</time>
      </trkpt>
      <trkpt lat="43.00566" lon="2.99525">
        <ele>104.8</ele>
        <time>2020-06-03T11:52:12.000Z</time>
      </trkpt>
      <trkpt lat="43.00554" lon="2.99526">
        <ele>104.8</ele>
        <time>2020-06-03T11:52:16.000Z</time>
      </trkpt>
      <trkpt lat="43.00541" lon="2.99527">
        <ele>104.8</ele>
        <time>2020-06-03T11:52:20.000Z</time>
      </trkpt>
      <trkpt lat="43.00523" lon="2.99531">
        <ele>104.8</ele>
        <time>2020-06-03T11:52:25.000Z</time>
      </trkpt>
      <trkpt lat="43.00508" lon="2.99536">
        <ele>104.8</ele>
        <time>2020-06-03T11:52:30.000Z</time>
      </trkpt>
      <trkpt lat="43.00493" lon="2.99538">
        <ele>104.8</ele>
        <time>2020-06-03T11:52:35.000Z</time>
      </trkpt>
      <trkpt lat="43.0049" lon="2.99538">
        <ele>104.8</ele>
        <time>2020-06-03T11:52:36.000Z</time>
      </trkpt>
      <trkpt lat="43.00482" lon="2.99539">
        <ele>104.8</ele>
        <time>2020-06-03T11:52:39.000Z</time>
      </trkpt>
      <trkpt lat="43.00465" lon="2.99548">
        <ele>104.8</ele>
        <time>2020-06-03T11:52:44.000Z</time>
      </trkpt>
      <trkpt lat="43.00453" lon="2.99555">
        <ele>104.8</ele>
        <time>2020-06-03T11:52:47.000Z</time>
      </trkpt>
      <trkpt lat="43.0045" lon="2.99558">
        <ele>104.8</ele>
        <time>2020-06-03T11:52:48.000Z</time>
      </trkpt>
      <trkpt lat="43.0044" lon="2.99568">
        <ele>104.8</ele>
        <time>2020-06-03T11:52:52.000Z</time>
      </trkpt>
      <trkpt lat="43.00438" lon="2.9957">
        <ele>104.8</ele>
        <time>2020-06-03T11:52:53.000Z</time>
      </trkpt>
      <trkpt lat="43.00435" lon="2.99575">
        <ele>104.8</ele>
        <time>2020-06-03T11:52:55.000Z</time>
      </trkpt>
      <trkpt lat="43.00429" lon="2.99581">
        <ele>104.8</ele>
        <time>2020-06-03T11:52:58.000Z</time>
      </trkpt>
      <trkpt lat="43.00422" lon="2.99583">
        <ele>104.8</ele>
        <time>2020-06-03T11:53:02.000Z</time>
      </trkpt>
      <trkpt lat="43.0042" lon="2.99584">
        <ele>105.2</ele>
        <time>2020-06-03T11:53:03.000Z</time>
      </trkpt>
      <trkpt lat="43.00417" lon="2.99585">
        <ele>105.6</ele>
        <time>2020-06-03T11:53:04.000Z</time>
      </trkpt>
      <trkpt lat="43.00414" lon="2.99586">
        <ele>106</ele>
        <time>2020-06-03T11:53:05.000Z</time>
      </trkpt>
      <trkpt lat="43.00411" lon="2.99587">
        <ele>106.4</ele>
        <time>2020-06-03T11:53:06.000Z</time>
      </trkpt>
      <trkpt lat="43.00409" lon="2.99587">
        <ele>106.8</ele>
        <time>2020-06-03T11:53:07.000Z</time>
      </trkpt>
      <trkpt lat="43.00408" lon="2.99587">
        <ele>106.8</ele>
        <time>2020-06-03T11:53:09.000Z</time>
      </trkpt>
      <trkpt lat="43.00407" lon="2.99589">
        <ele>106.8</ele>
        <time>2020-06-03T11:53:15.000Z</time>
      </trkpt>
      <trkpt lat="43.00402" lon="2.9959">
        <ele>106.8</ele>
        <time>2020-06-03T11:53:17.000Z</time>
      </trkpt>
      <trkpt lat="43.00395" lon="2.99598">
        <ele>107.4</ele>
        <time>2020-06-03T11:53:21.000Z</time>
      </trkpt>
      <trkpt lat="43.00393" lon="2.996">
        <ele>107.8</ele>
        <time>2020-06-03T11:53:22.000Z</time>
      </trkpt>
      <trkpt lat="43.00391" lon="2.99603">
        <ele>108.2</ele>
        <time>2020-06-03T11:53:23.000Z</time>
      </trkpt>
      <trkpt lat="43.0039" lon="2.99606">
        <ele>108.6</ele>
        <time>2020-06-03T11:53:24.000Z</time>
      </trkpt>
      <trkpt lat="43.00389" lon="2.99607">
        <ele>109</ele>
        <time>2020-06-03T11:53:25.000Z</time>
      </trkpt>
      <trkpt lat="43.00387" lon="2.99608">
        <ele>109</ele>
        <time>2020-06-03T11:53:26.000Z</time>
      </trkpt>
      <trkpt lat="43.0038" lon="2.99601">
        <ele>109</ele>
        <time>2020-06-03T11:53:30.000Z</time>
      </trkpt>
      <trkpt lat="43.00366" lon="2.9959">
        <ele>109</ele>
        <time>2020-06-03T11:53:36.000Z</time>
      </trkpt>
      <trkpt lat="43.00352" lon="2.99577">
        <ele>109</ele>
        <time>2020-06-03T11:53:42.000Z</time>
      </trkpt>
      <trkpt lat="43.00347" lon="2.99572">
        <ele>109.4</ele>
        <time>2020-06-03T11:53:44.000Z</time>
      </trkpt>
      <trkpt lat="43.00345" lon="2.9957">
        <ele>109.8</ele>
        <time>2020-06-03T11:53:45.000Z</time>
      </trkpt>
      <trkpt lat="43.00342" lon="2.99568">
        <ele>110.2</ele>
        <time>2020-06-03T11:53:46.000Z</time>
      </trkpt>
      <trkpt lat="43.0034" lon="2.99566">
        <ele>110.6</ele>
        <time>2020-06-03T11:53:48.000Z</time>
      </trkpt>
      <trkpt lat="43.00337" lon="2.99564">
        <ele>111</ele>
        <time>2020-06-03T11:53:49.000Z</time>
      </trkpt>
      <trkpt lat="43.00324" lon="2.99553">
        <ele>111</ele>
        <time>2020-06-03T11:53:54.000Z</time>
      </trkpt>
      <trkpt lat="43.00315" lon="2.99544">
        <ele>111.4</ele>
        <time>2020-06-03T11:53:58.000Z</time>
      </trkpt>
      <trkpt lat="43.00312" lon="2.99541">
        <ele>111.8</ele>
        <time>2020-06-03T11:53:59.000Z</time>
      </trkpt>
      <trkpt lat="43.0031" lon="2.99539">
        <ele>112.2</ele>
        <time>2020-06-03T11:54:00.000Z</time>
      </trkpt>
      <trkpt lat="43.00309" lon="2.99536">
        <ele>112.6</ele>
        <time>2020-06-03T11:54:01.000Z</time>
      </trkpt>
      <trkpt lat="43.00307" lon="2.99533">
        <ele>113</ele>
        <time>2020-06-03T11:54:02.000Z</time>
      </trkpt>
      <trkpt lat="43.003" lon="2.9952">
        <ele>113</ele>
        <time>2020-06-03T11:54:06.000Z</time>
      </trkpt>
      <trkpt lat="43.00293" lon="2.99505">
        <ele>113.4</ele>
        <time>2020-06-03T11:54:10.000Z</time>
      </trkpt>
      <trkpt lat="43.00292" lon="2.99502">
        <ele>114.2</ele>
        <time>2020-06-03T11:54:11.000Z</time>
      </trkpt>
      <trkpt lat="43.0029" lon="2.99499">
        <ele>114.6</ele>
        <time>2020-06-03T11:54:12.000Z</time>
      </trkpt>
      <trkpt lat="43.00289" lon="2.99495">
        <ele>115</ele>
        <time>2020-06-03T11:54:13.000Z</time>
      </trkpt>
      <trkpt lat="43.00275" lon="2.99466">
        <ele>115</ele>
        <time>2020-06-03T11:54:21.000Z</time>
      </trkpt>
      <trkpt lat="43.00272" lon="2.99456">
        <ele>115</ele>
        <time>2020-06-03T11:54:23.000Z</time>
      </trkpt>
      <trkpt lat="43.0027" lon="2.99444">
        <ele>115</ele>
        <time>2020-06-03T11:54:25.000Z</time>
      </trkpt>
      <trkpt lat="43.00268" lon="2.99432">
        <ele>115</ele>
        <time>2020-06-03T11:54:27.000Z</time>
      </trkpt>
      <trkpt lat="43.00268" lon="2.9941">
        <ele>115</ele>
        <time>2020-06-03T11:54:31.000Z</time>
      </trkpt>
      <trkpt lat="43.0026" lon="2.99382">
        <ele>115</ele>
        <time>2020-06-03T11:54:37.000Z</time>
      </trkpt>
      <trkpt lat="43.00255" lon="2.99364">
        <ele>115</ele>
        <time>2020-06-03T11:54:40.000Z</time>
      </trkpt>
      <trkpt lat="43.00255" lon="2.99351">
        <ele>115</ele>
        <time>2020-06-03T11:54:42.000Z</time>
      </trkpt>
      <trkpt lat="43.00258" lon="2.99333">
        <ele>115</ele>
        <time>2020-06-03T11:54:45.000Z</time>
      </trkpt>
      <trkpt lat="43.00259" lon="2.99328">
        <ele>115.4</ele>
        <time>2020-06-03T11:54:46.000Z</time>
      </trkpt>
      <trkpt lat="43.00259" lon="2.99322">
        <ele>115.8</ele>
        <time>2020-06-03T11:54:47.000Z</time>
      </trkpt>
      <trkpt lat="43.0026" lon="2.99316">
        <ele>116.2</ele>
        <time>2020-06-03T11:54:48.000Z</time>
      </trkpt>
      <trkpt lat="43.0026" lon="2.9931">
        <ele>116.6</ele>
        <time>2020-06-03T11:54:49.000Z</time>
      </trkpt>
      <trkpt lat="43.0026" lon="2.99303">
        <ele>117</ele>
        <time>2020-06-03T11:54:50.000Z</time>
      </trkpt>
      <trkpt lat="43.0026" lon="2.99283">
        <ele>117</ele>
        <time>2020-06-03T11:54:53.000Z</time>
      </trkpt>
      <trkpt lat="43.00262" lon="2.99262">
        <ele>117</ele>
        <time>2020-06-03T11:54:56.000Z</time>
      </trkpt>
      <trkpt lat="43.00264" lon="2.9924">
        <ele>117</ele>
        <time>2020-06-03T11:54:59.000Z</time>
      </trkpt>
      <trkpt lat="43.00267" lon="2.99203">
        <ele>117</ele>
        <time>2020-06-03T11:55:05.000Z</time>
      </trkpt>
      <trkpt lat="43.00271" lon="2.99168">
        <ele>117</ele>
        <time>2020-06-03T11:55:10.000Z</time>
      </trkpt>
      <trkpt lat="43.00272" lon="2.99161">
        <ele>117</ele>
        <time>2020-06-03T11:55:11.000Z</time>
      </trkpt>
      <trkpt lat="43.00274" lon="2.99155">
        <ele>117</ele>
        <time>2020-06-03T11:55:12.000Z</time>
      </trkpt>
      <trkpt lat="43.00279" lon="2.99139">
        <ele>117</ele>
        <time>2020-06-03T11:55:15.000Z</time>
      </trkpt>
      <trkpt lat="43.00282" lon="2.99128">
        <ele>117</ele>
        <time>2020-06-03T11:55:17.000Z</time>
      </trkpt>
      <trkpt lat="43.00284" lon="2.99103">
        <ele>117</ele>
        <time>2020-06-03T11:55:21.000Z</time>
      </trkpt>
      <trkpt lat="43.00286" lon="2.99077">
        <ele>117.8</ele>
        <time>2020-06-03T11:55:25.000Z</time>
      </trkpt>
      <trkpt lat="43.00285" lon="2.99071">
        <ele>118.2</ele>
        <time>2020-06-03T11:55:26.000Z</time>
      </trkpt>
      <trkpt lat="43.00283" lon="2.99065">
        <ele>118.8</ele>
        <time>2020-06-03T11:55:27.000Z</time>
      </trkpt>
      <trkpt lat="43.00282" lon="2.99059">
        <ele>119.2</ele>
        <time>2020-06-03T11:55:28.000Z</time>
      </trkpt>
      <trkpt lat="43.00277" lon="2.99041">
        <ele>119.2</ele>
        <time>2020-06-03T11:55:31.000Z</time>
      </trkpt>
      <trkpt lat="43.00273" lon="2.99029">
        <ele>119.2</ele>
        <time>2020-06-03T11:55:33.000Z</time>
      </trkpt>
      <trkpt lat="43.00272" lon="2.99023">
        <ele>119.2</ele>
        <time>2020-06-03T11:55:34.000Z</time>
      </trkpt>
      <trkpt lat="43.0026" lon="2.9898">
        <ele>119.2</ele>
        <time>2020-06-03T11:55:41.000Z</time>
      </trkpt>
      <trkpt lat="43.00261" lon="2.98974">
        <ele>119.2</ele>
        <time>2020-06-03T11:55:42.000Z</time>
      </trkpt>
      <trkpt lat="43.00264" lon="2.98963">
        <ele>119.2</ele>
        <time>2020-06-03T11:55:44.000Z</time>
      </trkpt>
      <trkpt lat="43.0027" lon="2.98954">
        <ele>119.2</ele>
        <time>2020-06-03T11:55:46.000Z</time>
      </trkpt>
      <trkpt lat="43.00273" lon="2.98949">
        <ele>119.2</ele>
        <time>2020-06-03T11:55:47.000Z</time>
      </trkpt>
      <trkpt lat="43.00278" lon="2.9894">
        <ele>119.2</ele>
        <time>2020-06-03T11:55:49.000Z</time>
      </trkpt>
      <trkpt lat="43.0029" lon="2.98918">
        <ele>119.6</ele>
        <time>2020-06-03T11:55:54.000Z</time>
      </trkpt>
      <trkpt lat="43.00292" lon="2.98914">
        <ele>120</ele>
        <time>2020-06-03T11:55:55.000Z</time>
      </trkpt>
      <trkpt lat="43.00295" lon="2.98909">
        <ele>120.4</ele>
        <time>2020-06-03T11:55:56.000Z</time>
      </trkpt>
      <trkpt lat="43.00298" lon="2.98904">
        <ele>120.8</ele>
        <time>2020-06-03T11:55:57.000Z</time>
      </trkpt>
      <trkpt lat="43.003" lon="2.98899">
        <ele>121.2</ele>
        <time>2020-06-03T11:55:58.000Z</time>
      </trkpt>
      <trkpt lat="43.00303" lon="2.98883">
        <ele>121.2</ele>
        <time>2020-06-03T11:56:01.000Z</time>
      </trkpt>
      <trkpt lat="43.00298" lon="2.98865">
        <ele>121.2</ele>
        <time>2020-06-03T11:56:04.000Z</time>
      </trkpt>
      <trkpt lat="43.00296" lon="2.98859">
        <ele>121.2</ele>
        <time>2020-06-03T11:56:05.000Z</time>
      </trkpt>
      <trkpt lat="43.00282" lon="2.98815">
        <ele>121.2</ele>
        <time>2020-06-03T11:56:12.000Z</time>
      </trkpt>
      <trkpt lat="43.00262" lon="2.98754">
        <ele>121.2</ele>
        <time>2020-06-03T11:56:22.000Z</time>
      </trkpt>
      <trkpt lat="43.00259" lon="2.98741">
        <ele>121.2</ele>
        <time>2020-06-03T11:56:24.000Z</time>
      </trkpt>
      <trkpt lat="43.00253" lon="2.98717">
        <ele>121.2</ele>
        <time>2020-06-03T11:56:28.000Z</time>
      </trkpt>
      <trkpt lat="43.00252" lon="2.98711">
        <ele>121.2</ele>
        <time>2020-06-03T11:56:29.000Z</time>
      </trkpt>
      <trkpt lat="43.00246" lon="2.98685">
        <ele>121.2</ele>
        <time>2020-06-03T11:56:33.000Z</time>
      </trkpt>
      <trkpt lat="43.00243" lon="2.98679">
        <ele>121.2</ele>
        <time>2020-06-03T11:56:34.000Z</time>
      </trkpt>
      <trkpt lat="43.00233" lon="2.98662">
        <ele>121.2</ele>
        <time>2020-06-03T11:56:37.000Z</time>
      </trkpt>
      <trkpt lat="43.00221" lon="2.98646">
        <ele>121.2</ele>
        <time>2020-06-03T11:56:40.000Z</time>
      </trkpt>
      <trkpt lat="43.00205" lon="2.98625">
        <ele>120.8</ele>
        <time>2020-06-03T11:56:44.000Z</time>
      </trkpt>
      <trkpt lat="43.00201" lon="2.98619">
        <ele>120.4</ele>
        <time>2020-06-03T11:56:45.000Z</time>
      </trkpt>
      <trkpt lat="43.00197" lon="2.98614">
        <ele>120</ele>
        <time>2020-06-03T11:56:46.000Z</time>
      </trkpt>
      <trkpt lat="43.00193" lon="2.98608">
        <ele>119.6</ele>
        <time>2020-06-03T11:56:47.000Z</time>
      </trkpt>
      <trkpt lat="43.00189" lon="2.98602">
        <ele>119.2</ele>
        <time>2020-06-03T11:56:48.000Z</time>
      </trkpt>
      <trkpt lat="43.0018" lon="2.98591">
        <ele>119.2</ele>
        <time>2020-06-03T11:56:50.000Z</time>
      </trkpt>
      <trkpt lat="43.00164" lon="2.98567">
        <ele>118.8</ele>
        <time>2020-06-03T11:56:54.000Z</time>
      </trkpt>
      <trkpt lat="43.0016" lon="2.98562">
        <ele>118.4</ele>
        <time>2020-06-03T11:56:55.000Z</time>
      </trkpt>
      <trkpt lat="43.00156" lon="2.98556">
        <ele>118</ele>
        <time>2020-06-03T11:56:56.000Z</time>
      </trkpt>
      <trkpt lat="43.00152" lon="2.98551">
        <ele>117.4</ele>
        <time>2020-06-03T11:56:57.000Z</time>
      </trkpt>
      <trkpt lat="43.00147" lon="2.98545">
        <ele>117</ele>
        <time>2020-06-03T11:56:58.000Z</time>
      </trkpt>
      <trkpt lat="43.00121" lon="2.98509">
        <ele>116.6</ele>
        <time>2020-06-03T11:57:04.000Z</time>
      </trkpt>
      <trkpt lat="43.00116" lon="2.98503">
        <ele>116.2</ele>
        <time>2020-06-03T11:57:05.000Z</time>
      </trkpt>
      <trkpt lat="43.00112" lon="2.98497">
        <ele>115.6</ele>
        <time>2020-06-03T11:57:06.000Z</time>
      </trkpt>
      <trkpt lat="43.00108" lon="2.98491">
        <ele>115.2</ele>
        <time>2020-06-03T11:57:07.000Z</time>
      </trkpt>
      <trkpt lat="43.00103" lon="2.98486">
        <ele>114.8</ele>
        <time>2020-06-03T11:57:08.000Z</time>
      </trkpt>
      <trkpt lat="43.00096" lon="2.98475">
        <ele>114.8</ele>
        <time>2020-06-03T11:57:11.000Z</time>
      </trkpt>
      <trkpt lat="43.00101" lon="2.98468">
        <ele>114.8</ele>
        <time>2020-06-03T11:57:14.000Z</time>
      </trkpt>
      <trkpt lat="43.00102" lon="2.98452">
        <ele>114.8</ele>
        <time>2020-06-03T11:57:17.000Z</time>
      </trkpt>
      <trkpt lat="43.00104" lon="2.98425">
        <ele>114.8</ele>
        <time>2020-06-03T11:57:21.000Z</time>
      </trkpt>
      <trkpt lat="43.00109" lon="2.98412">
        <ele>114.8</ele>
        <time>2020-06-03T11:57:23.000Z</time>
      </trkpt>
      <trkpt lat="43.00115" lon="2.98401">
        <ele>114.8</ele>
        <time>2020-06-03T11:57:25.000Z</time>
      </trkpt>
      <trkpt lat="43.00121" lon="2.98389">
        <ele>114.8</ele>
        <time>2020-06-03T11:57:27.000Z</time>
      </trkpt>
      <trkpt lat="43.00126" lon="2.98377">
        <ele>114.8</ele>
        <time>2020-06-03T11:57:29.000Z</time>
      </trkpt>
      <trkpt lat="43.00129" lon="2.98365">
        <ele>114.8</ele>
        <time>2020-06-03T11:57:31.000Z</time>
      </trkpt>
      <trkpt lat="43.00145" lon="2.98323">
        <ele>114.8</ele>
        <time>2020-06-03T11:57:38.000Z</time>
      </trkpt>
      <trkpt lat="43.0015" lon="2.98312">
        <ele>114.8</ele>
        <time>2020-06-03T11:57:40.000Z</time>
      </trkpt>
      <trkpt lat="43.00153" lon="2.98307">
        <ele>115.2</ele>
        <time>2020-06-03T11:57:41.000Z</time>
      </trkpt>
      <trkpt lat="43.00156" lon="2.98302">
        <ele>115.6</ele>
        <time>2020-06-03T11:57:42.000Z</time>
      </trkpt>
      <trkpt lat="43.00158" lon="2.98297">
        <ele>116.2</ele>
        <time>2020-06-03T11:57:43.000Z</time>
      </trkpt>
      <trkpt lat="43.00158" lon="2.98291">
        <ele>116.6</ele>
        <time>2020-06-03T11:57:44.000Z</time>
      </trkpt>
      <trkpt lat="43.0016" lon="2.98286">
        <ele>117.2</ele>
        <time>2020-06-03T11:57:45.000Z</time>
      </trkpt>
      <trkpt lat="43.00162" lon="2.98282">
        <ele>117.2</ele>
        <time>2020-06-03T11:57:46.000Z</time>
      </trkpt>
      <trkpt lat="43.00169" lon="2.98274">
        <ele>117.6</ele>
        <time>2020-06-03T11:57:48.000Z</time>
      </trkpt>
      <trkpt lat="43.00172" lon="2.9827">
        <ele>118</ele>
        <time>2020-06-03T11:57:49.000Z</time>
      </trkpt>
      <trkpt lat="43.00175" lon="2.98265">
        <ele>118.4</ele>
        <time>2020-06-03T11:57:50.000Z</time>
      </trkpt>
      <trkpt lat="43.00178" lon="2.98261">
        <ele>118.8</ele>
        <time>2020-06-03T11:57:51.000Z</time>
      </trkpt>
      <trkpt lat="43.00182" lon="2.98258">
        <ele>119.2</ele>
        <time>2020-06-03T11:57:52.000Z</time>
      </trkpt>
      <trkpt lat="43.00188" lon="2.98251">
        <ele>119.2</ele>
        <time>2020-06-03T11:57:54.000Z</time>
      </trkpt>
      <trkpt lat="43.00197" lon="2.98239">
        <ele>119.2</ele>
        <time>2020-06-03T11:57:58.000Z</time>
      </trkpt>
      <trkpt lat="43.002" lon="2.98235">
        <ele>118.6</ele>
        <time>2020-06-03T11:57:59.000Z</time>
      </trkpt>
      <trkpt lat="43.00201" lon="2.98232">
        <ele>118.2</ele>
        <time>2020-06-03T11:58:00.000Z</time>
      </trkpt>
      <trkpt lat="43.00202" lon="2.98227">
        <ele>117.8</ele>
        <time>2020-06-03T11:58:01.000Z</time>
      </trkpt>
      <trkpt lat="43.00203" lon="2.98222">
        <ele>117.4</ele>
        <time>2020-06-03T11:58:02.000Z</time>
      </trkpt>
      <trkpt lat="43.00204" lon="2.98217">
        <ele>116.8</ele>
        <time>2020-06-03T11:58:03.000Z</time>
      </trkpt>
      <trkpt lat="43.00205" lon="2.98213">
        <ele>116.4</ele>
        <time>2020-06-03T11:58:04.000Z</time>
      </trkpt>
      <trkpt lat="43.00206" lon="2.98211">
        <ele>116</ele>
        <time>2020-06-03T11:58:05.000Z</time>
      </trkpt>
      <trkpt lat="43.00208" lon="2.98208">
        <ele>115.4</ele>
        <time>2020-06-03T11:58:06.000Z</time>
      </trkpt>
      <trkpt lat="43.00209" lon="2.98206">
        <ele>115</ele>
        <time>2020-06-03T11:58:07.000Z</time>
      </trkpt>
      <trkpt lat="43.0021" lon="2.98202">
        <ele>114.4</ele>
        <time>2020-06-03T11:58:08.000Z</time>
      </trkpt>
      <trkpt lat="43.00211" lon="2.98198">
        <ele>114</ele>
        <time>2020-06-03T11:58:09.000Z</time>
      </trkpt>
      <trkpt lat="43.00213" lon="2.98196">
        <ele>113.6</ele>
        <time>2020-06-03T11:58:10.000Z</time>
      </trkpt>
      <trkpt lat="43.00214" lon="2.98193">
        <ele>113.2</ele>
        <time>2020-06-03T11:58:11.000Z</time>
      </trkpt>
      <trkpt lat="43.00215" lon="2.98192">
        <ele>112.6</ele>
        <time>2020-06-03T11:58:12.000Z</time>
      </trkpt>
      <trkpt lat="43.00215" lon="2.9819">
        <ele>112.2</ele>
        <time>2020-06-03T11:58:13.000Z</time>
      </trkpt>
      <trkpt lat="43.00217" lon="2.98187">
        <ele>112.2</ele>
        <time>2020-06-03T11:58:15.000Z</time>
      </trkpt>
      <trkpt lat="43.00224" lon="2.98181">
        <ele>111.8</ele>
        <time>2020-06-03T11:58:20.000Z</time>
      </trkpt>
      <trkpt lat="43.00226" lon="2.98179">
        <ele>111.2</ele>
        <time>2020-06-03T11:58:21.000Z</time>
      </trkpt>
      <trkpt lat="43.00228" lon="2.98178">
        <ele>110.8</ele>
        <time>2020-06-03T11:58:22.000Z</time>
      </trkpt>
      <trkpt lat="43.00229" lon="2.98176">
        <ele>110.4</ele>
        <time>2020-06-03T11:58:23.000Z</time>
      </trkpt>
      <trkpt lat="43.0023" lon="2.98174">
        <ele>109.8</ele>
        <time>2020-06-03T11:58:24.000Z</time>
      </trkpt>
      <trkpt lat="43.00232" lon="2.98171">
        <ele>109.2</ele>
        <time>2020-06-03T11:58:25.000Z</time>
      </trkpt>
      <trkpt lat="43.00234" lon="2.9817">
        <ele>108.6</ele>
        <time>2020-06-03T11:58:26.000Z</time>
      </trkpt>
      <trkpt lat="43.00236" lon="2.98167">
        <ele>108</ele>
        <time>2020-06-03T11:58:27.000Z</time>
      </trkpt>
      <trkpt lat="43.00238" lon="2.98164">
        <ele>107.6</ele>
        <time>2020-06-03T11:58:28.000Z</time>
      </trkpt>
      <trkpt lat="43.00241" lon="2.98157">
        <ele>107</ele>
        <time>2020-06-03T11:58:30.000Z</time>
      </trkpt>
      <trkpt lat="43.00244" lon="2.98154">
        <ele>106.4</ele>
        <time>2020-06-03T11:58:31.000Z</time>
      </trkpt>
      <trkpt lat="43.00245" lon="2.9815">
        <ele>106</ele>
        <time>2020-06-03T11:58:32.000Z</time>
      </trkpt>
      <trkpt lat="43.00248" lon="2.98146">
        <ele>105.4</ele>
        <time>2020-06-03T11:58:33.000Z</time>
      </trkpt>
      <trkpt lat="43.00249" lon="2.98141">
        <ele>104.8</ele>
        <time>2020-06-03T11:58:34.000Z</time>
      </trkpt>
      <trkpt lat="43.00249" lon="2.98138">
        <ele>104.4</ele>
        <time>2020-06-03T11:58:35.000Z</time>
      </trkpt>
      <trkpt lat="43.00249" lon="2.98135">
        <ele>103.8</ele>
        <time>2020-06-03T11:58:36.000Z</time>
      </trkpt>
      <trkpt lat="43.0025" lon="2.98131">
        <ele>103.2</ele>
        <time>2020-06-03T11:58:37.000Z</time>
      </trkpt>
      <trkpt lat="43.00252" lon="2.98129">
        <ele>102.6</ele>
        <time>2020-06-03T11:58:38.000Z</time>
      </trkpt>
      <trkpt lat="43.00256" lon="2.98126">
        <ele>102.6</ele>
        <time>2020-06-03T11:58:40.000Z</time>
      </trkpt>
      <trkpt lat="43.00259" lon="2.98127">
        <ele>102.2</ele>
        <time>2020-06-03T11:58:41.000Z</time>
      </trkpt>
      <trkpt lat="43.00261" lon="2.9813">
        <ele>101.8</ele>
        <time>2020-06-03T11:58:42.000Z</time>
      </trkpt>
      <trkpt lat="43.00263" lon="2.98133">
        <ele>100.6</ele>
        <time>2020-06-03T11:58:43.000Z</time>
      </trkpt>
      <trkpt lat="43.00267" lon="2.98136">
        <ele>100</ele>
        <time>2020-06-03T11:58:44.000Z</time>
      </trkpt>
      <trkpt lat="43.00271" lon="2.98139">
        <ele>99.6</ele>
        <time>2020-06-03T11:58:45.000Z</time>
      </trkpt>
      <trkpt lat="43.00274" lon="2.98141">
        <ele>98.6</ele>
        <time>2020-06-03T11:58:46.000Z</time>
      </trkpt>
      <trkpt lat="43.00279" lon="2.98143">
        <ele>97.8</ele>
        <time>2020-06-03T11:58:47.000Z</time>
      </trkpt>
      <trkpt lat="43.00285" lon="2.98144">
        <ele>96.8</ele>
        <time>2020-06-03T11:58:48.000Z</time>
      </trkpt>
      <trkpt lat="43.00291" lon="2.98144">
        <ele>95.8</ele>
        <time>2020-06-03T11:58:49.000Z</time>
      </trkpt>
      <trkpt lat="43.00299" lon="2.98147">
        <ele>94.4</ele>
        <time>2020-06-03T11:58:50.000Z</time>
      </trkpt>
      <trkpt lat="43.00306" lon="2.9815">
        <ele>93.2</ele>
        <time>2020-06-03T11:58:51.000Z</time>
      </trkpt>
      <trkpt lat="43.0031" lon="2.98152">
        <ele>92</ele>
        <time>2020-06-03T11:58:52.000Z</time>
      </trkpt>
      <trkpt lat="43.00315" lon="2.9815">
        <ele>90.8</ele>
        <time>2020-06-03T11:58:53.000Z</time>
      </trkpt>
      <trkpt lat="43.0032" lon="2.98146">
        <ele>89.6</ele>
        <time>2020-06-03T11:58:54.000Z</time>
      </trkpt>
      <trkpt lat="43.00325" lon="2.98143">
        <ele>88.2</ele>
        <time>2020-06-03T11:58:55.000Z</time>
      </trkpt>
      <trkpt lat="43.0033" lon="2.98138">
        <ele>87</ele>
        <time>2020-06-03T11:58:56.000Z</time>
      </trkpt>
      <trkpt lat="43.00341" lon="2.9813">
        <ele>86.6</ele>
        <time>2020-06-03T11:58:58.000Z</time>
      </trkpt>
      <trkpt lat="43.00346" lon="2.98126">
        <ele>86.2</ele>
        <time>2020-06-03T11:58:59.000Z</time>
      </trkpt>
      <trkpt lat="43.00352" lon="2.98123">
        <ele>85.8</ele>
        <time>2020-06-03T11:59:00.000Z</time>
      </trkpt>
      <trkpt lat="43.00358" lon="2.98121">
        <ele>85.4</ele>
        <time>2020-06-03T11:59:01.000Z</time>
      </trkpt>
      <trkpt lat="43.00364" lon="2.98119">
        <ele>85</ele>
        <time>2020-06-03T11:59:02.000Z</time>
      </trkpt>
      <trkpt lat="43.0037" lon="2.98118">
        <ele>85</ele>
        <time>2020-06-03T11:59:03.000Z</time>
      </trkpt>
      <trkpt lat="43.00379" lon="2.98114">
        <ele>85</ele>
        <time>2020-06-03T11:59:05.000Z</time>
      </trkpt>
      <trkpt lat="43.00378" lon="2.98111">
        <ele>85</ele>
        <time>2020-06-03T11:59:06.000Z</time>
      </trkpt>
      <trkpt lat="43.00373" lon="2.98098">
        <ele>85</ele>
        <time>2020-06-03T11:59:09.000Z</time>
      </trkpt>
      <trkpt lat="43.00371" lon="2.98092">
        <ele>85</ele>
        <time>2020-06-03T11:59:10.000Z</time>
      </trkpt>
      <trkpt lat="43.00365" lon="2.98073">
        <ele>84.6</ele>
        <time>2020-06-03T11:59:13.000Z</time>
      </trkpt>
      <trkpt lat="43.00363" lon="2.98069">
        <ele>84.2</ele>
        <time>2020-06-03T11:59:14.000Z</time>
      </trkpt>
      <trkpt lat="43.0036" lon="2.98068">
        <ele>83.6</ele>
        <time>2020-06-03T11:59:15.000Z</time>
      </trkpt>
      <trkpt lat="43.00357" lon="2.98067">
        <ele>83.2</ele>
        <time>2020-06-03T11:59:16.000Z</time>
      </trkpt>
      <trkpt lat="43.00353" lon="2.98067">
        <ele>82.8</ele>
        <time>2020-06-03T11:59:17.000Z</time>
      </trkpt>
      <trkpt lat="43.00349" lon="2.98067">
        <ele>82.8</ele>
        <time>2020-06-03T11:59:18.000Z</time>
      </trkpt>
      <trkpt lat="43.00344" lon="2.98069">
        <ele>82.2</ele>
        <time>2020-06-03T11:59:19.000Z</time>
      </trkpt>
      <trkpt lat="43.0034" lon="2.98069">
        <ele>81.6</ele>
        <time>2020-06-03T11:59:20.000Z</time>
      </trkpt>
      <trkpt lat="43.00338" lon="2.98065">
        <ele>80.8</ele>
        <time>2020-06-03T11:59:21.000Z</time>
      </trkpt>
      <trkpt lat="43.00339" lon="2.9806">
        <ele>80</ele>
        <time>2020-06-03T11:59:22.000Z</time>
      </trkpt>
      <trkpt lat="43.00339" lon="2.98056">
        <ele>79.2</ele>
        <time>2020-06-03T11:59:23.000Z</time>
      </trkpt>
      <trkpt lat="43.00338" lon="2.98053">
        <ele>78.4</ele>
        <time>2020-06-03T11:59:24.000Z</time>
      </trkpt>
      <trkpt lat="43.00333" lon="2.9805">
        <ele>77.8</ele>
        <time>2020-06-03T11:59:25.000Z</time>
      </trkpt>
      <trkpt lat="43.00328" lon="2.98049">
        <ele>77.2</ele>
        <time>2020-06-03T11:59:26.000Z</time>
      </trkpt>
      <trkpt lat="43.00325" lon="2.98044">
        <ele>76.4</ele>
        <time>2020-06-03T11:59:27.000Z</time>
      </trkpt>
      <trkpt lat="43.00324" lon="2.98037">
        <ele>75.6</ele>
        <time>2020-06-03T11:59:28.000Z</time>
      </trkpt>
      <trkpt lat="43.00322" lon="2.9803">
        <ele>74.8</ele>
        <time>2020-06-03T11:59:29.000Z</time>
      </trkpt>
      <trkpt lat="43.00322" lon="2.98023">
        <ele>74</ele>
        <time>2020-06-03T11:59:30.000Z</time>
      </trkpt>
      <trkpt lat="43.00323" lon="2.98017">
        <ele>73.2</ele>
        <time>2020-06-03T11:59:31.000Z</time>
      </trkpt>
      <trkpt lat="43.00325" lon="2.98011">
        <ele>73.2</ele>
        <time>2020-06-03T11:59:32.000Z</time>
      </trkpt>
      <trkpt lat="43.00327" lon="2.98004">
        <ele>72.8</ele>
        <time>2020-06-03T11:59:33.000Z</time>
      </trkpt>
      <trkpt lat="43.00329" lon="2.97997">
        <ele>72.4</ele>
        <time>2020-06-03T11:59:34.000Z</time>
      </trkpt>
      <trkpt lat="43.00333" lon="2.9799">
        <ele>72</ele>
        <time>2020-06-03T11:59:35.000Z</time>
      </trkpt>
      <trkpt lat="43.00336" lon="2.97984">
        <ele>71.4</ele>
        <time>2020-06-03T11:59:36.000Z</time>
      </trkpt>
      <trkpt lat="43.0034" lon="2.97979">
        <ele>70.8</ele>
        <time>2020-06-03T11:59:37.000Z</time>
      </trkpt>
      <trkpt lat="43.00344" lon="2.97976">
        <ele>70.2</ele>
        <time>2020-06-03T11:59:38.000Z</time>
      </trkpt>
      <trkpt lat="43.00347" lon="2.97974">
        <ele>69.6</ele>
        <time>2020-06-03T11:59:39.000Z</time>
      </trkpt>
      <trkpt lat="43.00351" lon="2.97972">
        <ele>69</ele>
        <time>2020-06-03T11:59:40.000Z</time>
      </trkpt>
      <trkpt lat="43.00357" lon="2.97963">
        <ele>68.4</ele>
        <time>2020-06-03T11:59:42.000Z</time>
      </trkpt>
      <trkpt lat="43.00361" lon="2.97957">
        <ele>68</ele>
        <time>2020-06-03T11:59:43.000Z</time>
      </trkpt>
      <trkpt lat="43.00365" lon="2.97952">
        <ele>67.4</ele>
        <time>2020-06-03T11:59:44.000Z</time>
      </trkpt>
      <trkpt lat="43.00369" lon="2.97948">
        <ele>67</ele>
        <time>2020-06-03T11:59:45.000Z</time>
      </trkpt>
      <trkpt lat="43.00373" lon="2.97942">
        <ele>66.4</ele>
        <time>2020-06-03T11:59:46.000Z</time>
      </trkpt>
      <trkpt lat="43.00377" lon="2.97938">
        <ele>66.4</ele>
        <time>2020-06-03T11:59:47.000Z</time>
      </trkpt>
      <trkpt lat="43.00381" lon="2.97934">
        <ele>66</ele>
        <time>2020-06-03T11:59:48.000Z</time>
      </trkpt>
      <trkpt lat="43.00386" lon="2.97931">
        <ele>65.6</ele>
        <time>2020-06-03T11:59:49.000Z</time>
      </trkpt>
      <trkpt lat="43.0039" lon="2.97926">
        <ele>65</ele>
        <time>2020-06-03T11:59:50.000Z</time>
      </trkpt>
      <trkpt lat="43.00392" lon="2.9792">
        <ele>64.6</ele>
        <time>2020-06-03T11:59:51.000Z</time>
      </trkpt>
      <trkpt lat="43.00396" lon="2.97913">
        <ele>64.2</ele>
        <time>2020-06-03T11:59:52.000Z</time>
      </trkpt>
      <trkpt lat="43.004" lon="2.97906">
        <ele>63.6</ele>
        <time>2020-06-03T11:59:53.000Z</time>
      </trkpt>
      <trkpt lat="43.00404" lon="2.97899">
        <ele>63.2</ele>
        <time>2020-06-03T11:59:54.000Z</time>
      </trkpt>
      <trkpt lat="43.00408" lon="2.97894">
        <ele>62.6</ele>
        <time>2020-06-03T11:59:55.000Z</time>
      </trkpt>
      <trkpt lat="43.00413" lon="2.97892">
        <ele>61.8</ele>
        <time>2020-06-03T11:59:56.000Z</time>
      </trkpt>
      <trkpt lat="43.00418" lon="2.97891">
        <ele>60.4</ele>
        <time>2020-06-03T11:59:57.000Z</time>
      </trkpt>
      <trkpt lat="43.00423" lon="2.97889">
        <ele>59.6</ele>
        <time>2020-06-03T11:59:58.000Z</time>
      </trkpt>
      <trkpt lat="43.00428" lon="2.97889">
        <ele>58.6</ele>
        <time>2020-06-03T11:59:59.000Z</time>
      </trkpt>
      <trkpt lat="43.00434" lon="2.97889">
        <ele>57.8</ele>
        <time>2020-06-03T12:00:00.000Z</time>
      </trkpt>
      <trkpt lat="43.00438" lon="2.97891">
        <ele>56.8</ele>
        <time>2020-06-03T12:00:01.000Z</time>
      </trkpt>
      <trkpt lat="43.00442" lon="2.9789">
        <ele>56</ele>
        <time>2020-06-03T12:00:02.000Z</time>
      </trkpt>
      <trkpt lat="43.00443" lon="2.97887">
        <ele>55.2</ele>
        <time>2020-06-03T12:00:03.000Z</time>
      </trkpt>
      <trkpt lat="43.00445" lon="2.97884">
        <ele>54.2</ele>
        <time>2020-06-03T12:00:04.000Z</time>
      </trkpt>
      <trkpt lat="43.00446" lon="2.9788">
        <ele>53.4</ele>
        <time>2020-06-03T12:00:05.000Z</time>
      </trkpt>
      <trkpt lat="43.00446" lon="2.97877">
        <ele>52.6</ele>
        <time>2020-06-03T12:00:06.000Z</time>
      </trkpt>
      <trkpt lat="43.00446" lon="2.97874">
        <ele>51.8</ele>
        <time>2020-06-03T12:00:07.000Z</time>
      </trkpt>
      <trkpt lat="43.00447" lon="2.97869">
        <ele>51.8</ele>
        <time>2020-06-03T12:00:08.000Z</time>
      </trkpt>
      <trkpt lat="43.00455" lon="2.97852">
        <ele>51.8</ele>
        <time>2020-06-03T12:00:11.000Z</time>
      </trkpt>
      <trkpt lat="43.00458" lon="2.97837">
        <ele>51.8</ele>
        <time>2020-06-03T12:00:14.000Z</time>
      </trkpt>
      <trkpt lat="43.0046" lon="2.97832">
        <ele>51.8</ele>
        <time>2020-06-03T12:00:15.000Z</time>
      </trkpt>
      <trkpt lat="43.00461" lon="2.97826">
        <ele>51.8</ele>
        <time>2020-06-03T12:00:16.000Z</time>
      </trkpt>
      <trkpt lat="43.00462" lon="2.97812">
        <ele>51.8</ele>
        <time>2020-06-03T12:00:19.000Z</time>
      </trkpt>
      <trkpt lat="43.00462" lon="2.978">
        <ele>51.8</ele>
        <time>2020-06-03T12:00:22.000Z</time>
      </trkpt>
      <trkpt lat="43.00461" lon="2.97798">
        <ele>51.8</ele>
        <time>2020-06-03T12:00:23.000Z</time>
      </trkpt>
      <trkpt lat="43.0046" lon="2.97794">
        <ele>51.8</ele>
        <time>2020-06-03T12:00:24.000Z</time>
      </trkpt>
      <trkpt lat="43.0046" lon="2.97785">
        <ele>51.8</ele>
        <time>2020-06-03T12:00:27.000Z</time>
      </trkpt>
      <trkpt lat="43.00456" lon="2.97775">
        <ele>51.8</ele>
        <time>2020-06-03T12:00:31.000Z</time>
      </trkpt>
      <trkpt lat="43.00453" lon="2.97771">
        <ele>52.2</ele>
        <time>2020-06-03T12:00:33.000Z</time>
      </trkpt>
      <trkpt lat="43.00452" lon="2.97767">
        <ele>52.6</ele>
        <time>2020-06-03T12:00:34.000Z</time>
      </trkpt>
      <trkpt lat="43.0045" lon="2.97765">
        <ele>53</ele>
        <time>2020-06-03T12:00:35.000Z</time>
      </trkpt>
      <trkpt lat="43.00448" lon="2.97762">
        <ele>53.4</ele>
        <time>2020-06-03T12:00:36.000Z</time>
      </trkpt>
      <trkpt lat="43.00446" lon="2.9776">
        <ele>54</ele>
        <time>2020-06-03T12:00:37.000Z</time>
      </trkpt>
      <trkpt lat="43.00445" lon="2.97758">
        <ele>54</ele>
        <time>2020-06-03T12:00:38.000Z</time>
      </trkpt>
      <trkpt lat="43.0044" lon="2.97753">
        <ele>54.4</ele>
        <time>2020-06-03T12:00:40.000Z</time>
      </trkpt>
      <trkpt lat="43.00439" lon="2.9775">
        <ele>54.8</ele>
        <time>2020-06-03T12:00:41.000Z</time>
      </trkpt>
      <trkpt lat="43.00437" lon="2.97747">
        <ele>55.2</ele>
        <time>2020-06-03T12:00:42.000Z</time>
      </trkpt>
      <trkpt lat="43.00437" lon="2.97744">
        <ele>55.6</ele>
        <time>2020-06-03T12:00:43.000Z</time>
      </trkpt>
      <trkpt lat="43.00438" lon="2.97741">
        <ele>56</ele>
        <time>2020-06-03T12:00:44.000Z</time>
      </trkpt>
      <trkpt lat="43.00439" lon="2.97736">
        <ele>56.6</ele>
        <time>2020-06-03T12:00:46.000Z</time>
      </trkpt>
      <trkpt lat="43.0044" lon="2.97734">
        <ele>57</ele>
        <time>2020-06-03T12:00:47.000Z</time>
      </trkpt>
      <trkpt lat="43.00441" lon="2.97731">
        <ele>57.4</ele>
        <time>2020-06-03T12:00:48.000Z</time>
      </trkpt>
      <trkpt lat="43.00442" lon="2.97729">
        <ele>58</ele>
        <time>2020-06-03T12:00:49.000Z</time>
      </trkpt>
      <trkpt lat="43.00443" lon="2.97726">
        <ele>58.4</ele>
        <time>2020-06-03T12:00:50.000Z</time>
      </trkpt>
      <trkpt lat="43.00446" lon="2.97719">
        <ele>58.4</ele>
        <time>2020-06-03T12:00:52.000Z</time>
      </trkpt>
      <trkpt lat="43.00449" lon="2.97703">
        <ele>58.4</ele>
        <time>2020-06-03T12:00:57.000Z</time>
      </trkpt>
      <trkpt lat="43.0045" lon="2.977">
        <ele>58.8</ele>
        <time>2020-06-03T12:00:58.000Z</time>
      </trkpt>
      <trkpt lat="43.0045" lon="2.97698">
        <ele>59.2</ele>
        <time>2020-06-03T12:00:59.000Z</time>
      </trkpt>
      <trkpt lat="43.0045" lon="2.97695">
        <ele>59.6</ele>
        <time>2020-06-03T12:01:00.000Z</time>
      </trkpt>
      <trkpt lat="43.0045" lon="2.97692">
        <ele>60</ele>
        <time>2020-06-03T12:01:01.000Z</time>
      </trkpt>
      <trkpt lat="43.00449" lon="2.97691">
        <ele>60.4</ele>
        <time>2020-06-03T12:01:02.000Z</time>
      </trkpt>
      <trkpt lat="43.00446" lon="2.97691">
        <ele>61</ele>
        <time>2020-06-03T12:01:04.000Z</time>
      </trkpt>
      <trkpt lat="43.00444" lon="2.97692">
        <ele>61.4</ele>
        <time>2020-06-03T12:01:05.000Z</time>
      </trkpt>
      <trkpt lat="43.00443" lon="2.97694">
        <ele>61.8</ele>
        <time>2020-06-03T12:01:06.000Z</time>
      </trkpt>
      <trkpt lat="43.0044" lon="2.97695">
        <ele>62.2</ele>
        <time>2020-06-03T12:01:07.000Z</time>
      </trkpt>
      <trkpt lat="43.00437" lon="2.97697">
        <ele>62.6</ele>
        <time>2020-06-03T12:01:08.000Z</time>
      </trkpt>
      <trkpt lat="43.00433" lon="2.97698">
        <ele>62.6</ele>
        <time>2020-06-03T12:01:10.000Z</time>
      </trkpt>
      <trkpt lat="43.00432" lon="2.977">
        <ele>63.2</ele>
        <time>2020-06-03T12:01:11.000Z</time>
      </trkpt>
      <trkpt lat="43.0043" lon="2.97702">
        <ele>63.6</ele>
        <time>2020-06-03T12:01:12.000Z</time>
      </trkpt>
      <trkpt lat="43.0043" lon="2.97705">
        <ele>64</ele>
        <time>2020-06-03T12:01:13.000Z</time>
      </trkpt>
      <trkpt lat="43.00429" lon="2.97707">
        <ele>64.6</ele>
        <time>2020-06-03T12:01:14.000Z</time>
      </trkpt>
      <trkpt lat="43.00427" lon="2.97709">
        <ele>65</ele>
        <time>2020-06-03T12:01:15.000Z</time>
      </trkpt>
      <trkpt lat="43.00424" lon="2.97706">
        <ele>65.4</ele>
        <time>2020-06-03T12:01:17.000Z</time>
      </trkpt>
      <trkpt lat="43.00423" lon="2.97704">
        <ele>65.8</ele>
        <time>2020-06-03T12:01:18.000Z</time>
      </trkpt>
      <trkpt lat="43.00423" lon="2.977">
        <ele>66.4</ele>
        <time>2020-06-03T12:01:19.000Z</time>
      </trkpt>
      <trkpt lat="43.00424" lon="2.97697">
        <ele>66.8</ele>
        <time>2020-06-03T12:01:20.000Z</time>
      </trkpt>
      <trkpt lat="43.00425" lon="2.97693">
        <ele>67.2</ele>
        <time>2020-06-03T12:01:21.000Z</time>
      </trkpt>
      <trkpt lat="43.00426" lon="2.9769">
        <ele>67.2</ele>
        <time>2020-06-03T12:01:22.000Z</time>
      </trkpt>
      <trkpt lat="43.00426" lon="2.97682">
        <ele>67.8</ele>
        <time>2020-06-03T12:01:25.000Z</time>
      </trkpt>
      <trkpt lat="43.00425" lon="2.9768">
        <ele>68.2</ele>
        <time>2020-06-03T12:01:26.000Z</time>
      </trkpt>
      <trkpt lat="43.00424" lon="2.97679">
        <ele>68.6</ele>
        <time>2020-06-03T12:01:27.000Z</time>
      </trkpt>
      <trkpt lat="43.00424" lon="2.97676">
        <ele>69</ele>
        <time>2020-06-03T12:01:28.000Z</time>
      </trkpt>
      <trkpt lat="43.00423" lon="2.97673">
        <ele>69.4</ele>
        <time>2020-06-03T12:01:29.000Z</time>
      </trkpt>
      <trkpt lat="43.00423" lon="2.9767">
        <ele>69.8</ele>
        <time>2020-06-03T12:01:30.000Z</time>
      </trkpt>
      <trkpt lat="43.00423" lon="2.97666">
        <ele>70.2</ele>
        <time>2020-06-03T12:01:31.000Z</time>
      </trkpt>
      <trkpt lat="43.00422" lon="2.97663">
        <ele>70.6</ele>
        <time>2020-06-03T12:01:32.000Z</time>
      </trkpt>
      <trkpt lat="43.00421" lon="2.97662">
        <ele>71</ele>
        <time>2020-06-03T12:01:33.000Z</time>
      </trkpt>
      <trkpt lat="43.0042" lon="2.97661">
        <ele>71.4</ele>
        <time>2020-06-03T12:01:34.000Z</time>
      </trkpt>
      <trkpt lat="43.00418" lon="2.97662">
        <ele>72</ele>
        <time>2020-06-03T12:01:35.000Z</time>
      </trkpt>
      <trkpt lat="43.00416" lon="2.97664">
        <ele>72.8</ele>
        <time>2020-06-03T12:01:36.000Z</time>
      </trkpt>
      <trkpt lat="43.00415" lon="2.97668">
        <ele>73.4</ele>
        <time>2020-06-03T12:01:37.000Z</time>
      </trkpt>
      <trkpt lat="43.00415" lon="2.97671">
        <ele>73.8</ele>
        <time>2020-06-03T12:01:38.000Z</time>
      </trkpt>
      <trkpt lat="43.00409" lon="2.97679">
        <ele>73.8</ele>
        <time>2020-06-03T12:01:42.000Z</time>
      </trkpt>
      <trkpt lat="43.00399" lon="2.97678">
        <ele>73.8</ele>
        <time>2020-06-03T12:01:47.000Z</time>
      </trkpt>
      <trkpt lat="43.00395" lon="2.97668">
        <ele>73.8</ele>
        <time>2020-06-03T12:01:50.000Z</time>
      </trkpt>
      <trkpt lat="43.00393" lon="2.97665">
        <ele>73.8</ele>
        <time>2020-06-03T12:01:51.000Z</time>
      </trkpt>
      <trkpt lat="43.00382" lon="2.97654">
        <ele>73.8</ele>
        <time>2020-06-03T12:01:56.000Z</time>
      </trkpt>
      <trkpt lat="43.00371" lon="2.97647">
        <ele>73.8</ele>
        <time>2020-06-03T12:02:00.000Z</time>
      </trkpt>
      <trkpt lat="43.00358" lon="2.97636">
        <ele>73.8</ele>
        <time>2020-06-03T12:02:05.000Z</time>
      </trkpt>
      <trkpt lat="43.00345" lon="2.97636">
        <ele>73.8</ele>
        <time>2020-06-03T12:02:09.000Z</time>
      </trkpt>
      <trkpt lat="43.00324" lon="2.97637">
        <ele>73.8</ele>
        <time>2020-06-03T12:02:15.000Z</time>
      </trkpt>
      <trkpt lat="43.00306" lon="2.97636">
        <ele>73.8</ele>
        <time>2020-06-03T12:02:21.000Z</time>
      </trkpt>
      <trkpt lat="43.00303" lon="2.97636">
        <ele>74.2</ele>
        <time>2020-06-03T12:02:22.000Z</time>
      </trkpt>
      <trkpt lat="43.00301" lon="2.97635">
        <ele>74.8</ele>
        <time>2020-06-03T12:02:23.000Z</time>
      </trkpt>
      <trkpt lat="43.00297" lon="2.97635">
        <ele>75.2</ele>
        <time>2020-06-03T12:02:24.000Z</time>
      </trkpt>
      <trkpt lat="43.00295" lon="2.97635">
        <ele>75.6</ele>
        <time>2020-06-03T12:02:25.000Z</time>
      </trkpt>
      <trkpt lat="43.00292" lon="2.97636">
        <ele>76</ele>
        <time>2020-06-03T12:02:26.000Z</time>
      </trkpt>
      <trkpt lat="43.00279" lon="2.97635">
        <ele>76.6</ele>
        <time>2020-06-03T12:02:31.000Z</time>
      </trkpt>
      <trkpt lat="43.00277" lon="2.97632">
        <ele>77</ele>
        <time>2020-06-03T12:02:32.000Z</time>
      </trkpt>
      <trkpt lat="43.00276" lon="2.97629">
        <ele>77.4</ele>
        <time>2020-06-03T12:02:33.000Z</time>
      </trkpt>
      <trkpt lat="43.00275" lon="2.97625">
        <ele>77.8</ele>
        <time>2020-06-03T12:02:34.000Z</time>
      </trkpt>
      <trkpt lat="43.00273" lon="2.97621">
        <ele>78.4</ele>
        <time>2020-06-03T12:02:35.000Z</time>
      </trkpt>
      <trkpt lat="43.0027" lon="2.97615">
        <ele>78.4</ele>
        <time>2020-06-03T12:02:37.000Z</time>
      </trkpt>
      <trkpt lat="43.00262" lon="2.97594">
        <ele>78.4</ele>
        <time>2020-06-03T12:02:43.000Z</time>
      </trkpt>
      <trkpt lat="43.00251" lon="2.97566">
        <ele>78.4</ele>
        <time>2020-06-03T12:02:50.000Z</time>
      </trkpt>
      <trkpt lat="43.0024" lon="2.97539">
        <ele>78.4</ele>
        <time>2020-06-03T12:02:57.000Z</time>
      </trkpt>
      <trkpt lat="43.00232" lon="2.97513">
        <ele>78.4</ele>
        <time>2020-06-03T12:03:03.000Z</time>
      </trkpt>
      <trkpt lat="43.00227" lon="2.97503">
        <ele>78.4</ele>
        <time>2020-06-03T12:03:05.000Z</time>
      </trkpt>
      <trkpt lat="43.00218" lon="2.97499">
        <ele>78.4</ele>
        <time>2020-06-03T12:03:07.000Z</time>
      </trkpt>
      <trkpt lat="43.00207" lon="2.975">
        <ele>78.4</ele>
        <time>2020-06-03T12:03:09.000Z</time>
      </trkpt>
      <trkpt lat="43.00201" lon="2.975">
        <ele>78.4</ele>
        <time>2020-06-03T12:03:10.000Z</time>
      </trkpt>
      <trkpt lat="43.00196" lon="2.97497">
        <ele>78.4</ele>
        <time>2020-06-03T12:03:11.000Z</time>
      </trkpt>
      <trkpt lat="43.00194" lon="2.97493">
        <ele>77.8</ele>
        <time>2020-06-03T12:03:12.000Z</time>
      </trkpt>
      <trkpt lat="43.00192" lon="2.97487">
        <ele>77.4</ele>
        <time>2020-06-03T12:03:13.000Z</time>
      </trkpt>
      <trkpt lat="43.00193" lon="2.97482">
        <ele>77</ele>
        <time>2020-06-03T12:03:14.000Z</time>
      </trkpt>
      <trkpt lat="43.00193" lon="2.97476">
        <ele>76</ele>
        <time>2020-06-03T12:03:15.000Z</time>
      </trkpt>
      <trkpt lat="43.00193" lon="2.97471">
        <ele>76</ele>
        <time>2020-06-03T12:03:16.000Z</time>
      </trkpt>
      <trkpt lat="43.00194" lon="2.97448">
        <ele>76</ele>
        <time>2020-06-03T12:03:20.000Z</time>
      </trkpt>
      <trkpt lat="43.00192" lon="2.97417">
        <ele>76</ele>
        <time>2020-06-03T12:03:25.000Z</time>
      </trkpt>
      <trkpt lat="43.00191" lon="2.97411">
        <ele>75.6</ele>
        <time>2020-06-03T12:03:26.000Z</time>
      </trkpt>
      <trkpt lat="43.00191" lon="2.97405">
        <ele>75.2</ele>
        <time>2020-06-03T12:03:27.000Z</time>
      </trkpt>
      <trkpt lat="43.00191" lon="2.974">
        <ele>74.8</ele>
        <time>2020-06-03T12:03:28.000Z</time>
      </trkpt>
      <trkpt lat="43.00191" lon="2.97394">
        <ele>74.4</ele>
        <time>2020-06-03T12:03:29.000Z</time>
      </trkpt>
      <trkpt lat="43.00192" lon="2.97389">
        <ele>73.8</ele>
        <time>2020-06-03T12:03:30.000Z</time>
      </trkpt>
      <trkpt lat="43.00192" lon="2.97383">
        <ele>73.8</ele>
        <time>2020-06-03T12:03:31.000Z</time>
      </trkpt>
      <trkpt lat="43.0019" lon="2.97371">
        <ele>73.8</ele>
        <time>2020-06-03T12:03:34.000Z</time>
      </trkpt>
      <trkpt lat="43.00191" lon="2.97367">
        <ele>73.8</ele>
        <time>2020-06-03T12:03:35.000Z</time>
      </trkpt>
      <trkpt lat="43.00199" lon="2.97355">
        <ele>73.8</ele>
        <time>2020-06-03T12:03:38.000Z</time>
      </trkpt>
      <trkpt lat="43.00204" lon="2.97346">
        <ele>73.8</ele>
        <time>2020-06-03T12:03:40.000Z</time>
      </trkpt>
      <trkpt lat="43.0021" lon="2.9733">
        <ele>73.8</ele>
        <time>2020-06-03T12:03:43.000Z</time>
      </trkpt>
      <trkpt lat="43.00212" lon="2.97324">
        <ele>73.4</ele>
        <time>2020-06-03T12:03:44.000Z</time>
      </trkpt>
      <trkpt lat="43.00214" lon="2.97318">
        <ele>73</ele>
        <time>2020-06-03T12:03:45.000Z</time>
      </trkpt>
      <trkpt lat="43.00215" lon="2.97312">
        <ele>72.6</ele>
        <time>2020-06-03T12:03:46.000Z</time>
      </trkpt>
      <trkpt lat="43.00217" lon="2.97306">
        <ele>72.2</ele>
        <time>2020-06-03T12:03:47.000Z</time>
      </trkpt>
      <trkpt lat="43.00219" lon="2.97302">
        <ele>71.8</ele>
        <time>2020-06-03T12:03:48.000Z</time>
      </trkpt>
      <trkpt lat="43.0022" lon="2.97295">
        <ele>71.8</ele>
        <time>2020-06-03T12:03:51.000Z</time>
      </trkpt>
      <trkpt lat="43.00221" lon="2.97295">
        <ele>71.8</ele>
        <time>2020-06-03T12:03:53.000Z</time>
      </trkpt>
      <trkpt lat="43.00225" lon="2.97288">
        <ele>71.8</ele>
        <time>2020-06-03T12:04:33.000Z</time>
      </trkpt>
      <trkpt lat="43.00224" lon="2.97287">
        <ele>71.8</ele>
        <time>2020-06-03T12:04:34.000Z</time>
      </trkpt>
      <trkpt lat="43.00221" lon="2.97281">
        <ele>71.4</ele>
        <time>2020-06-03T12:04:37.000Z</time>
      </trkpt>
      <trkpt lat="43.00221" lon="2.9728">
        <ele>71</ele>
        <time>2020-06-03T12:04:38.000Z</time>
      </trkpt>
      <trkpt lat="43.00221" lon="2.97278">
        <ele>70.6</ele>
        <time>2020-06-03T12:04:39.000Z</time>
      </trkpt>
      <trkpt lat="43.00221" lon="2.97278">
        <ele>70</ele>
        <time>2020-06-03T12:04:40.000Z</time>
      </trkpt>
      <trkpt lat="43.00222" lon="2.97277">
        <ele>69.6</ele>
        <time>2020-06-03T12:04:41.000Z</time>
      </trkpt>
      <trkpt lat="43.00223" lon="2.97272">
        <ele>69.2</ele>
        <time>2020-06-03T12:04:43.000Z</time>
      </trkpt>
      <trkpt lat="43.00223" lon="2.97267">
        <ele>68.8</ele>
        <time>2020-06-03T12:04:44.000Z</time>
      </trkpt>
      <trkpt lat="43.00225" lon="2.97263">
        <ele>68.2</ele>
        <time>2020-06-03T12:04:45.000Z</time>
      </trkpt>
      <trkpt lat="43.00225" lon="2.9726">
        <ele>67.4</ele>
        <time>2020-06-03T12:04:46.000Z</time>
      </trkpt>
      <trkpt lat="43.00227" lon="2.97258">
        <ele>66.6</ele>
        <time>2020-06-03T12:04:47.000Z</time>
      </trkpt>
      <trkpt lat="43.00229" lon="2.97256">
        <ele>66</ele>
        <time>2020-06-03T12:04:48.000Z</time>
      </trkpt>
      <trkpt lat="43.0023" lon="2.97254">
        <ele>65.2</ele>
        <time>2020-06-03T12:04:49.000Z</time>
      </trkpt>
      <trkpt lat="43.00231" lon="2.97253">
        <ele>64.4</ele>
        <time>2020-06-03T12:04:50.000Z</time>
      </trkpt>
      <trkpt lat="43.00232" lon="2.97251">
        <ele>63.8</ele>
        <time>2020-06-03T12:04:51.000Z</time>
      </trkpt>
      <trkpt lat="43.00234" lon="2.97248">
        <ele>63</ele>
        <time>2020-06-03T12:04:52.000Z</time>
      </trkpt>
      <trkpt lat="43.00235" lon="2.97245">
        <ele>62.6</ele>
        <time>2020-06-03T12:04:53.000Z</time>
      </trkpt>
      <trkpt lat="43.00235" lon="2.97243">
        <ele>61.6</ele>
        <time>2020-06-03T12:04:54.000Z</time>
      </trkpt>
      <trkpt lat="43.00236" lon="2.97242">
        <ele>61.2</ele>
        <time>2020-06-03T12:04:55.000Z</time>
      </trkpt>
      <trkpt lat="43.00236" lon="2.9724">
        <ele>60.8</ele>
        <time>2020-06-03T12:04:56.000Z</time>
      </trkpt>
      <trkpt lat="43.00236" lon="2.97237">
        <ele>60.8</ele>
        <time>2020-06-03T12:04:57.000Z</time>
      </trkpt>
      <trkpt lat="43.00236" lon="2.97235">
        <ele>60.8</ele>
        <time>2020-06-03T12:04:58.000Z</time>
      </trkpt>
      <trkpt lat="43.00234" lon="2.97225">
        <ele>60.8</ele>
        <time>2020-06-03T12:05:03.000Z</time>
      </trkpt>
      <trkpt lat="43.00234" lon="2.97213">
        <ele>60.8</ele>
        <time>2020-06-03T12:05:42.000Z</time>
      </trkpt>
      <trkpt lat="43.00234" lon="2.97212">
        <ele>60.8</ele>
        <time>2020-06-03T12:05:43.000Z</time>
      </trkpt>
      <trkpt lat="43.00234" lon="2.97212">
        <ele>60.8</ele>
        <time>2020-06-03T12:05:44.000Z</time>
      </trkpt>
      <trkpt lat="43.00241" lon="2.97196">
        <ele>60.8</ele>
        <time>2020-06-03T12:06:30.000Z</time>
      </trkpt>
      <trkpt lat="43.00244" lon="2.97194">
        <ele>60.4</ele>
        <time>2020-06-03T12:06:32.000Z</time>
      </trkpt>
      <trkpt lat="43.00246" lon="2.97195">
        <ele>59.4</ele>
        <time>2020-06-03T12:06:33.000Z</time>
      </trkpt>
      <trkpt lat="43.00247" lon="2.97196">
        <ele>59</ele>
        <time>2020-06-03T12:06:34.000Z</time>
      </trkpt>
      <trkpt lat="43.00248" lon="2.97197">
        <ele>58.6</ele>
        <time>2020-06-03T12:06:35.000Z</time>
      </trkpt>
      <trkpt lat="43.00248" lon="2.97197">
        <ele>58.6</ele>
        <time>2020-06-03T12:06:36.000Z</time>
      </trkpt>
      <trkpt lat="43.0025" lon="2.97199">
        <ele>58.6</ele>
        <time>2020-06-03T12:06:40.000Z</time>
      </trkpt>
      <trkpt lat="43.0025" lon="2.97202">
        <ele>58.6</ele>
        <time>2020-06-03T12:06:42.000Z</time>
      </trkpt>
      <trkpt lat="43.00251" lon="2.97207">
        <ele>58.6</ele>
        <time>2020-06-03T12:06:44.000Z</time>
      </trkpt>
      <trkpt lat="43.00252" lon="2.97212">
        <ele>58.6</ele>
        <time>2020-06-03T12:06:47.000Z</time>
      </trkpt>
      <trkpt lat="43.00252" lon="2.97212">
        <ele>58.6</ele>
        <time>2020-06-03T12:06:49.000Z</time>
      </trkpt>
      <trkpt lat="43.00254" lon="2.97216">
        <ele>58.6</ele>
        <time>2020-06-03T12:06:56.000Z</time>
      </trkpt>
      <trkpt lat="43.00256" lon="2.97221">
        <ele>58.6</ele>
        <time>2020-06-03T12:06:58.000Z</time>
      </trkpt>
      <trkpt lat="43.00256" lon="2.97224">
        <ele>58.2</ele>
        <time>2020-06-03T12:06:59.000Z</time>
      </trkpt>
      <trkpt lat="43.00255" lon="2.97228">
        <ele>57.8</ele>
        <time>2020-06-03T12:07:00.000Z</time>
      </trkpt>
      <trkpt lat="43.00255" lon="2.97232">
        <ele>57.2</ele>
        <time>2020-06-03T12:07:01.000Z</time>
      </trkpt>
      <trkpt lat="43.00255" lon="2.97235">
        <ele>56.8</ele>
        <time>2020-06-03T12:07:02.000Z</time>
      </trkpt>
      <trkpt lat="43.00256" lon="2.97237">
        <ele>56.4</ele>
        <time>2020-06-03T12:07:03.000Z</time>
      </trkpt>
      <trkpt lat="43.00256" lon="2.9724">
        <ele>56.4</ele>
        <time>2020-06-03T12:07:06.000Z</time>
      </trkpt>
      <trkpt lat="43.00256" lon="2.97243">
        <ele>56.4</ele>
        <time>2020-06-03T12:07:09.000Z</time>
      </trkpt>
      <trkpt lat="43.00257" lon="2.97248">
        <ele>56.4</ele>
        <time>2020-06-03T12:07:12.000Z</time>
      </trkpt>
      <trkpt lat="43.00274" lon="2.97258">
        <ele>54.2</ele>
        <time>2020-06-03T12:09:42.000Z</time>
      </trkpt>
      <trkpt lat="43.00274" lon="2.97262">
        <ele>54.2</ele>
        <time>2020-06-03T12:09:45.000Z</time>
      </trkpt>
      <trkpt lat="43.00275" lon="2.97267">
        <ele>54.2</ele>
        <time>2020-06-03T12:09:47.000Z</time>
      </trkpt>
      <trkpt lat="43.00275" lon="2.97269">
        <ele>54.2</ele>
        <time>2020-06-03T12:09:50.000Z</time>
      </trkpt>
      <trkpt lat="43.00282" lon="2.97268">
        <ele>54.2</ele>
        <time>2020-06-03T12:11:55.000Z</time>
      </trkpt>
      <trkpt lat="43.00284" lon="2.97265">
        <ele>54.2</ele>
        <time>2020-06-03T12:11:59.000Z</time>
      </trkpt>
      <trkpt lat="43.00285" lon="2.97264">
        <ele>54.2</ele>
        <time>2020-06-03T12:12:03.000Z</time>
      </trkpt>
      <trkpt lat="43.00286" lon="2.97261">
        <ele>54.2</ele>
        <time>2020-06-03T12:12:04.000Z</time>
      </trkpt>
      <trkpt lat="43.00286" lon="2.97252">
        <ele>54.2</ele>
        <time>2020-06-03T12:12:07.000Z</time>
      </trkpt>
      <trkpt lat="43.00286" lon="2.97249">
        <ele>54.2</ele>
        <time>2020-06-03T12:12:08.000Z</time>
      </trkpt>
      <trkpt lat="43.00287" lon="2.97228">
        <ele>54.2</ele>
        <time>2020-06-03T12:12:13.000Z</time>
      </trkpt>
      <trkpt lat="43.00294" lon="2.97199">
        <ele>54.2</ele>
        <time>2020-06-03T12:12:20.000Z</time>
      </trkpt>
      <trkpt lat="43.00298" lon="2.97195">
        <ele>54.2</ele>
        <time>2020-06-03T12:12:23.000Z</time>
      </trkpt>
      <trkpt lat="43.00301" lon="2.97195">
        <ele>54.2</ele>
        <time>2020-06-03T12:12:25.000Z</time>
      </trkpt>
      <trkpt lat="43.00304" lon="2.97194">
        <ele>54.2</ele>
        <time>2020-06-03T12:12:27.000Z</time>
      </trkpt>
      <trkpt lat="43.00304" lon="2.9719">
        <ele>54.2</ele>
        <time>2020-06-03T12:12:29.000Z</time>
      </trkpt>
      <trkpt lat="43.00302" lon="2.97188">
        <ele>54.2</ele>
        <time>2020-06-03T12:12:32.000Z</time>
      </trkpt>
      <trkpt lat="43.00292" lon="2.97196">
        <ele>54.2</ele>
        <time>2020-06-03T12:12:49.000Z</time>
      </trkpt>
      <trkpt lat="43.00292" lon="2.97194">
        <ele>54.2</ele>
        <time>2020-06-03T12:12:50.000Z</time>
      </trkpt>
      <trkpt lat="43.0029" lon="2.97187">
        <ele>54.2</ele>
        <time>2020-06-03T12:12:55.000Z</time>
      </trkpt>
      <trkpt lat="43.00289" lon="2.97185">
        <ele>54.2</ele>
        <time>2020-06-03T12:12:57.000Z</time>
      </trkpt>
      <trkpt lat="43.00296" lon="2.97165">
        <ele>54.2</ele>
        <time>2020-06-03T12:13:29.000Z</time>
      </trkpt>
      <trkpt lat="43.00295" lon="2.97163">
        <ele>54.2</ele>
        <time>2020-06-03T12:13:31.000Z</time>
      </trkpt>
      <trkpt lat="43.00294" lon="2.97162">
        <ele>54.2</ele>
        <time>2020-06-03T12:13:34.000Z</time>
      </trkpt>
      <trkpt lat="43.00292" lon="2.97156">
        <ele>54.2</ele>
        <time>2020-06-03T12:18:09.000Z</time>
      </trkpt>
      <trkpt lat="43.0029" lon="2.97154">
        <ele>54.2</ele>
        <time>2020-06-03T12:18:10.000Z</time>
      </trkpt>
      <trkpt lat="43.00282" lon="2.97144">
        <ele>54.2</ele>
        <time>2020-06-03T12:18:14.000Z</time>
      </trkpt>
      <trkpt lat="43.0028" lon="2.9713">
        <ele>54.2</ele>
        <time>2020-06-03T12:18:18.000Z</time>
      </trkpt>
      <trkpt lat="43.0028" lon="2.97127">
        <ele>54.2</ele>
        <time>2020-06-03T12:18:19.000Z</time>
      </trkpt>
      <trkpt lat="43.00276" lon="2.97101">
        <ele>54.2</ele>
        <time>2020-06-03T12:18:24.000Z</time>
      </trkpt>
      <trkpt lat="43.00274" lon="2.97096">
        <ele>54.2</ele>
        <time>2020-06-03T12:18:25.000Z</time>
      </trkpt>
      <trkpt lat="43.00263" lon="2.97072">
        <ele>54.2</ele>
        <time>2020-06-03T12:18:30.000Z</time>
      </trkpt>
      <trkpt lat="43.0025" lon="2.97062">
        <ele>54.2</ele>
        <time>2020-06-03T12:18:35.000Z</time>
      </trkpt>
      <trkpt lat="43.00241" lon="2.97063">
        <ele>54.2</ele>
        <time>2020-06-03T12:18:37.000Z</time>
      </trkpt>
      <trkpt lat="43.00232" lon="2.9706">
        <ele>54.2</ele>
        <time>2020-06-03T12:18:39.000Z</time>
      </trkpt>
      <trkpt lat="43.00223" lon="2.97048">
        <ele>54.2</ele>
        <time>2020-06-03T12:18:43.000Z</time>
      </trkpt>
      <trkpt lat="43.00204" lon="2.97034">
        <ele>54.2</ele>
        <time>2020-06-03T12:18:48.000Z</time>
      </trkpt>
      <trkpt lat="43.00196" lon="2.9703">
        <ele>54.8</ele>
        <time>2020-06-03T12:18:50.000Z</time>
      </trkpt>
      <trkpt lat="43.00192" lon="2.97027">
        <ele>55.2</ele>
        <time>2020-06-03T12:18:51.000Z</time>
      </trkpt>
      <trkpt lat="43.00189" lon="2.97024">
        <ele>55.6</ele>
        <time>2020-06-03T12:18:52.000Z</time>
      </trkpt>
      <trkpt lat="43.00185" lon="2.9702">
        <ele>56</ele>
        <time>2020-06-03T12:18:53.000Z</time>
      </trkpt>
      <trkpt lat="43.00182" lon="2.97018">
        <ele>56.4</ele>
        <time>2020-06-03T12:18:54.000Z</time>
      </trkpt>
      <trkpt lat="43.00177" lon="2.97014">
        <ele>56.4</ele>
        <time>2020-06-03T12:18:56.000Z</time>
      </trkpt>
      <trkpt lat="43.00172" lon="2.97008">
        <ele>56.4</ele>
        <time>2020-06-03T12:18:58.000Z</time>
      </trkpt>
      <trkpt lat="43.0016" lon="2.96988">
        <ele>56.4</ele>
        <time>2020-06-03T12:19:02.000Z</time>
      </trkpt>
      <trkpt lat="43.00159" lon="2.96966">
        <ele>56.4</ele>
        <time>2020-06-03T12:19:05.000Z</time>
      </trkpt>
      <trkpt lat="43.0016" lon="2.96958">
        <ele>56</ele>
        <time>2020-06-03T12:19:06.000Z</time>
      </trkpt>
      <trkpt lat="43.00161" lon="2.96951">
        <ele>55.6</ele>
        <time>2020-06-03T12:19:07.000Z</time>
      </trkpt>
      <trkpt lat="43.00162" lon="2.96943">
        <ele>55.2</ele>
        <time>2020-06-03T12:19:08.000Z</time>
      </trkpt>
      <trkpt lat="43.00164" lon="2.96936">
        <ele>54.8</ele>
        <time>2020-06-03T12:19:09.000Z</time>
      </trkpt>
      <trkpt lat="43.00164" lon="2.96931">
        <ele>54.4</ele>
        <time>2020-06-03T12:19:10.000Z</time>
      </trkpt>
      <trkpt lat="43.00161" lon="2.96926">
        <ele>54.4</ele>
        <time>2020-06-03T12:19:11.000Z</time>
      </trkpt>
      <trkpt lat="43.00144" lon="2.96906">
        <ele>54.4</ele>
        <time>2020-06-03T12:19:16.000Z</time>
      </trkpt>
      <trkpt lat="43.00142" lon="2.96901">
        <ele>54.4</ele>
        <time>2020-06-03T12:19:17.000Z</time>
      </trkpt>
      <trkpt lat="43.00134" lon="2.96887">
        <ele>55.2</ele>
        <time>2020-06-03T12:19:20.000Z</time>
      </trkpt>
      <trkpt lat="43.00131" lon="2.96882">
        <ele>55.6</ele>
        <time>2020-06-03T12:19:21.000Z</time>
      </trkpt>
      <trkpt lat="43.00128" lon="2.96877">
        <ele>56</ele>
        <time>2020-06-03T12:19:22.000Z</time>
      </trkpt>
      <trkpt lat="43.00126" lon="2.96871">
        <ele>56.6</ele>
        <time>2020-06-03T12:19:23.000Z</time>
      </trkpt>
      <trkpt lat="43.0012" lon="2.96855">
        <ele>56.6</ele>
        <time>2020-06-03T12:19:26.000Z</time>
      </trkpt>
      <trkpt lat="43.00112" lon="2.96833">
        <ele>56.6</ele>
        <time>2020-06-03T12:19:30.000Z</time>
      </trkpt>
      <trkpt lat="43.0011" lon="2.96819">
        <ele>56.6</ele>
        <time>2020-06-03T12:19:33.000Z</time>
      </trkpt>
      <trkpt lat="43.0011" lon="2.96788">
        <ele>56.6</ele>
        <time>2020-06-03T12:19:38.000Z</time>
      </trkpt>
      <trkpt lat="43.00109" lon="2.96751">
        <ele>56.6</ele>
        <time>2020-06-03T12:19:45.000Z</time>
      </trkpt>
      <trkpt lat="43.00107" lon="2.96691">
        <ele>56.6</ele>
        <time>2020-06-03T12:19:54.000Z</time>
      </trkpt>
      <trkpt lat="43.00106" lon="2.96684">
        <ele>56.6</ele>
        <time>2020-06-03T12:19:55.000Z</time>
      </trkpt>
      <trkpt lat="43.00101" lon="2.96652">
        <ele>56.6</ele>
        <time>2020-06-03T12:20:00.000Z</time>
      </trkpt>
      <trkpt lat="43.00101" lon="2.9661">
        <ele>56.6</ele>
        <time>2020-06-03T12:20:06.000Z</time>
      </trkpt>
      <trkpt lat="43.00104" lon="2.96548">
        <ele>56.6</ele>
        <time>2020-06-03T12:20:14.000Z</time>
      </trkpt>
      <trkpt lat="43.00105" lon="2.96519">
        <ele>57</ele>
        <time>2020-06-03T12:20:18.000Z</time>
      </trkpt>
      <trkpt lat="43.00105" lon="2.96513">
        <ele>57.4</ele>
        <time>2020-06-03T12:20:19.000Z</time>
      </trkpt>
      <trkpt lat="43.00106" lon="2.96506">
        <ele>57.8</ele>
        <time>2020-06-03T12:20:20.000Z</time>
      </trkpt>
      <trkpt lat="43.00106" lon="2.965">
        <ele>58.2</ele>
        <time>2020-06-03T12:20:21.000Z</time>
      </trkpt>
      <trkpt lat="43.00106" lon="2.96494">
        <ele>58.6</ele>
        <time>2020-06-03T12:20:22.000Z</time>
      </trkpt>
      <trkpt lat="43.00106" lon="2.96469">
        <ele>58.6</ele>
        <time>2020-06-03T12:20:27.000Z</time>
      </trkpt>
      <trkpt lat="43.00107" lon="2.96457">
        <ele>58.6</ele>
        <time>2020-06-03T12:20:29.000Z</time>
      </trkpt>
      <trkpt lat="43.00107" lon="2.96436">
        <ele>58.6</ele>
        <time>2020-06-03T12:20:32.000Z</time>
      </trkpt>
      <trkpt lat="43.00107" lon="2.96429">
        <ele>58.6</ele>
        <time>2020-06-03T12:20:33.000Z</time>
      </trkpt>
      <trkpt lat="43.001" lon="2.96407">
        <ele>58.6</ele>
        <time>2020-06-03T12:20:37.000Z</time>
      </trkpt>
      <trkpt lat="43.00089" lon="2.96409">
        <ele>58.6</ele>
        <time>2020-06-03T12:20:41.000Z</time>
      </trkpt>
      <trkpt lat="43.00086" lon="2.9641">
        <ele>58.6</ele>
        <time>2020-06-03T12:20:42.000Z</time>
      </trkpt>
      <trkpt lat="43.00066" lon="2.96426">
        <ele>58.6</ele>
        <time>2020-06-03T12:20:48.000Z</time>
      </trkpt>
      <trkpt lat="43.00039" lon="2.96449">
        <ele>58.6</ele>
        <time>2020-06-03T12:20:55.000Z</time>
      </trkpt>
      <trkpt lat="43.0001" lon="2.9647">
        <ele>58.6</ele>
        <time>2020-06-03T12:21:02.000Z</time>
      </trkpt>
      <trkpt lat="42.9999" lon="2.96483">
        <ele>58.6</ele>
        <time>2020-06-03T12:21:06.000Z</time>
      </trkpt>
      <trkpt lat="42.9998" lon="2.96491">
        <ele>58.6</ele>
        <time>2020-06-03T12:21:08.000Z</time>
      </trkpt>
      <trkpt lat="42.99962" lon="2.96502">
        <ele>58.6</ele>
        <time>2020-06-03T12:21:12.000Z</time>
      </trkpt>
      <trkpt lat="42.99957" lon="2.96506">
        <ele>58.6</ele>
        <time>2020-06-03T12:21:13.000Z</time>
      </trkpt>
      <trkpt lat="42.99943" lon="2.96516">
        <ele>58.6</ele>
        <time>2020-06-03T12:21:16.000Z</time>
      </trkpt>
      <trkpt lat="42.99932" lon="2.96521">
        <ele>58.6</ele>
        <time>2020-06-03T12:21:18.000Z</time>
      </trkpt>
      <trkpt lat="42.99896" lon="2.96545">
        <ele>58.6</ele>
        <time>2020-06-03T12:21:25.000Z</time>
      </trkpt>
      <trkpt lat="42.99867" lon="2.96565">
        <ele>58.6</ele>
        <time>2020-06-03T12:21:31.000Z</time>
      </trkpt>
      <trkpt lat="42.99858" lon="2.96573">
        <ele>58.6</ele>
        <time>2020-06-03T12:21:33.000Z</time>
      </trkpt>
      <trkpt lat="42.99844" lon="2.9658">
        <ele>58.6</ele>
        <time>2020-06-03T12:21:36.000Z</time>
      </trkpt>
      <trkpt lat="42.99828" lon="2.96586">
        <ele>58.6</ele>
        <time>2020-06-03T12:21:40.000Z</time>
      </trkpt>
      <trkpt lat="42.99819" lon="2.96608">
        <ele>58.6</ele>
        <time>2020-06-03T12:21:44.000Z</time>
      </trkpt>
      <trkpt lat="42.99813" lon="2.96619">
        <ele>58.6</ele>
        <time>2020-06-03T12:21:46.000Z</time>
      </trkpt>
      <trkpt lat="42.99807" lon="2.96628">
        <ele>58.6</ele>
        <time>2020-06-03T12:21:48.000Z</time>
      </trkpt>
      <trkpt lat="42.99794" lon="2.96628">
        <ele>58.6</ele>
        <time>2020-06-03T12:21:51.000Z</time>
      </trkpt>
      <trkpt lat="42.99785" lon="2.96614">
        <ele>58.6</ele>
        <time>2020-06-03T12:21:54.000Z</time>
      </trkpt>
      <trkpt lat="42.99781" lon="2.9661">
        <ele>58.6</ele>
        <time>2020-06-03T12:21:55.000Z</time>
      </trkpt>
      <trkpt lat="42.99767" lon="2.96608">
        <ele>58.6</ele>
        <time>2020-06-03T12:21:58.000Z</time>
      </trkpt>
      <trkpt lat="42.99758" lon="2.96611">
        <ele>58.6</ele>
        <time>2020-06-03T12:22:00.000Z</time>
      </trkpt>
      <trkpt lat="42.99748" lon="2.96615">
        <ele>58.6</ele>
        <time>2020-06-03T12:22:02.000Z</time>
      </trkpt>
      <trkpt lat="42.99738" lon="2.96619">
        <ele>58.6</ele>
        <time>2020-06-03T12:22:04.000Z</time>
      </trkpt>
      <trkpt lat="42.99704" lon="2.96636">
        <ele>58.6</ele>
        <time>2020-06-03T12:22:11.000Z</time>
      </trkpt>
      <trkpt lat="42.99699" lon="2.96647">
        <ele>59.4</ele>
        <time>2020-06-03T12:22:13.000Z</time>
      </trkpt>
      <trkpt lat="42.99697" lon="2.96653">
        <ele>59.8</ele>
        <time>2020-06-03T12:22:14.000Z</time>
      </trkpt>
      <trkpt lat="42.99695" lon="2.96659">
        <ele>60.2</ele>
        <time>2020-06-03T12:22:15.000Z</time>
      </trkpt>
      <trkpt lat="42.99692" lon="2.96664">
        <ele>60.6</ele>
        <time>2020-06-03T12:22:16.000Z</time>
      </trkpt>
      <trkpt lat="42.99684" lon="2.96673">
        <ele>60.6</ele>
        <time>2020-06-03T12:22:18.000Z</time>
      </trkpt>
      <trkpt lat="42.99664" lon="2.96685">
        <ele>60.6</ele>
        <time>2020-06-03T12:22:22.000Z</time>
      </trkpt>
      <trkpt lat="42.99659" lon="2.96686">
        <ele>60.6</ele>
        <time>2020-06-03T12:22:23.000Z</time>
      </trkpt>
      <trkpt lat="42.99618" lon="2.96702">
        <ele>60.6</ele>
        <time>2020-06-03T12:22:31.000Z</time>
      </trkpt>
      <trkpt lat="42.99584" lon="2.96716">
        <ele>61</ele>
        <time>2020-06-03T12:22:38.000Z</time>
      </trkpt>
      <trkpt lat="42.99579" lon="2.96719">
        <ele>61.4</ele>
        <time>2020-06-03T12:22:39.000Z</time>
      </trkpt>
      <trkpt lat="42.99574" lon="2.96721">
        <ele>61.8</ele>
        <time>2020-06-03T12:22:40.000Z</time>
      </trkpt>
      <trkpt lat="42.9957" lon="2.96723">
        <ele>62.2</ele>
        <time>2020-06-03T12:22:41.000Z</time>
      </trkpt>
      <trkpt lat="42.99566" lon="2.96726">
        <ele>62.6</ele>
        <time>2020-06-03T12:22:42.000Z</time>
      </trkpt>
      <trkpt lat="42.99562" lon="2.96727">
        <ele>62.6</ele>
        <time>2020-06-03T12:22:43.000Z</time>
      </trkpt>
      <trkpt lat="42.99552" lon="2.9673">
        <ele>62.6</ele>
        <time>2020-06-03T12:22:45.000Z</time>
      </trkpt>
      <trkpt lat="42.99534" lon="2.96736">
        <ele>62.6</ele>
        <time>2020-06-03T12:22:49.000Z</time>
      </trkpt>
      <trkpt lat="42.99522" lon="2.9674">
        <ele>62.6</ele>
        <time>2020-06-03T12:22:52.000Z</time>
      </trkpt>
      <trkpt lat="42.99508" lon="2.96745">
        <ele>63</ele>
        <time>2020-06-03T12:22:55.000Z</time>
      </trkpt>
      <trkpt lat="42.99503" lon="2.96746">
        <ele>63.4</ele>
        <time>2020-06-03T12:22:56.000Z</time>
      </trkpt>
      <trkpt lat="42.99498" lon="2.96747">
        <ele>63.8</ele>
        <time>2020-06-03T12:22:57.000Z</time>
      </trkpt>
      <trkpt lat="42.99494" lon="2.96748">
        <ele>64.2</ele>
        <time>2020-06-03T12:22:58.000Z</time>
      </trkpt>
      <trkpt lat="42.99489" lon="2.9675">
        <ele>64.6</ele>
        <time>2020-06-03T12:22:59.000Z</time>
      </trkpt>
      <trkpt lat="42.99457" lon="2.96757">
        <ele>64.6</ele>
        <time>2020-06-03T12:23:06.000Z</time>
      </trkpt>
      <trkpt lat="42.99443" lon="2.9676">
        <ele>65</ele>
        <time>2020-06-03T12:23:09.000Z</time>
      </trkpt>
      <trkpt lat="42.99439" lon="2.96761">
        <ele>65.4</ele>
        <time>2020-06-03T12:23:10.000Z</time>
      </trkpt>
      <trkpt lat="42.99435" lon="2.96762">
        <ele>66</ele>
        <time>2020-06-03T12:23:11.000Z</time>
      </trkpt>
      <trkpt lat="42.99431" lon="2.96764">
        <ele>66.4</ele>
        <time>2020-06-03T12:23:12.000Z</time>
      </trkpt>
      <trkpt lat="42.99427" lon="2.96766">
        <ele>66.8</ele>
        <time>2020-06-03T12:23:13.000Z</time>
      </trkpt>
      <trkpt lat="42.9942" lon="2.96771">
        <ele>67.2</ele>
        <time>2020-06-03T12:23:15.000Z</time>
      </trkpt>
      <trkpt lat="42.99417" lon="2.96773">
        <ele>67.6</ele>
        <time>2020-06-03T12:23:16.000Z</time>
      </trkpt>
      <trkpt lat="42.99415" lon="2.96776">
        <ele>68</ele>
        <time>2020-06-03T12:23:17.000Z</time>
      </trkpt>
      <trkpt lat="42.99413" lon="2.96777">
        <ele>68.4</ele>
        <time>2020-06-03T12:23:18.000Z</time>
      </trkpt>
      <trkpt lat="42.99411" lon="2.96778">
        <ele>68.8</ele>
        <time>2020-06-03T12:23:19.000Z</time>
      </trkpt>
      <trkpt lat="42.99409" lon="2.9678">
        <ele>69.4</ele>
        <time>2020-06-03T12:23:20.000Z</time>
      </trkpt>
      <trkpt lat="42.99408" lon="2.9678">
        <ele>69.8</ele>
        <time>2020-06-03T12:23:21.000Z</time>
      </trkpt>
      <trkpt lat="42.99406" lon="2.96781">
        <ele>70.2</ele>
        <time>2020-06-03T12:23:22.000Z</time>
      </trkpt>
      <trkpt lat="42.99403" lon="2.96781">
        <ele>70.8</ele>
        <time>2020-06-03T12:23:23.000Z</time>
      </trkpt>
      <trkpt lat="42.99393" lon="2.96775">
        <ele>70.8</ele>
        <time>2020-06-03T12:23:26.000Z</time>
      </trkpt>
      <trkpt lat="42.99375" lon="2.96768">
        <ele>70.8</ele>
        <time>2020-06-03T12:23:30.000Z</time>
      </trkpt>
      <trkpt lat="42.9937" lon="2.96767">
        <ele>70.8</ele>
        <time>2020-06-03T12:23:31.000Z</time>
      </trkpt>
      <trkpt lat="42.99348" lon="2.96766">
        <ele>70.8</ele>
        <time>2020-06-03T12:23:35.000Z</time>
      </trkpt>
      <trkpt lat="42.99325" lon="2.96763">
        <ele>70.8</ele>
        <time>2020-06-03T12:23:40.000Z</time>
      </trkpt>
      <trkpt lat="42.99297" lon="2.9675">
        <ele>71.2</ele>
        <time>2020-06-03T12:23:46.000Z</time>
      </trkpt>
      <trkpt lat="42.99293" lon="2.96747">
        <ele>71.6</ele>
        <time>2020-06-03T12:23:47.000Z</time>
      </trkpt>
      <trkpt lat="42.99289" lon="2.96743">
        <ele>72</ele>
        <time>2020-06-03T12:23:48.000Z</time>
      </trkpt>
      <trkpt lat="42.99286" lon="2.96737">
        <ele>72.4</ele>
        <time>2020-06-03T12:23:49.000Z</time>
      </trkpt>
      <trkpt lat="42.99284" lon="2.96731">
        <ele>72.8</ele>
        <time>2020-06-03T12:23:50.000Z</time>
      </trkpt>
      <trkpt lat="42.9928" lon="2.96702">
        <ele>72.8</ele>
        <time>2020-06-03T12:23:54.000Z</time>
      </trkpt>
      <trkpt lat="42.99279" lon="2.96695">
        <ele>72.8</ele>
        <time>2020-06-03T12:23:55.000Z</time>
      </trkpt>
      <trkpt lat="42.99272" lon="2.96677">
        <ele>72.8</ele>
        <time>2020-06-03T12:23:58.000Z</time>
      </trkpt>
      <trkpt lat="42.99257" lon="2.96667">
        <ele>72.8</ele>
        <time>2020-06-03T12:24:02.000Z</time>
      </trkpt>
      <trkpt lat="42.99248" lon="2.96664">
        <ele>72.8</ele>
        <time>2020-06-03T12:24:04.000Z</time>
      </trkpt>
      <trkpt lat="42.99228" lon="2.96661">
        <ele>72.8</ele>
        <time>2020-06-03T12:24:08.000Z</time>
      </trkpt>
      <trkpt lat="42.99195" lon="2.96655">
        <ele>72.8</ele>
        <time>2020-06-03T12:24:15.000Z</time>
      </trkpt>
      <trkpt lat="42.99191" lon="2.96654">
        <ele>73.2</ele>
        <time>2020-06-03T12:24:16.000Z</time>
      </trkpt>
      <trkpt lat="42.99187" lon="2.96653">
        <ele>73.6</ele>
        <time>2020-06-03T12:24:17.000Z</time>
      </trkpt>
      <trkpt lat="42.99183" lon="2.96652">
        <ele>74.2</ele>
        <time>2020-06-03T12:24:18.000Z</time>
      </trkpt>
      <trkpt lat="42.99179" lon="2.96651">
        <ele>74.6</ele>
        <time>2020-06-03T12:24:19.000Z</time>
      </trkpt>
      <trkpt lat="42.99176" lon="2.96649">
        <ele>75</ele>
        <time>2020-06-03T12:24:20.000Z</time>
      </trkpt>
      <trkpt lat="42.99173" lon="2.96645">
        <ele>75</ele>
        <time>2020-06-03T12:24:21.000Z</time>
      </trkpt>
      <trkpt lat="42.99168" lon="2.96636">
        <ele>75</ele>
        <time>2020-06-03T12:24:23.000Z</time>
      </trkpt>
      <trkpt lat="42.99167" lon="2.96623">
        <ele>75</ele>
        <time>2020-06-03T12:24:25.000Z</time>
      </trkpt>
      <trkpt lat="42.99171" lon="2.96592">
        <ele>75</ele>
        <time>2020-06-03T12:24:29.000Z</time>
      </trkpt>
      <trkpt lat="42.99178" lon="2.96547">
        <ele>75</ele>
        <time>2020-06-03T12:24:35.000Z</time>
      </trkpt>
      <trkpt lat="42.99176" lon="2.96539">
        <ele>75</ele>
        <time>2020-06-03T12:24:37.000Z</time>
      </trkpt>
      <trkpt lat="42.99173" lon="2.96537">
        <ele>75</ele>
        <time>2020-06-03T12:24:38.000Z</time>
      </trkpt>
      <trkpt lat="42.99161" lon="2.96534">
        <ele>75</ele>
        <time>2020-06-03T12:24:42.000Z</time>
      </trkpt>
      <trkpt lat="42.99153" lon="2.96533">
        <ele>75</ele>
        <time>2020-06-03T12:24:44.000Z</time>
      </trkpt>
      <trkpt lat="42.99138" lon="2.96528">
        <ele>75</ele>
        <time>2020-06-03T12:24:48.000Z</time>
      </trkpt>
      <trkpt lat="42.99122" lon="2.96525">
        <ele>75.4</ele>
        <time>2020-06-03T12:24:53.000Z</time>
      </trkpt>
      <trkpt lat="42.99119" lon="2.96524">
        <ele>75.8</ele>
        <time>2020-06-03T12:24:54.000Z</time>
      </trkpt>
      <trkpt lat="42.99116" lon="2.96524">
        <ele>76.2</ele>
        <time>2020-06-03T12:24:55.000Z</time>
      </trkpt>
      <trkpt lat="42.99113" lon="2.96523">
        <ele>76.6</ele>
        <time>2020-06-03T12:24:56.000Z</time>
      </trkpt>
      <trkpt lat="42.9911" lon="2.96522">
        <ele>77</ele>
        <time>2020-06-03T12:24:57.000Z</time>
      </trkpt>
      <trkpt lat="42.99103" lon="2.9652">
        <ele>77.4</ele>
        <time>2020-06-03T12:25:00.000Z</time>
      </trkpt>
      <trkpt lat="42.991" lon="2.96519">
        <ele>77.8</ele>
        <time>2020-06-03T12:25:01.000Z</time>
      </trkpt>
      <trkpt lat="42.99098" lon="2.96518">
        <ele>78.4</ele>
        <time>2020-06-03T12:25:02.000Z</time>
      </trkpt>
      <trkpt lat="42.99096" lon="2.96517">
        <ele>78.8</ele>
        <time>2020-06-03T12:25:03.000Z</time>
      </trkpt>
      <trkpt lat="42.99094" lon="2.96516">
        <ele>79.2</ele>
        <time>2020-06-03T12:25:04.000Z</time>
      </trkpt>
      <trkpt lat="42.99089" lon="2.96515">
        <ele>80</ele>
        <time>2020-06-03T12:25:06.000Z</time>
      </trkpt>
      <trkpt lat="42.99087" lon="2.96514">
        <ele>80.4</ele>
        <time>2020-06-03T12:25:07.000Z</time>
      </trkpt>
      <trkpt lat="42.99085" lon="2.96514">
        <ele>81</ele>
        <time>2020-06-03T12:25:08.000Z</time>
      </trkpt>
      <trkpt lat="42.99083" lon="2.96513">
        <ele>81.4</ele>
        <time>2020-06-03T12:25:09.000Z</time>
      </trkpt>
      <trkpt lat="42.99079" lon="2.96512">
        <ele>81.4</ele>
        <time>2020-06-03T12:25:11.000Z</time>
      </trkpt>
      <trkpt lat="42.99077" lon="2.96513">
        <ele>81.8</ele>
        <time>2020-06-03T12:25:12.000Z</time>
      </trkpt>
      <trkpt lat="42.99075" lon="2.96514">
        <ele>82.2</ele>
        <time>2020-06-03T12:25:13.000Z</time>
      </trkpt>
      <trkpt lat="42.99073" lon="2.96514">
        <ele>82.8</ele>
        <time>2020-06-03T12:25:14.000Z</time>
      </trkpt>
      <trkpt lat="42.99071" lon="2.96513">
        <ele>83.2</ele>
        <time>2020-06-03T12:25:15.000Z</time>
      </trkpt>
      <trkpt lat="42.99069" lon="2.96513">
        <ele>83.6</ele>
        <time>2020-06-03T12:25:16.000Z</time>
      </trkpt>
      <trkpt lat="42.99067" lon="2.96513">
        <ele>84</ele>
        <time>2020-06-03T12:25:17.000Z</time>
      </trkpt>
      <trkpt lat="42.99066" lon="2.96513">
        <ele>84.4</ele>
        <time>2020-06-03T12:25:18.000Z</time>
      </trkpt>
      <trkpt lat="42.99066" lon="2.96514">
        <ele>84.8</ele>
        <time>2020-06-03T12:25:19.000Z</time>
      </trkpt>
      <trkpt lat="42.99065" lon="2.96516">
        <ele>85.2</ele>
        <time>2020-06-03T12:25:20.000Z</time>
      </trkpt>
      <trkpt lat="42.99065" lon="2.96518">
        <ele>85.6</ele>
        <time>2020-06-03T12:25:21.000Z</time>
      </trkpt>
      <trkpt lat="42.99064" lon="2.9652">
        <ele>86</ele>
        <time>2020-06-03T12:25:23.000Z</time>
      </trkpt>
      <trkpt lat="42.99063" lon="2.96522">
        <ele>86.4</ele>
        <time>2020-06-03T12:25:24.000Z</time>
      </trkpt>
      <trkpt lat="42.99063" lon="2.96524">
        <ele>86.8</ele>
        <time>2020-06-03T12:25:25.000Z</time>
      </trkpt>
      <trkpt lat="42.99062" lon="2.96526">
        <ele>87.4</ele>
        <time>2020-06-03T12:25:26.000Z</time>
      </trkpt>
      <trkpt lat="42.99062" lon="2.96528">
        <ele>87.8</ele>
        <time>2020-06-03T12:25:27.000Z</time>
      </trkpt>
      <trkpt lat="42.99061" lon="2.96531">
        <ele>88.2</ele>
        <time>2020-06-03T12:25:28.000Z</time>
      </trkpt>
      <trkpt lat="42.9906" lon="2.96533">
        <ele>88.6</ele>
        <time>2020-06-03T12:25:29.000Z</time>
      </trkpt>
      <trkpt lat="42.99061" lon="2.96536">
        <ele>89.2</ele>
        <time>2020-06-03T12:25:30.000Z</time>
      </trkpt>
      <trkpt lat="42.99061" lon="2.96539">
        <ele>90.2</ele>
        <time>2020-06-03T12:25:31.000Z</time>
      </trkpt>
      <trkpt lat="42.99061" lon="2.96542">
        <ele>90.2</ele>
        <time>2020-06-03T12:25:32.000Z</time>
      </trkpt>
      <trkpt lat="42.99061" lon="2.96545">
        <ele>90.6</ele>
        <time>2020-06-03T12:25:33.000Z</time>
      </trkpt>
      <trkpt lat="42.99061" lon="2.96549">
        <ele>91</ele>
        <time>2020-06-03T12:25:34.000Z</time>
      </trkpt>
      <trkpt lat="42.99061" lon="2.96554">
        <ele>91.4</ele>
        <time>2020-06-03T12:25:35.000Z</time>
      </trkpt>
      <trkpt lat="42.9906" lon="2.96558">
        <ele>91.8</ele>
        <time>2020-06-03T12:25:36.000Z</time>
      </trkpt>
      <trkpt lat="42.9906" lon="2.96562">
        <ele>92.2</ele>
        <time>2020-06-03T12:25:37.000Z</time>
      </trkpt>
      <trkpt lat="42.99056" lon="2.96577">
        <ele>92.2</ele>
        <time>2020-06-03T12:25:42.000Z</time>
      </trkpt>
      <trkpt lat="42.99055" lon="2.96581">
        <ele>92.6</ele>
        <time>2020-06-03T12:25:44.000Z</time>
      </trkpt>
      <trkpt lat="42.99055" lon="2.96584">
        <ele>93</ele>
        <time>2020-06-03T12:25:45.000Z</time>
      </trkpt>
      <trkpt lat="42.99055" lon="2.96587">
        <ele>93.4</ele>
        <time>2020-06-03T12:25:46.000Z</time>
      </trkpt>
      <trkpt lat="42.99055" lon="2.96591">
        <ele>93.8</ele>
        <time>2020-06-03T12:25:47.000Z</time>
      </trkpt>
      <trkpt lat="42.99056" lon="2.96595">
        <ele>94.2</ele>
        <time>2020-06-03T12:25:48.000Z</time>
      </trkpt>
      <trkpt lat="42.99056" lon="2.96599">
        <ele>94.2</ele>
        <time>2020-06-03T12:25:49.000Z</time>
      </trkpt>
      <trkpt lat="42.99056" lon="2.96606">
        <ele>94.2</ele>
        <time>2020-06-03T12:25:51.000Z</time>
      </trkpt>
      <trkpt lat="42.99054" lon="2.9662">
        <ele>94.2</ele>
        <time>2020-06-03T12:25:55.000Z</time>
      </trkpt>
      <trkpt lat="42.99052" lon="2.96624">
        <ele>94.2</ele>
        <time>2020-06-03T12:25:57.000Z</time>
      </trkpt>
      <trkpt lat="42.99051" lon="2.96626">
        <ele>94.8</ele>
        <time>2020-06-03T12:25:58.000Z</time>
      </trkpt>
      <trkpt lat="42.99051" lon="2.96629">
        <ele>95.2</ele>
        <time>2020-06-03T12:25:59.000Z</time>
      </trkpt>
      <trkpt lat="42.99051" lon="2.96631">
        <ele>95.8</ele>
        <time>2020-06-03T12:26:00.000Z</time>
      </trkpt>
      <trkpt lat="42.99051" lon="2.96634">
        <ele>96.4</ele>
        <time>2020-06-03T12:26:01.000Z</time>
      </trkpt>
      <trkpt lat="42.99051" lon="2.96638">
        <ele>96.8</ele>
        <time>2020-06-03T12:26:02.000Z</time>
      </trkpt>
      <trkpt lat="42.9905" lon="2.96644">
        <ele>97.2</ele>
        <time>2020-06-03T12:26:04.000Z</time>
      </trkpt>
      <trkpt lat="42.99048" lon="2.96647">
        <ele>97.6</ele>
        <time>2020-06-03T12:26:05.000Z</time>
      </trkpt>
      <trkpt lat="42.99047" lon="2.96649">
        <ele>98.2</ele>
        <time>2020-06-03T12:26:06.000Z</time>
      </trkpt>
      <trkpt lat="42.99046" lon="2.96651">
        <ele>98.6</ele>
        <time>2020-06-03T12:26:07.000Z</time>
      </trkpt>
      <trkpt lat="42.99045" lon="2.96654">
        <ele>99</ele>
        <time>2020-06-03T12:26:08.000Z</time>
      </trkpt>
      <trkpt lat="42.99041" lon="2.96658">
        <ele>99.4</ele>
        <time>2020-06-03T12:26:10.000Z</time>
      </trkpt>
      <trkpt lat="42.9904" lon="2.9666">
        <ele>99.8</ele>
        <time>2020-06-03T12:26:11.000Z</time>
      </trkpt>
      <trkpt lat="42.99038" lon="2.96662">
        <ele>100.4</ele>
        <time>2020-06-03T12:26:12.000Z</time>
      </trkpt>
      <trkpt lat="42.99036" lon="2.96664">
        <ele>100.8</ele>
        <time>2020-06-03T12:26:13.000Z</time>
      </trkpt>
      <trkpt lat="42.99035" lon="2.96666">
        <ele>101.2</ele>
        <time>2020-06-03T12:26:14.000Z</time>
      </trkpt>
      <trkpt lat="42.99034" lon="2.96666">
        <ele>101.8</ele>
        <time>2020-06-03T12:26:15.000Z</time>
      </trkpt>
      <trkpt lat="42.99032" lon="2.96667">
        <ele>102.2</ele>
        <time>2020-06-03T12:26:16.000Z</time>
      </trkpt>
      <trkpt lat="42.9903" lon="2.96667">
        <ele>102.8</ele>
        <time>2020-06-03T12:26:17.000Z</time>
      </trkpt>
      <trkpt lat="42.99028" lon="2.96668">
        <ele>103.2</ele>
        <time>2020-06-03T12:26:18.000Z</time>
      </trkpt>
      <trkpt lat="42.99025" lon="2.9667">
        <ele>104.2</ele>
        <time>2020-06-03T12:26:20.000Z</time>
      </trkpt>
      <trkpt lat="42.99023" lon="2.96672">
        <ele>104.6</ele>
        <time>2020-06-03T12:26:21.000Z</time>
      </trkpt>
      <trkpt lat="42.99021" lon="2.96673">
        <ele>105.2</ele>
        <time>2020-06-03T12:26:22.000Z</time>
      </trkpt>
      <trkpt lat="42.9902" lon="2.96676">
        <ele>105.6</ele>
        <time>2020-06-03T12:26:23.000Z</time>
      </trkpt>
      <trkpt lat="42.99017" lon="2.96691">
        <ele>105.6</ele>
        <time>2020-06-03T12:26:28.000Z</time>
      </trkpt>
      <trkpt lat="42.99016" lon="2.96694">
        <ele>106</ele>
        <time>2020-06-03T12:26:29.000Z</time>
      </trkpt>
      <trkpt lat="42.99015" lon="2.96697">
        <ele>106.4</ele>
        <time>2020-06-03T12:26:30.000Z</time>
      </trkpt>
      <trkpt lat="42.99015" lon="2.967">
        <ele>106.8</ele>
        <time>2020-06-03T12:26:31.000Z</time>
      </trkpt>
      <trkpt lat="42.99014" lon="2.96704">
        <ele>107.2</ele>
        <time>2020-06-03T12:26:32.000Z</time>
      </trkpt>
      <trkpt lat="42.99014" lon="2.96707">
        <ele>107.6</ele>
        <time>2020-06-03T12:26:33.000Z</time>
      </trkpt>
      <trkpt lat="42.99013" lon="2.96713">
        <ele>107.6</ele>
        <time>2020-06-03T12:26:35.000Z</time>
      </trkpt>
      <trkpt lat="42.99012" lon="2.96715">
        <ele>108.2</ele>
        <time>2020-06-03T12:26:36.000Z</time>
      </trkpt>
      <trkpt lat="42.99012" lon="2.96718">
        <ele>108.6</ele>
        <time>2020-06-03T12:26:37.000Z</time>
      </trkpt>
      <trkpt lat="42.99011" lon="2.9672">
        <ele>109</ele>
        <time>2020-06-03T12:26:38.000Z</time>
      </trkpt>
      <trkpt lat="42.99012" lon="2.96723">
        <ele>109.4</ele>
        <time>2020-06-03T12:26:39.000Z</time>
      </trkpt>
      <trkpt lat="42.99012" lon="2.96726">
        <ele>109.8</ele>
        <time>2020-06-03T12:26:40.000Z</time>
      </trkpt>
      <trkpt lat="42.99012" lon="2.96729">
        <ele>110.2</ele>
        <time>2020-06-03T12:26:41.000Z</time>
      </trkpt>
      <trkpt lat="42.99012" lon="2.96733">
        <ele>110.6</ele>
        <time>2020-06-03T12:26:42.000Z</time>
      </trkpt>
      <trkpt lat="42.99012" lon="2.96736">
        <ele>111</ele>
        <time>2020-06-03T12:26:43.000Z</time>
      </trkpt>
      <trkpt lat="42.99013" lon="2.96739">
        <ele>111.4</ele>
        <time>2020-06-03T12:26:44.000Z</time>
      </trkpt>
      <trkpt lat="42.99013" lon="2.96742">
        <ele>111.8</ele>
        <time>2020-06-03T12:26:45.000Z</time>
      </trkpt>
      <trkpt lat="42.99013" lon="2.96745">
        <ele>111.8</ele>
        <time>2020-06-03T12:26:46.000Z</time>
      </trkpt>
      <trkpt lat="42.99013" lon="2.96747">
        <ele>111.8</ele>
        <time>2020-06-03T12:26:47.000Z</time>
      </trkpt>
      <trkpt lat="42.9901" lon="2.96747">
        <ele>112.4</ele>
        <time>2020-06-03T12:26:49.000Z</time>
      </trkpt>
      <trkpt lat="42.99008" lon="2.96747">
        <ele>112.8</ele>
        <time>2020-06-03T12:26:50.000Z</time>
      </trkpt>
      <trkpt lat="42.99006" lon="2.96745">
        <ele>113.2</ele>
        <time>2020-06-03T12:26:51.000Z</time>
      </trkpt>
      <trkpt lat="42.99005" lon="2.96745">
        <ele>113.6</ele>
        <time>2020-06-03T12:26:52.000Z</time>
      </trkpt>
      <trkpt lat="42.99004" lon="2.96744">
        <ele>114.2</ele>
        <time>2020-06-03T12:26:53.000Z</time>
      </trkpt>
      <trkpt lat="42.99002" lon="2.96743">
        <ele>114.6</ele>
        <time>2020-06-03T12:26:54.000Z</time>
      </trkpt>
      <trkpt lat="42.98999" lon="2.96743">
        <ele>115</ele>
        <time>2020-06-03T12:26:55.000Z</time>
      </trkpt>
      <trkpt lat="42.98997" lon="2.96741">
        <ele>115.6</ele>
        <time>2020-06-03T12:26:56.000Z</time>
      </trkpt>
      <trkpt lat="42.98996" lon="2.96739">
        <ele>116</ele>
        <time>2020-06-03T12:26:57.000Z</time>
      </trkpt>
      <trkpt lat="42.98995" lon="2.96737">
        <ele>116.4</ele>
        <time>2020-06-03T12:26:58.000Z</time>
      </trkpt>
      <trkpt lat="42.98993" lon="2.96735">
        <ele>116.4</ele>
        <time>2020-06-03T12:26:59.000Z</time>
      </trkpt>
      <trkpt lat="42.98991" lon="2.96732">
        <ele>116.4</ele>
        <time>2020-06-03T12:27:00.000Z</time>
      </trkpt>
      <trkpt lat="42.98982" lon="2.96718">
        <ele>116.4</ele>
        <time>2020-06-03T12:27:04.000Z</time>
      </trkpt>
      <trkpt lat="42.98977" lon="2.967">
        <ele>116.4</ele>
        <time>2020-06-03T12:27:09.000Z</time>
      </trkpt>
      <trkpt lat="42.98972" lon="2.96694">
        <ele>116.8</ele>
        <time>2020-06-03T12:27:11.000Z</time>
      </trkpt>
      <trkpt lat="42.98969" lon="2.9669">
        <ele>117.2</ele>
        <time>2020-06-03T12:27:12.000Z</time>
      </trkpt>
      <trkpt lat="42.98967" lon="2.96688">
        <ele>117.8</ele>
        <time>2020-06-03T12:27:13.000Z</time>
      </trkpt>
      <trkpt lat="42.98965" lon="2.96684">
        <ele>118.2</ele>
        <time>2020-06-03T12:27:14.000Z</time>
      </trkpt>
      <trkpt lat="42.98964" lon="2.9668">
        <ele>118.6</ele>
        <time>2020-06-03T12:27:15.000Z</time>
      </trkpt>
      <trkpt lat="42.98964" lon="2.96677">
        <ele>118.6</ele>
        <time>2020-06-03T12:27:16.000Z</time>
      </trkpt>
      <trkpt lat="42.98962" lon="2.96651">
        <ele>118.6</ele>
        <time>2020-06-03T12:27:22.000Z</time>
      </trkpt>
      <trkpt lat="42.98962" lon="2.96627">
        <ele>119</ele>
        <time>2020-06-03T12:27:28.000Z</time>
      </trkpt>
      <trkpt lat="42.98962" lon="2.96623">
        <ele>119.4</ele>
        <time>2020-06-03T12:27:29.000Z</time>
      </trkpt>
      <trkpt lat="42.98962" lon="2.96619">
        <ele>119.8</ele>
        <time>2020-06-03T12:27:30.000Z</time>
      </trkpt>
      <trkpt lat="42.98962" lon="2.96615">
        <ele>120.2</ele>
        <time>2020-06-03T12:27:31.000Z</time>
      </trkpt>
      <trkpt lat="42.98963" lon="2.96611">
        <ele>120.6</ele>
        <time>2020-06-03T12:27:32.000Z</time>
      </trkpt>
      <trkpt lat="42.98963" lon="2.96599">
        <ele>120.6</ele>
        <time>2020-06-03T12:27:35.000Z</time>
      </trkpt>
      <trkpt lat="42.98963" lon="2.96591">
        <ele>121</ele>
        <time>2020-06-03T12:27:37.000Z</time>
      </trkpt>
      <trkpt lat="42.98963" lon="2.96587">
        <ele>121.4</ele>
        <time>2020-06-03T12:27:38.000Z</time>
      </trkpt>
      <trkpt lat="42.98963" lon="2.96583">
        <ele>121.8</ele>
        <time>2020-06-03T12:27:39.000Z</time>
      </trkpt>
      <trkpt lat="42.98963" lon="2.96579">
        <ele>122.2</ele>
        <time>2020-06-03T12:27:40.000Z</time>
      </trkpt>
      <trkpt lat="42.98963" lon="2.96575">
        <ele>122.6</ele>
        <time>2020-06-03T12:27:41.000Z</time>
      </trkpt>
      <trkpt lat="42.98963" lon="2.96558">
        <ele>122.6</ele>
        <time>2020-06-03T12:27:46.000Z</time>
      </trkpt>
      <trkpt lat="42.98962" lon="2.96556">
        <ele>122.6</ele>
        <time>2020-06-03T12:27:48.000Z</time>
      </trkpt>
      <trkpt lat="42.9896" lon="2.96552">
        <ele>122.6</ele>
        <time>2020-06-03T12:28:12.000Z</time>
      </trkpt>
      <trkpt lat="42.98949" lon="2.96551">
        <ele>122.6</ele>
        <time>2020-06-03T12:28:15.000Z</time>
      </trkpt>
      <trkpt lat="42.98935" lon="2.96548">
        <ele>122.6</ele>
        <time>2020-06-03T12:28:19.000Z</time>
      </trkpt>
      <trkpt lat="42.98931" lon="2.96546">
        <ele>122.6</ele>
        <time>2020-06-03T12:28:20.000Z</time>
      </trkpt>
      <trkpt lat="42.98923" lon="2.96546">
        <ele>122.6</ele>
        <time>2020-06-03T12:28:22.000Z</time>
      </trkpt>
      <trkpt lat="42.98919" lon="2.96548">
        <ele>122.6</ele>
        <time>2020-06-03T12:28:23.000Z</time>
      </trkpt>
      <trkpt lat="42.98907" lon="2.96554">
        <ele>122.6</ele>
        <time>2020-06-03T12:28:26.000Z</time>
      </trkpt>
      <trkpt lat="42.98891" lon="2.96559">
        <ele>122.2</ele>
        <time>2020-06-03T12:28:29.000Z</time>
      </trkpt>
      <trkpt lat="42.98886" lon="2.96562">
        <ele>121.8</ele>
        <time>2020-06-03T12:28:30.000Z</time>
      </trkpt>
      <trkpt lat="42.9888" lon="2.96564">
        <ele>121.4</ele>
        <time>2020-06-03T12:28:31.000Z</time>
      </trkpt>
      <trkpt lat="42.98874" lon="2.96566">
        <ele>120.8</ele>
        <time>2020-06-03T12:28:32.000Z</time>
      </trkpt>
      <trkpt lat="42.98869" lon="2.96568">
        <ele>120.4</ele>
        <time>2020-06-03T12:28:33.000Z</time>
      </trkpt>
      <trkpt lat="42.98863" lon="2.9657">
        <ele>120</ele>
        <time>2020-06-03T12:28:34.000Z</time>
      </trkpt>
      <trkpt lat="42.98857" lon="2.96572">
        <ele>119.6</ele>
        <time>2020-06-03T12:28:35.000Z</time>
      </trkpt>
      <trkpt lat="42.98851" lon="2.96575">
        <ele>119.2</ele>
        <time>2020-06-03T12:28:36.000Z</time>
      </trkpt>
      <trkpt lat="42.98845" lon="2.96578">
        <ele>118.4</ele>
        <time>2020-06-03T12:28:37.000Z</time>
      </trkpt>
      <trkpt lat="42.98811" lon="2.96588">
        <ele>118.4</ele>
        <time>2020-06-03T12:28:43.000Z</time>
      </trkpt>
      <trkpt lat="42.98807" lon="2.96585">
        <ele>118.4</ele>
        <time>2020-06-03T12:28:44.000Z</time>
      </trkpt>
      <trkpt lat="42.98799" lon="2.9657">
        <ele>118.4</ele>
        <time>2020-06-03T12:28:47.000Z</time>
      </trkpt>
      <trkpt lat="42.98796" lon="2.96553">
        <ele>118.4</ele>
        <time>2020-06-03T12:28:50.000Z</time>
      </trkpt>
      <trkpt lat="42.98795" lon="2.96547">
        <ele>118.4</ele>
        <time>2020-06-03T12:28:51.000Z</time>
      </trkpt>
      <trkpt lat="42.98792" lon="2.96513">
        <ele>118.4</ele>
        <time>2020-06-03T12:28:57.000Z</time>
      </trkpt>
      <trkpt lat="42.98791" lon="2.96485">
        <ele>118.4</ele>
        <time>2020-06-03T12:29:01.000Z</time>
      </trkpt>
      <trkpt lat="42.98793" lon="2.96471">
        <ele>118.4</ele>
        <time>2020-06-03T12:29:03.000Z</time>
      </trkpt>
      <trkpt lat="42.98794" lon="2.96435">
        <ele>118.4</ele>
        <time>2020-06-03T12:29:09.000Z</time>
      </trkpt>
      <trkpt lat="42.98792" lon="2.96412">
        <ele>118.4</ele>
        <time>2020-06-03T12:29:14.000Z</time>
      </trkpt>
      <trkpt lat="42.98791" lon="2.96375">
        <ele>118.4</ele>
        <time>2020-06-03T12:29:21.000Z</time>
      </trkpt>
      <trkpt lat="42.9879" lon="2.9637">
        <ele>118.4</ele>
        <time>2020-06-03T12:29:22.000Z</time>
      </trkpt>
      <trkpt lat="42.98788" lon="2.96341">
        <ele>118.4</ele>
        <time>2020-06-03T12:29:27.000Z</time>
      </trkpt>
      <trkpt lat="42.98791" lon="2.96305">
        <ele>118.4</ele>
        <time>2020-06-03T12:29:33.000Z</time>
      </trkpt>
      <trkpt lat="42.98793" lon="2.96292">
        <ele>118.8</ele>
        <time>2020-06-03T12:29:35.000Z</time>
      </trkpt>
      <trkpt lat="42.98793" lon="2.96285">
        <ele>119.2</ele>
        <time>2020-06-03T12:29:36.000Z</time>
      </trkpt>
      <trkpt lat="42.98794" lon="2.96278">
        <ele>119.6</ele>
        <time>2020-06-03T12:29:37.000Z</time>
      </trkpt>
      <trkpt lat="42.98794" lon="2.96272">
        <ele>120</ele>
        <time>2020-06-03T12:29:38.000Z</time>
      </trkpt>
      <trkpt lat="42.98795" lon="2.96265">
        <ele>120.4</ele>
        <time>2020-06-03T12:29:39.000Z</time>
      </trkpt>
      <trkpt lat="42.98796" lon="2.9625">
        <ele>120.4</ele>
        <time>2020-06-03T12:29:41.000Z</time>
      </trkpt>
      <trkpt lat="42.98796" lon="2.96221">
        <ele>120.4</ele>
        <time>2020-06-03T12:29:45.000Z</time>
      </trkpt>
      <trkpt lat="42.98795" lon="2.96208">
        <ele>120.4</ele>
        <time>2020-06-03T12:29:47.000Z</time>
      </trkpt>
      <trkpt lat="42.98796" lon="2.96195">
        <ele>120.4</ele>
        <time>2020-06-03T12:29:49.000Z</time>
      </trkpt>
      <trkpt lat="42.98798" lon="2.9616">
        <ele>120.4</ele>
        <time>2020-06-03T12:29:54.000Z</time>
      </trkpt>
      <trkpt lat="42.98797" lon="2.96153">
        <ele>120.4</ele>
        <time>2020-06-03T12:29:55.000Z</time>
      </trkpt>
      <trkpt lat="42.98796" lon="2.96146">
        <ele>120.8</ele>
        <time>2020-06-03T12:29:56.000Z</time>
      </trkpt>
      <trkpt lat="42.98794" lon="2.9614">
        <ele>121.2</ele>
        <time>2020-06-03T12:29:57.000Z</time>
      </trkpt>
      <trkpt lat="42.98793" lon="2.96133">
        <ele>121.6</ele>
        <time>2020-06-03T12:29:58.000Z</time>
      </trkpt>
      <trkpt lat="42.9879" lon="2.96128">
        <ele>122</ele>
        <time>2020-06-03T12:29:59.000Z</time>
      </trkpt>
      <trkpt lat="42.98786" lon="2.96123">
        <ele>122.4</ele>
        <time>2020-06-03T12:30:00.000Z</time>
      </trkpt>
      <trkpt lat="42.98775" lon="2.96118">
        <ele>122.4</ele>
        <time>2020-06-03T12:30:02.000Z</time>
      </trkpt>
      <trkpt lat="42.9877" lon="2.96116">
        <ele>122.4</ele>
        <time>2020-06-03T12:30:03.000Z</time>
      </trkpt>
      <trkpt lat="42.98753" lon="2.96113">
        <ele>122.4</ele>
        <time>2020-06-03T12:30:06.000Z</time>
      </trkpt>
      <trkpt lat="42.98737" lon="2.96113">
        <ele>122.4</ele>
        <time>2020-06-03T12:30:09.000Z</time>
      </trkpt>
      <trkpt lat="42.98728" lon="2.96117">
        <ele>122.4</ele>
        <time>2020-06-03T12:30:11.000Z</time>
      </trkpt>
      <trkpt lat="42.9872" lon="2.96125">
        <ele>122.4</ele>
        <time>2020-06-03T12:30:13.000Z</time>
      </trkpt>
      <trkpt lat="42.98712" lon="2.96133">
        <ele>122.4</ele>
        <time>2020-06-03T12:30:15.000Z</time>
      </trkpt>
      <trkpt lat="42.98699" lon="2.96139">
        <ele>122.4</ele>
        <time>2020-06-03T12:30:18.000Z</time>
      </trkpt>
      <trkpt lat="42.9868" lon="2.96136">
        <ele>122.4</ele>
        <time>2020-06-03T12:30:22.000Z</time>
      </trkpt>
      <trkpt lat="42.98674" lon="2.96135">
        <ele>122.4</ele>
        <time>2020-06-03T12:30:23.000Z</time>
      </trkpt>
      <trkpt lat="42.98665" lon="2.96135">
        <ele>122.4</ele>
        <time>2020-06-03T12:30:25.000Z</time>
      </trkpt>
      <trkpt lat="42.98652" lon="2.96136">
        <ele>122.4</ele>
        <time>2020-06-03T12:30:28.000Z</time>
      </trkpt>
      <trkpt lat="42.98643" lon="2.96138">
        <ele>122</ele>
        <time>2020-06-03T12:30:30.000Z</time>
      </trkpt>
      <trkpt lat="42.98639" lon="2.96138">
        <ele>121.6</ele>
        <time>2020-06-03T12:30:31.000Z</time>
      </trkpt>
      <trkpt lat="42.98634" lon="2.9614">
        <ele>121.2</ele>
        <time>2020-06-03T12:30:32.000Z</time>
      </trkpt>
      <trkpt lat="42.9863" lon="2.96142">
        <ele>120.8</ele>
        <time>2020-06-03T12:30:33.000Z</time>
      </trkpt>
      <trkpt lat="42.98626" lon="2.96144">
        <ele>120.4</ele>
        <time>2020-06-03T12:30:34.000Z</time>
      </trkpt>
      <trkpt lat="42.98613" lon="2.96159">
        <ele>120.4</ele>
        <time>2020-06-03T12:30:38.000Z</time>
      </trkpt>
      <trkpt lat="42.98611" lon="2.96164">
        <ele>120</ele>
        <time>2020-06-03T12:30:39.000Z</time>
      </trkpt>
      <trkpt lat="42.98608" lon="2.9617">
        <ele>119.4</ele>
        <time>2020-06-03T12:30:40.000Z</time>
      </trkpt>
      <trkpt lat="42.98605" lon="2.96176">
        <ele>118.4</ele>
        <time>2020-06-03T12:30:41.000Z</time>
      </trkpt>
      <trkpt lat="42.98602" lon="2.96182">
        <ele>118</ele>
        <time>2020-06-03T12:30:42.000Z</time>
      </trkpt>
      <trkpt lat="42.986" lon="2.96187">
        <ele>117.4</ele>
        <time>2020-06-03T12:30:43.000Z</time>
      </trkpt>
      <trkpt lat="42.98598" lon="2.96193">
        <ele>117</ele>
        <time>2020-06-03T12:30:44.000Z</time>
      </trkpt>
      <trkpt lat="42.98597" lon="2.96198">
        <ele>116.4</ele>
        <time>2020-06-03T12:30:45.000Z</time>
      </trkpt>
      <trkpt lat="42.98595" lon="2.96201">
        <ele>116</ele>
        <time>2020-06-03T12:30:46.000Z</time>
      </trkpt>
      <trkpt lat="42.98593" lon="2.96201">
        <ele>116</ele>
        <time>2020-06-03T12:30:47.000Z</time>
      </trkpt>
      <trkpt lat="42.98585" lon="2.96202">
        <ele>116</ele>
        <time>2020-06-03T12:30:49.000Z</time>
      </trkpt>
      <trkpt lat="42.98578" lon="2.96197">
        <ele>115.6</ele>
        <time>2020-06-03T12:30:52.000Z</time>
      </trkpt>
      <trkpt lat="42.98576" lon="2.96195">
        <ele>115.2</ele>
        <time>2020-06-03T12:30:53.000Z</time>
      </trkpt>
      <trkpt lat="42.98574" lon="2.96193">
        <ele>114.8</ele>
        <time>2020-06-03T12:30:54.000Z</time>
      </trkpt>
      <trkpt lat="42.98571" lon="2.96194">
        <ele>114.4</ele>
        <time>2020-06-03T12:30:55.000Z</time>
      </trkpt>
      <trkpt lat="42.98568" lon="2.96195">
        <ele>113.8</ele>
        <time>2020-06-03T12:30:56.000Z</time>
      </trkpt>
      <trkpt lat="42.98566" lon="2.96193">
        <ele>113.4</ele>
        <time>2020-06-03T12:30:57.000Z</time>
      </trkpt>
      <trkpt lat="42.98564" lon="2.96192">
        <ele>113</ele>
        <time>2020-06-03T12:30:58.000Z</time>
      </trkpt>
      <trkpt lat="42.98562" lon="2.9619">
        <ele>112.4</ele>
        <time>2020-06-03T12:30:59.000Z</time>
      </trkpt>
      <trkpt lat="42.9856" lon="2.96188">
        <ele>112</ele>
        <time>2020-06-03T12:31:00.000Z</time>
      </trkpt>
      <trkpt lat="42.98558" lon="2.96187">
        <ele>111.4</ele>
        <time>2020-06-03T12:31:01.000Z</time>
      </trkpt>
      <trkpt lat="42.98555" lon="2.96185">
        <ele>110.8</ele>
        <time>2020-06-03T12:31:02.000Z</time>
      </trkpt>
      <trkpt lat="42.98553" lon="2.96183">
        <ele>110.2</ele>
        <time>2020-06-03T12:31:03.000Z</time>
      </trkpt>
      <trkpt lat="42.9855" lon="2.96179">
        <ele>109.8</ele>
        <time>2020-06-03T12:31:04.000Z</time>
      </trkpt>
      <trkpt lat="42.98549" lon="2.96174">
        <ele>108.6</ele>
        <time>2020-06-03T12:31:05.000Z</time>
      </trkpt>
      <trkpt lat="42.98547" lon="2.96168">
        <ele>108</ele>
        <time>2020-06-03T12:31:06.000Z</time>
      </trkpt>
      <trkpt lat="42.98545" lon="2.9616">
        <ele>107.6</ele>
        <time>2020-06-03T12:31:07.000Z</time>
      </trkpt>
      <trkpt lat="42.98544" lon="2.96152">
        <ele>106.8</ele>
        <time>2020-06-03T12:31:08.000Z</time>
      </trkpt>
      <trkpt lat="42.98542" lon="2.96143">
        <ele>106.2</ele>
        <time>2020-06-03T12:31:09.000Z</time>
      </trkpt>
      <trkpt lat="42.98541" lon="2.96133">
        <ele>105.4</ele>
        <time>2020-06-03T12:31:10.000Z</time>
      </trkpt>
      <trkpt lat="42.9854" lon="2.96124">
        <ele>104.6</ele>
        <time>2020-06-03T12:31:11.000Z</time>
      </trkpt>
      <trkpt lat="42.98538" lon="2.96115">
        <ele>103.6</ele>
        <time>2020-06-03T12:31:12.000Z</time>
      </trkpt>
      <trkpt lat="42.98536" lon="2.96105">
        <ele>102.6</ele>
        <time>2020-06-03T12:31:13.000Z</time>
      </trkpt>
      <trkpt lat="42.98534" lon="2.96096">
        <ele>101.6</ele>
        <time>2020-06-03T12:31:14.000Z</time>
      </trkpt>
      <trkpt lat="42.98533" lon="2.96087">
        <ele>100.6</ele>
        <time>2020-06-03T12:31:15.000Z</time>
      </trkpt>
      <trkpt lat="42.98533" lon="2.96078">
        <ele>99.6</ele>
        <time>2020-06-03T12:31:16.000Z</time>
      </trkpt>
      <trkpt lat="42.98533" lon="2.96071">
        <ele>98.6</ele>
        <time>2020-06-03T12:31:17.000Z</time>
      </trkpt>
      <trkpt lat="42.98534" lon="2.96064">
        <ele>97.4</ele>
        <time>2020-06-03T12:31:18.000Z</time>
      </trkpt>
      <trkpt lat="42.98536" lon="2.96061">
        <ele>97</ele>
        <time>2020-06-03T12:31:19.000Z</time>
      </trkpt>
      <trkpt lat="42.98533" lon="2.9606">
        <ele>96.6</ele>
        <time>2020-06-03T12:31:20.000Z</time>
      </trkpt>
      <trkpt lat="42.98531" lon="2.96061">
        <ele>96</ele>
        <time>2020-06-03T12:31:21.000Z</time>
      </trkpt>
      <trkpt lat="42.98529" lon="2.96063">
        <ele>95.6</ele>
        <time>2020-06-03T12:31:22.000Z</time>
      </trkpt>
      <trkpt lat="42.98526" lon="2.96067">
        <ele>95</ele>
        <time>2020-06-03T12:31:23.000Z</time>
      </trkpt>
      <trkpt lat="42.98523" lon="2.96071">
        <ele>94.6</ele>
        <time>2020-06-03T12:31:24.000Z</time>
      </trkpt>
      <trkpt lat="42.98521" lon="2.96076">
        <ele>94.2</ele>
        <time>2020-06-03T12:31:25.000Z</time>
      </trkpt>
      <trkpt lat="42.98519" lon="2.96081">
        <ele>93.8</ele>
        <time>2020-06-03T12:31:26.000Z</time>
      </trkpt>
      <trkpt lat="42.98519" lon="2.96087">
        <ele>93.2</ele>
        <time>2020-06-03T12:31:27.000Z</time>
      </trkpt>
      <trkpt lat="42.98519" lon="2.96094">
        <ele>92.8</ele>
        <time>2020-06-03T12:31:28.000Z</time>
      </trkpt>
      <trkpt lat="42.98516" lon="2.9611">
        <ele>92</ele>
        <time>2020-06-03T12:31:30.000Z</time>
      </trkpt>
      <trkpt lat="42.98515" lon="2.96117">
        <ele>91.6</ele>
        <time>2020-06-03T12:31:31.000Z</time>
      </trkpt>
      <trkpt lat="42.98514" lon="2.96124">
        <ele>91</ele>
        <time>2020-06-03T12:31:32.000Z</time>
      </trkpt>
      <trkpt lat="42.98513" lon="2.96129">
        <ele>90.4</ele>
        <time>2020-06-03T12:31:33.000Z</time>
      </trkpt>
      <trkpt lat="42.98512" lon="2.96132">
        <ele>89.8</ele>
        <time>2020-06-03T12:31:34.000Z</time>
      </trkpt>
      <trkpt lat="42.98508" lon="2.9613">
        <ele>89.2</ele>
        <time>2020-06-03T12:31:35.000Z</time>
      </trkpt>
      <trkpt lat="42.98508" lon="2.96126">
        <ele>88.4</ele>
        <time>2020-06-03T12:31:36.000Z</time>
      </trkpt>
      <trkpt lat="42.98506" lon="2.96121">
        <ele>88.4</ele>
        <time>2020-06-03T12:31:37.000Z</time>
      </trkpt>
      <trkpt lat="42.98503" lon="2.96112">
        <ele>88</ele>
        <time>2020-06-03T12:31:39.000Z</time>
      </trkpt>
      <trkpt lat="42.985" lon="2.96108">
        <ele>87.6</ele>
        <time>2020-06-03T12:31:40.000Z</time>
      </trkpt>
      <trkpt lat="42.98496" lon="2.96105">
        <ele>87</ele>
        <time>2020-06-03T12:31:41.000Z</time>
      </trkpt>
      <trkpt lat="42.98491" lon="2.96101">
        <ele>86.4</ele>
        <time>2020-06-03T12:31:42.000Z</time>
      </trkpt>
      <trkpt lat="42.98485" lon="2.96098">
        <ele>85.6</ele>
        <time>2020-06-03T12:31:43.000Z</time>
      </trkpt>
      <trkpt lat="42.98479" lon="2.96095">
        <ele>84.8</ele>
        <time>2020-06-03T12:31:44.000Z</time>
      </trkpt>
      <trkpt lat="42.98472" lon="2.96092">
        <ele>84</ele>
        <time>2020-06-03T12:31:45.000Z</time>
      </trkpt>
      <trkpt lat="42.98466" lon="2.96091">
        <ele>83.2</ele>
        <time>2020-06-03T12:31:46.000Z</time>
      </trkpt>
      <trkpt lat="42.98461" lon="2.9609">
        <ele>82.2</ele>
        <time>2020-06-03T12:31:47.000Z</time>
      </trkpt>
      <trkpt lat="42.98455" lon="2.96089">
        <ele>81.4</ele>
        <time>2020-06-03T12:31:48.000Z</time>
      </trkpt>
      <trkpt lat="42.98451" lon="2.96088">
        <ele>81.4</ele>
        <time>2020-06-03T12:31:49.000Z</time>
      </trkpt>
      <trkpt lat="42.98438" lon="2.96084">
        <ele>81.4</ele>
        <time>2020-06-03T12:31:53.000Z</time>
      </trkpt>
      <trkpt lat="42.98435" lon="2.96078">
        <ele>82.2</ele>
        <time>2020-06-03T12:31:55.000Z</time>
      </trkpt>
      <trkpt lat="42.98435" lon="2.96073">
        <ele>82.6</ele>
        <time>2020-06-03T12:31:56.000Z</time>
      </trkpt>
      <trkpt lat="42.98435" lon="2.96068">
        <ele>83</ele>
        <time>2020-06-03T12:31:57.000Z</time>
      </trkpt>
      <trkpt lat="42.98436" lon="2.96062">
        <ele>83.4</ele>
        <time>2020-06-03T12:31:58.000Z</time>
      </trkpt>
      <trkpt lat="42.98438" lon="2.96044">
        <ele>83.4</ele>
        <time>2020-06-03T12:32:01.000Z</time>
      </trkpt>
      <trkpt lat="42.98439" lon="2.96023">
        <ele>84</ele>
        <time>2020-06-03T12:32:06.000Z</time>
      </trkpt>
      <trkpt lat="42.98439" lon="2.96019">
        <ele>84.4</ele>
        <time>2020-06-03T12:32:07.000Z</time>
      </trkpt>
      <trkpt lat="42.98441" lon="2.96015">
        <ele>85</ele>
        <time>2020-06-03T12:32:08.000Z</time>
      </trkpt>
      <trkpt lat="42.98442" lon="2.96011">
        <ele>85.4</ele>
        <time>2020-06-03T12:32:09.000Z</time>
      </trkpt>
      <trkpt lat="42.98444" lon="2.96007">
        <ele>86</ele>
        <time>2020-06-03T12:32:10.000Z</time>
      </trkpt>
      <trkpt lat="42.98456" lon="2.95977">
        <ele>86</ele>
        <time>2020-06-03T12:32:16.000Z</time>
      </trkpt>
      <trkpt lat="42.98458" lon="2.95972">
        <ele>86.4</ele>
        <time>2020-06-03T12:32:17.000Z</time>
      </trkpt>
      <trkpt lat="42.9846" lon="2.95966">
        <ele>86.8</ele>
        <time>2020-06-03T12:32:18.000Z</time>
      </trkpt>
      <trkpt lat="42.98462" lon="2.95961">
        <ele>87.8</ele>
        <time>2020-06-03T12:32:19.000Z</time>
      </trkpt>
      <trkpt lat="42.98463" lon="2.95955">
        <ele>88.2</ele>
        <time>2020-06-03T12:32:20.000Z</time>
      </trkpt>
      <trkpt lat="42.98469" lon="2.95937">
        <ele>88.2</ele>
        <time>2020-06-03T12:32:23.000Z</time>
      </trkpt>
      <trkpt lat="42.98472" lon="2.95932">
        <ele>88.2</ele>
        <time>2020-06-03T12:32:24.000Z</time>
      </trkpt>
      <trkpt lat="42.98475" lon="2.95927">
        <ele>88.2</ele>
        <time>2020-06-03T12:32:25.000Z</time>
      </trkpt>
      <trkpt lat="42.98485" lon="2.95906">
        <ele>88.2</ele>
        <time>2020-06-03T12:32:29.000Z</time>
      </trkpt>
      <trkpt lat="42.9849" lon="2.95901">
        <ele>88.2</ele>
        <time>2020-06-03T12:32:30.000Z</time>
      </trkpt>
      <trkpt lat="42.98507" lon="2.95887">
        <ele>87.8</ele>
        <time>2020-06-03T12:32:33.000Z</time>
      </trkpt>
      <trkpt lat="42.98513" lon="2.95883">
        <ele>87.2</ele>
        <time>2020-06-03T12:32:34.000Z</time>
      </trkpt>
      <trkpt lat="42.9852" lon="2.95878">
        <ele>86.8</ele>
        <time>2020-06-03T12:32:35.000Z</time>
      </trkpt>
      <trkpt lat="42.98526" lon="2.95872">
        <ele>86.2</ele>
        <time>2020-06-03T12:32:36.000Z</time>
      </trkpt>
      <trkpt lat="42.98532" lon="2.95867">
        <ele>85.4</ele>
        <time>2020-06-03T12:32:37.000Z</time>
      </trkpt>
      <trkpt lat="42.98538" lon="2.95861">
        <ele>84.8</ele>
        <time>2020-06-03T12:32:38.000Z</time>
      </trkpt>
      <trkpt lat="42.98544" lon="2.95857">
        <ele>84</ele>
        <time>2020-06-03T12:32:39.000Z</time>
      </trkpt>
      <trkpt lat="42.9855" lon="2.95854">
        <ele>83.4</ele>
        <time>2020-06-03T12:32:40.000Z</time>
      </trkpt>
      <trkpt lat="42.9856" lon="2.95846">
        <ele>83.4</ele>
        <time>2020-06-03T12:32:42.000Z</time>
      </trkpt>
      <trkpt lat="42.98562" lon="2.95842">
        <ele>83.4</ele>
        <time>2020-06-03T12:32:43.000Z</time>
      </trkpt>
      <trkpt lat="42.98561" lon="2.95836">
        <ele>83.8</ele>
        <time>2020-06-03T12:32:45.000Z</time>
      </trkpt>
      <trkpt lat="42.98559" lon="2.95832">
        <ele>84.2</ele>
        <time>2020-06-03T12:32:46.000Z</time>
      </trkpt>
      <trkpt lat="42.98557" lon="2.95828">
        <ele>84.6</ele>
        <time>2020-06-03T12:32:47.000Z</time>
      </trkpt>
      <trkpt lat="42.98555" lon="2.95825">
        <ele>85</ele>
        <time>2020-06-03T12:32:48.000Z</time>
      </trkpt>
      <trkpt lat="42.98552" lon="2.95821">
        <ele>85.4</ele>
        <time>2020-06-03T12:32:49.000Z</time>
      </trkpt>
      <trkpt lat="42.9855" lon="2.95817">
        <ele>85.4</ele>
        <time>2020-06-03T12:32:50.000Z</time>
      </trkpt>
      <trkpt lat="42.98547" lon="2.95813">
        <ele>85.4</ele>
        <time>2020-06-03T12:32:51.000Z</time>
      </trkpt>
      <trkpt lat="42.98543" lon="2.9581">
        <ele>85.4</ele>
        <time>2020-06-03T12:32:52.000Z</time>
      </trkpt>
      <trkpt lat="42.98523" lon="2.95798">
        <ele>85.4</ele>
        <time>2020-06-03T12:32:57.000Z</time>
      </trkpt>
      <trkpt lat="42.9852" lon="2.95795">
        <ele>85.8</ele>
        <time>2020-06-03T12:32:58.000Z</time>
      </trkpt>
      <trkpt lat="42.98517" lon="2.95791">
        <ele>86.4</ele>
        <time>2020-06-03T12:32:59.000Z</time>
      </trkpt>
      <trkpt lat="42.98514" lon="2.95787">
        <ele>86.8</ele>
        <time>2020-06-03T12:33:00.000Z</time>
      </trkpt>
      <trkpt lat="42.98512" lon="2.95781">
        <ele>87.2</ele>
        <time>2020-06-03T12:33:01.000Z</time>
      </trkpt>
      <trkpt lat="42.9851" lon="2.95776">
        <ele>87.6</ele>
        <time>2020-06-03T12:33:02.000Z</time>
      </trkpt>
      <trkpt lat="42.98508" lon="2.9577">
        <ele>87.6</ele>
        <time>2020-06-03T12:33:03.000Z</time>
      </trkpt>
      <trkpt lat="42.98502" lon="2.95745">
        <ele>87.6</ele>
        <time>2020-06-03T12:33:07.000Z</time>
      </trkpt>
      <trkpt lat="42.98501" lon="2.95738">
        <ele>87.6</ele>
        <time>2020-06-03T12:33:08.000Z</time>
      </trkpt>
      <trkpt lat="42.985" lon="2.95715">
        <ele>87.6</ele>
        <time>2020-06-03T12:33:11.000Z</time>
      </trkpt>
      <trkpt lat="42.98503" lon="2.95692">
        <ele>87.6</ele>
        <time>2020-06-03T12:33:14.000Z</time>
      </trkpt>
      <trkpt lat="42.98506" lon="2.95677">
        <ele>87.6</ele>
        <time>2020-06-03T12:33:16.000Z</time>
      </trkpt>
      <trkpt lat="42.98512" lon="2.95651">
        <ele>87.6</ele>
        <time>2020-06-03T12:33:20.000Z</time>
      </trkpt>
      <trkpt lat="42.98513" lon="2.95644">
        <ele>87.6</ele>
        <time>2020-06-03T12:33:21.000Z</time>
      </trkpt>
      <trkpt lat="42.98513" lon="2.95618">
        <ele>87.6</ele>
        <time>2020-06-03T12:33:25.000Z</time>
      </trkpt>
      <trkpt lat="42.9851" lon="2.95606">
        <ele>88</ele>
        <time>2020-06-03T12:33:27.000Z</time>
      </trkpt>
      <trkpt lat="42.98507" lon="2.95601">
        <ele>88.4</ele>
        <time>2020-06-03T12:33:28.000Z</time>
      </trkpt>
      <trkpt lat="42.98504" lon="2.95596">
        <ele>88.8</ele>
        <time>2020-06-03T12:33:29.000Z</time>
      </trkpt>
      <trkpt lat="42.98501" lon="2.95591">
        <ele>89.4</ele>
        <time>2020-06-03T12:33:30.000Z</time>
      </trkpt>
      <trkpt lat="42.98497" lon="2.95586">
        <ele>89.8</ele>
        <time>2020-06-03T12:33:31.000Z</time>
      </trkpt>
      <trkpt lat="42.98492" lon="2.95582">
        <ele>89.8</ele>
        <time>2020-06-03T12:33:32.000Z</time>
      </trkpt>
      <trkpt lat="42.98487" lon="2.95579">
        <ele>89.8</ele>
        <time>2020-06-03T12:33:33.000Z</time>
      </trkpt>
      <trkpt lat="42.98466" lon="2.95576">
        <ele>89.8</ele>
        <time>2020-06-03T12:33:37.000Z</time>
      </trkpt>
      <trkpt lat="42.98461" lon="2.95576">
        <ele>89.8</ele>
        <time>2020-06-03T12:33:38.000Z</time>
      </trkpt>
      <trkpt lat="42.9845" lon="2.95582">
        <ele>89.8</ele>
        <time>2020-06-03T12:33:40.000Z</time>
      </trkpt>
      <trkpt lat="42.98427" lon="2.95599">
        <ele>89.8</ele>
        <time>2020-06-03T12:33:46.000Z</time>
      </trkpt>
      <trkpt lat="42.98423" lon="2.95602">
        <ele>90.2</ele>
        <time>2020-06-03T12:33:47.000Z</time>
      </trkpt>
      <trkpt lat="42.98419" lon="2.95604">
        <ele>90.6</ele>
        <time>2020-06-03T12:33:48.000Z</time>
      </trkpt>
      <trkpt lat="42.98415" lon="2.95605">
        <ele>91</ele>
        <time>2020-06-03T12:33:49.000Z</time>
      </trkpt>
      <trkpt lat="42.98411" lon="2.95606">
        <ele>91.6</ele>
        <time>2020-06-03T12:33:50.000Z</time>
      </trkpt>
      <trkpt lat="42.98406" lon="2.95606">
        <ele>92</ele>
        <time>2020-06-03T12:33:51.000Z</time>
      </trkpt>
      <trkpt lat="42.98398" lon="2.95606">
        <ele>92</ele>
        <time>2020-06-03T12:33:53.000Z</time>
      </trkpt>
      <trkpt lat="42.98394" lon="2.95605">
        <ele>92</ele>
        <time>2020-06-03T12:33:54.000Z</time>
      </trkpt>
      <trkpt lat="42.9837" lon="2.95604">
        <ele>92</ele>
        <time>2020-06-03T12:33:59.000Z</time>
      </trkpt>
      <trkpt lat="42.98353" lon="2.95608">
        <ele>92.4</ele>
        <time>2020-06-03T12:34:03.000Z</time>
      </trkpt>
      <trkpt lat="42.9835" lon="2.95609">
        <ele>93</ele>
        <time>2020-06-03T12:34:04.000Z</time>
      </trkpt>
      <trkpt lat="42.98347" lon="2.9561">
        <ele>93.4</ele>
        <time>2020-06-03T12:34:05.000Z</time>
      </trkpt>
      <trkpt lat="42.98344" lon="2.95612">
        <ele>93.8</ele>
        <time>2020-06-03T12:34:06.000Z</time>
      </trkpt>
      <trkpt lat="42.9834" lon="2.95613">
        <ele>94.2</ele>
        <time>2020-06-03T12:34:07.000Z</time>
      </trkpt>
      <trkpt lat="42.98336" lon="2.95614">
        <ele>94.2</ele>
        <time>2020-06-03T12:34:08.000Z</time>
      </trkpt>
      <trkpt lat="42.98332" lon="2.95616">
        <ele>94.2</ele>
        <time>2020-06-03T12:34:09.000Z</time>
      </trkpt>
      <trkpt lat="42.98318" lon="2.95616">
        <ele>94.6</ele>
        <time>2020-06-03T12:34:12.000Z</time>
      </trkpt>
      <trkpt lat="42.98314" lon="2.95614">
        <ele>95.2</ele>
        <time>2020-06-03T12:34:13.000Z</time>
      </trkpt>
      <trkpt lat="42.98309" lon="2.95612">
        <ele>95.6</ele>
        <time>2020-06-03T12:34:14.000Z</time>
      </trkpt>
      <trkpt lat="42.98305" lon="2.95608">
        <ele>96</ele>
        <time>2020-06-03T12:34:15.000Z</time>
      </trkpt>
      <trkpt lat="42.98301" lon="2.95605">
        <ele>96.4</ele>
        <time>2020-06-03T12:34:16.000Z</time>
      </trkpt>
      <trkpt lat="42.98288" lon="2.95586">
        <ele>96.4</ele>
        <time>2020-06-03T12:34:20.000Z</time>
      </trkpt>
      <trkpt lat="42.98285" lon="2.95572">
        <ele>96.4</ele>
        <time>2020-06-03T12:34:22.000Z</time>
      </trkpt>
      <trkpt lat="42.9828" lon="2.95552">
        <ele>96.4</ele>
        <time>2020-06-03T12:34:25.000Z</time>
      </trkpt>
      <trkpt lat="42.98269" lon="2.95517">
        <ele>96.4</ele>
        <time>2020-06-03T12:34:31.000Z</time>
      </trkpt>
      <trkpt lat="42.98252" lon="2.95474">
        <ele>96.4</ele>
        <time>2020-06-03T12:34:38.000Z</time>
      </trkpt>
      <trkpt lat="42.98248" lon="2.9545">
        <ele>96.8</ele>
        <time>2020-06-03T12:34:42.000Z</time>
      </trkpt>
      <trkpt lat="42.98248" lon="2.95444">
        <ele>97.2</ele>
        <time>2020-06-03T12:34:43.000Z</time>
      </trkpt>
      <trkpt lat="42.98249" lon="2.95438">
        <ele>97.6</ele>
        <time>2020-06-03T12:34:44.000Z</time>
      </trkpt>
      <trkpt lat="42.9825" lon="2.95431">
        <ele>98.2</ele>
        <time>2020-06-03T12:34:45.000Z</time>
      </trkpt>
      <trkpt lat="42.98251" lon="2.95424">
        <ele>98.6</ele>
        <time>2020-06-03T12:34:46.000Z</time>
      </trkpt>
      <trkpt lat="42.98251" lon="2.95417">
        <ele>98.6</ele>
        <time>2020-06-03T12:34:47.000Z</time>
      </trkpt>
      <trkpt lat="42.98254" lon="2.95403">
        <ele>98.6</ele>
        <time>2020-06-03T12:34:49.000Z</time>
      </trkpt>
      <trkpt lat="42.98255" lon="2.95389">
        <ele>98.6</ele>
        <time>2020-06-03T12:34:51.000Z</time>
      </trkpt>
      <trkpt lat="42.98258" lon="2.95362">
        <ele>98.6</ele>
        <time>2020-06-03T12:34:55.000Z</time>
      </trkpt>
      <trkpt lat="42.98262" lon="2.9535">
        <ele>98.6</ele>
        <time>2020-06-03T12:34:57.000Z</time>
      </trkpt>
      <trkpt lat="42.98268" lon="2.95338">
        <ele>98.6</ele>
        <time>2020-06-03T12:34:59.000Z</time>
      </trkpt>
      <trkpt lat="42.98272" lon="2.95332">
        <ele>99</ele>
        <time>2020-06-03T12:35:00.000Z</time>
      </trkpt>
      <trkpt lat="42.98275" lon="2.95325">
        <ele>99.4</ele>
        <time>2020-06-03T12:35:01.000Z</time>
      </trkpt>
      <trkpt lat="42.98279" lon="2.95318">
        <ele>99.8</ele>
        <time>2020-06-03T12:35:02.000Z</time>
      </trkpt>
      <trkpt lat="42.98282" lon="2.95312">
        <ele>100.2</ele>
        <time>2020-06-03T12:35:03.000Z</time>
      </trkpt>
      <trkpt lat="42.98286" lon="2.95305">
        <ele>100.6</ele>
        <time>2020-06-03T12:35:04.000Z</time>
      </trkpt>
      <trkpt lat="42.98294" lon="2.95295">
        <ele>100.6</ele>
        <time>2020-06-03T12:35:06.000Z</time>
      </trkpt>
      <trkpt lat="42.98299" lon="2.9529">
        <ele>100.6</ele>
        <time>2020-06-03T12:35:07.000Z</time>
      </trkpt>
      <trkpt lat="42.98317" lon="2.95272">
        <ele>100.6</ele>
        <time>2020-06-03T12:35:11.000Z</time>
      </trkpt>
      <trkpt lat="42.98327" lon="2.95265">
        <ele>100.6</ele>
        <time>2020-06-03T12:35:13.000Z</time>
      </trkpt>
      <trkpt lat="42.98343" lon="2.9526">
        <ele>100.6</ele>
        <time>2020-06-03T12:35:16.000Z</time>
      </trkpt>
      <trkpt lat="42.98349" lon="2.95258">
        <ele>100.6</ele>
        <time>2020-06-03T12:35:17.000Z</time>
      </trkpt>
      <trkpt lat="42.98384" lon="2.95251">
        <ele>100.6</ele>
        <time>2020-06-03T12:35:23.000Z</time>
      </trkpt>
      <trkpt lat="42.98405" lon="2.95231">
        <ele>100.6</ele>
        <time>2020-06-03T12:35:27.000Z</time>
      </trkpt>
      <trkpt lat="42.98415" lon="2.9521">
        <ele>100.6</ele>
        <time>2020-06-03T12:35:30.000Z</time>
      </trkpt>
      <trkpt lat="42.98426" lon="2.95211">
        <ele>100.6</ele>
        <time>2020-06-03T12:35:32.000Z</time>
      </trkpt>
      <trkpt lat="42.98432" lon="2.95213">
        <ele>100.2</ele>
        <time>2020-06-03T12:35:33.000Z</time>
      </trkpt>
      <trkpt lat="42.98437" lon="2.95211">
        <ele>99.8</ele>
        <time>2020-06-03T12:35:34.000Z</time>
      </trkpt>
      <trkpt lat="42.9844" lon="2.95205">
        <ele>99.4</ele>
        <time>2020-06-03T12:35:35.000Z</time>
      </trkpt>
      <trkpt lat="42.98442" lon="2.95198">
        <ele>98.6</ele>
        <time>2020-06-03T12:35:36.000Z</time>
      </trkpt>
      <trkpt lat="42.98444" lon="2.95191">
        <ele>98.6</ele>
        <time>2020-06-03T12:35:37.000Z</time>
      </trkpt>
      <trkpt lat="42.98445" lon="2.95174">
        <ele>98.6</ele>
        <time>2020-06-03T12:35:39.000Z</time>
      </trkpt>
      <trkpt lat="42.98455" lon="2.95117">
        <ele>98.6</ele>
        <time>2020-06-03T12:35:46.000Z</time>
      </trkpt>
      <trkpt lat="42.98467" lon="2.95061">
        <ele>98.6</ele>
        <time>2020-06-03T12:35:54.000Z</time>
      </trkpt>
      <trkpt lat="42.98469" lon="2.95053">
        <ele>98.6</ele>
        <time>2020-06-03T12:35:55.000Z</time>
      </trkpt>
      <trkpt lat="42.98478" lon="2.9503">
        <ele>98.2</ele>
        <time>2020-06-03T12:35:58.000Z</time>
      </trkpt>
      <trkpt lat="42.98481" lon="2.95021">
        <ele>97.8</ele>
        <time>2020-06-03T12:35:59.000Z</time>
      </trkpt>
      <trkpt lat="42.98483" lon="2.95012">
        <ele>97.4</ele>
        <time>2020-06-03T12:36:00.000Z</time>
      </trkpt>
      <trkpt lat="42.98486" lon="2.95003">
        <ele>96.6</ele>
        <time>2020-06-03T12:36:01.000Z</time>
      </trkpt>
      <trkpt lat="42.98496" lon="2.94977">
        <ele>96.6</ele>
        <time>2020-06-03T12:36:04.000Z</time>
      </trkpt>
      <trkpt lat="42.98511" lon="2.94947">
        <ele>96.6</ele>
        <time>2020-06-03T12:36:08.000Z</time>
      </trkpt>
      <trkpt lat="42.98513" lon="2.94939">
        <ele>96.6</ele>
        <time>2020-06-03T12:36:09.000Z</time>
      </trkpt>
      <trkpt lat="42.98527" lon="2.94901">
        <ele>96.6</ele>
        <time>2020-06-03T12:36:14.000Z</time>
      </trkpt>
      <trkpt lat="42.9854" lon="2.94869">
        <ele>96.6</ele>
        <time>2020-06-03T12:36:19.000Z</time>
      </trkpt>
      <trkpt lat="42.98545" lon="2.94848">
        <ele>96.6</ele>
        <time>2020-06-03T12:36:23.000Z</time>
      </trkpt>
      <trkpt lat="42.98536" lon="2.94842">
        <ele>96.6</ele>
        <time>2020-06-03T12:36:26.000Z</time>
      </trkpt>
      <trkpt lat="42.98522" lon="2.94837">
        <ele>96.6</ele>
        <time>2020-06-03T12:36:29.000Z</time>
      </trkpt>
      <trkpt lat="42.9851" lon="2.94832">
        <ele>96.6</ele>
        <time>2020-06-03T12:36:31.000Z</time>
      </trkpt>
      <trkpt lat="42.98487" lon="2.94824">
        <ele>96.6</ele>
        <time>2020-06-03T12:36:35.000Z</time>
      </trkpt>
      <trkpt lat="42.98481" lon="2.94823">
        <ele>96.6</ele>
        <time>2020-06-03T12:36:36.000Z</time>
      </trkpt>
      <trkpt lat="42.98447" lon="2.9482">
        <ele>96.6</ele>
        <time>2020-06-03T12:36:42.000Z</time>
      </trkpt>
      <trkpt lat="42.98435" lon="2.94821">
        <ele>97</ele>
        <time>2020-06-03T12:36:45.000Z</time>
      </trkpt>
      <trkpt lat="42.98431" lon="2.94821">
        <ele>97.6</ele>
        <time>2020-06-03T12:36:46.000Z</time>
      </trkpt>
      <trkpt lat="42.98428" lon="2.9482">
        <ele>98</ele>
        <time>2020-06-03T12:36:47.000Z</time>
      </trkpt>
      <trkpt lat="42.98424" lon="2.94819">
        <ele>98.4</ele>
        <time>2020-06-03T12:36:48.000Z</time>
      </trkpt>
      <trkpt lat="42.98421" lon="2.94818">
        <ele>98.8</ele>
        <time>2020-06-03T12:36:49.000Z</time>
      </trkpt>
      <trkpt lat="42.98418" lon="2.94816">
        <ele>99.8</ele>
        <time>2020-06-03T12:36:50.000Z</time>
      </trkpt>
      <trkpt lat="42.98414" lon="2.94814">
        <ele>100.2</ele>
        <time>2020-06-03T12:36:51.000Z</time>
      </trkpt>
      <trkpt lat="42.98411" lon="2.94812">
        <ele>100.6</ele>
        <time>2020-06-03T12:36:52.000Z</time>
      </trkpt>
      <trkpt lat="42.98408" lon="2.94811">
        <ele>101</ele>
        <time>2020-06-03T12:36:53.000Z</time>
      </trkpt>
      <trkpt lat="42.98405" lon="2.94809">
        <ele>101</ele>
        <time>2020-06-03T12:36:54.000Z</time>
      </trkpt>
      <trkpt lat="42.98403" lon="2.94808">
        <ele>101.4</ele>
        <time>2020-06-03T12:36:55.000Z</time>
      </trkpt>
      <trkpt lat="42.984" lon="2.94806">
        <ele>102</ele>
        <time>2020-06-03T12:36:56.000Z</time>
      </trkpt>
      <trkpt lat="42.98398" lon="2.94804">
        <ele>102.4</ele>
        <time>2020-06-03T12:36:57.000Z</time>
      </trkpt>
      <trkpt lat="42.98395" lon="2.94803">
        <ele>103</ele>
        <time>2020-06-03T12:36:58.000Z</time>
      </trkpt>
      <trkpt lat="42.98393" lon="2.94801">
        <ele>103.4</ele>
        <time>2020-06-03T12:36:59.000Z</time>
      </trkpt>
      <trkpt lat="42.98391" lon="2.94799">
        <ele>103.8</ele>
        <time>2020-06-03T12:37:00.000Z</time>
      </trkpt>
      <trkpt lat="42.98388" lon="2.94798">
        <ele>104.2</ele>
        <time>2020-06-03T12:37:01.000Z</time>
      </trkpt>
      <trkpt lat="42.98386" lon="2.94796">
        <ele>104.6</ele>
        <time>2020-06-03T12:37:02.000Z</time>
      </trkpt>
      <trkpt lat="42.98384" lon="2.94795">
        <ele>105</ele>
        <time>2020-06-03T12:37:03.000Z</time>
      </trkpt>
      <trkpt lat="42.98382" lon="2.94793">
        <ele>105.4</ele>
        <time>2020-06-03T12:37:04.000Z</time>
      </trkpt>
      <trkpt lat="42.9838" lon="2.94792">
        <ele>105.8</ele>
        <time>2020-06-03T12:37:05.000Z</time>
      </trkpt>
      <trkpt lat="42.98378" lon="2.94791">
        <ele>106.4</ele>
        <time>2020-06-03T12:37:06.000Z</time>
      </trkpt>
      <trkpt lat="42.98376" lon="2.9479">
        <ele>106.8</ele>
        <time>2020-06-03T12:37:07.000Z</time>
      </trkpt>
      <trkpt lat="42.98374" lon="2.94789">
        <ele>107.2</ele>
        <time>2020-06-03T12:37:08.000Z</time>
      </trkpt>
      <trkpt lat="42.98372" lon="2.94787">
        <ele>107.6</ele>
        <time>2020-06-03T12:37:09.000Z</time>
      </trkpt>
      <trkpt lat="42.9837" lon="2.94785">
        <ele>107.6</ele>
        <time>2020-06-03T12:37:10.000Z</time>
      </trkpt>
      <trkpt lat="42.98369" lon="2.94783">
        <ele>108.2</ele>
        <time>2020-06-03T12:37:11.000Z</time>
      </trkpt>
      <trkpt lat="42.98367" lon="2.94781">
        <ele>108.6</ele>
        <time>2020-06-03T12:37:12.000Z</time>
      </trkpt>
      <trkpt lat="42.98366" lon="2.94779">
        <ele>109</ele>
        <time>2020-06-03T12:37:13.000Z</time>
      </trkpt>
      <trkpt lat="42.98364" lon="2.94777">
        <ele>109.6</ele>
        <time>2020-06-03T12:37:14.000Z</time>
      </trkpt>
      <trkpt lat="42.98362" lon="2.94776">
        <ele>110</ele>
        <time>2020-06-03T12:37:15.000Z</time>
      </trkpt>
      <trkpt lat="42.9836" lon="2.94774">
        <ele>110.4</ele>
        <time>2020-06-03T12:37:16.000Z</time>
      </trkpt>
      <trkpt lat="42.98358" lon="2.94773">
        <ele>110.8</ele>
        <time>2020-06-03T12:37:17.000Z</time>
      </trkpt>
      <trkpt lat="42.98356" lon="2.94772">
        <ele>111.4</ele>
        <time>2020-06-03T12:37:18.000Z</time>
      </trkpt>
      <trkpt lat="42.98353" lon="2.94771">
        <ele>111.8</ele>
        <time>2020-06-03T12:37:19.000Z</time>
      </trkpt>
      <trkpt lat="42.98351" lon="2.94771">
        <ele>112.2</ele>
        <time>2020-06-03T12:37:20.000Z</time>
      </trkpt>
      <trkpt lat="42.98347" lon="2.94772">
        <ele>112.8</ele>
        <time>2020-06-03T12:37:22.000Z</time>
      </trkpt>
      <trkpt lat="42.98345" lon="2.94772">
        <ele>113.2</ele>
        <time>2020-06-03T12:37:23.000Z</time>
      </trkpt>
      <trkpt lat="42.98342" lon="2.94773">
        <ele>113.6</ele>
        <time>2020-06-03T12:37:24.000Z</time>
      </trkpt>
      <trkpt lat="42.9834" lon="2.94774">
        <ele>114.2</ele>
        <time>2020-06-03T12:37:25.000Z</time>
      </trkpt>
      <trkpt lat="42.98338" lon="2.94776">
        <ele>114.6</ele>
        <time>2020-06-03T12:37:26.000Z</time>
      </trkpt>
      <trkpt lat="42.98327" lon="2.94787">
        <ele>115</ele>
        <time>2020-06-03T12:37:32.000Z</time>
      </trkpt>
      <trkpt lat="42.98325" lon="2.94789">
        <ele>115.6</ele>
        <time>2020-06-03T12:37:33.000Z</time>
      </trkpt>
      <trkpt lat="42.98323" lon="2.94792">
        <ele>116</ele>
        <time>2020-06-03T12:37:34.000Z</time>
      </trkpt>
      <trkpt lat="42.98321" lon="2.94794">
        <ele>116.4</ele>
        <time>2020-06-03T12:37:35.000Z</time>
      </trkpt>
      <trkpt lat="42.98319" lon="2.94796">
        <ele>116.8</ele>
        <time>2020-06-03T12:37:36.000Z</time>
      </trkpt>
      <trkpt lat="42.98314" lon="2.94804">
        <ele>116.8</ele>
        <time>2020-06-03T12:37:39.000Z</time>
      </trkpt>
      <trkpt lat="42.98308" lon="2.94816">
        <ele>117.2</ele>
        <time>2020-06-03T12:37:43.000Z</time>
      </trkpt>
      <trkpt lat="42.98307" lon="2.94819">
        <ele>117.6</ele>
        <time>2020-06-03T12:37:44.000Z</time>
      </trkpt>
      <trkpt lat="42.98306" lon="2.94822">
        <ele>118</ele>
        <time>2020-06-03T12:37:45.000Z</time>
      </trkpt>
      <trkpt lat="42.98304" lon="2.94826">
        <ele>118.4</ele>
        <time>2020-06-03T12:37:46.000Z</time>
      </trkpt>
      <trkpt lat="42.98303" lon="2.94829">
        <ele>119</ele>
        <time>2020-06-03T12:37:47.000Z</time>
      </trkpt>
      <trkpt lat="42.98296" lon="2.94851">
        <ele>119</ele>
        <time>2020-06-03T12:37:53.000Z</time>
      </trkpt>
      <trkpt lat="42.98294" lon="2.94858">
        <ele>119.4</ele>
        <time>2020-06-03T12:37:55.000Z</time>
      </trkpt>
      <trkpt lat="42.98293" lon="2.94862">
        <ele>119.8</ele>
        <time>2020-06-03T12:37:56.000Z</time>
      </trkpt>
      <trkpt lat="42.98292" lon="2.94865">
        <ele>120.2</ele>
        <time>2020-06-03T12:37:57.000Z</time>
      </trkpt>
      <trkpt lat="42.98291" lon="2.94869">
        <ele>120.6</ele>
        <time>2020-06-03T12:37:58.000Z</time>
      </trkpt>
      <trkpt lat="42.9829" lon="2.94873">
        <ele>121</ele>
        <time>2020-06-03T12:37:59.000Z</time>
      </trkpt>
      <trkpt lat="42.9829" lon="2.94877">
        <ele>121</ele>
        <time>2020-06-03T12:38:00.000Z</time>
      </trkpt>
      <trkpt lat="42.98282" lon="2.94898">
        <ele>121.4</ele>
        <time>2020-06-03T12:38:06.000Z</time>
      </trkpt>
      <trkpt lat="42.9828" lon="2.94901">
        <ele>121.8</ele>
        <time>2020-06-03T12:38:07.000Z</time>
      </trkpt>
      <trkpt lat="42.98278" lon="2.94903">
        <ele>122.2</ele>
        <time>2020-06-03T12:38:08.000Z</time>
      </trkpt>
      <trkpt lat="42.98275" lon="2.94905">
        <ele>122.6</ele>
        <time>2020-06-03T12:38:09.000Z</time>
      </trkpt>
      <trkpt lat="42.98273" lon="2.94907">
        <ele>123</ele>
        <time>2020-06-03T12:38:10.000Z</time>
      </trkpt>
      <trkpt lat="42.98261" lon="2.94915">
        <ele>123.6</ele>
        <time>2020-06-03T12:38:15.000Z</time>
      </trkpt>
      <trkpt lat="42.98259" lon="2.94916">
        <ele>124</ele>
        <time>2020-06-03T12:38:16.000Z</time>
      </trkpt>
      <trkpt lat="42.98257" lon="2.94917">
        <ele>124.4</ele>
        <time>2020-06-03T12:38:17.000Z</time>
      </trkpt>
      <trkpt lat="42.98255" lon="2.94918">
        <ele>124.8</ele>
        <time>2020-06-03T12:38:18.000Z</time>
      </trkpt>
      <trkpt lat="42.98253" lon="2.94919">
        <ele>125.4</ele>
        <time>2020-06-03T12:38:19.000Z</time>
      </trkpt>
      <trkpt lat="42.98246" lon="2.94925">
        <ele>125.4</ele>
        <time>2020-06-03T12:38:22.000Z</time>
      </trkpt>
      <trkpt lat="42.98244" lon="2.94927">
        <ele>125.8</ele>
        <time>2020-06-03T12:38:23.000Z</time>
      </trkpt>
      <trkpt lat="42.98243" lon="2.94929">
        <ele>126.2</ele>
        <time>2020-06-03T12:38:24.000Z</time>
      </trkpt>
      <trkpt lat="42.9824" lon="2.94932">
        <ele>126.6</ele>
        <time>2020-06-03T12:38:25.000Z</time>
      </trkpt>
      <trkpt lat="42.98239" lon="2.94934">
        <ele>127</ele>
        <time>2020-06-03T12:38:26.000Z</time>
      </trkpt>
      <trkpt lat="42.98237" lon="2.94937">
        <ele>127.4</ele>
        <time>2020-06-03T12:38:27.000Z</time>
      </trkpt>
      <trkpt lat="42.98236" lon="2.9494">
        <ele>127.4</ele>
        <time>2020-06-03T12:38:28.000Z</time>
      </trkpt>
      <trkpt lat="42.98226" lon="2.94956">
        <ele>127.4</ele>
        <time>2020-06-03T12:38:33.000Z</time>
      </trkpt>
      <trkpt lat="42.98211" lon="2.94957">
        <ele>127.4</ele>
        <time>2020-06-03T12:38:38.000Z</time>
      </trkpt>
      <trkpt lat="42.98196" lon="2.94961">
        <ele>127.4</ele>
        <time>2020-06-03T12:38:43.000Z</time>
      </trkpt>
      <trkpt lat="42.98186" lon="2.94963">
        <ele>128</ele>
        <time>2020-06-03T12:38:46.000Z</time>
      </trkpt>
      <trkpt lat="42.98184" lon="2.94963">
        <ele>128.4</ele>
        <time>2020-06-03T12:38:47.000Z</time>
      </trkpt>
      <trkpt lat="42.98181" lon="2.94965">
        <ele>128.8</ele>
        <time>2020-06-03T12:38:48.000Z</time>
      </trkpt>
      <trkpt lat="42.98178" lon="2.94966">
        <ele>129.2</ele>
        <time>2020-06-03T12:38:49.000Z</time>
      </trkpt>
      <trkpt lat="42.98174" lon="2.94967">
        <ele>129.6</ele>
        <time>2020-06-03T12:38:50.000Z</time>
      </trkpt>
      <trkpt lat="42.98167" lon="2.94967">
        <ele>129.6</ele>
        <time>2020-06-03T12:38:52.000Z</time>
      </trkpt>
      <trkpt lat="42.98159" lon="2.94965">
        <ele>129.6</ele>
        <time>2020-06-03T12:38:55.000Z</time>
      </trkpt>
      <trkpt lat="42.98158" lon="2.94963">
        <ele>129.6</ele>
        <time>2020-06-03T12:38:56.000Z</time>
      </trkpt>
      <trkpt lat="42.98159" lon="2.9495">
        <ele>129.6</ele>
        <time>2020-06-03T12:39:00.000Z</time>
      </trkpt>
      <trkpt lat="42.98158" lon="2.94943">
        <ele>129.6</ele>
        <time>2020-06-03T12:39:02.000Z</time>
      </trkpt>
      <trkpt lat="42.98157" lon="2.94933">
        <ele>130.2</ele>
        <time>2020-06-03T12:39:05.000Z</time>
      </trkpt>
      <trkpt lat="42.98156" lon="2.94929">
        <ele>130.6</ele>
        <time>2020-06-03T12:39:06.000Z</time>
      </trkpt>
      <trkpt lat="42.98155" lon="2.94925">
        <ele>131</ele>
        <time>2020-06-03T12:39:07.000Z</time>
      </trkpt>
      <trkpt lat="42.98156" lon="2.94921">
        <ele>131.4</ele>
        <time>2020-06-03T12:39:08.000Z</time>
      </trkpt>
      <trkpt lat="42.98157" lon="2.94918">
        <ele>131.8</ele>
        <time>2020-06-03T12:39:09.000Z</time>
      </trkpt>
      <trkpt lat="42.98159" lon="2.94916">
        <ele>131.8</ele>
        <time>2020-06-03T12:39:10.000Z</time>
      </trkpt>
      <trkpt lat="42.9817" lon="2.94899">
        <ele>131.8</ele>
        <time>2020-06-03T12:39:15.000Z</time>
      </trkpt>
      <trkpt lat="42.98173" lon="2.94894">
        <ele>131.8</ele>
        <time>2020-06-03T12:39:16.000Z</time>
      </trkpt>
      <trkpt lat="42.98183" lon="2.94875">
        <ele>131.8</ele>
        <time>2020-06-03T12:39:20.000Z</time>
      </trkpt>
      <trkpt lat="42.98194" lon="2.94853">
        <ele>131.8</ele>
        <time>2020-06-03T12:39:24.000Z</time>
      </trkpt>
      <trkpt lat="42.98197" lon="2.94848">
        <ele>131.8</ele>
        <time>2020-06-03T12:39:25.000Z</time>
      </trkpt>
      <trkpt lat="42.98204" lon="2.94836">
        <ele>131.8</ele>
        <time>2020-06-03T12:39:28.000Z</time>
      </trkpt>
      <trkpt lat="42.98208" lon="2.94826">
        <ele>131.8</ele>
        <time>2020-06-03T12:39:30.000Z</time>
      </trkpt>
      <trkpt lat="42.98213" lon="2.94818">
        <ele>131.8</ele>
        <time>2020-06-03T12:39:32.000Z</time>
      </trkpt>
      <trkpt lat="42.98229" lon="2.94799">
        <ele>131.8</ele>
        <time>2020-06-03T12:39:36.000Z</time>
      </trkpt>
      <trkpt lat="42.98247" lon="2.94768">
        <ele>131.8</ele>
        <time>2020-06-03T12:39:41.000Z</time>
      </trkpt>
      <trkpt lat="42.98265" lon="2.94752">
        <ele>131.8</ele>
        <time>2020-06-03T12:39:45.000Z</time>
      </trkpt>
      <trkpt lat="42.98274" lon="2.94745">
        <ele>131.8</ele>
        <time>2020-06-03T12:39:47.000Z</time>
      </trkpt>
      <trkpt lat="42.98276" lon="2.9474">
        <ele>131.8</ele>
        <time>2020-06-03T12:39:48.000Z</time>
      </trkpt>
      <trkpt lat="42.98282" lon="2.94723">
        <ele>131.8</ele>
        <time>2020-06-03T12:39:51.000Z</time>
      </trkpt>
      <trkpt lat="42.98284" lon="2.94717">
        <ele>131.8</ele>
        <time>2020-06-03T12:39:52.000Z</time>
      </trkpt>
      <trkpt lat="42.98285" lon="2.94711">
        <ele>131.4</ele>
        <time>2020-06-03T12:39:53.000Z</time>
      </trkpt>
      <trkpt lat="42.98287" lon="2.94705">
        <ele>130.8</ele>
        <time>2020-06-03T12:39:54.000Z</time>
      </trkpt>
      <trkpt lat="42.98289" lon="2.94699">
        <ele>130.2</ele>
        <time>2020-06-03T12:39:55.000Z</time>
      </trkpt>
      <trkpt lat="42.98292" lon="2.94694">
        <ele>129.4</ele>
        <time>2020-06-03T12:39:56.000Z</time>
      </trkpt>
      <trkpt lat="42.98296" lon="2.94687">
        <ele>128.8</ele>
        <time>2020-06-03T12:39:57.000Z</time>
      </trkpt>
      <trkpt lat="42.98299" lon="2.94682">
        <ele>128</ele>
        <time>2020-06-03T12:39:58.000Z</time>
      </trkpt>
      <trkpt lat="42.98299" lon="2.94677">
        <ele>127.4</ele>
        <time>2020-06-03T12:39:59.000Z</time>
      </trkpt>
      <trkpt lat="42.98298" lon="2.94671">
        <ele>126.8</ele>
        <time>2020-06-03T12:40:00.000Z</time>
      </trkpt>
      <trkpt lat="42.98297" lon="2.94665">
        <ele>126</ele>
        <time>2020-06-03T12:40:01.000Z</time>
      </trkpt>
      <trkpt lat="42.98297" lon="2.94658">
        <ele>125.4</ele>
        <time>2020-06-03T12:40:02.000Z</time>
      </trkpt>
      <trkpt lat="42.98299" lon="2.94652">
        <ele>124.8</ele>
        <time>2020-06-03T12:40:03.000Z</time>
      </trkpt>
      <trkpt lat="42.98301" lon="2.94646">
        <ele>124.2</ele>
        <time>2020-06-03T12:40:04.000Z</time>
      </trkpt>
      <trkpt lat="42.98301" lon="2.9464">
        <ele>123.6</ele>
        <time>2020-06-03T12:40:05.000Z</time>
      </trkpt>
      <trkpt lat="42.98301" lon="2.94634">
        <ele>123</ele>
        <time>2020-06-03T12:40:06.000Z</time>
      </trkpt>
      <trkpt lat="42.98302" lon="2.94628">
        <ele>122.4</ele>
        <time>2020-06-03T12:40:07.000Z</time>
      </trkpt>
      <trkpt lat="42.98304" lon="2.94625">
        <ele>121</ele>
        <time>2020-06-03T12:40:08.000Z</time>
      </trkpt>
      <trkpt lat="42.98307" lon="2.94623">
        <ele>120.4</ele>
        <time>2020-06-03T12:40:09.000Z</time>
      </trkpt>
      <trkpt lat="42.9831" lon="2.94619">
        <ele>119.6</ele>
        <time>2020-06-03T12:40:10.000Z</time>
      </trkpt>
      <trkpt lat="42.98314" lon="2.94616">
        <ele>119</ele>
        <time>2020-06-03T12:40:11.000Z</time>
      </trkpt>
      <trkpt lat="42.98318" lon="2.94613">
        <ele>118.2</ele>
        <time>2020-06-03T12:40:12.000Z</time>
      </trkpt>
      <trkpt lat="42.98323" lon="2.94611">
        <ele>117.6</ele>
        <time>2020-06-03T12:40:13.000Z</time>
      </trkpt>
      <trkpt lat="42.98329" lon="2.94609">
        <ele>117.2</ele>
        <time>2020-06-03T12:40:14.000Z</time>
      </trkpt>
      <trkpt lat="42.98335" lon="2.94606">
        <ele>116.6</ele>
        <time>2020-06-03T12:40:15.000Z</time>
      </trkpt>
      <trkpt lat="42.9834" lon="2.94602">
        <ele>116</ele>
        <time>2020-06-03T12:40:16.000Z</time>
      </trkpt>
      <trkpt lat="42.98345" lon="2.94598">
        <ele>115.4</ele>
        <time>2020-06-03T12:40:17.000Z</time>
      </trkpt>
      <trkpt lat="42.98348" lon="2.94596">
        <ele>114.8</ele>
        <time>2020-06-03T12:40:18.000Z</time>
      </trkpt>
      <trkpt lat="42.98352" lon="2.94594">
        <ele>114.2</ele>
        <time>2020-06-03T12:40:19.000Z</time>
      </trkpt>
      <trkpt lat="42.98355" lon="2.9459">
        <ele>113.4</ele>
        <time>2020-06-03T12:40:20.000Z</time>
      </trkpt>
      <trkpt lat="42.98357" lon="2.94585">
        <ele>113</ele>
        <time>2020-06-03T12:40:21.000Z</time>
      </trkpt>
      <trkpt lat="42.98359" lon="2.94581">
        <ele>112.6</ele>
        <time>2020-06-03T12:40:22.000Z</time>
      </trkpt>
      <trkpt lat="42.98363" lon="2.94578">
        <ele>112.2</ele>
        <time>2020-06-03T12:40:23.000Z</time>
      </trkpt>
      <trkpt lat="42.98366" lon="2.94574">
        <ele>111.6</ele>
        <time>2020-06-03T12:40:24.000Z</time>
      </trkpt>
      <trkpt lat="42.9837" lon="2.94571">
        <ele>111</ele>
        <time>2020-06-03T12:40:25.000Z</time>
      </trkpt>
      <trkpt lat="42.98373" lon="2.94571">
        <ele>110.4</ele>
        <time>2020-06-03T12:40:26.000Z</time>
      </trkpt>
      <trkpt lat="42.98377" lon="2.94572">
        <ele>109.8</ele>
        <time>2020-06-03T12:40:27.000Z</time>
      </trkpt>
      <trkpt lat="42.9838" lon="2.9457">
        <ele>109.2</ele>
        <time>2020-06-03T12:40:28.000Z</time>
      </trkpt>
      <trkpt lat="42.98383" lon="2.94568">
        <ele>108.6</ele>
        <time>2020-06-03T12:40:29.000Z</time>
      </trkpt>
      <trkpt lat="42.98386" lon="2.94565">
        <ele>108</ele>
        <time>2020-06-03T12:40:30.000Z</time>
      </trkpt>
      <trkpt lat="42.98391" lon="2.94562">
        <ele>107.4</ele>
        <time>2020-06-03T12:40:31.000Z</time>
      </trkpt>
      <trkpt lat="42.98395" lon="2.94559">
        <ele>106.6</ele>
        <time>2020-06-03T12:40:32.000Z</time>
      </trkpt>
      <trkpt lat="42.98399" lon="2.94555">
        <ele>105.2</ele>
        <time>2020-06-03T12:40:33.000Z</time>
      </trkpt>
      <trkpt lat="42.98403" lon="2.9455">
        <ele>104.6</ele>
        <time>2020-06-03T12:40:34.000Z</time>
      </trkpt>
      <trkpt lat="42.98408" lon="2.94545">
        <ele>104</ele>
        <time>2020-06-03T12:40:35.000Z</time>
      </trkpt>
      <trkpt lat="42.98412" lon="2.94541">
        <ele>103.6</ele>
        <time>2020-06-03T12:40:36.000Z</time>
      </trkpt>
      <trkpt lat="42.98417" lon="2.94535">
        <ele>103</ele>
        <time>2020-06-03T12:40:37.000Z</time>
      </trkpt>
      <trkpt lat="42.98422" lon="2.9453">
        <ele>102.4</ele>
        <time>2020-06-03T12:40:38.000Z</time>
      </trkpt>
      <trkpt lat="42.98427" lon="2.94524">
        <ele>102</ele>
        <time>2020-06-03T12:40:39.000Z</time>
      </trkpt>
      <trkpt lat="42.98432" lon="2.94519">
        <ele>101.6</ele>
        <time>2020-06-03T12:40:40.000Z</time>
      </trkpt>
      <trkpt lat="42.98437" lon="2.94514">
        <ele>101.2</ele>
        <time>2020-06-03T12:40:41.000Z</time>
      </trkpt>
      <trkpt lat="42.98441" lon="2.94509">
        <ele>100.8</ele>
        <time>2020-06-03T12:40:42.000Z</time>
      </trkpt>
      <trkpt lat="42.98445" lon="2.94504">
        <ele>100.4</ele>
        <time>2020-06-03T12:40:43.000Z</time>
      </trkpt>
      <trkpt lat="42.98453" lon="2.94494">
        <ele>100.4</ele>
        <time>2020-06-03T12:40:45.000Z</time>
      </trkpt>
      <trkpt lat="42.9847" lon="2.94473">
        <ele>99.8</ele>
        <time>2020-06-03T12:40:49.000Z</time>
      </trkpt>
      <trkpt lat="42.98473" lon="2.9447">
        <ele>99.4</ele>
        <time>2020-06-03T12:40:50.000Z</time>
      </trkpt>
      <trkpt lat="42.98475" lon="2.94468">
        <ele>99</ele>
        <time>2020-06-03T12:40:51.000Z</time>
      </trkpt>
      <trkpt lat="42.98475" lon="2.94466">
        <ele>98.6</ele>
        <time>2020-06-03T12:40:52.000Z</time>
      </trkpt>
      <trkpt lat="42.98475" lon="2.94463">
        <ele>98.2</ele>
        <time>2020-06-03T12:40:53.000Z</time>
      </trkpt>
      <trkpt lat="42.98473" lon="2.94461">
        <ele>98.2</ele>
        <time>2020-06-03T12:40:54.000Z</time>
      </trkpt>
      <trkpt lat="42.98458" lon="2.94448">
        <ele>98.2</ele>
        <time>2020-06-03T12:40:59.000Z</time>
      </trkpt>
      <trkpt lat="42.98432" lon="2.94425">
        <ele>98.2</ele>
        <time>2020-06-03T12:41:06.000Z</time>
      </trkpt>
      <trkpt lat="42.98414" lon="2.94412">
        <ele>98.2</ele>
        <time>2020-06-03T12:41:10.000Z</time>
      </trkpt>
      <trkpt lat="42.98401" lon="2.94404">
        <ele>98.2</ele>
        <time>2020-06-03T12:41:13.000Z</time>
      </trkpt>
      <trkpt lat="42.98354" lon="2.94379">
        <ele>98.2</ele>
        <time>2020-06-03T12:41:23.000Z</time>
      </trkpt>
      <trkpt lat="42.98345" lon="2.94374">
        <ele>98.2</ele>
        <time>2020-06-03T12:41:25.000Z</time>
      </trkpt>
      <trkpt lat="42.98328" lon="2.94365">
        <ele>98.2</ele>
        <time>2020-06-03T12:41:29.000Z</time>
      </trkpt>
      <trkpt lat="42.98319" lon="2.9436">
        <ele>98.2</ele>
        <time>2020-06-03T12:41:31.000Z</time>
      </trkpt>
      <trkpt lat="42.98292" lon="2.9435">
        <ele>98.2</ele>
        <time>2020-06-03T12:41:37.000Z</time>
      </trkpt>
      <trkpt lat="42.98279" lon="2.94342">
        <ele>98.6</ele>
        <time>2020-06-03T12:41:42.000Z</time>
      </trkpt>
      <trkpt lat="42.98277" lon="2.94341">
        <ele>99</ele>
        <time>2020-06-03T12:41:43.000Z</time>
      </trkpt>
      <trkpt lat="42.98276" lon="2.94341">
        <ele>99.4</ele>
        <time>2020-06-03T12:41:44.000Z</time>
      </trkpt>
      <trkpt lat="42.98274" lon="2.9434">
        <ele>99.8</ele>
        <time>2020-06-03T12:41:45.000Z</time>
      </trkpt>
      <trkpt lat="42.98272" lon="2.94339">
        <ele>100.2</ele>
        <time>2020-06-03T12:41:46.000Z</time>
      </trkpt>
      <trkpt lat="42.9827" lon="2.94338">
        <ele>100.2</ele>
        <time>2020-06-03T12:41:47.000Z</time>
      </trkpt>
      <trkpt lat="42.98249" lon="2.94328">
        <ele>100.2</ele>
        <time>2020-06-03T12:41:52.000Z</time>
      </trkpt>
      <trkpt lat="42.98226" lon="2.94315">
        <ele>100.2</ele>
        <time>2020-06-03T12:41:57.000Z</time>
      </trkpt>
      <trkpt lat="42.98218" lon="2.9431">
        <ele>100.2</ele>
        <time>2020-06-03T12:41:59.000Z</time>
      </trkpt>
      <trkpt lat="42.98201" lon="2.94303">
        <ele>100.2</ele>
        <time>2020-06-03T12:42:03.000Z</time>
      </trkpt>
      <trkpt lat="42.98195" lon="2.943">
        <ele>100.2</ele>
        <time>2020-06-03T12:42:05.000Z</time>
      </trkpt>
      <trkpt lat="42.98187" lon="2.94286">
        <ele>100.2</ele>
        <time>2020-06-03T12:42:09.000Z</time>
      </trkpt>
      <trkpt lat="42.98185" lon="2.94282">
        <ele>100.2</ele>
        <time>2020-06-03T12:42:10.000Z</time>
      </trkpt>
      <trkpt lat="42.98182" lon="2.94272">
        <ele>100.6</ele>
        <time>2020-06-03T12:42:12.000Z</time>
      </trkpt>
      <trkpt lat="42.98181" lon="2.94268">
        <ele>101</ele>
        <time>2020-06-03T12:42:13.000Z</time>
      </trkpt>
      <trkpt lat="42.98179" lon="2.94263">
        <ele>101.4</ele>
        <time>2020-06-03T12:42:14.000Z</time>
      </trkpt>
      <trkpt lat="42.98178" lon="2.94259">
        <ele>101.8</ele>
        <time>2020-06-03T12:42:15.000Z</time>
      </trkpt>
      <trkpt lat="42.98176" lon="2.94254">
        <ele>102.2</ele>
        <time>2020-06-03T12:42:16.000Z</time>
      </trkpt>
      <trkpt lat="42.98168" lon="2.9424">
        <ele>102.2</ele>
        <time>2020-06-03T12:42:20.000Z</time>
      </trkpt>
      <trkpt lat="42.98165" lon="2.94233">
        <ele>102.8</ele>
        <time>2020-06-03T12:42:22.000Z</time>
      </trkpt>
      <trkpt lat="42.98163" lon="2.94229">
        <ele>103.2</ele>
        <time>2020-06-03T12:42:23.000Z</time>
      </trkpt>
      <trkpt lat="42.98161" lon="2.94226">
        <ele>103.6</ele>
        <time>2020-06-03T12:42:24.000Z</time>
      </trkpt>
      <trkpt lat="42.98159" lon="2.94222">
        <ele>104</ele>
        <time>2020-06-03T12:42:25.000Z</time>
      </trkpt>
      <trkpt lat="42.98157" lon="2.94218">
        <ele>104.4</ele>
        <time>2020-06-03T12:42:26.000Z</time>
      </trkpt>
      <trkpt lat="42.98141" lon="2.94188">
        <ele>104.4</ele>
        <time>2020-06-03T12:42:33.000Z</time>
      </trkpt>
      <trkpt lat="42.98132" lon="2.9417">
        <ele>104.4</ele>
        <time>2020-06-03T12:42:37.000Z</time>
      </trkpt>
      <trkpt lat="42.98124" lon="2.94157">
        <ele>104.4</ele>
        <time>2020-06-03T12:42:40.000Z</time>
      </trkpt>
      <trkpt lat="42.98119" lon="2.94148">
        <ele>104.8</ele>
        <time>2020-06-03T12:42:42.000Z</time>
      </trkpt>
      <trkpt lat="42.98116" lon="2.94143">
        <ele>105.2</ele>
        <time>2020-06-03T12:42:43.000Z</time>
      </trkpt>
      <trkpt lat="42.98113" lon="2.94138">
        <ele>105.6</ele>
        <time>2020-06-03T12:42:44.000Z</time>
      </trkpt>
      <trkpt lat="42.9811" lon="2.94134">
        <ele>106</ele>
        <time>2020-06-03T12:42:45.000Z</time>
      </trkpt>
      <trkpt lat="42.98106" lon="2.94129">
        <ele>106.4</ele>
        <time>2020-06-03T12:42:46.000Z</time>
      </trkpt>
      <trkpt lat="42.98102" lon="2.94125">
        <ele>106.4</ele>
        <time>2020-06-03T12:42:47.000Z</time>
      </trkpt>
      <trkpt lat="42.98083" lon="2.94105">
        <ele>106.4</ele>
        <time>2020-06-03T12:42:52.000Z</time>
      </trkpt>
      <trkpt lat="42.9808" lon="2.94101">
        <ele>106.4</ele>
        <time>2020-06-03T12:42:53.000Z</time>
      </trkpt>
      <trkpt lat="42.98077" lon="2.94097">
        <ele>106.4</ele>
        <time>2020-06-03T12:42:54.000Z</time>
      </trkpt>
      <trkpt lat="42.9807" lon="2.94088">
        <ele>106.4</ele>
        <time>2020-06-03T12:42:56.000Z</time>
      </trkpt>
      <trkpt lat="42.98068" lon="2.94083">
        <ele>106.4</ele>
        <time>2020-06-03T12:42:57.000Z</time>
      </trkpt>
      <trkpt lat="42.98061" lon="2.94068">
        <ele>106.8</ele>
        <time>2020-06-03T12:43:00.000Z</time>
      </trkpt>
      <trkpt lat="42.98058" lon="2.94063">
        <ele>107.6</ele>
        <time>2020-06-03T12:43:01.000Z</time>
      </trkpt>
      <trkpt lat="42.98056" lon="2.94058">
        <ele>108</ele>
        <time>2020-06-03T12:43:02.000Z</time>
      </trkpt>
      <trkpt lat="42.98053" lon="2.94054">
        <ele>108.4</ele>
        <time>2020-06-03T12:43:03.000Z</time>
      </trkpt>
      <trkpt lat="42.98046" lon="2.9404">
        <ele>108.4</ele>
        <time>2020-06-03T12:43:06.000Z</time>
      </trkpt>
      <trkpt lat="42.98043" lon="2.94036">
        <ele>108.4</ele>
        <time>2020-06-03T12:43:07.000Z</time>
      </trkpt>
      <trkpt lat="42.98038" lon="2.94023">
        <ele>109</ele>
        <time>2020-06-03T12:43:10.000Z</time>
      </trkpt>
      <trkpt lat="42.98037" lon="2.94018">
        <ele>109.4</ele>
        <time>2020-06-03T12:43:11.000Z</time>
      </trkpt>
      <trkpt lat="42.98035" lon="2.94014">
        <ele>110</ele>
        <time>2020-06-03T12:43:12.000Z</time>
      </trkpt>
      <trkpt lat="42.98033" lon="2.9401">
        <ele>110.4</ele>
        <time>2020-06-03T12:43:13.000Z</time>
      </trkpt>
      <trkpt lat="42.98032" lon="2.94005">
        <ele>111</ele>
        <time>2020-06-03T12:43:14.000Z</time>
      </trkpt>
      <trkpt lat="42.9803" lon="2.9399">
        <ele>111</ele>
        <time>2020-06-03T12:43:17.000Z</time>
      </trkpt>
      <trkpt lat="42.98028" lon="2.93985">
        <ele>111</ele>
        <time>2020-06-03T12:43:18.000Z</time>
      </trkpt>
      <trkpt lat="42.98021" lon="2.93972">
        <ele>111</ele>
        <time>2020-06-03T12:43:21.000Z</time>
      </trkpt>
      <trkpt lat="42.98016" lon="2.93965">
        <ele>111.4</ele>
        <time>2020-06-03T12:43:23.000Z</time>
      </trkpt>
      <trkpt lat="42.98013" lon="2.93962">
        <ele>111.8</ele>
        <time>2020-06-03T12:43:24.000Z</time>
      </trkpt>
      <trkpt lat="42.9801" lon="2.93958">
        <ele>112.2</ele>
        <time>2020-06-03T12:43:25.000Z</time>
      </trkpt>
      <trkpt lat="42.98007" lon="2.93955">
        <ele>113</ele>
        <time>2020-06-03T12:43:26.000Z</time>
      </trkpt>
      <trkpt lat="42.97993" lon="2.93942">
        <ele>113</ele>
        <time>2020-06-03T12:43:30.000Z</time>
      </trkpt>
      <trkpt lat="42.97986" lon="2.93935">
        <ele>113.4</ele>
        <time>2020-06-03T12:43:32.000Z</time>
      </trkpt>
      <trkpt lat="42.97983" lon="2.93932">
        <ele>113.8</ele>
        <time>2020-06-03T12:43:33.000Z</time>
      </trkpt>
      <trkpt lat="42.97979" lon="2.93929">
        <ele>114.2</ele>
        <time>2020-06-03T12:43:34.000Z</time>
      </trkpt>
      <trkpt lat="42.97975" lon="2.93925">
        <ele>114.6</ele>
        <time>2020-06-03T12:43:35.000Z</time>
      </trkpt>
      <trkpt lat="42.97971" lon="2.93921">
        <ele>115</ele>
        <time>2020-06-03T12:43:36.000Z</time>
      </trkpt>
      <trkpt lat="42.97966" lon="2.93912">
        <ele>115</ele>
        <time>2020-06-03T12:43:38.000Z</time>
      </trkpt>
      <trkpt lat="42.97955" lon="2.93884">
        <ele>115</ele>
        <time>2020-06-03T12:43:43.000Z</time>
      </trkpt>
      <trkpt lat="42.97953" lon="2.93878">
        <ele>115</ele>
        <time>2020-06-03T12:43:44.000Z</time>
      </trkpt>
      <trkpt lat="42.97939" lon="2.93848">
        <ele>115</ele>
        <time>2020-06-03T12:43:50.000Z</time>
      </trkpt>
      <trkpt lat="42.97936" lon="2.93843">
        <ele>115.8</ele>
        <time>2020-06-03T12:43:51.000Z</time>
      </trkpt>
      <trkpt lat="42.97934" lon="2.93838">
        <ele>116.4</ele>
        <time>2020-06-03T12:43:52.000Z</time>
      </trkpt>
      <trkpt lat="42.97931" lon="2.93833">
        <ele>116.8</ele>
        <time>2020-06-03T12:43:53.000Z</time>
      </trkpt>
      <trkpt lat="42.97929" lon="2.93828">
        <ele>117.2</ele>
        <time>2020-06-03T12:43:54.000Z</time>
      </trkpt>
      <trkpt lat="42.97919" lon="2.93808">
        <ele>117.2</ele>
        <time>2020-06-03T12:43:58.000Z</time>
      </trkpt>
      <trkpt lat="42.97912" lon="2.93794">
        <ele>117.2</ele>
        <time>2020-06-03T12:44:01.000Z</time>
      </trkpt>
      <trkpt lat="42.97901" lon="2.93775">
        <ele>117.2</ele>
        <time>2020-06-03T12:44:05.000Z</time>
      </trkpt>
      <trkpt lat="42.97896" lon="2.93766">
        <ele>117.2</ele>
        <time>2020-06-03T12:44:07.000Z</time>
      </trkpt>
      <trkpt lat="42.97892" lon="2.93756">
        <ele>117.2</ele>
        <time>2020-06-03T12:44:09.000Z</time>
      </trkpt>
      <trkpt lat="42.9789" lon="2.93751">
        <ele>117.6</ele>
        <time>2020-06-03T12:44:10.000Z</time>
      </trkpt>
      <trkpt lat="42.9789" lon="2.93746">
        <ele>118</ele>
        <time>2020-06-03T12:44:11.000Z</time>
      </trkpt>
      <trkpt lat="42.9789" lon="2.93741">
        <ele>118.4</ele>
        <time>2020-06-03T12:44:12.000Z</time>
      </trkpt>
      <trkpt lat="42.9789" lon="2.93736">
        <ele>119</ele>
        <time>2020-06-03T12:44:13.000Z</time>
      </trkpt>
      <trkpt lat="42.97889" lon="2.93732">
        <ele>119.4</ele>
        <time>2020-06-03T12:44:14.000Z</time>
      </trkpt>
      <trkpt lat="42.97887" lon="2.93724">
        <ele>119.4</ele>
        <time>2020-06-03T12:44:16.000Z</time>
      </trkpt>
      <trkpt lat="42.97879" lon="2.93718">
        <ele>119.4</ele>
        <time>2020-06-03T12:44:19.000Z</time>
      </trkpt>
      <trkpt lat="42.97874" lon="2.93714">
        <ele>119.8</ele>
        <time>2020-06-03T12:44:21.000Z</time>
      </trkpt>
      <trkpt lat="42.97872" lon="2.93712">
        <ele>120.4</ele>
        <time>2020-06-03T12:44:22.000Z</time>
      </trkpt>
      <trkpt lat="42.9787" lon="2.93709">
        <ele>121</ele>
        <time>2020-06-03T12:44:23.000Z</time>
      </trkpt>
      <trkpt lat="42.97868" lon="2.93707">
        <ele>121.4</ele>
        <time>2020-06-03T12:44:24.000Z</time>
      </trkpt>
      <trkpt lat="42.97865" lon="2.93705">
        <ele>122</ele>
        <time>2020-06-03T12:44:25.000Z</time>
      </trkpt>
      <trkpt lat="42.9786" lon="2.937">
        <ele>122</ele>
        <time>2020-06-03T12:44:27.000Z</time>
      </trkpt>
      <trkpt lat="42.97855" lon="2.93696">
        <ele>122.4</ele>
        <time>2020-06-03T12:44:29.000Z</time>
      </trkpt>
      <trkpt lat="42.97852" lon="2.93694">
        <ele>122.8</ele>
        <time>2020-06-03T12:44:30.000Z</time>
      </trkpt>
      <trkpt lat="42.97849" lon="2.93691">
        <ele>123.4</ele>
        <time>2020-06-03T12:44:31.000Z</time>
      </trkpt>
      <trkpt lat="42.97847" lon="2.93689">
        <ele>123.8</ele>
        <time>2020-06-03T12:44:32.000Z</time>
      </trkpt>
      <trkpt lat="42.97844" lon="2.93687">
        <ele>124.2</ele>
        <time>2020-06-03T12:44:33.000Z</time>
      </trkpt>
      <trkpt lat="42.97832" lon="2.93672">
        <ele>124.2</ele>
        <time>2020-06-03T12:44:39.000Z</time>
      </trkpt>
      <trkpt lat="42.9783" lon="2.9367">
        <ele>124.6</ele>
        <time>2020-06-03T12:44:40.000Z</time>
      </trkpt>
      <trkpt lat="42.97829" lon="2.93668">
        <ele>125.4</ele>
        <time>2020-06-03T12:44:41.000Z</time>
      </trkpt>
      <trkpt lat="42.97827" lon="2.93666">
        <ele>125.8</ele>
        <time>2020-06-03T12:44:42.000Z</time>
      </trkpt>
      <trkpt lat="42.97824" lon="2.93665">
        <ele>126.2</ele>
        <time>2020-06-03T12:44:43.000Z</time>
      </trkpt>
      <trkpt lat="42.97818" lon="2.9366">
        <ele>126.6</ele>
        <time>2020-06-03T12:44:46.000Z</time>
      </trkpt>
      <trkpt lat="42.97817" lon="2.93659">
        <ele>127.2</ele>
        <time>2020-06-03T12:44:47.000Z</time>
      </trkpt>
      <trkpt lat="42.97815" lon="2.93657">
        <ele>127.6</ele>
        <time>2020-06-03T12:44:48.000Z</time>
      </trkpt>
      <trkpt lat="42.97813" lon="2.93656">
        <ele>128</ele>
        <time>2020-06-03T12:44:49.000Z</time>
      </trkpt>
      <trkpt lat="42.97812" lon="2.93654">
        <ele>128.4</ele>
        <time>2020-06-03T12:44:50.000Z</time>
      </trkpt>
      <trkpt lat="42.97812" lon="2.93653">
        <ele>128.4</ele>
        <time>2020-06-03T12:44:51.000Z</time>
      </trkpt>
      <trkpt lat="42.97814" lon="2.93653">
        <ele>128.4</ele>
        <time>2020-06-03T12:44:53.000Z</time>
      </trkpt>
      <trkpt lat="42.97819" lon="2.93654">
        <ele>128.8</ele>
        <time>2020-06-03T12:44:55.000Z</time>
      </trkpt>
      <trkpt lat="42.97821" lon="2.93656">
        <ele>129.2</ele>
        <time>2020-06-03T12:44:56.000Z</time>
      </trkpt>
      <trkpt lat="42.97824" lon="2.93657">
        <ele>129.6</ele>
        <time>2020-06-03T12:44:57.000Z</time>
      </trkpt>
      <trkpt lat="42.97826" lon="2.93657">
        <ele>130</ele>
        <time>2020-06-03T12:44:58.000Z</time>
      </trkpt>
      <trkpt lat="42.97828" lon="2.93658">
        <ele>130.6</ele>
        <time>2020-06-03T12:44:59.000Z</time>
      </trkpt>
      <trkpt lat="42.97832" lon="2.9366">
        <ele>130.6</ele>
        <time>2020-06-03T12:45:01.000Z</time>
      </trkpt>
      <trkpt lat="42.97833" lon="2.9366">
        <ele>131</ele>
        <time>2020-06-03T12:45:02.000Z</time>
      </trkpt>
      <trkpt lat="42.97835" lon="2.93661">
        <ele>131.4</ele>
        <time>2020-06-03T12:45:03.000Z</time>
      </trkpt>
      <trkpt lat="42.97837" lon="2.93661">
        <ele>131.8</ele>
        <time>2020-06-03T12:45:04.000Z</time>
      </trkpt>
      <trkpt lat="42.9784" lon="2.93663">
        <ele>132.6</ele>
        <time>2020-06-03T12:45:05.000Z</time>
      </trkpt>
      <trkpt lat="42.97842" lon="2.93664">
        <ele>132.6</ele>
        <time>2020-06-03T12:45:06.000Z</time>
      </trkpt>
      <trkpt lat="42.97844" lon="2.93665">
        <ele>132.6</ele>
        <time>2020-06-03T12:45:07.000Z</time>
      </trkpt>
      <trkpt lat="42.97864" lon="2.93669">
        <ele>132.6</ele>
        <time>2020-06-03T12:45:14.000Z</time>
      </trkpt>
      <trkpt lat="42.97869" lon="2.93664">
        <ele>133</ele>
        <time>2020-06-03T12:45:16.000Z</time>
      </trkpt>
      <trkpt lat="42.97871" lon="2.93662">
        <ele>133.4</ele>
        <time>2020-06-03T12:45:17.000Z</time>
      </trkpt>
      <trkpt lat="42.97874" lon="2.93659">
        <ele>133.8</ele>
        <time>2020-06-03T12:45:18.000Z</time>
      </trkpt>
      <trkpt lat="42.97875" lon="2.93656">
        <ele>134.2</ele>
        <time>2020-06-03T12:45:19.000Z</time>
      </trkpt>
      <trkpt lat="42.97877" lon="2.93653">
        <ele>134.6</ele>
        <time>2020-06-03T12:45:20.000Z</time>
      </trkpt>
      <trkpt lat="42.97878" lon="2.93649">
        <ele>134.6</ele>
        <time>2020-06-03T12:45:21.000Z</time>
      </trkpt>
      <trkpt lat="42.97879" lon="2.93646">
        <ele>134.6</ele>
        <time>2020-06-03T12:45:22.000Z</time>
      </trkpt>
      <trkpt lat="42.97879" lon="2.93636">
        <ele>135.2</ele>
        <time>2020-06-03T12:45:25.000Z</time>
      </trkpt>
      <trkpt lat="42.97879" lon="2.93633">
        <ele>135.6</ele>
        <time>2020-06-03T12:45:26.000Z</time>
      </trkpt>
      <trkpt lat="42.9788" lon="2.9363">
        <ele>136</ele>
        <time>2020-06-03T12:45:27.000Z</time>
      </trkpt>
      <trkpt lat="42.97881" lon="2.93627">
        <ele>136.4</ele>
        <time>2020-06-03T12:45:28.000Z</time>
      </trkpt>
      <trkpt lat="42.97882" lon="2.93624">
        <ele>136.8</ele>
        <time>2020-06-03T12:45:29.000Z</time>
      </trkpt>
      <trkpt lat="42.97882" lon="2.9362">
        <ele>137.2</ele>
        <time>2020-06-03T12:45:30.000Z</time>
      </trkpt>
      <trkpt lat="42.97883" lon="2.93617">
        <ele>137.6</ele>
        <time>2020-06-03T12:45:31.000Z</time>
      </trkpt>
      <trkpt lat="42.97884" lon="2.93613">
        <ele>138</ele>
        <time>2020-06-03T12:45:32.000Z</time>
      </trkpt>
      <trkpt lat="42.97884" lon="2.9361">
        <ele>138.4</ele>
        <time>2020-06-03T12:45:33.000Z</time>
      </trkpt>
      <trkpt lat="42.97886" lon="2.93607">
        <ele>138.8</ele>
        <time>2020-06-03T12:45:34.000Z</time>
      </trkpt>
      <trkpt lat="42.97888" lon="2.93604">
        <ele>138.8</ele>
        <time>2020-06-03T12:45:35.000Z</time>
      </trkpt>
      <trkpt lat="42.97891" lon="2.93601">
        <ele>138.8</ele>
        <time>2020-06-03T12:45:36.000Z</time>
      </trkpt>
      <trkpt lat="42.97904" lon="2.93585">
        <ele>138.8</ele>
        <time>2020-06-03T12:45:40.000Z</time>
      </trkpt>
      <trkpt lat="42.97913" lon="2.93566">
        <ele>138.8</ele>
        <time>2020-06-03T12:45:44.000Z</time>
      </trkpt>
      <trkpt lat="42.97918" lon="2.93547">
        <ele>139.4</ele>
        <time>2020-06-03T12:45:49.000Z</time>
      </trkpt>
      <trkpt lat="42.97919" lon="2.93544">
        <ele>139.8</ele>
        <time>2020-06-03T12:45:50.000Z</time>
      </trkpt>
      <trkpt lat="42.97922" lon="2.9354">
        <ele>140.2</ele>
        <time>2020-06-03T12:45:51.000Z</time>
      </trkpt>
      <trkpt lat="42.97924" lon="2.93537">
        <ele>140.6</ele>
        <time>2020-06-03T12:45:52.000Z</time>
      </trkpt>
      <trkpt lat="42.97927" lon="2.93534">
        <ele>141.2</ele>
        <time>2020-06-03T12:45:53.000Z</time>
      </trkpt>
      <trkpt lat="42.97929" lon="2.9353">
        <ele>141.2</ele>
        <time>2020-06-03T12:45:54.000Z</time>
      </trkpt>
      <trkpt lat="42.97929" lon="2.93522">
        <ele>141.2</ele>
        <time>2020-06-03T12:45:56.000Z</time>
      </trkpt>
      <trkpt lat="42.97928" lon="2.93514">
        <ele>141.2</ele>
        <time>2020-06-03T12:45:58.000Z</time>
      </trkpt>
      <trkpt lat="42.97928" lon="2.93511">
        <ele>141.6</ele>
        <time>2020-06-03T12:45:59.000Z</time>
      </trkpt>
      <trkpt lat="42.97928" lon="2.93506">
        <ele>142</ele>
        <time>2020-06-03T12:46:00.000Z</time>
      </trkpt>
      <trkpt lat="42.97928" lon="2.93501">
        <ele>142.6</ele>
        <time>2020-06-03T12:46:01.000Z</time>
      </trkpt>
      <trkpt lat="42.97929" lon="2.93497">
        <ele>143</ele>
        <time>2020-06-03T12:46:02.000Z</time>
      </trkpt>
      <trkpt lat="42.97929" lon="2.93492">
        <ele>143.6</ele>
        <time>2020-06-03T12:46:03.000Z</time>
      </trkpt>
      <trkpt lat="42.97931" lon="2.9348">
        <ele>143.6</ele>
        <time>2020-06-03T12:46:05.000Z</time>
      </trkpt>
      <trkpt lat="42.97929" lon="2.93469">
        <ele>143.6</ele>
        <time>2020-06-03T12:46:07.000Z</time>
      </trkpt>
      <trkpt lat="42.97927" lon="2.93465">
        <ele>143.6</ele>
        <time>2020-06-03T12:46:08.000Z</time>
      </trkpt>
      <trkpt lat="42.97916" lon="2.93451">
        <ele>143.6</ele>
        <time>2020-06-03T12:46:12.000Z</time>
      </trkpt>
      <trkpt lat="42.97913" lon="2.93448">
        <ele>143.6</ele>
        <time>2020-06-03T12:46:13.000Z</time>
      </trkpt>
      <trkpt lat="42.97911" lon="2.93445">
        <ele>144</ele>
        <time>2020-06-03T12:46:14.000Z</time>
      </trkpt>
      <trkpt lat="42.97908" lon="2.93443">
        <ele>144.4</ele>
        <time>2020-06-03T12:46:15.000Z</time>
      </trkpt>
      <trkpt lat="42.97905" lon="2.9344">
        <ele>144.8</ele>
        <time>2020-06-03T12:46:16.000Z</time>
      </trkpt>
      <trkpt lat="42.97903" lon="2.93437">
        <ele>145.2</ele>
        <time>2020-06-03T12:46:17.000Z</time>
      </trkpt>
      <trkpt lat="42.97901" lon="2.93434">
        <ele>145.6</ele>
        <time>2020-06-03T12:46:18.000Z</time>
      </trkpt>
      <trkpt lat="42.97898" lon="2.93431">
        <ele>145.6</ele>
        <time>2020-06-03T12:46:19.000Z</time>
      </trkpt>
      <trkpt lat="42.97897" lon="2.93428">
        <ele>146</ele>
        <time>2020-06-03T12:46:20.000Z</time>
      </trkpt>
      <trkpt lat="42.97895" lon="2.93425">
        <ele>146.4</ele>
        <time>2020-06-03T12:46:21.000Z</time>
      </trkpt>
      <trkpt lat="42.97892" lon="2.93423">
        <ele>146.8</ele>
        <time>2020-06-03T12:46:22.000Z</time>
      </trkpt>
      <trkpt lat="42.9789" lon="2.9342">
        <ele>147.2</ele>
        <time>2020-06-03T12:46:23.000Z</time>
      </trkpt>
      <trkpt lat="42.97887" lon="2.93416">
        <ele>147.6</ele>
        <time>2020-06-03T12:46:24.000Z</time>
      </trkpt>
      <trkpt lat="42.97885" lon="2.93413">
        <ele>147.6</ele>
        <time>2020-06-03T12:46:25.000Z</time>
      </trkpt>
      <trkpt lat="42.97874" lon="2.93399">
        <ele>148</ele>
        <time>2020-06-03T12:46:29.000Z</time>
      </trkpt>
      <trkpt lat="42.97872" lon="2.93396">
        <ele>148.4</ele>
        <time>2020-06-03T12:46:30.000Z</time>
      </trkpt>
      <trkpt lat="42.97869" lon="2.93392">
        <ele>148.8</ele>
        <time>2020-06-03T12:46:31.000Z</time>
      </trkpt>
      <trkpt lat="42.97865" lon="2.93389">
        <ele>149.4</ele>
        <time>2020-06-03T12:46:32.000Z</time>
      </trkpt>
      <trkpt lat="42.97861" lon="2.93386">
        <ele>149.8</ele>
        <time>2020-06-03T12:46:33.000Z</time>
      </trkpt>
      <trkpt lat="42.9785" lon="2.93381">
        <ele>149.8</ele>
        <time>2020-06-03T12:46:36.000Z</time>
      </trkpt>
      <trkpt lat="42.97845" lon="2.9338">
        <ele>149.8</ele>
        <time>2020-06-03T12:46:37.000Z</time>
      </trkpt>
      <trkpt lat="42.97834" lon="2.93379">
        <ele>149.8</ele>
        <time>2020-06-03T12:46:39.000Z</time>
      </trkpt>
      <trkpt lat="42.97828" lon="2.9338">
        <ele>149.8</ele>
        <time>2020-06-03T12:46:40.000Z</time>
      </trkpt>
      <trkpt lat="42.97809" lon="2.93377">
        <ele>149.8</ele>
        <time>2020-06-03T12:46:44.000Z</time>
      </trkpt>
      <trkpt lat="42.97798" lon="2.9337">
        <ele>149.8</ele>
        <time>2020-06-03T12:46:47.000Z</time>
      </trkpt>
      <trkpt lat="42.97795" lon="2.9336">
        <ele>149.8</ele>
        <time>2020-06-03T12:46:49.000Z</time>
      </trkpt>
      <trkpt lat="42.97797" lon="2.93347">
        <ele>149.8</ele>
        <time>2020-06-03T12:46:52.000Z</time>
      </trkpt>
      <trkpt lat="42.97793" lon="2.93343">
        <ele>150.2</ele>
        <time>2020-06-03T12:46:54.000Z</time>
      </trkpt>
      <trkpt lat="42.97791" lon="2.93342">
        <ele>150.6</ele>
        <time>2020-06-03T12:46:55.000Z</time>
      </trkpt>
      <trkpt lat="42.97788" lon="2.93341">
        <ele>151</ele>
        <time>2020-06-03T12:46:56.000Z</time>
      </trkpt>
      <trkpt lat="42.97784" lon="2.93339">
        <ele>151.4</ele>
        <time>2020-06-03T12:46:57.000Z</time>
      </trkpt>
      <trkpt lat="42.9778" lon="2.93338">
        <ele>151.8</ele>
        <time>2020-06-03T12:46:58.000Z</time>
      </trkpt>
      <trkpt lat="42.97777" lon="2.93334">
        <ele>151.8</ele>
        <time>2020-06-03T12:46:59.000Z</time>
      </trkpt>
      <trkpt lat="42.97775" lon="2.93329">
        <ele>151.8</ele>
        <time>2020-06-03T12:47:00.000Z</time>
      </trkpt>
      <trkpt lat="42.97774" lon="2.93324">
        <ele>152.2</ele>
        <time>2020-06-03T12:47:01.000Z</time>
      </trkpt>
      <trkpt lat="42.97773" lon="2.93319">
        <ele>152.6</ele>
        <time>2020-06-03T12:47:02.000Z</time>
      </trkpt>
      <trkpt lat="42.97774" lon="2.93314">
        <ele>153</ele>
        <time>2020-06-03T12:47:03.000Z</time>
      </trkpt>
      <trkpt lat="42.97776" lon="2.93309">
        <ele>153.4</ele>
        <time>2020-06-03T12:47:04.000Z</time>
      </trkpt>
      <trkpt lat="42.97777" lon="2.93305">
        <ele>154</ele>
        <time>2020-06-03T12:47:05.000Z</time>
      </trkpt>
      <trkpt lat="42.97778" lon="2.93292">
        <ele>154.8</ele>
        <time>2020-06-03T12:47:08.000Z</time>
      </trkpt>
      <trkpt lat="42.97778" lon="2.93287">
        <ele>155.2</ele>
        <time>2020-06-03T12:47:09.000Z</time>
      </trkpt>
      <trkpt lat="42.97778" lon="2.93283">
        <ele>155.6</ele>
        <time>2020-06-03T12:47:10.000Z</time>
      </trkpt>
      <trkpt lat="42.97777" lon="2.93279">
        <ele>156</ele>
        <time>2020-06-03T12:47:11.000Z</time>
      </trkpt>
      <trkpt lat="42.97775" lon="2.93266">
        <ele>156.6</ele>
        <time>2020-06-03T12:47:14.000Z</time>
      </trkpt>
      <trkpt lat="42.97775" lon="2.93261">
        <ele>157</ele>
        <time>2020-06-03T12:47:15.000Z</time>
      </trkpt>
      <trkpt lat="42.97776" lon="2.93257">
        <ele>157.4</ele>
        <time>2020-06-03T12:47:16.000Z</time>
      </trkpt>
      <trkpt lat="42.97776" lon="2.93251">
        <ele>158</ele>
        <time>2020-06-03T12:47:17.000Z</time>
      </trkpt>
      <trkpt lat="42.97777" lon="2.93247">
        <ele>158.4</ele>
        <time>2020-06-03T12:47:18.000Z</time>
      </trkpt>
      <trkpt lat="42.97778" lon="2.93241">
        <ele>158.4</ele>
        <time>2020-06-03T12:47:19.000Z</time>
      </trkpt>
      <trkpt lat="42.97778" lon="2.93236">
        <ele>158.8</ele>
        <time>2020-06-03T12:47:20.000Z</time>
      </trkpt>
      <trkpt lat="42.97779" lon="2.93231">
        <ele>159.2</ele>
        <time>2020-06-03T12:47:21.000Z</time>
      </trkpt>
      <trkpt lat="42.97781" lon="2.93226">
        <ele>159.6</ele>
        <time>2020-06-03T12:47:22.000Z</time>
      </trkpt>
      <trkpt lat="42.97782" lon="2.9322">
        <ele>160</ele>
        <time>2020-06-03T12:47:23.000Z</time>
      </trkpt>
      <trkpt lat="42.97784" lon="2.93215">
        <ele>160.6</ele>
        <time>2020-06-03T12:47:24.000Z</time>
      </trkpt>
      <trkpt lat="42.97786" lon="2.93209">
        <ele>160.6</ele>
        <time>2020-06-03T12:47:25.000Z</time>
      </trkpt>
      <trkpt lat="42.97796" lon="2.93197">
        <ele>160.6</ele>
        <time>2020-06-03T12:47:28.000Z</time>
      </trkpt>
      <trkpt lat="42.97804" lon="2.93186">
        <ele>160.6</ele>
        <time>2020-06-03T12:47:30.000Z</time>
      </trkpt>
      <trkpt lat="42.97813" lon="2.93176">
        <ele>160.6</ele>
        <time>2020-06-03T12:47:33.000Z</time>
      </trkpt>
      <trkpt lat="42.97815" lon="2.93174">
        <ele>161</ele>
        <time>2020-06-03T12:47:34.000Z</time>
      </trkpt>
      <trkpt lat="42.97818" lon="2.93172">
        <ele>161.4</ele>
        <time>2020-06-03T12:47:35.000Z</time>
      </trkpt>
      <trkpt lat="42.9782" lon="2.9317">
        <ele>161.8</ele>
        <time>2020-06-03T12:47:36.000Z</time>
      </trkpt>
      <trkpt lat="42.97821" lon="2.93166">
        <ele>162.2</ele>
        <time>2020-06-03T12:47:37.000Z</time>
      </trkpt>
      <trkpt lat="42.97824" lon="2.93164">
        <ele>162.6</ele>
        <time>2020-06-03T12:47:38.000Z</time>
      </trkpt>
      <trkpt lat="42.97827" lon="2.93163">
        <ele>162.6</ele>
        <time>2020-06-03T12:47:39.000Z</time>
      </trkpt>
      <trkpt lat="42.9783" lon="2.93164">
        <ele>162.6</ele>
        <time>2020-06-03T12:47:40.000Z</time>
      </trkpt>
      <trkpt lat="42.97836" lon="2.93162">
        <ele>163</ele>
        <time>2020-06-03T12:47:42.000Z</time>
      </trkpt>
      <trkpt lat="42.97839" lon="2.9316">
        <ele>163.6</ele>
        <time>2020-06-03T12:47:43.000Z</time>
      </trkpt>
      <trkpt lat="42.97842" lon="2.93157">
        <ele>164</ele>
        <time>2020-06-03T12:47:44.000Z</time>
      </trkpt>
      <trkpt lat="42.97845" lon="2.93155">
        <ele>164.4</ele>
        <time>2020-06-03T12:47:45.000Z</time>
      </trkpt>
      <trkpt lat="42.97848" lon="2.93152">
        <ele>164.8</ele>
        <time>2020-06-03T12:47:46.000Z</time>
      </trkpt>
      <trkpt lat="42.9785" lon="2.93148">
        <ele>164.8</ele>
        <time>2020-06-03T12:47:47.000Z</time>
      </trkpt>
      <trkpt lat="42.97854" lon="2.93139">
        <ele>165.2</ele>
        <time>2020-06-03T12:47:49.000Z</time>
      </trkpt>
      <trkpt lat="42.97858" lon="2.93136">
        <ele>165.8</ele>
        <time>2020-06-03T12:47:50.000Z</time>
      </trkpt>
      <trkpt lat="42.9786" lon="2.93132">
        <ele>166.2</ele>
        <time>2020-06-03T12:47:51.000Z</time>
      </trkpt>
      <trkpt lat="42.97863" lon="2.93128">
        <ele>166.6</ele>
        <time>2020-06-03T12:47:52.000Z</time>
      </trkpt>
      <trkpt lat="42.97865" lon="2.93124">
        <ele>167</ele>
        <time>2020-06-03T12:47:53.000Z</time>
      </trkpt>
      <trkpt lat="42.9787" lon="2.93112">
        <ele>167.4</ele>
        <time>2020-06-03T12:47:56.000Z</time>
      </trkpt>
      <trkpt lat="42.97872" lon="2.93109">
        <ele>168.2</ele>
        <time>2020-06-03T12:47:57.000Z</time>
      </trkpt>
      <trkpt lat="42.97875" lon="2.93107">
        <ele>168.8</ele>
        <time>2020-06-03T12:47:58.000Z</time>
      </trkpt>
      <trkpt lat="42.97877" lon="2.93104">
        <ele>169.2</ele>
        <time>2020-06-03T12:47:59.000Z</time>
      </trkpt>
      <trkpt lat="42.97881" lon="2.93099">
        <ele>169.6</ele>
        <time>2020-06-03T12:48:01.000Z</time>
      </trkpt>
      <trkpt lat="42.97883" lon="2.93096">
        <ele>170</ele>
        <time>2020-06-03T12:48:02.000Z</time>
      </trkpt>
      <trkpt lat="42.97884" lon="2.93092">
        <ele>170.4</ele>
        <time>2020-06-03T12:48:03.000Z</time>
      </trkpt>
      <trkpt lat="42.97884" lon="2.93088">
        <ele>171</ele>
        <time>2020-06-03T12:48:04.000Z</time>
      </trkpt>
      <trkpt lat="42.97884" lon="2.93085">
        <ele>171.4</ele>
        <time>2020-06-03T12:48:05.000Z</time>
      </trkpt>
      <trkpt lat="42.97882" lon="2.93082">
        <ele>171.8</ele>
        <time>2020-06-03T12:48:06.000Z</time>
      </trkpt>
      <trkpt lat="42.9788" lon="2.9308">
        <ele>172.2</ele>
        <time>2020-06-03T12:48:07.000Z</time>
      </trkpt>
      <trkpt lat="42.97877" lon="2.9308">
        <ele>172.6</ele>
        <time>2020-06-03T12:48:08.000Z</time>
      </trkpt>
      <trkpt lat="42.97874" lon="2.93079">
        <ele>173</ele>
        <time>2020-06-03T12:48:09.000Z</time>
      </trkpt>
      <trkpt lat="42.9787" lon="2.93078">
        <ele>173.4</ele>
        <time>2020-06-03T12:48:10.000Z</time>
      </trkpt>
      <trkpt lat="42.97867" lon="2.93076">
        <ele>173.4</ele>
        <time>2020-06-03T12:48:11.000Z</time>
      </trkpt>
      <trkpt lat="42.97859" lon="2.9307">
        <ele>173.4</ele>
        <time>2020-06-03T12:48:14.000Z</time>
      </trkpt>
      <trkpt lat="42.97857" lon="2.93066">
        <ele>173.4</ele>
        <time>2020-06-03T12:48:15.000Z</time>
      </trkpt>
      <trkpt lat="42.97855" lon="2.93053">
        <ele>173.4</ele>
        <time>2020-06-03T12:48:18.000Z</time>
      </trkpt>
      <trkpt lat="42.97856" lon="2.93052">
        <ele>173.4</ele>
        <time>2020-06-03T12:48:19.000Z</time>
      </trkpt>
      <trkpt lat="42.97856" lon="2.93052">
        <ele>173.4</ele>
        <time>2020-06-03T12:48:20.000Z</time>
      </trkpt>
      <trkpt lat="42.97855" lon="2.93046">
        <ele>173.4</ele>
        <time>2020-06-03T12:49:04.000Z</time>
      </trkpt>
      <trkpt lat="42.97853" lon="2.9304">
        <ele>173.4</ele>
        <time>2020-06-03T12:49:06.000Z</time>
      </trkpt>
      <trkpt lat="42.97852" lon="2.93026">
        <ele>173.4</ele>
        <time>2020-06-03T12:49:09.000Z</time>
      </trkpt>
      <trkpt lat="42.97851" lon="2.93015">
        <ele>173.4</ele>
        <time>2020-06-03T12:49:13.000Z</time>
      </trkpt>
      <trkpt lat="42.97851" lon="2.93015">
        <ele>173</ele>
        <time>2020-06-03T12:49:15.000Z</time>
      </trkpt>
      <trkpt lat="42.97858" lon="2.93008">
        <ele>171.4</ele>
        <time>2020-06-03T12:49:39.000Z</time>
      </trkpt>
      <trkpt lat="42.97859" lon="2.93005">
        <ele>171.4</ele>
        <time>2020-06-03T12:49:40.000Z</time>
      </trkpt>
      <trkpt lat="42.97866" lon="2.92987">
        <ele>171.4</ele>
        <time>2020-06-03T12:49:46.000Z</time>
      </trkpt>
      <trkpt lat="42.97879" lon="2.92965">
        <ele>171.4</ele>
        <time>2020-06-03T12:49:53.000Z</time>
      </trkpt>
      <trkpt lat="42.97884" lon="2.92961">
        <ele>171.4</ele>
        <time>2020-06-03T12:49:57.000Z</time>
      </trkpt>
      <trkpt lat="42.97884" lon="2.92961">
        <ele>171.4</ele>
        <time>2020-06-03T12:49:58.000Z</time>
      </trkpt>
      <trkpt lat="42.97882" lon="2.92963">
        <ele>172.2</ele>
        <time>2020-06-03T12:50:00.000Z</time>
      </trkpt>
      <trkpt lat="42.97881" lon="2.92965">
        <ele>173</ele>
        <time>2020-06-03T12:50:01.000Z</time>
      </trkpt>
      <trkpt lat="42.9788" lon="2.92968">
        <ele>173.4</ele>
        <time>2020-06-03T12:50:02.000Z</time>
      </trkpt>
      <trkpt lat="42.9787" lon="2.92981">
        <ele>173.4</ele>
        <time>2020-06-03T12:50:06.000Z</time>
      </trkpt>
      <trkpt lat="42.97867" lon="2.92985">
        <ele>173.4</ele>
        <time>2020-06-03T12:50:07.000Z</time>
      </trkpt>
      <trkpt lat="42.97864" lon="2.92989">
        <ele>173</ele>
        <time>2020-06-03T12:50:08.000Z</time>
      </trkpt>
      <trkpt lat="42.97862" lon="2.92993">
        <ele>172.6</ele>
        <time>2020-06-03T12:50:09.000Z</time>
      </trkpt>
      <trkpt lat="42.9786" lon="2.92998">
        <ele>172.2</ele>
        <time>2020-06-03T12:50:10.000Z</time>
      </trkpt>
      <trkpt lat="42.9786" lon="2.93002">
        <ele>171.8</ele>
        <time>2020-06-03T12:50:11.000Z</time>
      </trkpt>
      <trkpt lat="42.9786" lon="2.93006">
        <ele>171.4</ele>
        <time>2020-06-03T12:50:12.000Z</time>
      </trkpt>
      <trkpt lat="42.97864" lon="2.93015">
        <ele>171.4</ele>
        <time>2020-06-03T12:50:15.000Z</time>
      </trkpt>
      <trkpt lat="42.97866" lon="2.93016">
        <ele>171</ele>
        <time>2020-06-03T12:50:16.000Z</time>
      </trkpt>
      <trkpt lat="42.97867" lon="2.93017">
        <ele>170.6</ele>
        <time>2020-06-03T12:50:17.000Z</time>
      </trkpt>
      <trkpt lat="42.97869" lon="2.93018">
        <ele>170.2</ele>
        <time>2020-06-03T12:50:18.000Z</time>
      </trkpt>
      <trkpt lat="42.9787" lon="2.93019">
        <ele>169.8</ele>
        <time>2020-06-03T12:50:19.000Z</time>
      </trkpt>
      <trkpt lat="42.97872" lon="2.9302">
        <ele>169.4</ele>
        <time>2020-06-03T12:50:20.000Z</time>
      </trkpt>
      <trkpt lat="42.97873" lon="2.93019">
        <ele>169.4</ele>
        <time>2020-06-03T12:50:21.000Z</time>
      </trkpt>
      <trkpt lat="42.97873" lon="2.93019">
        <ele>168.8</ele>
        <time>2020-06-03T12:50:23.000Z</time>
      </trkpt>
      <trkpt lat="42.97875" lon="2.9302">
        <ele>167.2</ele>
        <time>2020-06-03T12:50:30.000Z</time>
      </trkpt>
      <trkpt lat="42.97886" lon="2.93021">
        <ele>167.2</ele>
        <time>2020-06-03T12:50:33.000Z</time>
      </trkpt>
      <trkpt lat="42.9789" lon="2.9302">
        <ele>166.8</ele>
        <time>2020-06-03T12:50:34.000Z</time>
      </trkpt>
      <trkpt lat="42.97894" lon="2.9302">
        <ele>166.4</ele>
        <time>2020-06-03T12:50:35.000Z</time>
      </trkpt>
      <trkpt lat="42.97898" lon="2.9302">
        <ele>166</ele>
        <time>2020-06-03T12:50:36.000Z</time>
      </trkpt>
      <trkpt lat="42.97902" lon="2.9302">
        <ele>165.6</ele>
        <time>2020-06-03T12:50:37.000Z</time>
      </trkpt>
      <trkpt lat="42.97907" lon="2.9302">
        <ele>165</ele>
        <time>2020-06-03T12:50:38.000Z</time>
      </trkpt>
      <trkpt lat="42.97911" lon="2.9302">
        <ele>164.4</ele>
        <time>2020-06-03T12:50:39.000Z</time>
      </trkpt>
      <trkpt lat="42.97914" lon="2.93021">
        <ele>163.8</ele>
        <time>2020-06-03T12:50:40.000Z</time>
      </trkpt>
      <trkpt lat="42.97918" lon="2.93021">
        <ele>163.2</ele>
        <time>2020-06-03T12:50:41.000Z</time>
      </trkpt>
      <trkpt lat="42.97923" lon="2.93022">
        <ele>162.6</ele>
        <time>2020-06-03T12:50:42.000Z</time>
      </trkpt>
      <trkpt lat="42.97928" lon="2.93023">
        <ele>162</ele>
        <time>2020-06-03T12:50:43.000Z</time>
      </trkpt>
      <trkpt lat="42.97932" lon="2.93025">
        <ele>161.4</ele>
        <time>2020-06-03T12:50:44.000Z</time>
      </trkpt>
      <trkpt lat="42.97937" lon="2.93026">
        <ele>160.8</ele>
        <time>2020-06-03T12:50:45.000Z</time>
      </trkpt>
      <trkpt lat="42.97941" lon="2.93027">
        <ele>160.2</ele>
        <time>2020-06-03T12:50:46.000Z</time>
      </trkpt>
      <trkpt lat="42.97951" lon="2.93031">
        <ele>159.8</ele>
        <time>2020-06-03T12:50:48.000Z</time>
      </trkpt>
      <trkpt lat="42.97957" lon="2.93034">
        <ele>159.2</ele>
        <time>2020-06-03T12:50:49.000Z</time>
      </trkpt>
      <trkpt lat="42.97961" lon="2.93038">
        <ele>158.8</ele>
        <time>2020-06-03T12:50:50.000Z</time>
      </trkpt>
      <trkpt lat="42.97966" lon="2.93043">
        <ele>157.4</ele>
        <time>2020-06-03T12:50:51.000Z</time>
      </trkpt>
      <trkpt lat="42.9797" lon="2.93049">
        <ele>156.8</ele>
        <time>2020-06-03T12:50:52.000Z</time>
      </trkpt>
      <trkpt lat="42.97973" lon="2.93055">
        <ele>155.8</ele>
        <time>2020-06-03T12:50:53.000Z</time>
      </trkpt>
      <trkpt lat="42.97976" lon="2.93063">
        <ele>155</ele>
        <time>2020-06-03T12:50:54.000Z</time>
      </trkpt>
      <trkpt lat="42.97978" lon="2.93072">
        <ele>154.2</ele>
        <time>2020-06-03T12:50:55.000Z</time>
      </trkpt>
      <trkpt lat="42.9798" lon="2.9308">
        <ele>153.2</ele>
        <time>2020-06-03T12:50:56.000Z</time>
      </trkpt>
      <trkpt lat="42.97983" lon="2.93089">
        <ele>152.2</ele>
        <time>2020-06-03T12:50:57.000Z</time>
      </trkpt>
      <trkpt lat="42.97986" lon="2.93098">
        <ele>151.2</ele>
        <time>2020-06-03T12:50:58.000Z</time>
      </trkpt>
      <trkpt lat="42.9799" lon="2.93108">
        <ele>150.4</ele>
        <time>2020-06-03T12:50:59.000Z</time>
      </trkpt>
      <trkpt lat="42.97994" lon="2.93117">
        <ele>149.4</ele>
        <time>2020-06-03T12:51:00.000Z</time>
      </trkpt>
      <trkpt lat="42.97998" lon="2.93127">
        <ele>148.4</ele>
        <time>2020-06-03T12:51:01.000Z</time>
      </trkpt>
      <trkpt lat="42.98001" lon="2.93134">
        <ele>147.6</ele>
        <time>2020-06-03T12:51:02.000Z</time>
      </trkpt>
      <trkpt lat="42.98005" lon="2.93141">
        <ele>146.6</ele>
        <time>2020-06-03T12:51:03.000Z</time>
      </trkpt>
      <trkpt lat="42.98008" lon="2.93148">
        <ele>145.8</ele>
        <time>2020-06-03T12:51:04.000Z</time>
      </trkpt>
      <trkpt lat="42.98012" lon="2.93155">
        <ele>145</ele>
        <time>2020-06-03T12:51:05.000Z</time>
      </trkpt>
      <trkpt lat="42.98015" lon="2.93164">
        <ele>144</ele>
        <time>2020-06-03T12:51:06.000Z</time>
      </trkpt>
      <trkpt lat="42.98019" lon="2.93173">
        <ele>143.4</ele>
        <time>2020-06-03T12:51:07.000Z</time>
      </trkpt>
      <trkpt lat="42.98023" lon="2.93182">
        <ele>142.8</ele>
        <time>2020-06-03T12:51:08.000Z</time>
      </trkpt>
      <trkpt lat="42.98026" lon="2.93191">
        <ele>142</ele>
        <time>2020-06-03T12:51:09.000Z</time>
      </trkpt>
      <trkpt lat="42.9803" lon="2.932">
        <ele>141</ele>
        <time>2020-06-03T12:51:10.000Z</time>
      </trkpt>
      <trkpt lat="42.98034" lon="2.93208">
        <ele>140</ele>
        <time>2020-06-03T12:51:11.000Z</time>
      </trkpt>
      <trkpt lat="42.98037" lon="2.93217">
        <ele>139</ele>
        <time>2020-06-03T12:51:12.000Z</time>
      </trkpt>
      <trkpt lat="42.98041" lon="2.93226">
        <ele>138</ele>
        <time>2020-06-03T12:51:13.000Z</time>
      </trkpt>
      <trkpt lat="42.98044" lon="2.93235">
        <ele>137</ele>
        <time>2020-06-03T12:51:14.000Z</time>
      </trkpt>
      <trkpt lat="42.98045" lon="2.93243">
        <ele>136</ele>
        <time>2020-06-03T12:51:15.000Z</time>
      </trkpt>
      <trkpt lat="42.98047" lon="2.9325">
        <ele>134.2</ele>
        <time>2020-06-03T12:51:16.000Z</time>
      </trkpt>
      <trkpt lat="42.98048" lon="2.93259">
        <ele>133.2</ele>
        <time>2020-06-03T12:51:17.000Z</time>
      </trkpt>
      <trkpt lat="42.9805" lon="2.93268">
        <ele>132.2</ele>
        <time>2020-06-03T12:51:18.000Z</time>
      </trkpt>
      <trkpt lat="42.98052" lon="2.93277">
        <ele>131.2</ele>
        <time>2020-06-03T12:51:19.000Z</time>
      </trkpt>
      <trkpt lat="42.98054" lon="2.93287">
        <ele>130</ele>
        <time>2020-06-03T12:51:20.000Z</time>
      </trkpt>
      <trkpt lat="42.98058" lon="2.93297">
        <ele>128.8</ele>
        <time>2020-06-03T12:51:21.000Z</time>
      </trkpt>
      <trkpt lat="42.98061" lon="2.93306">
        <ele>127.6</ele>
        <time>2020-06-03T12:51:22.000Z</time>
      </trkpt>
      <trkpt lat="42.98063" lon="2.93315">
        <ele>126.4</ele>
        <time>2020-06-03T12:51:23.000Z</time>
      </trkpt>
      <trkpt lat="42.98064" lon="2.93323">
        <ele>125.2</ele>
        <time>2020-06-03T12:51:24.000Z</time>
      </trkpt>
      <trkpt lat="42.98066" lon="2.93331">
        <ele>124.2</ele>
        <time>2020-06-03T12:51:25.000Z</time>
      </trkpt>
      <trkpt lat="42.98067" lon="2.93337">
        <ele>123.4</ele>
        <time>2020-06-03T12:51:26.000Z</time>
      </trkpt>
      <trkpt lat="42.98069" lon="2.93342">
        <ele>122.4</ele>
        <time>2020-06-03T12:51:27.000Z</time>
      </trkpt>
      <trkpt lat="42.98072" lon="2.93345">
        <ele>121.6</ele>
        <time>2020-06-03T12:51:28.000Z</time>
      </trkpt>
      <trkpt lat="42.98074" lon="2.93348">
        <ele>120.6</ele>
        <time>2020-06-03T12:51:29.000Z</time>
      </trkpt>
      <trkpt lat="42.98076" lon="2.93351">
        <ele>120.6</ele>
        <time>2020-06-03T12:51:30.000Z</time>
      </trkpt>
      <trkpt lat="42.9808" lon="2.93355">
        <ele>120.2</ele>
        <time>2020-06-03T12:51:32.000Z</time>
      </trkpt>
      <trkpt lat="42.98083" lon="2.93356">
        <ele>119.8</ele>
        <time>2020-06-03T12:51:33.000Z</time>
      </trkpt>
      <trkpt lat="42.98087" lon="2.9336">
        <ele>119.2</ele>
        <time>2020-06-03T12:51:34.000Z</time>
      </trkpt>
      <trkpt lat="42.9809" lon="2.93364">
        <ele>118.8</ele>
        <time>2020-06-03T12:51:35.000Z</time>
      </trkpt>
      <trkpt lat="42.98094" lon="2.9337">
        <ele>118.4</ele>
        <time>2020-06-03T12:51:36.000Z</time>
      </trkpt>
      <trkpt lat="42.98098" lon="2.93375">
        <ele>118</ele>
        <time>2020-06-03T12:51:37.000Z</time>
      </trkpt>
      <trkpt lat="42.98102" lon="2.9338">
        <ele>117.4</ele>
        <time>2020-06-03T12:51:38.000Z</time>
      </trkpt>
      <trkpt lat="42.98105" lon="2.93386">
        <ele>117</ele>
        <time>2020-06-03T12:51:39.000Z</time>
      </trkpt>
      <trkpt lat="42.98109" lon="2.93392">
        <ele>116.4</ele>
        <time>2020-06-03T12:51:40.000Z</time>
      </trkpt>
      <trkpt lat="42.98112" lon="2.93397">
        <ele>115.2</ele>
        <time>2020-06-03T12:51:41.000Z</time>
      </trkpt>
      <trkpt lat="42.98114" lon="2.93402">
        <ele>114.4</ele>
        <time>2020-06-03T12:51:42.000Z</time>
      </trkpt>
      <trkpt lat="42.98117" lon="2.93405">
        <ele>114</ele>
        <time>2020-06-03T12:51:43.000Z</time>
      </trkpt>
      <trkpt lat="42.9812" lon="2.93405">
        <ele>113.4</ele>
        <time>2020-06-03T12:51:44.000Z</time>
      </trkpt>
      <trkpt lat="42.98123" lon="2.93404">
        <ele>112.8</ele>
        <time>2020-06-03T12:51:45.000Z</time>
      </trkpt>
      <trkpt lat="42.98125" lon="2.93402">
        <ele>112.4</ele>
        <time>2020-06-03T12:51:46.000Z</time>
      </trkpt>
      <trkpt lat="42.98128" lon="2.93401">
        <ele>111.8</ele>
        <time>2020-06-03T12:51:47.000Z</time>
      </trkpt>
      <trkpt lat="42.98131" lon="2.93401">
        <ele>111.8</ele>
        <time>2020-06-03T12:51:48.000Z</time>
      </trkpt>
      <trkpt lat="42.98134" lon="2.93401">
        <ele>111.8</ele>
        <time>2020-06-03T12:51:49.000Z</time>
      </trkpt>
      <trkpt lat="42.98144" lon="2.93392">
        <ele>111.8</ele>
        <time>2020-06-03T12:51:53.000Z</time>
      </trkpt>
      <trkpt lat="42.9815" lon="2.93382">
        <ele>111.8</ele>
        <time>2020-06-03T12:51:57.000Z</time>
      </trkpt>
      <trkpt lat="42.98163" lon="2.93375">
        <ele>111.8</ele>
        <time>2020-06-03T12:52:02.000Z</time>
      </trkpt>
      <trkpt lat="42.98173" lon="2.9337">
        <ele>112.2</ele>
        <time>2020-06-03T12:52:06.000Z</time>
      </trkpt>
      <trkpt lat="42.98175" lon="2.93368">
        <ele>112.6</ele>
        <time>2020-06-03T12:52:07.000Z</time>
      </trkpt>
      <trkpt lat="42.98178" lon="2.93367">
        <ele>113</ele>
        <time>2020-06-03T12:52:08.000Z</time>
      </trkpt>
      <trkpt lat="42.9818" lon="2.93366">
        <ele>113.4</ele>
        <time>2020-06-03T12:52:09.000Z</time>
      </trkpt>
      <trkpt lat="42.98182" lon="2.93365">
        <ele>114</ele>
        <time>2020-06-03T12:52:10.000Z</time>
      </trkpt>
      <trkpt lat="42.98188" lon="2.93362">
        <ele>114.4</ele>
        <time>2020-06-03T12:52:13.000Z</time>
      </trkpt>
      <trkpt lat="42.9819" lon="2.93361">
        <ele>114.8</ele>
        <time>2020-06-03T12:52:14.000Z</time>
      </trkpt>
      <trkpt lat="42.98193" lon="2.9336">
        <ele>115.4</ele>
        <time>2020-06-03T12:52:15.000Z</time>
      </trkpt>
      <trkpt lat="42.98195" lon="2.93358">
        <ele>115.8</ele>
        <time>2020-06-03T12:52:16.000Z</time>
      </trkpt>
      <trkpt lat="42.98197" lon="2.93356">
        <ele>116.4</ele>
        <time>2020-06-03T12:52:17.000Z</time>
      </trkpt>
      <trkpt lat="42.98209" lon="2.93347">
        <ele>116.4</ele>
        <time>2020-06-03T12:52:22.000Z</time>
      </trkpt>
      <trkpt lat="42.98223" lon="2.93331">
        <ele>116.4</ele>
        <time>2020-06-03T12:52:28.000Z</time>
      </trkpt>
      <trkpt lat="42.98224" lon="2.93327">
        <ele>116.4</ele>
        <time>2020-06-03T12:52:29.000Z</time>
      </trkpt>
      <trkpt lat="42.98226" lon="2.93316">
        <ele>116.4</ele>
        <time>2020-06-03T12:52:32.000Z</time>
      </trkpt>
      <trkpt lat="42.9823" lon="2.93309">
        <ele>116.4</ele>
        <time>2020-06-03T12:52:35.000Z</time>
      </trkpt>
      <trkpt lat="42.98233" lon="2.93308">
        <ele>116.4</ele>
        <time>2020-06-03T12:52:36.000Z</time>
      </trkpt>
      <trkpt lat="42.98238" lon="2.93307">
        <ele>116.8</ele>
        <time>2020-06-03T12:52:39.000Z</time>
      </trkpt>
      <trkpt lat="42.98239" lon="2.93306">
        <ele>117.2</ele>
        <time>2020-06-03T12:52:40.000Z</time>
      </trkpt>
      <trkpt lat="42.9824" lon="2.93304">
        <ele>117.6</ele>
        <time>2020-06-03T12:52:41.000Z</time>
      </trkpt>
      <trkpt lat="42.98241" lon="2.93302">
        <ele>118</ele>
        <time>2020-06-03T12:52:42.000Z</time>
      </trkpt>
      <trkpt lat="42.98241" lon="2.933">
        <ele>118.6</ele>
        <time>2020-06-03T12:52:43.000Z</time>
      </trkpt>
      <trkpt lat="42.98241" lon="2.93297">
        <ele>118.6</ele>
        <time>2020-06-03T12:52:44.000Z</time>
      </trkpt>
      <trkpt lat="42.98239" lon="2.93291">
        <ele>119</ele>
        <time>2020-06-03T12:52:47.000Z</time>
      </trkpt>
      <trkpt lat="42.98239" lon="2.9329">
        <ele>119.4</ele>
        <time>2020-06-03T12:52:48.000Z</time>
      </trkpt>
      <trkpt lat="42.9824" lon="2.9329">
        <ele>119.8</ele>
        <time>2020-06-03T12:52:49.000Z</time>
      </trkpt>
      <trkpt lat="42.98241" lon="2.9329">
        <ele>120.2</ele>
        <time>2020-06-03T12:52:50.000Z</time>
      </trkpt>
      <trkpt lat="42.98242" lon="2.93291">
        <ele>120.6</ele>
        <time>2020-06-03T12:52:51.000Z</time>
      </trkpt>
      <trkpt lat="42.98247" lon="2.933">
        <ele>120.6</ele>
        <time>2020-06-03T12:52:55.000Z</time>
      </trkpt>
      <trkpt lat="42.98248" lon="2.933">
        <ele>120.6</ele>
        <time>2020-06-03T12:52:56.000Z</time>
      </trkpt>
      <trkpt lat="42.98253" lon="2.93306">
        <ele>120.6</ele>
        <time>2020-06-03T12:52:59.000Z</time>
      </trkpt>
      <trkpt lat="42.98259" lon="2.93317">
        <ele>120.6</ele>
        <time>2020-06-03T12:53:02.000Z</time>
      </trkpt>
      <trkpt lat="42.98271" lon="2.93323">
        <ele>120.6</ele>
        <time>2020-06-03T12:53:07.000Z</time>
      </trkpt>
      <trkpt lat="42.98275" lon="2.93325">
        <ele>120.6</ele>
        <time>2020-06-03T12:53:08.000Z</time>
      </trkpt>
      <trkpt lat="42.98293" lon="2.93337">
        <ele>120.6</ele>
        <time>2020-06-03T12:53:13.000Z</time>
      </trkpt>
      <trkpt lat="42.98309" lon="2.93349">
        <ele>120.6</ele>
        <time>2020-06-03T12:53:18.000Z</time>
      </trkpt>
      <trkpt lat="42.98323" lon="2.93356">
        <ele>120.6</ele>
        <time>2020-06-03T12:53:22.000Z</time>
      </trkpt>
      <trkpt lat="42.9834" lon="2.93363">
        <ele>120.6</ele>
        <time>2020-06-03T12:53:27.000Z</time>
      </trkpt>
      <trkpt lat="42.98344" lon="2.93356">
        <ele>120.6</ele>
        <time>2020-06-03T12:53:30.000Z</time>
      </trkpt>
      <trkpt lat="42.98345" lon="2.93354">
        <ele>120.6</ele>
        <time>2020-06-03T12:53:31.000Z</time>
      </trkpt>
      <trkpt lat="42.98348" lon="2.93353">
        <ele>121</ele>
        <time>2020-06-03T12:53:32.000Z</time>
      </trkpt>
      <trkpt lat="42.9835" lon="2.93351">
        <ele>121.4</ele>
        <time>2020-06-03T12:53:33.000Z</time>
      </trkpt>
      <trkpt lat="42.98351" lon="2.93349">
        <ele>122</ele>
        <time>2020-06-03T12:53:34.000Z</time>
      </trkpt>
      <trkpt lat="42.98352" lon="2.93347">
        <ele>122.4</ele>
        <time>2020-06-03T12:53:35.000Z</time>
      </trkpt>
      <trkpt lat="42.98352" lon="2.93345">
        <ele>122.8</ele>
        <time>2020-06-03T12:53:36.000Z</time>
      </trkpt>
      <trkpt lat="42.98353" lon="2.93337">
        <ele>122.8</ele>
        <time>2020-06-03T12:53:39.000Z</time>
      </trkpt>
      <trkpt lat="42.98353" lon="2.93334">
        <ele>123.2</ele>
        <time>2020-06-03T12:53:40.000Z</time>
      </trkpt>
      <trkpt lat="42.98355" lon="2.93331">
        <ele>123.8</ele>
        <time>2020-06-03T12:53:41.000Z</time>
      </trkpt>
      <trkpt lat="42.98355" lon="2.93329">
        <ele>124.2</ele>
        <time>2020-06-03T12:53:42.000Z</time>
      </trkpt>
      <trkpt lat="42.98355" lon="2.93325">
        <ele>125</ele>
        <time>2020-06-03T12:53:43.000Z</time>
      </trkpt>
      <trkpt lat="42.98356" lon="2.93322">
        <ele>125</ele>
        <time>2020-06-03T12:53:44.000Z</time>
      </trkpt>
      <trkpt lat="42.98361" lon="2.93312">
        <ele>125</ele>
        <time>2020-06-03T12:53:47.000Z</time>
      </trkpt>
      <trkpt lat="42.98364" lon="2.93311">
        <ele>125</ele>
        <time>2020-06-03T12:53:48.000Z</time>
      </trkpt>
      <trkpt lat="42.98372" lon="2.93303">
        <ele>125</ele>
        <time>2020-06-03T12:53:53.000Z</time>
      </trkpt>
      <trkpt lat="42.98375" lon="2.93301">
        <ele>124.6</ele>
        <time>2020-06-03T12:53:54.000Z</time>
      </trkpt>
      <trkpt lat="42.98378" lon="2.933">
        <ele>124</ele>
        <time>2020-06-03T12:53:55.000Z</time>
      </trkpt>
      <trkpt lat="42.9838" lon="2.93301">
        <ele>123.4</ele>
        <time>2020-06-03T12:53:56.000Z</time>
      </trkpt>
      <trkpt lat="42.98382" lon="2.93304">
        <ele>122.8</ele>
        <time>2020-06-03T12:53:57.000Z</time>
      </trkpt>
      <trkpt lat="42.98384" lon="2.93308">
        <ele>122.4</ele>
        <time>2020-06-03T12:53:58.000Z</time>
      </trkpt>
      <trkpt lat="42.98387" lon="2.93311">
        <ele>121.8</ele>
        <time>2020-06-03T12:53:59.000Z</time>
      </trkpt>
      <trkpt lat="42.98388" lon="2.93311">
        <ele>121.2</ele>
        <time>2020-06-03T12:54:00.000Z</time>
      </trkpt>
      <trkpt lat="42.9839" lon="2.93312">
        <ele>120.8</ele>
        <time>2020-06-03T12:54:01.000Z</time>
      </trkpt>
      <trkpt lat="42.98392" lon="2.93313">
        <ele>120.2</ele>
        <time>2020-06-03T12:54:02.000Z</time>
      </trkpt>
      <trkpt lat="42.98401" lon="2.93313">
        <ele>120.2</ele>
        <time>2020-06-03T12:54:06.000Z</time>
      </trkpt>
      <trkpt lat="42.98404" lon="2.9331">
        <ele>120.2</ele>
        <time>2020-06-03T12:54:08.000Z</time>
      </trkpt>
      <trkpt lat="42.98411" lon="2.93306">
        <ele>120.6</ele>
        <time>2020-06-03T12:54:11.000Z</time>
      </trkpt>
      <trkpt lat="42.98413" lon="2.93306">
        <ele>121</ele>
        <time>2020-06-03T12:54:12.000Z</time>
      </trkpt>
      <trkpt lat="42.98415" lon="2.93305">
        <ele>121.4</ele>
        <time>2020-06-03T12:54:13.000Z</time>
      </trkpt>
      <trkpt lat="42.98418" lon="2.93305">
        <ele>121.8</ele>
        <time>2020-06-03T12:54:14.000Z</time>
      </trkpt>
      <trkpt lat="42.9842" lon="2.93304">
        <ele>122.4</ele>
        <time>2020-06-03T12:54:15.000Z</time>
      </trkpt>
      <trkpt lat="42.98423" lon="2.93305">
        <ele>122.4</ele>
        <time>2020-06-03T12:54:16.000Z</time>
      </trkpt>
      <trkpt lat="42.98426" lon="2.93306">
        <ele>122.8</ele>
        <time>2020-06-03T12:54:17.000Z</time>
      </trkpt>
      <trkpt lat="42.98428" lon="2.93306">
        <ele>123.2</ele>
        <time>2020-06-03T12:54:18.000Z</time>
      </trkpt>
      <trkpt lat="42.9843" lon="2.93308">
        <ele>123.6</ele>
        <time>2020-06-03T12:54:19.000Z</time>
      </trkpt>
      <trkpt lat="42.98433" lon="2.9331">
        <ele>124.2</ele>
        <time>2020-06-03T12:54:20.000Z</time>
      </trkpt>
      <trkpt lat="42.98435" lon="2.93312">
        <ele>124.6</ele>
        <time>2020-06-03T12:54:21.000Z</time>
      </trkpt>
      <trkpt lat="42.98443" lon="2.93319">
        <ele>124.6</ele>
        <time>2020-06-03T12:54:25.000Z</time>
      </trkpt>
      <trkpt lat="42.98445" lon="2.93319">
        <ele>124.6</ele>
        <time>2020-06-03T12:54:26.000Z</time>
      </trkpt>
      <trkpt lat="42.98446" lon="2.93317">
        <ele>125</ele>
        <time>2020-06-03T12:54:27.000Z</time>
      </trkpt>
      <trkpt lat="42.98447" lon="2.93315">
        <ele>125.4</ele>
        <time>2020-06-03T12:54:28.000Z</time>
      </trkpt>
      <trkpt lat="42.98449" lon="2.93313">
        <ele>125.8</ele>
        <time>2020-06-03T12:54:29.000Z</time>
      </trkpt>
      <trkpt lat="42.9845" lon="2.93313">
        <ele>126.2</ele>
        <time>2020-06-03T12:54:30.000Z</time>
      </trkpt>
      <trkpt lat="42.98452" lon="2.93312">
        <ele>126.8</ele>
        <time>2020-06-03T12:54:31.000Z</time>
      </trkpt>
      <trkpt lat="42.98458" lon="2.93308">
        <ele>127.2</ele>
        <time>2020-06-03T12:54:34.000Z</time>
      </trkpt>
      <trkpt lat="42.9846" lon="2.93306">
        <ele>127.6</ele>
        <time>2020-06-03T12:54:35.000Z</time>
      </trkpt>
      <trkpt lat="42.98463" lon="2.93305">
        <ele>128</ele>
        <time>2020-06-03T12:54:36.000Z</time>
      </trkpt>
      <trkpt lat="42.98466" lon="2.93304">
        <ele>128.4</ele>
        <time>2020-06-03T12:54:37.000Z</time>
      </trkpt>
      <trkpt lat="42.98468" lon="2.93302">
        <ele>128.8</ele>
        <time>2020-06-03T12:54:38.000Z</time>
      </trkpt>
      <trkpt lat="42.9848" lon="2.93295">
        <ele>128.8</ele>
        <time>2020-06-03T12:54:43.000Z</time>
      </trkpt>
      <trkpt lat="42.98482" lon="2.93289">
        <ele>129.2</ele>
        <time>2020-06-03T12:54:46.000Z</time>
      </trkpt>
      <trkpt lat="42.98483" lon="2.93287">
        <ele>129.6</ele>
        <time>2020-06-03T12:54:47.000Z</time>
      </trkpt>
      <trkpt lat="42.98483" lon="2.93284">
        <ele>130</ele>
        <time>2020-06-03T12:54:48.000Z</time>
      </trkpt>
      <trkpt lat="42.98483" lon="2.93281">
        <ele>130.4</ele>
        <time>2020-06-03T12:54:49.000Z</time>
      </trkpt>
      <trkpt lat="42.98484" lon="2.93278">
        <ele>130.8</ele>
        <time>2020-06-03T12:54:50.000Z</time>
      </trkpt>
      <trkpt lat="42.98485" lon="2.93271">
        <ele>131.4</ele>
        <time>2020-06-03T12:54:52.000Z</time>
      </trkpt>
      <trkpt lat="42.98486" lon="2.93268">
        <ele>131.8</ele>
        <time>2020-06-03T12:54:53.000Z</time>
      </trkpt>
      <trkpt lat="42.98486" lon="2.93264">
        <ele>132.2</ele>
        <time>2020-06-03T12:54:54.000Z</time>
      </trkpt>
      <trkpt lat="42.98487" lon="2.93262">
        <ele>132.6</ele>
        <time>2020-06-03T12:54:55.000Z</time>
      </trkpt>
      <trkpt lat="42.98488" lon="2.9326">
        <ele>133.2</ele>
        <time>2020-06-03T12:54:56.000Z</time>
      </trkpt>
      <trkpt lat="42.9849" lon="2.93256">
        <ele>133.2</ele>
        <time>2020-06-03T12:54:58.000Z</time>
      </trkpt>
      <trkpt lat="42.98493" lon="2.93247">
        <ele>133.2</ele>
        <time>2020-06-03T12:55:02.000Z</time>
      </trkpt>
      <trkpt lat="42.98493" lon="2.93244">
        <ele>133.6</ele>
        <time>2020-06-03T12:55:03.000Z</time>
      </trkpt>
      <trkpt lat="42.98494" lon="2.93241">
        <ele>134</ele>
        <time>2020-06-03T12:55:04.000Z</time>
      </trkpt>
      <trkpt lat="42.98494" lon="2.93237">
        <ele>134.4</ele>
        <time>2020-06-03T12:55:05.000Z</time>
      </trkpt>
      <trkpt lat="42.98494" lon="2.93233">
        <ele>134.8</ele>
        <time>2020-06-03T12:55:06.000Z</time>
      </trkpt>
      <trkpt lat="42.98494" lon="2.93229">
        <ele>135.2</ele>
        <time>2020-06-03T12:55:07.000Z</time>
      </trkpt>
      <trkpt lat="42.98495" lon="2.93212">
        <ele>135.6</ele>
        <time>2020-06-03T12:55:12.000Z</time>
      </trkpt>
      <trkpt lat="42.98496" lon="2.93209">
        <ele>136</ele>
        <time>2020-06-03T12:55:13.000Z</time>
      </trkpt>
      <trkpt lat="42.98495" lon="2.93206">
        <ele>136.6</ele>
        <time>2020-06-03T12:55:14.000Z</time>
      </trkpt>
      <trkpt lat="42.98496" lon="2.93202">
        <ele>137</ele>
        <time>2020-06-03T12:55:15.000Z</time>
      </trkpt>
      <trkpt lat="42.98497" lon="2.93199">
        <ele>137.4</ele>
        <time>2020-06-03T12:55:16.000Z</time>
      </trkpt>
      <trkpt lat="42.98497" lon="2.93195">
        <ele>137.4</ele>
        <time>2020-06-03T12:55:17.000Z</time>
      </trkpt>
      <trkpt lat="42.98498" lon="2.93192">
        <ele>137.8</ele>
        <time>2020-06-03T12:55:18.000Z</time>
      </trkpt>
      <trkpt lat="42.98499" lon="2.93188">
        <ele>138.2</ele>
        <time>2020-06-03T12:55:19.000Z</time>
      </trkpt>
      <trkpt lat="42.98499" lon="2.93185">
        <ele>139</ele>
        <time>2020-06-03T12:55:20.000Z</time>
      </trkpt>
      <trkpt lat="42.985" lon="2.93181">
        <ele>139.4</ele>
        <time>2020-06-03T12:55:21.000Z</time>
      </trkpt>
      <trkpt lat="42.98501" lon="2.93177">
        <ele>139.4</ele>
        <time>2020-06-03T12:55:22.000Z</time>
      </trkpt>
      <trkpt lat="42.98501" lon="2.93173">
        <ele>139.4</ele>
        <time>2020-06-03T12:55:23.000Z</time>
      </trkpt>
      <trkpt lat="42.98501" lon="2.93166">
        <ele>139.8</ele>
        <time>2020-06-03T12:55:25.000Z</time>
      </trkpt>
      <trkpt lat="42.98502" lon="2.93164">
        <ele>140.4</ele>
        <time>2020-06-03T12:55:26.000Z</time>
      </trkpt>
      <trkpt lat="42.98503" lon="2.93161">
        <ele>140.8</ele>
        <time>2020-06-03T12:55:27.000Z</time>
      </trkpt>
      <trkpt lat="42.98504" lon="2.9316">
        <ele>141.2</ele>
        <time>2020-06-03T12:55:28.000Z</time>
      </trkpt>
      <trkpt lat="42.98506" lon="2.93157">
        <ele>141.6</ele>
        <time>2020-06-03T12:55:29.000Z</time>
      </trkpt>
      <trkpt lat="42.98506" lon="2.93154">
        <ele>141.6</ele>
        <time>2020-06-03T12:55:31.000Z</time>
      </trkpt>
      <trkpt lat="42.98506" lon="2.9315">
        <ele>141.6</ele>
        <time>2020-06-03T12:55:33.000Z</time>
      </trkpt>
      <trkpt lat="42.98506" lon="2.93142">
        <ele>142</ele>
        <time>2020-06-03T12:55:36.000Z</time>
      </trkpt>
      <trkpt lat="42.98507" lon="2.93139">
        <ele>142.6</ele>
        <time>2020-06-03T12:55:37.000Z</time>
      </trkpt>
      <trkpt lat="42.98508" lon="2.93135">
        <ele>143</ele>
        <time>2020-06-03T12:55:38.000Z</time>
      </trkpt>
      <trkpt lat="42.98509" lon="2.93131">
        <ele>143.4</ele>
        <time>2020-06-03T12:55:39.000Z</time>
      </trkpt>
      <trkpt lat="42.98509" lon="2.93128">
        <ele>143.8</ele>
        <time>2020-06-03T12:55:40.000Z</time>
      </trkpt>
      <trkpt lat="42.98511" lon="2.93105">
        <ele>143.8</ele>
        <time>2020-06-03T12:55:45.000Z</time>
      </trkpt>
      <trkpt lat="42.98512" lon="2.93094">
        <ele>144.2</ele>
        <time>2020-06-03T12:55:48.000Z</time>
      </trkpt>
      <trkpt lat="42.98512" lon="2.93088">
        <ele>144.6</ele>
        <time>2020-06-03T12:55:49.000Z</time>
      </trkpt>
      <trkpt lat="42.98513" lon="2.93083">
        <ele>145</ele>
        <time>2020-06-03T12:55:50.000Z</time>
      </trkpt>
      <trkpt lat="42.98513" lon="2.93077">
        <ele>145.6</ele>
        <time>2020-06-03T12:55:51.000Z</time>
      </trkpt>
      <trkpt lat="42.98513" lon="2.93073">
        <ele>146</ele>
        <time>2020-06-03T12:55:52.000Z</time>
      </trkpt>
      <trkpt lat="42.98514" lon="2.93068">
        <ele>146</ele>
        <time>2020-06-03T12:55:53.000Z</time>
      </trkpt>
      <trkpt lat="42.98515" lon="2.93056">
        <ele>146</ele>
        <time>2020-06-03T12:55:56.000Z</time>
      </trkpt>
      <trkpt lat="42.98513" lon="2.93029">
        <ele>146</ele>
        <time>2020-06-03T12:56:02.000Z</time>
      </trkpt>
      <trkpt lat="42.98512" lon="2.93009">
        <ele>146</ele>
        <time>2020-06-03T12:56:06.000Z</time>
      </trkpt>
      <trkpt lat="42.9851" lon="2.92989">
        <ele>146</ele>
        <time>2020-06-03T12:56:10.000Z</time>
      </trkpt>
      <trkpt lat="42.9851" lon="2.92984">
        <ele>146</ele>
        <time>2020-06-03T12:56:11.000Z</time>
      </trkpt>
      <trkpt lat="42.98513" lon="2.92975">
        <ele>146</ele>
        <time>2020-06-03T12:56:15.000Z</time>
      </trkpt>
      <trkpt lat="42.98519" lon="2.92968">
        <ele>146</ele>
        <time>2020-06-03T12:56:20.000Z</time>
      </trkpt>
      <trkpt lat="42.98527" lon="2.92963">
        <ele>145.6</ele>
        <time>2020-06-03T12:56:23.000Z</time>
      </trkpt>
      <trkpt lat="42.9853" lon="2.9296">
        <ele>145</ele>
        <time>2020-06-03T12:56:24.000Z</time>
      </trkpt>
      <trkpt lat="42.98532" lon="2.92957">
        <ele>144.6</ele>
        <time>2020-06-03T12:56:25.000Z</time>
      </trkpt>
      <trkpt lat="42.98535" lon="2.92955">
        <ele>144.2</ele>
        <time>2020-06-03T12:56:26.000Z</time>
      </trkpt>
      <trkpt lat="42.98537" lon="2.92953">
        <ele>143.8</ele>
        <time>2020-06-03T12:56:27.000Z</time>
      </trkpt>
      <trkpt lat="42.98539" lon="2.9295">
        <ele>143.4</ele>
        <time>2020-06-03T12:56:28.000Z</time>
      </trkpt>
      <trkpt lat="42.98543" lon="2.92948">
        <ele>143</ele>
        <time>2020-06-03T12:56:29.000Z</time>
      </trkpt>
      <trkpt lat="42.98546" lon="2.92946">
        <ele>142.6</ele>
        <time>2020-06-03T12:56:30.000Z</time>
      </trkpt>
      <trkpt lat="42.98548" lon="2.92945">
        <ele>142.2</ele>
        <time>2020-06-03T12:56:31.000Z</time>
      </trkpt>
      <trkpt lat="42.98549" lon="2.92946">
        <ele>141.8</ele>
        <time>2020-06-03T12:56:32.000Z</time>
      </trkpt>
      <trkpt lat="42.98551" lon="2.92946">
        <ele>141.4</ele>
        <time>2020-06-03T12:56:33.000Z</time>
      </trkpt>
      <trkpt lat="42.98554" lon="2.92947">
        <ele>140.8</ele>
        <time>2020-06-03T12:56:34.000Z</time>
      </trkpt>
      <trkpt lat="42.98557" lon="2.92949">
        <ele>139.8</ele>
        <time>2020-06-03T12:56:35.000Z</time>
      </trkpt>
      <trkpt lat="42.9856" lon="2.92952">
        <ele>139.2</ele>
        <time>2020-06-03T12:56:36.000Z</time>
      </trkpt>
      <trkpt lat="42.98563" lon="2.92955">
        <ele>138.6</ele>
        <time>2020-06-03T12:56:37.000Z</time>
      </trkpt>
      <trkpt lat="42.98565" lon="2.92957">
        <ele>137.8</ele>
        <time>2020-06-03T12:56:38.000Z</time>
      </trkpt>
      <trkpt lat="42.98568" lon="2.92961">
        <ele>137</ele>
        <time>2020-06-03T12:56:39.000Z</time>
      </trkpt>
      <trkpt lat="42.98569" lon="2.92964">
        <ele>136.2</ele>
        <time>2020-06-03T12:56:40.000Z</time>
      </trkpt>
      <trkpt lat="42.98572" lon="2.92966">
        <ele>135.2</ele>
        <time>2020-06-03T12:56:41.000Z</time>
      </trkpt>
      <trkpt lat="42.98574" lon="2.9297">
        <ele>134.4</ele>
        <time>2020-06-03T12:56:42.000Z</time>
      </trkpt>
      <trkpt lat="42.98576" lon="2.92974">
        <ele>133.4</ele>
        <time>2020-06-03T12:56:43.000Z</time>
      </trkpt>
      <trkpt lat="42.98578" lon="2.92977">
        <ele>132.4</ele>
        <time>2020-06-03T12:56:44.000Z</time>
      </trkpt>
      <trkpt lat="42.9858" lon="2.92979">
        <ele>131.4</ele>
        <time>2020-06-03T12:56:45.000Z</time>
      </trkpt>
      <trkpt lat="42.98582" lon="2.92985">
        <ele>130.6</ele>
        <time>2020-06-03T12:56:46.000Z</time>
      </trkpt>
      <trkpt lat="42.98585" lon="2.92992">
        <ele>129.6</ele>
        <time>2020-06-03T12:56:47.000Z</time>
      </trkpt>
      <trkpt lat="42.98588" lon="2.92994">
        <ele>128.8</ele>
        <time>2020-06-03T12:56:48.000Z</time>
      </trkpt>
      <trkpt lat="42.9859" lon="2.92995">
        <ele>128</ele>
        <time>2020-06-03T12:56:49.000Z</time>
      </trkpt>
      <trkpt lat="42.98593" lon="2.92992">
        <ele>127.2</ele>
        <time>2020-06-03T12:56:50.000Z</time>
      </trkpt>
      <trkpt lat="42.98598" lon="2.92989">
        <ele>126.6</ele>
        <time>2020-06-03T12:56:51.000Z</time>
      </trkpt>
      <trkpt lat="42.98603" lon="2.92985">
        <ele>125.8</ele>
        <time>2020-06-03T12:56:52.000Z</time>
      </trkpt>
      <trkpt lat="42.98606" lon="2.92983">
        <ele>124.8</ele>
        <time>2020-06-03T12:56:53.000Z</time>
      </trkpt>
      <trkpt lat="42.9861" lon="2.92984">
        <ele>123.8</ele>
        <time>2020-06-03T12:56:54.000Z</time>
      </trkpt>
      <trkpt lat="42.98612" lon="2.92987">
        <ele>122.8</ele>
        <time>2020-06-03T12:56:55.000Z</time>
      </trkpt>
      <trkpt lat="42.98614" lon="2.9299">
        <ele>121.8</ele>
        <time>2020-06-03T12:56:56.000Z</time>
      </trkpt>
      <trkpt lat="42.98615" lon="2.92994">
        <ele>120.6</ele>
        <time>2020-06-03T12:56:57.000Z</time>
      </trkpt>
      <trkpt lat="42.98619" lon="2.93011">
        <ele>120.6</ele>
        <time>2020-06-03T12:57:01.000Z</time>
      </trkpt>
      <trkpt lat="42.9862" lon="2.93022">
        <ele>120.2</ele>
        <time>2020-06-03T12:57:04.000Z</time>
      </trkpt>
      <trkpt lat="42.9862" lon="2.93026">
        <ele>119.6</ele>
        <time>2020-06-03T12:57:05.000Z</time>
      </trkpt>
      <trkpt lat="42.98619" lon="2.93029">
        <ele>119.2</ele>
        <time>2020-06-03T12:57:06.000Z</time>
      </trkpt>
      <trkpt lat="42.98619" lon="2.93033">
        <ele>118.8</ele>
        <time>2020-06-03T12:57:07.000Z</time>
      </trkpt>
      <trkpt lat="42.9862" lon="2.93036">
        <ele>118.2</ele>
        <time>2020-06-03T12:57:08.000Z</time>
      </trkpt>
      <trkpt lat="42.98621" lon="2.93039">
        <ele>118.2</ele>
        <time>2020-06-03T12:57:09.000Z</time>
      </trkpt>
      <trkpt lat="42.98632" lon="2.93053">
        <ele>118.2</ele>
        <time>2020-06-03T12:57:13.000Z</time>
      </trkpt>
      <trkpt lat="42.98637" lon="2.93069">
        <ele>118.2</ele>
        <time>2020-06-03T12:57:17.000Z</time>
      </trkpt>
      <trkpt lat="42.98637" lon="2.93074">
        <ele>118.2</ele>
        <time>2020-06-03T12:57:19.000Z</time>
      </trkpt>
      <trkpt lat="42.98638" lon="2.93078">
        <ele>118.2</ele>
        <time>2020-06-03T12:57:21.000Z</time>
      </trkpt>
      <trkpt lat="42.98638" lon="2.93078">
        <ele>118.2</ele>
        <time>2020-06-03T12:57:22.000Z</time>
      </trkpt>
      <trkpt lat="42.98638" lon="2.93079">
        <ele>118.2</ele>
        <time>2020-06-03T12:57:23.000Z</time>
      </trkpt>
      <trkpt lat="42.98638" lon="2.93078">
        <ele>118.2</ele>
        <time>2020-06-03T12:57:25.000Z</time>
      </trkpt>
      <trkpt lat="42.98637" lon="2.93071">
        <ele>118.2</ele>
        <time>2020-06-03T12:57:27.000Z</time>
      </trkpt>
      <trkpt lat="42.98639" lon="2.93057">
        <ele>118.2</ele>
        <time>2020-06-03T12:57:30.000Z</time>
      </trkpt>
      <trkpt lat="42.98641" lon="2.93053">
        <ele>117.8</ele>
        <time>2020-06-03T12:57:31.000Z</time>
      </trkpt>
      <trkpt lat="42.98641" lon="2.93049">
        <ele>117.4</ele>
        <time>2020-06-03T12:57:32.000Z</time>
      </trkpt>
      <trkpt lat="42.98643" lon="2.93046">
        <ele>117</ele>
        <time>2020-06-03T12:57:33.000Z</time>
      </trkpt>
      <trkpt lat="42.98644" lon="2.93042">
        <ele>116.6</ele>
        <time>2020-06-03T12:57:34.000Z</time>
      </trkpt>
      <trkpt lat="42.98645" lon="2.93038">
        <ele>116.2</ele>
        <time>2020-06-03T12:57:35.000Z</time>
      </trkpt>
      <trkpt lat="42.98646" lon="2.93035">
        <ele>116.6</ele>
        <time>2020-06-03T12:57:36.000Z</time>
      </trkpt>
      <trkpt lat="42.98647" lon="2.93031">
        <ele>117.2</ele>
        <time>2020-06-03T12:57:37.000Z</time>
      </trkpt>
      <trkpt lat="42.98648" lon="2.93028">
        <ele>117.6</ele>
        <time>2020-06-03T12:57:38.000Z</time>
      </trkpt>
      <trkpt lat="42.98648" lon="2.93024">
        <ele>118</ele>
        <time>2020-06-03T12:57:39.000Z</time>
      </trkpt>
      <trkpt lat="42.98649" lon="2.9302">
        <ele>118.6</ele>
        <time>2020-06-03T12:57:40.000Z</time>
      </trkpt>
      <trkpt lat="42.98649" lon="2.93017">
        <ele>119</ele>
        <time>2020-06-03T12:57:41.000Z</time>
      </trkpt>
      <trkpt lat="42.9865" lon="2.93013">
        <ele>119.6</ele>
        <time>2020-06-03T12:57:42.000Z</time>
      </trkpt>
      <trkpt lat="42.98651" lon="2.93008">
        <ele>120</ele>
        <time>2020-06-03T12:57:43.000Z</time>
      </trkpt>
      <trkpt lat="42.98652" lon="2.93004">
        <ele>120.6</ele>
        <time>2020-06-03T12:57:44.000Z</time>
      </trkpt>
      <trkpt lat="42.98653" lon="2.93">
        <ele>121</ele>
        <time>2020-06-03T12:57:45.000Z</time>
      </trkpt>
      <trkpt lat="42.98656" lon="2.92991">
        <ele>121.4</ele>
        <time>2020-06-03T12:57:47.000Z</time>
      </trkpt>
      <trkpt lat="42.98657" lon="2.92987">
        <ele>122</ele>
        <time>2020-06-03T12:57:48.000Z</time>
      </trkpt>
      <trkpt lat="42.98658" lon="2.92983">
        <ele>122.8</ele>
        <time>2020-06-03T12:57:49.000Z</time>
      </trkpt>
      <trkpt lat="42.9866" lon="2.9298">
        <ele>123.2</ele>
        <time>2020-06-03T12:57:50.000Z</time>
      </trkpt>
      <trkpt lat="42.98663" lon="2.92974">
        <ele>123.6</ele>
        <time>2020-06-03T12:57:52.000Z</time>
      </trkpt>
      <trkpt lat="42.98664" lon="2.9297">
        <ele>124.2</ele>
        <time>2020-06-03T12:57:53.000Z</time>
      </trkpt>
      <trkpt lat="42.98666" lon="2.92967">
        <ele>124.6</ele>
        <time>2020-06-03T12:57:54.000Z</time>
      </trkpt>
      <trkpt lat="42.98668" lon="2.92965">
        <ele>125</ele>
        <time>2020-06-03T12:57:55.000Z</time>
      </trkpt>
      <trkpt lat="42.9867" lon="2.92964">
        <ele>125.4</ele>
        <time>2020-06-03T12:57:56.000Z</time>
      </trkpt>
      <trkpt lat="42.98675" lon="2.92959">
        <ele>126</ele>
        <time>2020-06-03T12:57:58.000Z</time>
      </trkpt>
      <trkpt lat="42.98676" lon="2.92956">
        <ele>126.4</ele>
        <time>2020-06-03T12:57:59.000Z</time>
      </trkpt>
      <trkpt lat="42.98678" lon="2.92952">
        <ele>127</ele>
        <time>2020-06-03T12:58:00.000Z</time>
      </trkpt>
      <trkpt lat="42.9868" lon="2.92949">
        <ele>127.4</ele>
        <time>2020-06-03T12:58:01.000Z</time>
      </trkpt>
      <trkpt lat="42.98682" lon="2.92946">
        <ele>128</ele>
        <time>2020-06-03T12:58:02.000Z</time>
      </trkpt>
      <trkpt lat="42.98689" lon="2.92933">
        <ele>128.4</ele>
        <time>2020-06-03T12:58:06.000Z</time>
      </trkpt>
      <trkpt lat="42.9869" lon="2.9293">
        <ele>128.8</ele>
        <time>2020-06-03T12:58:07.000Z</time>
      </trkpt>
      <trkpt lat="42.98692" lon="2.92927">
        <ele>129.2</ele>
        <time>2020-06-03T12:58:08.000Z</time>
      </trkpt>
      <trkpt lat="42.98693" lon="2.92923">
        <ele>129.8</ele>
        <time>2020-06-03T12:58:09.000Z</time>
      </trkpt>
      <trkpt lat="42.98695" lon="2.92919">
        <ele>130.2</ele>
        <time>2020-06-03T12:58:10.000Z</time>
      </trkpt>
      <trkpt lat="42.98696" lon="2.92916">
        <ele>130.6</ele>
        <time>2020-06-03T12:58:11.000Z</time>
      </trkpt>
      <trkpt lat="42.98697" lon="2.92913">
        <ele>131</ele>
        <time>2020-06-03T12:58:12.000Z</time>
      </trkpt>
      <trkpt lat="42.98699" lon="2.92909">
        <ele>131.4</ele>
        <time>2020-06-03T12:58:13.000Z</time>
      </trkpt>
      <trkpt lat="42.987" lon="2.92905">
        <ele>132.2</ele>
        <time>2020-06-03T12:58:14.000Z</time>
      </trkpt>
      <trkpt lat="42.98701" lon="2.92902">
        <ele>132.2</ele>
        <time>2020-06-03T12:58:15.000Z</time>
      </trkpt>
      <trkpt lat="42.98704" lon="2.92895">
        <ele>132.6</ele>
        <time>2020-06-03T12:58:17.000Z</time>
      </trkpt>
      <trkpt lat="42.98706" lon="2.92891">
        <ele>133</ele>
        <time>2020-06-03T12:58:18.000Z</time>
      </trkpt>
      <trkpt lat="42.98707" lon="2.92888">
        <ele>133.4</ele>
        <time>2020-06-03T12:58:19.000Z</time>
      </trkpt>
      <trkpt lat="42.98709" lon="2.92885">
        <ele>133.8</ele>
        <time>2020-06-03T12:58:20.000Z</time>
      </trkpt>
      <trkpt lat="42.98711" lon="2.92882">
        <ele>134.2</ele>
        <time>2020-06-03T12:58:21.000Z</time>
      </trkpt>
      <trkpt lat="42.98713" lon="2.92879">
        <ele>134.2</ele>
        <time>2020-06-03T12:58:22.000Z</time>
      </trkpt>
      <trkpt lat="42.98719" lon="2.92873">
        <ele>134.6</ele>
        <time>2020-06-03T12:58:25.000Z</time>
      </trkpt>
      <trkpt lat="42.9872" lon="2.9287">
        <ele>135</ele>
        <time>2020-06-03T12:58:26.000Z</time>
      </trkpt>
      <trkpt lat="42.98721" lon="2.92867">
        <ele>135.6</ele>
        <time>2020-06-03T12:58:27.000Z</time>
      </trkpt>
      <trkpt lat="42.98722" lon="2.92864">
        <ele>136</ele>
        <time>2020-06-03T12:58:28.000Z</time>
      </trkpt>
      <trkpt lat="42.98723" lon="2.92861">
        <ele>136.4</ele>
        <time>2020-06-03T12:58:29.000Z</time>
      </trkpt>
      <trkpt lat="42.98729" lon="2.92853">
        <ele>136.8</ele>
        <time>2020-06-03T12:58:32.000Z</time>
      </trkpt>
      <trkpt lat="42.98731" lon="2.9285">
        <ele>137.4</ele>
        <time>2020-06-03T12:58:33.000Z</time>
      </trkpt>
      <trkpt lat="42.98732" lon="2.92846">
        <ele>137.8</ele>
        <time>2020-06-03T12:58:34.000Z</time>
      </trkpt>
      <trkpt lat="42.98733" lon="2.92843">
        <ele>138.2</ele>
        <time>2020-06-03T12:58:35.000Z</time>
      </trkpt>
      <trkpt lat="42.98734" lon="2.9284">
        <ele>138.6</ele>
        <time>2020-06-03T12:58:36.000Z</time>
      </trkpt>
      <trkpt lat="42.98739" lon="2.92831">
        <ele>139</ele>
        <time>2020-06-03T12:58:39.000Z</time>
      </trkpt>
      <trkpt lat="42.98741" lon="2.92829">
        <ele>139.8</ele>
        <time>2020-06-03T12:58:40.000Z</time>
      </trkpt>
      <trkpt lat="42.98743" lon="2.92826">
        <ele>140.2</ele>
        <time>2020-06-03T12:58:41.000Z</time>
      </trkpt>
      <trkpt lat="42.98744" lon="2.92823">
        <ele>140.6</ele>
        <time>2020-06-03T12:58:42.000Z</time>
      </trkpt>
      <trkpt lat="42.98748" lon="2.92817">
        <ele>141</ele>
        <time>2020-06-03T12:58:44.000Z</time>
      </trkpt>
      <trkpt lat="42.98749" lon="2.92815">
        <ele>141.4</ele>
        <time>2020-06-03T12:58:45.000Z</time>
      </trkpt>
      <trkpt lat="42.98751" lon="2.92812">
        <ele>141.8</ele>
        <time>2020-06-03T12:58:46.000Z</time>
      </trkpt>
      <trkpt lat="42.98752" lon="2.92808">
        <ele>142.2</ele>
        <time>2020-06-03T12:58:47.000Z</time>
      </trkpt>
      <trkpt lat="42.98754" lon="2.92806">
        <ele>142.6</ele>
        <time>2020-06-03T12:58:48.000Z</time>
      </trkpt>
      <trkpt lat="42.98761" lon="2.92797">
        <ele>142.6</ele>
        <time>2020-06-03T12:58:51.000Z</time>
      </trkpt>
      <trkpt lat="42.98764" lon="2.9279">
        <ele>143.2</ele>
        <time>2020-06-03T12:58:53.000Z</time>
      </trkpt>
      <trkpt lat="42.98766" lon="2.92786">
        <ele>143.6</ele>
        <time>2020-06-03T12:58:54.000Z</time>
      </trkpt>
      <trkpt lat="42.98767" lon="2.92782">
        <ele>144</ele>
        <time>2020-06-03T12:58:55.000Z</time>
      </trkpt>
      <trkpt lat="42.98767" lon="2.92778">
        <ele>144.4</ele>
        <time>2020-06-03T12:58:56.000Z</time>
      </trkpt>
      <trkpt lat="42.98767" lon="2.92773">
        <ele>144.8</ele>
        <time>2020-06-03T12:58:57.000Z</time>
      </trkpt>
      <trkpt lat="42.98769" lon="2.92755">
        <ele>145.2</ele>
        <time>2020-06-03T12:59:01.000Z</time>
      </trkpt>
      <trkpt lat="42.9877" lon="2.92752">
        <ele>145.6</ele>
        <time>2020-06-03T12:59:02.000Z</time>
      </trkpt>
      <trkpt lat="42.9877" lon="2.92747">
        <ele>146.2</ele>
        <time>2020-06-03T12:59:03.000Z</time>
      </trkpt>
      <trkpt lat="42.9877" lon="2.92743">
        <ele>147</ele>
        <time>2020-06-03T12:59:04.000Z</time>
      </trkpt>
      <trkpt lat="42.98771" lon="2.92739">
        <ele>147.4</ele>
        <time>2020-06-03T12:59:05.000Z</time>
      </trkpt>
      <trkpt lat="42.98772" lon="2.92735">
        <ele>148</ele>
        <time>2020-06-03T12:59:06.000Z</time>
      </trkpt>
      <trkpt lat="42.98772" lon="2.92731">
        <ele>148.4</ele>
        <time>2020-06-03T12:59:07.000Z</time>
      </trkpt>
      <trkpt lat="42.98773" lon="2.92726">
        <ele>148.8</ele>
        <time>2020-06-03T12:59:08.000Z</time>
      </trkpt>
      <trkpt lat="42.98774" lon="2.92722">
        <ele>149.2</ele>
        <time>2020-06-03T12:59:09.000Z</time>
      </trkpt>
      <trkpt lat="42.98776" lon="2.92711">
        <ele>149.2</ele>
        <time>2020-06-03T12:59:12.000Z</time>
      </trkpt>
      <trkpt lat="42.98776" lon="2.92707">
        <ele>149.8</ele>
        <time>2020-06-03T12:59:13.000Z</time>
      </trkpt>
      <trkpt lat="42.98777" lon="2.92703">
        <ele>150.2</ele>
        <time>2020-06-03T12:59:14.000Z</time>
      </trkpt>
      <trkpt lat="42.98777" lon="2.92699">
        <ele>150.6</ele>
        <time>2020-06-03T12:59:15.000Z</time>
      </trkpt>
      <trkpt lat="42.98776" lon="2.92695">
        <ele>151.2</ele>
        <time>2020-06-03T12:59:16.000Z</time>
      </trkpt>
      <trkpt lat="42.98776" lon="2.92691">
        <ele>151.6</ele>
        <time>2020-06-03T12:59:17.000Z</time>
      </trkpt>
      <trkpt lat="42.98777" lon="2.92683">
        <ele>151.6</ele>
        <time>2020-06-03T12:59:19.000Z</time>
      </trkpt>
      <trkpt lat="42.98777" lon="2.92676">
        <ele>152</ele>
        <time>2020-06-03T12:59:21.000Z</time>
      </trkpt>
      <trkpt lat="42.98777" lon="2.92672">
        <ele>152.4</ele>
        <time>2020-06-03T12:59:22.000Z</time>
      </trkpt>
      <trkpt lat="42.98777" lon="2.92668">
        <ele>153</ele>
        <time>2020-06-03T12:59:23.000Z</time>
      </trkpt>
      <trkpt lat="42.98778" lon="2.92665">
        <ele>153.4</ele>
        <time>2020-06-03T12:59:24.000Z</time>
      </trkpt>
      <trkpt lat="42.98778" lon="2.92662">
        <ele>153.8</ele>
        <time>2020-06-03T12:59:25.000Z</time>
      </trkpt>
      <trkpt lat="42.98779" lon="2.92655">
        <ele>154.2</ele>
        <time>2020-06-03T12:59:27.000Z</time>
      </trkpt>
      <trkpt lat="42.98779" lon="2.92652">
        <ele>154.8</ele>
        <time>2020-06-03T12:59:28.000Z</time>
      </trkpt>
      <trkpt lat="42.98779" lon="2.9265">
        <ele>155.6</ele>
        <time>2020-06-03T12:59:29.000Z</time>
      </trkpt>
      <trkpt lat="42.98779" lon="2.92647">
        <ele>156.2</ele>
        <time>2020-06-03T12:59:30.000Z</time>
      </trkpt>
      <trkpt lat="42.98779" lon="2.92639">
        <ele>156.2</ele>
        <time>2020-06-03T12:59:32.000Z</time>
      </trkpt>
      <trkpt lat="42.98779" lon="2.92637">
        <ele>156.6</ele>
        <time>2020-06-03T12:59:33.000Z</time>
      </trkpt>
      <trkpt lat="42.98779" lon="2.92633">
        <ele>157</ele>
        <time>2020-06-03T12:59:34.000Z</time>
      </trkpt>
      <trkpt lat="42.98779" lon="2.92631">
        <ele>157.6</ele>
        <time>2020-06-03T12:59:35.000Z</time>
      </trkpt>
      <trkpt lat="42.98779" lon="2.92628">
        <ele>158</ele>
        <time>2020-06-03T12:59:36.000Z</time>
      </trkpt>
      <trkpt lat="42.98778" lon="2.92624">
        <ele>158.4</ele>
        <time>2020-06-03T12:59:37.000Z</time>
      </trkpt>
      <trkpt lat="42.98779" lon="2.92611">
        <ele>158.4</ele>
        <time>2020-06-03T12:59:42.000Z</time>
      </trkpt>
      <trkpt lat="42.9878" lon="2.92609">
        <ele>158.4</ele>
        <time>2020-06-03T12:59:43.000Z</time>
      </trkpt>
      <trkpt lat="42.98778" lon="2.92604">
        <ele>158.4</ele>
        <time>2020-06-03T12:59:44.000Z</time>
      </trkpt>
      <trkpt lat="42.98772" lon="2.92595">
        <ele>158.4</ele>
        <time>2020-06-03T12:59:48.000Z</time>
      </trkpt>
      <trkpt lat="42.98765" lon="2.92583">
        <ele>158.4</ele>
        <time>2020-06-03T12:59:54.000Z</time>
      </trkpt>
      <trkpt lat="42.98764" lon="2.92581">
        <ele>159</ele>
        <time>2020-06-03T12:59:55.000Z</time>
      </trkpt>
      <trkpt lat="42.98763" lon="2.92579">
        <ele>159.4</ele>
        <time>2020-06-03T12:59:56.000Z</time>
      </trkpt>
      <trkpt lat="42.98761" lon="2.92578">
        <ele>159.8</ele>
        <time>2020-06-03T12:59:57.000Z</time>
      </trkpt>
      <trkpt lat="42.98759" lon="2.92576">
        <ele>160.2</ele>
        <time>2020-06-03T12:59:58.000Z</time>
      </trkpt>
      <trkpt lat="42.98759" lon="2.92574">
        <ele>160.6</ele>
        <time>2020-06-03T12:59:59.000Z</time>
      </trkpt>
      <trkpt lat="42.98758" lon="2.92574">
        <ele>160.6</ele>
        <time>2020-06-03T13:00:00.000Z</time>
      </trkpt>
      <trkpt lat="42.98758" lon="2.92574">
        <ele>160.6</ele>
        <time>2020-06-03T13:00:01.000Z</time>
      </trkpt>
      <trkpt lat="42.98761" lon="2.9258">
        <ele>160.6</ele>
        <time>2020-06-03T13:00:53.000Z</time>
      </trkpt>
      <trkpt lat="42.98766" lon="2.92584">
        <ele>160.6</ele>
        <time>2020-06-03T13:00:55.000Z</time>
      </trkpt>
      <trkpt lat="42.98773" lon="2.92596">
        <ele>160.6</ele>
        <time>2020-06-03T13:00:58.000Z</time>
      </trkpt>
      <trkpt lat="42.98776" lon="2.926">
        <ele>160.6</ele>
        <time>2020-06-03T13:00:59.000Z</time>
      </trkpt>
      <trkpt lat="42.98784" lon="2.92618">
        <ele>160.2</ele>
        <time>2020-06-03T13:01:03.000Z</time>
      </trkpt>
      <trkpt lat="42.98785" lon="2.92622">
        <ele>159.6</ele>
        <time>2020-06-03T13:01:04.000Z</time>
      </trkpt>
      <trkpt lat="42.98786" lon="2.92624">
        <ele>159.2</ele>
        <time>2020-06-03T13:01:05.000Z</time>
      </trkpt>
      <trkpt lat="42.98787" lon="2.92626">
        <ele>158.8</ele>
        <time>2020-06-03T13:01:06.000Z</time>
      </trkpt>
      <trkpt lat="42.98788" lon="2.92628">
        <ele>158.4</ele>
        <time>2020-06-03T13:01:07.000Z</time>
      </trkpt>
      <trkpt lat="42.9879" lon="2.92629">
        <ele>158.4</ele>
        <time>2020-06-03T13:01:09.000Z</time>
      </trkpt>
      <trkpt lat="42.98791" lon="2.92627">
        <ele>158.4</ele>
        <time>2020-06-03T13:01:10.000Z</time>
      </trkpt>
      <trkpt lat="42.98788" lon="2.92624">
        <ele>158.4</ele>
        <time>2020-06-03T13:01:13.000Z</time>
      </trkpt>
      <trkpt lat="42.98784" lon="2.9261">
        <ele>158.4</ele>
        <time>2020-06-03T13:01:17.000Z</time>
      </trkpt>
      <trkpt lat="42.98784" lon="2.92606">
        <ele>158.4</ele>
        <time>2020-06-03T13:01:18.000Z</time>
      </trkpt>
      <trkpt lat="42.98787" lon="2.92599">
        <ele>158.4</ele>
        <time>2020-06-03T13:01:20.000Z</time>
      </trkpt>
      <trkpt lat="42.98797" lon="2.92571">
        <ele>157.8</ele>
        <time>2020-06-03T13:01:25.000Z</time>
      </trkpt>
      <trkpt lat="42.988" lon="2.92563">
        <ele>157.2</ele>
        <time>2020-06-03T13:01:26.000Z</time>
      </trkpt>
      <trkpt lat="42.98803" lon="2.92555">
        <ele>156.8</ele>
        <time>2020-06-03T13:01:27.000Z</time>
      </trkpt>
      <trkpt lat="42.98805" lon="2.92547">
        <ele>156.2</ele>
        <time>2020-06-03T13:01:28.000Z</time>
      </trkpt>
      <trkpt lat="42.98808" lon="2.9254">
        <ele>155.6</ele>
        <time>2020-06-03T13:01:29.000Z</time>
      </trkpt>
      <trkpt lat="42.9881" lon="2.92533">
        <ele>154.8</ele>
        <time>2020-06-03T13:01:30.000Z</time>
      </trkpt>
      <trkpt lat="42.98812" lon="2.92527">
        <ele>154.2</ele>
        <time>2020-06-03T13:01:31.000Z</time>
      </trkpt>
      <trkpt lat="42.98815" lon="2.92523">
        <ele>153.6</ele>
        <time>2020-06-03T13:01:32.000Z</time>
      </trkpt>
      <trkpt lat="42.98818" lon="2.92518">
        <ele>153.6</ele>
        <time>2020-06-03T13:01:33.000Z</time>
      </trkpt>
      <trkpt lat="42.98826" lon="2.92501">
        <ele>153.6</ele>
        <time>2020-06-03T13:01:37.000Z</time>
      </trkpt>
      <trkpt lat="42.98825" lon="2.92495">
        <ele>153.6</ele>
        <time>2020-06-03T13:01:39.000Z</time>
      </trkpt>
      <trkpt lat="42.98823" lon="2.92489">
        <ele>153.6</ele>
        <time>2020-06-03T13:01:41.000Z</time>
      </trkpt>
      <trkpt lat="42.98823" lon="2.92488">
        <ele>153.6</ele>
        <time>2020-06-03T13:01:43.000Z</time>
      </trkpt>
      <trkpt lat="42.98822" lon="2.92485">
        <ele>153.6</ele>
        <time>2020-06-03T13:01:58.000Z</time>
      </trkpt>
      <trkpt lat="42.98823" lon="2.92468">
        <ele>153.6</ele>
        <time>2020-06-03T13:02:02.000Z</time>
      </trkpt>
      <trkpt lat="42.98826" lon="2.92448">
        <ele>153.6</ele>
        <time>2020-06-03T13:02:05.000Z</time>
      </trkpt>
      <trkpt lat="42.98827" lon="2.92441">
        <ele>153.6</ele>
        <time>2020-06-03T13:02:06.000Z</time>
      </trkpt>
      <trkpt lat="42.9883" lon="2.92426">
        <ele>153.2</ele>
        <time>2020-06-03T13:02:08.000Z</time>
      </trkpt>
      <trkpt lat="42.98833" lon="2.9242">
        <ele>152.6</ele>
        <time>2020-06-03T13:02:09.000Z</time>
      </trkpt>
      <trkpt lat="42.98838" lon="2.92414">
        <ele>152.2</ele>
        <time>2020-06-03T13:02:10.000Z</time>
      </trkpt>
      <trkpt lat="42.98843" lon="2.92411">
        <ele>151.8</ele>
        <time>2020-06-03T13:02:11.000Z</time>
      </trkpt>
      <trkpt lat="42.98849" lon="2.92409">
        <ele>151.2</ele>
        <time>2020-06-03T13:02:12.000Z</time>
      </trkpt>
      <trkpt lat="42.98856" lon="2.92407">
        <ele>150.6</ele>
        <time>2020-06-03T13:02:13.000Z</time>
      </trkpt>
      <trkpt lat="42.98862" lon="2.92406">
        <ele>150.2</ele>
        <time>2020-06-03T13:02:14.000Z</time>
      </trkpt>
      <trkpt lat="42.98867" lon="2.92406">
        <ele>149.6</ele>
        <time>2020-06-03T13:02:15.000Z</time>
      </trkpt>
      <trkpt lat="42.98873" lon="2.92406">
        <ele>149</ele>
        <time>2020-06-03T13:02:16.000Z</time>
      </trkpt>
      <trkpt lat="42.98879" lon="2.92406">
        <ele>149</ele>
        <time>2020-06-03T13:02:17.000Z</time>
      </trkpt>
      <trkpt lat="42.98885" lon="2.92403">
        <ele>148.6</ele>
        <time>2020-06-03T13:02:18.000Z</time>
      </trkpt>
      <trkpt lat="42.9889" lon="2.92399">
        <ele>148.2</ele>
        <time>2020-06-03T13:02:19.000Z</time>
      </trkpt>
      <trkpt lat="42.98896" lon="2.92394">
        <ele>147.8</ele>
        <time>2020-06-03T13:02:20.000Z</time>
      </trkpt>
      <trkpt lat="42.98901" lon="2.9239">
        <ele>147.2</ele>
        <time>2020-06-03T13:02:21.000Z</time>
      </trkpt>
      <trkpt lat="42.98907" lon="2.92385">
        <ele>146.8</ele>
        <time>2020-06-03T13:02:22.000Z</time>
      </trkpt>
      <trkpt lat="42.98913" lon="2.92382">
        <ele>145.6</ele>
        <time>2020-06-03T13:02:23.000Z</time>
      </trkpt>
      <trkpt lat="42.98919" lon="2.9238">
        <ele>145.2</ele>
        <time>2020-06-03T13:02:24.000Z</time>
      </trkpt>
      <trkpt lat="42.98926" lon="2.92378">
        <ele>144.6</ele>
        <time>2020-06-03T13:02:25.000Z</time>
      </trkpt>
      <trkpt lat="42.98932" lon="2.92376">
        <ele>144.2</ele>
        <time>2020-06-03T13:02:26.000Z</time>
      </trkpt>
      <trkpt lat="42.98938" lon="2.92376">
        <ele>143.6</ele>
        <time>2020-06-03T13:02:27.000Z</time>
      </trkpt>
      <trkpt lat="42.98943" lon="2.92375">
        <ele>143.2</ele>
        <time>2020-06-03T13:02:28.000Z</time>
      </trkpt>
      <trkpt lat="42.98949" lon="2.92373">
        <ele>142.8</ele>
        <time>2020-06-03T13:02:29.000Z</time>
      </trkpt>
      <trkpt lat="42.98955" lon="2.92371">
        <ele>142.2</ele>
        <time>2020-06-03T13:02:30.000Z</time>
      </trkpt>
      <trkpt lat="42.98961" lon="2.92369">
        <ele>141.8</ele>
        <time>2020-06-03T13:02:31.000Z</time>
      </trkpt>
      <trkpt lat="42.98967" lon="2.92367">
        <ele>141.2</ele>
        <time>2020-06-03T13:02:32.000Z</time>
      </trkpt>
      <trkpt lat="42.98973" lon="2.92364">
        <ele>140.8</ele>
        <time>2020-06-03T13:02:33.000Z</time>
      </trkpt>
      <trkpt lat="42.98978" lon="2.92361">
        <ele>140.4</ele>
        <time>2020-06-03T13:02:34.000Z</time>
      </trkpt>
      <trkpt lat="42.98984" lon="2.92359">
        <ele>139.8</ele>
        <time>2020-06-03T13:02:35.000Z</time>
      </trkpt>
      <trkpt lat="42.9899" lon="2.92358">
        <ele>139.8</ele>
        <time>2020-06-03T13:02:36.000Z</time>
      </trkpt>
      <trkpt lat="42.98995" lon="2.92356">
        <ele>139.8</ele>
        <time>2020-06-03T13:02:37.000Z</time>
      </trkpt>
      <trkpt lat="42.99001" lon="2.92354">
        <ele>139.4</ele>
        <time>2020-06-03T13:02:38.000Z</time>
      </trkpt>
      <trkpt lat="42.99007" lon="2.92356">
        <ele>139</ele>
        <time>2020-06-03T13:02:39.000Z</time>
      </trkpt>
      <trkpt lat="42.99012" lon="2.92359">
        <ele>138.6</ele>
        <time>2020-06-03T13:02:40.000Z</time>
      </trkpt>
      <trkpt lat="42.99018" lon="2.92362">
        <ele>138.2</ele>
        <time>2020-06-03T13:02:41.000Z</time>
      </trkpt>
      <trkpt lat="42.99023" lon="2.92362">
        <ele>137.8</ele>
        <time>2020-06-03T13:02:42.000Z</time>
      </trkpt>
      <trkpt lat="42.99033" lon="2.92361">
        <ele>137.4</ele>
        <time>2020-06-03T13:02:44.000Z</time>
      </trkpt>
      <trkpt lat="42.99038" lon="2.92363">
        <ele>136.8</ele>
        <time>2020-06-03T13:02:45.000Z</time>
      </trkpt>
      <trkpt lat="42.99042" lon="2.92367">
        <ele>136.4</ele>
        <time>2020-06-03T13:02:46.000Z</time>
      </trkpt>
      <trkpt lat="42.99047" lon="2.92371">
        <ele>135.6</ele>
        <time>2020-06-03T13:02:47.000Z</time>
      </trkpt>
      <trkpt lat="42.99059" lon="2.92389">
        <ele>135.2</ele>
        <time>2020-06-03T13:02:50.000Z</time>
      </trkpt>
      <trkpt lat="42.99062" lon="2.92393">
        <ele>134.8</ele>
        <time>2020-06-03T13:02:51.000Z</time>
      </trkpt>
      <trkpt lat="42.99064" lon="2.92397">
        <ele>134.4</ele>
        <time>2020-06-03T13:02:52.000Z</time>
      </trkpt>
      <trkpt lat="42.99066" lon="2.92397">
        <ele>134</ele>
        <time>2020-06-03T13:02:53.000Z</time>
      </trkpt>
      <trkpt lat="42.99068" lon="2.92396">
        <ele>133.6</ele>
        <time>2020-06-03T13:02:54.000Z</time>
      </trkpt>
      <trkpt lat="42.99076" lon="2.92399">
        <ele>133.6</ele>
        <time>2020-06-03T13:02:58.000Z</time>
      </trkpt>
      <trkpt lat="42.99089" lon="2.92414">
        <ele>133.6</ele>
        <time>2020-06-03T13:03:03.000Z</time>
      </trkpt>
      <trkpt lat="42.99089" lon="2.92417">
        <ele>133.6</ele>
        <time>2020-06-03T13:03:04.000Z</time>
      </trkpt>
      <trkpt lat="42.99089" lon="2.92422">
        <ele>133.6</ele>
        <time>2020-06-03T13:03:06.000Z</time>
      </trkpt>
      <trkpt lat="42.99098" lon="2.92432">
        <ele>133.2</ele>
        <time>2020-06-03T13:03:10.000Z</time>
      </trkpt>
      <trkpt lat="42.99099" lon="2.92435">
        <ele>132.6</ele>
        <time>2020-06-03T13:03:11.000Z</time>
      </trkpt>
      <trkpt lat="42.99098" lon="2.92439">
        <ele>131.6</ele>
        <time>2020-06-03T13:03:12.000Z</time>
      </trkpt>
      <trkpt lat="42.99099" lon="2.92442">
        <ele>131.2</ele>
        <time>2020-06-03T13:03:13.000Z</time>
      </trkpt>
      <trkpt lat="42.99101" lon="2.92455">
        <ele>131.2</ele>
        <time>2020-06-03T13:03:17.000Z</time>
      </trkpt>
      <trkpt lat="42.99103" lon="2.92473">
        <ele>131.2</ele>
        <time>2020-06-03T13:03:22.000Z</time>
      </trkpt>
      <trkpt lat="42.99105" lon="2.92477">
        <ele>130.6</ele>
        <time>2020-06-03T13:03:23.000Z</time>
      </trkpt>
      <trkpt lat="42.99105" lon="2.92482">
        <ele>130.2</ele>
        <time>2020-06-03T13:03:24.000Z</time>
      </trkpt>
      <trkpt lat="42.99105" lon="2.92484">
        <ele>129.8</ele>
        <time>2020-06-03T13:03:25.000Z</time>
      </trkpt>
      <trkpt lat="42.99106" lon="2.92487">
        <ele>129.4</ele>
        <time>2020-06-03T13:03:26.000Z</time>
      </trkpt>
      <trkpt lat="42.99108" lon="2.92489">
        <ele>129</ele>
        <time>2020-06-03T13:03:27.000Z</time>
      </trkpt>
      <trkpt lat="42.99111" lon="2.92493">
        <ele>129</ele>
        <time>2020-06-03T13:03:28.000Z</time>
      </trkpt>
      <trkpt lat="42.99112" lon="2.92494">
        <ele>129</ele>
        <time>2020-06-03T13:03:29.000Z</time>
      </trkpt>
      <trkpt lat="42.99112" lon="2.92496">
        <ele>129</ele>
        <time>2020-06-03T13:03:30.000Z</time>
      </trkpt>
      <trkpt lat="42.99114" lon="2.92505">
        <ele>129</ele>
        <time>2020-06-03T13:03:32.000Z</time>
      </trkpt>
      <trkpt lat="42.99119" lon="2.92524">
        <ele>128.4</ele>
        <time>2020-06-03T13:03:36.000Z</time>
      </trkpt>
      <trkpt lat="42.99121" lon="2.92528">
        <ele>127.6</ele>
        <time>2020-06-03T13:03:37.000Z</time>
      </trkpt>
      <trkpt lat="42.99123" lon="2.92532">
        <ele>127.2</ele>
        <time>2020-06-03T13:03:38.000Z</time>
      </trkpt>
      <trkpt lat="42.99125" lon="2.92536">
        <ele>126.8</ele>
        <time>2020-06-03T13:03:39.000Z</time>
      </trkpt>
      <trkpt lat="42.99126" lon="2.9254">
        <ele>126.8</ele>
        <time>2020-06-03T13:03:40.000Z</time>
      </trkpt>
      <trkpt lat="42.99133" lon="2.92561">
        <ele>126.4</ele>
        <time>2020-06-03T13:03:44.000Z</time>
      </trkpt>
      <trkpt lat="42.99134" lon="2.92566">
        <ele>126</ele>
        <time>2020-06-03T13:03:45.000Z</time>
      </trkpt>
      <trkpt lat="42.99135" lon="2.9257">
        <ele>125.6</ele>
        <time>2020-06-03T13:03:46.000Z</time>
      </trkpt>
      <trkpt lat="42.99135" lon="2.92573">
        <ele>125.2</ele>
        <time>2020-06-03T13:03:47.000Z</time>
      </trkpt>
      <trkpt lat="42.99137" lon="2.92577">
        <ele>124.6</ele>
        <time>2020-06-03T13:03:48.000Z</time>
      </trkpt>
      <trkpt lat="42.99141" lon="2.92588">
        <ele>124.6</ele>
        <time>2020-06-03T13:03:51.000Z</time>
      </trkpt>
      <trkpt lat="42.9914" lon="2.92598">
        <ele>124.6</ele>
        <time>2020-06-03T13:03:55.000Z</time>
      </trkpt>
      <trkpt lat="42.99139" lon="2.9261">
        <ele>124.6</ele>
        <time>2020-06-03T13:03:59.000Z</time>
      </trkpt>
      <trkpt lat="42.99139" lon="2.92627">
        <ele>124.6</ele>
        <time>2020-06-03T13:04:04.000Z</time>
      </trkpt>
      <trkpt lat="42.99135" lon="2.92637">
        <ele>124.6</ele>
        <time>2020-06-03T13:04:07.000Z</time>
      </trkpt>
      <trkpt lat="42.99128" lon="2.92651">
        <ele>124.6</ele>
        <time>2020-06-03T13:04:10.000Z</time>
      </trkpt>
      <trkpt lat="42.99126" lon="2.92656">
        <ele>124.6</ele>
        <time>2020-06-03T13:04:11.000Z</time>
      </trkpt>
      <trkpt lat="42.99125" lon="2.92661">
        <ele>124.2</ele>
        <time>2020-06-03T13:04:12.000Z</time>
      </trkpt>
      <trkpt lat="42.99122" lon="2.92666">
        <ele>123.8</ele>
        <time>2020-06-03T13:04:13.000Z</time>
      </trkpt>
      <trkpt lat="42.99122" lon="2.92671">
        <ele>123.4</ele>
        <time>2020-06-03T13:04:14.000Z</time>
      </trkpt>
      <trkpt lat="42.99121" lon="2.92676">
        <ele>122.8</ele>
        <time>2020-06-03T13:04:15.000Z</time>
      </trkpt>
      <trkpt lat="42.9912" lon="2.92681">
        <ele>122.4</ele>
        <time>2020-06-03T13:04:16.000Z</time>
      </trkpt>
      <trkpt lat="42.99118" lon="2.92689">
        <ele>122</ele>
        <time>2020-06-03T13:04:18.000Z</time>
      </trkpt>
      <trkpt lat="42.99117" lon="2.92694">
        <ele>121.4</ele>
        <time>2020-06-03T13:04:19.000Z</time>
      </trkpt>
      <trkpt lat="42.99117" lon="2.92698">
        <ele>121</ele>
        <time>2020-06-03T13:04:20.000Z</time>
      </trkpt>
      <trkpt lat="42.99116" lon="2.92702">
        <ele>120.6</ele>
        <time>2020-06-03T13:04:21.000Z</time>
      </trkpt>
      <trkpt lat="42.99115" lon="2.92708">
        <ele>120</ele>
        <time>2020-06-03T13:04:22.000Z</time>
      </trkpt>
      <trkpt lat="42.99114" lon="2.92714">
        <ele>119.6</ele>
        <time>2020-06-03T13:04:23.000Z</time>
      </trkpt>
      <trkpt lat="42.99112" lon="2.92721">
        <ele>118.8</ele>
        <time>2020-06-03T13:04:24.000Z</time>
      </trkpt>
      <trkpt lat="42.9911" lon="2.92728">
        <ele>118.2</ele>
        <time>2020-06-03T13:04:25.000Z</time>
      </trkpt>
      <trkpt lat="42.99108" lon="2.92731">
        <ele>116.6</ele>
        <time>2020-06-03T13:04:26.000Z</time>
      </trkpt>
      <trkpt lat="42.99106" lon="2.92733">
        <ele>116</ele>
        <time>2020-06-03T13:04:27.000Z</time>
      </trkpt>
      <trkpt lat="42.99098" lon="2.92743">
        <ele>116</ele>
        <time>2020-06-03T13:04:31.000Z</time>
      </trkpt>
      <trkpt lat="42.99095" lon="2.92752">
        <ele>116</ele>
        <time>2020-06-03T13:04:34.000Z</time>
      </trkpt>
      <trkpt lat="42.99094" lon="2.92757">
        <ele>116</ele>
        <time>2020-06-03T13:04:35.000Z</time>
      </trkpt>
      <trkpt lat="42.99088" lon="2.92777">
        <ele>116</ele>
        <time>2020-06-03T13:04:40.000Z</time>
      </trkpt>
      <trkpt lat="42.99085" lon="2.92793">
        <ele>116</ele>
        <time>2020-06-03T13:04:44.000Z</time>
      </trkpt>
      <trkpt lat="42.9908" lon="2.928">
        <ele>116</ele>
        <time>2020-06-03T13:04:46.000Z</time>
      </trkpt>
      <trkpt lat="42.99078" lon="2.92803">
        <ele>116</ele>
        <time>2020-06-03T13:04:47.000Z</time>
      </trkpt>
      <trkpt lat="42.99068" lon="2.92815">
        <ele>116</ele>
        <time>2020-06-03T13:04:51.000Z</time>
      </trkpt>
      <trkpt lat="42.99052" lon="2.92823">
        <ele>116</ele>
        <time>2020-06-03T13:04:56.000Z</time>
      </trkpt>
      <trkpt lat="42.99051" lon="2.92826">
        <ele>116</ele>
        <time>2020-06-03T13:04:57.000Z</time>
      </trkpt>
      <trkpt lat="42.99048" lon="2.92837">
        <ele>116</ele>
        <time>2020-06-03T13:04:59.000Z</time>
      </trkpt>
      <trkpt lat="42.99049" lon="2.92862">
        <ele>115.4</ele>
        <time>2020-06-03T13:05:03.000Z</time>
      </trkpt>
      <trkpt lat="42.9905" lon="2.92868">
        <ele>114.8</ele>
        <time>2020-06-03T13:05:04.000Z</time>
      </trkpt>
      <trkpt lat="42.9905" lon="2.92872">
        <ele>114.2</ele>
        <time>2020-06-03T13:05:05.000Z</time>
      </trkpt>
      <trkpt lat="42.99049" lon="2.92879">
        <ele>113.4</ele>
        <time>2020-06-03T13:05:06.000Z</time>
      </trkpt>
      <trkpt lat="42.99047" lon="2.92884">
        <ele>112.6</ele>
        <time>2020-06-03T13:05:07.000Z</time>
      </trkpt>
      <trkpt lat="42.99045" lon="2.92886">
        <ele>112</ele>
        <time>2020-06-03T13:05:08.000Z</time>
      </trkpt>
      <trkpt lat="42.99043" lon="2.92889">
        <ele>111.2</ele>
        <time>2020-06-03T13:05:09.000Z</time>
      </trkpt>
      <trkpt lat="42.99041" lon="2.92891">
        <ele>110.6</ele>
        <time>2020-06-03T13:05:10.000Z</time>
      </trkpt>
      <trkpt lat="42.99039" lon="2.92893">
        <ele>109.8</ele>
        <time>2020-06-03T13:05:11.000Z</time>
      </trkpt>
      <trkpt lat="42.99037" lon="2.92895">
        <ele>109.2</ele>
        <time>2020-06-03T13:05:12.000Z</time>
      </trkpt>
      <trkpt lat="42.99035" lon="2.92898">
        <ele>108.4</ele>
        <time>2020-06-03T13:05:13.000Z</time>
      </trkpt>
      <trkpt lat="42.99033" lon="2.929">
        <ele>108.4</ele>
        <time>2020-06-03T13:05:14.000Z</time>
      </trkpt>
      <trkpt lat="42.99029" lon="2.92901">
        <ele>108.4</ele>
        <time>2020-06-03T13:05:16.000Z</time>
      </trkpt>
      <trkpt lat="42.99028" lon="2.92901">
        <ele>108.8</ele>
        <time>2020-06-03T13:05:17.000Z</time>
      </trkpt>
      <trkpt lat="42.99026" lon="2.92899">
        <ele>109.4</ele>
        <time>2020-06-03T13:05:18.000Z</time>
      </trkpt>
      <trkpt lat="42.99025" lon="2.92896">
        <ele>109.8</ele>
        <time>2020-06-03T13:05:19.000Z</time>
      </trkpt>
      <trkpt lat="42.99021" lon="2.92895">
        <ele>110.2</ele>
        <time>2020-06-03T13:05:20.000Z</time>
      </trkpt>
      <trkpt lat="42.99018" lon="2.92892">
        <ele>110.8</ele>
        <time>2020-06-03T13:05:21.000Z</time>
      </trkpt>
      <trkpt lat="42.99006" lon="2.92892">
        <ele>110.4</ele>
        <time>2020-06-03T13:05:24.000Z</time>
      </trkpt>
      <trkpt lat="42.99004" lon="2.92894">
        <ele>110</ele>
        <time>2020-06-03T13:05:25.000Z</time>
      </trkpt>
      <trkpt lat="42.99003" lon="2.92895">
        <ele>109.6</ele>
        <time>2020-06-03T13:05:26.000Z</time>
      </trkpt>
      <trkpt lat="42.99002" lon="2.92896">
        <ele>109.2</ele>
        <time>2020-06-03T13:05:27.000Z</time>
      </trkpt>
      <trkpt lat="42.99" lon="2.92898">
        <ele>108.8</ele>
        <time>2020-06-03T13:05:28.000Z</time>
      </trkpt>
      <trkpt lat="42.98999" lon="2.92901">
        <ele>109.2</ele>
        <time>2020-06-03T13:05:30.000Z</time>
      </trkpt>
      <trkpt lat="42.98998" lon="2.92902">
        <ele>109.6</ele>
        <time>2020-06-03T13:05:31.000Z</time>
      </trkpt>
      <trkpt lat="42.98996" lon="2.92904">
        <ele>110</ele>
        <time>2020-06-03T13:05:32.000Z</time>
      </trkpt>
      <trkpt lat="42.98995" lon="2.92906">
        <ele>110.4</ele>
        <time>2020-06-03T13:05:33.000Z</time>
      </trkpt>
      <trkpt lat="42.98994" lon="2.92908">
        <ele>110.8</ele>
        <time>2020-06-03T13:05:34.000Z</time>
      </trkpt>
      <trkpt lat="42.98994" lon="2.92915">
        <ele>110.8</ele>
        <time>2020-06-03T13:05:35.000Z</time>
      </trkpt>
      <trkpt lat="42.98994" lon="2.92921">
        <ele>110.8</ele>
        <time>2020-06-03T13:05:36.000Z</time>
      </trkpt>
      <trkpt lat="42.98995" lon="2.92939">
        <ele>111.2</ele>
        <time>2020-06-03T13:05:40.000Z</time>
      </trkpt>
      <trkpt lat="42.98997" lon="2.92942">
        <ele>112</ele>
        <time>2020-06-03T13:05:41.000Z</time>
      </trkpt>
      <trkpt lat="42.98997" lon="2.92946">
        <ele>112.6</ele>
        <time>2020-06-03T13:05:42.000Z</time>
      </trkpt>
      <trkpt lat="42.98998" lon="2.9295">
        <ele>113</ele>
        <time>2020-06-03T13:05:43.000Z</time>
      </trkpt>
      <trkpt lat="42.98999" lon="2.92955">
        <ele>113</ele>
        <time>2020-06-03T13:05:44.000Z</time>
      </trkpt>
      <trkpt lat="42.99001" lon="2.92972">
        <ele>113</ele>
        <time>2020-06-03T13:05:48.000Z</time>
      </trkpt>
      <trkpt lat="42.99001" lon="2.92981">
        <ele>113</ele>
        <time>2020-06-03T13:05:51.000Z</time>
      </trkpt>
      <trkpt lat="42.99" lon="2.92983">
        <ele>112.6</ele>
        <time>2020-06-03T13:05:52.000Z</time>
      </trkpt>
      <trkpt lat="42.98999" lon="2.92986">
        <ele>112.2</ele>
        <time>2020-06-03T13:05:53.000Z</time>
      </trkpt>
      <trkpt lat="42.98999" lon="2.92989">
        <ele>111.8</ele>
        <time>2020-06-03T13:05:54.000Z</time>
      </trkpt>
      <trkpt lat="42.98998" lon="2.92992">
        <ele>111.4</ele>
        <time>2020-06-03T13:05:55.000Z</time>
      </trkpt>
      <trkpt lat="42.98997" lon="2.92997">
        <ele>111</ele>
        <time>2020-06-03T13:05:56.000Z</time>
      </trkpt>
      <trkpt lat="42.98997" lon="2.93009">
        <ele>110.6</ele>
        <time>2020-06-03T13:05:59.000Z</time>
      </trkpt>
      <trkpt lat="42.98995" lon="2.93013">
        <ele>110.2</ele>
        <time>2020-06-03T13:06:00.000Z</time>
      </trkpt>
      <trkpt lat="42.98994" lon="2.93017">
        <ele>109.6</ele>
        <time>2020-06-03T13:06:01.000Z</time>
      </trkpt>
      <trkpt lat="42.98993" lon="2.93021">
        <ele>109.2</ele>
        <time>2020-06-03T13:06:02.000Z</time>
      </trkpt>
      <trkpt lat="42.98991" lon="2.93025">
        <ele>108.8</ele>
        <time>2020-06-03T13:06:03.000Z</time>
      </trkpt>
      <trkpt lat="42.98989" lon="2.93031">
        <ele>108.2</ele>
        <time>2020-06-03T13:06:04.000Z</time>
      </trkpt>
      <trkpt lat="42.98989" lon="2.93038">
        <ele>107.8</ele>
        <time>2020-06-03T13:06:05.000Z</time>
      </trkpt>
      <trkpt lat="42.98989" lon="2.93042">
        <ele>106.4</ele>
        <time>2020-06-03T13:06:06.000Z</time>
      </trkpt>
      <trkpt lat="42.98987" lon="2.93043">
        <ele>105.6</ele>
        <time>2020-06-03T13:06:07.000Z</time>
      </trkpt>
      <trkpt lat="42.98986" lon="2.93045">
        <ele>105</ele>
        <time>2020-06-03T13:06:08.000Z</time>
      </trkpt>
      <trkpt lat="42.98984" lon="2.93046">
        <ele>104.2</ele>
        <time>2020-06-03T13:06:09.000Z</time>
      </trkpt>
      <trkpt lat="42.98977" lon="2.93053">
        <ele>104.2</ele>
        <time>2020-06-03T13:06:12.000Z</time>
      </trkpt>
      <trkpt lat="42.98965" lon="2.93062">
        <ele>104.2</ele>
        <time>2020-06-03T13:06:16.000Z</time>
      </trkpt>
      <trkpt lat="42.98953" lon="2.93081">
        <ele>104.2</ele>
        <time>2020-06-03T13:06:21.000Z</time>
      </trkpt>
      <trkpt lat="42.98943" lon="2.93107">
        <ele>104.2</ele>
        <time>2020-06-03T13:06:26.000Z</time>
      </trkpt>
      <trkpt lat="42.98935" lon="2.93126">
        <ele>104.2</ele>
        <time>2020-06-03T13:06:29.000Z</time>
      </trkpt>
      <trkpt lat="42.98936" lon="2.93131">
        <ele>104.2</ele>
        <time>2020-06-03T13:06:30.000Z</time>
      </trkpt>
      <trkpt lat="42.98937" lon="2.93149">
        <ele>103.8</ele>
        <time>2020-06-03T13:06:34.000Z</time>
      </trkpt>
      <trkpt lat="42.98935" lon="2.93151">
        <ele>103.4</ele>
        <time>2020-06-03T13:06:35.000Z</time>
      </trkpt>
      <trkpt lat="42.98933" lon="2.93155">
        <ele>103</ele>
        <time>2020-06-03T13:06:36.000Z</time>
      </trkpt>
      <trkpt lat="42.9893" lon="2.93158">
        <ele>102.6</ele>
        <time>2020-06-03T13:06:37.000Z</time>
      </trkpt>
      <trkpt lat="42.98927" lon="2.9316">
        <ele>102</ele>
        <time>2020-06-03T13:06:38.000Z</time>
      </trkpt>
      <trkpt lat="42.98926" lon="2.93158">
        <ele>102</ele>
        <time>2020-06-03T13:06:40.000Z</time>
      </trkpt>
      <trkpt lat="42.98926" lon="2.93156">
        <ele>102</ele>
        <time>2020-06-03T13:06:42.000Z</time>
      </trkpt>
      <trkpt lat="42.98925" lon="2.93154">
        <ele>102</ele>
        <time>2020-06-03T13:06:44.000Z</time>
      </trkpt>
      <trkpt lat="42.98919" lon="2.93149">
        <ele>102</ele>
        <time>2020-06-03T13:06:48.000Z</time>
      </trkpt>
      <trkpt lat="42.98915" lon="2.93155">
        <ele>102</ele>
        <time>2020-06-03T13:06:51.000Z</time>
      </trkpt>
      <trkpt lat="42.98911" lon="2.93166">
        <ele>102</ele>
        <time>2020-06-03T13:06:56.000Z</time>
      </trkpt>
      <trkpt lat="42.98912" lon="2.93174">
        <ele>102</ele>
        <time>2020-06-03T13:06:58.000Z</time>
      </trkpt>
      <trkpt lat="42.9891" lon="2.93178">
        <ele>102</ele>
        <time>2020-06-03T13:06:59.000Z</time>
      </trkpt>
      <trkpt lat="42.9891" lon="2.9319">
        <ele>102</ele>
        <time>2020-06-03T13:07:03.000Z</time>
      </trkpt>
      <trkpt lat="42.9891" lon="2.93192">
        <ele>102.6</ele>
        <time>2020-06-03T13:07:04.000Z</time>
      </trkpt>
      <trkpt lat="42.98911" lon="2.93194">
        <ele>103.2</ele>
        <time>2020-06-03T13:07:05.000Z</time>
      </trkpt>
      <trkpt lat="42.98912" lon="2.93198">
        <ele>103.6</ele>
        <time>2020-06-03T13:07:06.000Z</time>
      </trkpt>
      <trkpt lat="42.98911" lon="2.93202">
        <ele>104.2</ele>
        <time>2020-06-03T13:07:07.000Z</time>
      </trkpt>
      <trkpt lat="42.9891" lon="2.93206">
        <ele>104.8</ele>
        <time>2020-06-03T13:07:08.000Z</time>
      </trkpt>
      <trkpt lat="42.98908" lon="2.93224">
        <ele>104.8</ele>
        <time>2020-06-03T13:07:12.000Z</time>
      </trkpt>
      <trkpt lat="42.98907" lon="2.93237">
        <ele>104.8</ele>
        <time>2020-06-03T13:07:15.000Z</time>
      </trkpt>
      <trkpt lat="42.98902" lon="2.93247">
        <ele>104.8</ele>
        <time>2020-06-03T13:07:18.000Z</time>
      </trkpt>
      <trkpt lat="42.98898" lon="2.93253">
        <ele>105.2</ele>
        <time>2020-06-03T13:07:20.000Z</time>
      </trkpt>
      <trkpt lat="42.98897" lon="2.93255">
        <ele>105.6</ele>
        <time>2020-06-03T13:07:21.000Z</time>
      </trkpt>
      <trkpt lat="42.98897" lon="2.93258">
        <ele>106</ele>
        <time>2020-06-03T13:07:22.000Z</time>
      </trkpt>
      <trkpt lat="42.98897" lon="2.93261">
        <ele>106.6</ele>
        <time>2020-06-03T13:07:23.000Z</time>
      </trkpt>
      <trkpt lat="42.98897" lon="2.93264">
        <ele>107</ele>
        <time>2020-06-03T13:07:24.000Z</time>
      </trkpt>
      <trkpt lat="42.98897" lon="2.93266">
        <ele>107</ele>
        <time>2020-06-03T13:07:25.000Z</time>
      </trkpt>
      <trkpt lat="42.98897" lon="2.93272">
        <ele>107</ele>
        <time>2020-06-03T13:07:27.000Z</time>
      </trkpt>
      <trkpt lat="42.98895" lon="2.93278">
        <ele>107</ele>
        <time>2020-06-03T13:07:29.000Z</time>
      </trkpt>
      <trkpt lat="42.98894" lon="2.93282">
        <ele>107</ele>
        <time>2020-06-03T13:07:30.000Z</time>
      </trkpt>
      <trkpt lat="42.98888" lon="2.93296">
        <ele>107</ele>
        <time>2020-06-03T13:07:34.000Z</time>
      </trkpt>
      <trkpt lat="42.9888" lon="2.93313">
        <ele>107</ele>
        <time>2020-06-03T13:07:38.000Z</time>
      </trkpt>
      <trkpt lat="42.9887" lon="2.93333">
        <ele>107</ele>
        <time>2020-06-03T13:07:42.000Z</time>
      </trkpt>
      <trkpt lat="42.98868" lon="2.93335">
        <ele>107</ele>
        <time>2020-06-03T13:07:43.000Z</time>
      </trkpt>
      <trkpt lat="42.98855" lon="2.93349">
        <ele>107</ele>
        <time>2020-06-03T13:07:48.000Z</time>
      </trkpt>
      <trkpt lat="42.98845" lon="2.93359">
        <ele>107</ele>
        <time>2020-06-03T13:07:51.000Z</time>
      </trkpt>
      <trkpt lat="42.98842" lon="2.93362">
        <ele>107</ele>
        <time>2020-06-03T13:07:52.000Z</time>
      </trkpt>
      <trkpt lat="42.98828" lon="2.93379">
        <ele>107</ele>
        <time>2020-06-03T13:07:57.000Z</time>
      </trkpt>
      <trkpt lat="42.98818" lon="2.93394">
        <ele>107</ele>
        <time>2020-06-03T13:08:02.000Z</time>
      </trkpt>
      <trkpt lat="42.98815" lon="2.934">
        <ele>107</ele>
        <time>2020-06-03T13:08:05.000Z</time>
      </trkpt>
      <trkpt lat="42.98814" lon="2.93405">
        <ele>107</ele>
        <time>2020-06-03T13:08:08.000Z</time>
      </trkpt>
      <trkpt lat="42.98814" lon="2.93414">
        <ele>107</ele>
        <time>2020-06-03T13:08:12.000Z</time>
      </trkpt>
      <trkpt lat="42.98821" lon="2.93427">
        <ele>106.6</ele>
        <time>2020-06-03T13:08:16.000Z</time>
      </trkpt>
      <trkpt lat="42.98823" lon="2.93429">
        <ele>106</ele>
        <time>2020-06-03T13:08:17.000Z</time>
      </trkpt>
      <trkpt lat="42.98825" lon="2.93432">
        <ele>105.6</ele>
        <time>2020-06-03T13:08:18.000Z</time>
      </trkpt>
      <trkpt lat="42.98828" lon="2.93434">
        <ele>105.2</ele>
        <time>2020-06-03T13:08:19.000Z</time>
      </trkpt>
      <trkpt lat="42.98831" lon="2.93433">
        <ele>104.6</ele>
        <time>2020-06-03T13:08:20.000Z</time>
      </trkpt>
      <trkpt lat="42.98834" lon="2.93433">
        <ele>104.2</ele>
        <time>2020-06-03T13:08:21.000Z</time>
      </trkpt>
      <trkpt lat="42.98837" lon="2.93434">
        <ele>103.6</ele>
        <time>2020-06-03T13:08:22.000Z</time>
      </trkpt>
      <trkpt lat="42.9884" lon="2.93432">
        <ele>103.2</ele>
        <time>2020-06-03T13:08:23.000Z</time>
      </trkpt>
      <trkpt lat="42.98842" lon="2.93431">
        <ele>102.6</ele>
        <time>2020-06-03T13:08:24.000Z</time>
      </trkpt>
      <trkpt lat="42.98845" lon="2.93429">
        <ele>102.2</ele>
        <time>2020-06-03T13:08:25.000Z</time>
      </trkpt>
      <trkpt lat="42.98849" lon="2.9343">
        <ele>101.6</ele>
        <time>2020-06-03T13:08:26.000Z</time>
      </trkpt>
      <trkpt lat="42.98852" lon="2.93433">
        <ele>101</ele>
        <time>2020-06-03T13:08:27.000Z</time>
      </trkpt>
      <trkpt lat="42.98856" lon="2.93434">
        <ele>100.6</ele>
        <time>2020-06-03T13:08:28.000Z</time>
      </trkpt>
      <trkpt lat="42.98859" lon="2.93433">
        <ele>100</ele>
        <time>2020-06-03T13:08:29.000Z</time>
      </trkpt>
      <trkpt lat="42.98868" lon="2.93431">
        <ele>100</ele>
        <time>2020-06-03T13:08:32.000Z</time>
      </trkpt>
      <trkpt lat="42.98879" lon="2.9343">
        <ele>99.6</ele>
        <time>2020-06-03T13:08:35.000Z</time>
      </trkpt>
      <trkpt lat="42.98882" lon="2.93429">
        <ele>99.2</ele>
        <time>2020-06-03T13:08:36.000Z</time>
      </trkpt>
      <trkpt lat="42.98883" lon="2.93429">
        <ele>98.8</ele>
        <time>2020-06-03T13:08:37.000Z</time>
      </trkpt>
      <trkpt lat="42.98886" lon="2.93433">
        <ele>98.4</ele>
        <time>2020-06-03T13:08:38.000Z</time>
      </trkpt>
      <trkpt lat="42.98887" lon="2.93436">
        <ele>98</ele>
        <time>2020-06-03T13:08:39.000Z</time>
      </trkpt>
      <trkpt lat="42.98896" lon="2.93443">
        <ele>98</ele>
        <time>2020-06-03T13:08:44.000Z</time>
      </trkpt>
      <trkpt lat="42.98899" lon="2.93447">
        <ele>98</ele>
        <time>2020-06-03T13:08:46.000Z</time>
      </trkpt>
      <trkpt lat="42.98899" lon="2.93449">
        <ele>98</ele>
        <time>2020-06-03T13:08:47.000Z</time>
      </trkpt>
      <trkpt lat="42.98899" lon="2.93453">
        <ele>98</ele>
        <time>2020-06-03T13:08:49.000Z</time>
      </trkpt>
      <trkpt lat="42.98898" lon="2.93455">
        <ele>98.4</ele>
        <time>2020-06-03T13:08:50.000Z</time>
      </trkpt>
      <trkpt lat="42.98897" lon="2.93456">
        <ele>98.8</ele>
        <time>2020-06-03T13:08:51.000Z</time>
      </trkpt>
      <trkpt lat="42.98896" lon="2.93457">
        <ele>99.2</ele>
        <time>2020-06-03T13:08:52.000Z</time>
      </trkpt>
      <trkpt lat="42.98896" lon="2.93459">
        <ele>99.8</ele>
        <time>2020-06-03T13:08:53.000Z</time>
      </trkpt>
      <trkpt lat="42.98896" lon="2.9346">
        <ele>100.2</ele>
        <time>2020-06-03T13:08:54.000Z</time>
      </trkpt>
      <trkpt lat="42.98895" lon="2.93469">
        <ele>100.2</ele>
        <time>2020-06-03T13:08:58.000Z</time>
      </trkpt>
      <trkpt lat="42.98894" lon="2.93471">
        <ele>101</ele>
        <time>2020-06-03T13:08:59.000Z</time>
      </trkpt>
      <trkpt lat="42.98894" lon="2.93473">
        <ele>101.4</ele>
        <time>2020-06-03T13:09:00.000Z</time>
      </trkpt>
      <trkpt lat="42.98894" lon="2.93475">
        <ele>101.8</ele>
        <time>2020-06-03T13:09:01.000Z</time>
      </trkpt>
      <trkpt lat="42.98895" lon="2.93478">
        <ele>102.2</ele>
        <time>2020-06-03T13:09:02.000Z</time>
      </trkpt>
      <trkpt lat="42.98897" lon="2.93485">
        <ele>102.2</ele>
        <time>2020-06-03T13:09:04.000Z</time>
      </trkpt>
      <trkpt lat="42.98893" lon="2.93499">
        <ele>102.2</ele>
        <time>2020-06-03T13:09:09.000Z</time>
      </trkpt>
      <trkpt lat="42.98884" lon="2.93499">
        <ele>102.2</ele>
        <time>2020-06-03T13:09:13.000Z</time>
      </trkpt>
      <trkpt lat="42.98883" lon="2.93499">
        <ele>102.2</ele>
        <time>2020-06-03T13:09:14.000Z</time>
      </trkpt>
      <trkpt lat="42.98883" lon="2.93501">
        <ele>102.2</ele>
        <time>2020-06-03T13:09:16.000Z</time>
      </trkpt>
      <trkpt lat="42.98884" lon="2.935">
        <ele>102.2</ele>
        <time>2020-06-03T13:09:23.000Z</time>
      </trkpt>
      <trkpt lat="42.98895" lon="2.93499">
        <ele>102.2</ele>
        <time>2020-06-03T13:09:27.000Z</time>
      </trkpt>
      <trkpt lat="42.98896" lon="2.93496">
        <ele>102.2</ele>
        <time>2020-06-03T13:09:28.000Z</time>
      </trkpt>
      <trkpt lat="42.98896" lon="2.9349">
        <ele>102.2</ele>
        <time>2020-06-03T13:09:30.000Z</time>
      </trkpt>
      <trkpt lat="42.98893" lon="2.93474">
        <ele>102.2</ele>
        <time>2020-06-03T13:09:34.000Z</time>
      </trkpt>
      <trkpt lat="42.98893" lon="2.93466">
        <ele>102.2</ele>
        <time>2020-06-03T13:09:39.000Z</time>
      </trkpt>
      <trkpt lat="42.98898" lon="2.93453">
        <ele>102.2</ele>
        <time>2020-06-03T13:09:43.000Z</time>
      </trkpt>
      <trkpt lat="42.98902" lon="2.93455">
        <ele>102.2</ele>
        <time>2020-06-03T13:09:47.000Z</time>
      </trkpt>
      <trkpt lat="42.98902" lon="2.93457">
        <ele>102.2</ele>
        <time>2020-06-03T13:09:48.000Z</time>
      </trkpt>
      <trkpt lat="42.98902" lon="2.93459">
        <ele>101.8</ele>
        <time>2020-06-03T13:09:49.000Z</time>
      </trkpt>
      <trkpt lat="42.98903" lon="2.93462">
        <ele>101.4</ele>
        <time>2020-06-03T13:09:50.000Z</time>
      </trkpt>
      <trkpt lat="42.98903" lon="2.93464">
        <ele>101</ele>
        <time>2020-06-03T13:09:51.000Z</time>
      </trkpt>
      <trkpt lat="42.98904" lon="2.93465">
        <ele>100.6</ele>
        <time>2020-06-03T13:09:52.000Z</time>
      </trkpt>
      <trkpt lat="42.98906" lon="2.93467">
        <ele>100.2</ele>
        <time>2020-06-03T13:09:53.000Z</time>
      </trkpt>
      <trkpt lat="42.98908" lon="2.93469">
        <ele>100.2</ele>
        <time>2020-06-03T13:09:54.000Z</time>
      </trkpt>
      <trkpt lat="42.9891" lon="2.93472">
        <ele>99.8</ele>
        <time>2020-06-03T13:09:55.000Z</time>
      </trkpt>
      <trkpt lat="42.9891" lon="2.93476">
        <ele>99.2</ele>
        <time>2020-06-03T13:09:56.000Z</time>
      </trkpt>
      <trkpt lat="42.98911" lon="2.93478">
        <ele>98.8</ele>
        <time>2020-06-03T13:09:57.000Z</time>
      </trkpt>
      <trkpt lat="42.98912" lon="2.9348">
        <ele>98.4</ele>
        <time>2020-06-03T13:09:58.000Z</time>
      </trkpt>
      <trkpt lat="42.98912" lon="2.93482">
        <ele>97.8</ele>
        <time>2020-06-03T13:09:59.000Z</time>
      </trkpt>
      <trkpt lat="42.98913" lon="2.93488">
        <ele>97.8</ele>
        <time>2020-06-03T13:10:01.000Z</time>
      </trkpt>
      <trkpt lat="42.98914" lon="2.93501">
        <ele>97.8</ele>
        <time>2020-06-03T13:10:04.000Z</time>
      </trkpt>
      <trkpt lat="42.98916" lon="2.9351">
        <ele>97.8</ele>
        <time>2020-06-03T13:10:08.000Z</time>
      </trkpt>
      <trkpt lat="42.98919" lon="2.93514">
        <ele>97.8</ele>
        <time>2020-06-03T13:10:11.000Z</time>
      </trkpt>
      <trkpt lat="42.98923" lon="2.93517">
        <ele>97</ele>
        <time>2020-06-03T13:10:13.000Z</time>
      </trkpt>
      <trkpt lat="42.98925" lon="2.9352">
        <ele>96.6</ele>
        <time>2020-06-03T13:10:14.000Z</time>
      </trkpt>
      <trkpt lat="42.98927" lon="2.93524">
        <ele>96</ele>
        <time>2020-06-03T13:10:15.000Z</time>
      </trkpt>
      <trkpt lat="42.98928" lon="2.93528">
        <ele>95.6</ele>
        <time>2020-06-03T13:10:16.000Z</time>
      </trkpt>
      <trkpt lat="42.98929" lon="2.93532">
        <ele>95.6</ele>
        <time>2020-06-03T13:10:17.000Z</time>
      </trkpt>
      <trkpt lat="42.98933" lon="2.93555">
        <ele>95.2</ele>
        <time>2020-06-03T13:10:22.000Z</time>
      </trkpt>
      <trkpt lat="42.98934" lon="2.9356">
        <ele>94.8</ele>
        <time>2020-06-03T13:10:23.000Z</time>
      </trkpt>
      <trkpt lat="42.98935" lon="2.93566">
        <ele>94.4</ele>
        <time>2020-06-03T13:10:24.000Z</time>
      </trkpt>
      <trkpt lat="42.98935" lon="2.93571">
        <ele>94</ele>
        <time>2020-06-03T13:10:25.000Z</time>
      </trkpt>
      <trkpt lat="42.98936" lon="2.93574">
        <ele>93.6</ele>
        <time>2020-06-03T13:10:26.000Z</time>
      </trkpt>
      <trkpt lat="42.98937" lon="2.93578">
        <ele>93.6</ele>
        <time>2020-06-03T13:10:28.000Z</time>
      </trkpt>
      <trkpt lat="42.98935" lon="2.93583">
        <ele>93.6</ele>
        <time>2020-06-03T13:10:31.000Z</time>
      </trkpt>
      <trkpt lat="42.98934" lon="2.93585">
        <ele>93.6</ele>
        <time>2020-06-03T13:10:32.000Z</time>
      </trkpt>
      <trkpt lat="42.98931" lon="2.93593">
        <ele>93.6</ele>
        <time>2020-06-03T13:10:36.000Z</time>
      </trkpt>
      <trkpt lat="42.98924" lon="2.93603">
        <ele>93.6</ele>
        <time>2020-06-03T13:10:40.000Z</time>
      </trkpt>
      <trkpt lat="42.98914" lon="2.93617">
        <ele>93.6</ele>
        <time>2020-06-03T13:10:46.000Z</time>
      </trkpt>
      <trkpt lat="42.98907" lon="2.93626">
        <ele>94</ele>
        <time>2020-06-03T13:10:50.000Z</time>
      </trkpt>
      <trkpt lat="42.98905" lon="2.93628">
        <ele>94.4</ele>
        <time>2020-06-03T13:10:51.000Z</time>
      </trkpt>
      <trkpt lat="42.98903" lon="2.93628">
        <ele>94.8</ele>
        <time>2020-06-03T13:10:52.000Z</time>
      </trkpt>
      <trkpt lat="42.98901" lon="2.93627">
        <ele>95.2</ele>
        <time>2020-06-03T13:10:53.000Z</time>
      </trkpt>
      <trkpt lat="42.989" lon="2.93626">
        <ele>95.6</ele>
        <time>2020-06-03T13:10:54.000Z</time>
      </trkpt>
      <trkpt lat="42.98898" lon="2.93626">
        <ele>95.6</ele>
        <time>2020-06-03T13:10:55.000Z</time>
      </trkpt>
      <trkpt lat="42.98896" lon="2.93627">
        <ele>96</ele>
        <time>2020-06-03T13:10:56.000Z</time>
      </trkpt>
      <trkpt lat="42.98894" lon="2.93627">
        <ele>96.4</ele>
        <time>2020-06-03T13:10:57.000Z</time>
      </trkpt>
      <trkpt lat="42.98892" lon="2.93626">
        <ele>96.8</ele>
        <time>2020-06-03T13:10:58.000Z</time>
      </trkpt>
      <trkpt lat="42.98891" lon="2.93626">
        <ele>97.2</ele>
        <time>2020-06-03T13:10:59.000Z</time>
      </trkpt>
      <trkpt lat="42.98889" lon="2.93626">
        <ele>97.6</ele>
        <time>2020-06-03T13:11:00.000Z</time>
      </trkpt>
      <trkpt lat="42.98887" lon="2.93627">
        <ele>98.2</ele>
        <time>2020-06-03T13:11:01.000Z</time>
      </trkpt>
      <trkpt lat="42.98885" lon="2.93628">
        <ele>98.6</ele>
        <time>2020-06-03T13:11:02.000Z</time>
      </trkpt>
      <trkpt lat="42.98883" lon="2.9363">
        <ele>99.6</ele>
        <time>2020-06-03T13:11:03.000Z</time>
      </trkpt>
      <trkpt lat="42.98881" lon="2.93631">
        <ele>100</ele>
        <time>2020-06-03T13:11:04.000Z</time>
      </trkpt>
      <trkpt lat="42.98871" lon="2.93647">
        <ele>100</ele>
        <time>2020-06-03T13:11:09.000Z</time>
      </trkpt>
      <trkpt lat="42.98864" lon="2.93657">
        <ele>100</ele>
        <time>2020-06-03T13:11:13.000Z</time>
      </trkpt>
      <trkpt lat="42.9886" lon="2.93661">
        <ele>100</ele>
        <time>2020-06-03T13:11:15.000Z</time>
      </trkpt>
      <trkpt lat="42.98857" lon="2.93658">
        <ele>100</ele>
        <time>2020-06-03T13:11:17.000Z</time>
      </trkpt>
      <trkpt lat="42.98852" lon="2.9366">
        <ele>100</ele>
        <time>2020-06-03T13:11:19.000Z</time>
      </trkpt>
      <trkpt lat="42.98851" lon="2.93661">
        <ele>100.4</ele>
        <time>2020-06-03T13:11:20.000Z</time>
      </trkpt>
      <trkpt lat="42.98848" lon="2.93664">
        <ele>100.8</ele>
        <time>2020-06-03T13:11:21.000Z</time>
      </trkpt>
      <trkpt lat="42.98845" lon="2.93667">
        <ele>101.2</ele>
        <time>2020-06-03T13:11:22.000Z</time>
      </trkpt>
      <trkpt lat="42.98843" lon="2.9367">
        <ele>101.6</ele>
        <time>2020-06-03T13:11:23.000Z</time>
      </trkpt>
      <trkpt lat="42.98841" lon="2.9367">
        <ele>102.2</ele>
        <time>2020-06-03T13:11:24.000Z</time>
      </trkpt>
      <trkpt lat="42.98837" lon="2.93671">
        <ele>102.2</ele>
        <time>2020-06-03T13:11:26.000Z</time>
      </trkpt>
      <trkpt lat="42.98824" lon="2.93681">
        <ele>102.2</ele>
        <time>2020-06-03T13:11:31.000Z</time>
      </trkpt>
      <trkpt lat="42.9882" lon="2.93684">
        <ele>102.2</ele>
        <time>2020-06-03T13:11:33.000Z</time>
      </trkpt>
      <trkpt lat="42.98815" lon="2.9369">
        <ele>102.2</ele>
        <time>2020-06-03T13:11:35.000Z</time>
      </trkpt>
      <trkpt lat="42.98801" lon="2.93699">
        <ele>102.2</ele>
        <time>2020-06-03T13:11:39.000Z</time>
      </trkpt>
      <trkpt lat="42.98791" lon="2.93707">
        <ele>102.2</ele>
        <time>2020-06-03T13:11:43.000Z</time>
      </trkpt>
      <trkpt lat="42.98791" lon="2.9371">
        <ele>102.2</ele>
        <time>2020-06-03T13:11:44.000Z</time>
      </trkpt>
      <trkpt lat="42.9879" lon="2.93719">
        <ele>102.2</ele>
        <time>2020-06-03T13:11:46.000Z</time>
      </trkpt>
      <trkpt lat="42.98785" lon="2.93724">
        <ele>102.2</ele>
        <time>2020-06-03T13:11:48.000Z</time>
      </trkpt>
      <trkpt lat="42.98782" lon="2.93726">
        <ele>102.2</ele>
        <time>2020-06-03T13:11:49.000Z</time>
      </trkpt>
      <trkpt lat="42.98773" lon="2.93736">
        <ele>102.2</ele>
        <time>2020-06-03T13:11:53.000Z</time>
      </trkpt>
      <trkpt lat="42.98768" lon="2.93753">
        <ele>102.2</ele>
        <time>2020-06-03T13:11:58.000Z</time>
      </trkpt>
      <trkpt lat="42.98768" lon="2.93757">
        <ele>102.2</ele>
        <time>2020-06-03T13:11:59.000Z</time>
      </trkpt>
      <trkpt lat="42.98768" lon="2.93761">
        <ele>101.6</ele>
        <time>2020-06-03T13:12:00.000Z</time>
      </trkpt>
      <trkpt lat="42.98767" lon="2.93766">
        <ele>101.2</ele>
        <time>2020-06-03T13:12:01.000Z</time>
      </trkpt>
      <trkpt lat="42.98767" lon="2.9377">
        <ele>100.8</ele>
        <time>2020-06-03T13:12:02.000Z</time>
      </trkpt>
      <trkpt lat="42.98768" lon="2.93773">
        <ele>100.4</ele>
        <time>2020-06-03T13:12:03.000Z</time>
      </trkpt>
      <trkpt lat="42.98769" lon="2.93776">
        <ele>100</ele>
        <time>2020-06-03T13:12:04.000Z</time>
      </trkpt>
      <trkpt lat="42.98771" lon="2.93777">
        <ele>100</ele>
        <time>2020-06-03T13:12:05.000Z</time>
      </trkpt>
      <trkpt lat="42.98773" lon="2.93777">
        <ele>100</ele>
        <time>2020-06-03T13:12:07.000Z</time>
      </trkpt>
      <trkpt lat="42.98776" lon="2.93775">
        <ele>100</ele>
        <time>2020-06-03T13:12:09.000Z</time>
      </trkpt>
      <trkpt lat="42.98777" lon="2.93774">
        <ele>100</ele>
        <time>2020-06-03T13:12:10.000Z</time>
      </trkpt>
      <trkpt lat="42.9878" lon="2.93769">
        <ele>100</ele>
        <time>2020-06-03T13:12:14.000Z</time>
      </trkpt>
      <trkpt lat="42.98782" lon="2.93769">
        <ele>100</ele>
        <time>2020-06-03T13:12:16.000Z</time>
      </trkpt>
      <trkpt lat="42.98781" lon="2.93772">
        <ele>100</ele>
        <time>2020-06-03T13:12:32.000Z</time>
      </trkpt>
      <trkpt lat="42.98782" lon="2.93771">
        <ele>100</ele>
        <time>2020-06-03T13:12:33.000Z</time>
      </trkpt>
      <trkpt lat="42.9878" lon="2.93774">
        <ele>100</ele>
        <time>2020-06-03T13:12:35.000Z</time>
      </trkpt>
      <trkpt lat="42.98778" lon="2.93777">
        <ele>100</ele>
        <time>2020-06-03T13:12:37.000Z</time>
      </trkpt>
      <trkpt lat="42.98769" lon="2.9378">
        <ele>100</ele>
        <time>2020-06-03T13:12:42.000Z</time>
      </trkpt>
      <trkpt lat="42.98765" lon="2.93769">
        <ele>100</ele>
        <time>2020-06-03T13:12:47.000Z</time>
      </trkpt>
      <trkpt lat="42.98765" lon="2.93767">
        <ele>100</ele>
        <time>2020-06-03T13:12:48.000Z</time>
      </trkpt>
      <trkpt lat="42.98761" lon="2.93761">
        <ele>100</ele>
        <time>2020-06-03T13:12:52.000Z</time>
      </trkpt>
      <trkpt lat="42.98749" lon="2.93761">
        <ele>100</ele>
        <time>2020-06-03T13:12:57.000Z</time>
      </trkpt>
      <trkpt lat="42.98746" lon="2.93761">
        <ele>100</ele>
        <time>2020-06-03T13:12:58.000Z</time>
      </trkpt>
      <trkpt lat="42.98736" lon="2.93766">
        <ele>100</ele>
        <time>2020-06-03T13:13:02.000Z</time>
      </trkpt>
      <trkpt lat="42.98731" lon="2.93768">
        <ele>100</ele>
        <time>2020-06-03T13:13:04.000Z</time>
      </trkpt>
      <trkpt lat="42.98726" lon="2.93768">
        <ele>100</ele>
        <time>2020-06-03T13:13:06.000Z</time>
      </trkpt>
      <trkpt lat="42.98718" lon="2.93767">
        <ele>100.4</ele>
        <time>2020-06-03T13:13:09.000Z</time>
      </trkpt>
      <trkpt lat="42.98716" lon="2.93766">
        <ele>100.8</ele>
        <time>2020-06-03T13:13:10.000Z</time>
      </trkpt>
      <trkpt lat="42.98713" lon="2.93765">
        <ele>101.2</ele>
        <time>2020-06-03T13:13:11.000Z</time>
      </trkpt>
      <trkpt lat="42.98711" lon="2.93762">
        <ele>101.6</ele>
        <time>2020-06-03T13:13:12.000Z</time>
      </trkpt>
      <trkpt lat="42.98709" lon="2.93761">
        <ele>102.2</ele>
        <time>2020-06-03T13:13:13.000Z</time>
      </trkpt>
      <trkpt lat="42.98708" lon="2.93761">
        <ele>102.2</ele>
        <time>2020-06-03T13:13:14.000Z</time>
      </trkpt>
      <trkpt lat="42.98703" lon="2.93759">
        <ele>102.2</ele>
        <time>2020-06-03T13:13:16.000Z</time>
      </trkpt>
      <trkpt lat="42.98692" lon="2.93762">
        <ele>102.2</ele>
        <time>2020-06-03T13:13:20.000Z</time>
      </trkpt>
      <trkpt lat="42.98689" lon="2.93762">
        <ele>102.2</ele>
        <time>2020-06-03T13:13:21.000Z</time>
      </trkpt>
      <trkpt lat="42.98682" lon="2.93765">
        <ele>102.2</ele>
        <time>2020-06-03T13:13:24.000Z</time>
      </trkpt>
      <trkpt lat="42.9868" lon="2.93766">
        <ele>102.6</ele>
        <time>2020-06-03T13:13:25.000Z</time>
      </trkpt>
      <trkpt lat="42.98677" lon="2.93766">
        <ele>103</ele>
        <time>2020-06-03T13:13:26.000Z</time>
      </trkpt>
      <trkpt lat="42.98675" lon="2.93765">
        <ele>103.4</ele>
        <time>2020-06-03T13:13:27.000Z</time>
      </trkpt>
      <trkpt lat="42.98672" lon="2.93764">
        <ele>103.8</ele>
        <time>2020-06-03T13:13:28.000Z</time>
      </trkpt>
      <trkpt lat="42.98671" lon="2.93762">
        <ele>104.2</ele>
        <time>2020-06-03T13:13:29.000Z</time>
      </trkpt>
      <trkpt lat="42.98668" lon="2.93761">
        <ele>104.6</ele>
        <time>2020-06-03T13:13:30.000Z</time>
      </trkpt>
      <trkpt lat="42.98667" lon="2.93759">
        <ele>105.4</ele>
        <time>2020-06-03T13:13:31.000Z</time>
      </trkpt>
      <trkpt lat="42.98666" lon="2.93757">
        <ele>105.8</ele>
        <time>2020-06-03T13:13:32.000Z</time>
      </trkpt>
      <trkpt lat="42.98667" lon="2.93753">
        <ele>106.4</ele>
        <time>2020-06-03T13:13:33.000Z</time>
      </trkpt>
      <trkpt lat="42.98667" lon="2.9375">
        <ele>106.4</ele>
        <time>2020-06-03T13:13:34.000Z</time>
      </trkpt>
      <trkpt lat="42.98664" lon="2.93743">
        <ele>106.8</ele>
        <time>2020-06-03T13:13:36.000Z</time>
      </trkpt>
      <trkpt lat="42.98663" lon="2.93739">
        <ele>107.2</ele>
        <time>2020-06-03T13:13:37.000Z</time>
      </trkpt>
      <trkpt lat="42.98664" lon="2.93736">
        <ele>107.6</ele>
        <time>2020-06-03T13:13:38.000Z</time>
      </trkpt>
      <trkpt lat="42.98663" lon="2.93735">
        <ele>108</ele>
        <time>2020-06-03T13:13:39.000Z</time>
      </trkpt>
      <trkpt lat="42.98662" lon="2.93734">
        <ele>108.4</ele>
        <time>2020-06-03T13:13:40.000Z</time>
      </trkpt>
      <trkpt lat="42.98664" lon="2.93729">
        <ele>108.4</ele>
        <time>2020-06-03T13:13:42.000Z</time>
      </trkpt>
      <trkpt lat="42.98667" lon="2.93721">
        <ele>108.8</ele>
        <time>2020-06-03T13:13:45.000Z</time>
      </trkpt>
      <trkpt lat="42.98667" lon="2.93718">
        <ele>109.2</ele>
        <time>2020-06-03T13:13:46.000Z</time>
      </trkpt>
      <trkpt lat="42.98667" lon="2.93716">
        <ele>109.8</ele>
        <time>2020-06-03T13:13:47.000Z</time>
      </trkpt>
      <trkpt lat="42.98666" lon="2.93712">
        <ele>110.2</ele>
        <time>2020-06-03T13:13:48.000Z</time>
      </trkpt>
      <trkpt lat="42.98665" lon="2.9371">
        <ele>110.6</ele>
        <time>2020-06-03T13:13:49.000Z</time>
      </trkpt>
      <trkpt lat="42.98665" lon="2.93703">
        <ele>110.6</ele>
        <time>2020-06-03T13:13:51.000Z</time>
      </trkpt>
      <trkpt lat="42.98667" lon="2.93697">
        <ele>111</ele>
        <time>2020-06-03T13:13:53.000Z</time>
      </trkpt>
      <trkpt lat="42.98667" lon="2.93694">
        <ele>111.6</ele>
        <time>2020-06-03T13:13:54.000Z</time>
      </trkpt>
      <trkpt lat="42.98668" lon="2.93692">
        <ele>112</ele>
        <time>2020-06-03T13:13:55.000Z</time>
      </trkpt>
      <trkpt lat="42.98669" lon="2.9369">
        <ele>113</ele>
        <time>2020-06-03T13:13:56.000Z</time>
      </trkpt>
      <trkpt lat="42.98669" lon="2.93688">
        <ele>113.6</ele>
        <time>2020-06-03T13:13:57.000Z</time>
      </trkpt>
      <trkpt lat="42.9867" lon="2.93686">
        <ele>114.2</ele>
        <time>2020-06-03T13:13:58.000Z</time>
      </trkpt>
      <trkpt lat="42.98671" lon="2.93684">
        <ele>114.8</ele>
        <time>2020-06-03T13:13:59.000Z</time>
      </trkpt>
      <trkpt lat="42.98673" lon="2.93682">
        <ele>115.4</ele>
        <time>2020-06-03T13:14:00.000Z</time>
      </trkpt>
      <trkpt lat="42.98674" lon="2.9368">
        <ele>116</ele>
        <time>2020-06-03T13:14:01.000Z</time>
      </trkpt>
      <trkpt lat="42.98677" lon="2.93679">
        <ele>116.6</ele>
        <time>2020-06-03T13:14:02.000Z</time>
      </trkpt>
      <trkpt lat="42.98679" lon="2.93678">
        <ele>117.2</ele>
        <time>2020-06-03T13:14:03.000Z</time>
      </trkpt>
      <trkpt lat="42.98681" lon="2.93678">
        <ele>117.8</ele>
        <time>2020-06-03T13:14:04.000Z</time>
      </trkpt>
      <trkpt lat="42.98682" lon="2.93677">
        <ele>118.4</ele>
        <time>2020-06-03T13:14:05.000Z</time>
      </trkpt>
      <trkpt lat="42.98683" lon="2.93676">
        <ele>119</ele>
        <time>2020-06-03T13:14:06.000Z</time>
      </trkpt>
      <trkpt lat="42.98684" lon="2.93675">
        <ele>119.6</ele>
        <time>2020-06-03T13:14:07.000Z</time>
      </trkpt>
      <trkpt lat="42.98686" lon="2.93675">
        <ele>120.2</ele>
        <time>2020-06-03T13:14:08.000Z</time>
      </trkpt>
      <trkpt lat="42.98687" lon="2.93674">
        <ele>120.6</ele>
        <time>2020-06-03T13:14:09.000Z</time>
      </trkpt>
      <trkpt lat="42.9869" lon="2.93673">
        <ele>121.2</ele>
        <time>2020-06-03T13:14:10.000Z</time>
      </trkpt>
      <trkpt lat="42.98692" lon="2.93671">
        <ele>121.8</ele>
        <time>2020-06-03T13:14:11.000Z</time>
      </trkpt>
      <trkpt lat="42.98693" lon="2.93669">
        <ele>122.2</ele>
        <time>2020-06-03T13:14:12.000Z</time>
      </trkpt>
      <trkpt lat="42.98697" lon="2.93667">
        <ele>122.6</ele>
        <time>2020-06-03T13:14:14.000Z</time>
      </trkpt>
      <trkpt lat="42.98699" lon="2.93666">
        <ele>123.2</ele>
        <time>2020-06-03T13:14:15.000Z</time>
      </trkpt>
      <trkpt lat="42.98701" lon="2.93664">
        <ele>123.6</ele>
        <time>2020-06-03T13:14:16.000Z</time>
      </trkpt>
      <trkpt lat="42.98703" lon="2.93663">
        <ele>124</ele>
        <time>2020-06-03T13:14:17.000Z</time>
      </trkpt>
      <trkpt lat="42.98705" lon="2.93662">
        <ele>124.4</ele>
        <time>2020-06-03T13:14:18.000Z</time>
      </trkpt>
      <trkpt lat="42.9871" lon="2.93656">
        <ele>124.8</ele>
        <time>2020-06-03T13:14:21.000Z</time>
      </trkpt>
      <trkpt lat="42.98712" lon="2.93653">
        <ele>125.2</ele>
        <time>2020-06-03T13:14:22.000Z</time>
      </trkpt>
      <trkpt lat="42.98714" lon="2.93651">
        <ele>125.6</ele>
        <time>2020-06-03T13:14:23.000Z</time>
      </trkpt>
      <trkpt lat="42.98716" lon="2.93648">
        <ele>126</ele>
        <time>2020-06-03T13:14:24.000Z</time>
      </trkpt>
      <trkpt lat="42.98717" lon="2.93645">
        <ele>126.6</ele>
        <time>2020-06-03T13:14:25.000Z</time>
      </trkpt>
      <trkpt lat="42.98719" lon="2.93636">
        <ele>126.6</ele>
        <time>2020-06-03T13:14:28.000Z</time>
      </trkpt>
      <trkpt lat="42.98726" lon="2.93624">
        <ele>126.6</ele>
        <time>2020-06-03T13:14:33.000Z</time>
      </trkpt>
      <trkpt lat="42.98731" lon="2.93613">
        <ele>126.6</ele>
        <time>2020-06-03T13:14:38.000Z</time>
      </trkpt>
      <trkpt lat="42.98739" lon="2.936">
        <ele>126.6</ele>
        <time>2020-06-03T13:14:42.000Z</time>
      </trkpt>
      <trkpt lat="42.98744" lon="2.93593">
        <ele>126.6</ele>
        <time>2020-06-03T13:14:44.000Z</time>
      </trkpt>
      <trkpt lat="42.98761" lon="2.93583">
        <ele>126.6</ele>
        <time>2020-06-03T13:14:49.000Z</time>
      </trkpt>
      <trkpt lat="42.98768" lon="2.93579">
        <ele>126.6</ele>
        <time>2020-06-03T13:14:51.000Z</time>
      </trkpt>
      <trkpt lat="42.9878" lon="2.93577">
        <ele>126.6</ele>
        <time>2020-06-03T13:14:54.000Z</time>
      </trkpt>
      <trkpt lat="42.98784" lon="2.93577">
        <ele>126.6</ele>
        <time>2020-06-03T13:14:55.000Z</time>
      </trkpt>
      <trkpt lat="42.98796" lon="2.93575">
        <ele>126.6</ele>
        <time>2020-06-03T13:14:58.000Z</time>
      </trkpt>
      <trkpt lat="42.988" lon="2.93576">
        <ele>126.6</ele>
        <time>2020-06-03T13:14:59.000Z</time>
      </trkpt>
      <trkpt lat="42.98822" lon="2.93575">
        <ele>126</ele>
        <time>2020-06-03T13:15:05.000Z</time>
      </trkpt>
      <trkpt lat="42.98824" lon="2.93574">
        <ele>125.6</ele>
        <time>2020-06-03T13:15:06.000Z</time>
      </trkpt>
      <trkpt lat="42.98827" lon="2.93572">
        <ele>125.2</ele>
        <time>2020-06-03T13:15:07.000Z</time>
      </trkpt>
      <trkpt lat="42.98828" lon="2.93569">
        <ele>124.8</ele>
        <time>2020-06-03T13:15:08.000Z</time>
      </trkpt>
      <trkpt lat="42.98829" lon="2.93567">
        <ele>124.2</ele>
        <time>2020-06-03T13:15:09.000Z</time>
      </trkpt>
      <trkpt lat="42.9883" lon="2.93564">
        <ele>124.2</ele>
        <time>2020-06-03T13:15:10.000Z</time>
      </trkpt>
      <trkpt lat="42.98833" lon="2.93566">
        <ele>123.8</ele>
        <time>2020-06-03T13:15:12.000Z</time>
      </trkpt>
      <trkpt lat="42.98834" lon="2.93567">
        <ele>123.4</ele>
        <time>2020-06-03T13:15:13.000Z</time>
      </trkpt>
      <trkpt lat="42.98836" lon="2.93568">
        <ele>123</ele>
        <time>2020-06-03T13:15:14.000Z</time>
      </trkpt>
      <trkpt lat="42.98838" lon="2.93568">
        <ele>122.6</ele>
        <time>2020-06-03T13:15:15.000Z</time>
      </trkpt>
      <trkpt lat="42.9884" lon="2.93569">
        <ele>122.2</ele>
        <time>2020-06-03T13:15:16.000Z</time>
      </trkpt>
      <trkpt lat="42.98844" lon="2.93567">
        <ele>122.2</ele>
        <time>2020-06-03T13:15:18.000Z</time>
      </trkpt>
      <trkpt lat="42.98847" lon="2.93565">
        <ele>121.8</ele>
        <time>2020-06-03T13:15:22.000Z</time>
      </trkpt>
      <trkpt lat="42.98849" lon="2.93564">
        <ele>121.4</ele>
        <time>2020-06-03T13:15:23.000Z</time>
      </trkpt>
      <trkpt lat="42.98852" lon="2.93566">
        <ele>121</ele>
        <time>2020-06-03T13:15:24.000Z</time>
      </trkpt>
      <trkpt lat="42.98854" lon="2.93565">
        <ele>120.6</ele>
        <time>2020-06-03T13:15:25.000Z</time>
      </trkpt>
      <trkpt lat="42.98857" lon="2.93565">
        <ele>120.2</ele>
        <time>2020-06-03T13:15:26.000Z</time>
      </trkpt>
      <trkpt lat="42.98861" lon="2.93567">
        <ele>119.8</ele>
        <time>2020-06-03T13:15:28.000Z</time>
      </trkpt>
      <trkpt lat="42.98862" lon="2.93569">
        <ele>119.2</ele>
        <time>2020-06-03T13:15:29.000Z</time>
      </trkpt>
      <trkpt lat="42.98863" lon="2.93571">
        <ele>118.8</ele>
        <time>2020-06-03T13:15:30.000Z</time>
      </trkpt>
      <trkpt lat="42.98864" lon="2.93574">
        <ele>118.2</ele>
        <time>2020-06-03T13:15:31.000Z</time>
      </trkpt>
      <trkpt lat="42.98865" lon="2.93578">
        <ele>117.6</ele>
        <time>2020-06-03T13:15:32.000Z</time>
      </trkpt>
      <trkpt lat="42.98865" lon="2.93581">
        <ele>117.2</ele>
        <time>2020-06-03T13:15:33.000Z</time>
      </trkpt>
      <trkpt lat="42.98864" lon="2.93583">
        <ele>116.4</ele>
        <time>2020-06-03T13:15:34.000Z</time>
      </trkpt>
      <trkpt lat="42.98862" lon="2.93588">
        <ele>116</ele>
        <time>2020-06-03T13:15:35.000Z</time>
      </trkpt>
      <trkpt lat="42.98859" lon="2.93592">
        <ele>115.4</ele>
        <time>2020-06-03T13:15:36.000Z</time>
      </trkpt>
      <trkpt lat="42.98856" lon="2.93597">
        <ele>114.8</ele>
        <time>2020-06-03T13:15:37.000Z</time>
      </trkpt>
      <trkpt lat="42.98853" lon="2.93602">
        <ele>114.2</ele>
        <time>2020-06-03T13:15:38.000Z</time>
      </trkpt>
      <trkpt lat="42.98851" lon="2.93607">
        <ele>113.6</ele>
        <time>2020-06-03T13:15:39.000Z</time>
      </trkpt>
      <trkpt lat="42.98848" lon="2.93608">
        <ele>113</ele>
        <time>2020-06-03T13:15:40.000Z</time>
      </trkpt>
      <trkpt lat="42.98846" lon="2.93611">
        <ele>113</ele>
        <time>2020-06-03T13:15:41.000Z</time>
      </trkpt>
      <trkpt lat="42.98837" lon="2.9362">
        <ele>113</ele>
        <time>2020-06-03T13:15:45.000Z</time>
      </trkpt>
      <trkpt lat="42.98837" lon="2.93623">
        <ele>112.6</ele>
        <time>2020-06-03T13:15:47.000Z</time>
      </trkpt>
      <trkpt lat="42.98836" lon="2.93625">
        <ele>112.2</ele>
        <time>2020-06-03T13:15:48.000Z</time>
      </trkpt>
      <trkpt lat="42.98833" lon="2.93629">
        <ele>111.8</ele>
        <time>2020-06-03T13:15:49.000Z</time>
      </trkpt>
      <trkpt lat="42.9883" lon="2.93632">
        <ele>111.4</ele>
        <time>2020-06-03T13:15:50.000Z</time>
      </trkpt>
      <trkpt lat="42.98828" lon="2.93637">
        <ele>111</ele>
        <time>2020-06-03T13:15:51.000Z</time>
      </trkpt>
      <trkpt lat="42.98825" lon="2.93641">
        <ele>111</ele>
        <time>2020-06-03T13:15:52.000Z</time>
      </trkpt>
      <trkpt lat="42.98822" lon="2.93644">
        <ele>110.6</ele>
        <time>2020-06-03T13:15:53.000Z</time>
      </trkpt>
      <trkpt lat="42.9882" lon="2.93645">
        <ele>110</ele>
        <time>2020-06-03T13:15:54.000Z</time>
      </trkpt>
      <trkpt lat="42.98817" lon="2.93645">
        <ele>109.6</ele>
        <time>2020-06-03T13:15:55.000Z</time>
      </trkpt>
      <trkpt lat="42.98813" lon="2.93644">
        <ele>109.2</ele>
        <time>2020-06-03T13:15:56.000Z</time>
      </trkpt>
      <trkpt lat="42.98811" lon="2.93645">
        <ele>108.8</ele>
        <time>2020-06-03T13:15:57.000Z</time>
      </trkpt>
      <trkpt lat="42.9881" lon="2.93653">
        <ele>108.8</ele>
        <time>2020-06-03T13:15:59.000Z</time>
      </trkpt>
      <trkpt lat="42.98808" lon="2.93657">
        <ele>108.8</ele>
        <time>2020-06-03T13:16:00.000Z</time>
      </trkpt>
      <trkpt lat="42.98805" lon="2.93668">
        <ele>108.4</ele>
        <time>2020-06-03T13:16:02.000Z</time>
      </trkpt>
      <trkpt lat="42.98804" lon="2.93675">
        <ele>108</ele>
        <time>2020-06-03T13:16:03.000Z</time>
      </trkpt>
      <trkpt lat="42.98801" lon="2.93681">
        <ele>107.6</ele>
        <time>2020-06-03T13:16:04.000Z</time>
      </trkpt>
      <trkpt lat="42.988" lon="2.93687">
        <ele>107.2</ele>
        <time>2020-06-03T13:16:05.000Z</time>
      </trkpt>
      <trkpt lat="42.98798" lon="2.93692">
        <ele>106.8</ele>
        <time>2020-06-03T13:16:06.000Z</time>
      </trkpt>
      <trkpt lat="42.98796" lon="2.93696">
        <ele>106.2</ele>
        <time>2020-06-03T13:16:07.000Z</time>
      </trkpt>
      <trkpt lat="42.98796" lon="2.93701">
        <ele>105.8</ele>
        <time>2020-06-03T13:16:08.000Z</time>
      </trkpt>
      <trkpt lat="42.98796" lon="2.93703">
        <ele>105.2</ele>
        <time>2020-06-03T13:16:09.000Z</time>
      </trkpt>
      <trkpt lat="42.98797" lon="2.93703">
        <ele>104.6</ele>
        <time>2020-06-03T13:16:10.000Z</time>
      </trkpt>
      <trkpt lat="42.98798" lon="2.93701">
        <ele>104.2</ele>
        <time>2020-06-03T13:16:11.000Z</time>
      </trkpt>
      <trkpt lat="42.98807" lon="2.93696">
        <ele>104.2</ele>
        <time>2020-06-03T13:16:15.000Z</time>
      </trkpt>
      <trkpt lat="42.98816" lon="2.93688">
        <ele>103.8</ele>
        <time>2020-06-03T13:16:18.000Z</time>
      </trkpt>
      <trkpt lat="42.98819" lon="2.93686">
        <ele>103.4</ele>
        <time>2020-06-03T13:16:19.000Z</time>
      </trkpt>
      <trkpt lat="42.98822" lon="2.93683">
        <ele>103</ele>
        <time>2020-06-03T13:16:20.000Z</time>
      </trkpt>
      <trkpt lat="42.98825" lon="2.93682">
        <ele>102.6</ele>
        <time>2020-06-03T13:16:21.000Z</time>
      </trkpt>
      <trkpt lat="42.98828" lon="2.93681">
        <ele>102.2</ele>
        <time>2020-06-03T13:16:22.000Z</time>
      </trkpt>
      <trkpt lat="42.98841" lon="2.93676">
        <ele>102.2</ele>
        <time>2020-06-03T13:16:26.000Z</time>
      </trkpt>
      <trkpt lat="42.98851" lon="2.93666">
        <ele>102.2</ele>
        <time>2020-06-03T13:16:30.000Z</time>
      </trkpt>
      <trkpt lat="42.9886" lon="2.9366">
        <ele>102.2</ele>
        <time>2020-06-03T13:16:34.000Z</time>
      </trkpt>
      <trkpt lat="42.9887" lon="2.93645">
        <ele>102.2</ele>
        <time>2020-06-03T13:16:38.000Z</time>
      </trkpt>
      <trkpt lat="42.98873" lon="2.93638">
        <ele>101.6</ele>
        <time>2020-06-03T13:16:40.000Z</time>
      </trkpt>
      <trkpt lat="42.98875" lon="2.93635">
        <ele>101.2</ele>
        <time>2020-06-03T13:16:41.000Z</time>
      </trkpt>
      <trkpt lat="42.98877" lon="2.93633">
        <ele>100.6</ele>
        <time>2020-06-03T13:16:42.000Z</time>
      </trkpt>
      <trkpt lat="42.98881" lon="2.93632">
        <ele>100.2</ele>
        <time>2020-06-03T13:16:43.000Z</time>
      </trkpt>
      <trkpt lat="42.98883" lon="2.93629">
        <ele>99.6</ele>
        <time>2020-06-03T13:16:44.000Z</time>
      </trkpt>
      <trkpt lat="42.98886" lon="2.93629">
        <ele>99.6</ele>
        <time>2020-06-03T13:16:45.000Z</time>
      </trkpt>
      <trkpt lat="42.98891" lon="2.93631">
        <ele>99.6</ele>
        <time>2020-06-03T13:16:47.000Z</time>
      </trkpt>
      <trkpt lat="42.98899" lon="2.93629">
        <ele>99.2</ele>
        <time>2020-06-03T13:16:50.000Z</time>
      </trkpt>
      <trkpt lat="42.98901" lon="2.93629">
        <ele>98.8</ele>
        <time>2020-06-03T13:16:51.000Z</time>
      </trkpt>
      <trkpt lat="42.98902" lon="2.93628">
        <ele>98.4</ele>
        <time>2020-06-03T13:16:52.000Z</time>
      </trkpt>
      <trkpt lat="42.98903" lon="2.93627">
        <ele>98</ele>
        <time>2020-06-03T13:16:53.000Z</time>
      </trkpt>
      <trkpt lat="42.98905" lon="2.93624">
        <ele>97.4</ele>
        <time>2020-06-03T13:16:54.000Z</time>
      </trkpt>
      <trkpt lat="42.98908" lon="2.93619">
        <ele>97.4</ele>
        <time>2020-06-03T13:16:55.000Z</time>
      </trkpt>
      <trkpt lat="42.98911" lon="2.93616">
        <ele>97</ele>
        <time>2020-06-03T13:16:56.000Z</time>
      </trkpt>
      <trkpt lat="42.98914" lon="2.93611">
        <ele>96.6</ele>
        <time>2020-06-03T13:16:57.000Z</time>
      </trkpt>
      <trkpt lat="42.98918" lon="2.93604">
        <ele>96.2</ele>
        <time>2020-06-03T13:16:58.000Z</time>
      </trkpt>
      <trkpt lat="42.98922" lon="2.936">
        <ele>95.8</ele>
        <time>2020-06-03T13:16:59.000Z</time>
      </trkpt>
      <trkpt lat="42.98924" lon="2.93595">
        <ele>95.4</ele>
        <time>2020-06-03T13:17:00.000Z</time>
      </trkpt>
      <trkpt lat="42.98931" lon="2.93586">
        <ele>95.4</ele>
        <time>2020-06-03T13:17:03.000Z</time>
      </trkpt>
      <trkpt lat="42.98934" lon="2.93586">
        <ele>95.4</ele>
        <time>2020-06-03T13:17:04.000Z</time>
      </trkpt>
      <trkpt lat="42.98948" lon="2.93587">
        <ele>95</ele>
        <time>2020-06-03T13:17:07.000Z</time>
      </trkpt>
      <trkpt lat="42.98953" lon="2.93587">
        <ele>94.4</ele>
        <time>2020-06-03T13:17:08.000Z</time>
      </trkpt>
      <trkpt lat="42.98958" lon="2.93587">
        <ele>94</ele>
        <time>2020-06-03T13:17:09.000Z</time>
      </trkpt>
      <trkpt lat="42.98962" lon="2.93587">
        <ele>93.2</ele>
        <time>2020-06-03T13:17:10.000Z</time>
      </trkpt>
      <trkpt lat="42.98971" lon="2.9358">
        <ele>93.2</ele>
        <time>2020-06-03T13:17:13.000Z</time>
      </trkpt>
      <trkpt lat="42.98973" lon="2.93574">
        <ele>93.2</ele>
        <time>2020-06-03T13:17:14.000Z</time>
      </trkpt>
      <trkpt lat="42.98975" lon="2.93564">
        <ele>93.2</ele>
        <time>2020-06-03T13:17:16.000Z</time>
      </trkpt>
      <trkpt lat="42.98977" lon="2.93547">
        <ele>93.2</ele>
        <time>2020-06-03T13:17:20.000Z</time>
      </trkpt>
      <trkpt lat="42.98982" lon="2.93545">
        <ele>93.2</ele>
        <time>2020-06-03T13:17:23.000Z</time>
      </trkpt>
      <trkpt lat="42.98985" lon="2.93546">
        <ele>93.2</ele>
        <time>2020-06-03T13:17:24.000Z</time>
      </trkpt>
      <trkpt lat="42.98987" lon="2.93546">
        <ele>93.2</ele>
        <time>2020-06-03T13:17:27.000Z</time>
      </trkpt>
      <trkpt lat="42.98987" lon="2.93545">
        <ele>93.2</ele>
        <time>2020-06-03T13:17:29.000Z</time>
      </trkpt>
      <trkpt lat="42.9899" lon="2.93546">
        <ele>93.2</ele>
        <time>2020-06-03T13:17:45.000Z</time>
      </trkpt>
      <trkpt lat="42.98992" lon="2.93545">
        <ele>93.2</ele>
        <time>2020-06-03T13:17:46.000Z</time>
      </trkpt>
      <trkpt lat="42.98992" lon="2.93545">
        <ele>93.2</ele>
        <time>2020-06-03T13:17:48.000Z</time>
      </trkpt>
      <trkpt lat="42.98997" lon="2.93542">
        <ele>93.2</ele>
        <time>2020-06-03T13:17:53.000Z</time>
      </trkpt>
      <trkpt lat="42.98999" lon="2.93541">
        <ele>93.2</ele>
        <time>2020-06-03T13:17:54.000Z</time>
      </trkpt>
      <trkpt lat="42.99015" lon="2.93537">
        <ele>93.2</ele>
        <time>2020-06-03T13:18:00.000Z</time>
      </trkpt>
      <trkpt lat="42.9903" lon="2.93531">
        <ele>93.2</ele>
        <time>2020-06-03T13:18:06.000Z</time>
      </trkpt>
      <trkpt lat="42.99035" lon="2.93531">
        <ele>93.2</ele>
        <time>2020-06-03T13:18:08.000Z</time>
      </trkpt>
      <trkpt lat="42.99041" lon="2.93533">
        <ele>93.2</ele>
        <time>2020-06-03T13:18:10.000Z</time>
      </trkpt>
      <trkpt lat="42.99045" lon="2.93538">
        <ele>93.6</ele>
        <time>2020-06-03T13:18:12.000Z</time>
      </trkpt>
      <trkpt lat="42.99046" lon="2.9354">
        <ele>94</ele>
        <time>2020-06-03T13:18:13.000Z</time>
      </trkpt>
      <trkpt lat="42.99047" lon="2.93543">
        <ele>94.6</ele>
        <time>2020-06-03T13:18:14.000Z</time>
      </trkpt>
      <trkpt lat="42.99049" lon="2.93545">
        <ele>95</ele>
        <time>2020-06-03T13:18:15.000Z</time>
      </trkpt>
      <trkpt lat="42.99051" lon="2.93549">
        <ele>95.4</ele>
        <time>2020-06-03T13:18:16.000Z</time>
      </trkpt>
      <trkpt lat="42.99058" lon="2.93556">
        <ele>95.4</ele>
        <time>2020-06-03T13:18:20.000Z</time>
      </trkpt>
      <trkpt lat="42.9906" lon="2.93557">
        <ele>95.4</ele>
        <time>2020-06-03T13:18:21.000Z</time>
      </trkpt>
      <trkpt lat="42.99075" lon="2.93559">
        <ele>95.8</ele>
        <time>2020-06-03T13:18:26.000Z</time>
      </trkpt>
      <trkpt lat="42.99078" lon="2.93559">
        <ele>96.4</ele>
        <time>2020-06-03T13:18:27.000Z</time>
      </trkpt>
      <trkpt lat="42.9908" lon="2.93557">
        <ele>96.8</ele>
        <time>2020-06-03T13:18:28.000Z</time>
      </trkpt>
      <trkpt lat="42.99083" lon="2.93557">
        <ele>97.4</ele>
        <time>2020-06-03T13:18:29.000Z</time>
      </trkpt>
      <trkpt lat="42.99085" lon="2.93554">
        <ele>97.8</ele>
        <time>2020-06-03T13:18:30.000Z</time>
      </trkpt>
      <trkpt lat="42.99087" lon="2.93551">
        <ele>97.8</ele>
        <time>2020-06-03T13:18:31.000Z</time>
      </trkpt>
      <trkpt lat="42.99089" lon="2.93548">
        <ele>98.2</ele>
        <time>2020-06-03T13:18:32.000Z</time>
      </trkpt>
      <trkpt lat="42.99091" lon="2.93545">
        <ele>98.6</ele>
        <time>2020-06-03T13:18:33.000Z</time>
      </trkpt>
      <trkpt lat="42.99093" lon="2.93542">
        <ele>99</ele>
        <time>2020-06-03T13:18:34.000Z</time>
      </trkpt>
      <trkpt lat="42.99094" lon="2.93538">
        <ele>99.4</ele>
        <time>2020-06-03T13:18:35.000Z</time>
      </trkpt>
      <trkpt lat="42.99096" lon="2.93536">
        <ele>99.8</ele>
        <time>2020-06-03T13:18:36.000Z</time>
      </trkpt>
      <trkpt lat="42.99097" lon="2.93531">
        <ele>99.8</ele>
        <time>2020-06-03T13:18:37.000Z</time>
      </trkpt>
      <trkpt lat="42.99097" lon="2.9352">
        <ele>100.2</ele>
        <time>2020-06-03T13:18:40.000Z</time>
      </trkpt>
      <trkpt lat="42.99098" lon="2.93517">
        <ele>100.6</ele>
        <time>2020-06-03T13:18:41.000Z</time>
      </trkpt>
      <trkpt lat="42.99099" lon="2.93514">
        <ele>101</ele>
        <time>2020-06-03T13:18:42.000Z</time>
      </trkpt>
      <trkpt lat="42.991" lon="2.9351">
        <ele>101.6</ele>
        <time>2020-06-03T13:18:43.000Z</time>
      </trkpt>
      <trkpt lat="42.99101" lon="2.93508">
        <ele>102</ele>
        <time>2020-06-03T13:18:44.000Z</time>
      </trkpt>
      <trkpt lat="42.99105" lon="2.93504">
        <ele>102.4</ele>
        <time>2020-06-03T13:18:46.000Z</time>
      </trkpt>
      <trkpt lat="42.99107" lon="2.93501">
        <ele>102.8</ele>
        <time>2020-06-03T13:18:47.000Z</time>
      </trkpt>
      <trkpt lat="42.99108" lon="2.93498">
        <ele>103.2</ele>
        <time>2020-06-03T13:18:48.000Z</time>
      </trkpt>
      <trkpt lat="42.9911" lon="2.93495">
        <ele>104.2</ele>
        <time>2020-06-03T13:18:49.000Z</time>
      </trkpt>
      <trkpt lat="42.99113" lon="2.93481">
        <ele>104.6</ele>
        <time>2020-06-03T13:18:53.000Z</time>
      </trkpt>
      <trkpt lat="42.99114" lon="2.93477">
        <ele>105</ele>
        <time>2020-06-03T13:18:54.000Z</time>
      </trkpt>
      <trkpt lat="42.99115" lon="2.93474">
        <ele>105.4</ele>
        <time>2020-06-03T13:18:55.000Z</time>
      </trkpt>
      <trkpt lat="42.99115" lon="2.9347">
        <ele>105.8</ele>
        <time>2020-06-03T13:18:56.000Z</time>
      </trkpt>
      <trkpt lat="42.99114" lon="2.93466">
        <ele>106.2</ele>
        <time>2020-06-03T13:18:57.000Z</time>
      </trkpt>
      <trkpt lat="42.99114" lon="2.93463">
        <ele>106.2</ele>
        <time>2020-06-03T13:18:58.000Z</time>
      </trkpt>
      <trkpt lat="42.99111" lon="2.93444">
        <ele>106.2</ele>
        <time>2020-06-03T13:19:04.000Z</time>
      </trkpt>
      <trkpt lat="42.99111" lon="2.93437">
        <ele>106.6</ele>
        <time>2020-06-03T13:19:06.000Z</time>
      </trkpt>
      <trkpt lat="42.9911" lon="2.93434">
        <ele>107</ele>
        <time>2020-06-03T13:19:07.000Z</time>
      </trkpt>
      <trkpt lat="42.99111" lon="2.9343">
        <ele>107.4</ele>
        <time>2020-06-03T13:19:08.000Z</time>
      </trkpt>
      <trkpt lat="42.9911" lon="2.93427">
        <ele>108</ele>
        <time>2020-06-03T13:19:09.000Z</time>
      </trkpt>
      <trkpt lat="42.9911" lon="2.93423">
        <ele>108.4</ele>
        <time>2020-06-03T13:19:10.000Z</time>
      </trkpt>
      <trkpt lat="42.9911" lon="2.9342">
        <ele>108.4</ele>
        <time>2020-06-03T13:19:11.000Z</time>
      </trkpt>
      <trkpt lat="42.99108" lon="2.93407">
        <ele>108.8</ele>
        <time>2020-06-03T13:19:15.000Z</time>
      </trkpt>
      <trkpt lat="42.99108" lon="2.93404">
        <ele>109.2</ele>
        <time>2020-06-03T13:19:16.000Z</time>
      </trkpt>
      <trkpt lat="42.99108" lon="2.93401">
        <ele>109.6</ele>
        <time>2020-06-03T13:19:17.000Z</time>
      </trkpt>
      <trkpt lat="42.99108" lon="2.93397">
        <ele>110</ele>
        <time>2020-06-03T13:19:18.000Z</time>
      </trkpt>
      <trkpt lat="42.99107" lon="2.93393">
        <ele>110.4</ele>
        <time>2020-06-03T13:19:19.000Z</time>
      </trkpt>
      <trkpt lat="42.99107" lon="2.93381">
        <ele>110.8</ele>
        <time>2020-06-03T13:19:22.000Z</time>
      </trkpt>
      <trkpt lat="42.99108" lon="2.93378">
        <ele>111.2</ele>
        <time>2020-06-03T13:19:23.000Z</time>
      </trkpt>
      <trkpt lat="42.99108" lon="2.93374">
        <ele>111.6</ele>
        <time>2020-06-03T13:19:24.000Z</time>
      </trkpt>
      <trkpt lat="42.99107" lon="2.9337">
        <ele>112.2</ele>
        <time>2020-06-03T13:19:25.000Z</time>
      </trkpt>
      <trkpt lat="42.99107" lon="2.93367">
        <ele>112.6</ele>
        <time>2020-06-03T13:19:26.000Z</time>
      </trkpt>
      <trkpt lat="42.99108" lon="2.93358">
        <ele>112.6</ele>
        <time>2020-06-03T13:19:29.000Z</time>
      </trkpt>
      <trkpt lat="42.99109" lon="2.93354">
        <ele>112.6</ele>
        <time>2020-06-03T13:19:30.000Z</time>
      </trkpt>
      <trkpt lat="42.9911" lon="2.93346">
        <ele>113</ele>
        <time>2020-06-03T13:19:32.000Z</time>
      </trkpt>
      <trkpt lat="42.99109" lon="2.93339">
        <ele>113.4</ele>
        <time>2020-06-03T13:19:33.000Z</time>
      </trkpt>
      <trkpt lat="42.99109" lon="2.93334">
        <ele>113.8</ele>
        <time>2020-06-03T13:19:34.000Z</time>
      </trkpt>
      <trkpt lat="42.99108" lon="2.93328">
        <ele>114.4</ele>
        <time>2020-06-03T13:19:35.000Z</time>
      </trkpt>
      <trkpt lat="42.99108" lon="2.93323">
        <ele>114.8</ele>
        <time>2020-06-03T13:19:36.000Z</time>
      </trkpt>
      <trkpt lat="42.99107" lon="2.93304">
        <ele>114.8</ele>
        <time>2020-06-03T13:19:39.000Z</time>
      </trkpt>
      <trkpt lat="42.99106" lon="2.93276">
        <ele>114.8</ele>
        <time>2020-06-03T13:19:44.000Z</time>
      </trkpt>
      <trkpt lat="42.99107" lon="2.9327">
        <ele>115.2</ele>
        <time>2020-06-03T13:19:45.000Z</time>
      </trkpt>
      <trkpt lat="42.99109" lon="2.93264">
        <ele>115.6</ele>
        <time>2020-06-03T13:19:46.000Z</time>
      </trkpt>
      <trkpt lat="42.99111" lon="2.93259">
        <ele>116</ele>
        <time>2020-06-03T13:19:47.000Z</time>
      </trkpt>
      <trkpt lat="42.99113" lon="2.93252">
        <ele>116.4</ele>
        <time>2020-06-03T13:19:48.000Z</time>
      </trkpt>
      <trkpt lat="42.99115" lon="2.93245">
        <ele>116.8</ele>
        <time>2020-06-03T13:19:49.000Z</time>
      </trkpt>
      <trkpt lat="42.99116" lon="2.9324">
        <ele>116.8</ele>
        <time>2020-06-03T13:19:50.000Z</time>
      </trkpt>
      <trkpt lat="42.99119" lon="2.93224">
        <ele>116.8</ele>
        <time>2020-06-03T13:19:53.000Z</time>
      </trkpt>
      <trkpt lat="42.99123" lon="2.9321">
        <ele>116.8</ele>
        <time>2020-06-03T13:19:55.000Z</time>
      </trkpt>
      <trkpt lat="42.99125" lon="2.93203">
        <ele>116.4</ele>
        <time>2020-06-03T13:19:56.000Z</time>
      </trkpt>
      <trkpt lat="42.99127" lon="2.93193">
        <ele>116</ele>
        <time>2020-06-03T13:19:57.000Z</time>
      </trkpt>
      <trkpt lat="42.9913" lon="2.93187">
        <ele>115.6</ele>
        <time>2020-06-03T13:19:58.000Z</time>
      </trkpt>
      <trkpt lat="42.99132" lon="2.93182">
        <ele>115.2</ele>
        <time>2020-06-03T13:19:59.000Z</time>
      </trkpt>
      <trkpt lat="42.99134" lon="2.93178">
        <ele>114.8</ele>
        <time>2020-06-03T13:20:00.000Z</time>
      </trkpt>
      <trkpt lat="42.99137" lon="2.93167">
        <ele>114.8</ele>
        <time>2020-06-03T13:20:03.000Z</time>
      </trkpt>
      <trkpt lat="42.99143" lon="2.93148">
        <ele>114.8</ele>
        <time>2020-06-03T13:20:07.000Z</time>
      </trkpt>
      <trkpt lat="42.99144" lon="2.93143">
        <ele>114.8</ele>
        <time>2020-06-03T13:20:08.000Z</time>
      </trkpt>
      <trkpt lat="42.99146" lon="2.93138">
        <ele>115.2</ele>
        <time>2020-06-03T13:20:09.000Z</time>
      </trkpt>
      <trkpt lat="42.99146" lon="2.93132">
        <ele>115.6</ele>
        <time>2020-06-03T13:20:10.000Z</time>
      </trkpt>
      <trkpt lat="42.99147" lon="2.93127">
        <ele>116</ele>
        <time>2020-06-03T13:20:11.000Z</time>
      </trkpt>
      <trkpt lat="42.99148" lon="2.93122">
        <ele>116.6</ele>
        <time>2020-06-03T13:20:12.000Z</time>
      </trkpt>
      <trkpt lat="42.99149" lon="2.93118">
        <ele>117</ele>
        <time>2020-06-03T13:20:13.000Z</time>
      </trkpt>
      <trkpt lat="42.99152" lon="2.93106">
        <ele>117.4</ele>
        <time>2020-06-03T13:20:16.000Z</time>
      </trkpt>
      <trkpt lat="42.99153" lon="2.93102">
        <ele>117.8</ele>
        <time>2020-06-03T13:20:17.000Z</time>
      </trkpt>
      <trkpt lat="42.99154" lon="2.93098">
        <ele>118.2</ele>
        <time>2020-06-03T13:20:18.000Z</time>
      </trkpt>
      <trkpt lat="42.99155" lon="2.93094">
        <ele>118.6</ele>
        <time>2020-06-03T13:20:19.000Z</time>
      </trkpt>
      <trkpt lat="42.99155" lon="2.9309">
        <ele>119.2</ele>
        <time>2020-06-03T13:20:20.000Z</time>
      </trkpt>
      <trkpt lat="42.99156" lon="2.93083">
        <ele>119.6</ele>
        <time>2020-06-03T13:20:22.000Z</time>
      </trkpt>
      <trkpt lat="42.99157" lon="2.93079">
        <ele>120</ele>
        <time>2020-06-03T13:20:23.000Z</time>
      </trkpt>
      <trkpt lat="42.99158" lon="2.93076">
        <ele>120.4</ele>
        <time>2020-06-03T13:20:24.000Z</time>
      </trkpt>
      <trkpt lat="42.99159" lon="2.93072">
        <ele>120.8</ele>
        <time>2020-06-03T13:20:25.000Z</time>
      </trkpt>
      <trkpt lat="42.99161" lon="2.93069">
        <ele>121.2</ele>
        <time>2020-06-03T13:20:26.000Z</time>
      </trkpt>
      <trkpt lat="42.99166" lon="2.93061">
        <ele>121.2</ele>
        <time>2020-06-03T13:20:29.000Z</time>
      </trkpt>
      <trkpt lat="42.99169" lon="2.93056">
        <ele>121.6</ele>
        <time>2020-06-03T13:20:31.000Z</time>
      </trkpt>
      <trkpt lat="42.9917" lon="2.93054">
        <ele>122</ele>
        <time>2020-06-03T13:20:32.000Z</time>
      </trkpt>
      <trkpt lat="42.99171" lon="2.93051">
        <ele>122.6</ele>
        <time>2020-06-03T13:20:33.000Z</time>
      </trkpt>
      <trkpt lat="42.99172" lon="2.93049">
        <ele>123</ele>
        <time>2020-06-03T13:20:34.000Z</time>
      </trkpt>
      <trkpt lat="42.99173" lon="2.93047">
        <ele>123.4</ele>
        <time>2020-06-03T13:20:35.000Z</time>
      </trkpt>
      <trkpt lat="42.99174" lon="2.93044">
        <ele>123.4</ele>
        <time>2020-06-03T13:20:36.000Z</time>
      </trkpt>
      <trkpt lat="42.99174" lon="2.93042">
        <ele>123.8</ele>
        <time>2020-06-03T13:20:37.000Z</time>
      </trkpt>
      <trkpt lat="42.99175" lon="2.93039">
        <ele>124.2</ele>
        <time>2020-06-03T13:20:38.000Z</time>
      </trkpt>
      <trkpt lat="42.99176" lon="2.93036">
        <ele>124.6</ele>
        <time>2020-06-03T13:20:39.000Z</time>
      </trkpt>
      <trkpt lat="42.99177" lon="2.93032">
        <ele>125</ele>
        <time>2020-06-03T13:20:40.000Z</time>
      </trkpt>
      <trkpt lat="42.99179" lon="2.93029">
        <ele>125.4</ele>
        <time>2020-06-03T13:20:41.000Z</time>
      </trkpt>
      <trkpt lat="42.99183" lon="2.93017">
        <ele>125.8</ele>
        <time>2020-06-03T13:20:44.000Z</time>
      </trkpt>
      <trkpt lat="42.99182" lon="2.93014">
        <ele>126.4</ele>
        <time>2020-06-03T13:20:45.000Z</time>
      </trkpt>
      <trkpt lat="42.99182" lon="2.9301">
        <ele>126.8</ele>
        <time>2020-06-03T13:20:46.000Z</time>
      </trkpt>
      <trkpt lat="42.99183" lon="2.93007">
        <ele>127.2</ele>
        <time>2020-06-03T13:20:47.000Z</time>
      </trkpt>
      <trkpt lat="42.99184" lon="2.93003">
        <ele>127.6</ele>
        <time>2020-06-03T13:20:48.000Z</time>
      </trkpt>
      <trkpt lat="42.99185" lon="2.92998">
        <ele>127.6</ele>
        <time>2020-06-03T13:20:49.000Z</time>
      </trkpt>
      <trkpt lat="42.99186" lon="2.92994">
        <ele>128.2</ele>
        <time>2020-06-03T13:20:50.000Z</time>
      </trkpt>
      <trkpt lat="42.99188" lon="2.9299">
        <ele>128.6</ele>
        <time>2020-06-03T13:20:51.000Z</time>
      </trkpt>
      <trkpt lat="42.99189" lon="2.92986">
        <ele>129.4</ele>
        <time>2020-06-03T13:20:52.000Z</time>
      </trkpt>
      <trkpt lat="42.9919" lon="2.92981">
        <ele>129.8</ele>
        <time>2020-06-03T13:20:53.000Z</time>
      </trkpt>
      <trkpt lat="42.99194" lon="2.92972">
        <ele>129.8</ele>
        <time>2020-06-03T13:20:55.000Z</time>
      </trkpt>
      <trkpt lat="42.99205" lon="2.92953">
        <ele>129.8</ele>
        <time>2020-06-03T13:21:00.000Z</time>
      </trkpt>
      <trkpt lat="42.99212" lon="2.92928">
        <ele>130.2</ele>
        <time>2020-06-03T13:21:05.000Z</time>
      </trkpt>
      <trkpt lat="42.99213" lon="2.92923">
        <ele>130.6</ele>
        <time>2020-06-03T13:21:06.000Z</time>
      </trkpt>
      <trkpt lat="42.99216" lon="2.92918">
        <ele>131</ele>
        <time>2020-06-03T13:21:07.000Z</time>
      </trkpt>
      <trkpt lat="42.99218" lon="2.92912">
        <ele>131.4</ele>
        <time>2020-06-03T13:21:08.000Z</time>
      </trkpt>
      <trkpt lat="42.99221" lon="2.92907">
        <ele>131.8</ele>
        <time>2020-06-03T13:21:09.000Z</time>
      </trkpt>
      <trkpt lat="42.99225" lon="2.92903">
        <ele>131.8</ele>
        <time>2020-06-03T13:21:10.000Z</time>
      </trkpt>
      <trkpt lat="42.99227" lon="2.929">
        <ele>131.8</ele>
        <time>2020-06-03T13:21:11.000Z</time>
      </trkpt>
      <trkpt lat="42.99236" lon="2.92882">
        <ele>132.4</ele>
        <time>2020-06-03T13:21:16.000Z</time>
      </trkpt>
      <trkpt lat="42.99238" lon="2.92879">
        <ele>133.2</ele>
        <time>2020-06-03T13:21:17.000Z</time>
      </trkpt>
      <trkpt lat="42.99241" lon="2.92876">
        <ele>133.6</ele>
        <time>2020-06-03T13:21:18.000Z</time>
      </trkpt>
      <trkpt lat="42.99243" lon="2.92872">
        <ele>134.2</ele>
        <time>2020-06-03T13:21:19.000Z</time>
      </trkpt>
      <trkpt lat="42.99246" lon="2.92868">
        <ele>134.8</ele>
        <time>2020-06-03T13:21:20.000Z</time>
      </trkpt>
      <trkpt lat="42.99248" lon="2.92864">
        <ele>135.4</ele>
        <time>2020-06-03T13:21:21.000Z</time>
      </trkpt>
      <trkpt lat="42.99251" lon="2.9286">
        <ele>136</ele>
        <time>2020-06-03T13:21:22.000Z</time>
      </trkpt>
      <trkpt lat="42.99253" lon="2.92856">
        <ele>136.6</ele>
        <time>2020-06-03T13:21:23.000Z</time>
      </trkpt>
      <trkpt lat="42.99256" lon="2.92852">
        <ele>137</ele>
        <time>2020-06-03T13:21:24.000Z</time>
      </trkpt>
      <trkpt lat="42.99259" lon="2.92848">
        <ele>137.6</ele>
        <time>2020-06-03T13:21:25.000Z</time>
      </trkpt>
      <trkpt lat="42.99262" lon="2.92844">
        <ele>138</ele>
        <time>2020-06-03T13:21:26.000Z</time>
      </trkpt>
      <trkpt lat="42.99265" lon="2.92839">
        <ele>138.6</ele>
        <time>2020-06-03T13:21:27.000Z</time>
      </trkpt>
      <trkpt lat="42.99268" lon="2.92834">
        <ele>139</ele>
        <time>2020-06-03T13:21:28.000Z</time>
      </trkpt>
      <trkpt lat="42.9927" lon="2.92828">
        <ele>139.4</ele>
        <time>2020-06-03T13:21:29.000Z</time>
      </trkpt>
      <trkpt lat="42.99273" lon="2.92822">
        <ele>139.8</ele>
        <time>2020-06-03T13:21:30.000Z</time>
      </trkpt>
      <trkpt lat="42.99275" lon="2.92817">
        <ele>140.2</ele>
        <time>2020-06-03T13:21:31.000Z</time>
      </trkpt>
      <trkpt lat="42.99277" lon="2.92812">
        <ele>140.8</ele>
        <time>2020-06-03T13:21:32.000Z</time>
      </trkpt>
      <trkpt lat="42.99281" lon="2.92805">
        <ele>140.8</ele>
        <time>2020-06-03T13:21:34.000Z</time>
      </trkpt>
      <trkpt lat="42.99285" lon="2.92798">
        <ele>141.2</ele>
        <time>2020-06-03T13:21:36.000Z</time>
      </trkpt>
      <trkpt lat="42.99287" lon="2.92794">
        <ele>141.6</ele>
        <time>2020-06-03T13:21:37.000Z</time>
      </trkpt>
      <trkpt lat="42.99288" lon="2.9279">
        <ele>142</ele>
        <time>2020-06-03T13:21:38.000Z</time>
      </trkpt>
      <trkpt lat="42.9929" lon="2.92785">
        <ele>142.4</ele>
        <time>2020-06-03T13:21:39.000Z</time>
      </trkpt>
      <trkpt lat="42.99292" lon="2.9278">
        <ele>142.8</ele>
        <time>2020-06-03T13:21:40.000Z</time>
      </trkpt>
      <trkpt lat="42.99304" lon="2.92759">
        <ele>142.8</ele>
        <time>2020-06-03T13:21:44.000Z</time>
      </trkpt>
      <trkpt lat="42.99306" lon="2.92755">
        <ele>142.8</ele>
        <time>2020-06-03T13:21:45.000Z</time>
      </trkpt>
      <trkpt lat="42.99314" lon="2.92745">
        <ele>142.8</ele>
        <time>2020-06-03T13:21:48.000Z</time>
      </trkpt>
      <trkpt lat="42.99324" lon="2.9274">
        <ele>142.8</ele>
        <time>2020-06-03T13:21:51.000Z</time>
      </trkpt>
      <trkpt lat="42.99331" lon="2.92734">
        <ele>142.2</ele>
        <time>2020-06-03T13:21:53.000Z</time>
      </trkpt>
      <trkpt lat="42.99335" lon="2.92729">
        <ele>141.8</ele>
        <time>2020-06-03T13:21:54.000Z</time>
      </trkpt>
      <trkpt lat="42.99339" lon="2.92726">
        <ele>141.2</ele>
        <time>2020-06-03T13:21:55.000Z</time>
      </trkpt>
      <trkpt lat="42.99342" lon="2.92725">
        <ele>140.4</ele>
        <time>2020-06-03T13:21:56.000Z</time>
      </trkpt>
      <trkpt lat="42.99345" lon="2.92725">
        <ele>139.6</ele>
        <time>2020-06-03T13:21:57.000Z</time>
      </trkpt>
      <trkpt lat="42.99345" lon="2.92725">
        <ele>138.8</ele>
        <time>2020-06-03T13:21:58.000Z</time>
      </trkpt>
      <trkpt lat="42.99348" lon="2.92725">
        <ele>136</ele>
        <time>2020-06-03T13:22:04.000Z</time>
      </trkpt>
      <trkpt lat="42.99349" lon="2.92725">
        <ele>136.2</ele>
        <time>2020-06-03T13:22:05.000Z</time>
      </trkpt>
      <trkpt lat="42.9935" lon="2.92724">
        <ele>136.6</ele>
        <time>2020-06-03T13:22:06.000Z</time>
      </trkpt>
      <trkpt lat="42.99348" lon="2.92725">
        <ele>136.6</ele>
        <time>2020-06-03T13:22:10.000Z</time>
      </trkpt>
      <trkpt lat="42.99346" lon="2.92725">
        <ele>136.6</ele>
        <time>2020-06-03T13:22:12.000Z</time>
      </trkpt>
      <trkpt lat="42.99346" lon="2.92724">
        <ele>136.6</ele>
        <time>2020-06-03T13:22:13.000Z</time>
      </trkpt>
      <trkpt lat="42.99345" lon="2.92725">
        <ele>136.6</ele>
        <time>2020-06-03T13:22:22.000Z</time>
      </trkpt>
      <trkpt lat="42.99341" lon="2.92726">
        <ele>136.6</ele>
        <time>2020-06-03T13:22:24.000Z</time>
      </trkpt>
      <trkpt lat="42.99338" lon="2.92728">
        <ele>136.6</ele>
        <time>2020-06-03T13:22:27.000Z</time>
      </trkpt>
      <trkpt lat="42.99338" lon="2.92728">
        <ele>135.4</ele>
        <time>2020-06-03T13:22:28.000Z</time>
      </trkpt>
      <trkpt lat="42.99339" lon="2.92729">
        <ele>136.2</ele>
        <time>2020-06-03T13:22:32.000Z</time>
      </trkpt>
      <trkpt lat="42.9934" lon="2.92731">
        <ele>137.2</ele>
        <time>2020-06-03T13:22:33.000Z</time>
      </trkpt>
      <trkpt lat="42.9934" lon="2.92734">
        <ele>138</ele>
        <time>2020-06-03T13:22:34.000Z</time>
      </trkpt>
      <trkpt lat="42.9934" lon="2.92739">
        <ele>138</ele>
        <time>2020-06-03T13:22:36.000Z</time>
      </trkpt>
      <trkpt lat="42.9934" lon="2.92741">
        <ele>138</ele>
        <time>2020-06-03T13:22:38.000Z</time>
      </trkpt>
      <trkpt lat="42.9934" lon="2.92741">
        <ele>138</ele>
        <time>2020-06-03T13:22:43.000Z</time>
      </trkpt>
      <trkpt lat="42.99341" lon="2.92737">
        <ele>138</ele>
        <time>2020-06-03T13:22:46.000Z</time>
      </trkpt>
      <trkpt lat="42.9934" lon="2.92732">
        <ele>138</ele>
        <time>2020-06-03T13:22:51.000Z</time>
      </trkpt>
      <trkpt lat="42.9934" lon="2.92729">
        <ele>138</ele>
        <time>2020-06-03T13:22:55.000Z</time>
      </trkpt>
      <trkpt lat="42.99343" lon="2.92726">
        <ele>138</ele>
        <time>2020-06-03T13:22:57.000Z</time>
      </trkpt>
      <trkpt lat="42.99349" lon="2.92726">
        <ele>138</ele>
        <time>2020-06-03T13:22:59.000Z</time>
      </trkpt>
      <trkpt lat="42.99353" lon="2.92726">
        <ele>137.6</ele>
        <time>2020-06-03T13:23:00.000Z</time>
      </trkpt>
      <trkpt lat="42.99356" lon="2.92725">
        <ele>137.2</ele>
        <time>2020-06-03T13:23:01.000Z</time>
      </trkpt>
      <trkpt lat="42.99358" lon="2.92725">
        <ele>136.8</ele>
        <time>2020-06-03T13:23:02.000Z</time>
      </trkpt>
      <trkpt lat="42.99361" lon="2.92726">
        <ele>136.2</ele>
        <time>2020-06-03T13:23:03.000Z</time>
      </trkpt>
      <trkpt lat="42.99363" lon="2.92728">
        <ele>135.8</ele>
        <time>2020-06-03T13:23:04.000Z</time>
      </trkpt>
      <trkpt lat="42.99365" lon="2.92731">
        <ele>135.4</ele>
        <time>2020-06-03T13:23:05.000Z</time>
      </trkpt>
      <trkpt lat="42.99367" lon="2.92735">
        <ele>135</ele>
        <time>2020-06-03T13:23:06.000Z</time>
      </trkpt>
      <trkpt lat="42.99369" lon="2.92739">
        <ele>134.4</ele>
        <time>2020-06-03T13:23:07.000Z</time>
      </trkpt>
      <trkpt lat="42.9937" lon="2.92743">
        <ele>133.8</ele>
        <time>2020-06-03T13:23:08.000Z</time>
      </trkpt>
      <trkpt lat="42.99371" lon="2.92747">
        <ele>133.2</ele>
        <time>2020-06-03T13:23:09.000Z</time>
      </trkpt>
      <trkpt lat="42.99371" lon="2.9275">
        <ele>132.6</ele>
        <time>2020-06-03T13:23:10.000Z</time>
      </trkpt>
      <trkpt lat="42.9937" lon="2.92753">
        <ele>131.8</ele>
        <time>2020-06-03T13:23:11.000Z</time>
      </trkpt>
      <trkpt lat="42.99369" lon="2.92757">
        <ele>131.2</ele>
        <time>2020-06-03T13:23:12.000Z</time>
      </trkpt>
      <trkpt lat="42.99368" lon="2.92761">
        <ele>130.6</ele>
        <time>2020-06-03T13:23:13.000Z</time>
      </trkpt>
      <trkpt lat="42.99367" lon="2.92766">
        <ele>130.2</ele>
        <time>2020-06-03T13:23:14.000Z</time>
      </trkpt>
      <trkpt lat="42.99367" lon="2.92771">
        <ele>129.6</ele>
        <time>2020-06-03T13:23:15.000Z</time>
      </trkpt>
      <trkpt lat="42.99366" lon="2.92776">
        <ele>129</ele>
        <time>2020-06-03T13:23:16.000Z</time>
      </trkpt>
      <trkpt lat="42.99362" lon="2.92796">
        <ele>129</ele>
        <time>2020-06-03T13:23:19.000Z</time>
      </trkpt>
      <trkpt lat="42.9936" lon="2.92801">
        <ele>128.4</ele>
        <time>2020-06-03T13:23:20.000Z</time>
      </trkpt>
      <trkpt lat="42.99358" lon="2.92805">
        <ele>128</ele>
        <time>2020-06-03T13:23:21.000Z</time>
      </trkpt>
      <trkpt lat="42.99357" lon="2.92809">
        <ele>127.6</ele>
        <time>2020-06-03T13:23:22.000Z</time>
      </trkpt>
      <trkpt lat="42.99356" lon="2.92812">
        <ele>127.2</ele>
        <time>2020-06-03T13:23:23.000Z</time>
      </trkpt>
      <trkpt lat="42.99356" lon="2.92814">
        <ele>126.8</ele>
        <time>2020-06-03T13:23:24.000Z</time>
      </trkpt>
      <trkpt lat="42.99357" lon="2.92817">
        <ele>126.4</ele>
        <time>2020-06-03T13:23:25.000Z</time>
      </trkpt>
      <trkpt lat="42.99356" lon="2.9282">
        <ele>125.8</ele>
        <time>2020-06-03T13:23:26.000Z</time>
      </trkpt>
      <trkpt lat="42.99355" lon="2.92822">
        <ele>125.4</ele>
        <time>2020-06-03T13:23:27.000Z</time>
      </trkpt>
      <trkpt lat="42.99355" lon="2.92825">
        <ele>125</ele>
        <time>2020-06-03T13:23:28.000Z</time>
      </trkpt>
      <trkpt lat="42.99355" lon="2.92828">
        <ele>124.6</ele>
        <time>2020-06-03T13:23:29.000Z</time>
      </trkpt>
      <trkpt lat="42.99354" lon="2.92831">
        <ele>124.6</ele>
        <time>2020-06-03T13:23:30.000Z</time>
      </trkpt>
      <trkpt lat="42.99353" lon="2.9284">
        <ele>124.6</ele>
        <time>2020-06-03T13:23:33.000Z</time>
      </trkpt>
      <trkpt lat="42.99354" lon="2.92844">
        <ele>124.2</ele>
        <time>2020-06-03T13:23:34.000Z</time>
      </trkpt>
      <trkpt lat="42.99354" lon="2.9285">
        <ele>123.8</ele>
        <time>2020-06-03T13:23:35.000Z</time>
      </trkpt>
      <trkpt lat="42.99355" lon="2.92855">
        <ele>123.4</ele>
        <time>2020-06-03T13:23:36.000Z</time>
      </trkpt>
      <trkpt lat="42.99357" lon="2.92859">
        <ele>122.8</ele>
        <time>2020-06-03T13:23:37.000Z</time>
      </trkpt>
      <trkpt lat="42.99359" lon="2.92863">
        <ele>122.2</ele>
        <time>2020-06-03T13:23:38.000Z</time>
      </trkpt>
      <trkpt lat="42.99359" lon="2.92866">
        <ele>121.6</ele>
        <time>2020-06-03T13:23:39.000Z</time>
      </trkpt>
      <trkpt lat="42.9936" lon="2.92868">
        <ele>121</ele>
        <time>2020-06-03T13:23:40.000Z</time>
      </trkpt>
      <trkpt lat="42.99362" lon="2.92871">
        <ele>120.2</ele>
        <time>2020-06-03T13:23:41.000Z</time>
      </trkpt>
      <trkpt lat="42.99363" lon="2.92875">
        <ele>119.6</ele>
        <time>2020-06-03T13:23:42.000Z</time>
      </trkpt>
      <trkpt lat="42.99362" lon="2.92878">
        <ele>119</ele>
        <time>2020-06-03T13:23:43.000Z</time>
      </trkpt>
      <trkpt lat="42.99361" lon="2.92882">
        <ele>118.2</ele>
        <time>2020-06-03T13:23:44.000Z</time>
      </trkpt>
      <trkpt lat="42.99359" lon="2.92885">
        <ele>117</ele>
        <time>2020-06-03T13:23:45.000Z</time>
      </trkpt>
      <trkpt lat="42.99357" lon="2.92886">
        <ele>116.2</ele>
        <time>2020-06-03T13:23:46.000Z</time>
      </trkpt>
      <trkpt lat="42.99353" lon="2.92888">
        <ele>115.6</ele>
        <time>2020-06-03T13:23:47.000Z</time>
      </trkpt>
      <trkpt lat="42.99347" lon="2.92896">
        <ele>115.6</ele>
        <time>2020-06-03T13:23:51.000Z</time>
      </trkpt>
      <trkpt lat="42.99346" lon="2.92909">
        <ele>115.2</ele>
        <time>2020-06-03T13:23:54.000Z</time>
      </trkpt>
      <trkpt lat="42.99346" lon="2.92913">
        <ele>114.8</ele>
        <time>2020-06-03T13:23:55.000Z</time>
      </trkpt>
      <trkpt lat="42.99345" lon="2.92916">
        <ele>114.2</ele>
        <time>2020-06-03T13:23:56.000Z</time>
      </trkpt>
      <trkpt lat="42.99343" lon="2.92919">
        <ele>113.8</ele>
        <time>2020-06-03T13:23:57.000Z</time>
      </trkpt>
      <trkpt lat="42.9934" lon="2.92921">
        <ele>113.2</ele>
        <time>2020-06-03T13:23:58.000Z</time>
      </trkpt>
      <trkpt lat="42.99338" lon="2.92922">
        <ele>112.6</ele>
        <time>2020-06-03T13:23:59.000Z</time>
      </trkpt>
      <trkpt lat="42.99336" lon="2.92923">
        <ele>112</ele>
        <time>2020-06-03T13:24:00.000Z</time>
      </trkpt>
      <trkpt lat="42.99336" lon="2.92922">
        <ele>111.4</ele>
        <time>2020-06-03T13:24:01.000Z</time>
      </trkpt>
      <trkpt lat="42.99334" lon="2.92915">
        <ele>111.8</ele>
        <time>2020-06-03T13:24:04.000Z</time>
      </trkpt>
      <trkpt lat="42.99333" lon="2.92912">
        <ele>112.2</ele>
        <time>2020-06-03T13:24:05.000Z</time>
      </trkpt>
      <trkpt lat="42.99331" lon="2.92909">
        <ele>112.6</ele>
        <time>2020-06-03T13:24:06.000Z</time>
      </trkpt>
      <trkpt lat="42.9933" lon="2.92908">
        <ele>113.2</ele>
        <time>2020-06-03T13:24:07.000Z</time>
      </trkpt>
      <trkpt lat="42.99328" lon="2.92909">
        <ele>113.8</ele>
        <time>2020-06-03T13:24:08.000Z</time>
      </trkpt>
      <trkpt lat="42.99327" lon="2.92912">
        <ele>114.2</ele>
        <time>2020-06-03T13:24:09.000Z</time>
      </trkpt>
      <trkpt lat="42.99327" lon="2.92915">
        <ele>115.4</ele>
        <time>2020-06-03T13:24:10.000Z</time>
      </trkpt>
      <trkpt lat="42.99327" lon="2.9292">
        <ele>116</ele>
        <time>2020-06-03T13:24:11.000Z</time>
      </trkpt>
      <trkpt lat="42.99323" lon="2.92929">
        <ele>116</ele>
        <time>2020-06-03T13:24:13.000Z</time>
      </trkpt>
      <trkpt lat="42.99314" lon="2.92935">
        <ele>116</ele>
        <time>2020-06-03T13:24:16.000Z</time>
      </trkpt>
      <trkpt lat="42.99305" lon="2.92933">
        <ele>116</ele>
        <time>2020-06-03T13:24:20.000Z</time>
      </trkpt>
      <trkpt lat="42.99302" lon="2.92935">
        <ele>116</ele>
        <time>2020-06-03T13:24:21.000Z</time>
      </trkpt>
      <trkpt lat="42.99297" lon="2.92941">
        <ele>116</ele>
        <time>2020-06-03T13:24:23.000Z</time>
      </trkpt>
      <trkpt lat="42.99296" lon="2.92944">
        <ele>116</ele>
        <time>2020-06-03T13:24:24.000Z</time>
      </trkpt>
      <trkpt lat="42.99291" lon="2.92951">
        <ele>116</ele>
        <time>2020-06-03T13:24:27.000Z</time>
      </trkpt>
      <trkpt lat="42.99292" lon="2.92953">
        <ele>115.6</ele>
        <time>2020-06-03T13:24:28.000Z</time>
      </trkpt>
      <trkpt lat="42.99293" lon="2.92956">
        <ele>115.2</ele>
        <time>2020-06-03T13:24:29.000Z</time>
      </trkpt>
      <trkpt lat="42.99294" lon="2.92956">
        <ele>114.8</ele>
        <time>2020-06-03T13:24:30.000Z</time>
      </trkpt>
      <trkpt lat="42.99296" lon="2.92956">
        <ele>114.4</ele>
        <time>2020-06-03T13:24:31.000Z</time>
      </trkpt>
      <trkpt lat="42.99298" lon="2.92957">
        <ele>114</ele>
        <time>2020-06-03T13:24:32.000Z</time>
      </trkpt>
      <trkpt lat="42.99301" lon="2.92965">
        <ele>114</ele>
        <time>2020-06-03T13:24:34.000Z</time>
      </trkpt>
      <trkpt lat="42.99304" lon="2.9297">
        <ele>113.2</ele>
        <time>2020-06-03T13:24:35.000Z</time>
      </trkpt>
      <trkpt lat="42.99307" lon="2.92976">
        <ele>112.6</ele>
        <time>2020-06-03T13:24:36.000Z</time>
      </trkpt>
      <trkpt lat="42.9931" lon="2.92981">
        <ele>111.8</ele>
        <time>2020-06-03T13:24:37.000Z</time>
      </trkpt>
      <trkpt lat="42.99311" lon="2.92985">
        <ele>111.2</ele>
        <time>2020-06-03T13:24:38.000Z</time>
      </trkpt>
      <trkpt lat="42.9931" lon="2.92989">
        <ele>110.6</ele>
        <time>2020-06-03T13:24:39.000Z</time>
      </trkpt>
      <trkpt lat="42.99311" lon="2.92993">
        <ele>109.8</ele>
        <time>2020-06-03T13:24:40.000Z</time>
      </trkpt>
      <trkpt lat="42.99312" lon="2.92996">
        <ele>109.4</ele>
        <time>2020-06-03T13:24:41.000Z</time>
      </trkpt>
      <trkpt lat="42.99311" lon="2.92998">
        <ele>109</ele>
        <time>2020-06-03T13:24:42.000Z</time>
      </trkpt>
      <trkpt lat="42.9931" lon="2.93001">
        <ele>108.4</ele>
        <time>2020-06-03T13:24:43.000Z</time>
      </trkpt>
      <trkpt lat="42.9931" lon="2.93003">
        <ele>108</ele>
        <time>2020-06-03T13:24:44.000Z</time>
      </trkpt>
      <trkpt lat="42.99311" lon="2.93005">
        <ele>107.4</ele>
        <time>2020-06-03T13:24:45.000Z</time>
      </trkpt>
      <trkpt lat="42.9931" lon="2.93016">
        <ele>107</ele>
        <time>2020-06-03T13:24:48.000Z</time>
      </trkpt>
      <trkpt lat="42.99309" lon="2.9302">
        <ele>106.6</ele>
        <time>2020-06-03T13:24:49.000Z</time>
      </trkpt>
      <trkpt lat="42.99308" lon="2.93024">
        <ele>106.2</ele>
        <time>2020-06-03T13:24:50.000Z</time>
      </trkpt>
      <trkpt lat="42.99308" lon="2.93029">
        <ele>105.8</ele>
        <time>2020-06-03T13:24:51.000Z</time>
      </trkpt>
      <trkpt lat="42.99309" lon="2.93033">
        <ele>105.4</ele>
        <time>2020-06-03T13:24:52.000Z</time>
      </trkpt>
      <trkpt lat="42.9931" lon="2.93036">
        <ele>105</ele>
        <time>2020-06-03T13:24:53.000Z</time>
      </trkpt>
      <trkpt lat="42.99311" lon="2.93041">
        <ele>104.6</ele>
        <time>2020-06-03T13:24:54.000Z</time>
      </trkpt>
      <trkpt lat="42.99311" lon="2.93046">
        <ele>104.2</ele>
        <time>2020-06-03T13:24:55.000Z</time>
      </trkpt>
      <trkpt lat="42.99311" lon="2.93052">
        <ele>103.6</ele>
        <time>2020-06-03T13:24:56.000Z</time>
      </trkpt>
      <trkpt lat="42.99312" lon="2.93057">
        <ele>103.2</ele>
        <time>2020-06-03T13:24:57.000Z</time>
      </trkpt>
      <trkpt lat="42.99314" lon="2.93059">
        <ele>103.2</ele>
        <time>2020-06-03T13:24:58.000Z</time>
      </trkpt>
      <trkpt lat="42.99318" lon="2.93062">
        <ele>102.8</ele>
        <time>2020-06-03T13:25:00.000Z</time>
      </trkpt>
      <trkpt lat="42.99321" lon="2.93064">
        <ele>102.4</ele>
        <time>2020-06-03T13:25:01.000Z</time>
      </trkpt>
      <trkpt lat="42.99322" lon="2.93067">
        <ele>101.8</ele>
        <time>2020-06-03T13:25:02.000Z</time>
      </trkpt>
      <trkpt lat="42.99322" lon="2.9307">
        <ele>101.4</ele>
        <time>2020-06-03T13:25:03.000Z</time>
      </trkpt>
      <trkpt lat="42.9932" lon="2.93072">
        <ele>101</ele>
        <time>2020-06-03T13:25:04.000Z</time>
      </trkpt>
      <trkpt lat="42.99319" lon="2.93074">
        <ele>101</ele>
        <time>2020-06-03T13:25:05.000Z</time>
      </trkpt>
      <trkpt lat="42.99315" lon="2.9308">
        <ele>100.6</ele>
        <time>2020-06-03T13:25:07.000Z</time>
      </trkpt>
      <trkpt lat="42.99313" lon="2.93083">
        <ele>100.2</ele>
        <time>2020-06-03T13:25:08.000Z</time>
      </trkpt>
      <trkpt lat="42.99312" lon="2.93087">
        <ele>99.6</ele>
        <time>2020-06-03T13:25:09.000Z</time>
      </trkpt>
      <trkpt lat="42.99311" lon="2.93091">
        <ele>99.2</ele>
        <time>2020-06-03T13:25:10.000Z</time>
      </trkpt>
      <trkpt lat="42.99311" lon="2.93095">
        <ele>98.8</ele>
        <time>2020-06-03T13:25:11.000Z</time>
      </trkpt>
      <trkpt lat="42.9931" lon="2.93102">
        <ele>98.8</ele>
        <time>2020-06-03T13:25:13.000Z</time>
      </trkpt>
      <trkpt lat="42.99308" lon="2.93105">
        <ele>98.8</ele>
        <time>2020-06-03T13:25:14.000Z</time>
      </trkpt>
      <trkpt lat="42.993" lon="2.93113">
        <ele>98.8</ele>
        <time>2020-06-03T13:25:17.000Z</time>
      </trkpt>
      <trkpt lat="42.99297" lon="2.93116">
        <ele>98.4</ele>
        <time>2020-06-03T13:25:18.000Z</time>
      </trkpt>
      <trkpt lat="42.99294" lon="2.93119">
        <ele>98</ele>
        <time>2020-06-03T13:25:19.000Z</time>
      </trkpt>
      <trkpt lat="42.99291" lon="2.93121">
        <ele>97.6</ele>
        <time>2020-06-03T13:25:20.000Z</time>
      </trkpt>
      <trkpt lat="42.99289" lon="2.93123">
        <ele>97.2</ele>
        <time>2020-06-03T13:25:21.000Z</time>
      </trkpt>
      <trkpt lat="42.99286" lon="2.93127">
        <ele>96.8</ele>
        <time>2020-06-03T13:25:22.000Z</time>
      </trkpt>
      <trkpt lat="42.99282" lon="2.93131">
        <ele>96.8</ele>
        <time>2020-06-03T13:25:24.000Z</time>
      </trkpt>
      <trkpt lat="42.99281" lon="2.93135">
        <ele>96.8</ele>
        <time>2020-06-03T13:25:26.000Z</time>
      </trkpt>
      <trkpt lat="42.99281" lon="2.93137">
        <ele>96.8</ele>
        <time>2020-06-03T13:25:27.000Z</time>
      </trkpt>
      <trkpt lat="42.99286" lon="2.93132">
        <ele>96.8</ele>
        <time>2020-06-03T13:25:31.000Z</time>
      </trkpt>
      <trkpt lat="42.99295" lon="2.9312">
        <ele>96.8</ele>
        <time>2020-06-03T13:25:35.000Z</time>
      </trkpt>
      <trkpt lat="42.99306" lon="2.93111">
        <ele>96.8</ele>
        <time>2020-06-03T13:25:39.000Z</time>
      </trkpt>
      <trkpt lat="42.99316" lon="2.9311">
        <ele>96.8</ele>
        <time>2020-06-03T13:25:43.000Z</time>
      </trkpt>
      <trkpt lat="42.9933" lon="2.93122">
        <ele>96.8</ele>
        <time>2020-06-03T13:25:47.000Z</time>
      </trkpt>
      <trkpt lat="42.99334" lon="2.93125">
        <ele>96.8</ele>
        <time>2020-06-03T13:25:48.000Z</time>
      </trkpt>
      <trkpt lat="42.99347" lon="2.93137">
        <ele>96.8</ele>
        <time>2020-06-03T13:25:51.000Z</time>
      </trkpt>
      <trkpt lat="42.99351" lon="2.93141">
        <ele>96.8</ele>
        <time>2020-06-03T13:25:52.000Z</time>
      </trkpt>
      <trkpt lat="42.99361" lon="2.93164">
        <ele>96.8</ele>
        <time>2020-06-03T13:25:56.000Z</time>
      </trkpt>
      <trkpt lat="42.99364" lon="2.9317">
        <ele>96.8</ele>
        <time>2020-06-03T13:25:57.000Z</time>
      </trkpt>
      <trkpt lat="42.99368" lon="2.93175">
        <ele>96.8</ele>
        <time>2020-06-03T13:25:58.000Z</time>
      </trkpt>
      <trkpt lat="42.99384" lon="2.93198">
        <ele>96.8</ele>
        <time>2020-06-03T13:26:02.000Z</time>
      </trkpt>
      <trkpt lat="42.99387" lon="2.93204">
        <ele>96.4</ele>
        <time>2020-06-03T13:26:03.000Z</time>
      </trkpt>
      <trkpt lat="42.99391" lon="2.9321">
        <ele>95.8</ele>
        <time>2020-06-03T13:26:04.000Z</time>
      </trkpt>
      <trkpt lat="42.99395" lon="2.93215">
        <ele>95.4</ele>
        <time>2020-06-03T13:26:05.000Z</time>
      </trkpt>
      <trkpt lat="42.994" lon="2.93219">
        <ele>95</ele>
        <time>2020-06-03T13:26:06.000Z</time>
      </trkpt>
      <trkpt lat="42.99404" lon="2.93225">
        <ele>94.6</ele>
        <time>2020-06-03T13:26:07.000Z</time>
      </trkpt>
      <trkpt lat="42.99412" lon="2.93235">
        <ele>94.2</ele>
        <time>2020-06-03T13:26:09.000Z</time>
      </trkpt>
      <trkpt lat="42.99416" lon="2.9324">
        <ele>93.8</ele>
        <time>2020-06-03T13:26:10.000Z</time>
      </trkpt>
      <trkpt lat="42.9942" lon="2.93245">
        <ele>93.4</ele>
        <time>2020-06-03T13:26:11.000Z</time>
      </trkpt>
      <trkpt lat="42.99424" lon="2.9325">
        <ele>93</ele>
        <time>2020-06-03T13:26:12.000Z</time>
      </trkpt>
      <trkpt lat="42.99428" lon="2.93254">
        <ele>92.6</ele>
        <time>2020-06-03T13:26:13.000Z</time>
      </trkpt>
      <trkpt lat="42.99431" lon="2.93258">
        <ele>92.6</ele>
        <time>2020-06-03T13:26:14.000Z</time>
      </trkpt>
      <trkpt lat="42.99455" lon="2.93293">
        <ele>92.6</ele>
        <time>2020-06-03T13:26:22.000Z</time>
      </trkpt>
      <trkpt lat="42.99458" lon="2.93297">
        <ele>92.6</ele>
        <time>2020-06-03T13:26:23.000Z</time>
      </trkpt>
      <trkpt lat="42.99461" lon="2.93301">
        <ele>92.2</ele>
        <time>2020-06-03T13:26:24.000Z</time>
      </trkpt>
      <trkpt lat="42.99465" lon="2.93305">
        <ele>91.8</ele>
        <time>2020-06-03T13:26:25.000Z</time>
      </trkpt>
      <trkpt lat="42.99468" lon="2.93308">
        <ele>91.4</ele>
        <time>2020-06-03T13:26:26.000Z</time>
      </trkpt>
      <trkpt lat="42.99471" lon="2.93311">
        <ele>91</ele>
        <time>2020-06-03T13:26:27.000Z</time>
      </trkpt>
      <trkpt lat="42.99474" lon="2.93314">
        <ele>90.6</ele>
        <time>2020-06-03T13:26:28.000Z</time>
      </trkpt>
      <trkpt lat="42.99477" lon="2.93321">
        <ele>90.6</ele>
        <time>2020-06-03T13:26:31.000Z</time>
      </trkpt>
      <trkpt lat="42.99477" lon="2.93325">
        <ele>90.6</ele>
        <time>2020-06-03T13:26:33.000Z</time>
      </trkpt>
      <trkpt lat="42.99479" lon="2.93332">
        <ele>90.6</ele>
        <time>2020-06-03T13:26:35.000Z</time>
      </trkpt>
      <trkpt lat="42.99486" lon="2.93349">
        <ele>90.2</ele>
        <time>2020-06-03T13:26:40.000Z</time>
      </trkpt>
      <trkpt lat="42.99486" lon="2.93354">
        <ele>89.8</ele>
        <time>2020-06-03T13:26:41.000Z</time>
      </trkpt>
      <trkpt lat="42.99487" lon="2.93359">
        <ele>89.4</ele>
        <time>2020-06-03T13:26:42.000Z</time>
      </trkpt>
      <trkpt lat="42.99489" lon="2.93364">
        <ele>88.8</ele>
        <time>2020-06-03T13:26:43.000Z</time>
      </trkpt>
      <trkpt lat="42.9949" lon="2.93369">
        <ele>88.4</ele>
        <time>2020-06-03T13:26:44.000Z</time>
      </trkpt>
      <trkpt lat="42.99492" lon="2.93378">
        <ele>88.4</ele>
        <time>2020-06-03T13:26:46.000Z</time>
      </trkpt>
      <trkpt lat="42.99496" lon="2.93385">
        <ele>88.4</ele>
        <time>2020-06-03T13:26:48.000Z</time>
      </trkpt>
      <trkpt lat="42.99499" lon="2.93386">
        <ele>88.4</ele>
        <time>2020-06-03T13:26:49.000Z</time>
      </trkpt>
      <trkpt lat="42.99506" lon="2.93378">
        <ele>88.4</ele>
        <time>2020-06-03T13:26:52.000Z</time>
      </trkpt>
      <trkpt lat="42.99508" lon="2.93374">
        <ele>88.4</ele>
        <time>2020-06-03T13:26:53.000Z</time>
      </trkpt>
      <trkpt lat="42.99521" lon="2.93357">
        <ele>88.4</ele>
        <time>2020-06-03T13:26:57.000Z</time>
      </trkpt>
      <trkpt lat="42.99531" lon="2.93335">
        <ele>88.4</ele>
        <time>2020-06-03T13:27:02.000Z</time>
      </trkpt>
      <trkpt lat="42.99539" lon="2.93315">
        <ele>88.4</ele>
        <time>2020-06-03T13:27:06.000Z</time>
      </trkpt>
      <trkpt lat="42.99543" lon="2.933">
        <ele>88.4</ele>
        <time>2020-06-03T13:27:09.000Z</time>
      </trkpt>
      <trkpt lat="42.99546" lon="2.93289">
        <ele>89</ele>
        <time>2020-06-03T13:27:11.000Z</time>
      </trkpt>
      <trkpt lat="42.99548" lon="2.93284">
        <ele>89.4</ele>
        <time>2020-06-03T13:27:12.000Z</time>
      </trkpt>
      <trkpt lat="42.9955" lon="2.93278">
        <ele>89.8</ele>
        <time>2020-06-03T13:27:13.000Z</time>
      </trkpt>
      <trkpt lat="42.99552" lon="2.93273">
        <ele>90.2</ele>
        <time>2020-06-03T13:27:14.000Z</time>
      </trkpt>
      <trkpt lat="42.99554" lon="2.93268">
        <ele>90.6</ele>
        <time>2020-06-03T13:27:15.000Z</time>
      </trkpt>
      <trkpt lat="42.99569" lon="2.9325">
        <ele>90.6</ele>
        <time>2020-06-03T13:27:20.000Z</time>
      </trkpt>
      <trkpt lat="42.99583" lon="2.93238">
        <ele>90.6</ele>
        <time>2020-06-03T13:27:24.000Z</time>
      </trkpt>
      <trkpt lat="42.99586" lon="2.93234">
        <ele>91</ele>
        <time>2020-06-03T13:27:25.000Z</time>
      </trkpt>
      <trkpt lat="42.99589" lon="2.9323">
        <ele>91.4</ele>
        <time>2020-06-03T13:27:26.000Z</time>
      </trkpt>
      <trkpt lat="42.99592" lon="2.93226">
        <ele>92</ele>
        <time>2020-06-03T13:27:27.000Z</time>
      </trkpt>
      <trkpt lat="42.99594" lon="2.93222">
        <ele>92.8</ele>
        <time>2020-06-03T13:27:28.000Z</time>
      </trkpt>
      <trkpt lat="42.99608" lon="2.93207">
        <ele>92.8</ele>
        <time>2020-06-03T13:27:33.000Z</time>
      </trkpt>
      <trkpt lat="42.99627" lon="2.93187">
        <ele>93.2</ele>
        <time>2020-06-03T13:27:40.000Z</time>
      </trkpt>
      <trkpt lat="42.99629" lon="2.93186">
        <ele>93.6</ele>
        <time>2020-06-03T13:27:41.000Z</time>
      </trkpt>
      <trkpt lat="42.99629" lon="2.93185">
        <ele>94</ele>
        <time>2020-06-03T13:27:42.000Z</time>
      </trkpt>
      <trkpt lat="42.99629" lon="2.93184">
        <ele>94.4</ele>
        <time>2020-06-03T13:27:43.000Z</time>
      </trkpt>
      <trkpt lat="42.99629" lon="2.93183">
        <ele>94.8</ele>
        <time>2020-06-03T13:27:44.000Z</time>
      </trkpt>
      <trkpt lat="42.99629" lon="2.93183">
        <ele>94.8</ele>
        <time>2020-06-03T13:27:45.000Z</time>
      </trkpt>
      <trkpt lat="42.99622" lon="2.93192">
        <ele>94.8</ele>
        <time>2020-06-03T13:27:49.000Z</time>
      </trkpt>
      <trkpt lat="42.99608" lon="2.93205">
        <ele>94.8</ele>
        <time>2020-06-03T13:27:54.000Z</time>
      </trkpt>
      <trkpt lat="42.99599" lon="2.93212">
        <ele>94.8</ele>
        <time>2020-06-03T13:27:57.000Z</time>
      </trkpt>
      <trkpt lat="42.99597" lon="2.9321">
        <ele>94.8</ele>
        <time>2020-06-03T13:27:58.000Z</time>
      </trkpt>
      <trkpt lat="42.99595" lon="2.932">
        <ele>94.8</ele>
        <time>2020-06-03T13:28:01.000Z</time>
      </trkpt>
      <trkpt lat="42.9959" lon="2.93185">
        <ele>94.8</ele>
        <time>2020-06-03T13:28:05.000Z</time>
      </trkpt>
      <trkpt lat="42.99588" lon="2.93182">
        <ele>94.8</ele>
        <time>2020-06-03T13:28:06.000Z</time>
      </trkpt>
      <trkpt lat="42.99583" lon="2.93165">
        <ele>95.2</ele>
        <time>2020-06-03T13:28:11.000Z</time>
      </trkpt>
      <trkpt lat="42.99582" lon="2.93162">
        <ele>95.6</ele>
        <time>2020-06-03T13:28:12.000Z</time>
      </trkpt>
      <trkpt lat="42.9958" lon="2.93159">
        <ele>96</ele>
        <time>2020-06-03T13:28:13.000Z</time>
      </trkpt>
      <trkpt lat="42.99579" lon="2.93156">
        <ele>96.4</ele>
        <time>2020-06-03T13:28:14.000Z</time>
      </trkpt>
      <trkpt lat="42.99578" lon="2.93153">
        <ele>96.8</ele>
        <time>2020-06-03T13:28:15.000Z</time>
      </trkpt>
      <trkpt lat="42.99576" lon="2.93147">
        <ele>97.2</ele>
        <time>2020-06-03T13:28:17.000Z</time>
      </trkpt>
      <trkpt lat="42.99575" lon="2.93144">
        <ele>97.6</ele>
        <time>2020-06-03T13:28:18.000Z</time>
      </trkpt>
      <trkpt lat="42.99573" lon="2.93142">
        <ele>98</ele>
        <time>2020-06-03T13:28:19.000Z</time>
      </trkpt>
      <trkpt lat="42.99572" lon="2.93139">
        <ele>98.4</ele>
        <time>2020-06-03T13:28:20.000Z</time>
      </trkpt>
      <trkpt lat="42.99571" lon="2.93137">
        <ele>98.8</ele>
        <time>2020-06-03T13:28:21.000Z</time>
      </trkpt>
      <trkpt lat="42.99569" lon="2.93132">
        <ele>99.4</ele>
        <time>2020-06-03T13:28:23.000Z</time>
      </trkpt>
      <trkpt lat="42.99568" lon="2.93129">
        <ele>99.8</ele>
        <time>2020-06-03T13:28:24.000Z</time>
      </trkpt>
      <trkpt lat="42.99566" lon="2.93126">
        <ele>100.2</ele>
        <time>2020-06-03T13:28:25.000Z</time>
      </trkpt>
      <trkpt lat="42.99565" lon="2.93123">
        <ele>100.8</ele>
        <time>2020-06-03T13:28:26.000Z</time>
      </trkpt>
      <trkpt lat="42.99564" lon="2.93121">
        <ele>101.2</ele>
        <time>2020-06-03T13:28:27.000Z</time>
      </trkpt>
      <trkpt lat="42.99562" lon="2.93114">
        <ele>101.6</ele>
        <time>2020-06-03T13:28:29.000Z</time>
      </trkpt>
      <trkpt lat="42.99561" lon="2.93111">
        <ele>102</ele>
        <time>2020-06-03T13:28:30.000Z</time>
      </trkpt>
      <trkpt lat="42.9956" lon="2.93108">
        <ele>102.6</ele>
        <time>2020-06-03T13:28:31.000Z</time>
      </trkpt>
      <trkpt lat="42.99559" lon="2.93105">
        <ele>103</ele>
        <time>2020-06-03T13:28:32.000Z</time>
      </trkpt>
      <trkpt lat="42.99557" lon="2.93102">
        <ele>103.4</ele>
        <time>2020-06-03T13:28:33.000Z</time>
      </trkpt>
      <trkpt lat="42.99556" lon="2.93096">
        <ele>103.8</ele>
        <time>2020-06-03T13:28:35.000Z</time>
      </trkpt>
      <trkpt lat="42.99555" lon="2.93093">
        <ele>104.2</ele>
        <time>2020-06-03T13:28:36.000Z</time>
      </trkpt>
      <trkpt lat="42.99554" lon="2.9309">
        <ele>104.6</ele>
        <time>2020-06-03T13:28:37.000Z</time>
      </trkpt>
      <trkpt lat="42.99553" lon="2.93087">
        <ele>105</ele>
        <time>2020-06-03T13:28:38.000Z</time>
      </trkpt>
      <trkpt lat="42.99551" lon="2.93085">
        <ele>105.4</ele>
        <time>2020-06-03T13:28:39.000Z</time>
      </trkpt>
      <trkpt lat="42.9955" lon="2.93083">
        <ele>105.8</ele>
        <time>2020-06-03T13:28:40.000Z</time>
      </trkpt>
      <trkpt lat="42.99548" lon="2.9308">
        <ele>106.4</ele>
        <time>2020-06-03T13:28:41.000Z</time>
      </trkpt>
      <trkpt lat="42.99547" lon="2.93078">
        <ele>107.2</ele>
        <time>2020-06-03T13:28:42.000Z</time>
      </trkpt>
      <trkpt lat="42.99546" lon="2.93075">
        <ele>107.6</ele>
        <time>2020-06-03T13:28:43.000Z</time>
      </trkpt>
      <trkpt lat="42.99544" lon="2.93072">
        <ele>108</ele>
        <time>2020-06-03T13:28:44.000Z</time>
      </trkpt>
      <trkpt lat="42.99543" lon="2.93069">
        <ele>108.4</ele>
        <time>2020-06-03T13:28:45.000Z</time>
      </trkpt>
      <trkpt lat="42.99541" lon="2.93066">
        <ele>108.8</ele>
        <time>2020-06-03T13:28:46.000Z</time>
      </trkpt>
      <trkpt lat="42.9954" lon="2.93064">
        <ele>109.2</ele>
        <time>2020-06-03T13:28:47.000Z</time>
      </trkpt>
      <trkpt lat="42.99538" lon="2.93061">
        <ele>109.6</ele>
        <time>2020-06-03T13:28:48.000Z</time>
      </trkpt>
      <trkpt lat="42.99537" lon="2.93059">
        <ele>110</ele>
        <time>2020-06-03T13:28:49.000Z</time>
      </trkpt>
      <trkpt lat="42.99535" lon="2.93056">
        <ele>110.4</ele>
        <time>2020-06-03T13:28:50.000Z</time>
      </trkpt>
      <trkpt lat="42.99534" lon="2.93053">
        <ele>110.8</ele>
        <time>2020-06-03T13:28:51.000Z</time>
      </trkpt>
      <trkpt lat="42.99532" lon="2.93051">
        <ele>111.2</ele>
        <time>2020-06-03T13:28:52.000Z</time>
      </trkpt>
      <trkpt lat="42.99531" lon="2.93049">
        <ele>111.6</ele>
        <time>2020-06-03T13:28:53.000Z</time>
      </trkpt>
      <trkpt lat="42.99527" lon="2.93042">
        <ele>112</ele>
        <time>2020-06-03T13:28:56.000Z</time>
      </trkpt>
      <trkpt lat="42.99526" lon="2.9304">
        <ele>112.6</ele>
        <time>2020-06-03T13:28:57.000Z</time>
      </trkpt>
      <trkpt lat="42.99524" lon="2.93038">
        <ele>113</ele>
        <time>2020-06-03T13:28:58.000Z</time>
      </trkpt>
      <trkpt lat="42.99522" lon="2.93036">
        <ele>113.4</ele>
        <time>2020-06-03T13:28:59.000Z</time>
      </trkpt>
      <trkpt lat="42.9952" lon="2.93033">
        <ele>113.8</ele>
        <time>2020-06-03T13:29:00.000Z</time>
      </trkpt>
      <trkpt lat="42.99515" lon="2.93026">
        <ele>114.2</ele>
        <time>2020-06-03T13:29:03.000Z</time>
      </trkpt>
      <trkpt lat="42.99514" lon="2.93023">
        <ele>114.6</ele>
        <time>2020-06-03T13:29:04.000Z</time>
      </trkpt>
      <trkpt lat="42.99513" lon="2.9302">
        <ele>115</ele>
        <time>2020-06-03T13:29:05.000Z</time>
      </trkpt>
      <trkpt lat="42.99512" lon="2.93017">
        <ele>115.8</ele>
        <time>2020-06-03T13:29:06.000Z</time>
      </trkpt>
      <trkpt lat="42.99509" lon="2.93008">
        <ele>115.8</ele>
        <time>2020-06-03T13:29:09.000Z</time>
      </trkpt>
      <trkpt lat="42.99506" lon="2.92997">
        <ele>116.2</ele>
        <time>2020-06-03T13:29:12.000Z</time>
      </trkpt>
      <trkpt lat="42.99505" lon="2.92994">
        <ele>116.6</ele>
        <time>2020-06-03T13:29:13.000Z</time>
      </trkpt>
      <trkpt lat="42.99503" lon="2.92991">
        <ele>117</ele>
        <time>2020-06-03T13:29:14.000Z</time>
      </trkpt>
      <trkpt lat="42.995" lon="2.92989">
        <ele>117.4</ele>
        <time>2020-06-03T13:29:15.000Z</time>
      </trkpt>
      <trkpt lat="42.99497" lon="2.92987">
        <ele>117.8</ele>
        <time>2020-06-03T13:29:16.000Z</time>
      </trkpt>
      <trkpt lat="42.99488" lon="2.92981">
        <ele>117.8</ele>
        <time>2020-06-03T13:29:19.000Z</time>
      </trkpt>
      <trkpt lat="42.99467" lon="2.92969">
        <ele>117.8</ele>
        <time>2020-06-03T13:29:26.000Z</time>
      </trkpt>
      <trkpt lat="42.9946" lon="2.92961">
        <ele>118.4</ele>
        <time>2020-06-03T13:29:29.000Z</time>
      </trkpt>
      <trkpt lat="42.99459" lon="2.92957">
        <ele>118.8</ele>
        <time>2020-06-03T13:29:30.000Z</time>
      </trkpt>
      <trkpt lat="42.99458" lon="2.92955">
        <ele>119.8</ele>
        <time>2020-06-03T13:29:31.000Z</time>
      </trkpt>
      <trkpt lat="42.99457" lon="2.92952">
        <ele>120.2</ele>
        <time>2020-06-03T13:29:32.000Z</time>
      </trkpt>
      <trkpt lat="42.99455" lon="2.92945">
        <ele>120.6</ele>
        <time>2020-06-03T13:29:34.000Z</time>
      </trkpt>
      <trkpt lat="42.99454" lon="2.92942">
        <ele>121</ele>
        <time>2020-06-03T13:29:35.000Z</time>
      </trkpt>
      <trkpt lat="42.99453" lon="2.92938">
        <ele>121.4</ele>
        <time>2020-06-03T13:29:36.000Z</time>
      </trkpt>
      <trkpt lat="42.99453" lon="2.92935">
        <ele>121.8</ele>
        <time>2020-06-03T13:29:37.000Z</time>
      </trkpt>
      <trkpt lat="42.99452" lon="2.92931">
        <ele>122.2</ele>
        <time>2020-06-03T13:29:38.000Z</time>
      </trkpt>
      <trkpt lat="42.9945" lon="2.92924">
        <ele>122.6</ele>
        <time>2020-06-03T13:29:40.000Z</time>
      </trkpt>
      <trkpt lat="42.99449" lon="2.92921">
        <ele>123</ele>
        <time>2020-06-03T13:29:41.000Z</time>
      </trkpt>
      <trkpt lat="42.99449" lon="2.92918">
        <ele>123.6</ele>
        <time>2020-06-03T13:29:42.000Z</time>
      </trkpt>
      <trkpt lat="42.99448" lon="2.92914">
        <ele>124</ele>
        <time>2020-06-03T13:29:43.000Z</time>
      </trkpt>
      <trkpt lat="42.99448" lon="2.92911">
        <ele>124.4</ele>
        <time>2020-06-03T13:29:44.000Z</time>
      </trkpt>
      <trkpt lat="42.99446" lon="2.92895">
        <ele>124.4</ele>
        <time>2020-06-03T13:29:48.000Z</time>
      </trkpt>
      <trkpt lat="42.99443" lon="2.92875">
        <ele>124.4</ele>
        <time>2020-06-03T13:29:52.000Z</time>
      </trkpt>
      <trkpt lat="42.99442" lon="2.92854">
        <ele>123.6</ele>
        <time>2020-06-03T13:29:55.000Z</time>
      </trkpt>
      <trkpt lat="42.99442" lon="2.92846">
        <ele>123.2</ele>
        <time>2020-06-03T13:29:56.000Z</time>
      </trkpt>
      <trkpt lat="42.99441" lon="2.92839">
        <ele>122.8</ele>
        <time>2020-06-03T13:29:57.000Z</time>
      </trkpt>
      <trkpt lat="42.9944" lon="2.92832">
        <ele>122.4</ele>
        <time>2020-06-03T13:29:58.000Z</time>
      </trkpt>
      <trkpt lat="42.99439" lon="2.92813">
        <ele>122.4</ele>
        <time>2020-06-03T13:30:01.000Z</time>
      </trkpt>
      <trkpt lat="42.99437" lon="2.92797">
        <ele>122.4</ele>
        <time>2020-06-03T13:30:05.000Z</time>
      </trkpt>
      <trkpt lat="42.99437" lon="2.92769">
        <ele>122.8</ele>
        <time>2020-06-03T13:30:12.000Z</time>
      </trkpt>
      <trkpt lat="42.99437" lon="2.92764">
        <ele>123.2</ele>
        <time>2020-06-03T13:30:13.000Z</time>
      </trkpt>
      <trkpt lat="42.99436" lon="2.9276">
        <ele>123.8</ele>
        <time>2020-06-03T13:30:14.000Z</time>
      </trkpt>
      <trkpt lat="42.99435" lon="2.92756">
        <ele>124.2</ele>
        <time>2020-06-03T13:30:15.000Z</time>
      </trkpt>
      <trkpt lat="42.99434" lon="2.92752">
        <ele>124.6</ele>
        <time>2020-06-03T13:30:16.000Z</time>
      </trkpt>
      <trkpt lat="42.99433" lon="2.92748">
        <ele>124.6</ele>
        <time>2020-06-03T13:30:17.000Z</time>
      </trkpt>
      <trkpt lat="42.99432" lon="2.92737">
        <ele>125.6</ele>
        <time>2020-06-03T13:30:20.000Z</time>
      </trkpt>
      <trkpt lat="42.99431" lon="2.92733">
        <ele>126</ele>
        <time>2020-06-03T13:30:21.000Z</time>
      </trkpt>
      <trkpt lat="42.9943" lon="2.92729">
        <ele>126.4</ele>
        <time>2020-06-03T13:30:22.000Z</time>
      </trkpt>
      <trkpt lat="42.99429" lon="2.92724">
        <ele>127</ele>
        <time>2020-06-03T13:30:23.000Z</time>
      </trkpt>
      <trkpt lat="42.99426" lon="2.92709">
        <ele>127</ele>
        <time>2020-06-03T13:30:27.000Z</time>
      </trkpt>
      <trkpt lat="42.99426" lon="2.92698">
        <ele>127.4</ele>
        <time>2020-06-03T13:30:30.000Z</time>
      </trkpt>
      <trkpt lat="42.99425" lon="2.92694">
        <ele>127.8</ele>
        <time>2020-06-03T13:30:31.000Z</time>
      </trkpt>
      <trkpt lat="42.99425" lon="2.92691">
        <ele>128.2</ele>
        <time>2020-06-03T13:30:32.000Z</time>
      </trkpt>
      <trkpt lat="42.99424" lon="2.92687">
        <ele>128.6</ele>
        <time>2020-06-03T13:30:33.000Z</time>
      </trkpt>
      <trkpt lat="42.99424" lon="2.92684">
        <ele>129</ele>
        <time>2020-06-03T13:30:34.000Z</time>
      </trkpt>
      <trkpt lat="42.99422" lon="2.92671">
        <ele>129</ele>
        <time>2020-06-03T13:30:38.000Z</time>
      </trkpt>
      <trkpt lat="42.99423" lon="2.92663">
        <ele>129.4</ele>
        <time>2020-06-03T13:30:40.000Z</time>
      </trkpt>
      <trkpt lat="42.99423" lon="2.9266">
        <ele>129.8</ele>
        <time>2020-06-03T13:30:41.000Z</time>
      </trkpt>
      <trkpt lat="42.99424" lon="2.92657">
        <ele>130.2</ele>
        <time>2020-06-03T13:30:42.000Z</time>
      </trkpt>
      <trkpt lat="42.99424" lon="2.92655">
        <ele>130.6</ele>
        <time>2020-06-03T13:30:43.000Z</time>
      </trkpt>
      <trkpt lat="42.99425" lon="2.92654">
        <ele>131</ele>
        <time>2020-06-03T13:30:44.000Z</time>
      </trkpt>
      <trkpt lat="42.9943" lon="2.92652">
        <ele>131.4</ele>
        <time>2020-06-03T13:30:48.000Z</time>
      </trkpt>
      <trkpt lat="42.99431" lon="2.92652">
        <ele>132</ele>
        <time>2020-06-03T13:30:49.000Z</time>
      </trkpt>
      <trkpt lat="42.99433" lon="2.92652">
        <ele>132.4</ele>
        <time>2020-06-03T13:30:50.000Z</time>
      </trkpt>
      <trkpt lat="42.99434" lon="2.92653">
        <ele>132.8</ele>
        <time>2020-06-03T13:30:51.000Z</time>
      </trkpt>
      <trkpt lat="42.99435" lon="2.92656">
        <ele>133.2</ele>
        <time>2020-06-03T13:30:52.000Z</time>
      </trkpt>
      <trkpt lat="42.99437" lon="2.92658">
        <ele>133.8</ele>
        <time>2020-06-03T13:30:53.000Z</time>
      </trkpt>
      <trkpt lat="42.99438" lon="2.9266">
        <ele>134.2</ele>
        <time>2020-06-03T13:30:54.000Z</time>
      </trkpt>
      <trkpt lat="42.9944" lon="2.92662">
        <ele>134.8</ele>
        <time>2020-06-03T13:30:55.000Z</time>
      </trkpt>
      <trkpt lat="42.99441" lon="2.92664">
        <ele>135.2</ele>
        <time>2020-06-03T13:30:56.000Z</time>
      </trkpt>
      <trkpt lat="42.99442" lon="2.92667">
        <ele>135.2</ele>
        <time>2020-06-03T13:30:57.000Z</time>
      </trkpt>
      <trkpt lat="42.99443" lon="2.9267">
        <ele>135.2</ele>
        <time>2020-06-03T13:30:58.000Z</time>
      </trkpt>
      <trkpt lat="42.99446" lon="2.9268">
        <ele>135.2</ele>
        <time>2020-06-03T13:31:01.000Z</time>
      </trkpt>
      <trkpt lat="42.99447" lon="2.92686">
        <ele>135.2</ele>
        <time>2020-06-03T13:31:03.000Z</time>
      </trkpt>
      <trkpt lat="42.9945" lon="2.927">
        <ele>135.2</ele>
        <time>2020-06-03T13:31:07.000Z</time>
      </trkpt>
      <trkpt lat="42.99455" lon="2.9271">
        <ele>135.2</ele>
        <time>2020-06-03T13:31:11.000Z</time>
      </trkpt>
      <trkpt lat="42.99457" lon="2.92712">
        <ele>135.6</ele>
        <time>2020-06-03T13:31:12.000Z</time>
      </trkpt>
      <trkpt lat="42.99459" lon="2.92714">
        <ele>136</ele>
        <time>2020-06-03T13:31:13.000Z</time>
      </trkpt>
      <trkpt lat="42.99461" lon="2.92716">
        <ele>136.6</ele>
        <time>2020-06-03T13:31:14.000Z</time>
      </trkpt>
      <trkpt lat="42.99462" lon="2.92718">
        <ele>137</ele>
        <time>2020-06-03T13:31:15.000Z</time>
      </trkpt>
      <trkpt lat="42.99463" lon="2.92721">
        <ele>137.4</ele>
        <time>2020-06-03T13:31:16.000Z</time>
      </trkpt>
      <trkpt lat="42.99464" lon="2.92724">
        <ele>137.4</ele>
        <time>2020-06-03T13:31:17.000Z</time>
      </trkpt>
      <trkpt lat="42.99466" lon="2.92725">
        <ele>137.8</ele>
        <time>2020-06-03T13:31:18.000Z</time>
      </trkpt>
      <trkpt lat="42.99468" lon="2.92726">
        <ele>138.2</ele>
        <time>2020-06-03T13:31:19.000Z</time>
      </trkpt>
      <trkpt lat="42.9947" lon="2.92726">
        <ele>138.6</ele>
        <time>2020-06-03T13:31:20.000Z</time>
      </trkpt>
      <trkpt lat="42.99472" lon="2.92728">
        <ele>139</ele>
        <time>2020-06-03T13:31:21.000Z</time>
      </trkpt>
      <trkpt lat="42.99474" lon="2.9273">
        <ele>139.4</ele>
        <time>2020-06-03T13:31:22.000Z</time>
      </trkpt>
      <trkpt lat="42.99476" lon="2.92732">
        <ele>139.8</ele>
        <time>2020-06-03T13:31:23.000Z</time>
      </trkpt>
      <trkpt lat="42.99478" lon="2.92732">
        <ele>140.2</ele>
        <time>2020-06-03T13:31:24.000Z</time>
      </trkpt>
      <trkpt lat="42.9948" lon="2.92732">
        <ele>140.8</ele>
        <time>2020-06-03T13:31:25.000Z</time>
      </trkpt>
      <trkpt lat="42.99482" lon="2.9273">
        <ele>141.2</ele>
        <time>2020-06-03T13:31:26.000Z</time>
      </trkpt>
      <trkpt lat="42.99484" lon="2.92728">
        <ele>141.6</ele>
        <time>2020-06-03T13:31:27.000Z</time>
      </trkpt>
      <trkpt lat="42.99486" lon="2.92724">
        <ele>141.6</ele>
        <time>2020-06-03T13:31:29.000Z</time>
      </trkpt>
      <trkpt lat="42.99486" lon="2.9272">
        <ele>142</ele>
        <time>2020-06-03T13:31:30.000Z</time>
      </trkpt>
      <trkpt lat="42.99487" lon="2.92717">
        <ele>142.4</ele>
        <time>2020-06-03T13:31:31.000Z</time>
      </trkpt>
      <trkpt lat="42.99488" lon="2.92715">
        <ele>142.8</ele>
        <time>2020-06-03T13:31:32.000Z</time>
      </trkpt>
      <trkpt lat="42.99489" lon="2.92712">
        <ele>143.2</ele>
        <time>2020-06-03T13:31:33.000Z</time>
      </trkpt>
      <trkpt lat="42.9949" lon="2.92708">
        <ele>143.8</ele>
        <time>2020-06-03T13:31:34.000Z</time>
      </trkpt>
      <trkpt lat="42.99491" lon="2.92702">
        <ele>143.8</ele>
        <time>2020-06-03T13:31:36.000Z</time>
      </trkpt>
      <trkpt lat="42.99491" lon="2.92696">
        <ele>144.2</ele>
        <time>2020-06-03T13:31:38.000Z</time>
      </trkpt>
      <trkpt lat="42.99492" lon="2.92693">
        <ele>144.6</ele>
        <time>2020-06-03T13:31:39.000Z</time>
      </trkpt>
      <trkpt lat="42.99494" lon="2.9269">
        <ele>145</ele>
        <time>2020-06-03T13:31:40.000Z</time>
      </trkpt>
      <trkpt lat="42.99495" lon="2.92688">
        <ele>145.4</ele>
        <time>2020-06-03T13:31:41.000Z</time>
      </trkpt>
      <trkpt lat="42.99495" lon="2.92685">
        <ele>145.8</ele>
        <time>2020-06-03T13:31:42.000Z</time>
      </trkpt>
      <trkpt lat="42.99497" lon="2.92679">
        <ele>146.2</ele>
        <time>2020-06-03T13:31:44.000Z</time>
      </trkpt>
      <trkpt lat="42.99498" lon="2.92677">
        <ele>146.6</ele>
        <time>2020-06-03T13:31:45.000Z</time>
      </trkpt>
      <trkpt lat="42.99499" lon="2.92674">
        <ele>147</ele>
        <time>2020-06-03T13:31:46.000Z</time>
      </trkpt>
      <trkpt lat="42.99499" lon="2.92671">
        <ele>147.4</ele>
        <time>2020-06-03T13:31:47.000Z</time>
      </trkpt>
      <trkpt lat="42.99499" lon="2.92668">
        <ele>147.8</ele>
        <time>2020-06-03T13:31:48.000Z</time>
      </trkpt>
      <trkpt lat="42.995" lon="2.92665">
        <ele>147.8</ele>
        <time>2020-06-03T13:31:49.000Z</time>
      </trkpt>
      <trkpt lat="42.995" lon="2.92659">
        <ele>148.4</ele>
        <time>2020-06-03T13:31:51.000Z</time>
      </trkpt>
      <trkpt lat="42.99501" lon="2.92656">
        <ele>148.8</ele>
        <time>2020-06-03T13:31:52.000Z</time>
      </trkpt>
      <trkpt lat="42.99501" lon="2.92653">
        <ele>149.2</ele>
        <time>2020-06-03T13:31:53.000Z</time>
      </trkpt>
      <trkpt lat="42.99502" lon="2.92651">
        <ele>149.8</ele>
        <time>2020-06-03T13:31:54.000Z</time>
      </trkpt>
      <trkpt lat="42.99502" lon="2.92648">
        <ele>150.2</ele>
        <time>2020-06-03T13:31:55.000Z</time>
      </trkpt>
      <trkpt lat="42.99503" lon="2.92642">
        <ele>150.6</ele>
        <time>2020-06-03T13:31:57.000Z</time>
      </trkpt>
      <trkpt lat="42.99504" lon="2.92639">
        <ele>151.4</ele>
        <time>2020-06-03T13:31:58.000Z</time>
      </trkpt>
      <trkpt lat="42.99504" lon="2.92637">
        <ele>152</ele>
        <time>2020-06-03T13:31:59.000Z</time>
      </trkpt>
      <trkpt lat="42.99504" lon="2.92634">
        <ele>152.4</ele>
        <time>2020-06-03T13:32:00.000Z</time>
      </trkpt>
      <trkpt lat="42.99504" lon="2.92631">
        <ele>152.4</ele>
        <time>2020-06-03T13:32:01.000Z</time>
      </trkpt>
      <trkpt lat="42.99503" lon="2.92624">
        <ele>152.8</ele>
        <time>2020-06-03T13:32:03.000Z</time>
      </trkpt>
      <trkpt lat="42.99502" lon="2.92621">
        <ele>153.2</ele>
        <time>2020-06-03T13:32:04.000Z</time>
      </trkpt>
      <trkpt lat="42.99502" lon="2.92618">
        <ele>153.6</ele>
        <time>2020-06-03T13:32:05.000Z</time>
      </trkpt>
      <trkpt lat="42.99501" lon="2.92615">
        <ele>154.2</ele>
        <time>2020-06-03T13:32:06.000Z</time>
      </trkpt>
      <trkpt lat="42.995" lon="2.92613">
        <ele>154.6</ele>
        <time>2020-06-03T13:32:07.000Z</time>
      </trkpt>
      <trkpt lat="42.99496" lon="2.926">
        <ele>155</ele>
        <time>2020-06-03T13:32:11.000Z</time>
      </trkpt>
      <trkpt lat="42.99495" lon="2.92595">
        <ele>155.4</ele>
        <time>2020-06-03T13:32:12.000Z</time>
      </trkpt>
      <trkpt lat="42.99495" lon="2.92591">
        <ele>155.8</ele>
        <time>2020-06-03T13:32:13.000Z</time>
      </trkpt>
      <trkpt lat="42.99494" lon="2.92586">
        <ele>156.2</ele>
        <time>2020-06-03T13:32:14.000Z</time>
      </trkpt>
      <trkpt lat="42.99494" lon="2.92582">
        <ele>156.6</ele>
        <time>2020-06-03T13:32:15.000Z</time>
      </trkpt>
      <trkpt lat="42.99495" lon="2.92561">
        <ele>156.6</ele>
        <time>2020-06-03T13:32:20.000Z</time>
      </trkpt>
      <trkpt lat="42.99499" lon="2.92542">
        <ele>157</ele>
        <time>2020-06-03T13:32:24.000Z</time>
      </trkpt>
      <trkpt lat="42.99499" lon="2.92536">
        <ele>157.4</ele>
        <time>2020-06-03T13:32:25.000Z</time>
      </trkpt>
      <trkpt lat="42.995" lon="2.9253">
        <ele>157.8</ele>
        <time>2020-06-03T13:32:26.000Z</time>
      </trkpt>
      <trkpt lat="42.99501" lon="2.92525">
        <ele>158.2</ele>
        <time>2020-06-03T13:32:27.000Z</time>
      </trkpt>
      <trkpt lat="42.99502" lon="2.92519">
        <ele>158.6</ele>
        <time>2020-06-03T13:32:28.000Z</time>
      </trkpt>
      <trkpt lat="42.99504" lon="2.92502">
        <ele>158.6</ele>
        <time>2020-06-03T13:32:31.000Z</time>
      </trkpt>
      <trkpt lat="42.99504" lon="2.92496">
        <ele>158.6</ele>
        <time>2020-06-03T13:32:32.000Z</time>
      </trkpt>
      <trkpt lat="42.99504" lon="2.9249">
        <ele>158.6</ele>
        <time>2020-06-03T13:32:33.000Z</time>
      </trkpt>
      <trkpt lat="42.99505" lon="2.92471">
        <ele>158.6</ele>
        <time>2020-06-03T13:32:36.000Z</time>
      </trkpt>
      <trkpt lat="42.99505" lon="2.92464">
        <ele>158.6</ele>
        <time>2020-06-03T13:32:37.000Z</time>
      </trkpt>
      <trkpt lat="42.99506" lon="2.92459">
        <ele>158.6</ele>
        <time>2020-06-03T13:32:38.000Z</time>
      </trkpt>
      <trkpt lat="42.9951" lon="2.92446">
        <ele>158.6</ele>
        <time>2020-06-03T13:32:41.000Z</time>
      </trkpt>
      <trkpt lat="42.99515" lon="2.92428">
        <ele>159.2</ele>
        <time>2020-06-03T13:32:45.000Z</time>
      </trkpt>
      <trkpt lat="42.99517" lon="2.92424">
        <ele>159.6</ele>
        <time>2020-06-03T13:32:46.000Z</time>
      </trkpt>
      <trkpt lat="42.99518" lon="2.92419">
        <ele>160</ele>
        <time>2020-06-03T13:32:47.000Z</time>
      </trkpt>
      <trkpt lat="42.9952" lon="2.92414">
        <ele>161</ele>
        <time>2020-06-03T13:32:48.000Z</time>
      </trkpt>
      <trkpt lat="42.99521" lon="2.92408">
        <ele>161</ele>
        <time>2020-06-03T13:32:49.000Z</time>
      </trkpt>
      <trkpt lat="42.99522" lon="2.92397">
        <ele>161</ele>
        <time>2020-06-03T13:32:51.000Z</time>
      </trkpt>
      <trkpt lat="42.99522" lon="2.92367">
        <ele>161</ele>
        <time>2020-06-03T13:32:56.000Z</time>
      </trkpt>
      <trkpt lat="42.99523" lon="2.92361">
        <ele>161</ele>
        <time>2020-06-03T13:32:57.000Z</time>
      </trkpt>
      <trkpt lat="42.99524" lon="2.92354">
        <ele>161</ele>
        <time>2020-06-03T13:32:58.000Z</time>
      </trkpt>
      <trkpt lat="42.99528" lon="2.92332">
        <ele>161</ele>
        <time>2020-06-03T13:33:01.000Z</time>
      </trkpt>
      <trkpt lat="42.99531" lon="2.92318">
        <ele>161</ele>
        <time>2020-06-03T13:33:03.000Z</time>
      </trkpt>
      <trkpt lat="42.99532" lon="2.92296">
        <ele>161</ele>
        <time>2020-06-03T13:33:06.000Z</time>
      </trkpt>
      <trkpt lat="42.99532" lon="2.92289">
        <ele>161</ele>
        <time>2020-06-03T13:33:07.000Z</time>
      </trkpt>
      <trkpt lat="42.99537" lon="2.92266">
        <ele>161</ele>
        <time>2020-06-03T13:33:10.000Z</time>
      </trkpt>
      <trkpt lat="42.99539" lon="2.92258">
        <ele>161.4</ele>
        <time>2020-06-03T13:33:11.000Z</time>
      </trkpt>
      <trkpt lat="42.99541" lon="2.9225">
        <ele>161.8</ele>
        <time>2020-06-03T13:33:12.000Z</time>
      </trkpt>
      <trkpt lat="42.99543" lon="2.92243">
        <ele>162.6</ele>
        <time>2020-06-03T13:33:13.000Z</time>
      </trkpt>
      <trkpt lat="42.99545" lon="2.92235">
        <ele>163</ele>
        <time>2020-06-03T13:33:14.000Z</time>
      </trkpt>
      <trkpt lat="42.99546" lon="2.92228">
        <ele>163</ele>
        <time>2020-06-03T13:33:15.000Z</time>
      </trkpt>
      <trkpt lat="42.99546" lon="2.9222">
        <ele>163</ele>
        <time>2020-06-03T13:33:16.000Z</time>
      </trkpt>
      <trkpt lat="42.99546" lon="2.92206">
        <ele>163.4</ele>
        <time>2020-06-03T13:33:18.000Z</time>
      </trkpt>
      <trkpt lat="42.99548" lon="2.922">
        <ele>163.8</ele>
        <time>2020-06-03T13:33:19.000Z</time>
      </trkpt>
      <trkpt lat="42.9955" lon="2.92194">
        <ele>164.4</ele>
        <time>2020-06-03T13:33:20.000Z</time>
      </trkpt>
      <trkpt lat="42.99552" lon="2.92188">
        <ele>164.8</ele>
        <time>2020-06-03T13:33:21.000Z</time>
      </trkpt>
      <trkpt lat="42.99554" lon="2.92181">
        <ele>165.2</ele>
        <time>2020-06-03T13:33:22.000Z</time>
      </trkpt>
      <trkpt lat="42.99554" lon="2.92169">
        <ele>165.2</ele>
        <time>2020-06-03T13:33:24.000Z</time>
      </trkpt>
      <trkpt lat="42.99555" lon="2.92163">
        <ele>165.2</ele>
        <time>2020-06-03T13:33:25.000Z</time>
      </trkpt>
      <trkpt lat="42.99558" lon="2.9215">
        <ele>165.6</ele>
        <time>2020-06-03T13:33:27.000Z</time>
      </trkpt>
      <trkpt lat="42.99559" lon="2.92144">
        <ele>166</ele>
        <time>2020-06-03T13:33:28.000Z</time>
      </trkpt>
      <trkpt lat="42.99559" lon="2.92139">
        <ele>166.4</ele>
        <time>2020-06-03T13:33:29.000Z</time>
      </trkpt>
      <trkpt lat="42.99559" lon="2.92133">
        <ele>166.8</ele>
        <time>2020-06-03T13:33:30.000Z</time>
      </trkpt>
      <trkpt lat="42.99558" lon="2.92128">
        <ele>167.2</ele>
        <time>2020-06-03T13:33:31.000Z</time>
      </trkpt>
      <trkpt lat="42.99555" lon="2.92123">
        <ele>167.2</ele>
        <time>2020-06-03T13:33:33.000Z</time>
      </trkpt>
      <trkpt lat="42.99554" lon="2.9212">
        <ele>167.2</ele>
        <time>2020-06-03T13:33:34.000Z</time>
      </trkpt>
      <trkpt lat="42.99554" lon="2.92117">
        <ele>167.2</ele>
        <time>2020-06-03T13:33:35.000Z</time>
      </trkpt>
      <trkpt lat="42.99554" lon="2.92108">
        <ele>167.2</ele>
        <time>2020-06-03T13:33:38.000Z</time>
      </trkpt>
      <trkpt lat="42.99553" lon="2.92102">
        <ele>167.2</ele>
        <time>2020-06-03T13:33:40.000Z</time>
      </trkpt>
      <trkpt lat="42.9955" lon="2.92092">
        <ele>167.2</ele>
        <time>2020-06-03T13:33:43.000Z</time>
      </trkpt>
      <trkpt lat="42.99547" lon="2.92084">
        <ele>166.8</ele>
        <time>2020-06-03T13:33:44.000Z</time>
      </trkpt>
      <trkpt lat="42.99545" lon="2.92078">
        <ele>166.4</ele>
        <time>2020-06-03T13:33:45.000Z</time>
      </trkpt>
      <trkpt lat="42.99541" lon="2.92073">
        <ele>166</ele>
        <time>2020-06-03T13:33:46.000Z</time>
      </trkpt>
      <trkpt lat="42.99538" lon="2.92067">
        <ele>165.6</ele>
        <time>2020-06-03T13:33:47.000Z</time>
      </trkpt>
      <trkpt lat="42.99535" lon="2.92063">
        <ele>165</ele>
        <time>2020-06-03T13:33:48.000Z</time>
      </trkpt>
      <trkpt lat="42.99532" lon="2.92058">
        <ele>164.6</ele>
        <time>2020-06-03T13:33:49.000Z</time>
      </trkpt>
      <trkpt lat="42.9953" lon="2.92054">
        <ele>164</ele>
        <time>2020-06-03T13:33:50.000Z</time>
      </trkpt>
      <trkpt lat="42.99528" lon="2.92048">
        <ele>163.6</ele>
        <time>2020-06-03T13:33:51.000Z</time>
      </trkpt>
      <trkpt lat="42.99526" lon="2.92043">
        <ele>163</ele>
        <time>2020-06-03T13:33:52.000Z</time>
      </trkpt>
      <trkpt lat="42.99522" lon="2.92033">
        <ele>162.6</ele>
        <time>2020-06-03T13:33:54.000Z</time>
      </trkpt>
      <trkpt lat="42.99521" lon="2.92028">
        <ele>162.2</ele>
        <time>2020-06-03T13:33:55.000Z</time>
      </trkpt>
      <trkpt lat="42.99522" lon="2.92022">
        <ele>161.8</ele>
        <time>2020-06-03T13:33:56.000Z</time>
      </trkpt>
      <trkpt lat="42.99523" lon="2.92017">
        <ele>161.4</ele>
        <time>2020-06-03T13:33:57.000Z</time>
      </trkpt>
      <trkpt lat="42.99525" lon="2.92012">
        <ele>161</ele>
        <time>2020-06-03T13:33:58.000Z</time>
      </trkpt>
      <trkpt lat="42.99528" lon="2.92008">
        <ele>161</ele>
        <time>2020-06-03T13:33:59.000Z</time>
      </trkpt>
      <trkpt lat="42.99535" lon="2.91999">
        <ele>161</ele>
        <time>2020-06-03T13:34:01.000Z</time>
      </trkpt>
      <trkpt lat="42.99538" lon="2.91996">
        <ele>160.6</ele>
        <time>2020-06-03T13:34:02.000Z</time>
      </trkpt>
      <trkpt lat="42.99541" lon="2.91994">
        <ele>159.6</ele>
        <time>2020-06-03T13:34:03.000Z</time>
      </trkpt>
      <trkpt lat="42.99544" lon="2.91994">
        <ele>159.2</ele>
        <time>2020-06-03T13:34:04.000Z</time>
      </trkpt>
      <trkpt lat="42.99548" lon="2.91996">
        <ele>158.8</ele>
        <time>2020-06-03T13:34:05.000Z</time>
      </trkpt>
      <trkpt lat="42.99551" lon="2.91998">
        <ele>158.2</ele>
        <time>2020-06-03T13:34:06.000Z</time>
      </trkpt>
      <trkpt lat="42.99553" lon="2.91998">
        <ele>157.8</ele>
        <time>2020-06-03T13:34:07.000Z</time>
      </trkpt>
      <trkpt lat="42.99554" lon="2.91997">
        <ele>157.2</ele>
        <time>2020-06-03T13:34:08.000Z</time>
      </trkpt>
      <trkpt lat="42.99556" lon="2.91995">
        <ele>156.6</ele>
        <time>2020-06-03T13:34:09.000Z</time>
      </trkpt>
      <trkpt lat="42.99558" lon="2.91991">
        <ele>156.2</ele>
        <time>2020-06-03T13:34:10.000Z</time>
      </trkpt>
      <trkpt lat="42.99561" lon="2.91988">
        <ele>155.6</ele>
        <time>2020-06-03T13:34:11.000Z</time>
      </trkpt>
      <trkpt lat="42.99563" lon="2.91983">
        <ele>155</ele>
        <time>2020-06-03T13:34:12.000Z</time>
      </trkpt>
      <trkpt lat="42.99566" lon="2.91979">
        <ele>154.4</ele>
        <time>2020-06-03T13:34:13.000Z</time>
      </trkpt>
      <trkpt lat="42.99569" lon="2.91974">
        <ele>154.4</ele>
        <time>2020-06-03T13:34:14.000Z</time>
      </trkpt>
      <trkpt lat="42.99572" lon="2.91969">
        <ele>154.4</ele>
        <time>2020-06-03T13:34:15.000Z</time>
      </trkpt>
      <trkpt lat="42.99578" lon="2.9196">
        <ele>154.4</ele>
        <time>2020-06-03T13:34:17.000Z</time>
      </trkpt>
      <trkpt lat="42.9958" lon="2.91956">
        <ele>154.4</ele>
        <time>2020-06-03T13:34:18.000Z</time>
      </trkpt>
      <trkpt lat="42.99585" lon="2.91948">
        <ele>154.4</ele>
        <time>2020-06-03T13:34:20.000Z</time>
      </trkpt>
      <trkpt lat="42.99589" lon="2.91939">
        <ele>154.4</ele>
        <time>2020-06-03T13:34:22.000Z</time>
      </trkpt>
      <trkpt lat="42.99593" lon="2.91939">
        <ele>154.4</ele>
        <time>2020-06-03T13:34:24.000Z</time>
      </trkpt>
      <trkpt lat="42.99595" lon="2.91937">
        <ele>154.4</ele>
        <time>2020-06-03T13:34:25.000Z</time>
      </trkpt>
      <trkpt lat="42.99599" lon="2.9193">
        <ele>154.4</ele>
        <time>2020-06-03T13:34:27.000Z</time>
      </trkpt>
      <trkpt lat="42.99602" lon="2.91928">
        <ele>154.4</ele>
        <time>2020-06-03T13:34:28.000Z</time>
      </trkpt>
      <trkpt lat="42.99607" lon="2.91927">
        <ele>154.4</ele>
        <time>2020-06-03T13:34:30.000Z</time>
      </trkpt>
      <trkpt lat="42.99612" lon="2.91922">
        <ele>154.4</ele>
        <time>2020-06-03T13:34:32.000Z</time>
      </trkpt>
      <trkpt lat="42.99615" lon="2.91921">
        <ele>154.4</ele>
        <time>2020-06-03T13:34:33.000Z</time>
      </trkpt>
      <trkpt lat="42.99618" lon="2.91921">
        <ele>154.4</ele>
        <time>2020-06-03T13:34:34.000Z</time>
      </trkpt>
      <trkpt lat="42.99624" lon="2.9192">
        <ele>155</ele>
        <time>2020-06-03T13:34:36.000Z</time>
      </trkpt>
      <trkpt lat="42.99625" lon="2.91919">
        <ele>155.4</ele>
        <time>2020-06-03T13:34:37.000Z</time>
      </trkpt>
      <trkpt lat="42.99627" lon="2.91916">
        <ele>155.8</ele>
        <time>2020-06-03T13:34:38.000Z</time>
      </trkpt>
      <trkpt lat="42.99627" lon="2.91914">
        <ele>156.4</ele>
        <time>2020-06-03T13:34:39.000Z</time>
      </trkpt>
      <trkpt lat="42.99628" lon="2.91911">
        <ele>156.8</ele>
        <time>2020-06-03T13:34:40.000Z</time>
      </trkpt>
      <trkpt lat="42.99628" lon="2.91908">
        <ele>157.4</ele>
        <time>2020-06-03T13:34:41.000Z</time>
      </trkpt>
      <trkpt lat="42.99629" lon="2.91905">
        <ele>157.8</ele>
        <time>2020-06-03T13:34:42.000Z</time>
      </trkpt>
      <trkpt lat="42.99629" lon="2.91902">
        <ele>158.4</ele>
        <time>2020-06-03T13:34:43.000Z</time>
      </trkpt>
      <trkpt lat="42.9963" lon="2.919">
        <ele>158.8</ele>
        <time>2020-06-03T13:34:44.000Z</time>
      </trkpt>
      <trkpt lat="42.9963" lon="2.91898">
        <ele>159.4</ele>
        <time>2020-06-03T13:34:45.000Z</time>
      </trkpt>
      <trkpt lat="42.99631" lon="2.91897">
        <ele>159.8</ele>
        <time>2020-06-03T13:34:46.000Z</time>
      </trkpt>
      <trkpt lat="42.99633" lon="2.91897">
        <ele>160.2</ele>
        <time>2020-06-03T13:34:47.000Z</time>
      </trkpt>
      <trkpt lat="42.99635" lon="2.91896">
        <ele>160.8</ele>
        <time>2020-06-03T13:34:48.000Z</time>
      </trkpt>
      <trkpt lat="42.99638" lon="2.91895">
        <ele>161.4</ele>
        <time>2020-06-03T13:34:49.000Z</time>
      </trkpt>
      <trkpt lat="42.9964" lon="2.91896">
        <ele>162</ele>
        <time>2020-06-03T13:34:50.000Z</time>
      </trkpt>
      <trkpt lat="42.99643" lon="2.91898">
        <ele>162.4</ele>
        <time>2020-06-03T13:34:51.000Z</time>
      </trkpt>
      <trkpt lat="42.99645" lon="2.91901">
        <ele>163</ele>
        <time>2020-06-03T13:34:52.000Z</time>
      </trkpt>
      <trkpt lat="42.99647" lon="2.91905">
        <ele>164.2</ele>
        <time>2020-06-03T13:34:53.000Z</time>
      </trkpt>
      <trkpt lat="42.99649" lon="2.91909">
        <ele>164.8</ele>
        <time>2020-06-03T13:34:54.000Z</time>
      </trkpt>
      <trkpt lat="42.99651" lon="2.91912">
        <ele>165.2</ele>
        <time>2020-06-03T13:34:55.000Z</time>
      </trkpt>
      <trkpt lat="42.99653" lon="2.91915">
        <ele>165.8</ele>
        <time>2020-06-03T13:34:56.000Z</time>
      </trkpt>
      <trkpt lat="42.99662" lon="2.91929">
        <ele>165.8</ele>
        <time>2020-06-03T13:35:00.000Z</time>
      </trkpt>
      <trkpt lat="42.99668" lon="2.91935">
        <ele>165.8</ele>
        <time>2020-06-03T13:35:03.000Z</time>
      </trkpt>
      <trkpt lat="42.99668" lon="2.91936">
        <ele>165.8</ele>
        <time>2020-06-03T13:35:07.000Z</time>
      </trkpt>
      <trkpt lat="42.99667" lon="2.91952">
        <ele>165.8</ele>
        <time>2020-06-03T13:35:12.000Z</time>
      </trkpt>
      <trkpt lat="42.99669" lon="2.91958">
        <ele>165.8</ele>
        <time>2020-06-03T13:35:14.000Z</time>
      </trkpt>
      <trkpt lat="42.9967" lon="2.91964">
        <ele>165.8</ele>
        <time>2020-06-03T13:35:16.000Z</time>
      </trkpt>
      <trkpt lat="42.99671" lon="2.91971">
        <ele>165.8</ele>
        <time>2020-06-03T13:35:18.000Z</time>
      </trkpt>
      <trkpt lat="42.99676" lon="2.91978">
        <ele>165.8</ele>
        <time>2020-06-03T13:35:20.000Z</time>
      </trkpt>
      <trkpt lat="42.99681" lon="2.91983">
        <ele>165.8</ele>
        <time>2020-06-03T13:35:22.000Z</time>
      </trkpt>
      <trkpt lat="42.99685" lon="2.91984">
        <ele>165.8</ele>
        <time>2020-06-03T13:35:24.000Z</time>
      </trkpt>
      <trkpt lat="42.99686" lon="2.91992">
        <ele>165.8</ele>
        <time>2020-06-03T13:35:27.000Z</time>
      </trkpt>
      <trkpt lat="42.99681" lon="2.92007">
        <ele>165.8</ele>
        <time>2020-06-03T13:35:32.000Z</time>
      </trkpt>
      <trkpt lat="42.99682" lon="2.92025">
        <ele>165.8</ele>
        <time>2020-06-03T13:35:36.000Z</time>
      </trkpt>
      <trkpt lat="42.99686" lon="2.92039">
        <ele>165.8</ele>
        <time>2020-06-03T13:35:39.000Z</time>
      </trkpt>
      <trkpt lat="42.99684" lon="2.92041">
        <ele>165.8</ele>
        <time>2020-06-03T13:35:40.000Z</time>
      </trkpt>
      <trkpt lat="42.99683" lon="2.9205">
        <ele>165.4</ele>
        <time>2020-06-03T13:35:42.000Z</time>
      </trkpt>
      <trkpt lat="42.99682" lon="2.92055">
        <ele>165</ele>
        <time>2020-06-03T13:35:43.000Z</time>
      </trkpt>
      <trkpt lat="42.99682" lon="2.9206">
        <ele>164.6</ele>
        <time>2020-06-03T13:35:44.000Z</time>
      </trkpt>
      <trkpt lat="42.99682" lon="2.92064">
        <ele>164.2</ele>
        <time>2020-06-03T13:35:45.000Z</time>
      </trkpt>
      <trkpt lat="42.99682" lon="2.92069">
        <ele>163.8</ele>
        <time>2020-06-03T13:35:46.000Z</time>
      </trkpt>
      <trkpt lat="42.99686" lon="2.92076">
        <ele>163.2</ele>
        <time>2020-06-03T13:35:48.000Z</time>
      </trkpt>
      <trkpt lat="42.99687" lon="2.92081">
        <ele>162.8</ele>
        <time>2020-06-03T13:35:49.000Z</time>
      </trkpt>
      <trkpt lat="42.99688" lon="2.92087">
        <ele>162.4</ele>
        <time>2020-06-03T13:35:50.000Z</time>
      </trkpt>
      <trkpt lat="42.99688" lon="2.92091">
        <ele>161.8</ele>
        <time>2020-06-03T13:35:51.000Z</time>
      </trkpt>
      <trkpt lat="42.9969" lon="2.92096">
        <ele>161.4</ele>
        <time>2020-06-03T13:35:52.000Z</time>
      </trkpt>
      <trkpt lat="42.99692" lon="2.92101">
        <ele>161</ele>
        <time>2020-06-03T13:35:53.000Z</time>
      </trkpt>
      <trkpt lat="42.99693" lon="2.92105">
        <ele>160.6</ele>
        <time>2020-06-03T13:35:54.000Z</time>
      </trkpt>
      <trkpt lat="42.99694" lon="2.92111">
        <ele>160.2</ele>
        <time>2020-06-03T13:35:55.000Z</time>
      </trkpt>
      <trkpt lat="42.99696" lon="2.92117">
        <ele>159.8</ele>
        <time>2020-06-03T13:35:56.000Z</time>
      </trkpt>
      <trkpt lat="42.99697" lon="2.92124">
        <ele>159.2</ele>
        <time>2020-06-03T13:35:57.000Z</time>
      </trkpt>
      <trkpt lat="42.99698" lon="2.92131">
        <ele>158.6</ele>
        <time>2020-06-03T13:35:58.000Z</time>
      </trkpt>
      <trkpt lat="42.99699" lon="2.92137">
        <ele>158</ele>
        <time>2020-06-03T13:35:59.000Z</time>
      </trkpt>
      <trkpt lat="42.997" lon="2.92143">
        <ele>157.2</ele>
        <time>2020-06-03T13:36:00.000Z</time>
      </trkpt>
      <trkpt lat="42.997" lon="2.92149">
        <ele>156.6</ele>
        <time>2020-06-03T13:36:01.000Z</time>
      </trkpt>
      <trkpt lat="42.99701" lon="2.92154">
        <ele>155.6</ele>
        <time>2020-06-03T13:36:02.000Z</time>
      </trkpt>
      <trkpt lat="42.99703" lon="2.92158">
        <ele>154.8</ele>
        <time>2020-06-03T13:36:03.000Z</time>
      </trkpt>
      <trkpt lat="42.99704" lon="2.92163">
        <ele>154</ele>
        <time>2020-06-03T13:36:04.000Z</time>
      </trkpt>
      <trkpt lat="42.99706" lon="2.92165">
        <ele>153.2</ele>
        <time>2020-06-03T13:36:05.000Z</time>
      </trkpt>
      <trkpt lat="42.99709" lon="2.92168">
        <ele>151.6</ele>
        <time>2020-06-03T13:36:06.000Z</time>
      </trkpt>
      <trkpt lat="42.99712" lon="2.92172">
        <ele>150.8</ele>
        <time>2020-06-03T13:36:07.000Z</time>
      </trkpt>
      <trkpt lat="42.99716" lon="2.92176">
        <ele>150.2</ele>
        <time>2020-06-03T13:36:08.000Z</time>
      </trkpt>
      <trkpt lat="42.99718" lon="2.9218">
        <ele>149.6</ele>
        <time>2020-06-03T13:36:09.000Z</time>
      </trkpt>
      <trkpt lat="42.99722" lon="2.92182">
        <ele>149</ele>
        <time>2020-06-03T13:36:10.000Z</time>
      </trkpt>
      <trkpt lat="42.99726" lon="2.92185">
        <ele>148.4</ele>
        <time>2020-06-03T13:36:11.000Z</time>
      </trkpt>
      <trkpt lat="42.9973" lon="2.92187">
        <ele>147.8</ele>
        <time>2020-06-03T13:36:12.000Z</time>
      </trkpt>
      <trkpt lat="42.99734" lon="2.92188">
        <ele>147.4</ele>
        <time>2020-06-03T13:36:13.000Z</time>
      </trkpt>
      <trkpt lat="42.99738" lon="2.92188">
        <ele>146.8</ele>
        <time>2020-06-03T13:36:14.000Z</time>
      </trkpt>
      <trkpt lat="42.99742" lon="2.92187">
        <ele>146.2</ele>
        <time>2020-06-03T13:36:15.000Z</time>
      </trkpt>
      <trkpt lat="42.99746" lon="2.92185">
        <ele>145.8</ele>
        <time>2020-06-03T13:36:16.000Z</time>
      </trkpt>
      <trkpt lat="42.99757" lon="2.92175">
        <ele>145.4</ele>
        <time>2020-06-03T13:36:19.000Z</time>
      </trkpt>
      <trkpt lat="42.9976" lon="2.92172">
        <ele>145</ele>
        <time>2020-06-03T13:36:20.000Z</time>
      </trkpt>
      <trkpt lat="42.99763" lon="2.92169">
        <ele>144.4</ele>
        <time>2020-06-03T13:36:21.000Z</time>
      </trkpt>
      <trkpt lat="42.99767" lon="2.92166">
        <ele>144</ele>
        <time>2020-06-03T13:36:22.000Z</time>
      </trkpt>
      <trkpt lat="42.9977" lon="2.92162">
        <ele>143.6</ele>
        <time>2020-06-03T13:36:23.000Z</time>
      </trkpt>
      <trkpt lat="42.99773" lon="2.9216">
        <ele>143</ele>
        <time>2020-06-03T13:36:24.000Z</time>
      </trkpt>
      <trkpt lat="42.99776" lon="2.9216">
        <ele>142.4</ele>
        <time>2020-06-03T13:36:25.000Z</time>
      </trkpt>
      <trkpt lat="42.99778" lon="2.92162">
        <ele>141.6</ele>
        <time>2020-06-03T13:36:26.000Z</time>
      </trkpt>
      <trkpt lat="42.9978" lon="2.92166">
        <ele>141</ele>
        <time>2020-06-03T13:36:27.000Z</time>
      </trkpt>
      <trkpt lat="42.99781" lon="2.92171">
        <ele>140.2</ele>
        <time>2020-06-03T13:36:28.000Z</time>
      </trkpt>
      <trkpt lat="42.99782" lon="2.92175">
        <ele>139.6</ele>
        <time>2020-06-03T13:36:29.000Z</time>
      </trkpt>
      <trkpt lat="42.99783" lon="2.9218">
        <ele>138.8</ele>
        <time>2020-06-03T13:36:30.000Z</time>
      </trkpt>
      <trkpt lat="42.99783" lon="2.92185">
        <ele>137.2</ele>
        <time>2020-06-03T13:36:31.000Z</time>
      </trkpt>
      <trkpt lat="42.99784" lon="2.92191">
        <ele>136.6</ele>
        <time>2020-06-03T13:36:32.000Z</time>
      </trkpt>
      <trkpt lat="42.99785" lon="2.92197">
        <ele>135.8</ele>
        <time>2020-06-03T13:36:33.000Z</time>
      </trkpt>
      <trkpt lat="42.99786" lon="2.92203">
        <ele>135</ele>
        <time>2020-06-03T13:36:34.000Z</time>
      </trkpt>
      <trkpt lat="42.99787" lon="2.9221">
        <ele>134.4</ele>
        <time>2020-06-03T13:36:35.000Z</time>
      </trkpt>
      <trkpt lat="42.99789" lon="2.92216">
        <ele>133.8</ele>
        <time>2020-06-03T13:36:36.000Z</time>
      </trkpt>
      <trkpt lat="42.9979" lon="2.92222">
        <ele>133</ele>
        <time>2020-06-03T13:36:37.000Z</time>
      </trkpt>
      <trkpt lat="42.99791" lon="2.92228">
        <ele>132.4</ele>
        <time>2020-06-03T13:36:38.000Z</time>
      </trkpt>
      <trkpt lat="42.99792" lon="2.92234">
        <ele>131.6</ele>
        <time>2020-06-03T13:36:39.000Z</time>
      </trkpt>
      <trkpt lat="42.99792" lon="2.92239">
        <ele>131</ele>
        <time>2020-06-03T13:36:40.000Z</time>
      </trkpt>
      <trkpt lat="42.99793" lon="2.92245">
        <ele>130.2</ele>
        <time>2020-06-03T13:36:41.000Z</time>
      </trkpt>
      <trkpt lat="42.99793" lon="2.92249">
        <ele>129.4</ele>
        <time>2020-06-03T13:36:42.000Z</time>
      </trkpt>
      <trkpt lat="42.99793" lon="2.92254">
        <ele>128.8</ele>
        <time>2020-06-03T13:36:43.000Z</time>
      </trkpt>
      <trkpt lat="42.99795" lon="2.92259">
        <ele>128</ele>
        <time>2020-06-03T13:36:44.000Z</time>
      </trkpt>
      <trkpt lat="42.99796" lon="2.92263">
        <ele>127.2</ele>
        <time>2020-06-03T13:36:45.000Z</time>
      </trkpt>
      <trkpt lat="42.99796" lon="2.92267">
        <ele>126.6</ele>
        <time>2020-06-03T13:36:46.000Z</time>
      </trkpt>
      <trkpt lat="42.99795" lon="2.92271">
        <ele>125.8</ele>
        <time>2020-06-03T13:36:47.000Z</time>
      </trkpt>
      <trkpt lat="42.99793" lon="2.92276">
        <ele>125</ele>
        <time>2020-06-03T13:36:48.000Z</time>
      </trkpt>
      <trkpt lat="42.99791" lon="2.92282">
        <ele>124.4</ele>
        <time>2020-06-03T13:36:49.000Z</time>
      </trkpt>
      <trkpt lat="42.99789" lon="2.92288">
        <ele>123.6</ele>
        <time>2020-06-03T13:36:50.000Z</time>
      </trkpt>
      <trkpt lat="42.99789" lon="2.92293">
        <ele>123</ele>
        <time>2020-06-03T13:36:51.000Z</time>
      </trkpt>
      <trkpt lat="42.99789" lon="2.92299">
        <ele>122.2</ele>
        <time>2020-06-03T13:36:52.000Z</time>
      </trkpt>
      <trkpt lat="42.99787" lon="2.92305">
        <ele>121.6</ele>
        <time>2020-06-03T13:36:53.000Z</time>
      </trkpt>
      <trkpt lat="42.99786" lon="2.92309">
        <ele>121</ele>
        <time>2020-06-03T13:36:54.000Z</time>
      </trkpt>
      <trkpt lat="42.99784" lon="2.92311">
        <ele>120.6</ele>
        <time>2020-06-03T13:36:55.000Z</time>
      </trkpt>
      <trkpt lat="42.99782" lon="2.92312">
        <ele>119.6</ele>
        <time>2020-06-03T13:36:56.000Z</time>
      </trkpt>
      <trkpt lat="42.99781" lon="2.92314">
        <ele>119.2</ele>
        <time>2020-06-03T13:36:57.000Z</time>
      </trkpt>
      <trkpt lat="42.99782" lon="2.92319">
        <ele>119.2</ele>
        <time>2020-06-03T13:37:00.000Z</time>
      </trkpt>
      <trkpt lat="42.99784" lon="2.92321">
        <ele>119.2</ele>
        <time>2020-06-03T13:37:01.000Z</time>
      </trkpt>
      <trkpt lat="42.99787" lon="2.92324">
        <ele>119.2</ele>
        <time>2020-06-03T13:37:03.000Z</time>
      </trkpt>
      <trkpt lat="42.99789" lon="2.92324">
        <ele>119.2</ele>
        <time>2020-06-03T13:37:04.000Z</time>
      </trkpt>
      <trkpt lat="42.99797" lon="2.92333">
        <ele>119.2</ele>
        <time>2020-06-03T13:37:08.000Z</time>
      </trkpt>
      <trkpt lat="42.99798" lon="2.92337">
        <ele>119.2</ele>
        <time>2020-06-03T13:37:09.000Z</time>
      </trkpt>
      <trkpt lat="42.998" lon="2.92358">
        <ele>118.8</ele>
        <time>2020-06-03T13:37:14.000Z</time>
      </trkpt>
      <trkpt lat="42.99801" lon="2.92363">
        <ele>118.4</ele>
        <time>2020-06-03T13:37:15.000Z</time>
      </trkpt>
      <trkpt lat="42.99801" lon="2.92367">
        <ele>117.8</ele>
        <time>2020-06-03T13:37:16.000Z</time>
      </trkpt>
      <trkpt lat="42.99802" lon="2.92371">
        <ele>117.4</ele>
        <time>2020-06-03T13:37:17.000Z</time>
      </trkpt>
      <trkpt lat="42.99802" lon="2.92376">
        <ele>117</ele>
        <time>2020-06-03T13:37:18.000Z</time>
      </trkpt>
      <trkpt lat="42.99803" lon="2.92392">
        <ele>117</ele>
        <time>2020-06-03T13:37:21.000Z</time>
      </trkpt>
      <trkpt lat="42.99804" lon="2.92416">
        <ele>116.6</ele>
        <time>2020-06-03T13:37:26.000Z</time>
      </trkpt>
      <trkpt lat="42.99806" lon="2.92418">
        <ele>116.2</ele>
        <time>2020-06-03T13:37:27.000Z</time>
      </trkpt>
      <trkpt lat="42.99808" lon="2.92419">
        <ele>115.8</ele>
        <time>2020-06-03T13:37:28.000Z</time>
      </trkpt>
      <trkpt lat="42.9981" lon="2.92418">
        <ele>115.4</ele>
        <time>2020-06-03T13:37:29.000Z</time>
      </trkpt>
      <trkpt lat="42.99811" lon="2.92415">
        <ele>115</ele>
        <time>2020-06-03T13:37:30.000Z</time>
      </trkpt>
      <trkpt lat="42.9981" lon="2.9241">
        <ele>115</ele>
        <time>2020-06-03T13:37:32.000Z</time>
      </trkpt>
      <trkpt lat="42.9981" lon="2.92407">
        <ele>115</ele>
        <time>2020-06-03T13:37:33.000Z</time>
      </trkpt>
      <trkpt lat="42.99811" lon="2.92406">
        <ele>115</ele>
        <time>2020-06-03T13:37:34.000Z</time>
      </trkpt>
      <trkpt lat="42.9981" lon="2.92401">
        <ele>115</ele>
        <time>2020-06-03T13:37:36.000Z</time>
      </trkpt>
      <trkpt lat="42.99809" lon="2.92382">
        <ele>115</ele>
        <time>2020-06-03T13:37:41.000Z</time>
      </trkpt>
      <trkpt lat="42.99807" lon="2.92353">
        <ele>115</ele>
        <time>2020-06-03T13:37:47.000Z</time>
      </trkpt>
      <trkpt lat="42.99805" lon="2.92326">
        <ele>115</ele>
        <time>2020-06-03T13:37:53.000Z</time>
      </trkpt>
      <trkpt lat="42.99806" lon="2.92307">
        <ele>115.4</ele>
        <time>2020-06-03T13:37:57.000Z</time>
      </trkpt>
      <trkpt lat="42.99807" lon="2.92302">
        <ele>115.8</ele>
        <time>2020-06-03T13:37:58.000Z</time>
      </trkpt>
      <trkpt lat="42.99808" lon="2.92298">
        <ele>116.2</ele>
        <time>2020-06-03T13:37:59.000Z</time>
      </trkpt>
      <trkpt lat="42.99809" lon="2.92294">
        <ele>116.6</ele>
        <time>2020-06-03T13:38:00.000Z</time>
      </trkpt>
      <trkpt lat="42.9981" lon="2.9229">
        <ele>117</ele>
        <time>2020-06-03T13:38:01.000Z</time>
      </trkpt>
      <trkpt lat="42.99821" lon="2.92276">
        <ele>117</ele>
        <time>2020-06-03T13:38:06.000Z</time>
      </trkpt>
      <trkpt lat="42.99833" lon="2.92275">
        <ele>117.4</ele>
        <time>2020-06-03T13:38:10.000Z</time>
      </trkpt>
      <trkpt lat="42.99836" lon="2.92275">
        <ele>117.8</ele>
        <time>2020-06-03T13:38:11.000Z</time>
      </trkpt>
      <trkpt lat="42.99839" lon="2.92275">
        <ele>118.4</ele>
        <time>2020-06-03T13:38:12.000Z</time>
      </trkpt>
      <trkpt lat="42.99841" lon="2.92275">
        <ele>118.8</ele>
        <time>2020-06-03T13:38:13.000Z</time>
      </trkpt>
      <trkpt lat="42.99844" lon="2.92275">
        <ele>119.2</ele>
        <time>2020-06-03T13:38:14.000Z</time>
      </trkpt>
      <trkpt lat="42.99853" lon="2.92273">
        <ele>119.2</ele>
        <time>2020-06-03T13:38:18.000Z</time>
      </trkpt>
      <trkpt lat="42.99856" lon="2.92273">
        <ele>119.6</ele>
        <time>2020-06-03T13:38:19.000Z</time>
      </trkpt>
      <trkpt lat="42.99858" lon="2.92273">
        <ele>120</ele>
        <time>2020-06-03T13:38:20.000Z</time>
      </trkpt>
      <trkpt lat="42.9986" lon="2.92273">
        <ele>120.4</ele>
        <time>2020-06-03T13:38:21.000Z</time>
      </trkpt>
      <trkpt lat="42.99863" lon="2.92273">
        <ele>120.8</ele>
        <time>2020-06-03T13:38:22.000Z</time>
      </trkpt>
      <trkpt lat="42.99866" lon="2.92273">
        <ele>121.2</ele>
        <time>2020-06-03T13:38:23.000Z</time>
      </trkpt>
      <trkpt lat="42.99883" lon="2.92279">
        <ele>121.2</ele>
        <time>2020-06-03T13:38:29.000Z</time>
      </trkpt>
      <trkpt lat="42.99897" lon="2.92286">
        <ele>121.6</ele>
        <time>2020-06-03T13:38:34.000Z</time>
      </trkpt>
      <trkpt lat="42.999" lon="2.92287">
        <ele>122.6</ele>
        <time>2020-06-03T13:38:35.000Z</time>
      </trkpt>
      <trkpt lat="42.99902" lon="2.92289">
        <ele>123</ele>
        <time>2020-06-03T13:38:36.000Z</time>
      </trkpt>
      <trkpt lat="42.99905" lon="2.9229">
        <ele>123.4</ele>
        <time>2020-06-03T13:38:37.000Z</time>
      </trkpt>
      <trkpt lat="42.99919" lon="2.92289">
        <ele>123.8</ele>
        <time>2020-06-03T13:38:42.000Z</time>
      </trkpt>
      <trkpt lat="42.99922" lon="2.92288">
        <ele>124.2</ele>
        <time>2020-06-03T13:38:43.000Z</time>
      </trkpt>
      <trkpt lat="42.99924" lon="2.92287">
        <ele>124.6</ele>
        <time>2020-06-03T13:38:44.000Z</time>
      </trkpt>
      <trkpt lat="42.99927" lon="2.92286">
        <ele>125</ele>
        <time>2020-06-03T13:38:45.000Z</time>
      </trkpt>
      <trkpt lat="42.99929" lon="2.92286">
        <ele>125.4</ele>
        <time>2020-06-03T13:38:46.000Z</time>
      </trkpt>
      <trkpt lat="42.99938" lon="2.92284">
        <ele>125.4</ele>
        <time>2020-06-03T13:38:49.000Z</time>
      </trkpt>
      <trkpt lat="42.99961" lon="2.92271">
        <ele>125.4</ele>
        <time>2020-06-03T13:38:56.000Z</time>
      </trkpt>
      <trkpt lat="42.99987" lon="2.92259">
        <ele>125.4</ele>
        <time>2020-06-03T13:39:03.000Z</time>
      </trkpt>
      <trkpt lat="42.99993" lon="2.92255">
        <ele>126</ele>
        <time>2020-06-03T13:39:05.000Z</time>
      </trkpt>
      <trkpt lat="42.99996" lon="2.92254">
        <ele>126.4</ele>
        <time>2020-06-03T13:39:06.000Z</time>
      </trkpt>
      <trkpt lat="42.99999" lon="2.92252">
        <ele>126.8</ele>
        <time>2020-06-03T13:39:07.000Z</time>
      </trkpt>
      <trkpt lat="43.00002" lon="2.9225">
        <ele>127.2</ele>
        <time>2020-06-03T13:39:08.000Z</time>
      </trkpt>
      <trkpt lat="43.00004" lon="2.92248">
        <ele>127.6</ele>
        <time>2020-06-03T13:39:09.000Z</time>
      </trkpt>
      <trkpt lat="43.00018" lon="2.92232">
        <ele>127.6</ele>
        <time>2020-06-03T13:39:15.000Z</time>
      </trkpt>
      <trkpt lat="43.00021" lon="2.9223">
        <ele>128</ele>
        <time>2020-06-03T13:39:16.000Z</time>
      </trkpt>
      <trkpt lat="43.00022" lon="2.92228">
        <ele>128.4</ele>
        <time>2020-06-03T13:39:17.000Z</time>
      </trkpt>
      <trkpt lat="43.00024" lon="2.92225">
        <ele>128.8</ele>
        <time>2020-06-03T13:39:18.000Z</time>
      </trkpt>
      <trkpt lat="43.00025" lon="2.92222">
        <ele>129.2</ele>
        <time>2020-06-03T13:39:19.000Z</time>
      </trkpt>
      <trkpt lat="43.00027" lon="2.9222">
        <ele>129.6</ele>
        <time>2020-06-03T13:39:20.000Z</time>
      </trkpt>
      <trkpt lat="43.00028" lon="2.92218">
        <ele>129.6</ele>
        <time>2020-06-03T13:39:21.000Z</time>
      </trkpt>
      <trkpt lat="43.00035" lon="2.9221">
        <ele>130.2</ele>
        <time>2020-06-03T13:39:25.000Z</time>
      </trkpt>
      <trkpt lat="43.00037" lon="2.92208">
        <ele>130.6</ele>
        <time>2020-06-03T13:39:26.000Z</time>
      </trkpt>
      <trkpt lat="43.0004" lon="2.92206">
        <ele>131</ele>
        <time>2020-06-03T13:39:27.000Z</time>
      </trkpt>
      <trkpt lat="43.00042" lon="2.92203">
        <ele>131.4</ele>
        <time>2020-06-03T13:39:28.000Z</time>
      </trkpt>
      <trkpt lat="43.00045" lon="2.92201">
        <ele>132</ele>
        <time>2020-06-03T13:39:29.000Z</time>
      </trkpt>
      <trkpt lat="43.00054" lon="2.9219">
        <ele>132</ele>
        <time>2020-06-03T13:39:33.000Z</time>
      </trkpt>
      <trkpt lat="43.00055" lon="2.92186">
        <ele>132.4</ele>
        <time>2020-06-03T13:39:34.000Z</time>
      </trkpt>
      <trkpt lat="43.00057" lon="2.92183">
        <ele>132.8</ele>
        <time>2020-06-03T13:39:35.000Z</time>
      </trkpt>
      <trkpt lat="43.00058" lon="2.92179">
        <ele>133.2</ele>
        <time>2020-06-03T13:39:36.000Z</time>
      </trkpt>
      <trkpt lat="43.0006" lon="2.92176">
        <ele>133.6</ele>
        <time>2020-06-03T13:39:37.000Z</time>
      </trkpt>
      <trkpt lat="43.00062" lon="2.92173">
        <ele>134</ele>
        <time>2020-06-03T13:39:38.000Z</time>
      </trkpt>
      <trkpt lat="43.00076" lon="2.92162">
        <ele>134</ele>
        <time>2020-06-03T13:39:43.000Z</time>
      </trkpt>
      <trkpt lat="43.00091" lon="2.92153">
        <ele>134.4</ele>
        <time>2020-06-03T13:39:48.000Z</time>
      </trkpt>
      <trkpt lat="43.00094" lon="2.92151">
        <ele>135.4</ele>
        <time>2020-06-03T13:39:49.000Z</time>
      </trkpt>
      <trkpt lat="43.00098" lon="2.9215">
        <ele>135.8</ele>
        <time>2020-06-03T13:39:50.000Z</time>
      </trkpt>
      <trkpt lat="43.00101" lon="2.92148">
        <ele>136.2</ele>
        <time>2020-06-03T13:39:51.000Z</time>
      </trkpt>
      <trkpt lat="43.00109" lon="2.92145">
        <ele>136.2</ele>
        <time>2020-06-03T13:39:54.000Z</time>
      </trkpt>
      <trkpt lat="43.00115" lon="2.92141">
        <ele>136.6</ele>
        <time>2020-06-03T13:39:57.000Z</time>
      </trkpt>
      <trkpt lat="43.00117" lon="2.92139">
        <ele>137</ele>
        <time>2020-06-03T13:39:58.000Z</time>
      </trkpt>
      <trkpt lat="43.00119" lon="2.92137">
        <ele>137.4</ele>
        <time>2020-06-03T13:39:59.000Z</time>
      </trkpt>
      <trkpt lat="43.00121" lon="2.92136">
        <ele>137.8</ele>
        <time>2020-06-03T13:40:00.000Z</time>
      </trkpt>
      <trkpt lat="43.00123" lon="2.92135">
        <ele>138.2</ele>
        <time>2020-06-03T13:40:01.000Z</time>
      </trkpt>
      <trkpt lat="43.00136" lon="2.92131">
        <ele>138.2</ele>
        <time>2020-06-03T13:40:05.000Z</time>
      </trkpt>
      <trkpt lat="43.00151" lon="2.9212">
        <ele>138.2</ele>
        <time>2020-06-03T13:40:10.000Z</time>
      </trkpt>
      <trkpt lat="43.00153" lon="2.92118">
        <ele>138.6</ele>
        <time>2020-06-03T13:40:11.000Z</time>
      </trkpt>
      <trkpt lat="43.00156" lon="2.92115">
        <ele>139</ele>
        <time>2020-06-03T13:40:12.000Z</time>
      </trkpt>
      <trkpt lat="43.00158" lon="2.92113">
        <ele>139.4</ele>
        <time>2020-06-03T13:40:13.000Z</time>
      </trkpt>
      <trkpt lat="43.00161" lon="2.92111">
        <ele>140.4</ele>
        <time>2020-06-03T13:40:14.000Z</time>
      </trkpt>
      <trkpt lat="43.00171" lon="2.92106">
        <ele>140.4</ele>
        <time>2020-06-03T13:40:17.000Z</time>
      </trkpt>
      <trkpt lat="43.00186" lon="2.92092">
        <ele>140.4</ele>
        <time>2020-06-03T13:40:22.000Z</time>
      </trkpt>
      <trkpt lat="43.00188" lon="2.92089">
        <ele>140.8</ele>
        <time>2020-06-03T13:40:23.000Z</time>
      </trkpt>
      <trkpt lat="43.00191" lon="2.92086">
        <ele>141.2</ele>
        <time>2020-06-03T13:40:24.000Z</time>
      </trkpt>
      <trkpt lat="43.00194" lon="2.92083">
        <ele>141.8</ele>
        <time>2020-06-03T13:40:25.000Z</time>
      </trkpt>
      <trkpt lat="43.00197" lon="2.9208">
        <ele>142.2</ele>
        <time>2020-06-03T13:40:26.000Z</time>
      </trkpt>
      <trkpt lat="43.002" lon="2.92079">
        <ele>142.6</ele>
        <time>2020-06-03T13:40:27.000Z</time>
      </trkpt>
      <trkpt lat="43.00204" lon="2.92078">
        <ele>142.6</ele>
        <time>2020-06-03T13:40:28.000Z</time>
      </trkpt>
      <trkpt lat="43.00208" lon="2.92078">
        <ele>142.6</ele>
        <time>2020-06-03T13:40:29.000Z</time>
      </trkpt>
      <trkpt lat="43.00222" lon="2.92082">
        <ele>142.6</ele>
        <time>2020-06-03T13:40:32.000Z</time>
      </trkpt>
      <trkpt lat="43.00239" lon="2.92093">
        <ele>142.6</ele>
        <time>2020-06-03T13:40:37.000Z</time>
      </trkpt>
      <trkpt lat="43.00243" lon="2.92108">
        <ele>142.6</ele>
        <time>2020-06-03T13:40:41.000Z</time>
      </trkpt>
      <trkpt lat="43.00245" lon="2.92119">
        <ele>142.6</ele>
        <time>2020-06-03T13:40:43.000Z</time>
      </trkpt>
      <trkpt lat="43.00249" lon="2.9213">
        <ele>142.6</ele>
        <time>2020-06-03T13:40:45.000Z</time>
      </trkpt>
      <trkpt lat="43.00257" lon="2.92136">
        <ele>142.6</ele>
        <time>2020-06-03T13:40:48.000Z</time>
      </trkpt>
      <trkpt lat="43.00258" lon="2.92138">
        <ele>142.6</ele>
        <time>2020-06-03T13:40:49.000Z</time>
      </trkpt>
      <trkpt lat="43.00261" lon="2.92151">
        <ele>142.6</ele>
        <time>2020-06-03T13:40:53.000Z</time>
      </trkpt>
      <trkpt lat="43.00271" lon="2.92161">
        <ele>142.2</ele>
        <time>2020-06-03T13:40:56.000Z</time>
      </trkpt>
      <trkpt lat="43.00274" lon="2.92165">
        <ele>141.8</ele>
        <time>2020-06-03T13:40:57.000Z</time>
      </trkpt>
      <trkpt lat="43.00278" lon="2.92167">
        <ele>141.2</ele>
        <time>2020-06-03T13:40:58.000Z</time>
      </trkpt>
      <trkpt lat="43.00281" lon="2.92167">
        <ele>140.6</ele>
        <time>2020-06-03T13:40:59.000Z</time>
      </trkpt>
      <trkpt lat="43.00284" lon="2.92165">
        <ele>139.8</ele>
        <time>2020-06-03T13:41:00.000Z</time>
      </trkpt>
      <trkpt lat="43.00287" lon="2.92166">
        <ele>139</ele>
        <time>2020-06-03T13:41:01.000Z</time>
      </trkpt>
      <trkpt lat="43.00291" lon="2.92169">
        <ele>137.4</ele>
        <time>2020-06-03T13:41:02.000Z</time>
      </trkpt>
      <trkpt lat="43.00296" lon="2.9217">
        <ele>137</ele>
        <time>2020-06-03T13:41:03.000Z</time>
      </trkpt>
      <trkpt lat="43.00301" lon="2.92171">
        <ele>136.6</ele>
        <time>2020-06-03T13:41:04.000Z</time>
      </trkpt>
      <trkpt lat="43.00304" lon="2.92169">
        <ele>136.2</ele>
        <time>2020-06-03T13:41:05.000Z</time>
      </trkpt>
      <trkpt lat="43.00307" lon="2.92165">
        <ele>135.8</ele>
        <time>2020-06-03T13:41:06.000Z</time>
      </trkpt>
      <trkpt lat="43.00311" lon="2.92161">
        <ele>135.4</ele>
        <time>2020-06-03T13:41:07.000Z</time>
      </trkpt>
      <trkpt lat="43.00315" lon="2.92157">
        <ele>134.8</ele>
        <time>2020-06-03T13:41:08.000Z</time>
      </trkpt>
      <trkpt lat="43.0032" lon="2.92152">
        <ele>134.4</ele>
        <time>2020-06-03T13:41:09.000Z</time>
      </trkpt>
      <trkpt lat="43.00323" lon="2.92148">
        <ele>134</ele>
        <time>2020-06-03T13:41:10.000Z</time>
      </trkpt>
      <trkpt lat="43.00327" lon="2.92146">
        <ele>133.4</ele>
        <time>2020-06-03T13:41:11.000Z</time>
      </trkpt>
      <trkpt lat="43.0033" lon="2.92144">
        <ele>132.8</ele>
        <time>2020-06-03T13:41:12.000Z</time>
      </trkpt>
      <trkpt lat="43.00335" lon="2.92145">
        <ele>132.2</ele>
        <time>2020-06-03T13:41:13.000Z</time>
      </trkpt>
      <trkpt lat="43.0034" lon="2.92147">
        <ele>131.6</ele>
        <time>2020-06-03T13:41:14.000Z</time>
      </trkpt>
      <trkpt lat="43.00344" lon="2.92151">
        <ele>131</ele>
        <time>2020-06-03T13:41:16.000Z</time>
      </trkpt>
      <trkpt lat="43.00347" lon="2.92155">
        <ele>130.2</ele>
        <time>2020-06-03T13:41:17.000Z</time>
      </trkpt>
      <trkpt lat="43.0035" lon="2.92161">
        <ele>129.6</ele>
        <time>2020-06-03T13:41:18.000Z</time>
      </trkpt>
      <trkpt lat="43.00354" lon="2.92167">
        <ele>128.8</ele>
        <time>2020-06-03T13:41:19.000Z</time>
      </trkpt>
      <trkpt lat="43.00357" lon="2.92173">
        <ele>128.2</ele>
        <time>2020-06-03T13:41:20.000Z</time>
      </trkpt>
      <trkpt lat="43.00358" lon="2.92178">
        <ele>127.4</ele>
        <time>2020-06-03T13:41:21.000Z</time>
      </trkpt>
      <trkpt lat="43.00357" lon="2.9218">
        <ele>126.8</ele>
        <time>2020-06-03T13:41:22.000Z</time>
      </trkpt>
      <trkpt lat="43.00356" lon="2.92184">
        <ele>126</ele>
        <time>2020-06-03T13:41:23.000Z</time>
      </trkpt>
      <trkpt lat="43.00356" lon="2.92193">
        <ele>126</ele>
        <time>2020-06-03T13:41:25.000Z</time>
      </trkpt>
      <trkpt lat="43.0035" lon="2.92201">
        <ele>126</ele>
        <time>2020-06-03T13:41:27.000Z</time>
      </trkpt>
      <trkpt lat="43.00348" lon="2.92205">
        <ele>125</ele>
        <time>2020-06-03T13:41:28.000Z</time>
      </trkpt>
      <trkpt lat="43.00346" lon="2.92211">
        <ele>124.6</ele>
        <time>2020-06-03T13:41:29.000Z</time>
      </trkpt>
      <trkpt lat="43.00346" lon="2.92216">
        <ele>124</ele>
        <time>2020-06-03T13:41:30.000Z</time>
      </trkpt>
      <trkpt lat="43.00347" lon="2.9222">
        <ele>123.6</ele>
        <time>2020-06-03T13:41:31.000Z</time>
      </trkpt>
      <trkpt lat="43.00349" lon="2.92221">
        <ele>123</ele>
        <time>2020-06-03T13:41:32.000Z</time>
      </trkpt>
      <trkpt lat="43.0035" lon="2.92224">
        <ele>122.4</ele>
        <time>2020-06-03T13:41:33.000Z</time>
      </trkpt>
      <trkpt lat="43.00351" lon="2.92227">
        <ele>121.8</ele>
        <time>2020-06-03T13:41:34.000Z</time>
      </trkpt>
      <trkpt lat="43.00352" lon="2.9223">
        <ele>121.2</ele>
        <time>2020-06-03T13:41:35.000Z</time>
      </trkpt>
      <trkpt lat="43.00357" lon="2.92247">
        <ele>121.2</ele>
        <time>2020-06-03T13:41:39.000Z</time>
      </trkpt>
      <trkpt lat="43.00368" lon="2.92263">
        <ele>121.2</ele>
        <time>2020-06-03T13:41:44.000Z</time>
      </trkpt>
      <trkpt lat="43.0037" lon="2.92265">
        <ele>121.8</ele>
        <time>2020-06-03T13:41:45.000Z</time>
      </trkpt>
      <trkpt lat="43.00372" lon="2.92267">
        <ele>122.2</ele>
        <time>2020-06-03T13:41:46.000Z</time>
      </trkpt>
      <trkpt lat="43.00374" lon="2.92269">
        <ele>122.8</ele>
        <time>2020-06-03T13:41:47.000Z</time>
      </trkpt>
      <trkpt lat="43.00376" lon="2.92272">
        <ele>123.2</ele>
        <time>2020-06-03T13:41:48.000Z</time>
      </trkpt>
      <trkpt lat="43.00377" lon="2.92275">
        <ele>123.6</ele>
        <time>2020-06-03T13:41:49.000Z</time>
      </trkpt>
      <trkpt lat="43.00377" lon="2.92279">
        <ele>123.6</ele>
        <time>2020-06-03T13:41:50.000Z</time>
      </trkpt>
      <trkpt lat="43.00376" lon="2.92287">
        <ele>124.6</ele>
        <time>2020-06-03T13:41:52.000Z</time>
      </trkpt>
      <trkpt lat="43.00376" lon="2.92292">
        <ele>125</ele>
        <time>2020-06-03T13:41:53.000Z</time>
      </trkpt>
      <trkpt lat="43.00376" lon="2.92296">
        <ele>125.4</ele>
        <time>2020-06-03T13:41:54.000Z</time>
      </trkpt>
      <trkpt lat="43.00375" lon="2.923">
        <ele>125.8</ele>
        <time>2020-06-03T13:41:55.000Z</time>
      </trkpt>
      <trkpt lat="43.00374" lon="2.92304">
        <ele>125.8</ele>
        <time>2020-06-03T13:41:56.000Z</time>
      </trkpt>
      <trkpt lat="43.00373" lon="2.92307">
        <ele>125.8</ele>
        <time>2020-06-03T13:41:57.000Z</time>
      </trkpt>
      <trkpt lat="43.00371" lon="2.92323">
        <ele>125.8</ele>
        <time>2020-06-03T13:42:02.000Z</time>
      </trkpt>
      <trkpt lat="43.00372" lon="2.92325">
        <ele>126.4</ele>
        <time>2020-06-03T13:42:03.000Z</time>
      </trkpt>
      <trkpt lat="43.00374" lon="2.92327">
        <ele>126.8</ele>
        <time>2020-06-03T13:42:04.000Z</time>
      </trkpt>
      <trkpt lat="43.00376" lon="2.92328">
        <ele>127.2</ele>
        <time>2020-06-03T13:42:05.000Z</time>
      </trkpt>
      <trkpt lat="43.00378" lon="2.9233">
        <ele>127.6</ele>
        <time>2020-06-03T13:42:06.000Z</time>
      </trkpt>
      <trkpt lat="43.0038" lon="2.9233">
        <ele>128</ele>
        <time>2020-06-03T13:42:07.000Z</time>
      </trkpt>
      <trkpt lat="43.00386" lon="2.9233">
        <ele>128</ele>
        <time>2020-06-03T13:42:11.000Z</time>
      </trkpt>
      <trkpt lat="43.00398" lon="2.92335">
        <ele>128</ele>
        <time>2020-06-03T13:42:17.000Z</time>
      </trkpt>
      <trkpt lat="43.00405" lon="2.92341">
        <ele>128.4</ele>
        <time>2020-06-03T13:42:23.000Z</time>
      </trkpt>
      <trkpt lat="43.00405" lon="2.92341">
        <ele>128.8</ele>
        <time>2020-06-03T13:42:24.000Z</time>
      </trkpt>
      <trkpt lat="43.00404" lon="2.9234">
        <ele>130.2</ele>
        <time>2020-06-03T13:42:30.000Z</time>
      </trkpt>
      <trkpt lat="43.00399" lon="2.92337">
        <ele>130.2</ele>
        <time>2020-06-03T13:42:32.000Z</time>
      </trkpt>
      <trkpt lat="43.00383" lon="2.92331">
        <ele>130.2</ele>
        <time>2020-06-03T13:42:37.000Z</time>
      </trkpt>
      <trkpt lat="43.00379" lon="2.92333">
        <ele>130.2</ele>
        <time>2020-06-03T13:42:39.000Z</time>
      </trkpt>
      <trkpt lat="43.00375" lon="2.92335">
        <ele>129.6</ele>
        <time>2020-06-03T13:42:41.000Z</time>
      </trkpt>
      <trkpt lat="43.00372" lon="2.92336">
        <ele>128.8</ele>
        <time>2020-06-03T13:42:42.000Z</time>
      </trkpt>
      <trkpt lat="43.00369" lon="2.92338">
        <ele>128.4</ele>
        <time>2020-06-03T13:42:43.000Z</time>
      </trkpt>
      <trkpt lat="43.00365" lon="2.9234">
        <ele>128</ele>
        <time>2020-06-03T13:42:44.000Z</time>
      </trkpt>
      <trkpt lat="43.00361" lon="2.92343">
        <ele>127.6</ele>
        <time>2020-06-03T13:42:45.000Z</time>
      </trkpt>
      <trkpt lat="43.00357" lon="2.92346">
        <ele>127.2</ele>
        <time>2020-06-03T13:42:46.000Z</time>
      </trkpt>
      <trkpt lat="43.00353" lon="2.9235">
        <ele>126.8</ele>
        <time>2020-06-03T13:42:47.000Z</time>
      </trkpt>
      <trkpt lat="43.0035" lon="2.92357">
        <ele>126.4</ele>
        <time>2020-06-03T13:42:48.000Z</time>
      </trkpt>
      <trkpt lat="43.00347" lon="2.92364">
        <ele>125.8</ele>
        <time>2020-06-03T13:42:49.000Z</time>
      </trkpt>
      <trkpt lat="43.00344" lon="2.9237">
        <ele>125</ele>
        <time>2020-06-03T13:42:50.000Z</time>
      </trkpt>
      <trkpt lat="43.0034" lon="2.92377">
        <ele>124.4</ele>
        <time>2020-06-03T13:42:51.000Z</time>
      </trkpt>
      <trkpt lat="43.00336" lon="2.92381">
        <ele>123.8</ele>
        <time>2020-06-03T13:42:52.000Z</time>
      </trkpt>
      <trkpt lat="43.00333" lon="2.92384">
        <ele>123</ele>
        <time>2020-06-03T13:42:53.000Z</time>
      </trkpt>
      <trkpt lat="43.0033" lon="2.92384">
        <ele>122.2</ele>
        <time>2020-06-03T13:42:54.000Z</time>
      </trkpt>
      <trkpt lat="43.00326" lon="2.92382">
        <ele>121.6</ele>
        <time>2020-06-03T13:42:55.000Z</time>
      </trkpt>
      <trkpt lat="43.00321" lon="2.92378">
        <ele>120.8</ele>
        <time>2020-06-03T13:42:56.000Z</time>
      </trkpt>
      <trkpt lat="43.00316" lon="2.92374">
        <ele>120.8</ele>
        <time>2020-06-03T13:42:57.000Z</time>
      </trkpt>
      <trkpt lat="43.00305" lon="2.92367">
        <ele>120.4</ele>
        <time>2020-06-03T13:42:59.000Z</time>
      </trkpt>
      <trkpt lat="43.00299" lon="2.92365">
        <ele>119.8</ele>
        <time>2020-06-03T13:43:00.000Z</time>
      </trkpt>
      <trkpt lat="43.00293" lon="2.92364">
        <ele>119.4</ele>
        <time>2020-06-03T13:43:01.000Z</time>
      </trkpt>
      <trkpt lat="43.00286" lon="2.92363">
        <ele>118.8</ele>
        <time>2020-06-03T13:43:02.000Z</time>
      </trkpt>
      <trkpt lat="43.00279" lon="2.92362">
        <ele>118.2</ele>
        <time>2020-06-03T13:43:03.000Z</time>
      </trkpt>
      <trkpt lat="43.00273" lon="2.92362">
        <ele>117.6</ele>
        <time>2020-06-03T13:43:04.000Z</time>
      </trkpt>
      <trkpt lat="43.00267" lon="2.92363">
        <ele>116.8</ele>
        <time>2020-06-03T13:43:05.000Z</time>
      </trkpt>
      <trkpt lat="43.00261" lon="2.92366">
        <ele>116</ele>
        <time>2020-06-03T13:43:06.000Z</time>
      </trkpt>
      <trkpt lat="43.00257" lon="2.9237">
        <ele>114.6</ele>
        <time>2020-06-03T13:43:07.000Z</time>
      </trkpt>
      <trkpt lat="43.00254" lon="2.92375">
        <ele>114</ele>
        <time>2020-06-03T13:43:08.000Z</time>
      </trkpt>
      <trkpt lat="43.00249" lon="2.92391">
        <ele>114</ele>
        <time>2020-06-03T13:43:11.000Z</time>
      </trkpt>
      <trkpt lat="43.00245" lon="2.924">
        <ele>114</ele>
        <time>2020-06-03T13:43:13.000Z</time>
      </trkpt>
      <trkpt lat="43.0024" lon="2.9241">
        <ele>114</ele>
        <time>2020-06-03T13:43:15.000Z</time>
      </trkpt>
      <trkpt lat="43.00239" lon="2.92415">
        <ele>114</ele>
        <time>2020-06-03T13:43:16.000Z</time>
      </trkpt>
      <trkpt lat="43.00229" lon="2.92444">
        <ele>114</ele>
        <time>2020-06-03T13:43:21.000Z</time>
      </trkpt>
      <trkpt lat="43.00226" lon="2.92458">
        <ele>114</ele>
        <time>2020-06-03T13:43:23.000Z</time>
      </trkpt>
      <trkpt lat="43.00225" lon="2.92465">
        <ele>113.4</ele>
        <time>2020-06-03T13:43:24.000Z</time>
      </trkpt>
      <trkpt lat="43.00225" lon="2.92472">
        <ele>113</ele>
        <time>2020-06-03T13:43:25.000Z</time>
      </trkpt>
      <trkpt lat="43.00224" lon="2.9248">
        <ele>112.6</ele>
        <time>2020-06-03T13:43:26.000Z</time>
      </trkpt>
      <trkpt lat="43.00223" lon="2.92488">
        <ele>112.2</ele>
        <time>2020-06-03T13:43:27.000Z</time>
      </trkpt>
      <trkpt lat="43.00223" lon="2.92495">
        <ele>111.8</ele>
        <time>2020-06-03T13:43:28.000Z</time>
      </trkpt>
      <trkpt lat="43.00221" lon="2.92501">
        <ele>111.8</ele>
        <time>2020-06-03T13:43:29.000Z</time>
      </trkpt>
      <trkpt lat="43.00216" lon="2.92521">
        <ele>111.8</ele>
        <time>2020-06-03T13:43:32.000Z</time>
      </trkpt>
      <trkpt lat="43.00206" lon="2.92559">
        <ele>111.8</ele>
        <time>2020-06-03T13:43:38.000Z</time>
      </trkpt>
      <trkpt lat="43.00204" lon="2.92564">
        <ele>111.8</ele>
        <time>2020-06-03T13:43:39.000Z</time>
      </trkpt>
      <trkpt lat="43.00202" lon="2.9257">
        <ele>111.4</ele>
        <time>2020-06-03T13:43:40.000Z</time>
      </trkpt>
      <trkpt lat="43.002" lon="2.92575">
        <ele>110.8</ele>
        <time>2020-06-03T13:43:41.000Z</time>
      </trkpt>
      <trkpt lat="43.00197" lon="2.92581">
        <ele>110.4</ele>
        <time>2020-06-03T13:43:42.000Z</time>
      </trkpt>
      <trkpt lat="43.00195" lon="2.92588">
        <ele>110</ele>
        <time>2020-06-03T13:43:43.000Z</time>
      </trkpt>
      <trkpt lat="43.00193" lon="2.92595">
        <ele>109.6</ele>
        <time>2020-06-03T13:43:44.000Z</time>
      </trkpt>
      <trkpt lat="43.00188" lon="2.92618">
        <ele>109.6</ele>
        <time>2020-06-03T13:43:47.000Z</time>
      </trkpt>
      <trkpt lat="43.00187" lon="2.92626">
        <ele>109.6</ele>
        <time>2020-06-03T13:43:48.000Z</time>
      </trkpt>
      <trkpt lat="43.00182" lon="2.92658">
        <ele>109.2</ele>
        <time>2020-06-03T13:43:52.000Z</time>
      </trkpt>
      <trkpt lat="43.00181" lon="2.92666">
        <ele>108.8</ele>
        <time>2020-06-03T13:43:53.000Z</time>
      </trkpt>
      <trkpt lat="43.0018" lon="2.92674">
        <ele>108.4</ele>
        <time>2020-06-03T13:43:54.000Z</time>
      </trkpt>
      <trkpt lat="43.0018" lon="2.92682">
        <ele>108</ele>
        <time>2020-06-03T13:43:55.000Z</time>
      </trkpt>
      <trkpt lat="43.00179" lon="2.92688">
        <ele>107.6</ele>
        <time>2020-06-03T13:43:56.000Z</time>
      </trkpt>
      <trkpt lat="43.00177" lon="2.92694">
        <ele>107.6</ele>
        <time>2020-06-03T13:43:57.000Z</time>
      </trkpt>
      <trkpt lat="43.00176" lon="2.927">
        <ele>107.6</ele>
        <time>2020-06-03T13:43:58.000Z</time>
      </trkpt>
      <trkpt lat="43.00179" lon="2.92716">
        <ele>107.6</ele>
        <time>2020-06-03T13:44:01.000Z</time>
      </trkpt>
      <trkpt lat="43.0018" lon="2.92718">
        <ele>107.6</ele>
        <time>2020-06-03T13:44:02.000Z</time>
      </trkpt>
      <trkpt lat="43.00185" lon="2.92738">
        <ele>107.6</ele>
        <time>2020-06-03T13:44:08.000Z</time>
      </trkpt>
      <trkpt lat="43.00184" lon="2.92743">
        <ele>107.6</ele>
        <time>2020-06-03T13:44:10.000Z</time>
      </trkpt>
      <trkpt lat="43.00183" lon="2.92749">
        <ele>107.6</ele>
        <time>2020-06-03T13:44:12.000Z</time>
      </trkpt>
      <trkpt lat="43.00179" lon="2.92761">
        <ele>107.6</ele>
        <time>2020-06-03T13:44:17.000Z</time>
      </trkpt>
      <trkpt lat="43.00185" lon="2.92764">
        <ele>107.6</ele>
        <time>2020-06-03T13:44:21.000Z</time>
      </trkpt>
      <trkpt lat="43.00186" lon="2.92765">
        <ele>107.6</ele>
        <time>2020-06-03T13:44:22.000Z</time>
      </trkpt>
      <trkpt lat="43.00189" lon="2.92766">
        <ele>107.6</ele>
        <time>2020-06-03T13:44:24.000Z</time>
      </trkpt>
      <trkpt lat="43.00191" lon="2.92771">
        <ele>107.6</ele>
        <time>2020-06-03T13:44:26.000Z</time>
      </trkpt>
      <trkpt lat="43.00192" lon="2.92774">
        <ele>108</ele>
        <time>2020-06-03T13:44:27.000Z</time>
      </trkpt>
      <trkpt lat="43.00192" lon="2.92777">
        <ele>108.4</ele>
        <time>2020-06-03T13:44:28.000Z</time>
      </trkpt>
      <trkpt lat="43.00192" lon="2.9278">
        <ele>109</ele>
        <time>2020-06-03T13:44:29.000Z</time>
      </trkpt>
      <trkpt lat="43.00191" lon="2.92784">
        <ele>109.4</ele>
        <time>2020-06-03T13:44:30.000Z</time>
      </trkpt>
      <trkpt lat="43.00191" lon="2.92786">
        <ele>109.8</ele>
        <time>2020-06-03T13:44:31.000Z</time>
      </trkpt>
      <trkpt lat="43.00191" lon="2.92795">
        <ele>109.8</ele>
        <time>2020-06-03T13:44:34.000Z</time>
      </trkpt>
      <trkpt lat="43.00192" lon="2.92801">
        <ele>110.2</ele>
        <time>2020-06-03T13:44:36.000Z</time>
      </trkpt>
      <trkpt lat="43.00192" lon="2.92805">
        <ele>110.6</ele>
        <time>2020-06-03T13:44:37.000Z</time>
      </trkpt>
      <trkpt lat="43.00192" lon="2.92809">
        <ele>111</ele>
        <time>2020-06-03T13:44:38.000Z</time>
      </trkpt>
      <trkpt lat="43.00193" lon="2.92812">
        <ele>111.4</ele>
        <time>2020-06-03T13:44:39.000Z</time>
      </trkpt>
      <trkpt lat="43.00193" lon="2.92817">
        <ele>111.8</ele>
        <time>2020-06-03T13:44:40.000Z</time>
      </trkpt>
      <trkpt lat="43.00194" lon="2.9282">
        <ele>111.8</ele>
        <time>2020-06-03T13:44:41.000Z</time>
      </trkpt>
      <trkpt lat="43.00197" lon="2.92835">
        <ele>112.8</ele>
        <time>2020-06-03T13:44:45.000Z</time>
      </trkpt>
      <trkpt lat="43.00197" lon="2.92839">
        <ele>113.2</ele>
        <time>2020-06-03T13:44:46.000Z</time>
      </trkpt>
      <trkpt lat="43.00199" lon="2.92843">
        <ele>113.6</ele>
        <time>2020-06-03T13:44:47.000Z</time>
      </trkpt>
      <trkpt lat="43.002" lon="2.92846">
        <ele>114</ele>
        <time>2020-06-03T13:44:48.000Z</time>
      </trkpt>
      <trkpt lat="43.00204" lon="2.92853">
        <ele>114.4</ele>
        <time>2020-06-03T13:44:50.000Z</time>
      </trkpt>
      <trkpt lat="43.00205" lon="2.92856">
        <ele>114.8</ele>
        <time>2020-06-03T13:44:51.000Z</time>
      </trkpt>
      <trkpt lat="43.00206" lon="2.92859">
        <ele>115.2</ele>
        <time>2020-06-03T13:44:52.000Z</time>
      </trkpt>
      <trkpt lat="43.00208" lon="2.92862">
        <ele>115.6</ele>
        <time>2020-06-03T13:44:53.000Z</time>
      </trkpt>
      <trkpt lat="43.00208" lon="2.92866">
        <ele>116.2</ele>
        <time>2020-06-03T13:44:54.000Z</time>
      </trkpt>
      <trkpt lat="43.00208" lon="2.92883">
        <ele>116.2</ele>
        <time>2020-06-03T13:44:58.000Z</time>
      </trkpt>
      <trkpt lat="43.00207" lon="2.92888">
        <ele>116.2</ele>
        <time>2020-06-03T13:45:00.000Z</time>
      </trkpt>
      <trkpt lat="43.00207" lon="2.92891">
        <ele>116.2</ele>
        <time>2020-06-03T13:45:02.000Z</time>
      </trkpt>
      <trkpt lat="43.00208" lon="2.92894">
        <ele>116.2</ele>
        <time>2020-06-03T13:45:03.000Z</time>
      </trkpt>
      <trkpt lat="43.00207" lon="2.92899">
        <ele>116.2</ele>
        <time>2020-06-03T13:45:05.000Z</time>
      </trkpt>
      <trkpt lat="43.00201" lon="2.92912">
        <ele>116.2</ele>
        <time>2020-06-03T13:45:09.000Z</time>
      </trkpt>
      <trkpt lat="43.00201" lon="2.92915">
        <ele>117</ele>
        <time>2020-06-03T13:45:10.000Z</time>
      </trkpt>
      <trkpt lat="43.002" lon="2.92918">
        <ele>117.4</ele>
        <time>2020-06-03T13:45:11.000Z</time>
      </trkpt>
      <trkpt lat="43.002" lon="2.9292">
        <ele>117.8</ele>
        <time>2020-06-03T13:45:12.000Z</time>
      </trkpt>
      <trkpt lat="43.002" lon="2.92921">
        <ele>118.2</ele>
        <time>2020-06-03T13:45:13.000Z</time>
      </trkpt>
      <trkpt lat="43.00199" lon="2.92925">
        <ele>118.2</ele>
        <time>2020-06-03T13:45:14.000Z</time>
      </trkpt>
      <trkpt lat="43.00194" lon="2.92933">
        <ele>118.2</ele>
        <time>2020-06-03T13:45:19.000Z</time>
      </trkpt>
      <trkpt lat="43.00196" lon="2.92935">
        <ele>118.2</ele>
        <time>2020-06-03T13:45:39.000Z</time>
      </trkpt>
      <trkpt lat="43.00202" lon="2.92932">
        <ele>118.2</ele>
        <time>2020-06-03T13:45:41.000Z</time>
      </trkpt>
      <trkpt lat="43.00206" lon="2.9293">
        <ele>118.2</ele>
        <time>2020-06-03T13:45:43.000Z</time>
      </trkpt>
      <trkpt lat="43.00207" lon="2.92928">
        <ele>118.8</ele>
        <time>2020-06-03T13:45:44.000Z</time>
      </trkpt>
      <trkpt lat="43.00209" lon="2.92926">
        <ele>119.2</ele>
        <time>2020-06-03T13:45:45.000Z</time>
      </trkpt>
      <trkpt lat="43.00211" lon="2.92923">
        <ele>119.8</ele>
        <time>2020-06-03T13:45:46.000Z</time>
      </trkpt>
      <trkpt lat="43.00213" lon="2.92922">
        <ele>120.4</ele>
        <time>2020-06-03T13:45:47.000Z</time>
      </trkpt>
      <trkpt lat="43.00214" lon="2.9292">
        <ele>121</ele>
        <time>2020-06-03T13:45:48.000Z</time>
      </trkpt>
      <trkpt lat="43.00216" lon="2.9292">
        <ele>121.6</ele>
        <time>2020-06-03T13:45:49.000Z</time>
      </trkpt>
      <trkpt lat="43.00218" lon="2.92919">
        <ele>122.2</ele>
        <time>2020-06-03T13:45:50.000Z</time>
      </trkpt>
      <trkpt lat="43.00221" lon="2.92917">
        <ele>122.8</ele>
        <time>2020-06-03T13:45:51.000Z</time>
      </trkpt>
      <trkpt lat="43.00223" lon="2.92914">
        <ele>123.4</ele>
        <time>2020-06-03T13:45:52.000Z</time>
      </trkpt>
      <trkpt lat="43.00228" lon="2.92908">
        <ele>123.4</ele>
        <time>2020-06-03T13:45:54.000Z</time>
      </trkpt>
      <trkpt lat="43.00229" lon="2.92906">
        <ele>123.8</ele>
        <time>2020-06-03T13:45:55.000Z</time>
      </trkpt>
      <trkpt lat="43.00232" lon="2.92904">
        <ele>124.4</ele>
        <time>2020-06-03T13:45:56.000Z</time>
      </trkpt>
      <trkpt lat="43.00235" lon="2.92902">
        <ele>124.8</ele>
        <time>2020-06-03T13:45:57.000Z</time>
      </trkpt>
      <trkpt lat="43.00237" lon="2.929">
        <ele>125.2</ele>
        <time>2020-06-03T13:45:58.000Z</time>
      </trkpt>
      <trkpt lat="43.0024" lon="2.92897">
        <ele>125.8</ele>
        <time>2020-06-03T13:45:59.000Z</time>
      </trkpt>
      <trkpt lat="43.00243" lon="2.92894">
        <ele>125.8</ele>
        <time>2020-06-03T13:46:00.000Z</time>
      </trkpt>
      <trkpt lat="43.00251" lon="2.92885">
        <ele>126.2</ele>
        <time>2020-06-03T13:46:03.000Z</time>
      </trkpt>
      <trkpt lat="43.00252" lon="2.92883">
        <ele>126.6</ele>
        <time>2020-06-03T13:46:04.000Z</time>
      </trkpt>
      <trkpt lat="43.00253" lon="2.92878">
        <ele>127</ele>
        <time>2020-06-03T13:46:05.000Z</time>
      </trkpt>
      <trkpt lat="43.00254" lon="2.92874">
        <ele>127.4</ele>
        <time>2020-06-03T13:46:06.000Z</time>
      </trkpt>
      <trkpt lat="43.00255" lon="2.9287">
        <ele>127.8</ele>
        <time>2020-06-03T13:46:07.000Z</time>
      </trkpt>
      <trkpt lat="43.00256" lon="2.92867">
        <ele>128.2</ele>
        <time>2020-06-03T13:46:08.000Z</time>
      </trkpt>
      <trkpt lat="43.00258" lon="2.92864">
        <ele>128.6</ele>
        <time>2020-06-03T13:46:09.000Z</time>
      </trkpt>
      <trkpt lat="43.00259" lon="2.92862">
        <ele>129</ele>
        <time>2020-06-03T13:46:10.000Z</time>
      </trkpt>
      <trkpt lat="43.0026" lon="2.9286">
        <ele>129.4</ele>
        <time>2020-06-03T13:46:11.000Z</time>
      </trkpt>
      <trkpt lat="43.0026" lon="2.9286">
        <ele>130</ele>
        <time>2020-06-03T13:46:12.000Z</time>
      </trkpt>
      <trkpt lat="43.00261" lon="2.92861">
        <ele>130.4</ele>
        <time>2020-06-03T13:46:13.000Z</time>
      </trkpt>
      <trkpt lat="43.00262" lon="2.92861">
        <ele>131</ele>
        <time>2020-06-03T13:46:14.000Z</time>
      </trkpt>
      <trkpt lat="43.00263" lon="2.92861">
        <ele>131.4</ele>
        <time>2020-06-03T13:46:15.000Z</time>
      </trkpt>
      <trkpt lat="43.00264" lon="2.92861">
        <ele>132</ele>
        <time>2020-06-03T13:46:16.000Z</time>
      </trkpt>
      <trkpt lat="43.00265" lon="2.92859">
        <ele>132.6</ele>
        <time>2020-06-03T13:46:17.000Z</time>
      </trkpt>
      <trkpt lat="43.00267" lon="2.92856">
        <ele>133.2</ele>
        <time>2020-06-03T13:46:18.000Z</time>
      </trkpt>
      <trkpt lat="43.00269" lon="2.92853">
        <ele>133.8</ele>
        <time>2020-06-03T13:46:19.000Z</time>
      </trkpt>
      <trkpt lat="43.0027" lon="2.9285">
        <ele>134.4</ele>
        <time>2020-06-03T13:46:20.000Z</time>
      </trkpt>
      <trkpt lat="43.0027" lon="2.92846">
        <ele>134.4</ele>
        <time>2020-06-03T13:46:21.000Z</time>
      </trkpt>
      <trkpt lat="43.0027" lon="2.92843">
        <ele>134.4</ele>
        <time>2020-06-03T13:46:22.000Z</time>
      </trkpt>
      <trkpt lat="43.00272" lon="2.92825">
        <ele>134.4</ele>
        <time>2020-06-03T13:46:27.000Z</time>
      </trkpt>
      <trkpt lat="43.00273" lon="2.92824">
        <ele>134.8</ele>
        <time>2020-06-03T13:46:28.000Z</time>
      </trkpt>
      <trkpt lat="43.00275" lon="2.92821">
        <ele>135.2</ele>
        <time>2020-06-03T13:46:29.000Z</time>
      </trkpt>
      <trkpt lat="43.00276" lon="2.92819">
        <ele>135.6</ele>
        <time>2020-06-03T13:46:30.000Z</time>
      </trkpt>
      <trkpt lat="43.00277" lon="2.92817">
        <ele>136</ele>
        <time>2020-06-03T13:46:31.000Z</time>
      </trkpt>
      <trkpt lat="43.00279" lon="2.92813">
        <ele>136.4</ele>
        <time>2020-06-03T13:46:32.000Z</time>
      </trkpt>
      <trkpt lat="43.00281" lon="2.92807">
        <ele>136.4</ele>
        <time>2020-06-03T13:46:34.000Z</time>
      </trkpt>
      <trkpt lat="43.00288" lon="2.92801">
        <ele>136.4</ele>
        <time>2020-06-03T13:46:37.000Z</time>
      </trkpt>
      <trkpt lat="43.0029" lon="2.928">
        <ele>136.4</ele>
        <time>2020-06-03T13:46:38.000Z</time>
      </trkpt>
      <trkpt lat="43.003" lon="2.92788">
        <ele>136.4</ele>
        <time>2020-06-03T13:46:42.000Z</time>
      </trkpt>
      <trkpt lat="43.00302" lon="2.92783">
        <ele>136.4</ele>
        <time>2020-06-03T13:46:43.000Z</time>
      </trkpt>
      <trkpt lat="43.00304" lon="2.9278">
        <ele>136.4</ele>
        <time>2020-06-03T13:46:44.000Z</time>
      </trkpt>
      <trkpt lat="43.00312" lon="2.9277">
        <ele>136.4</ele>
        <time>2020-06-03T13:46:47.000Z</time>
      </trkpt>
      <trkpt lat="43.00317" lon="2.92762">
        <ele>137.2</ele>
        <time>2020-06-03T13:46:49.000Z</time>
      </trkpt>
      <trkpt lat="43.00319" lon="2.92758">
        <ele>137.6</ele>
        <time>2020-06-03T13:46:50.000Z</time>
      </trkpt>
      <trkpt lat="43.00321" lon="2.92754">
        <ele>138</ele>
        <time>2020-06-03T13:46:51.000Z</time>
      </trkpt>
      <trkpt lat="43.00322" lon="2.9275">
        <ele>138.4</ele>
        <time>2020-06-03T13:46:52.000Z</time>
      </trkpt>
      <trkpt lat="43.00329" lon="2.92738">
        <ele>138.4</ele>
        <time>2020-06-03T13:46:55.000Z</time>
      </trkpt>
      <trkpt lat="43.0033" lon="2.92734">
        <ele>138.4</ele>
        <time>2020-06-03T13:46:56.000Z</time>
      </trkpt>
      <trkpt lat="43.00331" lon="2.92723">
        <ele>138.4</ele>
        <time>2020-06-03T13:46:58.000Z</time>
      </trkpt>
      <trkpt lat="43.00331" lon="2.92707">
        <ele>138.4</ele>
        <time>2020-06-03T13:47:02.000Z</time>
      </trkpt>
      <trkpt lat="43.00334" lon="2.92693">
        <ele>138.4</ele>
        <time>2020-06-03T13:47:05.000Z</time>
      </trkpt>
      <trkpt lat="43.00341" lon="2.92679">
        <ele>138.4</ele>
        <time>2020-06-03T13:47:10.000Z</time>
      </trkpt>
      <trkpt lat="43.00343" lon="2.92675">
        <ele>138.8</ele>
        <time>2020-06-03T13:47:11.000Z</time>
      </trkpt>
      <trkpt lat="43.00345" lon="2.92672">
        <ele>139.2</ele>
        <time>2020-06-03T13:47:12.000Z</time>
      </trkpt>
      <trkpt lat="43.00347" lon="2.92668">
        <ele>139.6</ele>
        <time>2020-06-03T13:47:13.000Z</time>
      </trkpt>
      <trkpt lat="43.00348" lon="2.92667">
        <ele>140</ele>
        <time>2020-06-03T13:47:14.000Z</time>
      </trkpt>
      <trkpt lat="43.0035" lon="2.92666">
        <ele>140.4</ele>
        <time>2020-06-03T13:47:15.000Z</time>
      </trkpt>
      <trkpt lat="43.00361" lon="2.92657">
        <ele>140.4</ele>
        <time>2020-06-03T13:47:20.000Z</time>
      </trkpt>
      <trkpt lat="43.00374" lon="2.92648">
        <ele>140.4</ele>
        <time>2020-06-03T13:47:24.000Z</time>
      </trkpt>
      <trkpt lat="43.00393" lon="2.92634">
        <ele>140</ele>
        <time>2020-06-03T13:47:29.000Z</time>
      </trkpt>
      <trkpt lat="43.00397" lon="2.92631">
        <ele>139.6</ele>
        <time>2020-06-03T13:47:30.000Z</time>
      </trkpt>
      <trkpt lat="43.00402" lon="2.92629">
        <ele>139.2</ele>
        <time>2020-06-03T13:47:31.000Z</time>
      </trkpt>
      <trkpt lat="43.00406" lon="2.92629">
        <ele>138.8</ele>
        <time>2020-06-03T13:47:32.000Z</time>
      </trkpt>
      <trkpt lat="43.0041" lon="2.92627">
        <ele>138.4</ele>
        <time>2020-06-03T13:47:33.000Z</time>
      </trkpt>
      <trkpt lat="43.00421" lon="2.92624">
        <ele>138.4</ele>
        <time>2020-06-03T13:47:36.000Z</time>
      </trkpt>
      <trkpt lat="43.00425" lon="2.92624">
        <ele>138.4</ele>
        <time>2020-06-03T13:47:37.000Z</time>
      </trkpt>
      <trkpt lat="43.0044" lon="2.92624">
        <ele>138.4</ele>
        <time>2020-06-03T13:47:41.000Z</time>
      </trkpt>
      <trkpt lat="43.0045" lon="2.92623">
        <ele>139</ele>
        <time>2020-06-03T13:47:44.000Z</time>
      </trkpt>
      <trkpt lat="43.00452" lon="2.92623">
        <ele>139.4</ele>
        <time>2020-06-03T13:47:45.000Z</time>
      </trkpt>
      <trkpt lat="43.00455" lon="2.92622">
        <ele>139.8</ele>
        <time>2020-06-03T13:47:46.000Z</time>
      </trkpt>
      <trkpt lat="43.00457" lon="2.9262">
        <ele>140.2</ele>
        <time>2020-06-03T13:47:47.000Z</time>
      </trkpt>
      <trkpt lat="43.00461" lon="2.92618">
        <ele>140.8</ele>
        <time>2020-06-03T13:47:48.000Z</time>
      </trkpt>
      <trkpt lat="43.00467" lon="2.92614">
        <ele>140.8</ele>
        <time>2020-06-03T13:47:50.000Z</time>
      </trkpt>
      <trkpt lat="43.00475" lon="2.92608">
        <ele>140.8</ele>
        <time>2020-06-03T13:47:52.000Z</time>
      </trkpt>
      <trkpt lat="43.00483" lon="2.926">
        <ele>140.8</ele>
        <time>2020-06-03T13:47:54.000Z</time>
      </trkpt>
      <trkpt lat="43.00485" lon="2.92599">
        <ele>140.8</ele>
        <time>2020-06-03T13:47:55.000Z</time>
      </trkpt>
      <trkpt lat="43.0049" lon="2.92598">
        <ele>140.8</ele>
        <time>2020-06-03T13:47:57.000Z</time>
      </trkpt>
      <trkpt lat="43.00496" lon="2.92601">
        <ele>140.8</ele>
        <time>2020-06-03T13:48:01.000Z</time>
      </trkpt>
      <trkpt lat="43.00496" lon="2.92601">
        <ele>140.8</ele>
        <time>2020-06-03T13:48:02.000Z</time>
      </trkpt>
      <trkpt lat="43.00496" lon="2.92604">
        <ele>140.8</ele>
        <time>2020-06-03T13:48:36.000Z</time>
      </trkpt>
      <trkpt lat="43.00497" lon="2.92609">
        <ele>140.8</ele>
        <time>2020-06-03T13:48:38.000Z</time>
      </trkpt>
      <trkpt lat="43.00499" lon="2.92617">
        <ele>140.8</ele>
        <time>2020-06-03T13:48:40.000Z</time>
      </trkpt>
      <trkpt lat="43.00497" lon="2.9262">
        <ele>140.8</ele>
        <time>2020-06-03T13:48:41.000Z</time>
      </trkpt>
      <trkpt lat="43.00496" lon="2.92623">
        <ele>140.8</ele>
        <time>2020-06-03T13:48:42.000Z</time>
      </trkpt>
      <trkpt lat="43.00489" lon="2.92631">
        <ele>140.8</ele>
        <time>2020-06-03T13:48:46.000Z</time>
      </trkpt>
      <trkpt lat="43.00492" lon="2.92637">
        <ele>140.8</ele>
        <time>2020-06-03T13:48:48.000Z</time>
      </trkpt>
      <trkpt lat="43.00495" lon="2.92651">
        <ele>140.8</ele>
        <time>2020-06-03T13:48:50.000Z</time>
      </trkpt>
      <trkpt lat="43.00496" lon="2.92666">
        <ele>140.8</ele>
        <time>2020-06-03T13:48:53.000Z</time>
      </trkpt>
      <trkpt lat="43.00496" lon="2.9267">
        <ele>140.4</ele>
        <time>2020-06-03T13:48:54.000Z</time>
      </trkpt>
      <trkpt lat="43.00497" lon="2.92677">
        <ele>140</ele>
        <time>2020-06-03T13:48:55.000Z</time>
      </trkpt>
      <trkpt lat="43.00496" lon="2.92681">
        <ele>139.4</ele>
        <time>2020-06-03T13:48:56.000Z</time>
      </trkpt>
      <trkpt lat="43.00495" lon="2.92682">
        <ele>139</ele>
        <time>2020-06-03T13:48:57.000Z</time>
      </trkpt>
      <trkpt lat="43.00492" lon="2.92684">
        <ele>138.6</ele>
        <time>2020-06-03T13:48:58.000Z</time>
      </trkpt>
      <trkpt lat="43.00491" lon="2.92691">
        <ele>138.6</ele>
        <time>2020-06-03T13:49:00.000Z</time>
      </trkpt>
      <trkpt lat="43.0049" lon="2.92708">
        <ele>138.6</ele>
        <time>2020-06-03T13:49:04.000Z</time>
      </trkpt>
      <trkpt lat="43.00486" lon="2.92716">
        <ele>138.2</ele>
        <time>2020-06-03T13:49:06.000Z</time>
      </trkpt>
      <trkpt lat="43.00485" lon="2.92719">
        <ele>137.8</ele>
        <time>2020-06-03T13:49:07.000Z</time>
      </trkpt>
      <trkpt lat="43.00483" lon="2.92722">
        <ele>137.4</ele>
        <time>2020-06-03T13:49:08.000Z</time>
      </trkpt>
      <trkpt lat="43.0048" lon="2.92724">
        <ele>137</ele>
        <time>2020-06-03T13:49:09.000Z</time>
      </trkpt>
      <trkpt lat="43.00478" lon="2.92728">
        <ele>136.6</ele>
        <time>2020-06-03T13:49:10.000Z</time>
      </trkpt>
      <trkpt lat="43.00476" lon="2.92742">
        <ele>136.6</ele>
        <time>2020-06-03T13:49:12.000Z</time>
      </trkpt>
      <trkpt lat="43.0047" lon="2.92763">
        <ele>136.6</ele>
        <time>2020-06-03T13:49:16.000Z</time>
      </trkpt>
      <trkpt lat="43.00472" lon="2.92777">
        <ele>136.6</ele>
        <time>2020-06-03T13:49:18.000Z</time>
      </trkpt>
      <trkpt lat="43.00469" lon="2.92786">
        <ele>136.6</ele>
        <time>2020-06-03T13:49:20.000Z</time>
      </trkpt>
      <trkpt lat="43.00459" lon="2.92803">
        <ele>136.6</ele>
        <time>2020-06-03T13:49:24.000Z</time>
      </trkpt>
      <trkpt lat="43.00451" lon="2.92818">
        <ele>136.6</ele>
        <time>2020-06-03T13:49:28.000Z</time>
      </trkpt>
      <trkpt lat="43.00444" lon="2.92833">
        <ele>136.2</ele>
        <time>2020-06-03T13:49:31.000Z</time>
      </trkpt>
      <trkpt lat="43.00441" lon="2.92836">
        <ele>135.8</ele>
        <time>2020-06-03T13:49:32.000Z</time>
      </trkpt>
      <trkpt lat="43.00438" lon="2.92837">
        <ele>135.4</ele>
        <time>2020-06-03T13:49:33.000Z</time>
      </trkpt>
      <trkpt lat="43.00436" lon="2.92838">
        <ele>134.8</ele>
        <time>2020-06-03T13:49:34.000Z</time>
      </trkpt>
      <trkpt lat="43.00435" lon="2.9284">
        <ele>134.4</ele>
        <time>2020-06-03T13:49:35.000Z</time>
      </trkpt>
      <trkpt lat="43.00436" lon="2.92851">
        <ele>134.4</ele>
        <time>2020-06-03T13:49:38.000Z</time>
      </trkpt>
      <trkpt lat="43.00434" lon="2.92867">
        <ele>134.4</ele>
        <time>2020-06-03T13:49:41.000Z</time>
      </trkpt>
      <trkpt lat="43.0043" lon="2.92878">
        <ele>134.4</ele>
        <time>2020-06-03T13:49:43.000Z</time>
      </trkpt>
      <trkpt lat="43.00427" lon="2.92882">
        <ele>133.6</ele>
        <time>2020-06-03T13:49:44.000Z</time>
      </trkpt>
      <trkpt lat="43.00424" lon="2.92886">
        <ele>133.2</ele>
        <time>2020-06-03T13:49:45.000Z</time>
      </trkpt>
      <trkpt lat="43.00422" lon="2.9289">
        <ele>132.8</ele>
        <time>2020-06-03T13:49:46.000Z</time>
      </trkpt>
      <trkpt lat="43.00419" lon="2.92891">
        <ele>132.4</ele>
        <time>2020-06-03T13:49:47.000Z</time>
      </trkpt>
      <trkpt lat="43.00412" lon="2.92891">
        <ele>132.4</ele>
        <time>2020-06-03T13:49:49.000Z</time>
      </trkpt>
      <trkpt lat="43.004" lon="2.929">
        <ele>132.4</ele>
        <time>2020-06-03T13:49:53.000Z</time>
      </trkpt>
      <trkpt lat="43.004" lon="2.92905">
        <ele>132.4</ele>
        <time>2020-06-03T13:49:54.000Z</time>
      </trkpt>
      <trkpt lat="43.00398" lon="2.92921">
        <ele>132.4</ele>
        <time>2020-06-03T13:49:57.000Z</time>
      </trkpt>
      <trkpt lat="43.00398" lon="2.92933">
        <ele>132</ele>
        <time>2020-06-03T13:49:59.000Z</time>
      </trkpt>
      <trkpt lat="43.00396" lon="2.92939">
        <ele>131.4</ele>
        <time>2020-06-03T13:50:00.000Z</time>
      </trkpt>
      <trkpt lat="43.00394" lon="2.92945">
        <ele>131</ele>
        <time>2020-06-03T13:50:01.000Z</time>
      </trkpt>
      <trkpt lat="43.00392" lon="2.92951">
        <ele>130.6</ele>
        <time>2020-06-03T13:50:02.000Z</time>
      </trkpt>
      <trkpt lat="43.0039" lon="2.92957">
        <ele>130.2</ele>
        <time>2020-06-03T13:50:03.000Z</time>
      </trkpt>
      <trkpt lat="43.00387" lon="2.92962">
        <ele>130.2</ele>
        <time>2020-06-03T13:50:04.000Z</time>
      </trkpt>
      <trkpt lat="43.00385" lon="2.92967">
        <ele>130.2</ele>
        <time>2020-06-03T13:50:05.000Z</time>
      </trkpt>
      <trkpt lat="43.0038" lon="2.92977">
        <ele>130.2</ele>
        <time>2020-06-03T13:50:07.000Z</time>
      </trkpt>
      <trkpt lat="43.00379" lon="2.92981">
        <ele>130.2</ele>
        <time>2020-06-03T13:50:08.000Z</time>
      </trkpt>
      <trkpt lat="43.00384" lon="2.92991">
        <ele>130.2</ele>
        <time>2020-06-03T13:50:11.000Z</time>
      </trkpt>
      <trkpt lat="43.00388" lon="2.92995">
        <ele>130.2</ele>
        <time>2020-06-03T13:50:12.000Z</time>
      </trkpt>
      <trkpt lat="43.00392" lon="2.92997">
        <ele>130.2</ele>
        <time>2020-06-03T13:50:13.000Z</time>
      </trkpt>
      <trkpt lat="43.00398" lon="2.93005">
        <ele>129.8</ele>
        <time>2020-06-03T13:50:15.000Z</time>
      </trkpt>
      <trkpt lat="43.00402" lon="2.93008">
        <ele>129.4</ele>
        <time>2020-06-03T13:50:16.000Z</time>
      </trkpt>
      <trkpt lat="43.00405" lon="2.93011">
        <ele>129</ele>
        <time>2020-06-03T13:50:17.000Z</time>
      </trkpt>
      <trkpt lat="43.00409" lon="2.93015">
        <ele>128.6</ele>
        <time>2020-06-03T13:50:18.000Z</time>
      </trkpt>
      <trkpt lat="43.0041" lon="2.9302">
        <ele>128.2</ele>
        <time>2020-06-03T13:50:19.000Z</time>
      </trkpt>
      <trkpt lat="43.00403" lon="2.93034">
        <ele>128.2</ele>
        <time>2020-06-03T13:50:22.000Z</time>
      </trkpt>
      <trkpt lat="43.00399" lon="2.93055">
        <ele>128.2</ele>
        <time>2020-06-03T13:50:26.000Z</time>
      </trkpt>
      <trkpt lat="43.004" lon="2.93061">
        <ele>128.2</ele>
        <time>2020-06-03T13:50:27.000Z</time>
      </trkpt>
      <trkpt lat="43.00399" lon="2.93067">
        <ele>128.2</ele>
        <time>2020-06-03T13:50:28.000Z</time>
      </trkpt>
      <trkpt lat="43.00395" lon="2.93085">
        <ele>128.2</ele>
        <time>2020-06-03T13:50:31.000Z</time>
      </trkpt>
      <trkpt lat="43.00394" lon="2.9309">
        <ele>128.2</ele>
        <time>2020-06-03T13:50:32.000Z</time>
      </trkpt>
      <trkpt lat="43.00396" lon="2.93106">
        <ele>128.2</ele>
        <time>2020-06-03T13:50:35.000Z</time>
      </trkpt>
      <trkpt lat="43.00398" lon="2.93111">
        <ele>128.2</ele>
        <time>2020-06-03T13:50:36.000Z</time>
      </trkpt>
      <trkpt lat="43.00404" lon="2.93126">
        <ele>128.2</ele>
        <time>2020-06-03T13:50:39.000Z</time>
      </trkpt>
      <trkpt lat="43.00405" lon="2.93131">
        <ele>128.2</ele>
        <time>2020-06-03T13:50:40.000Z</time>
      </trkpt>
      <trkpt lat="43.00409" lon="2.93136">
        <ele>128.2</ele>
        <time>2020-06-03T13:50:43.000Z</time>
      </trkpt>
      <trkpt lat="43.00408" lon="2.93136">
        <ele>128.2</ele>
        <time>2020-06-03T13:50:44.000Z</time>
      </trkpt>
      <trkpt lat="43.00412" lon="2.93136">
        <ele>128.2</ele>
        <time>2020-06-03T13:50:48.000Z</time>
      </trkpt>
      <trkpt lat="43.00414" lon="2.93135">
        <ele>128.2</ele>
        <time>2020-06-03T13:50:49.000Z</time>
      </trkpt>
      <trkpt lat="43.00428" lon="2.93125">
        <ele>128.2</ele>
        <time>2020-06-03T13:50:53.000Z</time>
      </trkpt>
      <trkpt lat="43.00432" lon="2.93121">
        <ele>128.2</ele>
        <time>2020-06-03T13:50:54.000Z</time>
      </trkpt>
      <trkpt lat="43.00438" lon="2.93117">
        <ele>127.8</ele>
        <time>2020-06-03T13:50:55.000Z</time>
      </trkpt>
      <trkpt lat="43.00443" lon="2.93113">
        <ele>127.2</ele>
        <time>2020-06-03T13:50:56.000Z</time>
      </trkpt>
      <trkpt lat="43.00449" lon="2.9311">
        <ele>126.8</ele>
        <time>2020-06-03T13:50:57.000Z</time>
      </trkpt>
      <trkpt lat="43.00455" lon="2.93105">
        <ele>125.6</ele>
        <time>2020-06-03T13:50:58.000Z</time>
      </trkpt>
      <trkpt lat="43.00461" lon="2.93099">
        <ele>125</ele>
        <time>2020-06-03T13:50:59.000Z</time>
      </trkpt>
      <trkpt lat="43.00466" lon="2.93093">
        <ele>124.2</ele>
        <time>2020-06-03T13:51:00.000Z</time>
      </trkpt>
      <trkpt lat="43.00471" lon="2.93087">
        <ele>123.4</ele>
        <time>2020-06-03T13:51:01.000Z</time>
      </trkpt>
      <trkpt lat="43.00476" lon="2.93082">
        <ele>122.8</ele>
        <time>2020-06-03T13:51:02.000Z</time>
      </trkpt>
      <trkpt lat="43.0048" lon="2.93076">
        <ele>122</ele>
        <time>2020-06-03T13:51:03.000Z</time>
      </trkpt>
      <trkpt lat="43.00486" lon="2.93072">
        <ele>121.4</ele>
        <time>2020-06-03T13:51:04.000Z</time>
      </trkpt>
      <trkpt lat="43.00495" lon="2.93067">
        <ele>121</ele>
        <time>2020-06-03T13:51:06.000Z</time>
      </trkpt>
      <trkpt lat="43.00497" lon="2.93065">
        <ele>120.4</ele>
        <time>2020-06-03T13:51:07.000Z</time>
      </trkpt>
      <trkpt lat="43.005" lon="2.93063">
        <ele>120</ele>
        <time>2020-06-03T13:51:08.000Z</time>
      </trkpt>
      <trkpt lat="43.00501" lon="2.93059">
        <ele>119.6</ele>
        <time>2020-06-03T13:51:09.000Z</time>
      </trkpt>
      <trkpt lat="43.00502" lon="2.93055">
        <ele>119.2</ele>
        <time>2020-06-03T13:51:10.000Z</time>
      </trkpt>
      <trkpt lat="43.00504" lon="2.93051">
        <ele>119.2</ele>
        <time>2020-06-03T13:51:11.000Z</time>
      </trkpt>
      <trkpt lat="43.00507" lon="2.93041">
        <ele>119.2</ele>
        <time>2020-06-03T13:51:13.000Z</time>
      </trkpt>
      <trkpt lat="43.00516" lon="2.9302">
        <ele>119.2</ele>
        <time>2020-06-03T13:51:17.000Z</time>
      </trkpt>
      <trkpt lat="43.00531" lon="2.93007">
        <ele>119.2</ele>
        <time>2020-06-03T13:51:21.000Z</time>
      </trkpt>
      <trkpt lat="43.00538" lon="2.93002">
        <ele>118.8</ele>
        <time>2020-06-03T13:51:23.000Z</time>
      </trkpt>
      <trkpt lat="43.00541" lon="2.93001">
        <ele>118.4</ele>
        <time>2020-06-03T13:51:24.000Z</time>
      </trkpt>
      <trkpt lat="43.00544" lon="2.93001">
        <ele>118</ele>
        <time>2020-06-03T13:51:25.000Z</time>
      </trkpt>
      <trkpt lat="43.00546" lon="2.93004">
        <ele>117.6</ele>
        <time>2020-06-03T13:51:26.000Z</time>
      </trkpt>
      <trkpt lat="43.00547" lon="2.93007">
        <ele>117</ele>
        <time>2020-06-03T13:51:27.000Z</time>
      </trkpt>
      <trkpt lat="43.00552" lon="2.93013">
        <ele>117</ele>
        <time>2020-06-03T13:51:30.000Z</time>
      </trkpt>
      <trkpt lat="43.00556" lon="2.93016">
        <ele>117</ele>
        <time>2020-06-03T13:51:32.000Z</time>
      </trkpt>
      <trkpt lat="43.00559" lon="2.93018">
        <ele>117</ele>
        <time>2020-06-03T13:51:34.000Z</time>
      </trkpt>
      <trkpt lat="43.00562" lon="2.93018">
        <ele>117.6</ele>
        <time>2020-06-03T13:51:35.000Z</time>
      </trkpt>
      <trkpt lat="43.00564" lon="2.93016">
        <ele>118</ele>
        <time>2020-06-03T13:51:36.000Z</time>
      </trkpt>
      <trkpt lat="43.00566" lon="2.93012">
        <ele>118.4</ele>
        <time>2020-06-03T13:51:37.000Z</time>
      </trkpt>
      <trkpt lat="43.00567" lon="2.93009">
        <ele>118.8</ele>
        <time>2020-06-03T13:51:38.000Z</time>
      </trkpt>
      <trkpt lat="43.0057" lon="2.93008">
        <ele>119.2</ele>
        <time>2020-06-03T13:51:39.000Z</time>
      </trkpt>
      <trkpt lat="43.00571" lon="2.93003">
        <ele>119.2</ele>
        <time>2020-06-03T13:51:40.000Z</time>
      </trkpt>
      <trkpt lat="43.00576" lon="2.92997">
        <ele>119.2</ele>
        <time>2020-06-03T13:51:42.000Z</time>
      </trkpt>
      <trkpt lat="43.00581" lon="2.92992">
        <ele>119.6</ele>
        <time>2020-06-03T13:51:44.000Z</time>
      </trkpt>
      <trkpt lat="43.00583" lon="2.9299">
        <ele>120</ele>
        <time>2020-06-03T13:51:45.000Z</time>
      </trkpt>
      <trkpt lat="43.00585" lon="2.9299">
        <ele>120.4</ele>
        <time>2020-06-03T13:51:46.000Z</time>
      </trkpt>
      <trkpt lat="43.00587" lon="2.92989">
        <ele>121.4</ele>
        <time>2020-06-03T13:51:47.000Z</time>
      </trkpt>
      <trkpt lat="43.00591" lon="2.92985">
        <ele>121.4</ele>
        <time>2020-06-03T13:51:49.000Z</time>
      </trkpt>
      <trkpt lat="43.00593" lon="2.92983">
        <ele>121.8</ele>
        <time>2020-06-03T13:51:50.000Z</time>
      </trkpt>
      <trkpt lat="43.00595" lon="2.92981">
        <ele>122.2</ele>
        <time>2020-06-03T13:51:51.000Z</time>
      </trkpt>
      <trkpt lat="43.00598" lon="2.92979">
        <ele>122.6</ele>
        <time>2020-06-03T13:51:52.000Z</time>
      </trkpt>
      <trkpt lat="43.00601" lon="2.92976">
        <ele>123</ele>
        <time>2020-06-03T13:51:53.000Z</time>
      </trkpt>
      <trkpt lat="43.00604" lon="2.92973">
        <ele>123.4</ele>
        <time>2020-06-03T13:51:54.000Z</time>
      </trkpt>
      <trkpt lat="43.00607" lon="2.9297">
        <ele>123.4</ele>
        <time>2020-06-03T13:51:55.000Z</time>
      </trkpt>
      <trkpt lat="43.00623" lon="2.92958">
        <ele>123.4</ele>
        <time>2020-06-03T13:52:00.000Z</time>
      </trkpt>
      <trkpt lat="43.00634" lon="2.92953">
        <ele>123.4</ele>
        <time>2020-06-03T13:52:04.000Z</time>
      </trkpt>
      <trkpt lat="43.00646" lon="2.92961">
        <ele>123.4</ele>
        <time>2020-06-03T13:52:08.000Z</time>
      </trkpt>
      <trkpt lat="43.0066" lon="2.92981">
        <ele>123.4</ele>
        <time>2020-06-03T13:52:13.000Z</time>
      </trkpt>
      <trkpt lat="43.00665" lon="2.92991">
        <ele>123.4</ele>
        <time>2020-06-03T13:52:16.000Z</time>
      </trkpt>
      <trkpt lat="43.0067" lon="2.92995">
        <ele>123.8</ele>
        <time>2020-06-03T13:52:18.000Z</time>
      </trkpt>
      <trkpt lat="43.00673" lon="2.92999">
        <ele>124.2</ele>
        <time>2020-06-03T13:52:19.000Z</time>
      </trkpt>
      <trkpt lat="43.00675" lon="2.93003">
        <ele>124.6</ele>
        <time>2020-06-03T13:52:20.000Z</time>
      </trkpt>
      <trkpt lat="43.00676" lon="2.93007">
        <ele>125.2</ele>
        <time>2020-06-03T13:52:21.000Z</time>
      </trkpt>
      <trkpt lat="43.00678" lon="2.9301">
        <ele>125.6</ele>
        <time>2020-06-03T13:52:22.000Z</time>
      </trkpt>
      <trkpt lat="43.00683" lon="2.9302">
        <ele>125.6</ele>
        <time>2020-06-03T13:52:25.000Z</time>
      </trkpt>
      <trkpt lat="43.00697" lon="2.93036">
        <ele>125.6</ele>
        <time>2020-06-03T13:52:31.000Z</time>
      </trkpt>
      <trkpt lat="43.00699" lon="2.93043">
        <ele>125.6</ele>
        <time>2020-06-03T13:52:33.000Z</time>
      </trkpt>
      <trkpt lat="43.00699" lon="2.93049">
        <ele>126</ele>
        <time>2020-06-03T13:52:35.000Z</time>
      </trkpt>
      <trkpt lat="43.007" lon="2.93051">
        <ele>126.4</ele>
        <time>2020-06-03T13:52:36.000Z</time>
      </trkpt>
      <trkpt lat="43.00702" lon="2.93053">
        <ele>127.2</ele>
        <time>2020-06-03T13:52:37.000Z</time>
      </trkpt>
      <trkpt lat="43.00704" lon="2.93055">
        <ele>127.6</ele>
        <time>2020-06-03T13:52:38.000Z</time>
      </trkpt>
      <trkpt lat="43.00705" lon="2.93058">
        <ele>127.6</ele>
        <time>2020-06-03T13:52:39.000Z</time>
      </trkpt>
      <trkpt lat="43.00711" lon="2.93072">
        <ele>127.6</ele>
        <time>2020-06-03T13:52:44.000Z</time>
      </trkpt>
      <trkpt lat="43.00712" lon="2.93074">
        <ele>128</ele>
        <time>2020-06-03T13:52:45.000Z</time>
      </trkpt>
      <trkpt lat="43.00713" lon="2.93076">
        <ele>128.4</ele>
        <time>2020-06-03T13:52:46.000Z</time>
      </trkpt>
      <trkpt lat="43.00715" lon="2.93078">
        <ele>128.8</ele>
        <time>2020-06-03T13:52:47.000Z</time>
      </trkpt>
      <trkpt lat="43.00717" lon="2.93078">
        <ele>129.2</ele>
        <time>2020-06-03T13:52:48.000Z</time>
      </trkpt>
      <trkpt lat="43.0072" lon="2.93078">
        <ele>129.8</ele>
        <time>2020-06-03T13:52:49.000Z</time>
      </trkpt>
      <trkpt lat="43.00725" lon="2.93082">
        <ele>129.8</ele>
        <time>2020-06-03T13:52:52.000Z</time>
      </trkpt>
      <trkpt lat="43.00735" lon="2.93092">
        <ele>129.8</ele>
        <time>2020-06-03T13:52:56.000Z</time>
      </trkpt>
      <trkpt lat="43.00737" lon="2.93092">
        <ele>129.8</ele>
        <time>2020-06-03T13:52:57.000Z</time>
      </trkpt>
      <trkpt lat="43.00739" lon="2.93094">
        <ele>129.8</ele>
        <time>2020-06-03T13:52:59.000Z</time>
      </trkpt>
      <trkpt lat="43.00747" lon="2.93107">
        <ele>129.8</ele>
        <time>2020-06-03T13:53:03.000Z</time>
      </trkpt>
      <trkpt lat="43.00755" lon="2.93111">
        <ele>129.8</ele>
        <time>2020-06-03T13:53:06.000Z</time>
      </trkpt>
      <trkpt lat="43.0076" lon="2.93119">
        <ele>129.2</ele>
        <time>2020-06-03T13:53:08.000Z</time>
      </trkpt>
      <trkpt lat="43.00762" lon="2.93125">
        <ele>128.8</ele>
        <time>2020-06-03T13:53:09.000Z</time>
      </trkpt>
      <trkpt lat="43.00762" lon="2.93131">
        <ele>128.4</ele>
        <time>2020-06-03T13:53:10.000Z</time>
      </trkpt>
      <trkpt lat="43.00762" lon="2.93136">
        <ele>127.8</ele>
        <time>2020-06-03T13:53:11.000Z</time>
      </trkpt>
      <trkpt lat="43.00761" lon="2.93142">
        <ele>127.4</ele>
        <time>2020-06-03T13:53:12.000Z</time>
      </trkpt>
      <trkpt lat="43.00761" lon="2.93147">
        <ele>127.4</ele>
        <time>2020-06-03T13:53:13.000Z</time>
      </trkpt>
      <trkpt lat="43.00761" lon="2.93151">
        <ele>127.4</ele>
        <time>2020-06-03T13:53:14.000Z</time>
      </trkpt>
      <trkpt lat="43.00759" lon="2.93159">
        <ele>127.4</ele>
        <time>2020-06-03T13:53:17.000Z</time>
      </trkpt>
      <trkpt lat="43.00758" lon="2.93171">
        <ele>127.4</ele>
        <time>2020-06-03T13:53:22.000Z</time>
      </trkpt>
      <trkpt lat="43.00763" lon="2.93178">
        <ele>126.8</ele>
        <time>2020-06-03T13:53:24.000Z</time>
      </trkpt>
      <trkpt lat="43.00764" lon="2.93183">
        <ele>126.4</ele>
        <time>2020-06-03T13:53:25.000Z</time>
      </trkpt>
      <trkpt lat="43.00762" lon="2.93188">
        <ele>125.2</ele>
        <time>2020-06-03T13:53:26.000Z</time>
      </trkpt>
      <trkpt lat="43.0076" lon="2.93195">
        <ele>124.6</ele>
        <time>2020-06-03T13:53:27.000Z</time>
      </trkpt>
      <trkpt lat="43.00758" lon="2.93197">
        <ele>124</ele>
        <time>2020-06-03T13:53:28.000Z</time>
      </trkpt>
      <trkpt lat="43.00756" lon="2.93202">
        <ele>123.4</ele>
        <time>2020-06-03T13:53:29.000Z</time>
      </trkpt>
      <trkpt lat="43.00752" lon="2.93206">
        <ele>122.8</ele>
        <time>2020-06-03T13:53:30.000Z</time>
      </trkpt>
      <trkpt lat="43.00742" lon="2.93217">
        <ele>122.8</ele>
        <time>2020-06-03T13:53:34.000Z</time>
      </trkpt>
      <trkpt lat="43.00728" lon="2.93229">
        <ele>122.8</ele>
        <time>2020-06-03T13:53:39.000Z</time>
      </trkpt>
      <trkpt lat="43.00721" lon="2.93242">
        <ele>122.8</ele>
        <time>2020-06-03T13:53:42.000Z</time>
      </trkpt>
      <trkpt lat="43.00715" lon="2.93246">
        <ele>123.6</ele>
        <time>2020-06-03T13:53:44.000Z</time>
      </trkpt>
      <trkpt lat="43.00713" lon="2.93251">
        <ele>124</ele>
        <time>2020-06-03T13:53:45.000Z</time>
      </trkpt>
      <trkpt lat="43.00713" lon="2.93257">
        <ele>124.4</ele>
        <time>2020-06-03T13:53:46.000Z</time>
      </trkpt>
      <trkpt lat="43.00711" lon="2.93261">
        <ele>124.8</ele>
        <time>2020-06-03T13:53:47.000Z</time>
      </trkpt>
      <trkpt lat="43.00703" lon="2.93271">
        <ele>124.8</ele>
        <time>2020-06-03T13:53:50.000Z</time>
      </trkpt>
      <trkpt lat="43.00701" lon="2.93273">
        <ele>124.8</ele>
        <time>2020-06-03T13:53:51.000Z</time>
      </trkpt>
      <trkpt lat="43.00695" lon="2.93293">
        <ele>124.4</ele>
        <time>2020-06-03T13:53:54.000Z</time>
      </trkpt>
      <trkpt lat="43.00692" lon="2.93297">
        <ele>124</ele>
        <time>2020-06-03T13:53:55.000Z</time>
      </trkpt>
      <trkpt lat="43.0069" lon="2.93302">
        <ele>123.6</ele>
        <time>2020-06-03T13:53:56.000Z</time>
      </trkpt>
      <trkpt lat="43.00688" lon="2.93306">
        <ele>123</ele>
        <time>2020-06-03T13:53:57.000Z</time>
      </trkpt>
      <trkpt lat="43.00684" lon="2.9331">
        <ele>122.6</ele>
        <time>2020-06-03T13:53:58.000Z</time>
      </trkpt>
      <trkpt lat="43.0068" lon="2.93319">
        <ele>122.6</ele>
        <time>2020-06-03T13:54:00.000Z</time>
      </trkpt>
      <trkpt lat="43.00676" lon="2.93324">
        <ele>122.6</ele>
        <time>2020-06-03T13:54:01.000Z</time>
      </trkpt>
      <trkpt lat="43.00672" lon="2.93327">
        <ele>122.6</ele>
        <time>2020-06-03T13:54:02.000Z</time>
      </trkpt>
      <trkpt lat="43.00665" lon="2.93336">
        <ele>122.6</ele>
        <time>2020-06-03T13:54:05.000Z</time>
      </trkpt>
      <trkpt lat="43.00662" lon="2.93338">
        <ele>122.2</ele>
        <time>2020-06-03T13:54:06.000Z</time>
      </trkpt>
      <trkpt lat="43.0066" lon="2.9334">
        <ele>121.8</ele>
        <time>2020-06-03T13:54:07.000Z</time>
      </trkpt>
      <trkpt lat="43.0066" lon="2.93343">
        <ele>121.4</ele>
        <time>2020-06-03T13:54:08.000Z</time>
      </trkpt>
      <trkpt lat="43.00658" lon="2.93345">
        <ele>120.6</ele>
        <time>2020-06-03T13:54:09.000Z</time>
      </trkpt>
      <trkpt lat="43.00649" lon="2.93352">
        <ele>120.6</ele>
        <time>2020-06-03T13:54:12.000Z</time>
      </trkpt>
      <trkpt lat="43.00644" lon="2.93357">
        <ele>120.6</ele>
        <time>2020-06-03T13:54:14.000Z</time>
      </trkpt>
      <trkpt lat="43.00641" lon="2.93361">
        <ele>120.6</ele>
        <time>2020-06-03T13:54:15.000Z</time>
      </trkpt>
      <trkpt lat="43.00629" lon="2.93371">
        <ele>120.6</ele>
        <time>2020-06-03T13:54:18.000Z</time>
      </trkpt>
      <trkpt lat="43.00627" lon="2.93373">
        <ele>120.6</ele>
        <time>2020-06-03T13:54:19.000Z</time>
      </trkpt>
      <trkpt lat="43.00623" lon="2.93378">
        <ele>120.6</ele>
        <time>2020-06-03T13:54:20.000Z</time>
      </trkpt>
      <trkpt lat="43.00615" lon="2.93382">
        <ele>120.6</ele>
        <time>2020-06-03T13:54:22.000Z</time>
      </trkpt>
      <trkpt lat="43.00607" lon="2.93389">
        <ele>121</ele>
        <time>2020-06-03T13:54:24.000Z</time>
      </trkpt>
      <trkpt lat="43.00603" lon="2.93391">
        <ele>121.4</ele>
        <time>2020-06-03T13:54:25.000Z</time>
      </trkpt>
      <trkpt lat="43.006" lon="2.93393">
        <ele>122</ele>
        <time>2020-06-03T13:54:26.000Z</time>
      </trkpt>
      <trkpt lat="43.00597" lon="2.93395">
        <ele>122.4</ele>
        <time>2020-06-03T13:54:27.000Z</time>
      </trkpt>
      <trkpt lat="43.00593" lon="2.93399">
        <ele>122.8</ele>
        <time>2020-06-03T13:54:28.000Z</time>
      </trkpt>
      <trkpt lat="43.00588" lon="2.93401">
        <ele>122.8</ele>
        <time>2020-06-03T13:54:29.000Z</time>
      </trkpt>
      <trkpt lat="43.00586" lon="2.93405">
        <ele>122.8</ele>
        <time>2020-06-03T13:54:30.000Z</time>
      </trkpt>
      <trkpt lat="43.00575" lon="2.9341">
        <ele>123.2</ele>
        <time>2020-06-03T13:54:34.000Z</time>
      </trkpt>
      <trkpt lat="43.00572" lon="2.93411">
        <ele>123.8</ele>
        <time>2020-06-03T13:54:35.000Z</time>
      </trkpt>
      <trkpt lat="43.00569" lon="2.93413">
        <ele>124.2</ele>
        <time>2020-06-03T13:54:36.000Z</time>
      </trkpt>
      <trkpt lat="43.00565" lon="2.93417">
        <ele>124.6</ele>
        <time>2020-06-03T13:54:37.000Z</time>
      </trkpt>
      <trkpt lat="43.00562" lon="2.93421">
        <ele>125.2</ele>
        <time>2020-06-03T13:54:38.000Z</time>
      </trkpt>
      <trkpt lat="43.00558" lon="2.93425">
        <ele>125.2</ele>
        <time>2020-06-03T13:54:39.000Z</time>
      </trkpt>
      <trkpt lat="43.00552" lon="2.93433">
        <ele>125.2</ele>
        <time>2020-06-03T13:54:41.000Z</time>
      </trkpt>
      <trkpt lat="43.00549" lon="2.93434">
        <ele>125.2</ele>
        <time>2020-06-03T13:54:42.000Z</time>
      </trkpt>
      <trkpt lat="43.00548" lon="2.93438">
        <ele>125.2</ele>
        <time>2020-06-03T13:54:43.000Z</time>
      </trkpt>
      <trkpt lat="43.00547" lon="2.93446">
        <ele>125.2</ele>
        <time>2020-06-03T13:54:45.000Z</time>
      </trkpt>
      <trkpt lat="43.00544" lon="2.93456">
        <ele>125.2</ele>
        <time>2020-06-03T13:54:48.000Z</time>
      </trkpt>
      <trkpt lat="43.00542" lon="2.9346">
        <ele>125.2</ele>
        <time>2020-06-03T13:54:50.000Z</time>
      </trkpt>
      <trkpt lat="43.0054" lon="2.93462">
        <ele>124.6</ele>
        <time>2020-06-03T13:54:51.000Z</time>
      </trkpt>
      <trkpt lat="43.00536" lon="2.93466">
        <ele>124.2</ele>
        <time>2020-06-03T13:54:52.000Z</time>
      </trkpt>
      <trkpt lat="43.00534" lon="2.93469">
        <ele>123.8</ele>
        <time>2020-06-03T13:54:53.000Z</time>
      </trkpt>
      <trkpt lat="43.00531" lon="2.93474">
        <ele>123.4</ele>
        <time>2020-06-03T13:54:54.000Z</time>
      </trkpt>
      <trkpt lat="43.00529" lon="2.93479">
        <ele>123</ele>
        <time>2020-06-03T13:54:55.000Z</time>
      </trkpt>
      <trkpt lat="43.00526" lon="2.93492">
        <ele>123</ele>
        <time>2020-06-03T13:54:58.000Z</time>
      </trkpt>
      <trkpt lat="43.00524" lon="2.93496">
        <ele>122.6</ele>
        <time>2020-06-03T13:54:59.000Z</time>
      </trkpt>
      <trkpt lat="43.00521" lon="2.93499">
        <ele>122</ele>
        <time>2020-06-03T13:55:00.000Z</time>
      </trkpt>
      <trkpt lat="43.00517" lon="2.93501">
        <ele>121.6</ele>
        <time>2020-06-03T13:55:01.000Z</time>
      </trkpt>
      <trkpt lat="43.00516" lon="2.93504">
        <ele>121</ele>
        <time>2020-06-03T13:55:02.000Z</time>
      </trkpt>
      <trkpt lat="43.00516" lon="2.93507">
        <ele>120.6</ele>
        <time>2020-06-03T13:55:03.000Z</time>
      </trkpt>
      <trkpt lat="43.00517" lon="2.93511">
        <ele>120.6</ele>
        <time>2020-06-03T13:55:04.000Z</time>
      </trkpt>
      <trkpt lat="43.00515" lon="2.93521">
        <ele>120.2</ele>
        <time>2020-06-03T13:55:06.000Z</time>
      </trkpt>
      <trkpt lat="43.00512" lon="2.93523">
        <ele>119.6</ele>
        <time>2020-06-03T13:55:07.000Z</time>
      </trkpt>
      <trkpt lat="43.00508" lon="2.93527">
        <ele>119.2</ele>
        <time>2020-06-03T13:55:08.000Z</time>
      </trkpt>
      <trkpt lat="43.00506" lon="2.9353">
        <ele>118.8</ele>
        <time>2020-06-03T13:55:09.000Z</time>
      </trkpt>
      <trkpt lat="43.00503" lon="2.93534">
        <ele>118.2</ele>
        <time>2020-06-03T13:55:10.000Z</time>
      </trkpt>
      <trkpt lat="43.00498" lon="2.93543">
        <ele>118.2</ele>
        <time>2020-06-03T13:55:12.000Z</time>
      </trkpt>
      <trkpt lat="43.00494" lon="2.93545">
        <ele>118.2</ele>
        <time>2020-06-03T13:55:13.000Z</time>
      </trkpt>
      <trkpt lat="43.0049" lon="2.93546">
        <ele>118.2</ele>
        <time>2020-06-03T13:55:14.000Z</time>
      </trkpt>
      <trkpt lat="43.00483" lon="2.93561">
        <ele>118.2</ele>
        <time>2020-06-03T13:55:17.000Z</time>
      </trkpt>
      <trkpt lat="43.00482" lon="2.93565">
        <ele>117.8</ele>
        <time>2020-06-03T13:55:18.000Z</time>
      </trkpt>
      <trkpt lat="43.0048" lon="2.93568">
        <ele>117.2</ele>
        <time>2020-06-03T13:55:19.000Z</time>
      </trkpt>
      <trkpt lat="43.00479" lon="2.93571">
        <ele>116.6</ele>
        <time>2020-06-03T13:55:20.000Z</time>
      </trkpt>
      <trkpt lat="43.00479" lon="2.93575">
        <ele>116.2</ele>
        <time>2020-06-03T13:55:21.000Z</time>
      </trkpt>
      <trkpt lat="43.0048" lon="2.93578">
        <ele>115.6</ele>
        <time>2020-06-03T13:55:22.000Z</time>
      </trkpt>
      <trkpt lat="43.00478" lon="2.93579">
        <ele>115.6</ele>
        <time>2020-06-03T13:55:23.000Z</time>
      </trkpt>
      <trkpt lat="43.00475" lon="2.93583">
        <ele>115.6</ele>
        <time>2020-06-03T13:55:24.000Z</time>
      </trkpt>
      <trkpt lat="43.00475" lon="2.93586">
        <ele>115.2</ele>
        <time>2020-06-03T13:55:25.000Z</time>
      </trkpt>
      <trkpt lat="43.00476" lon="2.93588">
        <ele>114.8</ele>
        <time>2020-06-03T13:55:26.000Z</time>
      </trkpt>
      <trkpt lat="43.00478" lon="2.93591">
        <ele>114.4</ele>
        <time>2020-06-03T13:55:27.000Z</time>
      </trkpt>
      <trkpt lat="43.00481" lon="2.93592">
        <ele>113.8</ele>
        <time>2020-06-03T13:55:28.000Z</time>
      </trkpt>
      <trkpt lat="43.00484" lon="2.93595">
        <ele>113.4</ele>
        <time>2020-06-03T13:55:29.000Z</time>
      </trkpt>
      <trkpt lat="43.00487" lon="2.93599">
        <ele>112.8</ele>
        <time>2020-06-03T13:55:30.000Z</time>
      </trkpt>
      <trkpt lat="43.00489" lon="2.93602">
        <ele>112.2</ele>
        <time>2020-06-03T13:55:31.000Z</time>
      </trkpt>
      <trkpt lat="43.00491" lon="2.93603">
        <ele>111.6</ele>
        <time>2020-06-03T13:55:32.000Z</time>
      </trkpt>
      <trkpt lat="43.00493" lon="2.93603">
        <ele>111</ele>
        <time>2020-06-03T13:55:33.000Z</time>
      </trkpt>
      <trkpt lat="43.00495" lon="2.93601">
        <ele>110.6</ele>
        <time>2020-06-03T13:55:34.000Z</time>
      </trkpt>
      <trkpt lat="43.00497" lon="2.93599">
        <ele>110.2</ele>
        <time>2020-06-03T13:55:35.000Z</time>
      </trkpt>
      <trkpt lat="43.005" lon="2.93597">
        <ele>109.6</ele>
        <time>2020-06-03T13:55:36.000Z</time>
      </trkpt>
      <trkpt lat="43.00503" lon="2.93595">
        <ele>109.2</ele>
        <time>2020-06-03T13:55:37.000Z</time>
      </trkpt>
      <trkpt lat="43.00505" lon="2.93593">
        <ele>108.6</ele>
        <time>2020-06-03T13:55:38.000Z</time>
      </trkpt>
      <trkpt lat="43.00516" lon="2.93588">
        <ele>108.6</ele>
        <time>2020-06-03T13:55:43.000Z</time>
      </trkpt>
      <trkpt lat="43.00518" lon="2.93589">
        <ele>108.6</ele>
        <time>2020-06-03T13:55:44.000Z</time>
      </trkpt>
      <trkpt lat="43.00521" lon="2.93595">
        <ele>108.6</ele>
        <time>2020-06-03T13:55:46.000Z</time>
      </trkpt>
      <trkpt lat="43.00523" lon="2.93604">
        <ele>108.6</ele>
        <time>2020-06-03T13:55:48.000Z</time>
      </trkpt>
      <trkpt lat="43.00523" lon="2.93613">
        <ele>108.2</ele>
        <time>2020-06-03T13:55:50.000Z</time>
      </trkpt>
      <trkpt lat="43.00523" lon="2.93617">
        <ele>107.8</ele>
        <time>2020-06-03T13:55:51.000Z</time>
      </trkpt>
      <trkpt lat="43.00523" lon="2.93621">
        <ele>107.4</ele>
        <time>2020-06-03T13:55:52.000Z</time>
      </trkpt>
      <trkpt lat="43.00524" lon="2.93626">
        <ele>107</ele>
        <time>2020-06-03T13:55:53.000Z</time>
      </trkpt>
      <trkpt lat="43.00526" lon="2.93632">
        <ele>106.4</ele>
        <time>2020-06-03T13:55:54.000Z</time>
      </trkpt>
      <trkpt lat="43.00525" lon="2.93639">
        <ele>105.8</ele>
        <time>2020-06-03T13:55:55.000Z</time>
      </trkpt>
      <trkpt lat="43.00524" lon="2.93646">
        <ele>105.2</ele>
        <time>2020-06-03T13:55:56.000Z</time>
      </trkpt>
      <trkpt lat="43.00521" lon="2.93652">
        <ele>104.4</ele>
        <time>2020-06-03T13:55:57.000Z</time>
      </trkpt>
      <trkpt lat="43.00517" lon="2.93657">
        <ele>103.8</ele>
        <time>2020-06-03T13:55:58.000Z</time>
      </trkpt>
      <trkpt lat="43.00513" lon="2.9366">
        <ele>103</ele>
        <time>2020-06-03T13:55:59.000Z</time>
      </trkpt>
      <trkpt lat="43.00508" lon="2.93661">
        <ele>102.2</ele>
        <time>2020-06-03T13:56:00.000Z</time>
      </trkpt>
      <trkpt lat="43.00503" lon="2.93662">
        <ele>101.6</ele>
        <time>2020-06-03T13:56:01.000Z</time>
      </trkpt>
      <trkpt lat="43.00491" lon="2.93668">
        <ele>101.6</ele>
        <time>2020-06-03T13:56:04.000Z</time>
      </trkpt>
      <trkpt lat="43.00476" lon="2.93679">
        <ele>101.6</ele>
        <time>2020-06-03T13:56:08.000Z</time>
      </trkpt>
      <trkpt lat="43.0046" lon="2.93683">
        <ele>101.6</ele>
        <time>2020-06-03T13:56:12.000Z</time>
      </trkpt>
      <trkpt lat="43.00452" lon="2.93685">
        <ele>101.6</ele>
        <time>2020-06-03T13:56:14.000Z</time>
      </trkpt>
      <trkpt lat="43.00448" lon="2.93687">
        <ele>101.6</ele>
        <time>2020-06-03T13:56:15.000Z</time>
      </trkpt>
      <trkpt lat="43.00439" lon="2.93692">
        <ele>101.6</ele>
        <time>2020-06-03T13:56:17.000Z</time>
      </trkpt>
      <trkpt lat="43.00435" lon="2.93694">
        <ele>101.6</ele>
        <time>2020-06-03T13:56:18.000Z</time>
      </trkpt>
      <trkpt lat="43.00422" lon="2.93697">
        <ele>101.6</ele>
        <time>2020-06-03T13:56:22.000Z</time>
      </trkpt>
      <trkpt lat="43.00408" lon="2.93691">
        <ele>101.6</ele>
        <time>2020-06-03T13:56:27.000Z</time>
      </trkpt>
      <trkpt lat="43.00396" lon="2.93686">
        <ele>101.6</ele>
        <time>2020-06-03T13:56:32.000Z</time>
      </trkpt>
      <trkpt lat="43.00395" lon="2.93687">
        <ele>101.6</ele>
        <time>2020-06-03T13:56:33.000Z</time>
      </trkpt>
      <trkpt lat="43.00387" lon="2.93693">
        <ele>101.6</ele>
        <time>2020-06-03T13:56:36.000Z</time>
      </trkpt>
      <trkpt lat="43.00379" lon="2.93694">
        <ele>101.6</ele>
        <time>2020-06-03T13:56:38.000Z</time>
      </trkpt>
      <trkpt lat="43.00371" lon="2.93695">
        <ele>101.6</ele>
        <time>2020-06-03T13:56:40.000Z</time>
      </trkpt>
      <trkpt lat="43.00367" lon="2.93696">
        <ele>101.2</ele>
        <time>2020-06-03T13:56:41.000Z</time>
      </trkpt>
      <trkpt lat="43.00365" lon="2.93695">
        <ele>100.8</ele>
        <time>2020-06-03T13:56:42.000Z</time>
      </trkpt>
      <trkpt lat="43.00364" lon="2.93695">
        <ele>100.4</ele>
        <time>2020-06-03T13:56:43.000Z</time>
      </trkpt>
      <trkpt lat="43.00362" lon="2.93695">
        <ele>99.8</ele>
        <time>2020-06-03T13:56:44.000Z</time>
      </trkpt>
      <trkpt lat="43.00361" lon="2.93694">
        <ele>100.2</ele>
        <time>2020-06-03T13:56:45.000Z</time>
      </trkpt>
      <trkpt lat="43.00359" lon="2.93693">
        <ele>100.6</ele>
        <time>2020-06-03T13:56:46.000Z</time>
      </trkpt>
      <trkpt lat="43.00356" lon="2.93692">
        <ele>100.8</ele>
        <time>2020-06-03T13:56:47.000Z</time>
      </trkpt>
      <trkpt lat="43.00354" lon="2.93691">
        <ele>101.2</ele>
        <time>2020-06-03T13:56:48.000Z</time>
      </trkpt>
      <trkpt lat="43.00352" lon="2.9369">
        <ele>101.4</ele>
        <time>2020-06-03T13:56:49.000Z</time>
      </trkpt>
      <trkpt lat="43.00341" lon="2.93685">
        <ele>101.4</ele>
        <time>2020-06-03T13:56:53.000Z</time>
      </trkpt>
      <trkpt lat="43.00338" lon="2.93684">
        <ele>102</ele>
        <time>2020-06-03T13:56:54.000Z</time>
      </trkpt>
      <trkpt lat="43.00335" lon="2.93684">
        <ele>102.4</ele>
        <time>2020-06-03T13:56:55.000Z</time>
      </trkpt>
      <trkpt lat="43.00333" lon="2.93683">
        <ele>102.8</ele>
        <time>2020-06-03T13:56:56.000Z</time>
      </trkpt>
      <trkpt lat="43.00332" lon="2.93683">
        <ele>103.2</ele>
        <time>2020-06-03T13:56:57.000Z</time>
      </trkpt>
      <trkpt lat="43.0033" lon="2.93681">
        <ele>103.6</ele>
        <time>2020-06-03T13:56:58.000Z</time>
      </trkpt>
      <trkpt lat="43.00326" lon="2.93677">
        <ele>103.6</ele>
        <time>2020-06-03T13:57:00.000Z</time>
      </trkpt>
      <trkpt lat="43.00324" lon="2.93674">
        <ele>104</ele>
        <time>2020-06-03T13:57:01.000Z</time>
      </trkpt>
      <trkpt lat="43.00322" lon="2.93672">
        <ele>104.8</ele>
        <time>2020-06-03T13:57:02.000Z</time>
      </trkpt>
      <trkpt lat="43.00319" lon="2.9367">
        <ele>105.2</ele>
        <time>2020-06-03T13:57:03.000Z</time>
      </trkpt>
      <trkpt lat="43.00316" lon="2.93669">
        <ele>105.8</ele>
        <time>2020-06-03T13:57:04.000Z</time>
      </trkpt>
      <trkpt lat="43.00314" lon="2.9367">
        <ele>106.2</ele>
        <time>2020-06-03T13:57:05.000Z</time>
      </trkpt>
      <trkpt lat="43.00311" lon="2.93671">
        <ele>106.8</ele>
        <time>2020-06-03T13:57:06.000Z</time>
      </trkpt>
      <trkpt lat="43.00308" lon="2.93672">
        <ele>107.2</ele>
        <time>2020-06-03T13:57:07.000Z</time>
      </trkpt>
      <trkpt lat="43.00306" lon="2.93673">
        <ele>107.6</ele>
        <time>2020-06-03T13:57:08.000Z</time>
      </trkpt>
      <trkpt lat="43.00303" lon="2.93674">
        <ele>107.6</ele>
        <time>2020-06-03T13:57:09.000Z</time>
      </trkpt>
      <trkpt lat="43.0029" lon="2.93682">
        <ele>107.6</ele>
        <time>2020-06-03T13:57:14.000Z</time>
      </trkpt>
      <trkpt lat="43.00284" lon="2.93684">
        <ele>107.6</ele>
        <time>2020-06-03T13:57:16.000Z</time>
      </trkpt>
      <trkpt lat="43.00282" lon="2.93686">
        <ele>107.6</ele>
        <time>2020-06-03T13:57:17.000Z</time>
      </trkpt>
      <trkpt lat="43.0028" lon="2.93694">
        <ele>107.6</ele>
        <time>2020-06-03T13:57:20.000Z</time>
      </trkpt>
      <trkpt lat="43.00278" lon="2.937">
        <ele>107.6</ele>
        <time>2020-06-03T13:57:23.000Z</time>
      </trkpt>
      <trkpt lat="43.00276" lon="2.93701">
        <ele>107.6</ele>
        <time>2020-06-03T13:57:24.000Z</time>
      </trkpt>
      <trkpt lat="43.00269" lon="2.93701">
        <ele>107.6</ele>
        <time>2020-06-03T13:57:27.000Z</time>
      </trkpt>
      <trkpt lat="43.00255" lon="2.93704">
        <ele>107.6</ele>
        <time>2020-06-03T13:57:32.000Z</time>
      </trkpt>
      <trkpt lat="43.00245" lon="2.93716">
        <ele>107.6</ele>
        <time>2020-06-03T13:57:37.000Z</time>
      </trkpt>
      <trkpt lat="43.00243" lon="2.93722">
        <ele>107.6</ele>
        <time>2020-06-03T13:57:39.000Z</time>
      </trkpt>
      <trkpt lat="43.00243" lon="2.9373">
        <ele>107.6</ele>
        <time>2020-06-03T13:57:41.000Z</time>
      </trkpt>
      <trkpt lat="43.00243" lon="2.93734">
        <ele>107.6</ele>
        <time>2020-06-03T13:57:42.000Z</time>
      </trkpt>
      <trkpt lat="43.00244" lon="2.93744">
        <ele>107.6</ele>
        <time>2020-06-03T13:57:45.000Z</time>
      </trkpt>
      <trkpt lat="43.00244" lon="2.93748">
        <ele>107.6</ele>
        <time>2020-06-03T13:57:46.000Z</time>
      </trkpt>
      <trkpt lat="43.00242" lon="2.93751">
        <ele>107.2</ele>
        <time>2020-06-03T13:57:47.000Z</time>
      </trkpt>
      <trkpt lat="43.0024" lon="2.93752">
        <ele>106.8</ele>
        <time>2020-06-03T13:57:48.000Z</time>
      </trkpt>
      <trkpt lat="43.00239" lon="2.93752">
        <ele>106.4</ele>
        <time>2020-06-03T13:57:49.000Z</time>
      </trkpt>
      <trkpt lat="43.00238" lon="2.93752">
        <ele>105.6</ele>
        <time>2020-06-03T13:57:57.000Z</time>
      </trkpt>
      <trkpt lat="43.00237" lon="2.9375">
        <ele>105.6</ele>
        <time>2020-06-03T13:57:58.000Z</time>
      </trkpt>
      <trkpt lat="43.00229" lon="2.93739">
        <ele>105.6</ele>
        <time>2020-06-03T13:58:02.000Z</time>
      </trkpt>
      <trkpt lat="43.00226" lon="2.93728">
        <ele>105.6</ele>
        <time>2020-06-03T13:58:05.000Z</time>
      </trkpt>
      <trkpt lat="43.00225" lon="2.93725">
        <ele>105.6</ele>
        <time>2020-06-03T13:58:06.000Z</time>
      </trkpt>
      <trkpt lat="43.00221" lon="2.93719">
        <ele>105.6</ele>
        <time>2020-06-03T13:58:08.000Z</time>
      </trkpt>
      <trkpt lat="43.00218" lon="2.93716">
        <ele>105.2</ele>
        <time>2020-06-03T13:58:09.000Z</time>
      </trkpt>
      <trkpt lat="43.00217" lon="2.93713">
        <ele>104.8</ele>
        <time>2020-06-03T13:58:10.000Z</time>
      </trkpt>
      <trkpt lat="43.00214" lon="2.93711">
        <ele>104.2</ele>
        <time>2020-06-03T13:58:11.000Z</time>
      </trkpt>
      <trkpt lat="43.00211" lon="2.93709">
        <ele>103.8</ele>
        <time>2020-06-03T13:58:12.000Z</time>
      </trkpt>
      <trkpt lat="43.00209" lon="2.93707">
        <ele>103.4</ele>
        <time>2020-06-03T13:58:13.000Z</time>
      </trkpt>
      <trkpt lat="43.00205" lon="2.93703">
        <ele>103.4</ele>
        <time>2020-06-03T13:58:15.000Z</time>
      </trkpt>
      <trkpt lat="43.00196" lon="2.93706">
        <ele>103.4</ele>
        <time>2020-06-03T13:58:19.000Z</time>
      </trkpt>
      <trkpt lat="43.00191" lon="2.93709">
        <ele>103</ele>
        <time>2020-06-03T13:58:21.000Z</time>
      </trkpt>
      <trkpt lat="43.00187" lon="2.9371">
        <ele>102.6</ele>
        <time>2020-06-03T13:58:22.000Z</time>
      </trkpt>
      <trkpt lat="43.00182" lon="2.93709">
        <ele>102.2</ele>
        <time>2020-06-03T13:58:23.000Z</time>
      </trkpt>
      <trkpt lat="43.00178" lon="2.93707">
        <ele>101.8</ele>
        <time>2020-06-03T13:58:24.000Z</time>
      </trkpt>
      <trkpt lat="43.00174" lon="2.93705">
        <ele>101.4</ele>
        <time>2020-06-03T13:58:25.000Z</time>
      </trkpt>
      <trkpt lat="43.00169" lon="2.93703">
        <ele>101.4</ele>
        <time>2020-06-03T13:58:26.000Z</time>
      </trkpt>
      <trkpt lat="43.00165" lon="2.93701">
        <ele>101.4</ele>
        <time>2020-06-03T13:58:27.000Z</time>
      </trkpt>
      <trkpt lat="43.00161" lon="2.93699">
        <ele>101.4</ele>
        <time>2020-06-03T13:58:28.000Z</time>
      </trkpt>
      <trkpt lat="43.00158" lon="2.93697">
        <ele>101</ele>
        <time>2020-06-03T13:58:29.000Z</time>
      </trkpt>
      <trkpt lat="43.00155" lon="2.93694">
        <ele>100.4</ele>
        <time>2020-06-03T13:58:30.000Z</time>
      </trkpt>
      <trkpt lat="43.00154" lon="2.9369">
        <ele>100</ele>
        <time>2020-06-03T13:58:31.000Z</time>
      </trkpt>
      <trkpt lat="43.00155" lon="2.93686">
        <ele>99.6</ele>
        <time>2020-06-03T13:58:32.000Z</time>
      </trkpt>
      <trkpt lat="43.00155" lon="2.93682">
        <ele>99.2</ele>
        <time>2020-06-03T13:58:33.000Z</time>
      </trkpt>
      <trkpt lat="43.00155" lon="2.93678">
        <ele>99.2</ele>
        <time>2020-06-03T13:58:34.000Z</time>
      </trkpt>
      <trkpt lat="43.00146" lon="2.93672">
        <ele>99.2</ele>
        <time>2020-06-03T13:58:37.000Z</time>
      </trkpt>
      <trkpt lat="43.00141" lon="2.93671">
        <ele>99.2</ele>
        <time>2020-06-03T13:58:38.000Z</time>
      </trkpt>
      <trkpt lat="43.0013" lon="2.93669">
        <ele>98.8</ele>
        <time>2020-06-03T13:58:40.000Z</time>
      </trkpt>
      <trkpt lat="43.00126" lon="2.9367">
        <ele>97.8</ele>
        <time>2020-06-03T13:58:41.000Z</time>
      </trkpt>
      <trkpt lat="43.00123" lon="2.93672">
        <ele>97.2</ele>
        <time>2020-06-03T13:58:42.000Z</time>
      </trkpt>
      <trkpt lat="43.0012" lon="2.93675">
        <ele>96.6</ele>
        <time>2020-06-03T13:58:43.000Z</time>
      </trkpt>
      <trkpt lat="43.00116" lon="2.93679">
        <ele>96</ele>
        <time>2020-06-03T13:58:44.000Z</time>
      </trkpt>
      <trkpt lat="43.00113" lon="2.93682">
        <ele>95.2</ele>
        <time>2020-06-03T13:58:45.000Z</time>
      </trkpt>
      <trkpt lat="43.0011" lon="2.93686">
        <ele>94.6</ele>
        <time>2020-06-03T13:58:46.000Z</time>
      </trkpt>
      <trkpt lat="43.00107" lon="2.93691">
        <ele>94.2</ele>
        <time>2020-06-03T13:58:47.000Z</time>
      </trkpt>
      <trkpt lat="43.00106" lon="2.93697">
        <ele>93.6</ele>
        <time>2020-06-03T13:58:48.000Z</time>
      </trkpt>
      <trkpt lat="43.00105" lon="2.93703">
        <ele>93.2</ele>
        <time>2020-06-03T13:58:49.000Z</time>
      </trkpt>
      <trkpt lat="43.00106" lon="2.93708">
        <ele>92.6</ele>
        <time>2020-06-03T13:58:50.000Z</time>
      </trkpt>
      <trkpt lat="43.00107" lon="2.93713">
        <ele>92.2</ele>
        <time>2020-06-03T13:58:51.000Z</time>
      </trkpt>
      <trkpt lat="43.00107" lon="2.93722">
        <ele>92.2</ele>
        <time>2020-06-03T13:58:53.000Z</time>
      </trkpt>
      <trkpt lat="43.00097" lon="2.93745">
        <ele>92.2</ele>
        <time>2020-06-03T13:58:58.000Z</time>
      </trkpt>
      <trkpt lat="43.00094" lon="2.93751">
        <ele>91.8</ele>
        <time>2020-06-03T13:58:59.000Z</time>
      </trkpt>
      <trkpt lat="43.00092" lon="2.93757">
        <ele>91.2</ele>
        <time>2020-06-03T13:59:00.000Z</time>
      </trkpt>
      <trkpt lat="43.0009" lon="2.93763">
        <ele>90.8</ele>
        <time>2020-06-03T13:59:01.000Z</time>
      </trkpt>
      <trkpt lat="43.00088" lon="2.9377">
        <ele>90.4</ele>
        <time>2020-06-03T13:59:02.000Z</time>
      </trkpt>
      <trkpt lat="43.00086" lon="2.93778">
        <ele>89.8</ele>
        <time>2020-06-03T13:59:03.000Z</time>
      </trkpt>
      <trkpt lat="43.00082" lon="2.938">
        <ele>89.4</ele>
        <time>2020-06-03T13:59:06.000Z</time>
      </trkpt>
      <trkpt lat="43.00082" lon="2.93808">
        <ele>89</ele>
        <time>2020-06-03T13:59:07.000Z</time>
      </trkpt>
      <trkpt lat="43.00081" lon="2.93816">
        <ele>88.6</ele>
        <time>2020-06-03T13:59:08.000Z</time>
      </trkpt>
      <trkpt lat="43.00079" lon="2.93823">
        <ele>88.2</ele>
        <time>2020-06-03T13:59:09.000Z</time>
      </trkpt>
      <trkpt lat="43.00078" lon="2.9383">
        <ele>87.6</ele>
        <time>2020-06-03T13:59:10.000Z</time>
      </trkpt>
      <trkpt lat="43.00076" lon="2.93837">
        <ele>87.6</ele>
        <time>2020-06-03T13:59:11.000Z</time>
      </trkpt>
      <trkpt lat="43.00073" lon="2.93851">
        <ele>87.6</ele>
        <time>2020-06-03T13:59:13.000Z</time>
      </trkpt>
      <trkpt lat="43.00068" lon="2.93892">
        <ele>87.2</ele>
        <time>2020-06-03T13:59:18.000Z</time>
      </trkpt>
      <trkpt lat="43.00067" lon="2.939">
        <ele>86.8</ele>
        <time>2020-06-03T13:59:19.000Z</time>
      </trkpt>
      <trkpt lat="43.00065" lon="2.93909">
        <ele>86.2</ele>
        <time>2020-06-03T13:59:20.000Z</time>
      </trkpt>
      <trkpt lat="43.00064" lon="2.93917">
        <ele>85.8</ele>
        <time>2020-06-03T13:59:21.000Z</time>
      </trkpt>
      <trkpt lat="43.00063" lon="2.93925">
        <ele>85.4</ele>
        <time>2020-06-03T13:59:22.000Z</time>
      </trkpt>
      <trkpt lat="43.00057" lon="2.93966">
        <ele>85.4</ele>
        <time>2020-06-03T13:59:27.000Z</time>
      </trkpt>
      <trkpt lat="43.00054" lon="2.93982">
        <ele>85</ele>
        <time>2020-06-03T13:59:29.000Z</time>
      </trkpt>
      <trkpt lat="43.00053" lon="2.9399">
        <ele>84.6</ele>
        <time>2020-06-03T13:59:30.000Z</time>
      </trkpt>
      <trkpt lat="43.00051" lon="2.93998">
        <ele>84.2</ele>
        <time>2020-06-03T13:59:31.000Z</time>
      </trkpt>
      <trkpt lat="43.00049" lon="2.94007">
        <ele>83.4</ele>
        <time>2020-06-03T13:59:32.000Z</time>
      </trkpt>
      <trkpt lat="43.00046" lon="2.94024">
        <ele>83.4</ele>
        <time>2020-06-03T13:59:34.000Z</time>
      </trkpt>
      <trkpt lat="43.0004" lon="2.94073">
        <ele>83.4</ele>
        <time>2020-06-03T13:59:40.000Z</time>
      </trkpt>
    </trkseg>
  </trk>
  <trk>
    <name><![CDATA[sigean le rieu et les sentiers de roquefort_9]]></name>
    <trkseg>
      <trkpt lat="43.00553" lon="2.9455">
        <ele>79</ele>
        <time>2020-06-03T14:01:57.000Z</time>
      </trkpt>
      <trkpt lat="43.00555" lon="2.94536">
        <ele>79</ele>
        <time>2020-06-03T14:01:59.000Z</time>
      </trkpt>
      <trkpt lat="43.00559" lon="2.94512">
        <ele>79</ele>
        <time>2020-06-03T14:02:02.000Z</time>
      </trkpt>
      <trkpt lat="43.00573" lon="2.94461">
        <ele>79</ele>
        <time>2020-06-03T14:02:08.000Z</time>
      </trkpt>
      <trkpt lat="43.00577" lon="2.94454">
        <ele>79</ele>
        <time>2020-06-03T14:02:09.000Z</time>
      </trkpt>
      <trkpt lat="43.00587" lon="2.94441">
        <ele>79</ele>
        <time>2020-06-03T14:02:11.000Z</time>
      </trkpt>
      <trkpt lat="43.00606" lon="2.94433">
        <ele>79</ele>
        <time>2020-06-03T14:02:14.000Z</time>
      </trkpt>
      <trkpt lat="43.00612" lon="2.94429">
        <ele>79</ele>
        <time>2020-06-03T14:02:15.000Z</time>
      </trkpt>
      <trkpt lat="43.00622" lon="2.94416">
        <ele>79</ele>
        <time>2020-06-03T14:02:17.000Z</time>
      </trkpt>
      <trkpt lat="43.00632" lon="2.94381">
        <ele>79.4</ele>
        <time>2020-06-03T14:02:21.000Z</time>
      </trkpt>
      <trkpt lat="43.00634" lon="2.94373">
        <ele>79.8</ele>
        <time>2020-06-03T14:02:22.000Z</time>
      </trkpt>
      <trkpt lat="43.00636" lon="2.94364">
        <ele>80.2</ele>
        <time>2020-06-03T14:02:23.000Z</time>
      </trkpt>
      <trkpt lat="43.00637" lon="2.94356">
        <ele>81</ele>
        <time>2020-06-03T14:02:24.000Z</time>
      </trkpt>
      <trkpt lat="43.00641" lon="2.94341">
        <ele>81</ele>
        <time>2020-06-03T14:02:26.000Z</time>
      </trkpt>
      <trkpt lat="43.00656" lon="2.94293">
        <ele>81</ele>
        <time>2020-06-03T14:02:32.000Z</time>
      </trkpt>
      <trkpt lat="43.00666" lon="2.94257">
        <ele>81</ele>
        <time>2020-06-03T14:02:37.000Z</time>
      </trkpt>
      <trkpt lat="43.00682" lon="2.94208">
        <ele>81</ele>
        <time>2020-06-03T14:02:44.000Z</time>
      </trkpt>
      <trkpt lat="43.00683" lon="2.94201">
        <ele>81.4</ele>
        <time>2020-06-03T14:02:45.000Z</time>
      </trkpt>
      <trkpt lat="43.00685" lon="2.94194">
        <ele>82</ele>
        <time>2020-06-03T14:02:46.000Z</time>
      </trkpt>
      <trkpt lat="43.00687" lon="2.94188">
        <ele>82.4</ele>
        <time>2020-06-03T14:02:47.000Z</time>
      </trkpt>
      <trkpt lat="43.00689" lon="2.94181">
        <ele>82.8</ele>
        <time>2020-06-03T14:02:48.000Z</time>
      </trkpt>
      <trkpt lat="43.00692" lon="2.94174">
        <ele>83.2</ele>
        <time>2020-06-03T14:02:49.000Z</time>
      </trkpt>
      <trkpt lat="43.00706" lon="2.94127">
        <ele>83.2</ele>
        <time>2020-06-03T14:02:55.000Z</time>
      </trkpt>
      <trkpt lat="43.00705" lon="2.94091">
        <ele>83.2</ele>
        <time>2020-06-03T14:02:59.000Z</time>
      </trkpt>
      <trkpt lat="43.00704" lon="2.94066">
        <ele>83.2</ele>
        <time>2020-06-03T14:03:02.000Z</time>
      </trkpt>
      <trkpt lat="43.00706" lon="2.9405">
        <ele>83.2</ele>
        <time>2020-06-03T14:03:04.000Z</time>
      </trkpt>
      <trkpt lat="43.0072" lon="2.94021">
        <ele>83.2</ele>
        <time>2020-06-03T14:03:08.000Z</time>
      </trkpt>
      <trkpt lat="43.00725" lon="2.94014">
        <ele>83.2</ele>
        <time>2020-06-03T14:03:09.000Z</time>
      </trkpt>
      <trkpt lat="43.00751" lon="2.9397">
        <ele>83.2</ele>
        <time>2020-06-03T14:03:15.000Z</time>
      </trkpt>
      <trkpt lat="43.00761" lon="2.93947">
        <ele>83.6</ele>
        <time>2020-06-03T14:03:18.000Z</time>
      </trkpt>
      <trkpt lat="43.00764" lon="2.93939">
        <ele>84</ele>
        <time>2020-06-03T14:03:19.000Z</time>
      </trkpt>
      <trkpt lat="43.00768" lon="2.93931">
        <ele>84.4</ele>
        <time>2020-06-03T14:03:20.000Z</time>
      </trkpt>
      <trkpt lat="43.00772" lon="2.93923">
        <ele>84.8</ele>
        <time>2020-06-03T14:03:21.000Z</time>
      </trkpt>
      <trkpt lat="43.00776" lon="2.93916">
        <ele>85.2</ele>
        <time>2020-06-03T14:03:22.000Z</time>
      </trkpt>
      <trkpt lat="43.00792" lon="2.93888">
        <ele>85.2</ele>
        <time>2020-06-03T14:03:26.000Z</time>
      </trkpt>
      <trkpt lat="43.00795" lon="2.93879">
        <ele>85.2</ele>
        <time>2020-06-03T14:03:27.000Z</time>
      </trkpt>
      <trkpt lat="43.00798" lon="2.93851">
        <ele>85.2</ele>
        <time>2020-06-03T14:03:30.000Z</time>
      </trkpt>
      <trkpt lat="43.00797" lon="2.93831">
        <ele>85.2</ele>
        <time>2020-06-03T14:03:32.000Z</time>
      </trkpt>
      <trkpt lat="43.00796" lon="2.93813">
        <ele>85.2</ele>
        <time>2020-06-03T14:03:34.000Z</time>
      </trkpt>
      <trkpt lat="43.00796" lon="2.93805">
        <ele>85.2</ele>
        <time>2020-06-03T14:03:35.000Z</time>
      </trkpt>
      <trkpt lat="43.00803" lon="2.93776">
        <ele>85.6</ele>
        <time>2020-06-03T14:03:39.000Z</time>
      </trkpt>
      <trkpt lat="43.00807" lon="2.93769">
        <ele>86</ele>
        <time>2020-06-03T14:03:40.000Z</time>
      </trkpt>
      <trkpt lat="43.00811" lon="2.93763">
        <ele>86.4</ele>
        <time>2020-06-03T14:03:41.000Z</time>
      </trkpt>
      <trkpt lat="43.00815" lon="2.93757">
        <ele>86.8</ele>
        <time>2020-06-03T14:03:42.000Z</time>
      </trkpt>
      <trkpt lat="43.00819" lon="2.9375">
        <ele>87.2</ele>
        <time>2020-06-03T14:03:43.000Z</time>
      </trkpt>
      <trkpt lat="43.00823" lon="2.93743">
        <ele>87.2</ele>
        <time>2020-06-03T14:03:44.000Z</time>
      </trkpt>
      <trkpt lat="43.00829" lon="2.93726">
        <ele>87.2</ele>
        <time>2020-06-03T14:03:46.000Z</time>
      </trkpt>
      <trkpt lat="43.00838" lon="2.93692">
        <ele>87.2</ele>
        <time>2020-06-03T14:03:50.000Z</time>
      </trkpt>
      <trkpt lat="43.0084" lon="2.93683">
        <ele>87.2</ele>
        <time>2020-06-03T14:03:51.000Z</time>
      </trkpt>
      <trkpt lat="43.00847" lon="2.93647">
        <ele>87.2</ele>
        <time>2020-06-03T14:03:55.000Z</time>
      </trkpt>
      <trkpt lat="43.0086" lon="2.93589">
        <ele>87.2</ele>
        <time>2020-06-03T14:04:02.000Z</time>
      </trkpt>
      <trkpt lat="43.00874" lon="2.93571">
        <ele>87.2</ele>
        <time>2020-06-03T14:04:05.000Z</time>
      </trkpt>
      <trkpt lat="43.00879" lon="2.93566">
        <ele>87.6</ele>
        <time>2020-06-03T14:04:06.000Z</time>
      </trkpt>
      <trkpt lat="43.00884" lon="2.93562">
        <ele>88.2</ele>
        <time>2020-06-03T14:04:07.000Z</time>
      </trkpt>
      <trkpt lat="43.00889" lon="2.93559">
        <ele>88.6</ele>
        <time>2020-06-03T14:04:08.000Z</time>
      </trkpt>
      <trkpt lat="43.00893" lon="2.93554">
        <ele>89</ele>
        <time>2020-06-03T14:04:09.000Z</time>
      </trkpt>
      <trkpt lat="43.00897" lon="2.93549">
        <ele>89.4</ele>
        <time>2020-06-03T14:04:10.000Z</time>
      </trkpt>
      <trkpt lat="43.00908" lon="2.93529">
        <ele>89.4</ele>
        <time>2020-06-03T14:04:13.000Z</time>
      </trkpt>
      <trkpt lat="43.00914" lon="2.93514">
        <ele>89.4</ele>
        <time>2020-06-03T14:04:15.000Z</time>
      </trkpt>
      <trkpt lat="43.0093" lon="2.93453">
        <ele>89.4</ele>
        <time>2020-06-03T14:04:22.000Z</time>
      </trkpt>
      <trkpt lat="43.00934" lon="2.93387">
        <ele>89.4</ele>
        <time>2020-06-03T14:04:29.000Z</time>
      </trkpt>
      <trkpt lat="43.00935" lon="2.93377">
        <ele>89.8</ele>
        <time>2020-06-03T14:04:30.000Z</time>
      </trkpt>
      <trkpt lat="43.00935" lon="2.93368">
        <ele>90.4</ele>
        <time>2020-06-03T14:04:31.000Z</time>
      </trkpt>
      <trkpt lat="43.00935" lon="2.93359">
        <ele>90.8</ele>
        <time>2020-06-03T14:04:32.000Z</time>
      </trkpt>
      <trkpt lat="43.00935" lon="2.93349">
        <ele>91.2</ele>
        <time>2020-06-03T14:04:33.000Z</time>
      </trkpt>
      <trkpt lat="43.00936" lon="2.9334">
        <ele>91.6</ele>
        <time>2020-06-03T14:04:34.000Z</time>
      </trkpt>
      <trkpt lat="43.00936" lon="2.93332">
        <ele>91.6</ele>
        <time>2020-06-03T14:04:35.000Z</time>
      </trkpt>
      <trkpt lat="43.00938" lon="2.93323">
        <ele>91.6</ele>
        <time>2020-06-03T14:04:36.000Z</time>
      </trkpt>
      <trkpt lat="43.00944" lon="2.93299">
        <ele>91.6</ele>
        <time>2020-06-03T14:04:40.000Z</time>
      </trkpt>
      <trkpt lat="43.00946" lon="2.93295">
        <ele>92</ele>
        <time>2020-06-03T14:04:41.000Z</time>
      </trkpt>
      <trkpt lat="43.00949" lon="2.93294">
        <ele>92.6</ele>
        <time>2020-06-03T14:04:42.000Z</time>
      </trkpt>
      <trkpt lat="43.00952" lon="2.93295">
        <ele>93</ele>
        <time>2020-06-03T14:04:43.000Z</time>
      </trkpt>
      <trkpt lat="43.00956" lon="2.93298">
        <ele>93.6</ele>
        <time>2020-06-03T14:04:44.000Z</time>
      </trkpt>
      <trkpt lat="43.00959" lon="2.93302">
        <ele>94</ele>
        <time>2020-06-03T14:04:45.000Z</time>
      </trkpt>
      <trkpt lat="43.00968" lon="2.93311">
        <ele>94</ele>
        <time>2020-06-03T14:04:47.000Z</time>
      </trkpt>
      <trkpt lat="43.00973" lon="2.93316">
        <ele>94</ele>
        <time>2020-06-03T14:04:48.000Z</time>
      </trkpt>
      <trkpt lat="43.00984" lon="2.93338">
        <ele>94</ele>
        <time>2020-06-03T14:04:51.000Z</time>
      </trkpt>
      <trkpt lat="43.0099" lon="2.93356">
        <ele>94</ele>
        <time>2020-06-03T14:04:53.000Z</time>
      </trkpt>
      <trkpt lat="43.00997" lon="2.93382">
        <ele>94</ele>
        <time>2020-06-03T14:04:56.000Z</time>
      </trkpt>
      <trkpt lat="43.01008" lon="2.93445">
        <ele>94</ele>
        <time>2020-06-03T14:05:03.000Z</time>
      </trkpt>
      <trkpt lat="43.01016" lon="2.93514">
        <ele>94</ele>
        <time>2020-06-03T14:05:10.000Z</time>
      </trkpt>
      <trkpt lat="43.01023" lon="2.93584">
        <ele>94</ele>
        <time>2020-06-03T14:05:17.000Z</time>
      </trkpt>
      <trkpt lat="43.01032" lon="2.93662">
        <ele>94</ele>
        <time>2020-06-03T14:05:25.000Z</time>
      </trkpt>
      <trkpt lat="43.01034" lon="2.93681">
        <ele>94</ele>
        <time>2020-06-03T14:05:27.000Z</time>
      </trkpt>
      <trkpt lat="43.01039" lon="2.93738">
        <ele>94</ele>
        <time>2020-06-03T14:05:33.000Z</time>
      </trkpt>
      <trkpt lat="43.01048" lon="2.93817">
        <ele>94</ele>
        <time>2020-06-03T14:05:41.000Z</time>
      </trkpt>
      <trkpt lat="43.01049" lon="2.93827">
        <ele>93.6</ele>
        <time>2020-06-03T14:05:42.000Z</time>
      </trkpt>
      <trkpt lat="43.0105" lon="2.93837">
        <ele>93.2</ele>
        <time>2020-06-03T14:05:43.000Z</time>
      </trkpt>
      <trkpt lat="43.01052" lon="2.93847">
        <ele>92.8</ele>
        <time>2020-06-03T14:05:44.000Z</time>
      </trkpt>
      <trkpt lat="43.01053" lon="2.93856">
        <ele>92.4</ele>
        <time>2020-06-03T14:05:45.000Z</time>
      </trkpt>
      <trkpt lat="43.01053" lon="2.93866">
        <ele>91.8</ele>
        <time>2020-06-03T14:05:46.000Z</time>
      </trkpt>
      <trkpt lat="43.01057" lon="2.93906">
        <ele>91.8</ele>
        <time>2020-06-03T14:05:50.000Z</time>
      </trkpt>
      <trkpt lat="43.01065" lon="2.93982">
        <ele>91.8</ele>
        <time>2020-06-03T14:05:58.000Z</time>
      </trkpt>
      <trkpt lat="43.01074" lon="2.94062">
        <ele>92.4</ele>
        <time>2020-06-03T14:06:07.000Z</time>
      </trkpt>
      <trkpt lat="43.01075" lon="2.9407">
        <ele>92.8</ele>
        <time>2020-06-03T14:06:08.000Z</time>
      </trkpt>
      <trkpt lat="43.01078" lon="2.94079">
        <ele>93.2</ele>
        <time>2020-06-03T14:06:09.000Z</time>
      </trkpt>
      <trkpt lat="43.0108" lon="2.94087">
        <ele>93.6</ele>
        <time>2020-06-03T14:06:10.000Z</time>
      </trkpt>
      <trkpt lat="43.01083" lon="2.94095">
        <ele>94</ele>
        <time>2020-06-03T14:06:11.000Z</time>
      </trkpt>
      <trkpt lat="43.0109" lon="2.94111">
        <ele>94</ele>
        <time>2020-06-03T14:06:13.000Z</time>
      </trkpt>
      <trkpt lat="43.01106" lon="2.94151">
        <ele>94.4</ele>
        <time>2020-06-03T14:06:18.000Z</time>
      </trkpt>
      <trkpt lat="43.0111" lon="2.94159">
        <ele>94.8</ele>
        <time>2020-06-03T14:06:19.000Z</time>
      </trkpt>
      <trkpt lat="43.01114" lon="2.94168">
        <ele>95.2</ele>
        <time>2020-06-03T14:06:20.000Z</time>
      </trkpt>
      <trkpt lat="43.01117" lon="2.94176">
        <ele>95.6</ele>
        <time>2020-06-03T14:06:21.000Z</time>
      </trkpt>
      <trkpt lat="43.0112" lon="2.94184">
        <ele>96</ele>
        <time>2020-06-03T14:06:22.000Z</time>
      </trkpt>
      <trkpt lat="43.01138" lon="2.94225">
        <ele>96</ele>
        <time>2020-06-03T14:06:27.000Z</time>
      </trkpt>
      <trkpt lat="43.01165" lon="2.94293">
        <ele>96</ele>
        <time>2020-06-03T14:06:35.000Z</time>
      </trkpt>
      <trkpt lat="43.01188" lon="2.94346">
        <ele>96</ele>
        <time>2020-06-03T14:06:42.000Z</time>
      </trkpt>
      <trkpt lat="43.01212" lon="2.94404">
        <ele>96</ele>
        <time>2020-06-03T14:06:50.000Z</time>
      </trkpt>
    </trkseg>
  </trk>
  <trk>
    <name><![CDATA[sigean le rieu et les sentiers de roquefort_10]]></name>
    <trkseg>
      <trkpt lat="43.01212" lon="2.94404">
        <ele>96</ele>
        <time>2020-06-03T14:06:50.000Z</time>
      </trkpt>
      <trkpt lat="43.01236" lon="2.94461">
        <ele>96</ele>
        <time>2020-06-03T14:06:58.000Z</time>
      </trkpt>
      <trkpt lat="43.01242" lon="2.94475">
        <ele>95.6</ele>
        <time>2020-06-03T14:07:00.000Z</time>
      </trkpt>
      <trkpt lat="43.01245" lon="2.94482">
        <ele>95.2</ele>
        <time>2020-06-03T14:07:01.000Z</time>
      </trkpt>
      <trkpt lat="43.01248" lon="2.94489">
        <ele>94.8</ele>
        <time>2020-06-03T14:07:02.000Z</time>
      </trkpt>
      <trkpt lat="43.01251" lon="2.94496">
        <ele>94.4</ele>
        <time>2020-06-03T14:07:03.000Z</time>
      </trkpt>
      <trkpt lat="43.01254" lon="2.94504">
        <ele>94</ele>
        <time>2020-06-03T14:07:04.000Z</time>
      </trkpt>
      <trkpt lat="43.0126" lon="2.94519">
        <ele>94</ele>
        <time>2020-06-03T14:07:06.000Z</time>
      </trkpt>
      <trkpt lat="43.01275" lon="2.94557">
        <ele>93.6</ele>
        <time>2020-06-03T14:07:11.000Z</time>
      </trkpt>
      <trkpt lat="43.01278" lon="2.94565">
        <ele>93.2</ele>
        <time>2020-06-03T14:07:12.000Z</time>
      </trkpt>
      <trkpt lat="43.0128" lon="2.94574">
        <ele>92.6</ele>
        <time>2020-06-03T14:07:13.000Z</time>
      </trkpt>
      <trkpt lat="43.01282" lon="2.94582">
        <ele>92.2</ele>
        <time>2020-06-03T14:07:14.000Z</time>
      </trkpt>
      <trkpt lat="43.01284" lon="2.94591">
        <ele>91.8</ele>
        <time>2020-06-03T14:07:15.000Z</time>
      </trkpt>
      <trkpt lat="43.01295" lon="2.94634">
        <ele>91.8</ele>
        <time>2020-06-03T14:07:20.000Z</time>
      </trkpt>
      <trkpt lat="43.01297" lon="2.94643">
        <ele>91</ele>
        <time>2020-06-03T14:07:21.000Z</time>
      </trkpt>
      <trkpt lat="43.013" lon="2.94652">
        <ele>90.4</ele>
        <time>2020-06-03T14:07:22.000Z</time>
      </trkpt>
      <trkpt lat="43.01302" lon="2.94661">
        <ele>90</ele>
        <time>2020-06-03T14:07:23.000Z</time>
      </trkpt>
      <trkpt lat="43.01304" lon="2.9467">
        <ele>89.6</ele>
        <time>2020-06-03T14:07:24.000Z</time>
      </trkpt>
      <trkpt lat="43.01316" lon="2.94715">
        <ele>89.6</ele>
        <time>2020-06-03T14:07:29.000Z</time>
      </trkpt>
      <trkpt lat="43.01318" lon="2.94725">
        <ele>89.2</ele>
        <time>2020-06-03T14:07:30.000Z</time>
      </trkpt>
      <trkpt lat="43.0132" lon="2.94734">
        <ele>88.6</ele>
        <time>2020-06-03T14:07:31.000Z</time>
      </trkpt>
      <trkpt lat="43.01323" lon="2.94743">
        <ele>88.2</ele>
        <time>2020-06-03T14:07:32.000Z</time>
      </trkpt>
      <trkpt lat="43.01325" lon="2.94753">
        <ele>87.8</ele>
        <time>2020-06-03T14:07:33.000Z</time>
      </trkpt>
      <trkpt lat="43.01328" lon="2.94763">
        <ele>87.4</ele>
        <time>2020-06-03T14:07:34.000Z</time>
      </trkpt>
      <trkpt lat="43.01335" lon="2.94793">
        <ele>87</ele>
        <time>2020-06-03T14:07:37.000Z</time>
      </trkpt>
      <trkpt lat="43.01338" lon="2.94803">
        <ele>86.4</ele>
        <time>2020-06-03T14:07:38.000Z</time>
      </trkpt>
      <trkpt lat="43.0134" lon="2.94814">
        <ele>86</ele>
        <time>2020-06-03T14:07:39.000Z</time>
      </trkpt>
      <trkpt lat="43.01343" lon="2.94824">
        <ele>85.6</ele>
        <time>2020-06-03T14:07:40.000Z</time>
      </trkpt>
      <trkpt lat="43.01346" lon="2.94835">
        <ele>85.2</ele>
        <time>2020-06-03T14:07:41.000Z</time>
      </trkpt>
      <trkpt lat="43.01348" lon="2.94846">
        <ele>84.6</ele>
        <time>2020-06-03T14:07:42.000Z</time>
      </trkpt>
      <trkpt lat="43.01351" lon="2.94857">
        <ele>84.2</ele>
        <time>2020-06-03T14:07:43.000Z</time>
      </trkpt>
      <trkpt lat="43.01354" lon="2.94868">
        <ele>83.8</ele>
        <time>2020-06-03T14:07:44.000Z</time>
      </trkpt>
      <trkpt lat="43.01357" lon="2.94879">
        <ele>83.2</ele>
        <time>2020-06-03T14:07:45.000Z</time>
      </trkpt>
      <trkpt lat="43.0136" lon="2.94891">
        <ele>82.4</ele>
        <time>2020-06-03T14:07:46.000Z</time>
      </trkpt>
      <trkpt lat="43.01362" lon="2.94903">
        <ele>82</ele>
        <time>2020-06-03T14:07:47.000Z</time>
      </trkpt>
      <trkpt lat="43.01365" lon="2.94914">
        <ele>81.6</ele>
        <time>2020-06-03T14:07:48.000Z</time>
      </trkpt>
      <trkpt lat="43.01368" lon="2.94925">
        <ele>81</ele>
        <time>2020-06-03T14:07:49.000Z</time>
      </trkpt>
    </trkseg>
  </trk>
  <trk>
    <name><![CDATA[sigean le rieu et les sentiers de roquefort_11]]></name>
    <trkseg>
      <trkpt lat="43.0004" lon="2.94073">
        <ele>83.4</ele>
        <time>2020-06-03T13:59:40.000Z</time>
      </trkpt>
      <trkpt lat="43.00038" lon="2.94081">
        <ele>82.8</ele>
        <time>2020-06-03T13:59:41.000Z</time>
      </trkpt>
      <trkpt lat="43.00037" lon="2.94088">
        <ele>82.4</ele>
        <time>2020-06-03T13:59:42.000Z</time>
      </trkpt>
      <trkpt lat="43.00036" lon="2.94096">
        <ele>82</ele>
        <time>2020-06-03T13:59:43.000Z</time>
      </trkpt>
      <trkpt lat="43.00035" lon="2.94103">
        <ele>81.6</ele>
        <time>2020-06-03T13:59:44.000Z</time>
      </trkpt>
      <trkpt lat="43.00034" lon="2.9411">
        <ele>81.2</ele>
        <time>2020-06-03T13:59:45.000Z</time>
      </trkpt>
      <trkpt lat="43.0003" lon="2.94137">
        <ele>81.2</ele>
        <time>2020-06-03T13:59:49.000Z</time>
      </trkpt>
      <trkpt lat="43.00028" lon="2.94151">
        <ele>81.2</ele>
        <time>2020-06-03T13:59:51.000Z</time>
      </trkpt>
      <trkpt lat="43.00021" lon="2.94191">
        <ele>81.2</ele>
        <time>2020-06-03T13:59:56.000Z</time>
      </trkpt>
      <trkpt lat="43.00017" lon="2.94218">
        <ele>81.2</ele>
        <time>2020-06-03T13:59:59.000Z</time>
      </trkpt>
      <trkpt lat="43.00013" lon="2.94241">
        <ele>81.2</ele>
        <time>2020-06-03T14:00:02.000Z</time>
      </trkpt>
      <trkpt lat="43.00006" lon="2.94292">
        <ele>81.2</ele>
        <time>2020-06-03T14:00:09.000Z</time>
      </trkpt>
      <trkpt lat="43.00003" lon="2.94308">
        <ele>80.6</ele>
        <time>2020-06-03T14:00:11.000Z</time>
      </trkpt>
      <trkpt lat="43.00002" lon="2.94315">
        <ele>80.2</ele>
        <time>2020-06-03T14:00:12.000Z</time>
      </trkpt>
      <trkpt lat="43" lon="2.94321">
        <ele>79.8</ele>
        <time>2020-06-03T14:00:13.000Z</time>
      </trkpt>
      <trkpt lat="42.99998" lon="2.94325">
        <ele>79.4</ele>
        <time>2020-06-03T14:00:14.000Z</time>
      </trkpt>
      <trkpt lat="42.99997" lon="2.94327">
        <ele>79</ele>
        <time>2020-06-03T14:00:15.000Z</time>
      </trkpt>
      <trkpt lat="42.99997" lon="2.9433">
        <ele>79</ele>
        <time>2020-06-03T14:00:16.000Z</time>
      </trkpt>
      <trkpt lat="42.99999" lon="2.94334">
        <ele>79</ele>
        <time>2020-06-03T14:00:17.000Z</time>
      </trkpt>
      <trkpt lat="42.99937" lon="2.94264">
        <ele>56.6</ele>
      </trkpt>
      <trkpt lat="42.9988" lon="2.94238">
        <ele>56.5</ele>
      </trkpt>
      <trkpt lat="42.99832" lon="2.94329">
        <ele>55.9</ele>
      </trkpt>
      <trkpt lat="42.99806" lon="2.94433">
        <ele>54</ele>
      </trkpt>
      <trkpt lat="42.99768" lon="2.94489">
        <ele>53.4</ele>
      </trkpt>
      <trkpt lat="42.99723" lon="2.94492">
        <ele>54.1</ele>
      </trkpt>
      <trkpt lat="42.99694" lon="2.9469">
        <ele>52.2</ele>
      </trkpt>
      <trkpt lat="42.99616" lon="2.94723">
        <ele>53.9</ele>
      </trkpt>
      <trkpt lat="42.99528" lon="2.94898">
        <ele>53</ele>
      </trkpt>
      <trkpt lat="42.99292" lon="2.94947">
        <ele>53.5</ele>
      </trkpt>
      <trkpt lat="42.99223" lon="2.94983">
        <ele>54.6</ele>
      </trkpt>
      <trkpt lat="42.99119" lon="2.95022">
        <ele>54.8</ele>
      </trkpt>
      <trkpt lat="42.99076" lon="2.95051">
        <ele>55.3</ele>
      </trkpt>
      <trkpt lat="42.9904" lon="2.95149">
        <ele>55.7</ele>
      </trkpt>
      <trkpt lat="42.98997" lon="2.95243">
        <ele>58.5</ele>
      </trkpt>
      <trkpt lat="42.98962" lon="2.95328">
        <ele>65.5</ele>
      </trkpt>
      <trkpt lat="42.99047" lon="2.95311">
        <ele>60.6</ele>
      </trkpt>
      <trkpt lat="42.99138" lon="2.95318">
        <ele>56.1</ele>
      </trkpt>
      <trkpt lat="42.99195" lon="2.9535">
        <ele>54.2</ele>
      </trkpt>
      <trkpt lat="42.99271" lon="2.95315">
        <ele>50.8</ele>
      </trkpt>
      <trkpt lat="42.99468" lon="2.95341">
        <ele>49.4</ele>
      </trkpt>
      <trkpt lat="42.99544" lon="2.9536">
        <ele>49.3</ele>
      </trkpt>
      <trkpt lat="42.99621" lon="2.9535">
        <ele>48.6</ele>
      </trkpt>
      <trkpt lat="42.99666" lon="2.95442">
        <ele>46.9</ele>
      </trkpt>
      <trkpt lat="42.99678" lon="2.95484">
        <ele>45.6</ele>
      </trkpt>
      <trkpt lat="42.99687" lon="2.95529">
        <ele>45</ele>
      </trkpt>
      <trkpt lat="42.9968" lon="2.95607">
        <ele>45</ele>
      </trkpt>
      <trkpt lat="42.99854" lon="2.95803">
        <ele>42.1</ele>
      </trkpt>
      <trkpt lat="42.99889" lon="2.95903">
        <ele>42</ele>
      </trkpt>
      <trkpt lat="42.99896" lon="2.9604">
        <ele>41.6</ele>
      </trkpt>
      <trkpt lat="42.99923" lon="2.96095">
        <ele>40.8</ele>
      </trkpt>
      <trkpt lat="42.99968" lon="2.96154">
        <ele>40.6</ele>
      </trkpt>
      <trkpt lat="42.99996" lon="2.96219">
        <ele>41.2</ele>
      </trkpt>
      <trkpt lat="43.0007" lon="2.96342">
        <ele>38.2</ele>
      </trkpt>
    </trkseg>
  </trk>
  <trk>
    <name><![CDATA[sigean le rieu et les sentiers de roquefort_12]]></name>
    <trkseg>
      <trkpt lat="43.00269" lon="2.94432">
        <ele>79</ele>
        <time>2020-06-03T14:01:04.000Z</time>
      </trkpt>
      <trkpt lat="43.0031" lon="2.94456">
        <ele>79</ele>
        <time>2020-06-03T14:01:11.000Z</time>
      </trkpt>
      <trkpt lat="43.0035" lon="2.94479">
        <ele>79</ele>
        <time>2020-06-03T14:01:18.000Z</time>
      </trkpt>
      <trkpt lat="43.00385" lon="2.94498">
        <ele>79</ele>
        <time>2020-06-03T14:01:24.000Z</time>
      </trkpt>
      <trkpt lat="43.00433" lon="2.9452">
        <ele>79</ele>
        <time>2020-06-03T14:01:32.000Z</time>
      </trkpt>
    </trkseg>
  </trk>
  <trk>
    <name><![CDATA[sigean le rieu et les sentiers de roquefort_13]]></name>
    <trkseg>
      <trkpt lat="43.00433" lon="2.9452">
        <ele>79</ele>
        <time>2020-06-03T14:01:32.000Z</time>
      </trkpt>
      <trkpt lat="43.00464" lon="2.94534">
        <ele>79</ele>
        <time>2020-06-03T14:01:38.000Z</time>
      </trkpt>
      <trkpt lat="43.00501" lon="2.9455">
        <ele>79</ele>
        <time>2020-06-03T14:01:44.000Z</time>
      </trkpt>
    </trkseg>
  </trk>
  <trk>
    <name><![CDATA[sigean le rieu et les sentiers de roquefort_14]]></name>
    <trkseg>
      <trkpt lat="43.00501" lon="2.9455">
        <ele>79</ele>
        <time>2020-06-03T14:01:44.000Z</time>
      </trkpt>
      <trkpt lat="43.00536" lon="2.94565">
        <ele>79</ele>
        <time>2020-06-03T14:01:51.000Z</time>
      </trkpt>
      <trkpt lat="43.00543" lon="2.94566">
        <ele>79</ele>
        <time>2020-06-03T14:01:53.000Z</time>
      </trkpt>
      <trkpt lat="43.00547" lon="2.94564">
        <ele>79</ele>
        <time>2020-06-03T14:01:54.000Z</time>
      </trkpt>
      <trkpt lat="43.00553" lon="2.9455">
        <ele>79</ele>
        <time>2020-06-03T14:01:57.000Z</time>
      </trkpt>
    </trkseg>
  </trk>
  <trk>
    <name><![CDATA[sigean le rieu et les sentiers de roquefort_15]]></name>
    <trkseg>
      <trkpt lat="43.01368" lon="2.94925">
        <ele>81</ele>
        <time>2020-06-03T14:07:49.000Z</time>
      </trkpt>
      <trkpt lat="43.01371" lon="2.94937">
        <ele>80.6</ele>
        <time>2020-06-03T14:07:50.000Z</time>
      </trkpt>
      <trkpt lat="43.01374" lon="2.94949">
        <ele>80</ele>
        <time>2020-06-03T14:07:51.000Z</time>
      </trkpt>
      <trkpt lat="43.01377" lon="2.9496">
        <ele>79.6</ele>
        <time>2020-06-03T14:07:52.000Z</time>
      </trkpt>
      <trkpt lat="43.0138" lon="2.94973">
        <ele>79</ele>
        <time>2020-06-03T14:07:53.000Z</time>
      </trkpt>
      <trkpt lat="43.01383" lon="2.94984">
        <ele>78.4</ele>
        <time>2020-06-03T14:07:54.000Z</time>
      </trkpt>
      <trkpt lat="43.01385" lon="2.94995">
        <ele>78</ele>
        <time>2020-06-03T14:07:55.000Z</time>
      </trkpt>
      <trkpt lat="43.01388" lon="2.95005">
        <ele>77.6</ele>
        <time>2020-06-03T14:07:56.000Z</time>
      </trkpt>
      <trkpt lat="43.0139" lon="2.95014">
        <ele>77</ele>
        <time>2020-06-03T14:07:57.000Z</time>
      </trkpt>
      <trkpt lat="43.01392" lon="2.95022">
        <ele>76.6</ele>
        <time>2020-06-03T14:07:58.000Z</time>
      </trkpt>
      <trkpt lat="43.01394" lon="2.9503">
        <ele>76.2</ele>
        <time>2020-06-03T14:07:59.000Z</time>
      </trkpt>
      <trkpt lat="43.01399" lon="2.95053">
        <ele>76.2</ele>
        <time>2020-06-03T14:08:02.000Z</time>
      </trkpt>
      <trkpt lat="43.014" lon="2.95061">
        <ele>76.2</ele>
        <time>2020-06-03T14:08:03.000Z</time>
      </trkpt>
      <trkpt lat="43.014" lon="2.95094">
        <ele>75.8</ele>
        <time>2020-06-03T14:08:08.000Z</time>
      </trkpt>
      <trkpt lat="43.014" lon="2.95101">
        <ele>75.2</ele>
        <time>2020-06-03T14:08:09.000Z</time>
      </trkpt>
      <trkpt lat="43.014" lon="2.95107">
        <ele>74.8</ele>
        <time>2020-06-03T14:08:10.000Z</time>
      </trkpt>
      <trkpt lat="43.01399" lon="2.95114">
        <ele>74</ele>
        <time>2020-06-03T14:08:11.000Z</time>
      </trkpt>
      <trkpt lat="43.01398" lon="2.95144">
        <ele>74</ele>
        <time>2020-06-03T14:08:15.000Z</time>
      </trkpt>
      <trkpt lat="43.01397" lon="2.95152">
        <ele>74</ele>
        <time>2020-06-03T14:08:16.000Z</time>
      </trkpt>
      <trkpt lat="43.01395" lon="2.9516">
        <ele>73.6</ele>
        <time>2020-06-03T14:08:17.000Z</time>
      </trkpt>
      <trkpt lat="43.01395" lon="2.95169">
        <ele>73.2</ele>
        <time>2020-06-03T14:08:18.000Z</time>
      </trkpt>
      <trkpt lat="43.01394" lon="2.95179">
        <ele>72.8</ele>
        <time>2020-06-03T14:08:19.000Z</time>
      </trkpt>
      <trkpt lat="43.01393" lon="2.95189">
        <ele>72.4</ele>
        <time>2020-06-03T14:08:20.000Z</time>
      </trkpt>
      <trkpt lat="43.01392" lon="2.95199">
        <ele>72</ele>
        <time>2020-06-03T14:08:21.000Z</time>
      </trkpt>
      <trkpt lat="43.01391" lon="2.9521">
        <ele>72</ele>
        <time>2020-06-03T14:08:22.000Z</time>
      </trkpt>
      <trkpt lat="43.01391" lon="2.9522">
        <ele>71.4</ele>
        <time>2020-06-03T14:08:23.000Z</time>
      </trkpt>
      <trkpt lat="43.01391" lon="2.9523">
        <ele>71</ele>
        <time>2020-06-03T14:08:24.000Z</time>
      </trkpt>
      <trkpt lat="43.01391" lon="2.9524">
        <ele>70.6</ele>
        <time>2020-06-03T14:08:25.000Z</time>
      </trkpt>
      <trkpt lat="43.0139" lon="2.95251">
        <ele>70.2</ele>
        <time>2020-06-03T14:08:26.000Z</time>
      </trkpt>
      <trkpt lat="43.01389" lon="2.95262">
        <ele>69.8</ele>
        <time>2020-06-03T14:08:27.000Z</time>
      </trkpt>
      <trkpt lat="43.01387" lon="2.95284">
        <ele>69.8</ele>
        <time>2020-06-03T14:08:29.000Z</time>
      </trkpt>
      <trkpt lat="43.01386" lon="2.95319">
        <ele>69.4</ele>
        <time>2020-06-03T14:08:32.000Z</time>
      </trkpt>
      <trkpt lat="43.01388" lon="2.95329">
        <ele>69</ele>
        <time>2020-06-03T14:08:33.000Z</time>
      </trkpt>
      <trkpt lat="43.01391" lon="2.9534">
        <ele>68.6</ele>
        <time>2020-06-03T14:08:34.000Z</time>
      </trkpt>
      <trkpt lat="43.01395" lon="2.9535">
        <ele>68.2</ele>
        <time>2020-06-03T14:08:35.000Z</time>
      </trkpt>
      <trkpt lat="43.01399" lon="2.95359">
        <ele>67.8</ele>
        <time>2020-06-03T14:08:36.000Z</time>
      </trkpt>
      <trkpt lat="43.01404" lon="2.95368">
        <ele>67.8</ele>
        <time>2020-06-03T14:08:37.000Z</time>
      </trkpt>
      <trkpt lat="43.01419" lon="2.95396">
        <ele>67</ele>
        <time>2020-06-03T14:08:38.000Z</time>
      </trkpt>
      <trkpt lat="43.01425" lon="2.95405">
        <ele>66.6</ele>
        <time>2020-06-03T14:08:42.000Z</time>
      </trkpt>
      <trkpt lat="43.0143" lon="2.95415">
        <ele>66.2</ele>
        <time>2020-06-03T14:08:43.000Z</time>
      </trkpt>
      <trkpt lat="43.01436" lon="2.95425">
        <ele>65.6</ele>
        <time>2020-06-03T14:08:44.000Z</time>
      </trkpt>
      <trkpt lat="43.01442" lon="2.95435">
        <ele>65</ele>
        <time>2020-06-03T14:08:45.000Z</time>
      </trkpt>
      <trkpt lat="43.01448" lon="2.95445">
        <ele>64.4</ele>
        <time>2020-06-03T14:08:46.000Z</time>
      </trkpt>
      <trkpt lat="43.01454" lon="2.95456">
        <ele>63.8</ele>
        <time>2020-06-03T14:08:47.000Z</time>
      </trkpt>
      <trkpt lat="43.0146" lon="2.95467">
        <ele>63.2</ele>
        <time>2020-06-03T14:08:48.000Z</time>
      </trkpt>
      <trkpt lat="43.01466" lon="2.95479">
        <ele>62.6</ele>
        <time>2020-06-03T14:08:49.000Z</time>
      </trkpt>
      <trkpt lat="43.01473" lon="2.9549">
        <ele>61.8</ele>
        <time>2020-06-03T14:08:50.000Z</time>
      </trkpt>
      <trkpt lat="43.01479" lon="2.95502">
        <ele>61.2</ele>
        <time>2020-06-03T14:08:51.000Z</time>
      </trkpt>
      <trkpt lat="43.01486" lon="2.95515">
        <ele>60.4</ele>
        <time>2020-06-03T14:08:52.000Z</time>
      </trkpt>
      <trkpt lat="43.01493" lon="2.95527">
        <ele>59.6</ele>
        <time>2020-06-03T14:08:53.000Z</time>
      </trkpt>
      <trkpt lat="43.01501" lon="2.9554">
        <ele>58.6</ele>
        <time>2020-06-03T14:08:54.000Z</time>
      </trkpt>
      <trkpt lat="43.01509" lon="2.95552">
        <ele>57.6</ele>
        <time>2020-06-03T14:08:55.000Z</time>
      </trkpt>
      <trkpt lat="43.01518" lon="2.95563">
        <ele>56.6</ele>
        <time>2020-06-03T14:08:56.000Z</time>
      </trkpt>
      <trkpt lat="43.01529" lon="2.95574">
        <ele>55.4</ele>
        <time>2020-06-03T14:08:57.000Z</time>
      </trkpt>
      <trkpt lat="43.01539" lon="2.95584">
        <ele>54.4</ele>
        <time>2020-06-03T14:08:58.000Z</time>
      </trkpt>
      <trkpt lat="43.0155" lon="2.95593">
        <ele>53.2</ele>
        <time>2020-06-03T14:08:59.000Z</time>
      </trkpt>
      <trkpt lat="43.0156" lon="2.95602">
        <ele>52</ele>
        <time>2020-06-03T14:09:00.000Z</time>
      </trkpt>
      <trkpt lat="43.01571" lon="2.95612">
        <ele>49.6</ele>
        <time>2020-06-03T14:09:01.000Z</time>
      </trkpt>
      <trkpt lat="43.01581" lon="2.95622">
        <ele>48.6</ele>
        <time>2020-06-03T14:09:02.000Z</time>
      </trkpt>
      <trkpt lat="43.0159" lon="2.95634">
        <ele>47.6</ele>
        <time>2020-06-03T14:09:03.000Z</time>
      </trkpt>
      <trkpt lat="43.01597" lon="2.95647">
        <ele>46.6</ele>
        <time>2020-06-03T14:09:04.000Z</time>
      </trkpt>
      <trkpt lat="43.01604" lon="2.95662">
        <ele>45.6</ele>
        <time>2020-06-03T14:09:05.000Z</time>
      </trkpt>
      <trkpt lat="43.01609" lon="2.95676">
        <ele>44.6</ele>
        <time>2020-06-03T14:09:06.000Z</time>
      </trkpt>
      <trkpt lat="43.01614" lon="2.95689">
        <ele>43.6</ele>
        <time>2020-06-03T14:09:07.000Z</time>
      </trkpt>
      <trkpt lat="43.01619" lon="2.95704">
        <ele>43.2</ele>
        <time>2020-06-03T14:09:08.000Z</time>
      </trkpt>
      <trkpt lat="43.01624" lon="2.95717">
        <ele>42.8</ele>
        <time>2020-06-03T14:09:09.000Z</time>
      </trkpt>
      <trkpt lat="43.01628" lon="2.95731">
        <ele>42.4</ele>
        <time>2020-06-03T14:09:10.000Z</time>
      </trkpt>
      <trkpt lat="43.01633" lon="2.95745">
        <ele>42</ele>
        <time>2020-06-03T14:09:11.000Z</time>
      </trkpt>
      <trkpt lat="43.01637" lon="2.95758">
        <ele>41.6</ele>
        <time>2020-06-03T14:09:12.000Z</time>
      </trkpt>
      <trkpt lat="43.01642" lon="2.95771">
        <ele>41.6</ele>
        <time>2020-06-03T14:09:13.000Z</time>
      </trkpt>
      <trkpt lat="43.01648" lon="2.95781">
        <ele>41.6</ele>
        <time>2020-06-03T14:09:14.000Z</time>
      </trkpt>
      <trkpt lat="43.01657" lon="2.95789">
        <ele>41.2</ele>
        <time>2020-06-03T14:09:15.000Z</time>
      </trkpt>
      <trkpt lat="43.01666" lon="2.95795">
        <ele>40.8</ele>
        <time>2020-06-03T14:09:16.000Z</time>
      </trkpt>
      <trkpt lat="43.01675" lon="2.95799">
        <ele>40.4</ele>
        <time>2020-06-03T14:09:17.000Z</time>
      </trkpt>
      <trkpt lat="43.01684" lon="2.95803">
        <ele>39.8</ele>
        <time>2020-06-03T14:09:18.000Z</time>
      </trkpt>
      <trkpt lat="43.01693" lon="2.95807">
        <ele>39.4</ele>
        <time>2020-06-03T14:09:19.000Z</time>
      </trkpt>
      <trkpt lat="43.01719" lon="2.95817">
        <ele>39.4</ele>
        <time>2020-06-03T14:09:22.000Z</time>
      </trkpt>
      <trkpt lat="43.01768" lon="2.95842">
        <ele>39.4</ele>
        <time>2020-06-03T14:09:28.000Z</time>
      </trkpt>
      <trkpt lat="43.01789" lon="2.95859">
        <ele>39</ele>
        <time>2020-06-03T14:09:31.000Z</time>
      </trkpt>
      <trkpt lat="43.01796" lon="2.95866">
        <ele>38.6</ele>
        <time>2020-06-03T14:09:32.000Z</time>
      </trkpt>
      <trkpt lat="43.01802" lon="2.95874">
        <ele>38.2</ele>
        <time>2020-06-03T14:09:33.000Z</time>
      </trkpt>
      <trkpt lat="43.01808" lon="2.95881">
        <ele>37.8</ele>
        <time>2020-06-03T14:09:34.000Z</time>
      </trkpt>
      <trkpt lat="43.01814" lon="2.95889">
        <ele>37.4</ele>
        <time>2020-06-03T14:09:35.000Z</time>
      </trkpt>
      <trkpt lat="43.01841" lon="2.95928">
        <ele>37.4</ele>
        <time>2020-06-03T14:09:40.000Z</time>
      </trkpt>
    </trkseg>
  </trk>
</gpx>